<?xml version='1.0' encoding='UTF-8'?><gpx version="1.1" creator="JPX - https://github.com/jenetics/jpx" xmlns="http://www.topografix.com/GPX/1/1"><trk><trkseg><trkpt lat="43.50466510528362" lon="10.620204652337177"><ele>309.0</ele><time>2026-04-18T06:46:28Z</time></trkpt><trkpt lat="43.50482342018064" lon="10.620012975782886"><ele>309.0</ele><time>2026-04-18T06:48:06.999Z</time></trkpt><trkpt lat="43.504906772693" lon="10.619920864268868"><ele>309.0</ele><time>2026-04-18T06:48:08Z</time></trkpt><trkpt lat="43.50500840894422" lon="10.619866641667201"><ele>309.0</ele><time>2026-04-18T06:48:09Z</time></trkpt><trkpt lat="43.50506476598356" lon="10.61979329448881"><ele>309.0</ele><time>2026-04-18T06:48:10Z</time></trkpt><trkpt lat="43.505074873551195" lon="10.619670109215315"><ele>309.0</ele><time>2026-04-18T06:48:11Z</time></trkpt><trkpt lat="43.50510242871565" lon="10.619567163226433"><ele>309.0</ele><time>2026-04-18T06:48:12Z</time></trkpt><trkpt lat="43.50516567026368" lon="10.619405333234416"><ele>309.0</ele><time>2026-04-18T06:48:14Z</time></trkpt><trkpt lat="43.50524892843573" lon="10.619320537415684"><ele>309.0</ele><time>2026-04-18T06:48:16Z</time></trkpt><trkpt lat="43.50531801837237" lon="10.619335656426735"><ele>309.59999999999997</ele><time>2026-04-18T06:48:17Z</time></trkpt><trkpt lat="43.50540293150923" lon="10.61938910123403"><ele>310.2</ele><time>2026-04-18T06:48:18Z</time></trkpt><trkpt lat="43.50552914061128" lon="10.619432560269878"><ele>310.79999999999995</ele><time>2026-04-18T06:48:19Z</time></trkpt><trkpt lat="43.50564220465012" lon="10.619473730379738"><ele>311.4</ele><time>2026-04-18T06:48:20Z</time></trkpt><trkpt lat="43.505741506776516" lon="10.619504848053978"><ele>312.0</ele><time>2026-04-18T06:48:21Z</time></trkpt><trkpt lat="43.50582021976224" lon="10.619496670293193"><ele>309.0</ele><time>2026-04-18T06:48:22Z</time></trkpt><trkpt lat="43.50592193313179" lon="10.619451962289057"><ele>306.0</ele><time>2026-04-18T06:48:23Z</time></trkpt><trkpt lat="43.506051498033614" lon="10.619390592002858"><ele>303.0</ele><time>2026-04-18T06:48:24Z</time></trkpt><trkpt lat="43.506168750838825" lon="10.619367963501588"><ele>300.0</ele><time>2026-04-18T06:48:25Z</time></trkpt><trkpt lat="43.506275293242965" lon="10.619341042948104"><ele>298.1666666666667</ele><time>2026-04-18T06:48:26Z</time></trkpt><trkpt lat="43.506354067345995" lon="10.619337316542637"><ele>296.3333333333333</ele><time>2026-04-18T06:48:27Z</time></trkpt><trkpt lat="43.506425000035826" lon="10.619330978699676"><ele>294.5</ele><time>2026-04-18T06:48:28Z</time></trkpt><trkpt lat="43.506531908330466" lon="10.619340321232995"><ele>292.66666666666663</ele><time>2026-04-18T06:48:29Z</time></trkpt><trkpt lat="43.50662267629476" lon="10.61932983798259"><ele>290.8333333333333</ele><time>2026-04-18T06:48:30Z</time></trkpt><trkpt lat="43.50670029690485" lon="10.619291072727504"><ele>289.0</ele><time>2026-04-18T06:48:31Z</time></trkpt><trkpt lat="43.50678447562438" lon="10.619276943959404"><ele>289.0</ele><time>2026-04-18T06:48:32Z</time></trkpt><trkpt lat="43.50685685113726" lon="10.619242989599796"><ele>289.0</ele><time>2026-04-18T06:48:33Z</time></trkpt><trkpt lat="43.506926643165876" lon="10.619210246611583"><ele>289.0</ele><time>2026-04-18T06:48:34Z</time></trkpt><trkpt lat="43.506991248837785" lon="10.619091864506421"><ele>289.0</ele><time>2026-04-18T06:48:35Z</time></trkpt><trkpt lat="43.507050818478206" lon="10.619008984900413"><ele>289.0</ele><time>2026-04-18T06:48:36Z</time></trkpt><trkpt lat="43.50713887689679" lon="10.618918385966428"><ele>287.0</ele><time>2026-04-18T06:48:37Z</time></trkpt><trkpt lat="43.507226913493525" lon="10.618841390023377"><ele>285.0</ele><time>2026-04-18T06:48:38Z</time></trkpt><trkpt lat="43.50733534787896" lon="10.618799363968543"><ele>283.0</ele><time>2026-04-18T06:48:39Z</time></trkpt><trkpt lat="43.50743581265234" lon="10.618771891999119"><ele>281.0</ele><time>2026-04-18T06:48:40Z</time></trkpt><trkpt lat="43.50752283717353" lon="10.6187191490456"><ele>279.0</ele><time>2026-04-18T06:48:41Z</time></trkpt><trkpt lat="43.50758551092463" lon="10.618690184124326"><ele>279.0</ele><time>2026-04-18T06:48:42Z</time></trkpt><trkpt lat="43.50764556717628" lon="10.618633163151948"><ele>279.0</ele><time>2026-04-18T06:48:43Z</time></trkpt><trkpt lat="43.5076988793176" lon="10.618565844407847"><ele>279.0</ele><time>2026-04-18T06:48:44Z</time></trkpt><trkpt lat="43.507766827891544" lon="10.618471116927383"><ele>279.0</ele><time>2026-04-18T06:48:45Z</time></trkpt><trkpt lat="43.50784787356119" lon="10.618361615580593"><ele>279.0</ele><time>2026-04-18T06:48:46Z</time></trkpt><trkpt lat="43.50791265092337" lon="10.618243573854826"><ele>279.0</ele><time>2026-04-18T06:48:47Z</time></trkpt><trkpt lat="43.50797848174021" lon="10.618105101910727"><ele>279.0</ele><time>2026-04-18T06:48:48Z</time></trkpt><trkpt lat="43.50803309220103" lon="10.617940566661638"><ele>279.0</ele><time>2026-04-18T06:48:49Z</time></trkpt><trkpt lat="43.50809320931755" lon="10.617774428876881"><ele>279.0</ele><time>2026-04-18T06:48:50Z</time></trkpt><trkpt lat="43.508171311058554" lon="10.617608595761755"><ele>281.5</ele><time>2026-04-18T06:48:51Z</time></trkpt><trkpt lat="43.5082147219545" lon="10.6174336335894"><ele>284.0</ele><time>2026-04-18T06:48:52Z</time></trkpt><trkpt lat="43.50827927290665" lon="10.617262235555309"><ele>286.5</ele><time>2026-04-18T06:48:53Z</time></trkpt><trkpt lat="43.508352160689526" lon="10.617149648666375"><ele>289.0</ele><time>2026-04-18T06:48:54Z</time></trkpt><trkpt lat="43.508412508247716" lon="10.617034806129514"><ele>289.59999999999997</ele><time>2026-04-18T06:48:55Z</time></trkpt><trkpt lat="43.5084747788079" lon="10.616944437253583"><ele>290.2</ele><time>2026-04-18T06:48:56Z</time></trkpt><trkpt lat="43.508545077917155" lon="10.616841918765598"><ele>290.79999999999995</ele><time>2026-04-18T06:48:57Z</time></trkpt><trkpt lat="43.50864589427022" lon="10.616724391717183"><ele>291.4</ele><time>2026-04-18T06:48:58Z</time></trkpt><trkpt lat="43.50873200761189" lon="10.61662506162234"><ele>292.0</ele><time>2026-04-18T06:48:59Z</time></trkpt><trkpt lat="43.5088006033971" lon="10.616536930601043"><ele>292.0</ele><time>2026-04-18T06:49:00Z</time></trkpt><trkpt lat="43.50886111538604" lon="10.616475744302587"><ele>292.0</ele><time>2026-04-18T06:49:01Z</time></trkpt><trkpt lat="43.508916385269465" lon="10.616415656949673"><ele>292.0</ele><time>2026-04-18T06:49:02Z</time></trkpt><trkpt lat="43.50898831372782" lon="10.616395891532143"><ele>292.0</ele><time>2026-04-18T06:49:04Z</time></trkpt><trkpt lat="43.50913570850074" lon="10.616644450064321"><ele>292.0</ele><time>2026-04-18T06:49:26Z</time></trkpt><trkpt lat="43.50920329544689" lon="10.616776000310587"><ele>292.0</ele><time>2026-04-18T06:49:27Z</time></trkpt><trkpt lat="43.50929687851931" lon="10.616905870508381"><ele>292.0</ele><time>2026-04-18T06:49:28Z</time></trkpt><trkpt lat="43.5093610109837" lon="10.617037731353033"><ele>292.0</ele><time>2026-04-18T06:49:29Z</time></trkpt><trkpt lat="43.50943924783659" lon="10.617181287521964"><ele>290.75</ele><time>2026-04-18T06:49:30Z</time></trkpt><trkpt lat="43.50952193528113" lon="10.617332156632909"><ele>289.5</ele><time>2026-04-18T06:49:31Z</time></trkpt><trkpt lat="43.50959754099634" lon="10.61748196964592"><ele>288.25</ele><time>2026-04-18T06:49:32Z</time></trkpt><trkpt lat="43.50968731638902" lon="10.617652256982092"><ele>287.0</ele><time>2026-04-18T06:49:32.999Z</time></trkpt><trkpt lat="43.50977024511301" lon="10.617809697326592"><ele>286.0</ele><time>2026-04-18T06:49:33.999Z</time></trkpt><trkpt lat="43.509830504043755" lon="10.617957773605363"><ele>285.0</ele><time>2026-04-18T06:49:34.999Z</time></trkpt><trkpt lat="43.509875365729314" lon="10.618091371732326"><ele>284.0</ele><time>2026-04-18T06:49:35.999Z</time></trkpt><trkpt lat="43.50991265113327" lon="10.618238503216014"><ele>283.0</ele><time>2026-04-18T06:49:36.999Z</time></trkpt><trkpt lat="43.509950187172734" lon="10.618376997337643"><ele>283.0</ele><time>2026-04-18T06:49:37.999Z</time></trkpt><trkpt lat="43.50999405255874" lon="10.618472461271004"><ele>283.0</ele><time>2026-04-18T06:49:38.999Z</time></trkpt><trkpt lat="43.51006070062775" lon="10.618555499023008"><ele>283.0</ele><time>2026-04-18T06:49:39.999Z</time></trkpt><trkpt lat="43.51013545361317" lon="10.618614335358423"><ele>283.0</ele><time>2026-04-18T06:49:40.999Z</time></trkpt><trkpt lat="43.510241553952866" lon="10.618569000773418"><ele>283.0</ele><time>2026-04-18T06:49:41.999Z</time></trkpt><trkpt lat="43.510340875959486" lon="10.618488799285451"><ele>280.5</ele><time>2026-04-18T06:49:42.999Z</time></trkpt><trkpt lat="43.51043837422201" lon="10.618400666226979"><ele>278.0</ele><time>2026-04-18T06:49:43.999Z</time></trkpt><trkpt lat="43.510536356983046" lon="10.618328194800506"><ele>275.5</ele><time>2026-04-18T06:49:44.999Z</time></trkpt><trkpt lat="43.51063085195199" lon="10.618263673606894"><ele>273.0</ele><time>2026-04-18T06:49:45.999Z</time></trkpt><trkpt lat="43.510740983142405" lon="10.618200756914712"><ele>273.0</ele><time>2026-04-18T06:49:46.999Z</time></trkpt><trkpt lat="43.510865578287316" lon="10.61817434099907"><ele>273.0</ele><time>2026-04-18T06:49:47.999Z</time></trkpt><trkpt lat="43.511003573005674" lon="10.618220611567603"><ele>273.0</ele><time>2026-04-18T06:49:48.999Z</time></trkpt><trkpt lat="43.5111516254685" lon="10.618249393252038"><ele>273.0</ele><time>2026-04-18T06:49:49.999Z</time></trkpt><trkpt lat="43.51129542699633" lon="10.618277348556312"><ele>270.75</ele><time>2026-04-18T06:49:50.999Z</time></trkpt><trkpt lat="43.511419175200366" lon="10.618304786546364"><ele>268.5</ele><time>2026-04-18T06:49:51.999Z</time></trkpt><trkpt lat="43.511545968018524" lon="10.618338316693137"><ele>266.25</ele><time>2026-04-18T06:49:52.999Z</time></trkpt><trkpt lat="43.51167813093662" lon="10.618365541579028"><ele>264.0</ele><time>2026-04-18T06:49:53.999Z</time></trkpt><trkpt lat="43.51178773759948" lon="10.618430149525244"><ele>264.0</ele><time>2026-04-18T06:49:54.999Z</time></trkpt><trkpt lat="43.511892561025384" lon="10.618535918064282"><ele>264.0</ele><time>2026-04-18T06:49:55.999Z</time></trkpt><trkpt lat="43.51199995056693" lon="10.618625808268385"><ele>264.0</ele><time>2026-04-18T06:49:56.999Z</time></trkpt><trkpt lat="43.512102991010984" lon="10.618737350338948"><ele>264.0</ele><time>2026-04-18T06:49:57.999Z</time></trkpt><trkpt lat="43.51223036850606" lon="10.618830469597802"><ele>261.0</ele><time>2026-04-18T06:49:58.999Z</time></trkpt><trkpt lat="43.5123768553936" lon="10.618907032733986"><ele>258.0</ele><time>2026-04-18T06:49:59.999Z</time></trkpt><trkpt lat="43.51253471612745" lon="10.618979737570264"><ele>255.0</ele><time>2026-04-18T06:50:00.999Z</time></trkpt><trkpt lat="43.51268070276926" lon="10.619072907093946"><ele>255.0</ele><time>2026-04-18T06:50:01.999Z</time></trkpt><trkpt lat="43.51280911537016" lon="10.61913477214473"><ele>255.0</ele><time>2026-04-18T06:50:02.999Z</time></trkpt><trkpt lat="43.51292437809633" lon="10.619190301020376"><ele>255.0</ele><time>2026-04-18T06:50:03.999Z</time></trkpt><trkpt lat="43.51306335128305" lon="10.619231613159357"><ele>255.0</ele><time>2026-04-18T06:50:04.999Z</time></trkpt><trkpt lat="43.51319459840155" lon="10.619300356436458"><ele>252.75</ele><time>2026-04-18T06:50:05.999Z</time></trkpt><trkpt lat="43.51330743834146" lon="10.619355357460226"><ele>250.5</ele><time>2026-04-18T06:50:06.999Z</time></trkpt><trkpt lat="43.51342090009008" lon="10.6194087847232"><ele>248.25</ele><time>2026-04-18T06:50:07.999Z</time></trkpt><trkpt lat="43.513549229526205" lon="10.619471826262403"><ele>246.0</ele><time>2026-04-18T06:50:08.999Z</time></trkpt><trkpt lat="43.513665130082344" lon="10.619526786600456"><ele>244.33333333333334</ele><time>2026-04-18T06:50:09.999Z</time></trkpt><trkpt lat="43.51376268794333" lon="10.619570513342389"><ele>242.66666666666669</ele><time>2026-04-18T06:50:10.999Z</time></trkpt><trkpt lat="43.513838256625874" lon="10.61960264474708"><ele>241.0</ele><time>2026-04-18T06:50:11.999Z</time></trkpt><trkpt lat="43.51391204222351" lon="10.619650364314888"><ele>239.33333333333334</ele><time>2026-04-18T06:50:12.999Z</time></trkpt><trkpt lat="43.513975927792444" lon="10.619700459721328"><ele>237.66666666666669</ele><time>2026-04-18T06:50:14Z</time></trkpt><trkpt lat="43.514024148947755" lon="10.619777423675682"><ele>236.0</ele><time>2026-04-18T06:50:15Z</time></trkpt><trkpt lat="43.51405937203837" lon="10.619877726609975"><ele>236.0</ele><time>2026-04-18T06:50:16Z</time></trkpt><trkpt lat="43.51406224114979" lon="10.619996115928489"><ele>236.00000000000003</ele><time>2026-04-18T06:50:17Z</time></trkpt><trkpt lat="43.51404464788936" lon="10.620122585745667"><ele>236.00000000000003</ele><time>2026-04-18T06:50:18Z</time></trkpt><trkpt lat="43.51399798418917" lon="10.62025308584627"><ele>236.0</ele><time>2026-04-18T06:50:19Z</time></trkpt><trkpt lat="43.51394210888005" lon="10.620360421694485"><ele>236.0</ele><time>2026-04-18T06:50:20Z</time></trkpt><trkpt lat="43.513887271190065" lon="10.620433977640502"><ele>235.60000000000002</ele><time>2026-04-18T06:50:21Z</time></trkpt><trkpt lat="43.51383236389211" lon="10.620528014785137"><ele>235.20000000000002</ele><time>2026-04-18T06:50:22Z</time></trkpt><trkpt lat="43.51376835422115" lon="10.620621898613452"><ele>234.79999999999998</ele><time>2026-04-18T06:50:23Z</time></trkpt><trkpt lat="43.513700897306855" lon="10.620721111398185"><ele>234.39999999999998</ele><time>2026-04-18T06:50:24Z</time></trkpt><trkpt lat="43.51363116247874" lon="10.620816652517783"><ele>234.0</ele><time>2026-04-18T06:50:25Z</time></trkpt><trkpt lat="43.51356071161293" lon="10.620910090719944"><ele>234.0</ele><time>2026-04-18T06:50:26Z</time></trkpt><trkpt lat="43.51350041775182" lon="10.620998937640326"><ele>234.0</ele><time>2026-04-18T06:50:27Z</time></trkpt><trkpt lat="43.513451551453834" lon="10.621094859451683"><ele>234.0</ele><time>2026-04-18T06:50:28Z</time></trkpt><trkpt lat="43.513427071663855" lon="10.621207961091837"><ele>234.0</ele><time>2026-04-18T06:50:29Z</time></trkpt><trkpt lat="43.51344033788728" lon="10.62133159048315"><ele>234.0</ele><time>2026-04-18T06:50:30Z</time></trkpt><trkpt lat="43.51348423434455" lon="10.621450826011108"><ele>234.0</ele><time>2026-04-18T06:50:31Z</time></trkpt><trkpt lat="43.51356304888826" lon="10.621545797326034"><ele>232.0</ele><time>2026-04-18T06:50:32Z</time></trkpt><trkpt lat="43.51368272505373" lon="10.621604762663456"><ele>230.0</ele><time>2026-04-18T06:50:33Z</time></trkpt><trkpt lat="43.51382789966264" lon="10.62163594092408"><ele>228.0</ele><time>2026-04-18T06:50:34Z</time></trkpt><trkpt lat="43.513976337840596" lon="10.621681210883873"><ele>226.0</ele><time>2026-04-18T06:50:35Z</time></trkpt><trkpt lat="43.514116854363856" lon="10.621755841069506"><ele>225.25</ele><time>2026-04-18T06:50:36Z</time></trkpt><trkpt lat="43.51424260611649" lon="10.62184917568726"><ele>224.5</ele><time>2026-04-18T06:50:37Z</time></trkpt><trkpt lat="43.51436609488356" lon="10.621953384715068"><ele>223.75</ele><time>2026-04-18T06:50:38Z</time></trkpt><trkpt lat="43.51450460873894" lon="10.622031245477556"><ele>223.0</ele><time>2026-04-18T06:50:39Z</time></trkpt><trkpt lat="43.514648120430195" lon="10.622093995976268"><ele>220.0</ele><time>2026-04-18T06:50:40Z</time></trkpt><trkpt lat="43.51480285218624" lon="10.622137933413205"><ele>217.0</ele><time>2026-04-18T06:50:41Z</time></trkpt><trkpt lat="43.51496532175856" lon="10.622171398949469"><ele>214.0</ele><time>2026-04-18T06:50:42Z</time></trkpt><trkpt lat="43.515136234053735" lon="10.622198148001665"><ele>214.0</ele><time>2026-04-18T06:50:43Z</time></trkpt><trkpt lat="43.51531881998092" lon="10.6222137256597"><ele>214.0</ele><time>2026-04-18T06:50:44Z</time></trkpt><trkpt lat="43.51549350291463" lon="10.622243447545756"><ele>214.0</ele><time>2026-04-18T06:50:45Z</time></trkpt><trkpt lat="43.515657037595005" lon="10.622246565878006"><ele>212.0</ele><time>2026-04-18T06:50:46Z</time></trkpt><trkpt lat="43.515818905599374" lon="10.622243093034317"><ele>210.0</ele><time>2026-04-18T06:50:47Z</time></trkpt><trkpt lat="43.515972049121785" lon="10.622261452780254"><ele>208.0</ele><time>2026-04-18T06:50:48Z</time></trkpt><trkpt lat="43.51612059863672" lon="10.62229798715063"><ele>206.75</ele><time>2026-04-18T06:50:49Z</time></trkpt><trkpt lat="43.516261151307525" lon="10.62236565659928"><ele>205.5</ele><time>2026-04-18T06:50:50Z</time></trkpt><trkpt lat="43.51638894851968" lon="10.622461998764255"><ele>204.25</ele><time>2026-04-18T06:50:51Z</time></trkpt><trkpt lat="43.51649335776672" lon="10.622571200379594"><ele>203.0</ele><time>2026-04-18T06:50:52Z</time></trkpt><trkpt lat="43.516586911118424" lon="10.622691612578848"><ele>202.75</ele><time>2026-04-18T06:50:53Z</time></trkpt><trkpt lat="43.51666643154488" lon="10.622837965147573"><ele>202.5</ele><time>2026-04-18T06:50:54Z</time></trkpt><trkpt lat="43.51673085288265" lon="10.62299993483189"><ele>202.25</ele><time>2026-04-18T06:50:55Z</time></trkpt><trkpt lat="43.516797493892135" lon="10.62317809551984"><ele>202.0</ele><time>2026-04-18T06:50:56Z</time></trkpt><trkpt lat="43.516853515609505" lon="10.62337316698207"><ele>202.0</ele><time>2026-04-18T06:50:57Z</time></trkpt><trkpt lat="43.51690003318222" lon="10.623568479794065"><ele>202.0</ele><time>2026-04-18T06:50:58Z</time></trkpt><trkpt lat="43.5169496049744" lon="10.623748373164746"><ele>202.0</ele><time>2026-04-18T06:50:59Z</time></trkpt><trkpt lat="43.517011318387766" lon="10.623909855210298"><ele>202.0</ele><time>2026-04-18T06:51:00Z</time></trkpt><trkpt lat="43.51710185389071" lon="10.624034307265045"><ele>199.5</ele><time>2026-04-18T06:51:01Z</time></trkpt><trkpt lat="43.51721819577366" lon="10.624113727759466"><ele>197.0</ele><time>2026-04-18T06:51:02Z</time></trkpt><trkpt lat="43.51735477817555" lon="10.624167968188683"><ele>194.5</ele><time>2026-04-18T06:51:03Z</time></trkpt><trkpt lat="43.51750288219958" lon="10.62420324539845"><ele>192.0</ele><time>2026-04-18T06:51:04Z</time></trkpt><trkpt lat="43.517660793431794" lon="10.62424040875162"><ele>192.0</ele><time>2026-04-18T06:51:05Z</time></trkpt><trkpt lat="43.51782602352099" lon="10.62428006496662"><ele>192.0</ele><time>2026-04-18T06:51:06Z</time></trkpt><trkpt lat="43.51799861265401" lon="10.624320471039969"><ele>192.0</ele><time>2026-04-18T06:51:07Z</time></trkpt><trkpt lat="43.51816055325795" lon="10.624361458687444"><ele>188.0</ele><time>2026-04-18T06:51:08Z</time></trkpt><trkpt lat="43.51831523975197" lon="10.6244009995637"><ele>184.0</ele><time>2026-04-18T06:51:09Z</time></trkpt><trkpt lat="43.51846208161929" lon="10.624438254257964"><ele>180.0</ele><time>2026-04-18T06:51:10Z</time></trkpt><trkpt lat="43.5186051425591" lon="10.624476178466843"><ele>178.0</ele><time>2026-04-18T06:51:11Z</time></trkpt><trkpt lat="43.51874552745264" lon="10.624511169955063"><ele>176.0</ele><time>2026-04-18T06:51:12Z</time></trkpt><trkpt lat="43.518876550962496" lon="10.624545926359431"><ele>174.0</ele><time>2026-04-18T06:51:13Z</time></trkpt><trkpt lat="43.51899811200737" lon="10.624577289173493"><ele>172.0</ele><time>2026-04-18T06:51:14Z</time></trkpt><trkpt lat="43.51910107748053" lon="10.624607199382556"><ele>172.0</ele><time>2026-04-18T06:51:15Z</time></trkpt><trkpt lat="43.51918933778181" lon="10.624633491746387"><ele>172.0</ele><time>2026-04-18T06:51:16Z</time></trkpt><trkpt lat="43.519271658869584" lon="10.624665577904699"><ele>172.0</ele><time>2026-04-18T06:51:17Z</time></trkpt><trkpt lat="43.519346648412224" lon="10.624699831130577"><ele>172.0</ele><time>2026-04-18T06:51:18Z</time></trkpt><trkpt lat="43.519409891313536" lon="10.624707329018383"><ele>172.0</ele><time>2026-04-18T06:51:19Z</time></trkpt><trkpt lat="43.51949625676952" lon="10.624762255172996"><ele>172.0</ele><time>2026-04-18T06:51:21Z</time></trkpt><trkpt lat="43.51957396206063" lon="10.624787634916464"><ele>170.25</ele><time>2026-04-18T06:51:22Z</time></trkpt><trkpt lat="43.51966369037193" lon="10.624855504695544"><ele>168.5</ele><time>2026-04-18T06:51:23Z</time></trkpt><trkpt lat="43.519775348518024" lon="10.624966277526196"><ele>166.75</ele><time>2026-04-18T06:51:24Z</time></trkpt><trkpt lat="43.51988514430889" lon="10.625073760520547"><ele>165.0</ele><time>2026-04-18T06:51:25Z</time></trkpt><trkpt lat="43.52000799820421" lon="10.625191946181006"><ele>165.0</ele><time>2026-04-18T06:51:26Z</time></trkpt><trkpt lat="43.52013391602886" lon="10.625299872025812"><ele>165.0</ele><time>2026-04-18T06:51:27Z</time></trkpt><trkpt lat="43.52025425701509" lon="10.625385628081125"><ele>165.0</ele><time>2026-04-18T06:51:28Z</time></trkpt><trkpt lat="43.52036319487119" lon="10.625462187821668"><ele>165.0</ele><time>2026-04-18T06:51:29Z</time></trkpt><trkpt lat="43.5204591786684" lon="10.625537435812584"><ele>164.0</ele><time>2026-04-18T06:51:30Z</time></trkpt><trkpt lat="43.52053353529743" lon="10.625611543219279"><ele>163.0</ele><time>2026-04-18T06:51:30.999Z</time></trkpt><trkpt lat="43.52058934896884" lon="10.625728487261739"><ele>162.0</ele><time>2026-04-18T06:51:31.999Z</time></trkpt><trkpt lat="43.5206389206976" lon="10.625889187958814"><ele>161.0</ele><time>2026-04-18T06:51:32.999Z</time></trkpt><trkpt lat="43.52068310799368" lon="10.626062570274867"><ele>161.60000000000002</ele><time>2026-04-18T06:51:33.999Z</time></trkpt><trkpt lat="43.520740506407854" lon="10.626201621831934"><ele>162.2</ele><time>2026-04-18T06:51:34.999Z</time></trkpt><trkpt lat="43.52081743381366" lon="10.626296738471448"><ele>162.8</ele><time>2026-04-18T06:51:35.999Z</time></trkpt><trkpt lat="43.52090643089172" lon="10.626356619736729"><ele>163.39999999999998</ele><time>2026-04-18T06:51:36.999Z</time></trkpt><trkpt lat="43.52101093885074" lon="10.626405207998053"><ele>164.0</ele><time>2026-04-18T06:51:37.999Z</time></trkpt><trkpt lat="43.52112183414101" lon="10.626468019195064"><ele>163.25</ele><time>2026-04-18T06:51:38.999Z</time></trkpt><trkpt lat="43.521241209101305" lon="10.626548220599949"><ele>162.5</ele><time>2026-04-18T06:51:39.999Z</time></trkpt><trkpt lat="43.521369369641114" lon="10.626637859640569"><ele>161.75</ele><time>2026-04-18T06:51:40.999Z</time></trkpt><trkpt lat="43.521496817594574" lon="10.626720431869611"><ele>161.0</ele><time>2026-04-18T06:51:41.999Z</time></trkpt><trkpt lat="43.521615991282175" lon="10.626785931223447"><ele>161.0</ele><time>2026-04-18T06:51:42.999Z</time></trkpt><trkpt lat="43.52172824063527" lon="10.626844423990152"><ele>161.0</ele><time>2026-04-18T06:51:43.999Z</time></trkpt><trkpt lat="43.521837781810106" lon="10.626897006872356"><ele>161.0</ele><time>2026-04-18T06:51:44.999Z</time></trkpt><trkpt lat="43.521969314760774" lon="10.62695352186917"><ele>161.0</ele><time>2026-04-18T06:51:45.999Z</time></trkpt><trkpt lat="43.522112788712924" lon="10.627002738396051"><ele>160.0</ele><time>2026-04-18T06:51:46.999Z</time></trkpt><trkpt lat="43.522264534421055" lon="10.62704754170751"><ele>159.0</ele><time>2026-04-18T06:51:47.999Z</time></trkpt><trkpt lat="43.52239927338917" lon="10.627085727880468"><ele>158.0</ele><time>2026-04-18T06:51:48.999Z</time></trkpt><trkpt lat="43.5225311431351" lon="10.627122386491925"><ele>157.0</ele><time>2026-04-18T06:51:49.999Z</time></trkpt><trkpt lat="43.522664739306286" lon="10.627156009652541"><ele>157.0</ele><time>2026-04-18T06:51:50.999Z</time></trkpt><trkpt lat="43.52278837491449" lon="10.627196125081435"><ele>157.0</ele><time>2026-04-18T06:51:51.999Z</time></trkpt><trkpt lat="43.522911327059866" lon="10.627235668539516"><ele>157.0</ele><time>2026-04-18T06:51:52.999Z</time></trkpt><trkpt lat="43.523036363503465" lon="10.627285500125387"><ele>157.0</ele><time>2026-04-18T06:51:53.999Z</time></trkpt><trkpt lat="43.52315450004691" lon="10.62733419137934"><ele>155.6</ele><time>2026-04-18T06:51:54.999Z</time></trkpt><trkpt lat="43.523249555086174" lon="10.627409846422017"><ele>154.2</ele><time>2026-04-18T06:51:55.999Z</time></trkpt><trkpt lat="43.523326725201784" lon="10.627527225562657"><ele>152.8</ele><time>2026-04-18T06:51:56.999Z</time></trkpt><trkpt lat="43.523392670998604" lon="10.62764949298482"><ele>151.4</ele><time>2026-04-18T06:51:57.999Z</time></trkpt><trkpt lat="43.52347683802918" lon="10.627745438777058"><ele>150.0</ele><time>2026-04-18T06:51:58.999Z</time></trkpt><trkpt lat="43.52357519205394" lon="10.627803051951675"><ele>150.0</ele><time>2026-04-18T06:51:59.999Z</time></trkpt><trkpt lat="43.523680771710524" lon="10.627807224418836"><ele>150.0</ele><time>2026-04-18T06:52:00.999Z</time></trkpt><trkpt lat="43.523793563668264" lon="10.627787586588262"><ele>150.0</ele><time>2026-04-18T06:52:01.999Z</time></trkpt><trkpt lat="43.52390520439833" lon="10.627783865929368"><ele>150.0</ele><time>2026-04-18T06:52:02.999Z</time></trkpt><trkpt lat="43.52399339712066" lon="10.627793030953972"><ele>150.0</ele><time>2026-04-18T06:52:03.999Z</time></trkpt><trkpt lat="43.524068825425786" lon="10.627817927767437"><ele>148.8</ele><time>2026-04-18T06:52:04.999Z</time></trkpt><trkpt lat="43.524142307420334" lon="10.627825669798389"><ele>147.6</ele><time>2026-04-18T06:52:05.999Z</time></trkpt><trkpt lat="43.524256984053416" lon="10.627818322479625"><ele>146.4</ele><time>2026-04-18T06:52:07.999Z</time></trkpt><trkpt lat="43.52434968165341" lon="10.627810720567197"><ele>145.2</ele><time>2026-04-18T06:52:09.999Z</time></trkpt><trkpt lat="43.52443582411927" lon="10.627803656219925"><ele>144.0</ele><time>2026-04-18T06:52:10.999Z</time></trkpt><trkpt lat="43.52452414025845" lon="10.627575961010297"><ele>143.33333333333334</ele><time>2026-04-18T06:52:11.999Z</time></trkpt><trkpt lat="43.52460498218161" lon="10.627576886613818"><ele>142.66666666666666</ele><time>2026-04-18T06:52:12.999Z</time></trkpt><trkpt lat="43.524685716318835" lon="10.627560762112447"><ele>142.0</ele><time>2026-04-18T06:52:13.999Z</time></trkpt><trkpt lat="43.52477820042179" lon="10.62753471934212"><ele>141.33333333333331</ele><time>2026-04-18T06:52:14.999Z</time></trkpt><trkpt lat="43.524877854533706" lon="10.627514306447733"><ele>140.66666666666666</ele><time>2026-04-18T06:52:15.999Z</time></trkpt><trkpt lat="43.524965722579246" lon="10.627492164210624"><ele>140.0</ele><time>2026-04-18T06:52:16.999Z</time></trkpt><trkpt lat="43.525055198601194" lon="10.627468930984314"><ele>140.0</ele><time>2026-04-18T06:52:17.999Z</time></trkpt><trkpt lat="43.52517279044906" lon="10.62743039590324"><ele>140.0</ele><time>2026-04-18T06:52:18.999Z</time></trkpt><trkpt lat="43.525294149729945" lon="10.627374084834724"><ele>140.0</ele><time>2026-04-18T06:52:20Z</time></trkpt><trkpt lat="43.52540477935112" lon="10.627309735180699"><ele>140.0</ele><time>2026-04-18T06:52:21Z</time></trkpt><trkpt lat="43.525527929625376" lon="10.627241284263027"><ele>140.0</ele><time>2026-04-18T06:52:22Z</time></trkpt><trkpt lat="43.5256444917859" lon="10.627169777505404"><ele>140.0</ele><time>2026-04-18T06:52:23Z</time></trkpt><trkpt lat="43.52573436998145" lon="10.627095233949442"><ele>140.0</ele><time>2026-04-18T06:52:24Z</time></trkpt><trkpt lat="43.525833806063346" lon="10.627021902941044"><ele>140.0</ele><time>2026-04-18T06:52:25Z</time></trkpt><trkpt lat="43.52595319911001" lon="10.62697102485842"><ele>139.5</ele><time>2026-04-18T06:52:26Z</time></trkpt><trkpt lat="43.52607458467835" lon="10.62694376322439"><ele>139.0</ele><time>2026-04-18T06:52:27Z</time></trkpt><trkpt lat="43.52619017795606" lon="10.626910798980568"><ele>138.5</ele><time>2026-04-18T06:52:28Z</time></trkpt><trkpt lat="43.526304632953945" lon="10.626877896322378"><ele>138.0</ele><time>2026-04-18T06:52:29Z</time></trkpt><trkpt lat="43.52641437085948" lon="10.626837726203739"><ele>137.6</ele><time>2026-04-18T06:52:30Z</time></trkpt><trkpt lat="43.52651851180073" lon="10.626801609213867"><ele>137.20000000000002</ele><time>2026-04-18T06:52:31Z</time></trkpt><trkpt lat="43.52662461302675" lon="10.62677100561651"><ele>136.8</ele><time>2026-04-18T06:52:32Z</time></trkpt><trkpt lat="43.52674278719277" lon="10.626767330141321"><ele>136.4</ele><time>2026-04-18T06:52:33Z</time></trkpt><trkpt lat="43.526848630810306" lon="10.626768990630136"><ele>136.0</ele><time>2026-04-18T06:52:34Z</time></trkpt><trkpt lat="43.526945711317865" lon="10.626731511125417"><ele>136.0</ele><time>2026-04-18T06:52:35Z</time></trkpt><trkpt lat="43.52703177880808" lon="10.626679828493657"><ele>136.0</ele><time>2026-04-18T06:52:36Z</time></trkpt><trkpt lat="43.52711364676166" lon="10.626608741166978"><ele>136.0</ele><time>2026-04-18T06:52:37Z</time></trkpt><trkpt lat="43.527190198527414" lon="10.626522274338377"><ele>136.0</ele><time>2026-04-18T06:52:38Z</time></trkpt><trkpt lat="43.52725706942252" lon="10.626432559683455"><ele>136.0</ele><time>2026-04-18T06:52:39Z</time></trkpt><trkpt lat="43.527339389040016" lon="10.626328237604604"><ele>134.83333333333334</ele><time>2026-04-18T06:52:40Z</time></trkpt><trkpt lat="43.52741990108803" lon="10.62627230166038"><ele>133.66666666666669</ele><time>2026-04-18T06:52:41Z</time></trkpt><trkpt lat="43.52748878213394" lon="10.62627099370903"><ele>132.5</ele><time>2026-04-18T06:52:42Z</time></trkpt><trkpt lat="43.5275650936619" lon="10.626268933348834"><ele>131.33333333333334</ele><time>2026-04-18T06:52:43Z</time></trkpt><trkpt lat="43.52764193205768" lon="10.626279309466632"><ele>130.16666666666666</ele><time>2026-04-18T06:52:44Z</time></trkpt><trkpt lat="43.52774777956895" lon="10.626284228977385"><ele>129.0</ele><time>2026-04-18T06:52:45Z</time></trkpt><trkpt lat="43.52783218054326" lon="10.62628954536803"><ele>127.80000000000001</ele><time>2026-04-18T06:52:46Z</time></trkpt><trkpt lat="43.5279490612683" lon="10.626297483328264"><ele>126.60000000000001</ele><time>2026-04-18T06:52:47Z</time></trkpt><trkpt lat="43.52806534905964" lon="10.626308008438707"><ele>125.4</ele><time>2026-04-18T06:52:48Z</time></trkpt><trkpt lat="43.528174385029914" lon="10.626288393090551"><ele>124.2</ele><time>2026-04-18T06:52:49Z</time></trkpt><trkpt lat="43.52825509861885" lon="10.626256315184733"><ele>123.0</ele><time>2026-04-18T06:52:50Z</time></trkpt><trkpt lat="43.52834276739259" lon="10.626250802849071"><ele>123.0</ele><time>2026-04-18T06:52:51Z</time></trkpt><trkpt lat="43.52845283599004" lon="10.626265467608038"><ele>123.00000000000001</ele><time>2026-04-18T06:52:52Z</time></trkpt><trkpt lat="43.52854531830299" lon="10.626316173081738"><ele>123.00000000000001</ele><time>2026-04-18T06:52:53Z</time></trkpt><trkpt lat="43.5286387634133" lon="10.62635684137364"><ele>123.0</ele><time>2026-04-18T06:52:54Z</time></trkpt><trkpt lat="43.52872835644764" lon="10.62638867050421"><ele>123.0</ele><time>2026-04-18T06:52:55Z</time></trkpt><trkpt lat="43.52882624240304" lon="10.626421345726303"><ele>123.2</ele><time>2026-04-18T06:52:56Z</time></trkpt><trkpt lat="43.52894014450148" lon="10.62643101927396"><ele>123.4</ele><time>2026-04-18T06:52:57Z</time></trkpt><trkpt lat="43.529036234168245" lon="10.626402440204323"><ele>123.60000000000001</ele><time>2026-04-18T06:52:58Z</time></trkpt><trkpt lat="43.529112696816796" lon="10.626341767408059"><ele>123.80000000000001</ele><time>2026-04-18T06:52:59Z</time></trkpt><trkpt lat="43.52919316488708" lon="10.626289423126668"><ele>124.0</ele><time>2026-04-18T06:53:00Z</time></trkpt><trkpt lat="43.5292817656029" lon="10.62623834794717"><ele>124.0</ele><time>2026-04-18T06:53:01Z</time></trkpt><trkpt lat="43.52936690711431" lon="10.626223608839936"><ele>124.0</ele><time>2026-04-18T06:53:02Z</time></trkpt><trkpt lat="43.52946301772512" lon="10.626237893065001"><ele>124.0</ele><time>2026-04-18T06:53:03Z</time></trkpt><trkpt lat="43.529598020965445" lon="10.626242537403"><ele>124.0</ele><time>2026-04-18T06:53:04Z</time></trkpt><trkpt lat="43.529744713973756" lon="10.626199036451363"><ele>122.25</ele><time>2026-04-18T06:53:05Z</time></trkpt><trkpt lat="43.529881266593556" lon="10.626138479453662"><ele>120.5</ele><time>2026-04-18T06:53:06Z</time></trkpt><trkpt lat="43.52999969399919" lon="10.626095729341323"><ele>118.75</ele><time>2026-04-18T06:53:07Z</time></trkpt><trkpt lat="43.53009892544087" lon="10.626072588990155"><ele>117.0</ele><time>2026-04-18T06:53:08Z</time></trkpt><trkpt lat="43.53019178705139" lon="10.626064605932692"><ele>117.0</ele><time>2026-04-18T06:53:09Z</time></trkpt><trkpt lat="43.5302834548145" lon="10.626085584230548"><ele>117.0</ele><time>2026-04-18T06:53:10Z</time></trkpt><trkpt lat="43.53039678294519" lon="10.626101010959134"><ele>117.0</ele><time>2026-04-18T06:53:11Z</time></trkpt><trkpt lat="43.53053538754046" lon="10.6261181766775"><ele>117.0</ele><time>2026-04-18T06:53:12Z</time></trkpt><trkpt lat="43.53068340918973" lon="10.626138090468935"><ele>117.0</ele><time>2026-04-18T06:53:13Z</time></trkpt><trkpt lat="43.530819718466894" lon="10.626164112284817"><ele>117.0</ele><time>2026-04-18T06:53:14Z</time></trkpt><trkpt lat="43.5309429963462" lon="10.626179713051535"><ele>117.0</ele><time>2026-04-18T06:53:15Z</time></trkpt><trkpt lat="43.53106394541755" lon="10.626184927841452"><ele>117.0</ele><time>2026-04-18T06:53:16Z</time></trkpt><trkpt lat="43.53117892222963" lon="10.626204262772152"><ele>118.6</ele><time>2026-04-18T06:53:17Z</time></trkpt><trkpt lat="43.531278856141405" lon="10.626242658516675"><ele>120.19999999999999</ele><time>2026-04-18T06:53:18Z</time></trkpt><trkpt lat="43.53138293053744" lon="10.626277811096388"><ele>121.8</ele><time>2026-04-18T06:53:19Z</time></trkpt><trkpt lat="43.531487490291845" lon="10.626297071907707"><ele>123.4</ele><time>2026-04-18T06:53:20Z</time></trkpt><trkpt lat="43.531605002860225" lon="10.626313742587845"><ele>125.0</ele><time>2026-04-18T06:53:21Z</time></trkpt><trkpt lat="43.53173339767362" lon="10.626331963595506"><ele>125.0</ele><time>2026-04-18T06:53:22Z</time></trkpt><trkpt lat="43.53187703330251" lon="10.62635428506672"><ele>125.0</ele><time>2026-04-18T06:53:23Z</time></trkpt><trkpt lat="43.53200389867838" lon="10.626403501447115"><ele>125.0</ele><time>2026-04-18T06:53:24Z</time></trkpt><trkpt lat="43.53210279605547" lon="10.626460739944088"><ele>125.0</ele><time>2026-04-18T06:53:25Z</time></trkpt><trkpt lat="43.53218600388056" lon="10.626500819773389"><ele>125.0</ele><time>2026-04-18T06:53:26Z</time></trkpt><trkpt lat="43.532258180518504" lon="10.626520224548054"><ele>125.0</ele><time>2026-04-18T06:53:27Z</time></trkpt><trkpt lat="43.5323397996325" lon="10.626544526342354"><ele>125.0</ele><time>2026-04-18T06:53:28Z</time></trkpt><trkpt lat="43.532401721569116" lon="10.626567556274082"><ele>125.0</ele><time>2026-04-18T06:53:29Z</time></trkpt><trkpt lat="43.532454889318956" lon="10.626631540024235"><ele>125.0</ele><time>2026-04-18T06:53:31Z</time></trkpt><trkpt lat="43.5324908941497" lon="10.626708800633377"><ele>125.0</ele><time>2026-04-18T06:53:32.999Z</time></trkpt><trkpt lat="43.532551625892545" lon="10.62675811683098"><ele>125.0</ele><time>2026-04-18T06:53:45.999Z</time></trkpt><trkpt lat="43.53263585877523" lon="10.62681816598826"><ele>125.0</ele><time>2026-04-18T06:53:49.999Z</time></trkpt><trkpt lat="43.53269505355365" lon="10.62684952151653"><ele>125.0</ele><time>2026-04-18T06:53:53.999Z</time></trkpt><trkpt lat="43.53276344147873" lon="10.626868076359365"><ele>125.0</ele><time>2026-04-18T06:53:57.999Z</time></trkpt><trkpt lat="43.53282992601881" lon="10.626891751289627"><ele>125.0</ele><time>2026-04-18T06:54:03.999Z</time></trkpt><trkpt lat="43.5328922375116" lon="10.62691197491023"><ele>125.0</ele><time>2026-04-18T06:54:07.999Z</time></trkpt><trkpt lat="43.53297492095493" lon="10.62695308179707"><ele>125.0</ele><time>2026-04-18T06:54:09.999Z</time></trkpt><trkpt lat="43.53303771896212" lon="10.626966731411754"><ele>125.0</ele><time>2026-04-18T06:54:10.999Z</time></trkpt><trkpt lat="43.53311050940219" lon="10.626970849477544"><ele>124.33333333333333</ele><time>2026-04-18T06:54:11.999Z</time></trkpt><trkpt lat="43.53318810012137" lon="10.626974861312503"><ele>123.66666666666666</ele><time>2026-04-18T06:54:12.999Z</time></trkpt><trkpt lat="43.53327823915028" lon="10.626970016109944"><ele>123.0</ele><time>2026-04-18T06:54:13.999Z</time></trkpt><trkpt lat="43.533355089934894" lon="10.626964197147512"><ele>122.33333333333334</ele><time>2026-04-18T06:54:14.999Z</time></trkpt><trkpt lat="43.53342262520509" lon="10.626956870044943"><ele>121.66666666666667</ele><time>2026-04-18T06:54:15.999Z</time></trkpt><trkpt lat="43.53353843035339" lon="10.626905347543218"><ele>121.0</ele><time>2026-04-18T06:54:17.999Z</time></trkpt><trkpt lat="43.533607351073" lon="10.626849821354888"><ele>121.0</ele><time>2026-04-18T06:54:18.999Z</time></trkpt><trkpt lat="43.53367453490937" lon="10.626794814486596"><ele>121.0</ele><time>2026-04-18T06:54:19.999Z</time></trkpt><trkpt lat="43.53374012838709" lon="10.626742713379459"><ele>121.0</ele><time>2026-04-18T06:54:20.999Z</time></trkpt><trkpt lat="43.53385368291707" lon="10.626670488784635"><ele>121.0</ele><time>2026-04-18T06:54:22.999Z</time></trkpt><trkpt lat="43.533955689532334" lon="10.626595364425304"><ele>121.0</ele><time>2026-04-18T06:54:24.999Z</time></trkpt><trkpt lat="43.53402003170457" lon="10.626531628561946"><ele>120.83333333333334</ele><time>2026-04-18T06:54:26Z</time></trkpt><trkpt lat="43.53407427769595" lon="10.626454460890784"><ele>120.66666666666667</ele><time>2026-04-18T06:54:27Z</time></trkpt><trkpt lat="43.53413356624735" lon="10.626361300004376"><ele>120.5</ele><time>2026-04-18T06:54:28Z</time></trkpt><trkpt lat="43.53418380014228" lon="10.626268640395372"><ele>120.33333333333334</ele><time>2026-04-18T06:54:29Z</time></trkpt><trkpt lat="43.534223549130964" lon="10.62618343412652"><ele>120.16666666666667</ele><time>2026-04-18T06:54:30Z</time></trkpt><trkpt lat="43.534269573313495" lon="10.626100542248201"><ele>120.0</ele><time>2026-04-18T06:54:31Z</time></trkpt><trkpt lat="43.53432235460802" lon="10.625999971292401"><ele>120.0</ele><time>2026-04-18T06:54:32Z</time></trkpt><trkpt lat="43.53437062460606" lon="10.625911173724711"><ele>120.0</ele><time>2026-04-18T06:54:33Z</time></trkpt><trkpt lat="43.53441155456707" lon="10.625841337238677"><ele>120.0</ele><time>2026-04-18T06:54:34Z</time></trkpt><trkpt lat="43.534450634509476" lon="10.625767925569205"><ele>120.0</ele><time>2026-04-18T06:54:35Z</time></trkpt><trkpt lat="43.534494254610664" lon="10.62569241307246"><ele>120.0</ele><time>2026-04-18T06:54:36Z</time></trkpt><trkpt lat="43.53456246926423" lon="10.625611484894705"><ele>120.0</ele><time>2026-04-18T06:54:37Z</time></trkpt><trkpt lat="43.534641739232946" lon="10.625556202021867"><ele>119.16666666666667</ele><time>2026-04-18T06:54:38Z</time></trkpt><trkpt lat="43.53472240284263" lon="10.625508988296836"><ele>118.33333333333334</ele><time>2026-04-18T06:54:39Z</time></trkpt><trkpt lat="43.5347865523976" lon="10.625459752211459"><ele>117.5</ele><time>2026-04-18T06:54:40Z</time></trkpt><trkpt lat="43.53485462338441" lon="10.625424541426549"><ele>116.66666666666667</ele><time>2026-04-18T06:54:41Z</time></trkpt><trkpt lat="43.534933056290065" lon="10.625378007507573"><ele>115.83333333333334</ele><time>2026-04-18T06:54:42Z</time></trkpt><trkpt lat="43.535010474888225" lon="10.625327384878489"><ele>115.0</ele><time>2026-04-18T06:54:43Z</time></trkpt><trkpt lat="43.53507808060015" lon="10.625279376643562"><ele>114.83333333333334</ele><time>2026-04-18T06:54:44Z</time></trkpt><trkpt lat="43.53515718896761" lon="10.625227126311282"><ele>114.66666666666667</ele><time>2026-04-18T06:54:45Z</time></trkpt><trkpt lat="43.53522777801136" lon="10.62517205346667"><ele>114.5</ele><time>2026-04-18T06:54:46Z</time></trkpt><trkpt lat="43.53530767080249" lon="10.625104924404692"><ele>114.33333333333334</ele><time>2026-04-18T06:54:47Z</time></trkpt><trkpt lat="43.53537965142436" lon="10.62505628611371"><ele>114.16666666666667</ele><time>2026-04-18T06:54:48Z</time></trkpt><trkpt lat="43.53545075046737" lon="10.625012647681764"><ele>114.0</ele><time>2026-04-18T06:54:49Z</time></trkpt><trkpt lat="43.53551835366801" lon="10.624979836653566"><ele>113.16666666666667</ele><time>2026-04-18T06:54:50Z</time></trkpt><trkpt lat="43.53558951250254" lon="10.624948676356283"><ele>112.33333333333334</ele><time>2026-04-18T06:54:51Z</time></trkpt><trkpt lat="43.535652769749014" lon="10.624927442728481"><ele>111.5</ele><time>2026-04-18T06:54:52Z</time></trkpt><trkpt lat="43.535721486828976" lon="10.62490373222227"><ele>110.66666666666667</ele><time>2026-04-18T06:54:53Z</time></trkpt><trkpt lat="43.53579721592943" lon="10.624882022484016"><ele>109.83333333333334</ele><time>2026-04-18T06:54:54Z</time></trkpt><trkpt lat="43.53587540446668" lon="10.624870020283472"><ele>109.0</ele><time>2026-04-18T06:54:55Z</time></trkpt><trkpt lat="43.535959189521115" lon="10.624861298534448"><ele>109.00000000000001</ele><time>2026-04-18T06:54:56Z</time></trkpt><trkpt lat="43.53603154655194" lon="10.624881326341573"><ele>109.0</ele><time>2026-04-18T06:54:57Z</time></trkpt><trkpt lat="43.53611226603166" lon="10.624927742853798"><ele>109.0</ele><time>2026-04-18T06:54:58Z</time></trkpt><trkpt lat="43.536180637510206" lon="10.624954955113315"><ele>109.0</ele><time>2026-04-18T06:54:59Z</time></trkpt><trkpt lat="43.536248868905105" lon="10.624978386318583"><ele>109.00000000000001</ele><time>2026-04-18T06:55:00Z</time></trkpt><trkpt lat="43.5363347536141" lon="10.625003674895746"><ele>109.0</ele><time>2026-04-18T06:55:01Z</time></trkpt><trkpt lat="43.53643638060895" lon="10.625012024314067"><ele>108.0</ele><time>2026-04-18T06:55:02Z</time></trkpt><trkpt lat="43.5365415604474" lon="10.625021804719378"><ele>107.0</ele><time>2026-04-18T06:55:03Z</time></trkpt><trkpt lat="43.53663196056986" lon="10.625031004745379"><ele>106.0</ele><time>2026-04-18T06:55:04Z</time></trkpt><trkpt lat="43.53672091584341" lon="10.625057474392854"><ele>105.0</ele><time>2026-04-18T06:55:05Z</time></trkpt><trkpt lat="43.53680107794949" lon="10.625099432601452"><ele>104.0</ele><time>2026-04-18T06:55:06Z</time></trkpt><trkpt lat="43.536887059294926" lon="10.625126677587728"><ele>103.99999999999999</ele><time>2026-04-18T06:55:07Z</time></trkpt><trkpt lat="43.53696667526075" lon="10.625147719163342"><ele>104.0</ele><time>2026-04-18T06:55:08Z</time></trkpt><trkpt lat="43.537043774025705" lon="10.625171169150445"><ele>104.0</ele><time>2026-04-18T06:55:09Z</time></trkpt><trkpt lat="43.53711923392965" lon="10.625190843167994"><ele>104.0</ele><time>2026-04-18T06:55:10Z</time></trkpt><trkpt lat="43.537197654537636" lon="10.625214560511518"><ele>103.99999999999999</ele><time>2026-04-18T06:55:11Z</time></trkpt><trkpt lat="43.53727943901358" lon="10.625240467239585"><ele>104.0</ele><time>2026-04-18T06:55:12Z</time></trkpt><trkpt lat="43.53735665578063" lon="10.625260914510267"><ele>103.16666666666666</ele><time>2026-04-18T06:55:13Z</time></trkpt><trkpt lat="43.537434727235" lon="10.62528435924315"><ele>102.33333333333333</ele><time>2026-04-18T06:55:14Z</time></trkpt><trkpt lat="43.53751645373161" lon="10.625310470526607"><ele>101.5</ele><time>2026-04-18T06:55:15Z</time></trkpt><trkpt lat="43.53759535612033" lon="10.6253532603407"><ele>100.66666666666666</ele><time>2026-04-18T06:55:17Z</time></trkpt><trkpt lat="43.53767463852647" lon="10.625385546295698"><ele>99.83333333333333</ele><time>2026-04-18T06:55:21Z</time></trkpt><trkpt lat="43.537779903035215" lon="10.625417313312262"><ele>99.0</ele><time>2026-04-18T06:55:23Z</time></trkpt><trkpt lat="43.53785433731626" lon="10.625438984287689"><ele>99.33333333333333</ele><time>2026-04-18T06:55:24Z</time></trkpt><trkpt lat="43.53794483145815" lon="10.625455950647282"><ele>99.66666666666666</ele><time>2026-04-18T06:55:25Z</time></trkpt><trkpt lat="43.53805252808081" lon="10.625466568615174"><ele>100.0</ele><time>2026-04-18T06:55:26Z</time></trkpt><trkpt lat="43.53814057919578" lon="10.625461575227547"><ele>100.33333333333333</ele><time>2026-04-18T06:55:27Z</time></trkpt><trkpt lat="43.53821818328556" lon="10.625441236516005"><ele>100.66666666666666</ele><time>2026-04-18T06:55:28Z</time></trkpt><trkpt lat="43.53827560963287" lon="10.62539647361965"><ele>101.0</ele><time>2026-04-18T06:55:29Z</time></trkpt><trkpt lat="43.53834124098927" lon="10.625334250940035"><ele>101.19999999999999</ele><time>2026-04-18T06:55:30Z</time></trkpt><trkpt lat="43.53840280298566" lon="10.625268640981927"><ele>101.39999999999999</ele><time>2026-04-18T06:55:31Z</time></trkpt><trkpt lat="43.53847708953561" lon="10.625192834447597"><ele>101.6</ele><time>2026-04-18T06:55:32Z</time></trkpt><trkpt lat="43.53854328040251" lon="10.625102189342691"><ele>101.8</ele><time>2026-04-18T06:55:33Z</time></trkpt><trkpt lat="43.53865007135142" lon="10.62495444430368"><ele>102.0</ele><time>2026-04-18T06:55:35Z</time></trkpt><trkpt lat="43.538711471976505" lon="10.624871399456566"><ele>103.33333333333333</ele><time>2026-04-18T06:55:36Z</time></trkpt><trkpt lat="43.53876367346898" lon="10.624789517670775"><ele>104.66666666666666</ele><time>2026-04-18T06:55:37Z</time></trkpt><trkpt lat="43.538818131460836" lon="10.62470990987187"><ele>106.0</ele><time>2026-04-18T06:55:38Z</time></trkpt><trkpt lat="43.53888116218669" lon="10.624611140309673"><ele>107.33333333333333</ele><time>2026-04-18T06:55:39Z</time></trkpt><trkpt lat="43.5389522575026" lon="10.624518322474305"><ele>108.66666666666666</ele><time>2026-04-18T06:55:40Z</time></trkpt><trkpt lat="43.539008042650345" lon="10.624444347560809"><ele>110.0</ele><time>2026-04-18T06:55:41Z</time></trkpt><trkpt lat="43.53906302107857" lon="10.624372720759078"><ele>109.99999999999999</ele><time>2026-04-18T06:55:42Z</time></trkpt><trkpt lat="43.53915338481135" lon="10.624265591612383"><ele>110.0</ele><time>2026-04-18T06:55:43.999Z</time></trkpt><trkpt lat="43.53919822335992" lon="10.624166503071518"><ele>110.0</ele><time>2026-04-18T06:55:45.999Z</time></trkpt><trkpt lat="43.5392418382426" lon="10.624086104732491"><ele>110.0</ele><time>2026-04-18T06:55:47.999Z</time></trkpt><trkpt lat="43.53926898295536" lon="10.624006799872816"><ele>109.99999999999999</ele><time>2026-04-18T06:55:49.999Z</time></trkpt><trkpt lat="43.53926688958998" lon="10.623917248853477"><ele>110.0</ele><time>2026-04-18T06:55:54.999Z</time></trkpt><trkpt lat="43.53922501695687" lon="10.623840235042124"><ele>109.99999999999999</ele><time>2026-04-18T06:56:00.999Z</time></trkpt><trkpt lat="43.53927349553182" lon="10.623767987787634"><ele>110.0</ele><time>2026-04-18T06:56:11.999Z</time></trkpt><trkpt lat="43.53934248623534" lon="10.623738809209582"><ele>110.0</ele><time>2026-04-18T06:56:13.999Z</time></trkpt><trkpt lat="43.539458574722055" lon="10.623744574868848"><ele>110.0</ele><time>2026-04-18T06:56:15.999Z</time></trkpt><trkpt lat="43.53952069679816" lon="10.623811558063599"><ele>109.99999999999999</ele><time>2026-04-18T06:56:16.999Z</time></trkpt><trkpt lat="43.53957846695897" lon="10.62388224648501"><ele>110.0</ele><time>2026-04-18T06:56:17.999Z</time></trkpt><trkpt lat="43.539638124526846" lon="10.62396122596355"><ele>109.0</ele><time>2026-04-18T06:56:18.999Z</time></trkpt><trkpt lat="43.53970150130015" lon="10.624036335260852"><ele>108.0</ele><time>2026-04-18T06:56:19.999Z</time></trkpt><trkpt lat="43.53978502767916" lon="10.624125332626608"><ele>107.0</ele><time>2026-04-18T06:56:20.999Z</time></trkpt><trkpt lat="43.5398535538179" lon="10.624221012779914"><ele>106.0</ele><time>2026-04-18T06:56:21.999Z</time></trkpt><trkpt lat="43.53989914022605" lon="10.62436145856377"><ele>105.0</ele><time>2026-04-18T06:56:22.999Z</time></trkpt><trkpt lat="43.53997784494312" lon="10.624447222613133"><ele>106.16666666666667</ele><time>2026-04-18T06:56:23.999Z</time></trkpt><trkpt lat="43.54004897935561" lon="10.624533164278482"><ele>107.33333333333334</ele><time>2026-04-18T06:56:24.999Z</time></trkpt><trkpt lat="43.54011644575565" lon="10.62460542076201"><ele>108.5</ele><time>2026-04-18T06:56:25.999Z</time></trkpt><trkpt lat="43.540189110557456" lon="10.624670408478183"><ele>109.66666666666667</ele><time>2026-04-18T06:56:26.999Z</time></trkpt><trkpt lat="43.54026303894345" lon="10.624749131653417"><ele>110.83333333333334</ele><time>2026-04-18T06:56:27.999Z</time></trkpt><trkpt lat="43.54030515914371" lon="10.624845981194907"><ele>112.0</ele><time>2026-04-18T06:56:28.999Z</time></trkpt><trkpt lat="43.54033828478526" lon="10.624948443814997"><ele>112.00000000000001</ele><time>2026-04-18T06:56:29.999Z</time></trkpt><trkpt lat="43.54033673941283" lon="10.625061247905554"><ele>112.0</ele><time>2026-04-18T06:56:30.999Z</time></trkpt><trkpt lat="43.54036143616571" lon="10.625206127592898"><ele>112.0</ele><time>2026-04-18T06:56:32Z</time></trkpt><trkpt lat="43.54036344567268" lon="10.625326539433983"><ele>112.0</ele><time>2026-04-18T06:56:33Z</time></trkpt><trkpt lat="43.54038896983394" lon="10.625416255764756"><ele>112.00000000000001</ele><time>2026-04-18T06:56:34Z</time></trkpt><trkpt lat="43.5404331244217" lon="10.625488114612901"><ele>112.0</ele><time>2026-04-18T06:56:35Z</time></trkpt><trkpt lat="43.54047259724449" lon="10.625568469472134"><ele>110.8</ele><time>2026-04-18T06:56:36Z</time></trkpt><trkpt lat="43.54051180769716" lon="10.625703811177228"><ele>109.6</ele><time>2026-04-18T06:56:38Z</time></trkpt><trkpt lat="43.54048776350358" lon="10.625819511343874"><ele>108.39999999999999</ele><time>2026-04-18T06:56:41Z</time></trkpt><trkpt lat="43.54035851246688" lon="10.625919136085859"><ele>107.19999999999999</ele><time>2026-04-18T06:56:43Z</time></trkpt><trkpt lat="43.54029552875978" lon="10.625964868976496"><ele>106.0</ele><time>2026-04-18T06:56:44Z</time></trkpt><trkpt lat="43.54022094697066" lon="10.62601847471934"><ele>106.0</ele><time>2026-04-18T06:56:45Z</time></trkpt><trkpt lat="43.54014488753365" lon="10.626076036334911"><ele>106.0</ele><time>2026-04-18T06:56:46Z</time></trkpt><trkpt lat="43.54006723881897" lon="10.62616537539523"><ele>106.0</ele><time>2026-04-18T06:56:48Z</time></trkpt><trkpt lat="43.5400446115686" lon="10.626314944646902"><ele>106.0</ele><time>2026-04-18T06:56:50Z</time></trkpt><trkpt lat="43.540118069405274" lon="10.626419873769619"><ele>106.0</ele><time>2026-04-18T06:56:51Z</time></trkpt><trkpt lat="43.54017389715746" lon="10.62652114634463"><ele>104.16666666666667</ele><time>2026-04-18T06:56:52Z</time></trkpt><trkpt lat="43.54021457846154" lon="10.626598289325699"><ele>102.33333333333334</ele><time>2026-04-18T06:56:53Z</time></trkpt><trkpt lat="43.5402612477562" lon="10.626697665146583"><ele>100.5</ele><time>2026-04-18T06:56:54Z</time></trkpt><trkpt lat="43.540306341424284" lon="10.626811094340386"><ele>98.66666666666667</ele><time>2026-04-18T06:56:55Z</time></trkpt><trkpt lat="43.54035206853958" lon="10.626920734351456"><ele>96.83333333333334</ele><time>2026-04-18T06:56:56Z</time></trkpt><trkpt lat="43.540409780772904" lon="10.627036854377666"><ele>95.0</ele><time>2026-04-18T06:56:57Z</time></trkpt><trkpt lat="43.5404635730908" lon="10.627164144918178"><ele>93.2</ele><time>2026-04-18T06:56:58Z</time></trkpt><trkpt lat="43.540521991984946" lon="10.627292091153455"><ele>91.4</ele><time>2026-04-18T06:56:59Z</time></trkpt><trkpt lat="43.54057884824993" lon="10.627411513311062"><ele>89.6</ele><time>2026-04-18T06:57:00Z</time></trkpt><trkpt lat="43.54063216798138" lon="10.627530789141826"><ele>87.8</ele><time>2026-04-18T06:57:01Z</time></trkpt><trkpt lat="43.54068577493789" lon="10.627656496609248"><ele>86.0</ele><time>2026-04-18T06:57:02Z</time></trkpt><trkpt lat="43.54075143988646" lon="10.627777599271012"><ele>84.39999999999999</ele><time>2026-04-18T06:57:03Z</time></trkpt><trkpt lat="43.540815679557525" lon="10.627909246383568"><ele>82.8</ele><time>2026-04-18T06:57:04Z</time></trkpt><trkpt lat="43.54085943512882" lon="10.62802417867087"><ele>81.19999999999999</ele><time>2026-04-18T06:57:05Z</time></trkpt><trkpt lat="43.54091965391725" lon="10.628154186187858"><ele>79.6</ele><time>2026-04-18T06:57:06Z</time></trkpt><trkpt lat="43.54097870058642" lon="10.628275213860265"><ele>78.0</ele><time>2026-04-18T06:57:07Z</time></trkpt><trkpt lat="43.541018903642154" lon="10.628391786712866"><ele>78.0</ele><time>2026-04-18T06:57:08Z</time></trkpt><trkpt lat="43.54106189923238" lon="10.628504443244404"><ele>78.0</ele><time>2026-04-18T06:57:09Z</time></trkpt><trkpt lat="43.541110510200866" lon="10.628609139844258"><ele>78.0</ele><time>2026-04-18T06:57:10Z</time></trkpt><trkpt lat="43.541171283308074" lon="10.628713054485676"><ele>78.0</ele><time>2026-04-18T06:57:11Z</time></trkpt><trkpt lat="43.5412327293296" lon="10.628819874023124"><ele>78.0</ele><time>2026-04-18T06:57:12Z</time></trkpt><trkpt lat="43.5412922434325" lon="10.628939883223834"><ele>75.4</ele><time>2026-04-18T06:57:13Z</time></trkpt><trkpt lat="43.54134364603941" lon="10.629067036929044"><ele>72.8</ele><time>2026-04-18T06:57:14Z</time></trkpt><trkpt lat="43.54140185214719" lon="10.629192251829148"><ele>70.2</ele><time>2026-04-18T06:57:15Z</time></trkpt><trkpt lat="43.541461047804155" lon="10.629325447091675"><ele>67.6</ele><time>2026-04-18T06:57:16Z</time></trkpt><trkpt lat="43.54151534210331" lon="10.629449758237973"><ele>65.0</ele><time>2026-04-18T06:57:17Z</time></trkpt><trkpt lat="43.541573779234774" lon="10.629580739815607"><ele>63.833333333333336</ele><time>2026-04-18T06:57:18Z</time></trkpt><trkpt lat="43.541616767207735" lon="10.629673228286546"><ele>62.66666666666667</ele><time>2026-04-18T06:57:19Z</time></trkpt><trkpt lat="43.541660765848974" lon="10.629766967266383"><ele>61.5</ele><time>2026-04-18T06:57:20Z</time></trkpt><trkpt lat="43.54169685127014" lon="10.629838220114149"><ele>60.33333333333333</ele><time>2026-04-18T06:57:21Z</time></trkpt><trkpt lat="43.541723390161835" lon="10.629942214359696"><ele>59.166666666666664</ele><time>2026-04-18T06:57:23Z</time></trkpt><trkpt lat="43.54166125024713" lon="10.630072016926027"><ele>58.0</ele><time>2026-04-18T06:57:25Z</time></trkpt><trkpt lat="43.54159796794598" lon="10.630154460291237"><ele>58.0</ele><time>2026-04-18T06:57:26Z</time></trkpt><trkpt lat="43.541535239743354" lon="10.630256779758248"><ele>58.0</ele><time>2026-04-18T06:57:27Z</time></trkpt><trkpt lat="43.54145810786055" lon="10.630384062597518"><ele>58.0</ele><time>2026-04-18T06:57:28Z</time></trkpt><trkpt lat="43.54137989655042" lon="10.630505808973204"><ele>58.0</ele><time>2026-04-18T06:57:29Z</time></trkpt><trkpt lat="43.54131744107026" lon="10.630647021648597"><ele>56.75</ele><time>2026-04-18T06:57:30Z</time></trkpt><trkpt lat="43.541249594204146" lon="10.630802094999364"><ele>55.5</ele><time>2026-04-18T06:57:31Z</time></trkpt><trkpt lat="43.54118006753692" lon="10.630961007768"><ele>54.25</ele><time>2026-04-18T06:57:32Z</time></trkpt><trkpt lat="43.54112360950313" lon="10.631138315398623"><ele>53.0</ele><time>2026-04-18T06:57:33Z</time></trkpt><trkpt lat="43.541059641533195" lon="10.631298529689458"><ele>53.0</ele><time>2026-04-18T06:57:34Z</time></trkpt><trkpt lat="43.54100070800902" lon="10.631463018321874"><ele>53.0</ele><time>2026-04-18T06:57:35Z</time></trkpt><trkpt lat="43.540931125884555" lon="10.631645033688713"><ele>53.0</ele><time>2026-04-18T06:57:36Z</time></trkpt><trkpt lat="43.54081981994258" lon="10.631794066080408"><ele>53.0</ele><time>2026-04-18T06:57:37Z</time></trkpt><trkpt lat="43.54073950763831" lon="10.631950044214566"><ele>53.25</ele><time>2026-04-18T06:57:37.999Z</time></trkpt><trkpt lat="43.54067531707264" lon="10.632103006053635"><ele>53.5</ele><time>2026-04-18T06:57:38.999Z</time></trkpt><trkpt lat="43.54061386460611" lon="10.632277355070274"><ele>53.75</ele><time>2026-04-18T06:57:39.999Z</time></trkpt><trkpt lat="43.54051386906226" lon="10.632478535444617"><ele>54.0</ele><time>2026-04-18T06:57:40.999Z</time></trkpt><trkpt lat="43.540398041125904" lon="10.632707930967372"><ele>56.0</ele><time>2026-04-18T06:57:41.999Z</time></trkpt><trkpt lat="43.54028639335827" lon="10.632924969224923"><ele>58.0</ele><time>2026-04-18T06:57:42.999Z</time></trkpt><trkpt lat="43.540194193425826" lon="10.633103618884551"><ele>60.0</ele><time>2026-04-18T06:57:43.999Z</time></trkpt><trkpt lat="43.54012200095586" lon="10.633276176647781"><ele>60.0</ele><time>2026-04-18T06:57:44.999Z</time></trkpt><trkpt lat="43.54005331903347" lon="10.633419470403426"><ele>60.0</ele><time>2026-04-18T06:57:45.999Z</time></trkpt><trkpt lat="43.540008664394975" lon="10.633560569195275"><ele>60.0</ele><time>2026-04-18T06:57:46.999Z</time></trkpt><trkpt lat="43.53993393951789" lon="10.633714455357406"><ele>60.0</ele><time>2026-04-18T06:57:47.999Z</time></trkpt><trkpt lat="43.539852822374804" lon="10.633861613353549"><ele>59.0</ele><time>2026-04-18T06:57:48.999Z</time></trkpt><trkpt lat="43.539752321141435" lon="10.634027542937977"><ele>58.0</ele><time>2026-04-18T06:57:49.999Z</time></trkpt><trkpt lat="43.53966265332337" lon="10.634180656781531"><ele>57.0</ele><time>2026-04-18T06:57:50.999Z</time></trkpt><trkpt lat="43.53958682789838" lon="10.634348987856427"><ele>56.0</ele><time>2026-04-18T06:57:51.999Z</time></trkpt><trkpt lat="43.539485495090595" lon="10.634494064993048"><ele>56.0</ele><time>2026-04-18T06:57:52.999Z</time></trkpt><trkpt lat="43.539412959693095" lon="10.634650522000403"><ele>56.0</ele><time>2026-04-18T06:57:53.999Z</time></trkpt><trkpt lat="43.53933491473335" lon="10.634797467951907"><ele>56.0</ele><time>2026-04-18T06:57:54.999Z</time></trkpt><trkpt lat="43.539269081638494" lon="10.634921041537368"><ele>56.0</ele><time>2026-04-18T06:57:55.999Z</time></trkpt><trkpt lat="43.53921658665504" lon="10.635026738358686"><ele>56.0</ele><time>2026-04-18T06:57:56.999Z</time></trkpt><trkpt lat="43.53912926164521" lon="10.635093595768575"><ele>55.99999999999999</ele><time>2026-04-18T06:57:57.999Z</time></trkpt><trkpt lat="43.53903596258964" lon="10.635125349484898"><ele>55.99999999999999</ele><time>2026-04-18T06:57:58.999Z</time></trkpt><trkpt lat="43.53897599180351" lon="10.635284386830355"><ele>56.0</ele><time>2026-04-18T06:57:59.999Z</time></trkpt><trkpt lat="43.53891248577488" lon="10.635405623910598"><ele>56.0</ele><time>2026-04-18T06:58:00.999Z</time></trkpt><trkpt lat="43.53884342251443" lon="10.635527419909064"><ele>56.0</ele><time>2026-04-18T06:58:01.999Z</time></trkpt><trkpt lat="43.538772748053105" lon="10.635653530569467"><ele>56.0</ele><time>2026-04-18T06:58:02.999Z</time></trkpt><trkpt lat="43.538694147653416" lon="10.635786222380437"><ele>56.0</ele><time>2026-04-18T06:58:03.999Z</time></trkpt><trkpt lat="43.538622566778955" lon="10.635913502137994"><ele>56.0</ele><time>2026-04-18T06:58:04.999Z</time></trkpt><trkpt lat="43.53856691158925" lon="10.636039561998462"><ele>56.75</ele><time>2026-04-18T06:58:05.999Z</time></trkpt><trkpt lat="43.538530472923775" lon="10.636181747625242"><ele>57.5</ele><time>2026-04-18T06:58:06.999Z</time></trkpt><trkpt lat="43.5385144764331" lon="10.63635420151383"><ele>58.25</ele><time>2026-04-18T06:58:07.999Z</time></trkpt><trkpt lat="43.538504431213" lon="10.636540577945368"><ele>59.0</ele><time>2026-04-18T06:58:08.999Z</time></trkpt><trkpt lat="43.53847245795194" lon="10.636706542993013"><ele>59.0</ele><time>2026-04-18T06:58:09.999Z</time></trkpt><trkpt lat="43.53842571088704" lon="10.6368414360694"><ele>59.0</ele><time>2026-04-18T06:58:10.999Z</time></trkpt><trkpt lat="43.53835843113273" lon="10.636932221652897"><ele>59.0</ele><time>2026-04-18T06:58:11.999Z</time></trkpt><trkpt lat="43.53829332966586" lon="10.637031162313619"><ele>59.0</ele><time>2026-04-18T06:58:13.999Z</time></trkpt><trkpt lat="43.538451379234644" lon="10.637224225353771"><ele>58.0</ele><time>2026-04-18T06:58:14.999Z</time></trkpt><trkpt lat="43.53853279567043" lon="10.63732780478499"><ele>57.0</ele><time>2026-04-18T06:58:15.999Z</time></trkpt><trkpt lat="43.538645269366306" lon="10.637448737579579"><ele>56.0</ele><time>2026-04-18T06:58:16.999Z</time></trkpt><trkpt lat="43.53876500522652" lon="10.637585913174078"><ele>55.0</ele><time>2026-04-18T06:58:17.999Z</time></trkpt><trkpt lat="43.53887591914447" lon="10.637728368323913"><ele>54.0</ele><time>2026-04-18T06:58:18.999Z</time></trkpt><trkpt lat="43.538977879945726" lon="10.637861252955313"><ele>53.0</ele><time>2026-04-18T06:58:19.999Z</time></trkpt><trkpt lat="43.53907627317083" lon="10.637978764590924"><ele>52.0</ele><time>2026-04-18T06:58:20.999Z</time></trkpt><trkpt lat="43.53917741491045" lon="10.638101853566996"><ele>51.0</ele><time>2026-04-18T06:58:21.999Z</time></trkpt><trkpt lat="43.5392726636601" lon="10.63822338403376"><ele>51.0</ele><time>2026-04-18T06:58:22.999Z</time></trkpt><trkpt lat="43.53937224764766" lon="10.638334689151884"><ele>51.0</ele><time>2026-04-18T06:58:23.999Z</time></trkpt><trkpt lat="43.53947432006606" lon="10.638437336221946"><ele>51.0</ele><time>2026-04-18T06:58:24.999Z</time></trkpt><trkpt lat="43.53957484504873" lon="10.63853509148236"><ele>51.0</ele><time>2026-04-18T06:58:25.999Z</time></trkpt><trkpt lat="43.53965541159165" lon="10.638638152845484"><ele>51.5</ele><time>2026-04-18T06:58:26.999Z</time></trkpt><trkpt lat="43.539754221905795" lon="10.638773034523439"><ele>52.0</ele><time>2026-04-18T06:58:27.999Z</time></trkpt><trkpt lat="43.53985417510243" lon="10.638906805820607"><ele>52.5</ele><time>2026-04-18T06:58:28.999Z</time></trkpt><trkpt lat="43.53995204056141" lon="10.639056002468799"><ele>53.0</ele><time>2026-04-18T06:58:29.999Z</time></trkpt><trkpt lat="43.54008064184593" lon="10.6392417185591"><ele>53.0</ele><time>2026-04-18T06:58:30.999Z</time></trkpt><trkpt lat="43.540216473142806" lon="10.639416529319737"><ele>53.0</ele><time>2026-04-18T06:58:31.999Z</time></trkpt><trkpt lat="43.54034725499942" lon="10.639570951103211"><ele>53.0</ele><time>2026-04-18T06:58:32.999Z</time></trkpt><trkpt lat="43.54045963630069" lon="10.639720904065156"><ele>53.599999999999994</ele><time>2026-04-18T06:58:33.999Z</time></trkpt><trkpt lat="43.5405521732823" lon="10.639838049488073"><ele>54.199999999999996</ele><time>2026-04-18T06:58:34.999Z</time></trkpt><trkpt lat="43.54061792668859" lon="10.639922862342951"><ele>54.8</ele><time>2026-04-18T06:58:35.999Z</time></trkpt><trkpt lat="43.54066783510211" lon="10.639990562506055"><ele>55.4</ele><time>2026-04-18T06:58:36.999Z</time></trkpt><trkpt lat="43.540741955478964" lon="10.640084381587027"><ele>56.0</ele><time>2026-04-18T06:58:39Z</time></trkpt><trkpt lat="43.54079041367798" lon="10.64019651616997"><ele>56.0</ele><time>2026-04-18T06:58:41Z</time></trkpt><trkpt lat="43.54075341901294" lon="10.64027697843961"><ele>55.99999999999999</ele><time>2026-04-18T06:58:42Z</time></trkpt><trkpt lat="43.54070490867507" lon="10.640398931671243"><ele>55.99999999999999</ele><time>2026-04-18T06:58:43Z</time></trkpt><trkpt lat="43.54062823288309" lon="10.640532419635338"><ele>56.0</ele><time>2026-04-18T06:58:44Z</time></trkpt><trkpt lat="43.540545493731045" lon="10.640706108020082"><ele>56.0</ele><time>2026-04-18T06:58:45Z</time></trkpt><trkpt lat="43.54044982803198" lon="10.640883970435581"><ele>56.0</ele><time>2026-04-18T06:58:46Z</time></trkpt><trkpt lat="43.540354814764704" lon="10.641056084435574"><ele>56.0</ele><time>2026-04-18T06:58:47Z</time></trkpt><trkpt lat="43.54025900788338" lon="10.64124080292585"><ele>56.0</ele><time>2026-04-18T06:58:48Z</time></trkpt><trkpt lat="43.54015681875157" lon="10.641416863496401"><ele>56.66666666666667</ele><time>2026-04-18T06:58:49Z</time></trkpt><trkpt lat="43.540047759124704" lon="10.641562507311559"><ele>57.33333333333333</ele><time>2026-04-18T06:58:50Z</time></trkpt><trkpt lat="43.53995652677903" lon="10.641729130202117"><ele>58.0</ele><time>2026-04-18T06:58:51Z</time></trkpt><trkpt lat="43.539856611885504" lon="10.641876724214713"><ele>58.0</ele><time>2026-04-18T06:58:52Z</time></trkpt><trkpt lat="43.53974546925039" lon="10.6420323931098"><ele>58.0</ele><time>2026-04-18T06:58:53Z</time></trkpt><trkpt lat="43.53962920551948" lon="10.64219248292191"><ele>58.0</ele><time>2026-04-18T06:58:54Z</time></trkpt><trkpt lat="43.53951221290978" lon="10.642350680089226"><ele>58.0</ele><time>2026-04-18T06:58:55Z</time></trkpt><trkpt lat="43.539397388034224" lon="10.642499560421982"><ele>58.0</ele><time>2026-04-18T06:58:56Z</time></trkpt><trkpt lat="43.53929022576619" lon="10.642641101954935"><ele>58.0</ele><time>2026-04-18T06:58:57Z</time></trkpt><trkpt lat="43.53918336811826" lon="10.642792205553636"><ele>61.5</ele><time>2026-04-18T06:58:58Z</time></trkpt><trkpt lat="43.53907639536318" lon="10.642949695614139"><ele>65.0</ele><time>2026-04-18T06:58:59Z</time></trkpt><trkpt lat="43.538975903088584" lon="10.643094388774255"><ele>68.5</ele><time>2026-04-18T06:59:00Z</time></trkpt><trkpt lat="43.53887825690961" lon="10.643242509620388"><ele>72.0</ele><time>2026-04-18T06:59:01Z</time></trkpt><trkpt lat="43.5387851436932" lon="10.643393008770207"><ele>70.25</ele><time>2026-04-18T06:59:02Z</time></trkpt><trkpt lat="43.538702348930556" lon="10.643552145855537"><ele>68.5</ele><time>2026-04-18T06:59:03Z</time></trkpt><trkpt lat="43.53861004522958" lon="10.64370676696017"><ele>66.75</ele><time>2026-04-18T06:59:04Z</time></trkpt><trkpt lat="43.538521126395246" lon="10.643881645605099"><ele>65.0</ele><time>2026-04-18T06:59:05Z</time></trkpt><trkpt lat="43.53843479537794" lon="10.644087411653356"><ele>65.0</ele><time>2026-04-18T06:59:06Z</time></trkpt><trkpt lat="43.538328153028786" lon="10.644299245839443"><ele>65.0</ele><time>2026-04-18T06:59:07Z</time></trkpt><trkpt lat="43.538239249276664" lon="10.644478519060439"><ele>65.0</ele><time>2026-04-18T06:59:08Z</time></trkpt><trkpt lat="43.53816161816261" lon="10.644647633800304"><ele>67.33333333333334</ele><time>2026-04-18T06:59:09Z</time></trkpt><trkpt lat="43.53808723067705" lon="10.644825344428412"><ele>69.66666666666667</ele><time>2026-04-18T06:59:10Z</time></trkpt><trkpt lat="43.53802011009209" lon="10.64501250699656"><ele>72.0</ele><time>2026-04-18T06:59:11Z</time></trkpt><trkpt lat="43.53796090537615" lon="10.645205174522022"><ele>73.25</ele><time>2026-04-18T06:59:12Z</time></trkpt><trkpt lat="43.53791818932659" lon="10.645393631388766"><ele>74.5</ele><time>2026-04-18T06:59:13Z</time></trkpt><trkpt lat="43.53787903484432" lon="10.645582225452163"><ele>75.75</ele><time>2026-04-18T06:59:14Z</time></trkpt><trkpt lat="43.53783637405538" lon="10.6457542768757"><ele>77.0</ele><time>2026-04-18T06:59:15Z</time></trkpt><trkpt lat="43.5377726468869" lon="10.645927862447197"><ele>74.5</ele><time>2026-04-18T06:59:16Z</time></trkpt><trkpt lat="43.53769560699298" lon="10.646085088643902"><ele>72.0</ele><time>2026-04-18T06:59:17Z</time></trkpt><trkpt lat="43.53759627715526" lon="10.646213761631627"><ele>69.5</ele><time>2026-04-18T06:59:18Z</time></trkpt><trkpt lat="43.53747945514112" lon="10.64632343853586"><ele>67.0</ele><time>2026-04-18T06:59:19Z</time></trkpt><trkpt lat="43.53735177747582" lon="10.646409204795505"><ele>67.0</ele><time>2026-04-18T06:59:20Z</time></trkpt><trkpt lat="43.53721294885503" lon="10.646476638049178"><ele>67.0</ele><time>2026-04-18T06:59:21Z</time></trkpt><trkpt lat="43.537069312624595" lon="10.646486809364715"><ele>67.0</ele><time>2026-04-18T06:59:22Z</time></trkpt><trkpt lat="43.53691709509585" lon="10.646506329083214"><ele>67.0</ele><time>2026-04-18T06:59:23Z</time></trkpt><trkpt lat="43.53675263342582" lon="10.646468380243478"><ele>66.66666666666666</ele><time>2026-04-18T06:59:24Z</time></trkpt><trkpt lat="43.53658360797458" lon="10.646391765468858"><ele>66.33333333333333</ele><time>2026-04-18T06:59:25Z</time></trkpt><trkpt lat="43.53642485368652" lon="10.646318097059392"><ele>66.0</ele><time>2026-04-18T06:59:26Z</time></trkpt><trkpt lat="43.53629164137069" lon="10.646234373607532"><ele>66.25</ele><time>2026-04-18T06:59:27Z</time></trkpt><trkpt lat="43.5361460283573" lon="10.64619203982098"><ele>66.5</ele><time>2026-04-18T06:59:28Z</time></trkpt><trkpt lat="43.535999901238775" lon="10.646204918332392"><ele>66.75</ele><time>2026-04-18T06:59:29Z</time></trkpt><trkpt lat="43.535847821459626" lon="10.646240385431973"><ele>67.0</ele><time>2026-04-18T06:59:30Z</time></trkpt><trkpt lat="43.535679302023546" lon="10.646285912745455"><ele>67.0</ele><time>2026-04-18T06:59:31Z</time></trkpt><trkpt lat="43.53551654359122" lon="10.646342778601092"><ele>67.0</ele><time>2026-04-18T06:59:32Z</time></trkpt><trkpt lat="43.535348376508416" lon="10.646401534173322"><ele>67.0</ele><time>2026-04-18T06:59:33Z</time></trkpt><trkpt lat="43.53517522600565" lon="10.64646335693825"><ele>66.33333333333333</ele><time>2026-04-18T06:59:34Z</time></trkpt><trkpt lat="43.53500596903034" lon="10.646524584952266"><ele>65.66666666666667</ele><time>2026-04-18T06:59:35Z</time></trkpt><trkpt lat="43.534840327242" lon="10.646584507887614"><ele>65.0</ele><time>2026-04-18T06:59:36Z</time></trkpt><trkpt lat="43.53468080085147" lon="10.646642247379722"><ele>64.0</ele><time>2026-04-18T06:59:37Z</time></trkpt><trkpt lat="43.534521935387964" lon="10.646699747663632"><ele>63.0</ele><time>2026-04-18T06:59:38Z</time></trkpt><trkpt lat="43.53436554435331" lon="10.646754208871771"><ele>62.0</ele><time>2026-04-18T06:59:38.999Z</time></trkpt><trkpt lat="43.5342070584758" lon="10.646807611393378"><ele>62.0</ele><time>2026-04-18T06:59:39.999Z</time></trkpt><trkpt lat="43.534050065423564" lon="10.646856251358582"><ele>62.0</ele><time>2026-04-18T06:59:40.999Z</time></trkpt><trkpt lat="43.53388934181985" lon="10.64690504303949"><ele>62.0</ele><time>2026-04-18T06:59:41.999Z</time></trkpt><trkpt lat="43.53373323226316" lon="10.646954551309802"><ele>63.0</ele><time>2026-04-18T06:59:42.999Z</time></trkpt><trkpt lat="43.53356782516383" lon="10.647005315979909"><ele>64.0</ele><time>2026-04-18T06:59:43.999Z</time></trkpt><trkpt lat="43.53339831709741" lon="10.647067923925897"><ele>65.0</ele><time>2026-04-18T06:59:44.999Z</time></trkpt><trkpt lat="43.53322336256983" lon="10.647100914834846"><ele>65.0</ele><time>2026-04-18T06:59:45.999Z</time></trkpt><trkpt lat="43.533047622529935" lon="10.64711874275995"><ele>65.0</ele><time>2026-04-18T06:59:46.999Z</time></trkpt><trkpt lat="43.53286765084803" lon="10.647127380199034"><ele>65.0</ele><time>2026-04-18T06:59:47.999Z</time></trkpt><trkpt lat="43.53268666631925" lon="10.64714229923283"><ele>65.33333333333334</ele><time>2026-04-18T06:59:48.999Z</time></trkpt><trkpt lat="43.53251532576794" lon="10.647160121358521"><ele>65.66666666666667</ele><time>2026-04-18T06:59:49.999Z</time></trkpt><trkpt lat="43.532351164495196" lon="10.647183764760214"><ele>66.0</ele><time>2026-04-18T06:59:50.999Z</time></trkpt><trkpt lat="43.53219583606103" lon="10.647226547019814"><ele>64.66666666666667</ele><time>2026-04-18T06:59:51.999Z</time></trkpt><trkpt lat="43.53204520186253" lon="10.647286314124177"><ele>63.333333333333336</ele><time>2026-04-18T06:59:52.999Z</time></trkpt><trkpt lat="43.5318991616329" lon="10.647358100677723"><ele>62.0</ele><time>2026-04-18T06:59:53.999Z</time></trkpt><trkpt lat="43.53176990863074" lon="10.647443797022948"><ele>62.0</ele><time>2026-04-18T06:59:54.999Z</time></trkpt><trkpt lat="43.53165626170076" lon="10.64754770127055"><ele>62.0</ele><time>2026-04-18T06:59:55.999Z</time></trkpt><trkpt lat="43.53155975721489" lon="10.647687132271363"><ele>62.0</ele><time>2026-04-18T06:59:56.999Z</time></trkpt><trkpt lat="43.53146996726191" lon="10.647847377325519"><ele>62.0</ele><time>2026-04-18T06:59:57.999Z</time></trkpt><trkpt lat="43.53137740951486" lon="10.648006002304866"><ele>62.333333333333336</ele><time>2026-04-18T06:59:58.999Z</time></trkpt><trkpt lat="43.531267372454856" lon="10.64816757734006"><ele>62.66666666666667</ele><time>2026-04-18T06:59:59.999Z</time></trkpt><trkpt lat="43.531138545494116" lon="10.648320360952532"><ele>63.0</ele><time>2026-04-18T07:00:00.999Z</time></trkpt><trkpt lat="43.5309953521884" lon="10.648454989240822"><ele>63.0</ele><time>2026-04-18T07:00:01.999Z</time></trkpt><trkpt lat="43.53084883498353" lon="10.648581436765701"><ele>63.0</ele><time>2026-04-18T07:00:02.999Z</time></trkpt><trkpt lat="43.53070806429505" lon="10.648705491905236"><ele>63.0</ele><time>2026-04-18T07:00:03.999Z</time></trkpt><trkpt lat="43.53057654908675" lon="10.648820472721551"><ele>63.5</ele><time>2026-04-18T07:00:04.999Z</time></trkpt><trkpt lat="43.53045161201438" lon="10.648895439770921"><ele>64.0</ele><time>2026-04-18T07:00:05.999Z</time></trkpt><trkpt lat="43.5303203410229" lon="10.648922120572788"><ele>64.5</ele><time>2026-04-18T07:00:06.999Z</time></trkpt><trkpt lat="43.53018587384218" lon="10.64890935785319"><ele>65.0</ele><time>2026-04-18T07:00:07.999Z</time></trkpt><trkpt lat="43.53006287016733" lon="10.648835475563414"><ele>64.75</ele><time>2026-04-18T07:00:08.999Z</time></trkpt><trkpt lat="43.52992851089516" lon="10.648762287452636"><ele>64.5</ele><time>2026-04-18T07:00:09.999Z</time></trkpt><trkpt lat="43.529787629436704" lon="10.648695623090356"><ele>64.25</ele><time>2026-04-18T07:00:10.999Z</time></trkpt><trkpt lat="43.52966382974259" lon="10.648579642982863"><ele>64.0</ele><time>2026-04-18T07:00:11.999Z</time></trkpt><trkpt lat="43.529535582433525" lon="10.648471432926222"><ele>65.66666666666666</ele><time>2026-04-18T07:00:12.999Z</time></trkpt><trkpt lat="43.52940818453241" lon="10.648348932673303"><ele>67.33333333333333</ele><time>2026-04-18T07:00:13.999Z</time></trkpt><trkpt lat="43.52928012892004" lon="10.648216119095567"><ele>69.0</ele><time>2026-04-18T07:00:14.999Z</time></trkpt><trkpt lat="43.52914725570298" lon="10.648078043283679"><ele>69.0</ele><time>2026-04-18T07:00:15.999Z</time></trkpt><trkpt lat="43.5290174458407" lon="10.647944206920801"><ele>69.0</ele><time>2026-04-18T07:00:16.999Z</time></trkpt><trkpt lat="43.528897764003375" lon="10.647825835061399"><ele>69.0</ele><time>2026-04-18T07:00:17.999Z</time></trkpt><trkpt lat="43.52878194576196" lon="10.647720746064278"><ele>69.0</ele><time>2026-04-18T07:00:18.999Z</time></trkpt><trkpt lat="43.52865947980819" lon="10.647623628596461"><ele>68.25</ele><time>2026-04-18T07:00:19.999Z</time></trkpt><trkpt lat="43.52853241923867" lon="10.647537794339627"><ele>67.5</ele><time>2026-04-18T07:00:20.999Z</time></trkpt><trkpt lat="43.528394809701894" lon="10.647461320619367"><ele>66.75</ele><time>2026-04-18T07:00:21.999Z</time></trkpt><trkpt lat="43.52825067373986" lon="10.647401553771461"><ele>66.0</ele><time>2026-04-18T07:00:22.999Z</time></trkpt><trkpt lat="43.528101297545014" lon="10.647354120511308"><ele>66.0</ele><time>2026-04-18T07:00:23.999Z</time></trkpt><trkpt lat="43.52795592647993" lon="10.647322070760028"><ele>66.0</ele><time>2026-04-18T07:00:24.999Z</time></trkpt><trkpt lat="43.52780660638988" lon="10.647312564287917"><ele>66.0</ele><time>2026-04-18T07:00:25.999Z</time></trkpt><trkpt lat="43.527656852271946" lon="10.647314328312673"><ele>66.0</ele><time>2026-04-18T07:00:26.999Z</time></trkpt><trkpt lat="43.52750660612284" lon="10.647322255789458"><ele>65.66666666666667</ele><time>2026-04-18T07:00:27.999Z</time></trkpt><trkpt lat="43.52735410029165" lon="10.647339055989484"><ele>65.33333333333334</ele><time>2026-04-18T07:00:28.999Z</time></trkpt><trkpt lat="43.527203375452345" lon="10.647366410337574"><ele>65.0</ele><time>2026-04-18T07:00:29.999Z</time></trkpt><trkpt lat="43.527059882650626" lon="10.6474208824281"><ele>65.0</ele><time>2026-04-18T07:00:30.999Z</time></trkpt><trkpt lat="43.52691473155246" lon="10.647464482926127"><ele>65.0</ele><time>2026-04-18T07:00:31.999Z</time></trkpt><trkpt lat="43.52677719820181" lon="10.647500844665515"><ele>65.0</ele><time>2026-04-18T07:00:32.999Z</time></trkpt><trkpt lat="43.52664395257775" lon="10.64756991146396"><ele>65.0</ele><time>2026-04-18T07:00:33.999Z</time></trkpt><trkpt lat="43.52651620579881" lon="10.647654580849313"><ele>65.0</ele><time>2026-04-18T07:00:34.999Z</time></trkpt><trkpt lat="43.52639405316804" lon="10.647747085426499"><ele>65.0</ele><time>2026-04-18T07:00:35.999Z</time></trkpt><trkpt lat="43.526278896594846" lon="10.647844877784767"><ele>65.0</ele><time>2026-04-18T07:00:36.999Z</time></trkpt><trkpt lat="43.52617596018792" lon="10.647965375086377"><ele>65.0</ele><time>2026-04-18T07:00:37.999Z</time></trkpt><trkpt lat="43.526067221451044" lon="10.64806902992599"><ele>64.6</ele><time>2026-04-18T07:00:38.999Z</time></trkpt><trkpt lat="43.525959728310845" lon="10.648151936530924"><ele>64.2</ele><time>2026-04-18T07:00:39.999Z</time></trkpt><trkpt lat="43.52586110498758" lon="10.648229256472316"><ele>63.8</ele><time>2026-04-18T07:00:40.999Z</time></trkpt><trkpt lat="43.52576299828952" lon="10.648283581156399"><ele>63.4</ele><time>2026-04-18T07:00:41.999Z</time></trkpt><trkpt lat="43.525682200225965" lon="10.648299331345976"><ele>63.0</ele><time>2026-04-18T07:00:42.999Z</time></trkpt><trkpt lat="43.52560642909391" lon="10.648294503706492"><ele>63.0</ele><time>2026-04-18T07:00:44Z</time></trkpt><trkpt lat="43.52552971462457" lon="10.6482279059534"><ele>63.0</ele><time>2026-04-18T07:00:45Z</time></trkpt><trkpt lat="43.5254523210109" lon="10.648179656371598"><ele>63.0</ele><time>2026-04-18T07:00:46Z</time></trkpt><trkpt lat="43.525366689961686" lon="10.648117282618756"><ele>63.0</ele><time>2026-04-18T07:00:47Z</time></trkpt><trkpt lat="43.52526520348135" lon="10.648067452303934"><ele>63.0</ele><time>2026-04-18T07:00:48Z</time></trkpt><trkpt lat="43.5251640216466" lon="10.648013521528078"><ele>63.166666666666664</ele><time>2026-04-18T07:00:49Z</time></trkpt><trkpt lat="43.52507226387658" lon="10.647988584622167"><ele>63.33333333333333</ele><time>2026-04-18T07:00:50Z</time></trkpt><trkpt lat="43.52498761959385" lon="10.647984939982761"><ele>63.5</ele><time>2026-04-18T07:00:51Z</time></trkpt><trkpt lat="43.524922696708764" lon="10.648002340164306"><ele>63.666666666666664</ele><time>2026-04-18T07:00:52Z</time></trkpt><trkpt lat="43.52481064977864" lon="10.648055961100733"><ele>63.83333333333333</ele><time>2026-04-18T07:00:54Z</time></trkpt><trkpt lat="43.52475293930871" lon="10.648099739873054"><ele>64.0</ele><time>2026-04-18T07:00:57Z</time></trkpt><trkpt lat="43.52482785386933" lon="10.6480422869201"><ele>64.0</ele><time>2026-04-18T07:01:01Z</time></trkpt><trkpt lat="43.5248945492526" lon="10.648004451534662"><ele>64.0</ele><time>2026-04-18T07:01:02Z</time></trkpt><trkpt lat="43.52498735609887" lon="10.64797515185791"><ele>64.0</ele><time>2026-04-18T07:01:03Z</time></trkpt><trkpt lat="43.52514023932903" lon="10.6480301369491"><ele>64.0</ele><time>2026-04-18T07:01:04Z</time></trkpt><trkpt lat="43.525248321476205" lon="10.648081961738367"><ele>64.0</ele><time>2026-04-18T07:01:05Z</time></trkpt><trkpt lat="43.525375858728815" lon="10.648163937434811"><ele>63.75</ele><time>2026-04-18T07:01:06Z</time></trkpt><trkpt lat="43.52551451668746" lon="10.648269974465263"><ele>63.5</ele><time>2026-04-18T07:01:07Z</time></trkpt><trkpt lat="43.525635441085626" lon="10.648340081374108"><ele>63.25</ele><time>2026-04-18T07:01:08Z</time></trkpt><trkpt lat="43.525749748176146" lon="10.648351787072297"><ele>63.0</ele><time>2026-04-18T07:01:09Z</time></trkpt><trkpt lat="43.52585203920545" lon="10.648309543637348"><ele>63.0</ele><time>2026-04-18T07:01:10Z</time></trkpt><trkpt lat="43.52592542807672" lon="10.648269751356013"><ele>63.0</ele><time>2026-04-18T07:01:11Z</time></trkpt><trkpt lat="43.525994574837284" lon="10.648276762460007"><ele>63.0</ele><time>2026-04-18T07:01:12Z</time></trkpt><trkpt lat="43.526040117994135" lon="10.648346577591143"><ele>63.0</ele><time>2026-04-18T07:01:13Z</time></trkpt><trkpt lat="43.526068498366726" lon="10.64844404914375"><ele>63.0</ele><time>2026-04-18T07:01:14Z</time></trkpt><trkpt lat="43.5260401609325" lon="10.648589779616705"><ele>63.0</ele><time>2026-04-18T07:01:15Z</time></trkpt><trkpt lat="43.52606347433293" lon="10.648730631242534"><ele>64.6</ele><time>2026-04-18T07:01:16Z</time></trkpt><trkpt lat="43.52608223103339" lon="10.648850523661812"><ele>66.19999999999999</ele><time>2026-04-18T07:01:17Z</time></trkpt><trkpt lat="43.52609745918708" lon="10.64895009587867"><ele>67.8</ele><time>2026-04-18T07:01:18Z</time></trkpt><trkpt lat="43.526110093888825" lon="10.649043139758186"><ele>69.39999999999999</ele><time>2026-04-18T07:01:19Z</time></trkpt><trkpt lat="43.526101664739045" lon="10.649215090205423"><ele>71.0</ele><time>2026-04-18T07:01:21Z</time></trkpt><trkpt lat="43.526012108855284" lon="10.649316292751571"><ele>71.0</ele><time>2026-04-18T07:01:23Z</time></trkpt><trkpt lat="43.52594144531731" lon="10.649263316412414"><ele>71.0</ele><time>2026-04-18T07:01:24Z</time></trkpt><trkpt lat="43.5258876297213" lon="10.649182673981855"><ele>71.0</ele><time>2026-04-18T07:01:25Z</time></trkpt><trkpt lat="43.52580142996404" lon="10.649103135811622"><ele>71.0</ele><time>2026-04-18T07:01:26Z</time></trkpt><trkpt lat="43.52571265653054" lon="10.649018400154494"><ele>71.0</ele><time>2026-04-18T07:01:27Z</time></trkpt><trkpt lat="43.52560431386845" lon="10.648922365579674"><ele>71.0</ele><time>2026-04-18T07:01:28Z</time></trkpt><trkpt lat="43.52550953184649" lon="10.64883478803607"><ele>71.0</ele><time>2026-04-18T07:01:29Z</time></trkpt><trkpt lat="43.525434209412936" lon="10.648742322583969"><ele>71.0</ele><time>2026-04-18T07:01:30Z</time></trkpt><trkpt lat="43.52534310804205" lon="10.648644515539857"><ele>71.0</ele><time>2026-04-18T07:01:31Z</time></trkpt><trkpt lat="43.52529375217686" lon="10.648542805855817"><ele>71.0</ele><time>2026-04-18T07:01:32Z</time></trkpt><trkpt lat="43.52521664272909" lon="10.648481369345726"><ele>70.83333333333334</ele><time>2026-04-18T07:01:33Z</time></trkpt><trkpt lat="43.52513432911543" lon="10.648455879785235"><ele>70.66666666666667</ele><time>2026-04-18T07:01:34Z</time></trkpt><trkpt lat="43.5250604839006" lon="10.648438795204852"><ele>70.5</ele><time>2026-04-18T07:01:35Z</time></trkpt><trkpt lat="43.52497999025128" lon="10.648510111414401"><ele>70.33333333333333</ele><time>2026-04-18T07:01:36Z</time></trkpt><trkpt lat="43.52491611377737" lon="10.648585167626981"><ele>70.16666666666666</ele><time>2026-04-18T07:01:37Z</time></trkpt><trkpt lat="43.52488854520753" lon="10.648721659917687"><ele>70.0</ele><time>2026-04-18T07:01:38Z</time></trkpt><trkpt lat="43.52489573811091" lon="10.648851576365802"><ele>70.0</ele><time>2026-04-18T07:01:38.999Z</time></trkpt><trkpt lat="43.52492658698255" lon="10.648966299759685"><ele>70.0</ele><time>2026-04-18T07:01:39.999Z</time></trkpt><trkpt lat="43.52497085818865" lon="10.649090015576606"><ele>70.0</ele><time>2026-04-18T07:01:40.999Z</time></trkpt><trkpt lat="43.525023464870436" lon="10.649231180642072"><ele>70.0</ele><time>2026-04-18T07:01:41.999Z</time></trkpt><trkpt lat="43.52508155542753" lon="10.649378297992776"><ele>70.0</ele><time>2026-04-18T07:01:42.999Z</time></trkpt><trkpt lat="43.52513125539839" lon="10.649506960410745"><ele>70.2</ele><time>2026-04-18T07:01:43.999Z</time></trkpt><trkpt lat="43.5251826537828" lon="10.64964009583512"><ele>70.4</ele><time>2026-04-18T07:01:44.999Z</time></trkpt><trkpt lat="43.5252490894664" lon="10.649764946421053"><ele>70.6</ele><time>2026-04-18T07:01:45.999Z</time></trkpt><trkpt lat="43.52529583109349" lon="10.649890646752917"><ele>70.8</ele><time>2026-04-18T07:01:46.999Z</time></trkpt><trkpt lat="43.52533222205774" lon="10.650017587132375"><ele>71.0</ele><time>2026-04-18T07:01:47.999Z</time></trkpt><trkpt lat="43.525396719086224" lon="10.650136136637444"><ele>72.2</ele><time>2026-04-18T07:01:48.999Z</time></trkpt><trkpt lat="43.525473863250006" lon="10.650230977483373"><ele>73.39999999999999</ele><time>2026-04-18T07:01:49.999Z</time></trkpt><trkpt lat="43.525597539171976" lon="10.650251552716602"><ele>74.6</ele><time>2026-04-18T07:01:50.999Z</time></trkpt><trkpt lat="43.52569968613879" lon="10.650272395454786"><ele>75.8</ele><time>2026-04-18T07:01:51.999Z</time></trkpt><trkpt lat="43.52580747826017" lon="10.650309837358424"><ele>77.0</ele><time>2026-04-18T07:01:52.999Z</time></trkpt><trkpt lat="43.52590556256192" lon="10.650382985146212"><ele>77.8</ele><time>2026-04-18T07:01:53.999Z</time></trkpt><trkpt lat="43.525991802616204" lon="10.65047569027501"><ele>78.6</ele><time>2026-04-18T07:01:54.999Z</time></trkpt><trkpt lat="43.52606806912325" lon="10.65058040302605"><ele>79.39999999999999</ele><time>2026-04-18T07:01:55.999Z</time></trkpt><trkpt lat="43.52610777327881" lon="10.650704490181225"><ele>80.2</ele><time>2026-04-18T07:01:56.999Z</time></trkpt><trkpt lat="43.526138580698" lon="10.650838694413645"><ele>81.0</ele><time>2026-04-18T07:01:57.999Z</time></trkpt><trkpt lat="43.5262091620537" lon="10.650967849223123"><ele>80.25</ele><time>2026-04-18T07:01:58.999Z</time></trkpt><trkpt lat="43.52630498868916" lon="10.65111305629698"><ele>79.5</ele><time>2026-04-18T07:01:59.999Z</time></trkpt><trkpt lat="43.52639763105506" lon="10.651223129520577"><ele>78.75</ele><time>2026-04-18T07:02:00.999Z</time></trkpt><trkpt lat="43.52648379118527" lon="10.651346654422142"><ele>78.0</ele><time>2026-04-18T07:02:01.999Z</time></trkpt><trkpt lat="43.52654787956308" lon="10.651461679276533"><ele>80.5</ele><time>2026-04-18T07:02:02.999Z</time></trkpt><trkpt lat="43.526588088916995" lon="10.651607648549614"><ele>83.0</ele><time>2026-04-18T07:02:03.999Z</time></trkpt><trkpt lat="43.52662531013071" lon="10.65175404317263"><ele>85.5</ele><time>2026-04-18T07:02:04.999Z</time></trkpt><trkpt lat="43.52666354999063" lon="10.651904516833374"><ele>88.0</ele><time>2026-04-18T07:02:05.999Z</time></trkpt><trkpt lat="43.526679405910855" lon="10.652079146922482"><ele>88.25</ele><time>2026-04-18T07:02:06.999Z</time></trkpt><trkpt lat="43.526710044045885" lon="10.652263285080899"><ele>88.5</ele><time>2026-04-18T07:02:07.999Z</time></trkpt><trkpt lat="43.52674465484446" lon="10.652400472480307"><ele>88.75</ele><time>2026-04-18T07:02:08.999Z</time></trkpt><trkpt lat="43.526797483989554" lon="10.652548322304087"><ele>89.0</ele><time>2026-04-18T07:02:09.999Z</time></trkpt><trkpt lat="43.526862390428846" lon="10.652714195553008"><ele>90.75</ele><time>2026-04-18T07:02:10.999Z</time></trkpt><trkpt lat="43.52694986410988" lon="10.652837942615948"><ele>92.5</ele><time>2026-04-18T07:02:11.999Z</time></trkpt><trkpt lat="43.527050128058264" lon="10.652929395750936"><ele>94.25</ele><time>2026-04-18T07:02:12.999Z</time></trkpt><trkpt lat="43.52714285292368" lon="10.65303705296396"><ele>96.0</ele><time>2026-04-18T07:02:13.999Z</time></trkpt><trkpt lat="43.52726198694929" lon="10.653111519742222"><ele>96.0</ele><time>2026-04-18T07:02:14.999Z</time></trkpt><trkpt lat="43.527388037205064" lon="10.653170251036418"><ele>96.0</ele><time>2026-04-18T07:02:15.999Z</time></trkpt><trkpt lat="43.5275003800456" lon="10.653179403865396"><ele>96.0</ele><time>2026-04-18T07:02:16.999Z</time></trkpt><trkpt lat="43.52762640439308" lon="10.653169132871525"><ele>96.0</ele><time>2026-04-18T07:02:17.999Z</time></trkpt><trkpt lat="43.52776918915131" lon="10.653168294916515"><ele>96.0</ele><time>2026-04-18T07:02:18.999Z</time></trkpt><trkpt lat="43.527888527776746" lon="10.653148202357585"><ele>96.0</ele><time>2026-04-18T07:02:19.999Z</time></trkpt><trkpt lat="43.52800837689712" lon="10.653138470416932"><ele>96.0</ele><time>2026-04-18T07:02:20.999Z</time></trkpt><trkpt lat="43.528139339484916" lon="10.653151622629483"><ele>96.0</ele><time>2026-04-18T07:02:21.999Z</time></trkpt><trkpt lat="43.52824745872761" lon="10.653201838310764"><ele>98.0</ele><time>2026-04-18T07:02:22.999Z</time></trkpt><trkpt lat="43.52836441025498" lon="10.653295635726554"><ele>100.0</ele><time>2026-04-18T07:02:23.999Z</time></trkpt><trkpt lat="43.528501781164344" lon="10.653421396749279"><ele>102.0</ele><time>2026-04-18T07:02:24.999Z</time></trkpt><trkpt lat="43.52865107862293" lon="10.653567704736952"><ele>104.0</ele><time>2026-04-18T07:02:25.999Z</time></trkpt><trkpt lat="43.52878909891644" lon="10.653704571456528"><ele>106.0</ele><time>2026-04-18T07:02:26.999Z</time></trkpt><trkpt lat="43.528900279683825" lon="10.653824703180675"><ele>108.0</ele><time>2026-04-18T07:02:27.999Z</time></trkpt><trkpt lat="43.529001352480115" lon="10.65396061591395"><ele>108.0</ele><time>2026-04-18T07:02:28.999Z</time></trkpt><trkpt lat="43.52910559697789" lon="10.654111431052232"><ele>108.0</ele><time>2026-04-18T07:02:29.999Z</time></trkpt><trkpt lat="43.52920827280373" lon="10.654277175898422"><ele>108.0</ele><time>2026-04-18T07:02:30.999Z</time></trkpt><trkpt lat="43.529301729416886" lon="10.65443210431281"><ele>108.0</ele><time>2026-04-18T07:02:31.999Z</time></trkpt><trkpt lat="43.52939530889956" lon="10.654587529087797"><ele>108.0</ele><time>2026-04-18T07:02:32.999Z</time></trkpt><trkpt lat="43.52946984754581" lon="10.65473386979277"><ele>108.0</ele><time>2026-04-18T07:02:33.999Z</time></trkpt><trkpt lat="43.529527234910994" lon="10.65487796157422"><ele>108.0</ele><time>2026-04-18T07:02:34.999Z</time></trkpt><trkpt lat="43.529567146652184" lon="10.655018689248328"><ele>108.0</ele><time>2026-04-18T07:02:35.999Z</time></trkpt><trkpt lat="43.52958957580982" lon="10.65515981237345"><ele>108.0</ele><time>2026-04-18T07:02:36.999Z</time></trkpt><trkpt lat="43.529592232551266" lon="10.65533320127975"><ele>108.0</ele><time>2026-04-18T07:02:37.999Z</time></trkpt><trkpt lat="43.52957973368228" lon="10.655512381682671"><ele>108.0</ele><time>2026-04-18T07:02:38.999Z</time></trkpt><trkpt lat="43.52959603939708" lon="10.655684747362644"><ele>109.75</ele><time>2026-04-18T07:02:39.999Z</time></trkpt><trkpt lat="43.52964430411501" lon="10.65584904610965"><ele>111.5</ele><time>2026-04-18T07:02:40.999Z</time></trkpt><trkpt lat="43.529712616703314" lon="10.656011492362774"><ele>113.25</ele><time>2026-04-18T07:02:41.999Z</time></trkpt><trkpt lat="43.52977512116168" lon="10.656144485331678"><ele>115.0</ele><time>2026-04-18T07:02:42.999Z</time></trkpt><trkpt lat="43.52982591129351" lon="10.656272676155185"><ele>117.0</ele><time>2026-04-18T07:02:43.999Z</time></trkpt><trkpt lat="43.529864691588884" lon="10.656414819306717"><ele>119.0</ele><time>2026-04-18T07:02:44.999Z</time></trkpt><trkpt lat="43.52988811816507" lon="10.656573093505882"><ele>121.0</ele><time>2026-04-18T07:02:45.999Z</time></trkpt><trkpt lat="43.52988877844892" lon="10.656746463806602"><ele>123.0</ele><time>2026-04-18T07:02:46.999Z</time></trkpt><trkpt lat="43.52989302007262" lon="10.656904161935433"><ele>122.60000000000001</ele><time>2026-04-18T07:02:47.999Z</time></trkpt><trkpt lat="43.52992134897068" lon="10.65703779870608"><ele>122.20000000000002</ele><time>2026-04-18T07:02:48.999Z</time></trkpt><trkpt lat="43.52995064045541" lon="10.65716048646198"><ele>121.8</ele><time>2026-04-18T07:02:50Z</time></trkpt><trkpt lat="43.53006162884716" lon="10.657231426463563"><ele>121.4</ele><time>2026-04-18T07:02:51Z</time></trkpt><trkpt lat="43.53016281716125" lon="10.65728247679126"><ele>121.0</ele><time>2026-04-18T07:02:52Z</time></trkpt><trkpt lat="43.530260290278996" lon="10.657341488903553"><ele>121.0</ele><time>2026-04-18T07:02:53Z</time></trkpt><trkpt lat="43.53036602039669" lon="10.657387803091932"><ele>121.0</ele><time>2026-04-18T07:02:54Z</time></trkpt><trkpt lat="43.5304658799925" lon="10.65743756732069"><ele>121.0</ele><time>2026-04-18T07:02:55Z</time></trkpt><trkpt lat="43.530575290655705" lon="10.657468952943718"><ele>121.0</ele><time>2026-04-18T07:02:56Z</time></trkpt><trkpt lat="43.53069459960715" lon="10.657517213245049"><ele>124.5</ele><time>2026-04-18T07:02:57Z</time></trkpt><trkpt lat="43.53082677052886" lon="10.657557942883749"><ele>128.0</ele><time>2026-04-18T07:02:58Z</time></trkpt><trkpt lat="43.53094821439577" lon="10.657540831234892"><ele>131.5</ele><time>2026-04-18T07:02:59Z</time></trkpt><trkpt lat="43.53106709635092" lon="10.657461933647511"><ele>135.0</ele><time>2026-04-18T07:03:00Z</time></trkpt><trkpt lat="43.53118287536951" lon="10.657390326078598"><ele>137.75</ele><time>2026-04-18T07:03:01Z</time></trkpt><trkpt lat="43.53128803649718" lon="10.657322369411155"><ele>140.5</ele><time>2026-04-18T07:03:02Z</time></trkpt><trkpt lat="43.53138761715014" lon="10.657282858934742"><ele>143.25</ele><time>2026-04-18T07:03:03Z</time></trkpt><trkpt lat="43.531499454042525" lon="10.65729346500315"><ele>146.0</ele><time>2026-04-18T07:03:04Z</time></trkpt><trkpt lat="43.5316073861714" lon="10.657362678405063"><ele>146.0</ele><time>2026-04-18T07:03:05Z</time></trkpt><trkpt lat="43.53171335839723" lon="10.65745563196391"><ele>146.0</ele><time>2026-04-18T07:03:06Z</time></trkpt><trkpt lat="43.531817582955874" lon="10.657531369000827"><ele>146.0</ele><time>2026-04-18T07:03:07Z</time></trkpt><trkpt lat="43.5319405654145" lon="10.657596155456323"><ele>146.0</ele><time>2026-04-18T07:03:08Z</time></trkpt><trkpt lat="43.53205429499547" lon="10.657646410992674"><ele>144.6</ele><time>2026-04-18T07:03:09Z</time></trkpt><trkpt lat="43.53215993346701" lon="10.65768026406322"><ele>143.2</ele><time>2026-04-18T07:03:10Z</time></trkpt><trkpt lat="43.53225893599722" lon="10.657718508807625"><ele>141.8</ele><time>2026-04-18T07:03:11Z</time></trkpt><trkpt lat="43.532353151319604" lon="10.657751538808698"><ele>140.4</ele><time>2026-04-18T07:03:12Z</time></trkpt><trkpt lat="43.53243522256723" lon="10.657789907373402"><ele>139.0</ele><time>2026-04-18T07:03:13Z</time></trkpt><trkpt lat="43.53249366153781" lon="10.657853329505048"><ele>141.33333333333334</ele><time>2026-04-18T07:03:14Z</time></trkpt><trkpt lat="43.53252385036375" lon="10.657947577420458"><ele>143.66666666666669</ele><time>2026-04-18T07:03:15Z</time></trkpt><trkpt lat="43.53250744980798" lon="10.65805687019797"><ele>146.0</ele><time>2026-04-18T07:03:16Z</time></trkpt><trkpt lat="43.532433107620676" lon="10.658144749528581"><ele>148.33333333333334</ele><time>2026-04-18T07:03:17Z</time></trkpt><trkpt lat="43.53235341951032" lon="10.658178376959007"><ele>150.66666666666666</ele><time>2026-04-18T07:03:18Z</time></trkpt><trkpt lat="43.53227528921712" lon="10.65817409767201"><ele>153.0</ele><time>2026-04-18T07:03:19Z</time></trkpt><trkpt lat="43.532189265665515" lon="10.658113484942929"><ele>153.0</ele><time>2026-04-18T07:03:20Z</time></trkpt><trkpt lat="43.53208167049014" lon="10.658053718276523"><ele>153.0</ele><time>2026-04-18T07:03:21Z</time></trkpt><trkpt lat="43.53198667380727" lon="10.657978239668486"><ele>153.0</ele><time>2026-04-18T07:03:22Z</time></trkpt><trkpt lat="43.53188537075187" lon="10.657911584922305"><ele>153.0</ele><time>2026-04-18T07:03:23Z</time></trkpt><trkpt lat="43.531798910873064" lon="10.657879832444808"><ele>153.0</ele><time>2026-04-18T07:03:24Z</time></trkpt><trkpt lat="43.53172291876963" lon="10.657902982982511"><ele>154.0</ele><time>2026-04-18T07:03:25Z</time></trkpt><trkpt lat="43.53167135327138" lon="10.657962018697484"><ele>155.0</ele><time>2026-04-18T07:03:26Z</time></trkpt><trkpt lat="43.53163694542632" lon="10.658050567971152"><ele>156.0</ele><time>2026-04-18T07:03:27Z</time></trkpt><trkpt lat="43.531630452647164" lon="10.658170970269097"><ele>157.0</ele><time>2026-04-18T07:03:28Z</time></trkpt><trkpt lat="43.53166304195543" lon="10.658280007927841"><ele>158.0</ele><time>2026-04-18T07:03:29Z</time></trkpt><trkpt lat="43.53173982289323" lon="10.65837390667037"><ele>159.0</ele><time>2026-04-18T07:03:30Z</time></trkpt><trkpt lat="43.5318236855596" lon="10.658436666651648"><ele>159.0</ele><time>2026-04-18T07:03:31Z</time></trkpt><trkpt lat="43.5319174573422" lon="10.658520654307242"><ele>159.0</ele><time>2026-04-18T07:03:32Z</time></trkpt><trkpt lat="43.53198808512073" lon="10.658620738232374"><ele>159.0</ele><time>2026-04-18T07:03:33Z</time></trkpt><trkpt lat="43.53206194756509" lon="10.65875335986463"><ele>159.0</ele><time>2026-04-18T07:03:34Z</time></trkpt><trkpt lat="43.53212491247834" lon="10.65891855225506"><ele>159.5</ele><time>2026-04-18T07:03:35Z</time></trkpt><trkpt lat="43.53219845169221" lon="10.659084389048363"><ele>160.0</ele><time>2026-04-18T07:03:36Z</time></trkpt><trkpt lat="43.532295604612244" lon="10.659225702716055"><ele>160.5</ele><time>2026-04-18T07:03:37Z</time></trkpt><trkpt lat="43.532379256319224" lon="10.659370909910049"><ele>161.0</ele><time>2026-04-18T07:03:38Z</time></trkpt><trkpt lat="43.53246136349462" lon="10.659510909340652"><ele>164.0</ele><time>2026-04-18T07:03:39Z</time></trkpt><trkpt lat="43.532533506002366" lon="10.659620053971365"><ele>167.0</ele><time>2026-04-18T07:03:40Z</time></trkpt><trkpt lat="43.53260644560567" lon="10.659745158576165"><ele>170.0</ele><time>2026-04-18T07:03:41Z</time></trkpt><trkpt lat="43.532684912642495" lon="10.659861737355952"><ele>173.0</ele><time>2026-04-18T07:03:42Z</time></trkpt><trkpt lat="43.53277129625922" lon="10.659988315217538"><ele>173.0</ele><time>2026-04-18T07:03:43Z</time></trkpt><trkpt lat="43.53284649666877" lon="10.660127079115492"><ele>173.0</ele><time>2026-04-18T07:03:44Z</time></trkpt><trkpt lat="43.53292148265383" lon="10.660241432440522"><ele>173.0</ele><time>2026-04-18T07:03:45Z</time></trkpt><trkpt lat="43.53299570671988" lon="10.660354623747438"><ele>173.0</ele><time>2026-04-18T07:03:45.999Z</time></trkpt><trkpt lat="43.53307660260624" lon="10.660481584754434"><ele>172.2</ele><time>2026-04-18T07:03:46.999Z</time></trkpt><trkpt lat="43.53315886701735" lon="10.660614185941762"><ele>171.4</ele><time>2026-04-18T07:03:47.999Z</time></trkpt><trkpt lat="43.533252900600694" lon="10.66070577697341"><ele>170.6</ele><time>2026-04-18T07:03:48.999Z</time></trkpt><trkpt lat="43.53332174272418" lon="10.660798385966357"><ele>169.79999999999998</ele><time>2026-04-18T07:03:49.999Z</time></trkpt><trkpt lat="43.53340489035108" lon="10.660863910857488"><ele>169.0</ele><time>2026-04-18T07:03:50.999Z</time></trkpt><trkpt lat="43.53346255126291" lon="10.660906751282683"><ele>169.0</ele><time>2026-04-18T07:03:51.999Z</time></trkpt><trkpt lat="43.53352588333143" lon="10.66095975562241"><ele>169.0</ele><time>2026-04-18T07:03:53.999Z</time></trkpt><trkpt lat="43.53356882632537" lon="10.661031928122842"><ele>169.0</ele><time>2026-04-18T07:03:56.999Z</time></trkpt><trkpt lat="43.533679529937935" lon="10.661095528625054"><ele>169.0</ele><time>2026-04-18T07:03:58.999Z</time></trkpt><trkpt lat="43.53380855575094" lon="10.661131933457678"><ele>169.0</ele><time>2026-04-18T07:04:00.999Z</time></trkpt><trkpt lat="43.53389116413195" lon="10.661156603200787"><ele>167.79999999999998</ele><time>2026-04-18T07:04:01.999Z</time></trkpt><trkpt lat="43.53396291050138" lon="10.661172950678978"><ele>166.6</ele><time>2026-04-18T07:04:02.999Z</time></trkpt><trkpt lat="43.534045641599846" lon="10.661197510002514"><ele>165.4</ele><time>2026-04-18T07:04:04.999Z</time></trkpt><trkpt lat="43.534159028171786" lon="10.661216267963106"><ele>164.2</ele><time>2026-04-18T07:04:06.999Z</time></trkpt><trkpt lat="43.53425091043888" lon="10.661269340773933"><ele>163.0</ele><time>2026-04-18T07:04:08.999Z</time></trkpt><trkpt lat="43.534222427905384" lon="10.661396830969519"><ele>163.0</ele><time>2026-04-18T07:04:10.999Z</time></trkpt><trkpt lat="43.534182922929304" lon="10.661514672138155"><ele>163.0</ele><time>2026-04-18T07:04:11.999Z</time></trkpt><trkpt lat="43.534132715757146" lon="10.661626097226115"><ele>163.0</ele><time>2026-04-18T07:04:12.999Z</time></trkpt><trkpt lat="43.53407827385871" lon="10.661773380589782"><ele>163.0</ele><time>2026-04-18T07:04:13.999Z</time></trkpt><trkpt lat="43.534022607455206" lon="10.661953698471178"><ele>161.0</ele><time>2026-04-18T07:04:14.999Z</time></trkpt><trkpt lat="43.53395649415559" lon="10.662157598001468"><ele>159.0</ele><time>2026-04-18T07:04:15.999Z</time></trkpt><trkpt lat="43.53388249444746" lon="10.662364706826276"><ele>157.0</ele><time>2026-04-18T07:04:16.999Z</time></trkpt><trkpt lat="43.533808510987924" lon="10.662571224220383"><ele>157.0</ele><time>2026-04-18T07:04:17.999Z</time></trkpt><trkpt lat="43.533741103309985" lon="10.662776438348684"><ele>157.0</ele><time>2026-04-18T07:04:18.999Z</time></trkpt><trkpt lat="43.533679427517086" lon="10.662974300766638"><ele>157.0</ele><time>2026-04-18T07:04:19.999Z</time></trkpt><trkpt lat="43.533631875592974" lon="10.663171125096014"><ele>159.0</ele><time>2026-04-18T07:04:20.999Z</time></trkpt><trkpt lat="43.53359077606551" lon="10.663360576564212"><ele>161.0</ele><time>2026-04-18T07:04:21.999Z</time></trkpt><trkpt lat="43.533553135537886" lon="10.663555800376638"><ele>163.0</ele><time>2026-04-18T07:04:22.999Z</time></trkpt><trkpt lat="43.53352030921125" lon="10.663760721688684"><ele>165.0</ele><time>2026-04-18T07:04:23.999Z</time></trkpt><trkpt lat="43.53348613929156" lon="10.663928770708967"><ele>165.0</ele><time>2026-04-18T07:04:24.999Z</time></trkpt><trkpt lat="43.533466548264336" lon="10.664089649839314"><ele>165.0</ele><time>2026-04-18T07:04:25.999Z</time></trkpt><trkpt lat="43.5334500551154" lon="10.664255090671867"><ele>165.0</ele><time>2026-04-18T07:04:26.999Z</time></trkpt><trkpt lat="43.53342670410062" lon="10.664404526663516"><ele>165.0</ele><time>2026-04-18T07:04:27.999Z</time></trkpt><trkpt lat="43.53339780826429" lon="10.664542620097379"><ele>162.5</ele><time>2026-04-18T07:04:28.999Z</time></trkpt><trkpt lat="43.53334629215288" lon="10.664663908514514"><ele>160.0</ele><time>2026-04-18T07:04:29.999Z</time></trkpt><trkpt lat="43.53326498921634" lon="10.664776420669194"><ele>157.5</ele><time>2026-04-18T07:04:30.999Z</time></trkpt><trkpt lat="43.533173778873284" lon="10.664879681299762"><ele>155.0</ele><time>2026-04-18T07:04:31.999Z</time></trkpt><trkpt lat="43.53307116571712" lon="10.664973768613947"><ele>155.0</ele><time>2026-04-18T07:04:32.999Z</time></trkpt><trkpt lat="43.53295893021503" lon="10.665046726692118"><ele>155.0</ele><time>2026-04-18T07:04:33.999Z</time></trkpt><trkpt lat="43.53284620294939" lon="10.665071440805391"><ele>155.0</ele><time>2026-04-18T07:04:34.999Z</time></trkpt><trkpt lat="43.53273526461429" lon="10.665029487785308"><ele>155.0</ele><time>2026-04-18T07:04:35.999Z</time></trkpt><trkpt lat="43.53261074273812" lon="10.6649981443385"><ele>154.5</ele><time>2026-04-18T07:04:36.999Z</time></trkpt><trkpt lat="43.532482191264144" lon="10.664991222993272"><ele>154.0</ele><time>2026-04-18T07:04:37.999Z</time></trkpt><trkpt lat="43.53236894645112" lon="10.664978522174712"><ele>153.5</ele><time>2026-04-18T07:04:38.999Z</time></trkpt><trkpt lat="43.53225504345126" lon="10.665013939059827"><ele>153.0</ele><time>2026-04-18T07:04:39.999Z</time></trkpt><trkpt lat="43.532150986712914" lon="10.665099408654692"><ele>153.0</ele><time>2026-04-18T07:04:40.999Z</time></trkpt><trkpt lat="43.53205981738136" lon="10.66522882941212"><ele>153.0</ele><time>2026-04-18T07:04:41.999Z</time></trkpt><trkpt lat="43.53197696307553" lon="10.665406790566664"><ele>153.0</ele><time>2026-04-18T07:04:42.999Z</time></trkpt><trkpt lat="43.531892320826095" lon="10.665607734942421"><ele>151.0</ele><time>2026-04-18T07:04:43.999Z</time></trkpt><trkpt lat="43.531800877476165" lon="10.66580612179991"><ele>149.0</ele><time>2026-04-18T07:04:44.999Z</time></trkpt><trkpt lat="43.531710772549474" lon="10.666006178401252"><ele>147.0</ele><time>2026-04-18T07:04:45.999Z</time></trkpt><trkpt lat="43.53161749404042" lon="10.666200304133765"><ele>147.0</ele><time>2026-04-18T07:04:46.999Z</time></trkpt><trkpt lat="43.53151497230418" lon="10.666380691425955"><ele>147.0</ele><time>2026-04-18T07:04:47.999Z</time></trkpt><trkpt lat="43.5314060260293" lon="10.666543792419526"><ele>147.0</ele><time>2026-04-18T07:04:48.999Z</time></trkpt><trkpt lat="43.53130072075063" lon="10.666688101041236"><ele>147.75</ele><time>2026-04-18T07:04:49.999Z</time></trkpt><trkpt lat="43.53120806914517" lon="10.666811842830432"><ele>148.5</ele><time>2026-04-18T07:04:50.999Z</time></trkpt><trkpt lat="43.53112171587989" lon="10.666946997924637"><ele>149.25</ele><time>2026-04-18T07:04:51.999Z</time></trkpt><trkpt lat="43.531037040855026" lon="10.667101376096634"><ele>150.0</ele><time>2026-04-18T07:04:52.999Z</time></trkpt><trkpt lat="43.53094674797877" lon="10.667247618376754"><ele>152.25</ele><time>2026-04-18T07:04:53.999Z</time></trkpt><trkpt lat="43.53085136363479" lon="10.667391618182206"><ele>154.5</ele><time>2026-04-18T07:04:54.999Z</time></trkpt><trkpt lat="43.53074156258814" lon="10.667525393373545"><ele>156.75</ele><time>2026-04-18T07:04:56Z</time></trkpt><trkpt lat="43.5306106886448" lon="10.667653443271236"><ele>159.0</ele><time>2026-04-18T07:04:57Z</time></trkpt><trkpt lat="43.53048385322121" lon="10.66776584663382"><ele>160.0</ele><time>2026-04-18T07:04:58Z</time></trkpt><trkpt lat="43.53037861369533" lon="10.667861911847313"><ele>161.0</ele><time>2026-04-18T07:04:59Z</time></trkpt><trkpt lat="43.53028087926415" lon="10.667970526189256"><ele>162.0</ele><time>2026-04-18T07:05:00Z</time></trkpt><trkpt lat="43.53018794344639" lon="10.66810492685704"><ele>163.0</ele><time>2026-04-18T07:05:01Z</time></trkpt><trkpt lat="43.53009832140777" lon="10.668245273704136"><ele>163.0</ele><time>2026-04-18T07:05:02Z</time></trkpt><trkpt lat="43.53001450937619" lon="10.6683818764971"><ele>163.0</ele><time>2026-04-18T07:05:03Z</time></trkpt><trkpt lat="43.529933190619424" lon="10.668518512125543"><ele>163.0</ele><time>2026-04-18T07:05:04Z</time></trkpt><trkpt lat="43.529842574031335" lon="10.66865508724491"><ele>163.0</ele><time>2026-04-18T07:05:05Z</time></trkpt><trkpt lat="43.5297565016393" lon="10.668787324214284"><ele>162.5</ele><time>2026-04-18T07:05:06Z</time></trkpt><trkpt lat="43.52966203547733" lon="10.668908478827616"><ele>162.0</ele><time>2026-04-18T07:05:07Z</time></trkpt><trkpt lat="43.52957480212598" lon="10.66903014914491"><ele>161.5</ele><time>2026-04-18T07:05:08Z</time></trkpt><trkpt lat="43.52949525585861" lon="10.669139557647446"><ele>161.0</ele><time>2026-04-18T07:05:09Z</time></trkpt><trkpt lat="43.52941868499285" lon="10.669229979115443"><ele>161.0</ele><time>2026-04-18T07:05:10Z</time></trkpt><trkpt lat="43.52934902910015" lon="10.669309825260088"><ele>161.0</ele><time>2026-04-18T07:05:11Z</time></trkpt><trkpt lat="43.529285343798854" lon="10.669384201837554"><ele>161.0</ele><time>2026-04-18T07:05:12Z</time></trkpt><trkpt lat="43.52920418928378" lon="10.66946389609168"><ele>161.0</ele><time>2026-04-18T07:05:13Z</time></trkpt><trkpt lat="43.52911168475339" lon="10.669548175248861"><ele>161.0</ele><time>2026-04-18T07:05:14Z</time></trkpt><trkpt lat="43.52902066057751" lon="10.669643807785912"><ele>161.5</ele><time>2026-04-18T07:05:15Z</time></trkpt><trkpt lat="43.52893196998011" lon="10.669748455531998"><ele>162.0</ele><time>2026-04-18T07:05:16Z</time></trkpt><trkpt lat="43.528838464822584" lon="10.669858343404538"><ele>162.5</ele><time>2026-04-18T07:05:17Z</time></trkpt><trkpt lat="43.52874304372503" lon="10.669961459307983"><ele>163.0</ele><time>2026-04-18T07:05:18Z</time></trkpt><trkpt lat="43.52865096225311" lon="10.670070128533744"><ele>162.5</ele><time>2026-04-18T07:05:19Z</time></trkpt><trkpt lat="43.52855572948439" lon="10.670181378969627"><ele>162.0</ele><time>2026-04-18T07:05:20Z</time></trkpt><trkpt lat="43.52845854190036" lon="10.670301885179088"><ele>161.5</ele><time>2026-04-18T07:05:21Z</time></trkpt><trkpt lat="43.52836004786998" lon="10.670427973162875"><ele>161.0</ele><time>2026-04-18T07:05:22Z</time></trkpt><trkpt lat="43.52826586459528" lon="10.670548071726563"><ele>161.0</ele><time>2026-04-18T07:05:23Z</time></trkpt><trkpt lat="43.52817086246978" lon="10.670664796258938"><ele>161.0</ele><time>2026-04-18T07:05:24Z</time></trkpt><trkpt lat="43.52807161718598" lon="10.670787244181952"><ele>161.0</ele><time>2026-04-18T07:05:25Z</time></trkpt><trkpt lat="43.52797372958675" lon="10.670908820117726"><ele>161.0</ele><time>2026-04-18T07:05:26Z</time></trkpt><trkpt lat="43.52787469202313" lon="10.67103822318146"><ele>162.25</ele><time>2026-04-18T07:05:27Z</time></trkpt><trkpt lat="43.52778578413267" lon="10.67115151778859"><ele>163.5</ele><time>2026-04-18T07:05:28Z</time></trkpt><trkpt lat="43.52769408491782" lon="10.67126431937215"><ele>164.75</ele><time>2026-04-18T07:05:29Z</time></trkpt><trkpt lat="43.5276138607525" lon="10.67138847936302"><ele>166.0</ele><time>2026-04-18T07:05:30Z</time></trkpt><trkpt lat="43.52752319382732" lon="10.67150909011173"><ele>166.0</ele><time>2026-04-18T07:05:31Z</time></trkpt><trkpt lat="43.52745996810392" lon="10.671670964012785"><ele>166.0</ele><time>2026-04-18T07:05:32Z</time></trkpt><trkpt lat="43.52739023726321" lon="10.67182521775543"><ele>166.0</ele><time>2026-04-18T07:05:33Z</time></trkpt><trkpt lat="43.52732602467066" lon="10.671955690524506"><ele>166.0</ele><time>2026-04-18T07:05:34Z</time></trkpt><trkpt lat="43.527268033594204" lon="10.672075258780966"><ele>167.25</ele><time>2026-04-18T07:05:35Z</time></trkpt><trkpt lat="43.52720025313305" lon="10.672192743851223"><ele>168.5</ele><time>2026-04-18T07:05:36Z</time></trkpt><trkpt lat="43.52711983778215" lon="10.672310786729893"><ele>169.75</ele><time>2026-04-18T07:05:37Z</time></trkpt><trkpt lat="43.52702242015731" lon="10.67240421236074"><ele>171.0</ele><time>2026-04-18T07:05:38Z</time></trkpt><trkpt lat="43.526910374184936" lon="10.672465328144668"><ele>171.0</ele><time>2026-04-18T07:05:39Z</time></trkpt><trkpt lat="43.526794176082554" lon="10.6724836861297"><ele>171.0</ele><time>2026-04-18T07:05:40Z</time></trkpt><trkpt lat="43.526672920781955" lon="10.672454844167559"><ele>171.0</ele><time>2026-04-18T07:05:41Z</time></trkpt><trkpt lat="43.526555397056626" lon="10.67245070579937"><ele>171.0</ele><time>2026-04-18T07:05:42Z</time></trkpt><trkpt lat="43.52644447147557" lon="10.67245265819342"><ele>171.0</ele><time>2026-04-18T07:05:43Z</time></trkpt><trkpt lat="43.52634076658998" lon="10.672464513100964"><ele>171.0</ele><time>2026-04-18T07:05:44Z</time></trkpt><trkpt lat="43.52623389887504" lon="10.672513782210425"><ele>171.0</ele><time>2026-04-18T07:05:45Z</time></trkpt><trkpt lat="43.5261388026819" lon="10.6725996146274"><ele>171.0</ele><time>2026-04-18T07:05:46Z</time></trkpt><trkpt lat="43.52605208164883" lon="10.672678299587956"><ele>171.0</ele><time>2026-04-18T07:05:47Z</time></trkpt><trkpt lat="43.52597732319586" lon="10.67277735707838"><ele>170.8</ele><time>2026-04-18T07:05:48Z</time></trkpt><trkpt lat="43.525913732885414" lon="10.67289675663385"><ele>170.60000000000002</ele><time>2026-04-18T07:05:48.999Z</time></trkpt><trkpt lat="43.52586902606028" lon="10.673022200171484"><ele>170.4</ele><time>2026-04-18T07:05:49.999Z</time></trkpt><trkpt lat="43.52583939845964" lon="10.67317387262901"><ele>170.2</ele><time>2026-04-18T07:05:50.999Z</time></trkpt><trkpt lat="43.52583014658408" lon="10.673340261409377"><ele>170.0</ele><time>2026-04-18T07:05:51.999Z</time></trkpt><trkpt lat="43.525824635610824" lon="10.673506217776293"><ele>172.0</ele><time>2026-04-18T07:05:52.999Z</time></trkpt><trkpt lat="43.52580804376488" lon="10.673667998075695"><ele>174.0</ele><time>2026-04-18T07:05:53.999Z</time></trkpt><trkpt lat="43.525789731723016" lon="10.673824817555014"><ele>176.0</ele><time>2026-04-18T07:05:54.999Z</time></trkpt><trkpt lat="43.52577089594941" lon="10.673983974586559"><ele>178.0</ele><time>2026-04-18T07:05:55.999Z</time></trkpt><trkpt lat="43.52574669139474" lon="10.674143908536653"><ele>178.0</ele><time>2026-04-18T07:05:56.999Z</time></trkpt><trkpt lat="43.52572253479642" lon="10.674304417450433"><ele>178.0</ele><time>2026-04-18T07:05:57.999Z</time></trkpt><trkpt lat="43.52569887443457" lon="10.674464167921034"><ele>178.0</ele><time>2026-04-18T07:05:58.999Z</time></trkpt><trkpt lat="43.52567859204811" lon="10.674615696090214"><ele>178.0</ele><time>2026-04-18T07:05:59.999Z</time></trkpt><trkpt lat="43.525655570071045" lon="10.674744528189938"><ele>178.0</ele><time>2026-04-18T07:06:00.999Z</time></trkpt><trkpt lat="43.52563842727835" lon="10.67486733351394"><ele>178.83333333333334</ele><time>2026-04-18T07:06:01.999Z</time></trkpt><trkpt lat="43.52561814710754" lon="10.674985769435388"><ele>179.66666666666669</ele><time>2026-04-18T07:06:02.999Z</time></trkpt><trkpt lat="43.52560053848238" lon="10.675086843318843"><ele>180.5</ele><time>2026-04-18T07:06:03.999Z</time></trkpt><trkpt lat="43.52558152180383" lon="10.675201994617598"><ele>181.33333333333334</ele><time>2026-04-18T07:06:04.999Z</time></trkpt><trkpt lat="43.525561905859405" lon="10.67532145578343"><ele>182.16666666666666</ele><time>2026-04-18T07:06:05.999Z</time></trkpt><trkpt lat="43.52553375950222" lon="10.675437826873551"><ele>183.0</ele><time>2026-04-18T07:06:06.999Z</time></trkpt><trkpt lat="43.525492718341205" lon="10.675544985198052"><ele>183.0</ele><time>2026-04-18T07:06:07.999Z</time></trkpt><trkpt lat="43.52544707240796" lon="10.675644506616521"><ele>183.0</ele><time>2026-04-18T07:06:08.999Z</time></trkpt><trkpt lat="43.52540222514977" lon="10.67575202023217"><ele>183.0</ele><time>2026-04-18T07:06:09.999Z</time></trkpt><trkpt lat="43.52535066961459" lon="10.67584151122631"><ele>183.0</ele><time>2026-04-18T07:06:10.999Z</time></trkpt><trkpt lat="43.52529124902516" lon="10.675911623621525"><ele>183.0</ele><time>2026-04-18T07:06:11.999Z</time></trkpt><trkpt lat="43.52520960911083" lon="10.675974483184373"><ele>183.0</ele><time>2026-04-18T07:06:12.999Z</time></trkpt><trkpt lat="43.52513050475764" lon="10.676031672821708"><ele>183.0</ele><time>2026-04-18T07:06:13.999Z</time></trkpt><trkpt lat="43.5250662012846" lon="10.676090827660927"><ele>183.0</ele><time>2026-04-18T07:06:14.999Z</time></trkpt><trkpt lat="43.52500358632815" lon="10.676158195881296"><ele>183.0</ele><time>2026-04-18T07:06:15.999Z</time></trkpt><trkpt lat="43.524938928578145" lon="10.676217760098673"><ele>183.0</ele><time>2026-04-18T07:06:16.999Z</time></trkpt><trkpt lat="43.52486936221531" lon="10.676286576653643"><ele>183.0</ele><time>2026-04-18T07:06:17.999Z</time></trkpt><trkpt lat="43.52480865662476" lon="10.676342919114747"><ele>183.0</ele><time>2026-04-18T07:06:18.999Z</time></trkpt><trkpt lat="43.52476056639271" lon="10.67641156894214"><ele>182.83333333333334</ele><time>2026-04-18T07:06:19.999Z</time></trkpt><trkpt lat="43.52471637021024" lon="10.676479228716529"><ele>182.66666666666666</ele><time>2026-04-18T07:06:20.999Z</time></trkpt><trkpt lat="43.52465211684921" lon="10.6765532652741"><ele>182.5</ele><time>2026-04-18T07:06:21.999Z</time></trkpt><trkpt lat="43.524608544351295" lon="10.676641346612636"><ele>182.33333333333331</ele><time>2026-04-18T07:06:22.999Z</time></trkpt><trkpt lat="43.52457130143455" lon="10.676728820251128"><ele>182.16666666666666</ele><time>2026-04-18T07:06:23.999Z</time></trkpt><trkpt lat="43.524545322543915" lon="10.676808998788164"><ele>182.0</ele><time>2026-04-18T07:06:24.999Z</time></trkpt><trkpt lat="43.52451688180817" lon="10.676960199365316"><ele>181.39999999999998</ele><time>2026-04-18T07:06:26.999Z</time></trkpt><trkpt lat="43.52451793794916" lon="10.677091670156939"><ele>180.79999999999998</ele><time>2026-04-18T07:06:28.999Z</time></trkpt><trkpt lat="43.52457544192135" lon="10.677221402133753"><ele>180.2</ele><time>2026-04-18T07:06:30.999Z</time></trkpt><trkpt lat="43.52464195290021" lon="10.677328923431594"><ele>179.6</ele><time>2026-04-18T07:06:32.999Z</time></trkpt><trkpt lat="43.52469320223817" lon="10.677424446478632"><ele>179.0</ele><time>2026-04-18T07:06:34.999Z</time></trkpt><trkpt lat="43.52473654923599" lon="10.677569607471805"><ele>178.33333333333331</ele><time>2026-04-18T07:06:36.999Z</time></trkpt><trkpt lat="43.524740352737645" lon="10.67765954539265"><ele>177.66666666666666</ele><time>2026-04-18T07:06:37.999Z</time></trkpt><trkpt lat="43.52475220179185" lon="10.677765371520243"><ele>177.0</ele><time>2026-04-18T07:06:38.999Z</time></trkpt><trkpt lat="43.524746260056766" lon="10.677871134762478"><ele>176.33333333333334</ele><time>2026-04-18T07:06:39.999Z</time></trkpt><trkpt lat="43.524740326531386" lon="10.677981201269242"><ele>175.66666666666669</ele><time>2026-04-18T07:06:40.999Z</time></trkpt><trkpt lat="43.524741888720726" lon="10.678103921935769"><ele>175.0</ele><time>2026-04-18T07:06:41.999Z</time></trkpt><trkpt lat="43.524743055514456" lon="10.678235018291263"><ele>174.5</ele><time>2026-04-18T07:06:42.999Z</time></trkpt><trkpt lat="43.52475053343181" lon="10.678346592386028"><ele>174.0</ele><time>2026-04-18T07:06:43.999Z</time></trkpt><trkpt lat="43.52476580370818" lon="10.678462752655973"><ele>173.5</ele><time>2026-04-18T07:06:44.999Z</time></trkpt><trkpt lat="43.524784087175604" lon="10.678578722522982"><ele>173.0</ele><time>2026-04-18T07:06:45.999Z</time></trkpt><trkpt lat="43.5248117213509" lon="10.678692710626846"><ele>172.5</ele><time>2026-04-18T07:06:46.999Z</time></trkpt><trkpt lat="43.52484281752261" lon="10.678811372689738"><ele>172.0</ele><time>2026-04-18T07:06:47.999Z</time></trkpt><trkpt lat="43.52483870856982" lon="10.678917434716537"><ele>173.16666666666669</ele><time>2026-04-18T07:06:48.999Z</time></trkpt><trkpt lat="43.524851025731586" lon="10.679022116609561"><ele>174.33333333333334</ele><time>2026-04-18T07:06:49.999Z</time></trkpt><trkpt lat="43.524857717438096" lon="10.679141607922826"><ele>175.5</ele><time>2026-04-18T07:06:50.999Z</time></trkpt><trkpt lat="43.52487370562919" lon="10.679257203835997"><ele>176.66666666666666</ele><time>2026-04-18T07:06:51.999Z</time></trkpt><trkpt lat="43.524869920608396" lon="10.679365172557045"><ele>177.83333333333331</ele><time>2026-04-18T07:06:52.999Z</time></trkpt><trkpt lat="43.52486237338634" lon="10.679463869480987"><ele>179.0</ele><time>2026-04-18T07:06:53.999Z</time></trkpt><trkpt lat="43.524859270804306" lon="10.679559974783771"><ele>179.6</ele><time>2026-04-18T07:06:54.999Z</time></trkpt><trkpt lat="43.5248420524873" lon="10.679654748323019"><ele>180.2</ele><time>2026-04-18T07:06:55.999Z</time></trkpt><trkpt lat="43.52483507657726" lon="10.67977112285593"><ele>180.79999999999998</ele><time>2026-04-18T07:06:56.999Z</time></trkpt><trkpt lat="43.52482167112375" lon="10.679904013779561"><ele>181.39999999999998</ele><time>2026-04-18T07:06:57.999Z</time></trkpt><trkpt lat="43.5248433239407" lon="10.680042566203458"><ele>182.0</ele><time>2026-04-18T07:06:58.999Z</time></trkpt><trkpt lat="43.524873775671416" lon="10.680179331684762"><ele>180.83333333333331</ele><time>2026-04-18T07:06:59.998Z</time></trkpt><trkpt lat="43.52490472989824" lon="10.680312686396459"><ele>179.66666666666666</ele><time>2026-04-18T07:07:00.998Z</time></trkpt><trkpt lat="43.524944757607095" lon="10.680429903213588"><ele>178.5</ele><time>2026-04-18T07:07:02Z</time></trkpt><trkpt lat="43.52496153380085" lon="10.680547331374266"><ele>177.33333333333334</ele><time>2026-04-18T07:07:03Z</time></trkpt><trkpt lat="43.524952937893325" lon="10.680665544549864"><ele>176.16666666666669</ele><time>2026-04-18T07:07:04Z</time></trkpt><trkpt lat="43.52495413614966" lon="10.680775253716705"><ele>175.0</ele><time>2026-04-18T07:07:05Z</time></trkpt><trkpt lat="43.52495346649172" lon="10.680901953161612"><ele>175.0</ele><time>2026-04-18T07:07:06Z</time></trkpt><trkpt lat="43.52496368782684" lon="10.681013514087565"><ele>175.0</ele><time>2026-04-18T07:07:07Z</time></trkpt><trkpt lat="43.524960134870554" lon="10.681136404912012"><ele>175.0</ele><time>2026-04-18T07:07:08Z</time></trkpt><trkpt lat="43.52495644056022" lon="10.681272219797343"><ele>175.0</ele><time>2026-04-18T07:07:09Z</time></trkpt><trkpt lat="43.52495663298141" lon="10.681390228917556"><ele>175.0</ele><time>2026-04-18T07:07:10Z</time></trkpt><trkpt lat="43.52495730787073" lon="10.681503855405715"><ele>175.0</ele><time>2026-04-18T07:07:11Z</time></trkpt><trkpt lat="43.524954497802206" lon="10.681614477993515"><ele>174.5</ele><time>2026-04-18T07:07:12Z</time></trkpt><trkpt lat="43.52495419627402" lon="10.681737390576586"><ele>174.0</ele><time>2026-04-18T07:07:13Z</time></trkpt><trkpt lat="43.52495382905937" lon="10.681848932302968"><ele>173.5</ele><time>2026-04-18T07:07:14Z</time></trkpt><trkpt lat="43.524953995826394" lon="10.681949043041197"><ele>173.0</ele><time>2026-04-18T07:07:15Z</time></trkpt><trkpt lat="43.524950208927045" lon="10.68205186316514"><ele>172.5</ele><time>2026-04-18T07:07:16Z</time></trkpt><trkpt lat="43.524947574660054" lon="10.682149667791368"><ele>172.0</ele><time>2026-04-18T07:07:17Z</time></trkpt><trkpt lat="43.52493029069529" lon="10.682239849453834"><ele>171.66666666666669</ele><time>2026-04-18T07:07:18Z</time></trkpt><trkpt lat="43.524953107822206" lon="10.682341910993348"><ele>171.33333333333334</ele><time>2026-04-18T07:07:19Z</time></trkpt><trkpt lat="43.524956661951045" lon="10.682452037153299"><ele>171.0</ele><time>2026-04-18T07:07:20Z</time></trkpt><trkpt lat="43.52501763311815" lon="10.682533675082832"><ele>170.66666666666666</ele><time>2026-04-18T07:07:21Z</time></trkpt><trkpt lat="43.52508495844334" lon="10.682595828953602"><ele>170.33333333333331</ele><time>2026-04-18T07:07:22Z</time></trkpt><trkpt lat="43.5251692729454" lon="10.68261381320718"><ele>170.0</ele><time>2026-04-18T07:07:23Z</time></trkpt><trkpt lat="43.52525501964995" lon="10.68266238635587"><ele>170.0</ele><time>2026-04-18T07:07:24Z</time></trkpt><trkpt lat="43.52532993524003" lon="10.682684380614647"><ele>170.0</ele><time>2026-04-18T07:07:25Z</time></trkpt><trkpt lat="43.525400972789924" lon="10.682769872664052"><ele>170.0</ele><time>2026-04-18T07:07:26Z</time></trkpt><trkpt lat="43.52546865666408" lon="10.682841790815012"><ele>170.0</ele><time>2026-04-18T07:07:27Z</time></trkpt><trkpt lat="43.52551466231404" lon="10.682913353281378"><ele>170.0</ele><time>2026-04-18T07:07:28Z</time></trkpt><trkpt lat="43.52556570673169" lon="10.683030697914374"><ele>170.0</ele><time>2026-04-18T07:07:30Z</time></trkpt><trkpt lat="43.525600269380085" lon="10.683119950152024"><ele>168.5</ele><time>2026-04-18T07:07:32Z</time></trkpt><trkpt lat="43.52562553794527" lon="10.683258986992984"><ele>167.0</ele><time>2026-04-18T07:07:34Z</time></trkpt><trkpt lat="43.52560964103926" lon="10.68341125745601"><ele>165.5</ele><time>2026-04-18T07:07:36Z</time></trkpt><trkpt lat="43.52541369105726" lon="10.683533621242326"><ele>164.0</ele><time>2026-04-18T07:07:38Z</time></trkpt><trkpt lat="43.52530006414635" lon="10.683618815441484"><ele>161.79999999999998</ele><time>2026-04-18T07:07:39Z</time></trkpt><trkpt lat="43.52519262532167" lon="10.68369829061073"><ele>159.6</ele><time>2026-04-18T07:07:40Z</time></trkpt><trkpt lat="43.525094485236465" lon="10.683772710862085"><ele>157.4</ele><time>2026-04-18T07:07:41Z</time></trkpt><trkpt lat="43.52500612323362" lon="10.683840696664268"><ele>155.2</ele><time>2026-04-18T07:07:42Z</time></trkpt><trkpt lat="43.524939419016285" lon="10.683881569769849"><ele>153.0</ele><time>2026-04-18T07:07:43Z</time></trkpt><trkpt lat="43.5248776743285" lon="10.683912212113476"><ele>153.0</ele><time>2026-04-18T07:07:44Z</time></trkpt><trkpt lat="43.52481510840937" lon="10.683930091389264"><ele>153.0</ele><time>2026-04-18T07:07:45Z</time></trkpt><trkpt lat="43.52471665489122" lon="10.683905555925639"><ele>153.0</ele><time>2026-04-18T07:07:47Z</time></trkpt><trkpt lat="43.524658694628656" lon="10.68386208739857"><ele>153.0</ele><time>2026-04-18T07:07:49Z</time></trkpt><trkpt lat="43.52455041071393" lon="10.683951868637008"><ele>153.0</ele><time>2026-04-18T07:07:51Z</time></trkpt><trkpt lat="43.524519625765585" lon="10.684058497258727"><ele>153.0</ele><time>2026-04-18T07:07:52Z</time></trkpt><trkpt lat="43.52450703012818" lon="10.684158287424822"><ele>151.85714285714286</ele><time>2026-04-18T07:07:53Z</time></trkpt><trkpt lat="43.524498217093516" lon="10.684250376155148"><ele>150.71428571428572</ele><time>2026-04-18T07:07:54Z</time></trkpt><trkpt lat="43.524507877491224" lon="10.6843421559032"><ele>149.57142857142858</ele><time>2026-04-18T07:07:54.999Z</time></trkpt><trkpt lat="43.52454934564609" lon="10.684421927923893"><ele>148.42857142857144</ele><time>2026-04-18T07:07:55.999Z</time></trkpt><trkpt lat="43.524616621327716" lon="10.684485921933549"><ele>147.2857142857143</ele><time>2026-04-18T07:07:56.999Z</time></trkpt><trkpt lat="43.524690527130815" lon="10.684516448035765"><ele>146.14285714285714</ele><time>2026-04-18T07:07:57.999Z</time></trkpt><trkpt lat="43.52477100334565" lon="10.684530741153798"><ele>145.0</ele><time>2026-04-18T07:07:58.999Z</time></trkpt><trkpt lat="43.524852151918445" lon="10.684569495630848"><ele>145.0</ele><time>2026-04-18T07:07:59.999Z</time></trkpt><trkpt lat="43.52492841753297" lon="10.68458977013683"><ele>145.0</ele><time>2026-04-18T07:08:00.999Z</time></trkpt><trkpt lat="43.52499689211293" lon="10.684616257656932"><ele>145.0</ele><time>2026-04-18T07:08:01.999Z</time></trkpt><trkpt lat="43.525056780846015" lon="10.684648530592277"><ele>145.0</ele><time>2026-04-18T07:08:02.999Z</time></trkpt><trkpt lat="43.525123958453996" lon="10.684669884202709"><ele>145.0</ele><time>2026-04-18T07:08:03.999Z</time></trkpt><trkpt lat="43.525183225540935" lon="10.684724833681805"><ele>145.0</ele><time>2026-04-18T07:08:04.999Z</time></trkpt><trkpt lat="43.52523702045732" lon="10.684857997825695"><ele>145.0</ele><time>2026-04-18T07:08:06.999Z</time></trkpt><trkpt lat="43.525284981649605" lon="10.685001134700727"><ele>145.0</ele><time>2026-04-18T07:08:08.999Z</time></trkpt><trkpt lat="43.52530828822454" lon="10.685101572074004"><ele>145.0</ele><time>2026-04-18T07:08:09.999Z</time></trkpt><trkpt lat="43.52532972891979" lon="10.68521991585596"><ele>145.0</ele><time>2026-04-18T07:08:10.999Z</time></trkpt><trkpt lat="43.52536689335908" lon="10.685339309450073"><ele>145.0</ele><time>2026-04-18T07:08:11.999Z</time></trkpt><trkpt lat="43.525371561092" lon="10.685456915887155"><ele>145.8</ele><time>2026-04-18T07:08:12.999Z</time></trkpt><trkpt lat="43.5253961927205" lon="10.685562468323596"><ele>146.6</ele><time>2026-04-18T07:08:13.999Z</time></trkpt><trkpt lat="43.525426561264055" lon="10.68568145945519"><ele>147.4</ele><time>2026-04-18T07:08:14.999Z</time></trkpt><trkpt lat="43.52545430468168" lon="10.685792544226121"><ele>148.2</ele><time>2026-04-18T07:08:15.999Z</time></trkpt><trkpt lat="43.52548145331146" lon="10.685914081712351"><ele>149.0</ele><time>2026-04-18T07:08:16.999Z</time></trkpt><trkpt lat="43.525509357360235" lon="10.686048425601157"><ele>146.6</ele><time>2026-04-18T07:08:17.999Z</time></trkpt><trkpt lat="43.525530827613295" lon="10.686183277017433"><ele>144.2</ele><time>2026-04-18T07:08:18.999Z</time></trkpt><trkpt lat="43.52554501821447" lon="10.686316041366137"><ele>141.79999999999998</ele><time>2026-04-18T07:08:19.999Z</time></trkpt><trkpt lat="43.525553462989386" lon="10.686446209792413"><ele>139.4</ele><time>2026-04-18T07:08:20.999Z</time></trkpt><trkpt lat="43.52556042359094" lon="10.686559322838619"><ele>137.0</ele><time>2026-04-18T07:08:21.999Z</time></trkpt><trkpt lat="43.52556320398693" lon="10.68668292746119"><ele>137.0</ele><time>2026-04-18T07:08:22.999Z</time></trkpt><trkpt lat="43.525559247127916" lon="10.686820958088425"><ele>137.0</ele><time>2026-04-18T07:08:23.999Z</time></trkpt><trkpt lat="43.525544913675716" lon="10.686957739651193"><ele>137.0</ele><time>2026-04-18T07:08:24.999Z</time></trkpt><trkpt lat="43.52551280227205" lon="10.687106513507512"><ele>137.0</ele><time>2026-04-18T07:08:25.999Z</time></trkpt><trkpt lat="43.52547140045032" lon="10.687258172504526"><ele>137.0</ele><time>2026-04-18T07:08:26.999Z</time></trkpt><trkpt lat="43.525419776121936" lon="10.687408830871915"><ele>133.25</ele><time>2026-04-18T07:08:27.999Z</time></trkpt><trkpt lat="43.525368849307185" lon="10.687564273833237"><ele>129.5</ele><time>2026-04-18T07:08:28.999Z</time></trkpt><trkpt lat="43.52532271648797" lon="10.687726949386432"><ele>125.75</ele><time>2026-04-18T07:08:29.999Z</time></trkpt><trkpt lat="43.52528388916324" lon="10.687879539605744"><ele>122.0</ele><time>2026-04-18T07:08:30.999Z</time></trkpt><trkpt lat="43.525249805615935" lon="10.688024390946703"><ele>121.75</ele><time>2026-04-18T07:08:31.999Z</time></trkpt><trkpt lat="43.52521666039114" lon="10.68816829248926"><ele>121.5</ele><time>2026-04-18T07:08:32.999Z</time></trkpt><trkpt lat="43.52518270750954" lon="10.688324825206251"><ele>121.25</ele><time>2026-04-18T07:08:33.999Z</time></trkpt><trkpt lat="43.52515882071242" lon="10.688491692031166"><ele>121.0</ele><time>2026-04-18T07:08:34.999Z</time></trkpt><trkpt lat="43.52514229711147" lon="10.688656617550432"><ele>120.75</ele><time>2026-04-18T07:08:35.999Z</time></trkpt><trkpt lat="43.525124986003235" lon="10.6888143709017"><ele>120.5</ele><time>2026-04-18T07:08:36.999Z</time></trkpt><trkpt lat="43.52510395099635" lon="10.688973217463243"><ele>120.25</ele><time>2026-04-18T07:08:37.999Z</time></trkpt><trkpt lat="43.525079732003036" lon="10.689123018134447"><ele>120.0</ele><time>2026-04-18T07:08:38.999Z</time></trkpt><trkpt lat="43.52505531105678" lon="10.689279974461979"><ele>120.0</ele><time>2026-04-18T07:08:39.999Z</time></trkpt><trkpt lat="43.52503033348988" lon="10.689435288232408"><ele>120.0</ele><time>2026-04-18T07:08:40.999Z</time></trkpt><trkpt lat="43.52500388526125" lon="10.689590936122084"><ele>120.0</ele><time>2026-04-18T07:08:41.999Z</time></trkpt><trkpt lat="43.52498185802951" lon="10.689735092623032"><ele>120.0</ele><time>2026-04-18T07:08:42.999Z</time></trkpt><trkpt lat="43.52496565593556" lon="10.68992973453539"><ele>120.0</ele><time>2026-04-18T07:08:43.999Z</time></trkpt><trkpt lat="43.52497617273123" lon="10.690142967963746"><ele>120.0</ele><time>2026-04-18T07:08:44.999Z</time></trkpt><trkpt lat="43.52500430547028" lon="10.690351752546295"><ele>120.0</ele><time>2026-04-18T07:08:45.999Z</time></trkpt><trkpt lat="43.52503569515873" lon="10.690541091910497"><ele>119.0</ele><time>2026-04-18T07:08:46.999Z</time></trkpt><trkpt lat="43.525059257974846" lon="10.690729580953711"><ele>118.0</ele><time>2026-04-18T07:08:47.999Z</time></trkpt><trkpt lat="43.525082686903" lon="10.690911761914863"><ele>117.0</ele><time>2026-04-18T07:08:48.999Z</time></trkpt><trkpt lat="43.525106996462625" lon="10.69106904941465"><ele>116.0</ele><time>2026-04-18T07:08:49.999Z</time></trkpt><trkpt lat="43.52513128184207" lon="10.69124432339927"><ele>114.5</ele><time>2026-04-18T07:08:50.999Z</time></trkpt><trkpt lat="43.52516460997992" lon="10.691416034938117"><ele>113.0</ele><time>2026-04-18T07:08:51.999Z</time></trkpt><trkpt lat="43.525205353491" lon="10.691569016313363"><ele>111.5</ele><time>2026-04-18T07:08:52.999Z</time></trkpt><trkpt lat="43.525247780761646" lon="10.691713148986707"><ele>110.0</ele><time>2026-04-18T07:08:53.999Z</time></trkpt><trkpt lat="43.52528216920083" lon="10.69186728888098"><ele>107.75</ele><time>2026-04-18T07:08:54.999Z</time></trkpt><trkpt lat="43.52531969468156" lon="10.69202391403243"><ele>105.5</ele><time>2026-04-18T07:08:55.999Z</time></trkpt><trkpt lat="43.525347469924846" lon="10.692191797991585"><ele>103.25</ele><time>2026-04-18T07:08:56.999Z</time></trkpt><trkpt lat="43.52536679428645" lon="10.692360076483524"><ele>101.0</ele><time>2026-04-18T07:08:57.999Z</time></trkpt><trkpt lat="43.52538017413463" lon="10.692532552253457"><ele>101.0</ele><time>2026-04-18T07:08:58.999Z</time></trkpt><trkpt lat="43.52539064835566" lon="10.692700255598428"><ele>101.0</ele><time>2026-04-18T07:08:59.999Z</time></trkpt><trkpt lat="43.52539388777781" lon="10.692856354229223"><ele>101.0</ele><time>2026-04-18T07:09:00.999Z</time></trkpt><trkpt lat="43.52539307807745" lon="10.692992375249892"><ele>101.0</ele><time>2026-04-18T07:09:01.999Z</time></trkpt><trkpt lat="43.52539971956535" lon="10.693136296705537"><ele>101.0</ele><time>2026-04-18T07:09:02.999Z</time></trkpt><trkpt lat="43.52542048291181" lon="10.693282567758622"><ele>102.5</ele><time>2026-04-18T07:09:03.999Z</time></trkpt><trkpt lat="43.525452039841056" lon="10.693435769402933"><ele>104.0</ele><time>2026-04-18T07:09:04.998Z</time></trkpt><trkpt lat="43.52551500949847" lon="10.693601259545186"><ele>105.5</ele><time>2026-04-18T07:09:05.998Z</time></trkpt><trkpt lat="43.52559204057483" lon="10.693773150234342"><ele>107.0</ele><time>2026-04-18T07:09:06.998Z</time></trkpt><trkpt lat="43.52566776395005" lon="10.693940178412833"><ele>107.0</ele><time>2026-04-18T07:09:08Z</time></trkpt><trkpt lat="43.525734514851074" lon="10.694092231346055"><ele>106.99999999999999</ele><time>2026-04-18T07:09:09Z</time></trkpt><trkpt lat="43.52579262561939" lon="10.694212858190328"><ele>106.99999999999999</ele><time>2026-04-18T07:09:10Z</time></trkpt><trkpt lat="43.52582315972634" lon="10.69435262123128"><ele>107.0</ele><time>2026-04-18T07:09:11Z</time></trkpt><trkpt lat="43.52584453120274" lon="10.694496943681695"><ele>107.0</ele><time>2026-04-18T07:09:12Z</time></trkpt><trkpt lat="43.52584926710983" lon="10.694641964186802"><ele>106.6</ele><time>2026-04-18T07:09:13Z</time></trkpt><trkpt lat="43.525841817433324" lon="10.694794016120436"><ele>106.19999999999999</ele><time>2026-04-18T07:09:14Z</time></trkpt><trkpt lat="43.52582050663912" lon="10.694930267165585"><ele>105.8</ele><time>2026-04-18T07:09:15Z</time></trkpt><trkpt lat="43.52578361061584" lon="10.695055219506788"><ele>105.4</ele><time>2026-04-18T07:09:16Z</time></trkpt><trkpt lat="43.52572652135789" lon="10.695150570878443"><ele>105.0</ele><time>2026-04-18T07:09:17Z</time></trkpt><trkpt lat="43.52566520201187" lon="10.695234103299795"><ele>104.0</ele><time>2026-04-18T07:09:18Z</time></trkpt><trkpt lat="43.525617281201534" lon="10.695342254215399"><ele>103.0</ele><time>2026-04-18T07:09:19Z</time></trkpt><trkpt lat="43.52560003448171" lon="10.695479660438643"><ele>102.0</ele><time>2026-04-18T07:09:20Z</time></trkpt><trkpt lat="43.52562717541337" lon="10.695631128390264"><ele>101.0</ele><time>2026-04-18T07:09:21Z</time></trkpt><trkpt lat="43.52567026914553" lon="10.695772890008008"><ele>100.0</ele><time>2026-04-18T07:09:22Z</time></trkpt><trkpt lat="43.52570746650403" lon="10.695904671110444"><ele>100.0</ele><time>2026-04-18T07:09:23Z</time></trkpt><trkpt lat="43.5257311017346" lon="10.696047710996512"><ele>100.0</ele><time>2026-04-18T07:09:24Z</time></trkpt><trkpt lat="43.52574602778294" lon="10.696205748129309"><ele>100.0</ele><time>2026-04-18T07:09:25Z</time></trkpt><trkpt lat="43.52574045259358" lon="10.69635783615882"><ele>100.0</ele><time>2026-04-18T07:09:26Z</time></trkpt><trkpt lat="43.52572060200094" lon="10.696523467169012"><ele>99.0</ele><time>2026-04-18T07:09:27Z</time></trkpt><trkpt lat="43.52569661593959" lon="10.69667841397663"><ele>98.0</ele><time>2026-04-18T07:09:28Z</time></trkpt><trkpt lat="43.525675720950275" lon="10.696827087713311"><ele>97.0</ele><time>2026-04-18T07:09:29Z</time></trkpt><trkpt lat="43.52565440459345" lon="10.696968637702913"><ele>96.0</ele><time>2026-04-18T07:09:30Z</time></trkpt><trkpt lat="43.5256187265247" lon="10.697104323745101"><ele>95.0</ele><time>2026-04-18T07:09:31Z</time></trkpt><trkpt lat="43.52556645577462" lon="10.697227938320488"><ele>94.6</ele><time>2026-04-18T07:09:32Z</time></trkpt><trkpt lat="43.52550922056256" lon="10.697344794019715"><ele>94.2</ele><time>2026-04-18T07:09:33Z</time></trkpt><trkpt lat="43.52545716875201" lon="10.697468942817599"><ele>93.80000000000001</ele><time>2026-04-18T07:09:34Z</time></trkpt><trkpt lat="43.52541635355624" lon="10.697599651984248"><ele>93.4</ele><time>2026-04-18T07:09:35Z</time></trkpt><trkpt lat="43.525390087141076" lon="10.697734475863056"><ele>93.0</ele><time>2026-04-18T07:09:36Z</time></trkpt><trkpt lat="43.52538931533727" lon="10.697868602435074"><ele>92.2</ele><time>2026-04-18T07:09:37Z</time></trkpt><trkpt lat="43.5253885189841" lon="10.698012003655865"><ele>91.4</ele><time>2026-04-18T07:09:38Z</time></trkpt><trkpt lat="43.52541858151081" lon="10.698172735998838"><ele>90.60000000000001</ele><time>2026-04-18T07:09:39Z</time></trkpt><trkpt lat="43.52545608682644" lon="10.698322221842616"><ele>89.80000000000001</ele><time>2026-04-18T07:09:40Z</time></trkpt><trkpt lat="43.52550121196614" lon="10.698457253081429"><ele>89.0</ele><time>2026-04-18T07:09:41Z</time></trkpt><trkpt lat="43.52551297194001" lon="10.69860107997167"><ele>88.4</ele><time>2026-04-18T07:09:42Z</time></trkpt><trkpt lat="43.52551157945101" lon="10.698746132711626"><ele>87.80000000000001</ele><time>2026-04-18T07:09:43Z</time></trkpt><trkpt lat="43.52549411823899" lon="10.698894634926257"><ele>87.19999999999999</ele><time>2026-04-18T07:09:44Z</time></trkpt><trkpt lat="43.52546393635099" lon="10.699038113361341"><ele>86.6</ele><time>2026-04-18T07:09:45Z</time></trkpt><trkpt lat="43.525421205687" lon="10.699175633385847"><ele>86.0</ele><time>2026-04-18T07:09:46Z</time></trkpt><trkpt lat="43.525369641976" lon="10.699291473107971"><ele>81.8</ele><time>2026-04-18T07:09:47Z</time></trkpt><trkpt lat="43.5253168061856" lon="10.699401927618712"><ele>77.6</ele><time>2026-04-18T07:09:48Z</time></trkpt><trkpt lat="43.52528266150754" lon="10.69952162791938"><ele>73.4</ele><time>2026-04-18T07:09:49Z</time></trkpt><trkpt lat="43.52528331155187" lon="10.6996488937949"><ele>69.2</ele><time>2026-04-18T07:09:50Z</time></trkpt><trkpt lat="43.52531904882188" lon="10.699778401660035"><ele>65.0</ele><time>2026-04-18T07:09:51Z</time></trkpt><trkpt lat="43.525370075241305" lon="10.69992456599142"><ele>65.25</ele><time>2026-04-18T07:09:52Z</time></trkpt><trkpt lat="43.525421855858646" lon="10.700075980449796"><ele>65.5</ele><time>2026-04-18T07:09:53Z</time></trkpt><trkpt lat="43.525474119858444" lon="10.700230903223588"><ele>65.75</ele><time>2026-04-18T07:09:54Z</time></trkpt><trkpt lat="43.52552380676935" lon="10.700388646402107"><ele>66.0</ele><time>2026-04-18T07:09:55Z</time></trkpt><trkpt lat="43.525577972914576" lon="10.700544387697848"><ele>66.0</ele><time>2026-04-18T07:09:56Z</time></trkpt><trkpt lat="43.52562848578385" lon="10.700700232898194"><ele>66.0</ele><time>2026-04-18T07:09:56.999Z</time></trkpt><trkpt lat="43.525665783700774" lon="10.700837471451711"><ele>66.0</ele><time>2026-04-18T07:09:57.999Z</time></trkpt><trkpt lat="43.52569396341787" lon="10.700967031571157"><ele>66.0</ele><time>2026-04-18T07:09:58.999Z</time></trkpt><trkpt lat="43.52570840189064" lon="10.701086183550583"><ele>66.0</ele><time>2026-04-18T07:09:59.999Z</time></trkpt><trkpt lat="43.52571849582699" lon="10.701214959867556"><ele>64.8</ele><time>2026-04-18T07:10:00.999Z</time></trkpt><trkpt lat="43.52572132558132" lon="10.70134917899747"><ele>63.599999999999994</ele><time>2026-04-18T07:10:01.999Z</time></trkpt><trkpt lat="43.525727785394515" lon="10.701481420871552"><ele>62.4</ele><time>2026-04-18T07:10:02.999Z</time></trkpt><trkpt lat="43.525729383814486" lon="10.701612588188036"><ele>61.2</ele><time>2026-04-18T07:10:03.999Z</time></trkpt><trkpt lat="43.52573320386523" lon="10.701731986443109"><ele>60.0</ele><time>2026-04-18T07:10:04.999Z</time></trkpt><trkpt lat="43.52573676694415" lon="10.701836270117662"><ele>59.5</ele><time>2026-04-18T07:10:05.999Z</time></trkpt><trkpt lat="43.52574434059435" lon="10.701940542394613"><ele>59.0</ele><time>2026-04-18T07:10:06.999Z</time></trkpt><trkpt lat="43.52575818039815" lon="10.702040150084814"><ele>58.5</ele><time>2026-04-18T07:10:07.999Z</time></trkpt><trkpt lat="43.52578202043941" lon="10.702130911974848"><ele>58.0</ele><time>2026-04-18T07:10:08.999Z</time></trkpt><trkpt lat="43.52580747935639" lon="10.702217033439673"><ele>57.5</ele><time>2026-04-18T07:10:09.999Z</time></trkpt><trkpt lat="43.52585892710491" lon="10.702360125466992"><ele>57.0</ele><time>2026-04-18T07:10:11.999Z</time></trkpt><trkpt lat="43.52588310192655" lon="10.702441575031559"><ele>57.0</ele><time>2026-04-18T07:10:12.999Z</time></trkpt><trkpt lat="43.52591731842742" lon="10.702602637263285"><ele>57.0</ele><time>2026-04-18T07:10:14.999Z</time></trkpt><trkpt lat="43.52594329142839" lon="10.702712779866076"><ele>57.0</ele><time>2026-04-18T07:10:16.999Z</time></trkpt><trkpt lat="43.526009417508895" lon="10.702787883418518"><ele>57.0</ele><time>2026-04-18T07:10:19.999Z</time></trkpt><trkpt lat="43.526124116611435" lon="10.702677090052193"><ele>57.0</ele><time>2026-04-18T07:10:20.999Z</time></trkpt><trkpt lat="43.52622125510119" lon="10.702588950243573"><ele>56.75</ele><time>2026-04-18T07:10:21.999Z</time></trkpt><trkpt lat="43.52634215690682" lon="10.702491855383087"><ele>56.5</ele><time>2026-04-18T07:10:22.999Z</time></trkpt><trkpt lat="43.52647748827352" lon="10.70240536042559"><ele>56.25</ele><time>2026-04-18T07:10:23.999Z</time></trkpt><trkpt lat="43.526604206936064" lon="10.702347488302598"><ele>56.0</ele><time>2026-04-18T07:10:24.999Z</time></trkpt><trkpt lat="43.526727568762176" lon="10.702314490550943"><ele>56.0</ele><time>2026-04-18T07:10:25.999Z</time></trkpt><trkpt lat="43.526861035662044" lon="10.702301017239519"><ele>56.0</ele><time>2026-04-18T07:10:26.999Z</time></trkpt><trkpt lat="43.527010720358355" lon="10.702292785950714"><ele>56.0</ele><time>2026-04-18T07:10:27.999Z</time></trkpt><trkpt lat="43.52717265709205" lon="10.702289996817006"><ele>56.0</ele><time>2026-04-18T07:10:28.999Z</time></trkpt><trkpt lat="43.52732267199471" lon="10.702287924382466"><ele>56.0</ele><time>2026-04-18T07:10:29.999Z</time></trkpt><trkpt lat="43.52747169762379" lon="10.70228166711252"><ele>56.0</ele><time>2026-04-18T07:10:30.999Z</time></trkpt><trkpt lat="43.52761993919281" lon="10.702275104267596"><ele>56.0</ele><time>2026-04-18T07:10:31.999Z</time></trkpt><trkpt lat="43.52776489712834" lon="10.70227082630735"><ele>56.0</ele><time>2026-04-18T07:10:32.999Z</time></trkpt><trkpt lat="43.52791102185441" lon="10.702267273005692"><ele>56.5</ele><time>2026-04-18T07:10:33.999Z</time></trkpt><trkpt lat="43.52805531417402" lon="10.702259483446129"><ele>57.0</ele><time>2026-04-18T07:10:34.999Z</time></trkpt><trkpt lat="43.52820361258619" lon="10.702252964977333"><ele>57.5</ele><time>2026-04-18T07:10:35.999Z</time></trkpt><trkpt lat="43.52835215403825" lon="10.702246674248665"><ele>58.0</ele><time>2026-04-18T07:10:36.999Z</time></trkpt><trkpt lat="43.52850580637477" lon="10.702240492391041"><ele>58.0</ele><time>2026-04-18T07:10:37.999Z</time></trkpt><trkpt lat="43.52866274529788" lon="10.702233094770724"><ele>58.0</ele><time>2026-04-18T07:10:38.999Z</time></trkpt><trkpt lat="43.528822275637154" lon="10.702229439237243"><ele>58.0</ele><time>2026-04-18T07:10:39.999Z</time></trkpt><trkpt lat="43.52897361346441" lon="10.702225587794393"><ele>57.25</ele><time>2026-04-18T07:10:40.999Z</time></trkpt><trkpt lat="43.52911965949281" lon="10.702216648520011"><ele>56.5</ele><time>2026-04-18T07:10:41.999Z</time></trkpt><trkpt lat="43.52926460836256" lon="10.702206400275436"><ele>55.75</ele><time>2026-04-18T07:10:42.999Z</time></trkpt><trkpt lat="43.52941222197709" lon="10.702191000410119"><ele>55.0</ele><time>2026-04-18T07:10:43.999Z</time></trkpt><trkpt lat="43.5295581923976" lon="10.702172680235776"><ele>54.666666666666664</ele><time>2026-04-18T07:10:44.999Z</time></trkpt><trkpt lat="43.52970932253242" lon="10.702155428359024"><ele>54.33333333333333</ele><time>2026-04-18T07:10:45.999Z</time></trkpt><trkpt lat="43.52985921067914" lon="10.70213424894697"><ele>54.0</ele><time>2026-04-18T07:10:46.999Z</time></trkpt><trkpt lat="43.530015263634226" lon="10.70211204545279"><ele>54.0</ele><time>2026-04-18T07:10:47.999Z</time></trkpt><trkpt lat="43.530175673940306" lon="10.70208948117444"><ele>54.0</ele><time>2026-04-18T07:10:48.999Z</time></trkpt><trkpt lat="43.53034236865418" lon="10.70206748516552"><ele>54.0</ele><time>2026-04-18T07:10:49.999Z</time></trkpt><trkpt lat="43.53051591885053" lon="10.702043561960167"><ele>54.33333333333333</ele><time>2026-04-18T07:10:50.999Z</time></trkpt><trkpt lat="43.53069135857137" lon="10.702016392970785"><ele>54.666666666666664</ele><time>2026-04-18T07:10:51.999Z</time></trkpt><trkpt lat="43.530862263811684" lon="10.701992994719129"><ele>55.0</ele><time>2026-04-18T07:10:52.999Z</time></trkpt><trkpt lat="43.53103495245664" lon="10.701965227628422"><ele>55.0</ele><time>2026-04-18T07:10:53.999Z</time></trkpt><trkpt lat="43.53120791792962" lon="10.701937587511487"><ele>55.0</ele><time>2026-04-18T07:10:54.999Z</time></trkpt><trkpt lat="43.531378213411934" lon="10.701906548584393"><ele>55.0</ele><time>2026-04-18T07:10:55.999Z</time></trkpt><trkpt lat="43.531542031644925" lon="10.701869910929544"><ele>55.0</ele><time>2026-04-18T07:10:56.999Z</time></trkpt><trkpt lat="43.531708832246444" lon="10.701834312310611"><ele>55.0</ele><time>2026-04-18T07:10:57.999Z</time></trkpt><trkpt lat="43.53186709718539" lon="10.701804270163061"><ele>55.0</ele><time>2026-04-18T07:10:58.999Z</time></trkpt><trkpt lat="43.53202428936234" lon="10.701773571366514"><ele>55.0</ele><time>2026-04-18T07:10:59.999Z</time></trkpt><trkpt lat="43.532179255808785" lon="10.701743642293966"><ele>55.0</ele><time>2026-04-18T07:11:00.999Z</time></trkpt><trkpt lat="43.53232745596243" lon="10.701711329316812"><ele>55.0</ele><time>2026-04-18T07:11:01.999Z</time></trkpt><trkpt lat="43.53248408916808" lon="10.701677878361505"><ele>55.0</ele><time>2026-04-18T07:11:02.999Z</time></trkpt><trkpt lat="43.532643242065035" lon="10.701642453046096"><ele>55.0</ele><time>2026-04-18T07:11:03.999Z</time></trkpt><trkpt lat="43.53281216298798" lon="10.701611296373724"><ele>55.0</ele><time>2026-04-18T07:11:04.999Z</time></trkpt><trkpt lat="43.532981182290534" lon="10.701579151077013"><ele>55.33333333333333</ele><time>2026-04-18T07:11:05.999Z</time></trkpt><trkpt lat="43.53315709810966" lon="10.701541419917321"><ele>55.66666666666667</ele><time>2026-04-18T07:11:06.998Z</time></trkpt><trkpt lat="43.53333298802476" lon="10.701505845604638"><ele>56.0</ele><time>2026-04-18T07:11:07.998Z</time></trkpt><trkpt lat="43.53349996960964" lon="10.701469435715891"><ele>56.0</ele><time>2026-04-18T07:11:08.998Z</time></trkpt><trkpt lat="43.53366167458929" lon="10.70143498691386"><ele>56.0</ele><time>2026-04-18T07:11:09.998Z</time></trkpt><trkpt lat="43.53381933140112" lon="10.701405579512288"><ele>56.0</ele><time>2026-04-18T07:11:10.998Z</time></trkpt><trkpt lat="43.533976118986395" lon="10.701371260787965"><ele>56.66666666666667</ele><time>2026-04-18T07:11:11.998Z</time></trkpt><trkpt lat="43.53413203310979" lon="10.701338285182027"><ele>57.33333333333333</ele><time>2026-04-18T07:11:12.998Z</time></trkpt><trkpt lat="43.53428951639555" lon="10.701304589300571"><ele>58.0</ele><time>2026-04-18T07:11:14Z</time></trkpt><trkpt lat="43.53444220304765" lon="10.701273653792713"><ele>57.33333333333333</ele><time>2026-04-18T07:11:15Z</time></trkpt><trkpt lat="43.534594575993694" lon="10.701247399819778"><ele>56.66666666666667</ele><time>2026-04-18T07:11:16Z</time></trkpt><trkpt lat="43.53474943783052" lon="10.701213732676143"><ele>56.0</ele><time>2026-04-18T07:11:17Z</time></trkpt><trkpt lat="43.53489805010985" lon="10.701185463053049"><ele>56.0</ele><time>2026-04-18T07:11:18Z</time></trkpt><trkpt lat="43.53504978154304" lon="10.70115810429275"><ele>56.0</ele><time>2026-04-18T07:11:19Z</time></trkpt><trkpt lat="43.53519761420399" lon="10.701124337733107"><ele>56.0</ele><time>2026-04-18T07:11:20Z</time></trkpt><trkpt lat="43.53534427823133" lon="10.701093989503006"><ele>56.25</ele><time>2026-04-18T07:11:21Z</time></trkpt><trkpt lat="43.53549538136575" lon="10.701060921862897"><ele>56.5</ele><time>2026-04-18T07:11:22Z</time></trkpt><trkpt lat="43.535641041595525" lon="10.7010249233245"><ele>56.75</ele><time>2026-04-18T07:11:23Z</time></trkpt><trkpt lat="43.53577025959954" lon="10.701000914554372"><ele>57.0</ele><time>2026-04-18T07:11:24Z</time></trkpt><trkpt lat="43.53588707793354" lon="10.700978808268337"><ele>57.0</ele><time>2026-04-18T07:11:25Z</time></trkpt><trkpt lat="43.535991492160136" lon="10.700955685500231"><ele>57.0</ele><time>2026-04-18T07:11:26Z</time></trkpt><trkpt lat="43.53608600993751" lon="10.70093403121327"><ele>57.0</ele><time>2026-04-18T07:11:27Z</time></trkpt><trkpt lat="43.536171519627224" lon="10.700915249742993"><ele>57.0</ele><time>2026-04-18T07:11:28Z</time></trkpt><trkpt lat="43.536258236537535" lon="10.70089685583724"><ele>57.0</ele><time>2026-04-18T07:11:29Z</time></trkpt><trkpt lat="43.53634861113537" lon="10.700876012655927"><ele>56.5</ele><time>2026-04-18T07:11:30Z</time></trkpt><trkpt lat="43.53645419252339" lon="10.700850867442371"><ele>56.0</ele><time>2026-04-18T07:11:31Z</time></trkpt><trkpt lat="43.536561760839874" lon="10.700825414206552"><ele>55.5</ele><time>2026-04-18T07:11:32Z</time></trkpt><trkpt lat="43.53667942848672" lon="10.700801064061103"><ele>55.0</ele><time>2026-04-18T07:11:33Z</time></trkpt><trkpt lat="43.53679400211611" lon="10.70078029108272"><ele>54.99999999999999</ele><time>2026-04-18T07:11:34Z</time></trkpt><trkpt lat="43.53689624032142" lon="10.700761001079268"><ele>55.0</ele><time>2026-04-18T07:11:35Z</time></trkpt><trkpt lat="43.53698913759676" lon="10.70074132151844"><ele>55.0</ele><time>2026-04-18T07:11:36Z</time></trkpt><trkpt lat="43.53707675958044" lon="10.700722190754092"><ele>55.0</ele><time>2026-04-18T07:11:37Z</time></trkpt><trkpt lat="43.537150799194464" lon="10.700707639179916"><ele>54.99999999999999</ele><time>2026-04-18T07:11:38Z</time></trkpt><trkpt lat="43.537217647148594" lon="10.700691791272378"><ele>55.0</ele><time>2026-04-18T07:11:39Z</time></trkpt><trkpt lat="43.53733039454708" lon="10.700667011667983"><ele>55.166666666666664</ele><time>2026-04-18T07:11:41Z</time></trkpt><trkpt lat="43.537393493020645" lon="10.700753063197396"><ele>55.33333333333333</ele><time>2026-04-18T07:11:43Z</time></trkpt><trkpt lat="43.537388072388396" lon="10.700895107810004"><ele>55.5</ele><time>2026-04-18T07:11:44Z</time></trkpt><trkpt lat="43.5374116947023" lon="10.7010275159912"><ele>55.66666666666667</ele><time>2026-04-18T07:11:45Z</time></trkpt><trkpt lat="43.53742736984464" lon="10.701127182906728"><ele>55.833333333333336</ele><time>2026-04-18T07:11:46Z</time></trkpt><trkpt lat="43.53744541933418" lon="10.701225064136901"><ele>56.0</ele><time>2026-04-18T07:11:47Z</time></trkpt><trkpt lat="43.53746282646157" lon="10.70132641128992"><ele>56.0</ele><time>2026-04-18T07:11:48Z</time></trkpt><trkpt lat="43.53747644321372" lon="10.70141989830991"><ele>56.0</ele><time>2026-04-18T07:11:49Z</time></trkpt><trkpt lat="43.53748945527135" lon="10.701508873246063"><ele>56.0</ele><time>2026-04-18T07:11:50Z</time></trkpt><trkpt lat="43.53750345141967" lon="10.701611058610437"><ele>56.0</ele><time>2026-04-18T07:11:51Z</time></trkpt><trkpt lat="43.53751824837531" lon="10.70172369639732"><ele>56.0</ele><time>2026-04-18T07:11:52Z</time></trkpt><trkpt lat="43.53753064951857" lon="10.70183306784452"><ele>56.0</ele><time>2026-04-18T07:11:53Z</time></trkpt><trkpt lat="43.537542750160455" lon="10.701933906653661"><ele>56.0</ele><time>2026-04-18T07:11:54Z</time></trkpt><trkpt lat="43.53755461686457" lon="10.702022407863218"><ele>55.57142857142857</ele><time>2026-04-18T07:11:55Z</time></trkpt><trkpt lat="43.53756570337407" lon="10.702112606816883"><ele>55.14285714285714</ele><time>2026-04-18T07:11:56Z</time></trkpt><trkpt lat="43.53758450774896" lon="10.702212317940543"><ele>54.714285714285715</ele><time>2026-04-18T07:11:57Z</time></trkpt><trkpt lat="43.53760023458746" lon="10.702312319440033"><ele>54.285714285714285</ele><time>2026-04-18T07:11:58Z</time></trkpt><trkpt lat="43.53761212090034" lon="10.70241727122631"><ele>53.857142857142854</ele><time>2026-04-18T07:11:59Z</time></trkpt><trkpt lat="43.53763230919705" lon="10.702513426081692"><ele>53.42857142857143</ele><time>2026-04-18T07:11:59.999Z</time></trkpt><trkpt lat="43.5376664641614" lon="10.702586452882874"><ele>53.0</ele><time>2026-04-18T07:12:00.999Z</time></trkpt><trkpt lat="43.53771937827955" lon="10.702655339727501"><ele>53.00000000000001</ele><time>2026-04-18T07:12:01.999Z</time></trkpt><trkpt lat="43.53778286845444" lon="10.702707761272036"><ele>53.0</ele><time>2026-04-18T07:12:02.999Z</time></trkpt><trkpt lat="43.537852664425145" lon="10.702764769618911"><ele>53.0</ele><time>2026-04-18T07:12:03.999Z</time></trkpt><trkpt lat="43.537923551195846" lon="10.70282679885689"><ele>53.0</ele><time>2026-04-18T07:12:04.999Z</time></trkpt><trkpt lat="43.53800477881007" lon="10.702899537009005"><ele>53.00000000000001</ele><time>2026-04-18T07:12:05.999Z</time></trkpt><trkpt lat="43.538089700389015" lon="10.70297325084409"><ele>53.0</ele><time>2026-04-18T07:12:06.999Z</time></trkpt><trkpt lat="43.53816503856029" lon="10.703043226945672"><ele>52.833333333333336</ele><time>2026-04-18T07:12:07.999Z</time></trkpt><trkpt lat="43.53824111451664" lon="10.703112904710862"><ele>52.66666666666667</ele><time>2026-04-18T07:12:08.999Z</time></trkpt><trkpt lat="43.53831950700798" lon="10.70318366735407"><ele>52.5</ele><time>2026-04-18T07:12:09.999Z</time></trkpt><trkpt lat="43.53839603948083" lon="10.70325547360544"><ele>52.33333333333333</ele><time>2026-04-18T07:12:10.999Z</time></trkpt><trkpt lat="43.538467079527045" lon="10.703321779929452"><ele>52.166666666666664</ele><time>2026-04-18T07:12:11.999Z</time></trkpt><trkpt lat="43.53853278882162" lon="10.703390553384994"><ele>52.0</ele><time>2026-04-18T07:12:12.999Z</time></trkpt><trkpt lat="43.538585649392374" lon="10.703470352749896"><ele>51.99999999999999</ele><time>2026-04-18T07:12:13.999Z</time></trkpt><trkpt lat="43.53861485106663" lon="10.703563796034697"><ele>52.0</ele><time>2026-04-18T07:12:14.999Z</time></trkpt><trkpt lat="43.53863570225653" lon="10.703676006179478"><ele>52.0</ele><time>2026-04-18T07:12:15.999Z</time></trkpt><trkpt lat="43.538633505881336" lon="10.703817933610718"><ele>52.0</ele><time>2026-04-18T07:12:16.999Z</time></trkpt><trkpt lat="43.5386348893119" lon="10.703961174629674"><ele>51.99999999999999</ele><time>2026-04-18T07:12:17.999Z</time></trkpt><trkpt lat="43.53865515857614" lon="10.704070049869364"><ele>52.0</ele><time>2026-04-18T07:12:18.999Z</time></trkpt><trkpt lat="43.53870003534866" lon="10.70417372621805"><ele>51.666666666666664</ele><time>2026-04-18T07:12:19.999Z</time></trkpt><trkpt lat="43.538758997415464" lon="10.704269752713493"><ele>51.33333333333333</ele><time>2026-04-18T07:12:20.999Z</time></trkpt><trkpt lat="43.53882377636259" lon="10.70435051286694"><ele>51.0</ele><time>2026-04-18T07:12:21.999Z</time></trkpt><trkpt lat="43.53889336679285" lon="10.704430860343892"><ele>50.66666666666667</ele><time>2026-04-18T07:12:22.999Z</time></trkpt><trkpt lat="43.53895276138578" lon="10.704503104529012"><ele>50.333333333333336</ele><time>2026-04-18T07:12:23.999Z</time></trkpt><trkpt lat="43.53901048514675" lon="10.704582677955445"><ele>50.0</ele><time>2026-04-18T07:12:24.999Z</time></trkpt><trkpt lat="43.53905171367334" lon="10.704675199247072"><ele>50.00000000000001</ele><time>2026-04-18T07:12:25.999Z</time></trkpt><trkpt lat="43.53906823166034" lon="10.704777210554683"><ele>50.0</ele><time>2026-04-18T07:12:26.999Z</time></trkpt><trkpt lat="43.539069764385175" lon="10.704902581580438"><ele>50.0</ele><time>2026-04-18T07:12:27.999Z</time></trkpt><trkpt lat="43.53905897906197" lon="10.705022859395742"><ele>50.0</ele><time>2026-04-18T07:12:28.999Z</time></trkpt><trkpt lat="43.53904617038204" lon="10.70512138873454"><ele>50.00000000000001</ele><time>2026-04-18T07:12:29.999Z</time></trkpt><trkpt lat="43.539038898107435" lon="10.705266525596896"><ele>50.0</ele><time>2026-04-18T07:12:31.999Z</time></trkpt><trkpt lat="43.53902800699314" lon="10.705375308913139"><ele>50.0</ele><time>2026-04-18T07:12:34.999Z</time></trkpt><trkpt lat="43.53902395091311" lon="10.705465031183431"><ele>50.0</ele><time>2026-04-18T07:12:38.999Z</time></trkpt><trkpt lat="43.539053957961094" lon="10.70538605418591"><ele>50.0</ele><time>2026-04-18T07:15:05.999Z</time></trkpt><trkpt lat="43.53906235666948" lon="10.70525292617958"><ele>50.0</ele><time>2026-04-18T07:15:08.999Z</time></trkpt><trkpt lat="43.53908817744293" lon="10.704936390584127"><ele>50.0</ele><time>2026-04-18T07:15:17.999Z</time></trkpt><trkpt lat="43.53909313040554" lon="10.704833324698432"><ele>50.0</ele><time>2026-04-18T07:15:18.998Z</time></trkpt><trkpt lat="43.539091570248246" lon="10.704736760739952"><ele>50.0</ele><time>2026-04-18T07:15:19.998Z</time></trkpt><trkpt lat="43.53904586037032" lon="10.704592635184476"><ele>50.0</ele><time>2026-04-18T07:15:21.998Z</time></trkpt><trkpt lat="43.53899776062421" lon="10.704526460541938"><ele>50.0</ele><time>2026-04-18T07:15:22.998Z</time></trkpt><trkpt lat="43.53890595016165" lon="10.704400677311558"><ele>50.00000000000001</ele><time>2026-04-18T07:15:24.998Z</time></trkpt><trkpt lat="43.53884723443788" lon="10.704328307399425"><ele>50.0</ele><time>2026-04-18T07:15:26Z</time></trkpt><trkpt lat="43.538775328374314" lon="10.704263189591778"><ele>50.0</ele><time>2026-04-18T07:15:27Z</time></trkpt><trkpt lat="43.5387207041993" lon="10.704172703188657"><ele>50.0</ele><time>2026-04-18T07:15:28Z</time></trkpt><trkpt lat="43.53867597871711" lon="10.70408118466011"><ele>50.00000000000001</ele><time>2026-04-18T07:15:29Z</time></trkpt><trkpt lat="43.53864690944508" lon="10.703977403451736"><ele>50.0</ele><time>2026-04-18T07:15:30Z</time></trkpt><trkpt lat="43.53865779099071" lon="10.703855746389289"><ele>50.00000000000001</ele><time>2026-04-18T07:15:31Z</time></trkpt><trkpt lat="43.538646510237385" lon="10.703737065737501"><ele>50.0</ele><time>2026-04-18T07:15:32Z</time></trkpt><trkpt lat="43.53865189416051" lon="10.703642291298012"><ele>50.0</ele><time>2026-04-18T07:15:33Z</time></trkpt><trkpt lat="43.53863078466774" lon="10.70352082216278"><ele>50.0</ele><time>2026-04-18T07:15:34Z</time></trkpt><trkpt lat="43.538585254485284" lon="10.703422344330242"><ele>50.00000000000001</ele><time>2026-04-18T07:15:35Z</time></trkpt><trkpt lat="43.53851037078848" lon="10.703330075022796"><ele>50.0</ele><time>2026-04-18T07:15:36Z</time></trkpt><trkpt lat="43.5384250766043" lon="10.70324656172308"><ele>50.4</ele><time>2026-04-18T07:15:37Z</time></trkpt><trkpt lat="43.53832969482817" lon="10.703164819704343"><ele>50.8</ele><time>2026-04-18T07:15:38Z</time></trkpt><trkpt lat="43.53824123451991" lon="10.703089326962964"><ele>51.2</ele><time>2026-04-18T07:15:39Z</time></trkpt><trkpt lat="43.538173396540564" lon="10.703027087081304"><ele>51.6</ele><time>2026-04-18T07:15:40Z</time></trkpt><trkpt lat="43.53811503654241" lon="10.702971132065947"><ele>52.0</ele><time>2026-04-18T07:15:41Z</time></trkpt><trkpt lat="43.538017769353964" lon="10.70288120212453"><ele>51.99999999999999</ele><time>2026-04-18T07:15:43Z</time></trkpt><trkpt lat="43.537959787677885" lon="10.702827072300014"><ele>52.0</ele><time>2026-04-18T07:15:44Z</time></trkpt><trkpt lat="43.53789989961845" lon="10.702779848290914"><ele>52.0</ele><time>2026-04-18T07:15:45Z</time></trkpt><trkpt lat="43.53780705381181" lon="10.702682989007526"><ele>52.0</ele><time>2026-04-18T07:15:47Z</time></trkpt><trkpt lat="43.537739170082595" lon="10.702625809043228"><ele>51.99999999999999</ele><time>2026-04-18T07:15:48Z</time></trkpt><trkpt lat="43.537679839660036" lon="10.70258295172143"><ele>52.0</ele><time>2026-04-18T07:15:49Z</time></trkpt><trkpt lat="43.537640285534465" lon="10.702504113408496"><ele>52.2</ele><time>2026-04-18T07:15:50Z</time></trkpt><trkpt lat="43.5376398063012" lon="10.702390509098082"><ele>52.400000000000006</ele><time>2026-04-18T07:15:51Z</time></trkpt><trkpt lat="43.53760511365181" lon="10.702264222630356"><ele>52.599999999999994</ele><time>2026-04-18T07:15:52Z</time></trkpt><trkpt lat="43.53758488363598" lon="10.702097714150225"><ele>52.8</ele><time>2026-04-18T07:15:53Z</time></trkpt><trkpt lat="43.53756018612956" lon="10.701935857146823"><ele>53.0</ele><time>2026-04-18T07:15:54Z</time></trkpt><trkpt lat="43.537543904525435" lon="10.70180558108561"><ele>53.599999999999994</ele><time>2026-04-18T07:15:55Z</time></trkpt><trkpt lat="43.53752438604672" lon="10.701686413482074"><ele>54.199999999999996</ele><time>2026-04-18T07:15:56Z</time></trkpt><trkpt lat="43.53750591775994" lon="10.701570343673946"><ele>54.8</ele><time>2026-04-18T07:15:57Z</time></trkpt><trkpt lat="43.53748968170308" lon="10.701436397618268"><ele>55.4</ele><time>2026-04-18T07:15:58Z</time></trkpt><trkpt lat="43.5374690260321" lon="10.701296502794676"><ele>56.0</ele><time>2026-04-18T07:15:59Z</time></trkpt><trkpt lat="43.53745254381766" lon="10.70117783541611"><ele>56.16666666666667</ele><time>2026-04-18T07:16:00Z</time></trkpt><trkpt lat="43.53743968873568" lon="10.701069638224615"><ele>56.333333333333336</ele><time>2026-04-18T07:16:01Z</time></trkpt><trkpt lat="43.53742892861521" lon="10.700959680734247"><ele>56.5</ele><time>2026-04-18T07:16:02Z</time></trkpt><trkpt lat="43.53741793339157" lon="10.700851937359122"><ele>56.66666666666667</ele><time>2026-04-18T07:16:04Z</time></trkpt><trkpt lat="43.53739635045852" lon="10.700751053273784"><ele>56.833333333333336</ele><time>2026-04-18T07:16:07Z</time></trkpt><trkpt lat="43.53742238681058" lon="10.700648270362569"><ele>57.0</ele><time>2026-04-18T07:16:10Z</time></trkpt><trkpt lat="43.537492747649864" lon="10.700653477661776"><ele>57.0</ele><time>2026-04-18T07:16:11Z</time></trkpt><trkpt lat="43.53759466775439" lon="10.700624082139786"><ele>57.0</ele><time>2026-04-18T07:16:12Z</time></trkpt><trkpt lat="43.53771386205603" lon="10.700603357690657"><ele>57.0</ele><time>2026-04-18T07:16:13Z</time></trkpt><trkpt lat="43.53784935016344" lon="10.700581665671148"><ele>57.0</ele><time>2026-04-18T07:16:13.999Z</time></trkpt><trkpt lat="43.537978636585734" lon="10.700564144388638"><ele>57.0</ele><time>2026-04-18T07:16:14.999Z</time></trkpt><trkpt lat="43.5381108331045" lon="10.700551460379069"><ele>57.0</ele><time>2026-04-18T07:16:15.999Z</time></trkpt><trkpt lat="43.538246877466264" lon="10.70053668413677"><ele>57.0</ele><time>2026-04-18T07:16:16.999Z</time></trkpt><trkpt lat="43.538377093083945" lon="10.700511993445808"><ele>57.0</ele><time>2026-04-18T07:16:17.999Z</time></trkpt><trkpt lat="43.53851003613843" lon="10.700492947601134"><ele>57.0</ele><time>2026-04-18T07:16:18.999Z</time></trkpt><trkpt lat="43.53864768728406" lon="10.700475384080564"><ele>57.0</ele><time>2026-04-18T07:16:19.999Z</time></trkpt><trkpt lat="43.53877906160768" lon="10.70045701344228"><ele>57.0</ele><time>2026-04-18T07:16:20.999Z</time></trkpt><trkpt lat="43.53891803978003" lon="10.700438519887612"><ele>57.0</ele><time>2026-04-18T07:16:21.999Z</time></trkpt><trkpt lat="43.53904602931982" lon="10.700420038929488"><ele>57.0</ele><time>2026-04-18T07:16:22.999Z</time></trkpt><trkpt lat="43.53917563421405" lon="10.70040332995168"><ele>57.0</ele><time>2026-04-18T07:16:23.999Z</time></trkpt><trkpt lat="43.53930516646587" lon="10.700387155377975"><ele>57.0</ele><time>2026-04-18T07:16:24.999Z</time></trkpt><trkpt lat="43.539446815257364" lon="10.700369194475163"><ele>57.0</ele><time>2026-04-18T07:16:25.999Z</time></trkpt><trkpt lat="43.53959457099824" lon="10.700353624832859"><ele>57.0</ele><time>2026-04-18T07:16:26.999Z</time></trkpt><trkpt lat="43.53974359747906" lon="10.700336199806076"><ele>57.0</ele><time>2026-04-18T07:16:27.999Z</time></trkpt><trkpt lat="43.539897449204794" lon="10.700315818841846"><ele>57.0</ele><time>2026-04-18T07:16:28.999Z</time></trkpt><trkpt lat="43.540050796555235" lon="10.700297625888599"><ele>57.0</ele><time>2026-04-18T07:16:29.999Z</time></trkpt><trkpt lat="43.54020312210606" lon="10.700276259881369"><ele>57.0</ele><time>2026-04-18T07:16:30.999Z</time></trkpt><trkpt lat="43.54036449316536" lon="10.70025150539825"><ele>57.0</ele><time>2026-04-18T07:16:31.999Z</time></trkpt><trkpt lat="43.540506376250846" lon="10.700228489679715"><ele>57.25</ele><time>2026-04-18T07:16:32.999Z</time></trkpt><trkpt lat="43.540641431927746" lon="10.700207457043659"><ele>57.5</ele><time>2026-04-18T07:16:33.999Z</time></trkpt><trkpt lat="43.540771504208216" lon="10.700191860468022"><ele>57.75</ele><time>2026-04-18T07:16:34.999Z</time></trkpt><trkpt lat="43.54089553538385" lon="10.700176155259594"><ele>58.0</ele><time>2026-04-18T07:16:35.999Z</time></trkpt><trkpt lat="43.54100067990043" lon="10.70016268147076"><ele>57.99999999999999</ele><time>2026-04-18T07:16:36.999Z</time></trkpt><trkpt lat="43.54109663633689" lon="10.700149230480799"><ele>58.0</ele><time>2026-04-18T07:16:37.999Z</time></trkpt><trkpt lat="43.54118751288432" lon="10.700131353765753"><ele>58.0</ele><time>2026-04-18T07:16:38.999Z</time></trkpt><trkpt lat="43.5412682853304" lon="10.700114193368934"><ele>58.0</ele><time>2026-04-18T07:16:39.999Z</time></trkpt><trkpt lat="43.541339030672084" lon="10.700097915146497"><ele>57.99999999999999</ele><time>2026-04-18T07:16:40.999Z</time></trkpt><trkpt lat="43.54140453973533" lon="10.700102224338972"><ele>58.0</ele><time>2026-04-18T07:16:41.999Z</time></trkpt><trkpt lat="43.541478908455424" lon="10.70007165836144"><ele>57.666666666666664</ele><time>2026-04-18T07:16:42.999Z</time></trkpt><trkpt lat="43.541540104714315" lon="10.700094378295896"><ele>57.33333333333333</ele><time>2026-04-18T07:16:43.999Z</time></trkpt><trkpt lat="43.54161755385212" lon="10.700104372329507"><ele>57.0</ele><time>2026-04-18T07:16:44.999Z</time></trkpt><trkpt lat="43.541671224814195" lon="10.70019256666474"><ele>56.66666666666667</ele><time>2026-04-18T07:16:45.999Z</time></trkpt><trkpt lat="43.54172118538913" lon="10.700286280298865"><ele>56.333333333333336</ele><time>2026-04-18T07:16:46.999Z</time></trkpt><trkpt lat="43.54174482610995" lon="10.700386737342754"><ele>56.0</ele><time>2026-04-18T07:16:47.999Z</time></trkpt><trkpt lat="43.54176183996311" lon="10.700506575030468"><ele>56.0</ele><time>2026-04-18T07:16:48.999Z</time></trkpt><trkpt lat="43.54177590020961" lon="10.700641578945147"><ele>55.99999999999999</ele><time>2026-04-18T07:16:49.999Z</time></trkpt><trkpt lat="43.54179501472749" lon="10.70078621894596"><ele>55.99999999999999</ele><time>2026-04-18T07:16:50.999Z</time></trkpt><trkpt lat="43.5418137711455" lon="10.70093950037164"><ele>56.0</ele><time>2026-04-18T07:16:51.999Z</time></trkpt><trkpt lat="43.54183338243077" lon="10.701094477819622"><ele>56.0</ele><time>2026-04-18T07:16:52.999Z</time></trkpt><trkpt lat="43.541853644354255" lon="10.701251544339774"><ele>55.5</ele><time>2026-04-18T07:16:53.999Z</time></trkpt><trkpt lat="43.54187600526482" lon="10.701409342903416"><ele>55.0</ele><time>2026-04-18T07:16:54.999Z</time></trkpt><trkpt lat="43.54189678600058" lon="10.701571287774659"><ele>54.5</ele><time>2026-04-18T07:16:55.999Z</time></trkpt><trkpt lat="43.541918421642855" lon="10.701737614448787"><ele>54.0</ele><time>2026-04-18T07:16:56.999Z</time></trkpt><trkpt lat="43.54194144537351" lon="10.701906160974616"><ele>53.75</ele><time>2026-04-18T07:16:57.999Z</time></trkpt><trkpt lat="43.54196322110262" lon="10.702071804222651"><ele>53.5</ele><time>2026-04-18T07:16:58.999Z</time></trkpt><trkpt lat="43.541983320272344" lon="10.702229994145256"><ele>53.25</ele><time>2026-04-18T07:16:59.999Z</time></trkpt><trkpt lat="43.54200433902004" lon="10.70237314517212"><ele>53.0</ele><time>2026-04-18T07:17:00.999Z</time></trkpt><trkpt lat="43.54202573100182" lon="10.702527498161176"><ele>53.25</ele><time>2026-04-18T07:17:01.999Z</time></trkpt><trkpt lat="43.54205116015492" lon="10.702692067392475"><ele>53.5</ele><time>2026-04-18T07:17:02.999Z</time></trkpt><trkpt lat="43.54207369581918" lon="10.70287045209973"><ele>53.75</ele><time>2026-04-18T07:17:03.999Z</time></trkpt><trkpt lat="43.54210382696133" lon="10.7030660684338"><ele>54.0</ele><time>2026-04-18T07:17:04.999Z</time></trkpt><trkpt lat="43.54213322241627" lon="10.703281727695122"><ele>53.0</ele><time>2026-04-18T07:17:05.999Z</time></trkpt><trkpt lat="43.54216182218038" lon="10.70349551907865"><ele>52.0</ele><time>2026-04-18T07:17:06.999Z</time></trkpt><trkpt lat="43.54219078364053" lon="10.703719922075228"><ele>51.0</ele><time>2026-04-18T07:17:07.999Z</time></trkpt><trkpt lat="43.5422157330949" lon="10.703926205967813"><ele>51.0</ele><time>2026-04-18T07:17:08.999Z</time></trkpt><trkpt lat="43.54224179903178" lon="10.704118289150344"><ele>51.0</ele><time>2026-04-18T07:17:09.999Z</time></trkpt><trkpt lat="43.542268996554476" lon="10.704309200006822"><ele>51.0</ele><time>2026-04-18T07:17:10.999Z</time></trkpt><trkpt lat="43.542298645662996" lon="10.704495331943654"><ele>51.0</ele><time>2026-04-18T07:17:11.999Z</time></trkpt><trkpt lat="43.54232666320459" lon="10.704682003806107"><ele>50.75</ele><time>2026-04-18T07:17:12.999Z</time></trkpt><trkpt lat="43.54235245914935" lon="10.704861785297727"><ele>50.5</ele><time>2026-04-18T07:17:13.999Z</time></trkpt><trkpt lat="43.5423802604029" lon="10.705043547187316"><ele>50.25</ele><time>2026-04-18T07:17:14.999Z</time></trkpt><trkpt lat="43.542405430924426" lon="10.705228253565936"><ele>50.0</ele><time>2026-04-18T07:17:15.999Z</time></trkpt><trkpt lat="43.54242386294048" lon="10.70541573040606"><ele>50.0</ele><time>2026-04-18T07:17:16.999Z</time></trkpt><trkpt lat="43.542444626008205" lon="10.705604699024311"><ele>50.0</ele><time>2026-04-18T07:17:17.999Z</time></trkpt><trkpt lat="43.542468723552375" lon="10.705779957737333"><ele>50.0</ele><time>2026-04-18T07:17:18.999Z</time></trkpt><trkpt lat="43.542492867461604" lon="10.705961691705838"><ele>50.0</ele><time>2026-04-18T07:17:19.999Z</time></trkpt><trkpt lat="43.542514486055495" lon="10.706144730663514"><ele>50.25</ele><time>2026-04-18T07:17:20.999Z</time></trkpt><trkpt lat="43.542536693468335" lon="10.70633269745897"><ele>50.5</ele><time>2026-04-18T07:17:21.999Z</time></trkpt><trkpt lat="43.542563798958504" lon="10.706528336427132"><ele>50.75</ele><time>2026-04-18T07:17:22.999Z</time></trkpt><trkpt lat="43.542591971082274" lon="10.706724563323021"><ele>51.0</ele><time>2026-04-18T07:17:23.999Z</time></trkpt><trkpt lat="43.54262144970398" lon="10.706921006078584"><ele>50.33333333333333</ele><time>2026-04-18T07:17:24.998Z</time></trkpt><trkpt lat="43.54264931768083" lon="10.70711972277746"><ele>49.666666666666664</ele><time>2026-04-18T07:17:25.998Z</time></trkpt><trkpt lat="43.54267681777599" lon="10.70732325797527"><ele>49.0</ele><time>2026-04-18T07:17:26.998Z</time></trkpt><trkpt lat="43.54270276362124" lon="10.707533946007993"><ele>48.666666666666664</ele><time>2026-04-18T07:17:27.998Z</time></trkpt><trkpt lat="43.542729592976016" lon="10.707747862543787"><ele>48.33333333333333</ele><time>2026-04-18T07:17:28.998Z</time></trkpt><trkpt lat="43.542757709312006" lon="10.707951209365737"><ele>48.0</ele><time>2026-04-18T07:17:29.998Z</time></trkpt><trkpt lat="43.54278669391382" lon="10.708158599092037"><ele>48.0</ele><time>2026-04-18T07:17:30.998Z</time></trkpt><trkpt lat="43.54281568959382" lon="10.70836418683517"><ele>48.0</ele><time>2026-04-18T07:17:32Z</time></trkpt><trkpt lat="43.542838310325315" lon="10.708579355925272"><ele>48.0</ele><time>2026-04-18T07:17:33Z</time></trkpt><trkpt lat="43.542864849525266" lon="10.708797398182996"><ele>48.0</ele><time>2026-04-18T07:17:34Z</time></trkpt><trkpt lat="43.54289000558227" lon="10.709013008462916"><ele>48.0</ele><time>2026-04-18T07:17:35Z</time></trkpt><trkpt lat="43.54291496791689" lon="10.709221497226583"><ele>48.0</ele><time>2026-04-18T07:17:36Z</time></trkpt><trkpt lat="43.54294444142109" lon="10.709423706584237"><ele>48.0</ele><time>2026-04-18T07:17:37Z</time></trkpt><trkpt lat="43.54297310793817" lon="10.709626573769041"><ele>48.0</ele><time>2026-04-18T07:17:38Z</time></trkpt><trkpt lat="43.54300349218251" lon="10.709821155938089"><ele>48.0</ele><time>2026-04-18T07:17:39Z</time></trkpt><trkpt lat="43.54302973177613" lon="10.710040404651103"><ele>47.0</ele><time>2026-04-18T07:17:40Z</time></trkpt><trkpt lat="43.54305474158673" lon="10.710256416967674"><ele>46.0</ele><time>2026-04-18T07:17:41Z</time></trkpt><trkpt lat="43.5430954330586" lon="10.71047809991901"><ele>45.0</ele><time>2026-04-18T07:17:42Z</time></trkpt><trkpt lat="43.54312624451379" lon="10.710688502948214"><ele>45.0</ele><time>2026-04-18T07:17:43Z</time></trkpt><trkpt lat="43.54315703185891" lon="10.710887082885867"><ele>45.0</ele><time>2026-04-18T07:17:44Z</time></trkpt><trkpt lat="43.543188509436455" lon="10.711094401996325"><ele>45.0</ele><time>2026-04-18T07:17:45Z</time></trkpt><trkpt lat="43.54321368191507" lon="10.711302284753343"><ele>44.5</ele><time>2026-04-18T07:17:46Z</time></trkpt><trkpt lat="43.54324149288637" lon="10.711504139114085"><ele>44.0</ele><time>2026-04-18T07:17:47Z</time></trkpt><trkpt lat="43.54326748224547" lon="10.711703578069766"><ele>43.5</ele><time>2026-04-18T07:17:48Z</time></trkpt><trkpt lat="43.54329708684152" lon="10.711906626430864"><ele>43.0</ele><time>2026-04-18T07:17:49Z</time></trkpt><trkpt lat="43.543324987387926" lon="10.712110152610979"><ele>43.0</ele><time>2026-04-18T07:17:50Z</time></trkpt><trkpt lat="43.543352362992216" lon="10.712307634821563"><ele>43.0</ele><time>2026-04-18T07:17:51Z</time></trkpt><trkpt lat="43.543379951343645" lon="10.712497141383283"><ele>43.0</ele><time>2026-04-18T07:17:52Z</time></trkpt><trkpt lat="43.543405312090854" lon="10.71268745297381"><ele>43.0</ele><time>2026-04-18T07:17:53Z</time></trkpt><trkpt lat="43.5434335186634" lon="10.712879564037017"><ele>42.75</ele><time>2026-04-18T07:17:54Z</time></trkpt><trkpt lat="43.54346022803813" lon="10.713070431567324"><ele>42.5</ele><time>2026-04-18T07:17:55Z</time></trkpt><trkpt lat="43.543486732014514" lon="10.71323913674339"><ele>42.25</ele><time>2026-04-18T07:17:56Z</time></trkpt><trkpt lat="43.543509888358926" lon="10.713414364839675"><ele>42.0</ele><time>2026-04-18T07:17:57Z</time></trkpt><trkpt lat="43.543533150016266" lon="10.713594405842539"><ele>41.75</ele><time>2026-04-18T07:17:58Z</time></trkpt><trkpt lat="43.54355706987523" lon="10.71377402789324"><ele>41.5</ele><time>2026-04-18T07:17:59Z</time></trkpt><trkpt lat="43.54358124580421" lon="10.71395574112612"><ele>41.25</ele><time>2026-04-18T07:18:00Z</time></trkpt><trkpt lat="43.54360297204519" lon="10.714118858141438"><ele>41.0</ele><time>2026-04-18T07:18:01Z</time></trkpt><trkpt lat="43.54362368486466" lon="10.714279589631658"><ele>42.0</ele><time>2026-04-18T07:18:02Z</time></trkpt><trkpt lat="43.5436415551491" lon="10.71443009702333"><ele>43.0</ele><time>2026-04-18T07:18:03Z</time></trkpt><trkpt lat="43.54366001904169" lon="10.714565338912786"><ele>44.0</ele><time>2026-04-18T07:18:04Z</time></trkpt><trkpt lat="43.54368368150202" lon="10.71468768066528"><ele>45.0</ele><time>2026-04-18T07:18:05Z</time></trkpt><trkpt lat="43.5437107932897" lon="10.714802755847327"><ele>46.0</ele><time>2026-04-18T07:18:06Z</time></trkpt><trkpt lat="43.543735462664664" lon="10.714903092321547"><ele>46.0</ele><time>2026-04-18T07:18:07Z</time></trkpt><trkpt lat="43.543752960304516" lon="10.715001440030091"><ele>46.0</ele><time>2026-04-18T07:18:08Z</time></trkpt><trkpt lat="43.543753220883275" lon="10.715132060362258"><ele>46.0</ele><time>2026-04-18T07:18:10Z</time></trkpt><trkpt lat="43.543674930233" lon="10.715130553351912"><ele>46.0</ele><time>2026-04-18T07:18:12Z</time></trkpt><trkpt lat="43.54363207028983" lon="10.715000802475512"><ele>46.0</ele><time>2026-04-18T07:18:13Z</time></trkpt><trkpt lat="43.543627773123774" lon="10.714836203613137"><ele>46.0</ele><time>2026-04-18T07:18:14Z</time></trkpt><trkpt lat="43.543563088680735" lon="10.714695202996376"><ele>46.0</ele><time>2026-04-18T07:18:15Z</time></trkpt><trkpt lat="43.54351481456137" lon="10.714542834267501"><ele>46.0</ele><time>2026-04-18T07:18:15.999Z</time></trkpt><trkpt lat="43.543469831500914" lon="10.714398210653357"><ele>46.0</ele><time>2026-04-18T07:18:16.999Z</time></trkpt><trkpt lat="43.54342325364918" lon="10.714269622580403"><ele>45.0</ele><time>2026-04-18T07:18:17.999Z</time></trkpt><trkpt lat="43.54336413093165" lon="10.714170057451708"><ele>44.0</ele><time>2026-04-18T07:18:18.999Z</time></trkpt><trkpt lat="43.543292301843174" lon="10.714106603782286"><ele>43.0</ele><time>2026-04-18T07:18:19.999Z</time></trkpt><trkpt lat="43.54319579962125" lon="10.714060452451601"><ele>42.0</ele><time>2026-04-18T07:18:20.999Z</time></trkpt><trkpt lat="43.54307821044951" lon="10.714038843101715"><ele>41.0</ele><time>2026-04-18T07:18:21.999Z</time></trkpt><trkpt lat="43.542976701767905" lon="10.714021501292603"><ele>41.0</ele><time>2026-04-18T07:18:22.999Z</time></trkpt><trkpt lat="43.542849977934324" lon="10.714024893414988"><ele>41.0</ele><time>2026-04-18T07:18:23.999Z</time></trkpt><trkpt lat="43.54272407202472" lon="10.714030237943724"><ele>41.0</ele><time>2026-04-18T07:18:24.999Z</time></trkpt><trkpt lat="43.542587089300724" lon="10.71404376883625"><ele>41.0</ele><time>2026-04-18T07:18:25.999Z</time></trkpt><trkpt lat="43.54244363476512" lon="10.714050257980599"><ele>41.0</ele><time>2026-04-18T07:18:26.999Z</time></trkpt><trkpt lat="43.54230777396459" lon="10.714076810925057"><ele>41.0</ele><time>2026-04-18T07:18:27.999Z</time></trkpt><trkpt lat="43.54216174295756" lon="10.71409271868041"><ele>41.0</ele><time>2026-04-18T07:18:28.999Z</time></trkpt><trkpt lat="43.54201547010483" lon="10.714121536841938"><ele>41.0</ele><time>2026-04-18T07:18:29.999Z</time></trkpt><trkpt lat="43.54187868187517" lon="10.714146499325473"><ele>40.75</ele><time>2026-04-18T07:18:30.999Z</time></trkpt><trkpt lat="43.541744916366824" lon="10.714186008823932"><ele>40.5</ele><time>2026-04-18T07:18:31.999Z</time></trkpt><trkpt lat="43.54160712519598" lon="10.714243694160066"><ele>40.25</ele><time>2026-04-18T07:18:32.999Z</time></trkpt><trkpt lat="43.54146679722806" lon="10.714302697825373"><ele>40.0</ele><time>2026-04-18T07:18:33.999Z</time></trkpt><trkpt lat="43.54133059522134" lon="10.714358038026857"><ele>41.5</ele><time>2026-04-18T07:18:34.999Z</time></trkpt><trkpt lat="43.54120765922348" lon="10.714406151471094"><ele>43.0</ele><time>2026-04-18T07:18:35.999Z</time></trkpt><trkpt lat="43.54108789480163" lon="10.714455159595445"><ele>44.5</ele><time>2026-04-18T07:18:36.999Z</time></trkpt><trkpt lat="43.54096748116695" lon="10.7144855606378"><ele>46.0</ele><time>2026-04-18T07:18:37.999Z</time></trkpt><trkpt lat="43.54082879148598" lon="10.714501350273931"><ele>46.0</ele><time>2026-04-18T07:18:38.999Z</time></trkpt><trkpt lat="43.540676077884456" lon="10.71451007527587"><ele>46.0</ele><time>2026-04-18T07:18:39.999Z</time></trkpt><trkpt lat="43.54053644496306" lon="10.714531233993071"><ele>46.0</ele><time>2026-04-18T07:18:40.999Z</time></trkpt><trkpt lat="43.540411650070425" lon="10.714520743925522"><ele>46.0</ele><time>2026-04-18T07:18:41.999Z</time></trkpt><trkpt lat="43.54030426908886" lon="10.714522815438915"><ele>47.199999999999996</ele><time>2026-04-18T07:18:42.999Z</time></trkpt><trkpt lat="43.54020098335369" lon="10.71451236602388"><ele>48.4</ele><time>2026-04-18T07:18:43.999Z</time></trkpt><trkpt lat="43.54008788472731" lon="10.71449456881601"><ele>49.6</ele><time>2026-04-18T07:18:44.999Z</time></trkpt><trkpt lat="43.53997714309975" lon="10.71447456343952"><ele>50.8</ele><time>2026-04-18T07:18:45.999Z</time></trkpt><trkpt lat="43.539872900646365" lon="10.714448085541992"><ele>52.0</ele><time>2026-04-18T07:18:46.999Z</time></trkpt><trkpt lat="43.539773388454016" lon="10.714446562844323"><ele>51.99999999999999</ele><time>2026-04-18T07:18:47.999Z</time></trkpt><trkpt lat="43.53968867562958" lon="10.714431383187705"><ele>52.0</ele><time>2026-04-18T07:18:48.999Z</time></trkpt><trkpt lat="43.53961565937651" lon="10.714440986602217"><ele>52.0</ele><time>2026-04-18T07:18:49.999Z</time></trkpt><trkpt lat="43.53952345478585" lon="10.714483533261156"><ele>52.0</ele><time>2026-04-18T07:18:50.999Z</time></trkpt><trkpt lat="43.53946411170927" lon="10.714576143560322"><ele>51.99999999999999</ele><time>2026-04-18T07:18:51.999Z</time></trkpt><trkpt lat="43.53939700101397" lon="10.7146794611451"><ele>52.0</ele><time>2026-04-18T07:18:52.999Z</time></trkpt><trkpt lat="43.53931947344343" lon="10.714784790760334"><ele>51.8</ele><time>2026-04-18T07:18:53.999Z</time></trkpt><trkpt lat="43.539273079938376" lon="10.714884613781404"><ele>51.6</ele><time>2026-04-18T07:18:54.999Z</time></trkpt><trkpt lat="43.53917756509506" lon="10.714949512366152"><ele>51.4</ele><time>2026-04-18T07:18:56.999Z</time></trkpt><trkpt lat="43.53909783185819" lon="10.714811006536172"><ele>51.199999999999996</ele><time>2026-04-18T07:18:58.999Z</time></trkpt><trkpt lat="43.539071855422435" lon="10.714660137522309"><ele>51.0</ele><time>2026-04-18T07:18:59.999Z</time></trkpt><trkpt lat="43.53904218067791" lon="10.714523023708344"><ele>49.0</ele><time>2026-04-18T07:19:00.999Z</time></trkpt><trkpt lat="43.53897831496472" lon="10.714371376926756"><ele>47.0</ele><time>2026-04-18T07:19:01.999Z</time></trkpt><trkpt lat="43.53888667342031" lon="10.714247064389774"><ele>45.0</ele><time>2026-04-18T07:19:02.999Z</time></trkpt><trkpt lat="43.53878351069193" lon="10.714163328517078"><ele>43.0</ele><time>2026-04-18T07:19:03.999Z</time></trkpt><trkpt lat="43.53869060120893" lon="10.714087660563754"><ele>43.0</ele><time>2026-04-18T07:19:04.999Z</time></trkpt><trkpt lat="43.5386211341141" lon="10.714017532281668"><ele>43.0</ele><time>2026-04-18T07:19:05.999Z</time></trkpt><trkpt lat="43.53854227141059" lon="10.713908912929698"><ele>43.0</ele><time>2026-04-18T07:19:06.999Z</time></trkpt><trkpt lat="43.53847353238868" lon="10.713824941585822"><ele>43.0</ele><time>2026-04-18T07:19:07.999Z</time></trkpt><trkpt lat="43.5384075870175" lon="10.713742639423701"><ele>43.0</ele><time>2026-04-18T07:19:08.999Z</time></trkpt><trkpt lat="43.538349002765166" lon="10.71366482661117"><ele>42.75</ele><time>2026-04-18T07:19:09.999Z</time></trkpt><trkpt lat="43.53825251604833" lon="10.713533673396007"><ele>42.5</ele><time>2026-04-18T07:19:11.999Z</time></trkpt><trkpt lat="43.53829710066394" lon="10.713341051486092"><ele>42.25</ele><time>2026-04-18T07:19:13.999Z</time></trkpt><trkpt lat="43.53831235860732" lon="10.713197484521718"><ele>42.0</ele><time>2026-04-18T07:19:15.999Z</time></trkpt><trkpt lat="43.538270971579955" lon="10.713099961215152"><ele>42.0</ele><time>2026-04-18T07:19:17.999Z</time></trkpt><trkpt lat="43.53819865332412" lon="10.71310446885549"><ele>42.0</ele><time>2026-04-18T07:19:18.999Z</time></trkpt><trkpt lat="43.538121824738965" lon="10.7130604924374"><ele>42.0</ele><time>2026-04-18T07:19:19.999Z</time></trkpt><trkpt lat="43.53796634976088" lon="10.712897434976151"><ele>42.0</ele><time>2026-04-18T07:19:21.999Z</time></trkpt><trkpt lat="43.53784459708147" lon="10.712733354670096"><ele>42.0</ele><time>2026-04-18T07:19:22.999Z</time></trkpt><trkpt lat="43.53773913812995" lon="10.712607202314308"><ele>42.0</ele><time>2026-04-18T07:19:23.999Z</time></trkpt><trkpt lat="43.53762905373471" lon="10.712501012120056"><ele>42.0</ele><time>2026-04-18T07:19:24.999Z</time></trkpt><trkpt lat="43.5375245658891" lon="10.712377205452585"><ele>42.0</ele><time>2026-04-18T07:19:25.999Z</time></trkpt><trkpt lat="43.53739823907547" lon="10.712259848315977"><ele>42.0</ele><time>2026-04-18T07:19:26.998Z</time></trkpt><trkpt lat="43.5372667295829" lon="10.71214026987766"><ele>42.0</ele><time>2026-04-18T07:19:27.998Z</time></trkpt><trkpt lat="43.53715372485466" lon="10.71204174979956"><ele>42.0</ele><time>2026-04-18T07:19:28.998Z</time></trkpt><trkpt lat="43.53703032673424" lon="10.711952896711095"><ele>42.0</ele><time>2026-04-18T07:19:29.998Z</time></trkpt><trkpt lat="43.536925873633834" lon="10.711861991137862"><ele>42.0</ele><time>2026-04-18T07:19:30.998Z</time></trkpt><trkpt lat="43.536810562796475" lon="10.711811603836587"><ele>42.0</ele><time>2026-04-18T07:19:31.998Z</time></trkpt><trkpt lat="43.53667829811114" lon="10.711777872742996"><ele>42.0</ele><time>2026-04-18T07:19:32.998Z</time></trkpt><trkpt lat="43.53653444704034" lon="10.711749910209445"><ele>42.0</ele><time>2026-04-18T07:19:33.998Z</time></trkpt><trkpt lat="43.53640784239775" lon="10.711726735137832"><ele>42.0</ele><time>2026-04-18T07:19:34.998Z</time></trkpt><trkpt lat="43.53627716585595" lon="10.711709716282549"><ele>42.0</ele><time>2026-04-18T07:19:35.998Z</time></trkpt><trkpt lat="43.53615421711984" lon="10.711714319091278"><ele>42.0</ele><time>2026-04-18T07:19:36.998Z</time></trkpt><trkpt lat="43.536045030885624" lon="10.711707201251768"><ele>42.0</ele><time>2026-04-18T07:19:38Z</time></trkpt><trkpt lat="43.53592967945605" lon="10.711685615386251"><ele>41.75</ele><time>2026-04-18T07:19:39Z</time></trkpt><trkpt lat="43.535794401435666" lon="10.711670305893348"><ele>41.5</ele><time>2026-04-18T07:19:40Z</time></trkpt><trkpt lat="43.53568671491041" lon="10.711631439246261"><ele>41.25</ele><time>2026-04-18T07:19:41Z</time></trkpt><trkpt lat="43.53557872775746" lon="10.711585968890866"><ele>41.0</ele><time>2026-04-18T07:19:42Z</time></trkpt><trkpt lat="43.535483307982346" lon="10.71151829757173"><ele>41.25</ele><time>2026-04-18T07:19:43Z</time></trkpt><trkpt lat="43.535358099384965" lon="10.711456818232595"><ele>41.5</ele><time>2026-04-18T07:19:44Z</time></trkpt><trkpt lat="43.53523077166536" lon="10.71140012841755"><ele>41.75</ele><time>2026-04-18T07:19:45Z</time></trkpt><trkpt lat="43.53511782051157" lon="10.71134440160239"><ele>42.0</ele><time>2026-04-18T07:19:46Z</time></trkpt><trkpt lat="43.53501568999033" lon="10.711293217498058"><ele>42.0</ele><time>2026-04-18T07:19:47Z</time></trkpt><trkpt lat="43.53490878299521" lon="10.711239133966235"><ele>42.0</ele><time>2026-04-18T07:19:48Z</time></trkpt><trkpt lat="43.534808287842395" lon="10.711181227722784"><ele>42.0</ele><time>2026-04-18T07:19:49Z</time></trkpt><trkpt lat="43.53470867633173" lon="10.711131005174687"><ele>42.0</ele><time>2026-04-18T07:19:50Z</time></trkpt><trkpt lat="43.53462585129636" lon="10.711083188654023"><ele>42.0</ele><time>2026-04-18T07:19:51Z</time></trkpt><trkpt lat="43.5345357636719" lon="10.711028411320934"><ele>42.0</ele><time>2026-04-18T07:19:52Z</time></trkpt><trkpt lat="43.53443739601579" lon="10.710972467793637"><ele>42.0</ele><time>2026-04-18T07:19:53Z</time></trkpt><trkpt lat="43.53436283480788" lon="10.71090940494485"><ele>42.0</ele><time>2026-04-18T07:19:54Z</time></trkpt><trkpt lat="43.53429738235793" lon="10.710870595438882"><ele>42.0</ele><time>2026-04-18T07:19:55Z</time></trkpt><trkpt lat="43.53420821026427" lon="10.71096035881903"><ele>42.0</ele><time>2026-04-18T07:19:57Z</time></trkpt><trkpt lat="43.534183039847285" lon="10.711066341501276"><ele>41.75</ele><time>2026-04-18T07:19:58Z</time></trkpt><trkpt lat="43.53415802418418" lon="10.711222435748844"><ele>41.5</ele><time>2026-04-18T07:19:59Z</time></trkpt><trkpt lat="43.53411540988908" lon="10.711402869068337"><ele>41.25</ele><time>2026-04-18T07:20:00Z</time></trkpt><trkpt lat="43.534067651690826" lon="10.71154981433723"><ele>41.0</ele><time>2026-04-18T07:20:01Z</time></trkpt><trkpt lat="43.53403071318634" lon="10.711666482265446"><ele>41.0</ele><time>2026-04-18T07:20:02Z</time></trkpt><trkpt lat="43.533985173696365" lon="10.71175891217324"><ele>41.0</ele><time>2026-04-18T07:20:03Z</time></trkpt><trkpt lat="43.53390133508666" lon="10.711816657121313"><ele>41.0</ele><time>2026-04-18T07:20:04Z</time></trkpt><trkpt lat="43.53378666733606" lon="10.711809473465655"><ele>41.0</ele><time>2026-04-18T07:20:05Z</time></trkpt><trkpt lat="43.53364642729775" lon="10.711830472322733"><ele>41.0</ele><time>2026-04-18T07:20:06Z</time></trkpt><trkpt lat="43.53351244933315" lon="10.711884572705191"><ele>42.0</ele><time>2026-04-18T07:20:07Z</time></trkpt><trkpt lat="43.53337024089242" lon="10.711933984659794"><ele>43.0</ele><time>2026-04-18T07:20:08Z</time></trkpt><trkpt lat="43.5332203986197" lon="10.711990484149684"><ele>44.0</ele><time>2026-04-18T07:20:09Z</time></trkpt><trkpt lat="43.53308315871147" lon="10.712055712711756"><ele>45.0</ele><time>2026-04-18T07:20:10Z</time></trkpt><trkpt lat="43.532953893835575" lon="10.712113773183876"><ele>44.666666666666664</ele><time>2026-04-18T07:20:11Z</time></trkpt><trkpt lat="43.53280633726227" lon="10.71216596058742"><ele>44.33333333333333</ele><time>2026-04-18T07:20:12Z</time></trkpt><trkpt lat="43.53264745664944" lon="10.712223779774673"><ele>44.0</ele><time>2026-04-18T07:20:13Z</time></trkpt><trkpt lat="43.532486401806814" lon="10.712289191867166"><ele>44.0</ele><time>2026-04-18T07:20:14Z</time></trkpt><trkpt lat="43.53232891551108" lon="10.71234831316356"><ele>44.0</ele><time>2026-04-18T07:20:15Z</time></trkpt><trkpt lat="43.53218074406196" lon="10.712411229361415"><ele>44.0</ele><time>2026-04-18T07:20:16Z</time></trkpt><trkpt lat="43.53203354836241" lon="10.712474135214713"><ele>43.33333333333333</ele><time>2026-04-18T07:20:17Z</time></trkpt><trkpt lat="43.53188251616116" lon="10.71253450114259"><ele>42.666666666666664</ele><time>2026-04-18T07:20:18Z</time></trkpt><trkpt lat="43.53172818701555" lon="10.712593702450473"><ele>42.0</ele><time>2026-04-18T07:20:19Z</time></trkpt><trkpt lat="43.53157317077319" lon="10.712657075106804"><ele>42.0</ele><time>2026-04-18T07:20:20Z</time></trkpt><trkpt lat="43.53142954391411" lon="10.71272312525768"><ele>42.0</ele><time>2026-04-18T07:20:21Z</time></trkpt><trkpt lat="43.53129631758884" lon="10.712776370300007"><ele>42.0</ele><time>2026-04-18T07:20:22Z</time></trkpt><trkpt lat="43.53116107631372" lon="10.712828179887499"><ele>42.0</ele><time>2026-04-18T07:20:23Z</time></trkpt><trkpt lat="43.53102850528033" lon="10.712883308666186"><ele>42.25</ele><time>2026-04-18T07:20:24Z</time></trkpt><trkpt lat="43.53089264349152" lon="10.712940242985288"><ele>42.5</ele><time>2026-04-18T07:20:25Z</time></trkpt><trkpt lat="43.53074996103045" lon="10.713006927820528"><ele>42.75</ele><time>2026-04-18T07:20:26Z</time></trkpt><trkpt lat="43.530604009596054" lon="10.713071566958268"><ele>43.0</ele><time>2026-04-18T07:20:26.999Z</time></trkpt><trkpt lat="43.530453272328394" lon="10.713137021859966"><ele>43.333333333333336</ele><time>2026-04-18T07:20:27.999Z</time></trkpt><trkpt lat="43.53030148784495" lon="10.713196417231703"><ele>43.666666666666664</ele><time>2026-04-18T07:20:28.999Z</time></trkpt><trkpt lat="43.530149259827496" lon="10.713247458366824"><ele>44.0</ele><time>2026-04-18T07:20:29.999Z</time></trkpt><trkpt lat="43.530001110730964" lon="10.713304027596719"><ele>44.0</ele><time>2026-04-18T07:20:30.999Z</time></trkpt><trkpt lat="43.52984949032601" lon="10.713363259034173"><ele>44.0</ele><time>2026-04-18T07:20:31.999Z</time></trkpt><trkpt lat="43.52969459846096" lon="10.713426923989422"><ele>44.0</ele><time>2026-04-18T07:20:32.999Z</time></trkpt><trkpt lat="43.52953311564854" lon="10.713490364162764"><ele>44.33333333333333</ele><time>2026-04-18T07:20:33.999Z</time></trkpt><trkpt lat="43.52936911357436" lon="10.713554838978"><ele>44.666666666666664</ele><time>2026-04-18T07:20:34.999Z</time></trkpt><trkpt lat="43.529214305817284" lon="10.713614022843457"><ele>45.0</ele><time>2026-04-18T07:20:35.999Z</time></trkpt><trkpt lat="43.52907420609733" lon="10.713667496663996"><ele>45.0</ele><time>2026-04-18T07:20:36.999Z</time></trkpt><trkpt lat="43.528950336021545" lon="10.713715605316617"><ele>45.0</ele><time>2026-04-18T07:20:37.999Z</time></trkpt><trkpt lat="43.52881052023741" lon="10.713770199190812"><ele>45.0</ele><time>2026-04-18T07:20:38.999Z</time></trkpt><trkpt lat="43.528671765562045" lon="10.713832718385932"><ele>45.0</ele><time>2026-04-18T07:20:39.999Z</time></trkpt><trkpt lat="43.52852756704889" lon="10.713893719867801"><ele>45.0</ele><time>2026-04-18T07:20:40.999Z</time></trkpt><trkpt lat="43.52838648329634" lon="10.713949062386106"><ele>45.0</ele><time>2026-04-18T07:20:41.999Z</time></trkpt><trkpt lat="43.52823453660643" lon="10.714005945109792"><ele>45.0</ele><time>2026-04-18T07:20:42.999Z</time></trkpt><trkpt lat="43.52807658327491" lon="10.71406985727661"><ele>45.0</ele><time>2026-04-18T07:20:43.999Z</time></trkpt><trkpt lat="43.527916429850016" lon="10.71413160827593"><ele>45.0</ele><time>2026-04-18T07:20:44.999Z</time></trkpt><trkpt lat="43.52775866366218" lon="10.714198091331452"><ele>45.0</ele><time>2026-04-18T07:20:45.999Z</time></trkpt><trkpt lat="43.52759304743255" lon="10.714266067869575"><ele>45.0</ele><time>2026-04-18T07:20:46.999Z</time></trkpt><trkpt lat="43.52741716095574" lon="10.714336103947172"><ele>45.0</ele><time>2026-04-18T07:20:47.999Z</time></trkpt><trkpt lat="43.52724656421341" lon="10.714405286813564"><ele>45.0</ele><time>2026-04-18T07:20:48.999Z</time></trkpt><trkpt lat="43.52708102553744" lon="10.714473446186396"><ele>47.33333333333333</ele><time>2026-04-18T07:20:49.999Z</time></trkpt><trkpt lat="43.52692583762684" lon="10.714532679029077"><ele>49.666666666666664</ele><time>2026-04-18T07:20:50.999Z</time></trkpt><trkpt lat="43.52677967113513" lon="10.71459320030803"><ele>52.0</ele><time>2026-04-18T07:20:51.999Z</time></trkpt><trkpt lat="43.526638215941794" lon="10.714653938846412"><ele>52.0</ele><time>2026-04-18T07:20:52.999Z</time></trkpt><trkpt lat="43.52649210863235" lon="10.714714002315882"><ele>52.0</ele><time>2026-04-18T07:20:53.999Z</time></trkpt><trkpt lat="43.52634072288491" lon="10.714778074773877"><ele>52.0</ele><time>2026-04-18T07:20:54.999Z</time></trkpt><trkpt lat="43.5261837871953" lon="10.714848298954674"><ele>50.0</ele><time>2026-04-18T07:20:55.999Z</time></trkpt><trkpt lat="43.526024259145956" lon="10.714910136896767"><ele>48.0</ele><time>2026-04-18T07:20:56.999Z</time></trkpt><trkpt lat="43.525870305788885" lon="10.714971733937228"><ele>46.0</ele><time>2026-04-18T07:20:57.999Z</time></trkpt><trkpt lat="43.52571693349718" lon="10.715030979167256"><ele>46.0</ele><time>2026-04-18T07:20:58.999Z</time></trkpt><trkpt lat="43.52556503161476" lon="10.715087729862717"><ele>46.0</ele><time>2026-04-18T07:20:59.999Z</time></trkpt><trkpt lat="43.525417789469714" lon="10.715141875551472"><ele>46.0</ele><time>2026-04-18T07:21:00.999Z</time></trkpt><trkpt lat="43.52527261256977" lon="10.715202673254106"><ele>46.5</ele><time>2026-04-18T07:21:01.999Z</time></trkpt><trkpt lat="43.52513680144138" lon="10.71525977949343"><ele>47.0</ele><time>2026-04-18T07:21:02.999Z</time></trkpt><trkpt lat="43.52501283120116" lon="10.715318785367183"><ele>47.5</ele><time>2026-04-18T07:21:03.999Z</time></trkpt><trkpt lat="43.52491020041118" lon="10.715369175387801"><ele>48.0</ele><time>2026-04-18T07:21:04.999Z</time></trkpt><trkpt lat="43.52482632500126" lon="10.71539080152625"><ele>48.0</ele><time>2026-04-18T07:21:05.999Z</time></trkpt><trkpt lat="43.52474018411261" lon="10.715404233999283"><ele>48.0</ele><time>2026-04-18T07:21:06.999Z</time></trkpt><trkpt lat="43.524661121411896" lon="10.715470469453729"><ele>48.0</ele><time>2026-04-18T07:21:07.999Z</time></trkpt><trkpt lat="43.52461291236686" lon="10.71558666327712"><ele>48.0</ele><time>2026-04-18T07:21:08.999Z</time></trkpt><trkpt lat="43.52458490211202" lon="10.71574952690778"><ele>48.0</ele><time>2026-04-18T07:21:09.999Z</time></trkpt><trkpt lat="43.524572892819194" lon="10.715930770590939"><ele>47.0</ele><time>2026-04-18T07:21:10.999Z</time></trkpt><trkpt lat="43.52456488524687" lon="10.716098731227795"><ele>46.0</ele><time>2026-04-18T07:21:11.999Z</time></trkpt><trkpt lat="43.52456778722186" lon="10.716267677839278"><ele>45.0</ele><time>2026-04-18T07:21:12.999Z</time></trkpt><trkpt lat="43.52456837052096" lon="10.716448403920605"><ele>44.0</ele><time>2026-04-18T07:21:13.999Z</time></trkpt><trkpt lat="43.52454676650019" lon="10.71664610885396"><ele>44.0</ele><time>2026-04-18T07:21:14.999Z</time></trkpt><trkpt lat="43.52451091810673" lon="10.716821649595204"><ele>44.0</ele><time>2026-04-18T07:21:15.999Z</time></trkpt><trkpt lat="43.5244532202266" lon="10.717007495776638"><ele>44.0</ele><time>2026-04-18T07:21:16.999Z</time></trkpt><trkpt lat="43.52437897039856" lon="10.717205267114362"><ele>44.0</ele><time>2026-04-18T07:21:17.999Z</time></trkpt><trkpt lat="43.52431219429825" lon="10.717378384275726"><ele>44.0</ele><time>2026-04-18T07:21:18.999Z</time></trkpt><trkpt lat="43.52424848813008" lon="10.717549409867965"><ele>44.0</ele><time>2026-04-18T07:21:19.999Z</time></trkpt><trkpt lat="43.5241948135243" lon="10.717723302020621"><ele>44.0</ele><time>2026-04-18T07:21:20.999Z</time></trkpt><trkpt lat="43.52414628199512" lon="10.717902837774282"><ele>44.0</ele><time>2026-04-18T07:21:21.999Z</time></trkpt><trkpt lat="43.524108303542036" lon="10.718067110133054"><ele>44.75</ele><time>2026-04-18T07:21:22.999Z</time></trkpt><trkpt lat="43.5240684144795" lon="10.718257000866583"><ele>45.5</ele><time>2026-04-18T07:21:23.999Z</time></trkpt><trkpt lat="43.52402892038281" lon="10.718433340871268"><ele>46.25</ele><time>2026-04-18T07:21:24.999Z</time></trkpt><trkpt lat="43.5239829233013" lon="10.718611058926022"><ele>47.0</ele><time>2026-04-18T07:21:25.999Z</time></trkpt><trkpt lat="43.52392867326483" lon="10.71880614498702"><ele>47.25</ele><time>2026-04-18T07:21:26.999Z</time></trkpt><trkpt lat="43.52387621081391" lon="10.718972080074135"><ele>47.5</ele><time>2026-04-18T07:21:27.999Z</time></trkpt><trkpt lat="43.523819132545846" lon="10.719143344516963"><ele>47.75</ele><time>2026-04-18T07:21:28.999Z</time></trkpt><trkpt lat="43.523768361688596" lon="10.719311169417061"><ele>48.0</ele><time>2026-04-18T07:21:29.999Z</time></trkpt><trkpt lat="43.52372728997303" lon="10.719488286943458"><ele>47.25</ele><time>2026-04-18T07:21:30.999Z</time></trkpt><trkpt lat="43.52368844730454" lon="10.719666334552436"><ele>46.5</ele><time>2026-04-18T07:21:31.999Z</time></trkpt><trkpt lat="43.52363845021999" lon="10.719823977606778"><ele>45.75</ele><time>2026-04-18T07:21:32.999Z</time></trkpt><trkpt lat="43.52358579512806" lon="10.719959614883665"><ele>45.0</ele><time>2026-04-18T07:21:33.999Z</time></trkpt><trkpt lat="43.52354097268709" lon="10.720076720723553"><ele>45.0</ele><time>2026-04-18T07:21:34.999Z</time></trkpt><trkpt lat="43.52347828276673" lon="10.72020606938646"><ele>45.0</ele><time>2026-04-18T07:21:35.999Z</time></trkpt><trkpt lat="43.52340883492992" lon="10.720346829860565"><ele>45.0</ele><time>2026-04-18T07:21:36.999Z</time></trkpt><trkpt lat="43.52334876646924" lon="10.720532281183724"><ele>45.0</ele><time>2026-04-18T07:21:37.999Z</time></trkpt><trkpt lat="43.5233060548851" lon="10.720713748064313"><ele>45.25</ele><time>2026-04-18T07:21:38.999Z</time></trkpt><trkpt lat="43.5232814908157" lon="10.720898789456822"><ele>45.5</ele><time>2026-04-18T07:21:39.999Z</time></trkpt><trkpt lat="43.52325073525983" lon="10.72107295234307"><ele>45.75</ele><time>2026-04-18T07:21:40.998Z</time></trkpt><trkpt lat="43.52320706183262" lon="10.721237752976759"><ele>46.0</ele><time>2026-04-18T07:21:41.998Z</time></trkpt><trkpt lat="43.523158474346495" lon="10.721402582536012"><ele>46.0</ele><time>2026-04-18T07:21:42.998Z</time></trkpt><trkpt lat="43.52309582631694" lon="10.72155739255337"><ele>46.0</ele><time>2026-04-18T07:21:44Z</time></trkpt><trkpt lat="43.52301784747215" lon="10.721711047287917"><ele>46.0</ele><time>2026-04-18T07:21:45Z</time></trkpt><trkpt lat="43.52293353487803" lon="10.721864701920333"><ele>46.0</ele><time>2026-04-18T07:21:46Z</time></trkpt><trkpt lat="43.52285943605127" lon="10.721997167517372"><ele>47.0</ele><time>2026-04-18T07:21:47Z</time></trkpt><trkpt lat="43.52277655674422" lon="10.722136740216731"><ele>48.0</ele><time>2026-04-18T07:21:48Z</time></trkpt><trkpt lat="43.522691371361276" lon="10.722276692466618"><ele>49.0</ele><time>2026-04-18T07:21:49Z</time></trkpt><trkpt lat="43.52260031362614" lon="10.72239882770512"><ele>50.0</ele><time>2026-04-18T07:21:50Z</time></trkpt><trkpt lat="43.5224964042652" lon="10.722514425695769"><ele>50.0</ele><time>2026-04-18T07:21:51Z</time></trkpt><trkpt lat="43.52241011588494" lon="10.722575856133474"><ele>50.0</ele><time>2026-04-18T07:21:52Z</time></trkpt><trkpt lat="43.522300757447915" lon="10.722669821201022"><ele>50.0</ele><time>2026-04-18T07:21:53Z</time></trkpt><trkpt lat="43.522188786259306" lon="10.722791919807632"><ele>50.0</ele><time>2026-04-18T07:21:54Z</time></trkpt><trkpt lat="43.52207025922179" lon="10.722913310118717"><ele>50.0</ele><time>2026-04-18T07:21:55Z</time></trkpt><trkpt lat="43.521962973067204" lon="10.723008805937832"><ele>50.0</ele><time>2026-04-18T07:21:56Z</time></trkpt><trkpt lat="43.52184769920538" lon="10.723112939202075"><ele>50.0</ele><time>2026-04-18T07:21:57Z</time></trkpt><trkpt lat="43.52173057367785" lon="10.723210822459881"><ele>50.0</ele><time>2026-04-18T07:21:58Z</time></trkpt><trkpt lat="43.52161459038325" lon="10.723321176126174"><ele>50.0</ele><time>2026-04-18T07:21:59Z</time></trkpt><trkpt lat="43.52150768950732" lon="10.723450834435647"><ele>50.0</ele><time>2026-04-18T07:22:00Z</time></trkpt><trkpt lat="43.52140683543733" lon="10.72359494468704"><ele>50.0</ele><time>2026-04-18T07:22:01Z</time></trkpt><trkpt lat="43.521311900090204" lon="10.72374377776001"><ele>50.0</ele><time>2026-04-18T07:22:02Z</time></trkpt><trkpt lat="43.5212202006132" lon="10.723900633217472"><ele>49.5</ele><time>2026-04-18T07:22:03Z</time></trkpt><trkpt lat="43.52113254080233" lon="10.724047010371082"><ele>49.0</ele><time>2026-04-18T07:22:04Z</time></trkpt><trkpt lat="43.52106944412646" lon="10.72418589616493"><ele>48.5</ele><time>2026-04-18T07:22:05Z</time></trkpt><trkpt lat="43.520988164993796" lon="10.724310774180141"><ele>48.0</ele><time>2026-04-18T07:22:06Z</time></trkpt><trkpt lat="43.52089927268535" lon="10.724445642599198"><ele>48.0</ele><time>2026-04-18T07:22:07Z</time></trkpt><trkpt lat="43.52081677101668" lon="10.724581530897533"><ele>48.0</ele><time>2026-04-18T07:22:08Z</time></trkpt><trkpt lat="43.520750264276444" lon="10.724732005992236"><ele>48.0</ele><time>2026-04-18T07:22:09Z</time></trkpt><trkpt lat="43.52073080706472" lon="10.724891346161181"><ele>48.0</ele><time>2026-04-18T07:22:10Z</time></trkpt><trkpt lat="43.52076317143474" lon="10.725050274863431"><ele>48.0</ele><time>2026-04-18T07:22:11Z</time></trkpt><trkpt lat="43.520797444699795" lon="10.725218680760198"><ele>48.0</ele><time>2026-04-18T07:22:12Z</time></trkpt><trkpt lat="43.52080521867362" lon="10.725407812163839"><ele>48.0</ele><time>2026-04-18T07:22:13Z</time></trkpt><trkpt lat="43.52081333061164" lon="10.725598581756506"><ele>48.0</ele><time>2026-04-18T07:22:14Z</time></trkpt><trkpt lat="43.52085642174349" lon="10.725793639288275"><ele>48.25</ele><time>2026-04-18T07:22:15Z</time></trkpt><trkpt lat="43.520910164168136" lon="10.725969030520158"><ele>48.5</ele><time>2026-04-18T07:22:16Z</time></trkpt><trkpt lat="43.52095205960473" lon="10.726124166466066"><ele>48.75</ele><time>2026-04-18T07:22:17Z</time></trkpt><trkpt lat="43.52097986416778" lon="10.726235730038244"><ele>49.0</ele><time>2026-04-18T07:22:18Z</time></trkpt><trkpt lat="43.52092112774453" lon="10.726389601071064"><ele>49.5</ele><time>2026-04-18T07:22:20Z</time></trkpt><trkpt lat="43.52082453434558" lon="10.726455463906134"><ele>50.0</ele><time>2026-04-18T07:22:21Z</time></trkpt><trkpt lat="43.52068904405706" lon="10.72653807717469"><ele>50.5</ele><time>2026-04-18T07:22:22Z</time></trkpt><trkpt lat="43.52057228315226" lon="10.72659511861848"><ele>51.0</ele><time>2026-04-18T07:22:23Z</time></trkpt><trkpt lat="43.52046563493175" lon="10.726664196949367"><ele>51.0</ele><time>2026-04-18T07:22:24Z</time></trkpt><trkpt lat="43.52035675975509" lon="10.726754923700215"><ele>51.0</ele><time>2026-04-18T07:22:25Z</time></trkpt><trkpt lat="43.52024763737119" lon="10.726861473263313"><ele>51.0</ele><time>2026-04-18T07:22:26Z</time></trkpt><trkpt lat="43.52013481921829" lon="10.726969796910264"><ele>51.0</ele><time>2026-04-18T07:22:27Z</time></trkpt><trkpt lat="43.520032506926555" lon="10.72707723114599"><ele>51.0</ele><time>2026-04-18T07:22:28Z</time></trkpt><trkpt lat="43.51994626257163" lon="10.727177463684365"><ele>51.0</ele><time>2026-04-18T07:22:29Z</time></trkpt><trkpt lat="43.519856985211774" lon="10.727269417684642"><ele>51.0</ele><time>2026-04-18T07:22:30Z</time></trkpt><trkpt lat="43.51977622295095" lon="10.727330325236293"><ele>51.0</ele><time>2026-04-18T07:22:31Z</time></trkpt><trkpt lat="43.51969782416425" lon="10.727379546749628"><ele>51.0</ele><time>2026-04-18T07:22:31.999Z</time></trkpt><trkpt lat="43.51965362387629" lon="10.727450689783847"><ele>51.0</ele><time>2026-04-18T07:22:32.999Z</time></trkpt><trkpt lat="43.519642458183874" lon="10.727555285842847"><ele>51.0</ele><time>2026-04-18T07:22:33.999Z</time></trkpt><trkpt lat="43.51963025123823" lon="10.727680714901998"><ele>51.0</ele><time>2026-04-18T07:22:34.999Z</time></trkpt><trkpt lat="43.519628319100676" lon="10.727812331800642"><ele>51.0</ele><time>2026-04-18T07:22:35.999Z</time></trkpt><trkpt lat="43.51964193021139" lon="10.727936938931375"><ele>51.0</ele><time>2026-04-18T07:22:36.999Z</time></trkpt><trkpt lat="43.51964289732221" lon="10.72805423961104"><ele>51.0</ele><time>2026-04-18T07:22:37.999Z</time></trkpt><trkpt lat="43.519631225494386" lon="10.72818136056717"><ele>52.0</ele><time>2026-04-18T07:22:38.999Z</time></trkpt><trkpt lat="43.51961300720269" lon="10.728314640481994"><ele>53.0</ele><time>2026-04-18T07:22:39.999Z</time></trkpt><trkpt lat="43.51960975748912" lon="10.728432817126082"><ele>53.99999999999999</ele><time>2026-04-18T07:22:40.999Z</time></trkpt><trkpt lat="43.51960051107504" lon="10.728547516424516"><ele>55.0</ele><time>2026-04-18T07:22:41.999Z</time></trkpt><trkpt lat="43.519584996386136" lon="10.728688782547415"><ele>56.0</ele><time>2026-04-18T07:22:42.999Z</time></trkpt><trkpt lat="43.51958332404284" lon="10.728815749433883"><ele>56.8</ele><time>2026-04-18T07:22:43.999Z</time></trkpt><trkpt lat="43.51960746355537" lon="10.728930007483525"><ele>57.599999999999994</ele><time>2026-04-18T07:22:44.999Z</time></trkpt><trkpt lat="43.51963398837972" lon="10.729069266979065"><ele>58.4</ele><time>2026-04-18T07:22:45.999Z</time></trkpt><trkpt lat="43.51965212447557" lon="10.729228566206837"><ele>59.2</ele><time>2026-04-18T07:22:46.999Z</time></trkpt><trkpt lat="43.51966867507707" lon="10.729368742798927"><ele>60.0</ele><time>2026-04-18T07:22:47.999Z</time></trkpt><trkpt lat="43.51967883079371" lon="10.729489347486487"><ele>60.4</ele><time>2026-04-18T07:22:48.999Z</time></trkpt><trkpt lat="43.51968777982372" lon="10.729596536939452"><ele>60.8</ele><time>2026-04-18T07:22:49.999Z</time></trkpt><trkpt lat="43.519691912485854" lon="10.729722877597702"><ele>61.2</ele><time>2026-04-18T07:22:50.999Z</time></trkpt><trkpt lat="43.51965863227171" lon="10.729858070155771"><ele>61.6</ele><time>2026-04-18T07:22:51.999Z</time></trkpt><trkpt lat="43.51961858043852" lon="10.729976210567017"><ele>62.0</ele><time>2026-04-18T07:22:52.999Z</time></trkpt><trkpt lat="43.51958136410133" lon="10.730084254782348"><ele>63.0</ele><time>2026-04-18T07:22:53.999Z</time></trkpt><trkpt lat="43.51956924480191" lon="10.730289438769459"><ele>64.0</ele><time>2026-04-18T07:22:55.999Z</time></trkpt><trkpt lat="43.51957832289635" lon="10.730405604036486"><ele>65.0</ele><time>2026-04-18T07:22:56.999Z</time></trkpt><trkpt lat="43.51959386354792" lon="10.730545078403715"><ele>66.0</ele><time>2026-04-18T07:22:57.999Z</time></trkpt><trkpt lat="43.51961666958409" lon="10.730657215632672"><ele>67.0</ele><time>2026-04-18T07:22:58.999Z</time></trkpt><trkpt lat="43.51962472855549" lon="10.730788758510737"><ele>67.0</ele><time>2026-04-18T07:22:59.999Z</time></trkpt><trkpt lat="43.51963464758056" lon="10.730891100782758"><ele>67.0</ele><time>2026-04-18T07:23:00.999Z</time></trkpt><trkpt lat="43.51965098094308" lon="10.731001169521958"><ele>67.0</ele><time>2026-04-18T07:23:01.999Z</time></trkpt><trkpt lat="43.51965575807789" lon="10.731123712366903"><ele>67.0</ele><time>2026-04-18T07:23:02.999Z</time></trkpt><trkpt lat="43.519657468271525" lon="10.731251244589332"><ele>67.0</ele><time>2026-04-18T07:23:03.999Z</time></trkpt><trkpt lat="43.519656955853016" lon="10.731354415545573"><ele>67.0</ele><time>2026-04-18T07:23:04.999Z</time></trkpt><trkpt lat="43.51967274206231" lon="10.731506879438985"><ele>69.4</ele><time>2026-04-18T07:23:06.999Z</time></trkpt><trkpt lat="43.51968708183619" lon="10.731593414370009"><ele>71.80000000000001</ele><time>2026-04-18T07:23:07.999Z</time></trkpt><trkpt lat="43.51972493625822" lon="10.731667090838608"><ele>74.2</ele><time>2026-04-18T07:23:08.999Z</time></trkpt><trkpt lat="43.51976852847839" lon="10.731795670914863"><ele>76.60000000000001</ele><time>2026-04-18T07:23:09.999Z</time></trkpt><trkpt lat="43.51979889494687" lon="10.731933019032"><ele>79.0</ele><time>2026-04-18T07:23:10.999Z</time></trkpt><trkpt lat="43.51984130454507" lon="10.732103536087704"><ele>80.4</ele><time>2026-04-18T07:23:11.999Z</time></trkpt><trkpt lat="43.51987208719801" lon="10.732245659178988"><ele>81.80000000000001</ele><time>2026-04-18T07:23:12.999Z</time></trkpt><trkpt lat="43.51988902748427" lon="10.732403962854765"><ele>83.19999999999999</ele><time>2026-04-18T07:23:13.999Z</time></trkpt><trkpt lat="43.51988182637337" lon="10.732545459814503"><ele>84.6</ele><time>2026-04-18T07:23:14.999Z</time></trkpt><trkpt lat="43.51986862592984" lon="10.732671336901726"><ele>86.0</ele><time>2026-04-18T07:23:15.999Z</time></trkpt><trkpt lat="43.51984146229467" lon="10.732779759177001"><ele>88.0</ele><time>2026-04-18T07:23:16.999Z</time></trkpt><trkpt lat="43.51983512872993" lon="10.732929113959486"><ele>90.0</ele><time>2026-04-18T07:23:17.999Z</time></trkpt><trkpt lat="43.51984857814747" lon="10.733085307283014"><ele>92.0</ele><time>2026-04-18T07:23:18.999Z</time></trkpt><trkpt lat="43.51986161662317" lon="10.733205311515272"><ele>94.0</ele><time>2026-04-18T07:23:19.999Z</time></trkpt><trkpt lat="43.519880077765926" lon="10.733316577714907"><ele>96.0</ele><time>2026-04-18T07:23:20.999Z</time></trkpt><trkpt lat="43.51988637290038" lon="10.733455293260251"><ele>97.0</ele><time>2026-04-18T07:23:21.999Z</time></trkpt><trkpt lat="43.51988441041795" lon="10.733583050781643"><ele>98.0</ele><time>2026-04-18T07:23:22.999Z</time></trkpt><trkpt lat="43.5198649260599" lon="10.733721865917415"><ele>99.0</ele><time>2026-04-18T07:23:23.999Z</time></trkpt><trkpt lat="43.51983583771508" lon="10.733861793672789"><ele>100.0</ele><time>2026-04-18T07:23:24.999Z</time></trkpt><trkpt lat="43.51982495151844" lon="10.73401453742627"><ele>101.0</ele><time>2026-04-18T07:23:25.999Z</time></trkpt><trkpt lat="43.519820383034144" lon="10.73415373705273"><ele>100.99999999999999</ele><time>2026-04-18T07:23:26.999Z</time></trkpt><trkpt lat="43.519817519698805" lon="10.734274572017418"><ele>101.0</ele><time>2026-04-18T07:23:27.999Z</time></trkpt><trkpt lat="43.5198299672815" lon="10.734365479608492"><ele>101.0</ele><time>2026-04-18T07:23:28.999Z</time></trkpt><trkpt lat="43.51988058736898" lon="10.734427104259357"><ele>101.0</ele><time>2026-04-18T07:23:29.999Z</time></trkpt><trkpt lat="43.51995308661126" lon="10.73443582151185"><ele>100.99999999999999</ele><time>2026-04-18T07:23:30.999Z</time></trkpt><trkpt lat="43.520035408644816" lon="10.734467706267646"><ele>101.0</ele><time>2026-04-18T07:23:31.999Z</time></trkpt><trkpt lat="43.5201333722012" lon="10.73453657432433"><ele>100.25</ele><time>2026-04-18T07:23:32.999Z</time></trkpt><trkpt lat="43.520251262252096" lon="10.734637504140254"><ele>99.5</ele><time>2026-04-18T07:23:33.999Z</time></trkpt><trkpt lat="43.52035574434393" lon="10.734718397234289"><ele>98.75</ele><time>2026-04-18T07:23:34.999Z</time></trkpt><trkpt lat="43.52045306314023" lon="10.734818369396427"><ele>98.0</ele><time>2026-04-18T07:23:35.999Z</time></trkpt><trkpt lat="43.52054473354563" lon="10.734891506341617"><ele>100.80000000000001</ele><time>2026-04-18T07:23:36.999Z</time></trkpt><trkpt lat="43.52062192562049" lon="10.734964280980211"><ele>103.6</ele><time>2026-04-18T07:23:37.999Z</time></trkpt><trkpt lat="43.52068432129954" lon="10.73505020083857"><ele>106.39999999999999</ele><time>2026-04-18T07:23:38.999Z</time></trkpt><trkpt lat="43.520733801920414" lon="10.735152089474244"><ele>109.19999999999999</ele><time>2026-04-18T07:23:39.999Z</time></trkpt><trkpt lat="43.520764033312304" lon="10.735280391589074"><ele>112.0</ele><time>2026-04-18T07:23:40.999Z</time></trkpt><trkpt lat="43.520779455091315" lon="10.735392293553064"><ele>112.6</ele><time>2026-04-18T07:23:41.999Z</time></trkpt><trkpt lat="43.52081363930597" lon="10.735510124125582"><ele>113.19999999999999</ele><time>2026-04-18T07:23:42.999Z</time></trkpt><trkpt lat="43.52089062382369" lon="10.735612972477195"><ele>113.8</ele><time>2026-04-18T07:23:43.998Z</time></trkpt><trkpt lat="43.520966251981264" lon="10.735683140358326"><ele>114.4</ele><time>2026-04-18T07:23:44.998Z</time></trkpt><trkpt lat="43.521041580818526" lon="10.735754114630202"><ele>115.0</ele><time>2026-04-18T07:23:45.998Z</time></trkpt><trkpt lat="43.52109396835385" lon="10.73584510340616"><ele>115.00000000000001</ele><time>2026-04-18T07:23:46.998Z</time></trkpt><trkpt lat="43.52117434103212" lon="10.735911739730032"><ele>115.0</ele><time>2026-04-18T07:23:47.998Z</time></trkpt><trkpt lat="43.52126387113713" lon="10.735972469718353"><ele>115.0</ele><time>2026-04-18T07:23:48.998Z</time></trkpt><trkpt lat="43.521342290436216" lon="10.736046637241532"><ele>115.0</ele><time>2026-04-18T07:23:50Z</time></trkpt><trkpt lat="43.52141835827942" lon="10.736120585205166"><ele>115.00000000000001</ele><time>2026-04-18T07:23:51Z</time></trkpt><trkpt lat="43.52147985075984" lon="10.7361560626481"><ele>115.0</ele><time>2026-04-18T07:23:52Z</time></trkpt><trkpt lat="43.52154592388115" lon="10.736248397866841"><ele>119.75</ele><time>2026-04-18T07:23:53Z</time></trkpt><trkpt lat="43.52161813038843" lon="10.73635859180638"><ele>124.5</ele><time>2026-04-18T07:23:54Z</time></trkpt><trkpt lat="43.52167440175964" lon="10.736435125952607"><ele>129.25</ele><time>2026-04-18T07:23:55Z</time></trkpt><trkpt lat="43.52175495740396" lon="10.736574579946915"><ele>134.0</ele><time>2026-04-18T07:23:56Z</time></trkpt><trkpt lat="43.52184560890093" lon="10.736714714564195"><ele>134.0</ele><time>2026-04-18T07:23:57Z</time></trkpt><trkpt lat="43.521933236029355" lon="10.736844949929013"><ele>134.0</ele><time>2026-04-18T07:23:58Z</time></trkpt><trkpt lat="43.52199557540762" lon="10.736937448944744"><ele>134.0</ele><time>2026-04-18T07:23:59Z</time></trkpt><trkpt lat="43.52204534565212" lon="10.737005223309598"><ele>134.0</ele><time>2026-04-18T07:24:00Z</time></trkpt><trkpt lat="43.5221083243769" lon="10.737097484542208"><ele>134.0</ele><time>2026-04-18T07:24:02Z</time></trkpt><trkpt lat="43.522118761993596" lon="10.737226423751663"><ele>133.6</ele><time>2026-04-18T07:24:04Z</time></trkpt><trkpt lat="43.52209851816106" lon="10.737323522281718"><ele>133.2</ele><time>2026-04-18T07:24:05Z</time></trkpt><trkpt lat="43.52205988685373" lon="10.737448087925827"><ele>132.79999999999998</ele><time>2026-04-18T07:24:06Z</time></trkpt><trkpt lat="43.52202144244039" lon="10.737570001849399"><ele>132.4</ele><time>2026-04-18T07:24:07Z</time></trkpt><trkpt lat="43.5219721888871" lon="10.73769809228532"><ele>132.0</ele><time>2026-04-18T07:24:08Z</time></trkpt><trkpt lat="43.52192458012551" lon="10.73779129576712"><ele>135.0</ele><time>2026-04-18T07:24:09Z</time></trkpt><trkpt lat="43.5218556515583" lon="10.73788928833185"><ele>138.0</ele><time>2026-04-18T07:24:11Z</time></trkpt><trkpt lat="43.521756169487105" lon="10.738003810521512"><ele>141.0</ele><time>2026-04-18T07:24:13Z</time></trkpt><trkpt lat="43.52170956033759" lon="10.738187002355279"><ele>144.0</ele><time>2026-04-18T07:24:15Z</time></trkpt><trkpt lat="43.521719955851296" lon="10.738324287998887"><ele>144.0</ele><time>2026-04-18T07:24:16Z</time></trkpt><trkpt lat="43.52174332287985" lon="10.738439828211707"><ele>144.0</ele><time>2026-04-18T07:24:17Z</time></trkpt><trkpt lat="43.521767166633175" lon="10.738553249024974"><ele>144.0</ele><time>2026-04-18T07:24:18Z</time></trkpt><trkpt lat="43.521796638235905" lon="10.738695220236421"><ele>144.0</ele><time>2026-04-18T07:24:19Z</time></trkpt><trkpt lat="43.521826940284654" lon="10.73886015979451"><ele>144.0</ele><time>2026-04-18T07:24:20Z</time></trkpt><trkpt lat="43.5218727119773" lon="10.739034288940951"><ele>144.0</ele><time>2026-04-18T07:24:21Z</time></trkpt><trkpt lat="43.52193752603078" lon="10.739214966261695"><ele>144.0</ele><time>2026-04-18T07:24:22Z</time></trkpt><trkpt lat="43.52200549887819" lon="10.739385999528812"><ele>144.0</ele><time>2026-04-18T07:24:23Z</time></trkpt><trkpt lat="43.522060450359135" lon="10.739525396956056"><ele>144.0</ele><time>2026-04-18T07:24:24Z</time></trkpt><trkpt lat="43.52210871939521" lon="10.739680644447024"><ele>147.0</ele><time>2026-04-18T07:24:25Z</time></trkpt><trkpt lat="43.5221636110967" lon="10.739823004852788"><ele>150.0</ele><time>2026-04-18T07:24:26Z</time></trkpt><trkpt lat="43.522225623431034" lon="10.739984929295344"><ele>153.0</ele><time>2026-04-18T07:24:27Z</time></trkpt><trkpt lat="43.522293990389926" lon="10.740155189949574"><ele>156.0</ele><time>2026-04-18T07:24:28Z</time></trkpt><trkpt lat="43.52236454338938" lon="10.740309423159854"><ele>157.0</ele><time>2026-04-18T07:24:29Z</time></trkpt><trkpt lat="43.52243182596918" lon="10.740464213609815"><ele>158.0</ele><time>2026-04-18T07:24:30Z</time></trkpt><trkpt lat="43.52248967446614" lon="10.740600542270952"><ele>159.0</ele><time>2026-04-18T07:24:31Z</time></trkpt><trkpt lat="43.52253960847509" lon="10.740725933290785"><ele>160.0</ele><time>2026-04-18T07:24:32Z</time></trkpt><trkpt lat="43.52259273990654" lon="10.740849133085536"><ele>160.0</ele><time>2026-04-18T07:24:33Z</time></trkpt><trkpt lat="43.52264906563368" lon="10.74096904077068"><ele>160.0</ele><time>2026-04-18T07:24:34Z</time></trkpt><trkpt lat="43.52271363241525" lon="10.741092585719649"><ele>160.0</ele><time>2026-04-18T07:24:35Z</time></trkpt><trkpt lat="43.52277950426812" lon="10.741226594309044"><ele>160.0</ele><time>2026-04-18T07:24:36Z</time></trkpt><trkpt lat="43.5228584659778" lon="10.74134949157805"><ele>159.75</ele><time>2026-04-18T07:24:37Z</time></trkpt><trkpt lat="43.52295139768761" lon="10.741452272746086"><ele>159.5</ele><time>2026-04-18T07:24:38Z</time></trkpt><trkpt lat="43.523066582050156" lon="10.74155513183364"><ele>159.25</ele><time>2026-04-18T07:24:38.999Z</time></trkpt><trkpt lat="43.52317316571475" lon="10.74164626361603"><ele>159.0</ele><time>2026-04-18T07:24:39.999Z</time></trkpt><trkpt lat="43.52327262927652" lon="10.741741413967842"><ele>159.0</ele><time>2026-04-18T07:24:40.999Z</time></trkpt><trkpt lat="43.52335620941239" lon="10.741823317218925"><ele>159.0</ele><time>2026-04-18T07:24:41.999Z</time></trkpt><trkpt lat="43.523439085868304" lon="10.74189499985839"><ele>159.0</ele><time>2026-04-18T07:24:42.999Z</time></trkpt><trkpt lat="43.52353115931846" lon="10.741971526715064"><ele>159.0</ele><time>2026-04-18T07:24:43.999Z</time></trkpt><trkpt lat="43.52361338867559" lon="10.742016244293502"><ele>159.0</ele><time>2026-04-18T07:24:44.999Z</time></trkpt><trkpt lat="43.523704164110626" lon="10.742061120033245"><ele>159.75</ele><time>2026-04-18T07:24:45.999Z</time></trkpt><trkpt lat="43.52382540676898" lon="10.742037511300177"><ele>160.5</ele><time>2026-04-18T07:24:46.999Z</time></trkpt><trkpt lat="43.52394687441872" lon="10.741980047074403"><ele>161.25</ele><time>2026-04-18T07:24:47.999Z</time></trkpt><trkpt lat="43.524066188582054" lon="10.741917759018284"><ele>162.0</ele><time>2026-04-18T07:24:48.999Z</time></trkpt><trkpt lat="43.52417566123133" lon="10.741875284673148"><ele>162.6</ele><time>2026-04-18T07:24:49.999Z</time></trkpt><trkpt lat="43.524277369024645" lon="10.741830873039982"><ele>163.2</ele><time>2026-04-18T07:24:50.999Z</time></trkpt><trkpt lat="43.524382349174836" lon="10.741790550404428"><ele>163.8</ele><time>2026-04-18T07:24:51.999Z</time></trkpt><trkpt lat="43.52448417396097" lon="10.741760102941459"><ele>164.4</ele><time>2026-04-18T07:24:52.999Z</time></trkpt><trkpt lat="43.52458460897212" lon="10.741772170855299"><ele>165.0</ele><time>2026-04-18T07:24:53.999Z</time></trkpt><trkpt lat="43.52468460658847" lon="10.741787190176238"><ele>166.4</ele><time>2026-04-18T07:24:54.999Z</time></trkpt><trkpt lat="43.52478395462031" lon="10.741813802287668"><ele>167.8</ele><time>2026-04-18T07:24:55.999Z</time></trkpt><trkpt lat="43.52489120707499" lon="10.741830268180694"><ele>169.2</ele><time>2026-04-18T07:24:56.999Z</time></trkpt><trkpt lat="43.525001547517824" lon="10.741800492672814"><ele>170.6</ele><time>2026-04-18T07:24:57.999Z</time></trkpt><trkpt lat="43.52510078088369" lon="10.741809727413443"><ele>172.0</ele><time>2026-04-18T07:24:58.999Z</time></trkpt><trkpt lat="43.52521185832299" lon="10.741782793919578"><ele>172.0</ele><time>2026-04-18T07:24:59.999Z</time></trkpt><trkpt lat="43.52531261904381" lon="10.741750295175605"><ele>172.0</ele><time>2026-04-18T07:25:00.999Z</time></trkpt><trkpt lat="43.525411431503784" lon="10.74170050841467"><ele>172.0</ele><time>2026-04-18T07:25:01.999Z</time></trkpt><trkpt lat="43.5255121841419" lon="10.74162889936767"><ele>172.0</ele><time>2026-04-18T07:25:02.999Z</time></trkpt><trkpt lat="43.525599013466106" lon="10.741536155231959"><ele>172.0</ele><time>2026-04-18T07:25:03.999Z</time></trkpt><trkpt lat="43.52569759623206" lon="10.741473127541186"><ele>171.39999999999998</ele><time>2026-04-18T07:25:04.999Z</time></trkpt><trkpt lat="43.52576319048051" lon="10.741418677392412"><ele>170.79999999999998</ele><time>2026-04-18T07:25:05.999Z</time></trkpt><trkpt lat="43.525857576072745" lon="10.741328917712611"><ele>170.2</ele><time>2026-04-18T07:25:07.999Z</time></trkpt><trkpt lat="43.5259363143426" lon="10.741285576269597"><ele>169.6</ele><time>2026-04-18T07:25:09.999Z</time></trkpt><trkpt lat="43.52600897735642" lon="10.741411477726592"><ele>169.0</ele><time>2026-04-18T07:25:11.999Z</time></trkpt><trkpt lat="43.526076288680876" lon="10.741495638918979"><ele>169.0</ele><time>2026-04-18T07:25:12.999Z</time></trkpt><trkpt lat="43.52614714428277" lon="10.741584364608544"><ele>169.0</ele><time>2026-04-18T07:25:13.999Z</time></trkpt><trkpt lat="43.526212186606834" lon="10.741669600068732"><ele>169.0</ele><time>2026-04-18T07:25:14.999Z</time></trkpt><trkpt lat="43.526274320087815" lon="10.74174697807048"><ele>169.0</ele><time>2026-04-18T07:25:15.999Z</time></trkpt><trkpt lat="43.52635048338781" lon="10.741825727709854"><ele>169.0</ele><time>2026-04-18T07:25:16.999Z</time></trkpt><trkpt lat="43.52643398851693" lon="10.741935009416997"><ele>169.39999999999998</ele><time>2026-04-18T07:25:17.999Z</time></trkpt><trkpt lat="43.52651182954747" lon="10.742053830936685"><ele>169.8</ele><time>2026-04-18T07:25:18.999Z</time></trkpt><trkpt lat="43.526591630385994" lon="10.742181876077717"><ele>170.2</ele><time>2026-04-18T07:25:19.999Z</time></trkpt><trkpt lat="43.5266632692645" lon="10.742276752119798"><ele>170.60000000000002</ele><time>2026-04-18T07:25:20.999Z</time></trkpt><trkpt lat="43.52672527542285" lon="10.74236520935703"><ele>171.0</ele><time>2026-04-18T07:25:21.999Z</time></trkpt><trkpt lat="43.52677850293116" lon="10.742434610432737"><ele>171.0</ele><time>2026-04-18T07:25:22.999Z</time></trkpt><trkpt lat="43.526825773670325" lon="10.742507597374837"><ele>171.0</ele><time>2026-04-18T07:25:23.999Z</time></trkpt><trkpt lat="43.526872574530266" lon="10.742586671530383"><ele>171.0</ele><time>2026-04-18T07:25:24.999Z</time></trkpt><trkpt lat="43.52691220921031" lon="10.742665031243709"><ele>171.0</ele><time>2026-04-18T07:25:25.999Z</time></trkpt><trkpt lat="43.52696131775789" lon="10.742778111145977"><ele>171.0</ele><time>2026-04-18T07:25:27.999Z</time></trkpt><trkpt lat="43.526969705040614" lon="10.7428647223715"><ele>171.0</ele><time>2026-04-18T07:25:30.999Z</time></trkpt><trkpt lat="43.52699805371101" lon="10.742985270438304"><ele>171.0</ele><time>2026-04-18T07:25:59Z</time></trkpt><trkpt lat="43.527048896477815" lon="10.743136286394902"><ele>171.0</ele><time>2026-04-18T07:26:01Z</time></trkpt><trkpt lat="43.527077873011415" lon="10.74321463651764"><ele>171.0</ele><time>2026-04-18T07:26:02Z</time></trkpt><trkpt lat="43.52711138192225" lon="10.74329790290618"><ele>171.0</ele><time>2026-04-18T07:26:03Z</time></trkpt><trkpt lat="43.527146107941526" lon="10.743388854082419"><ele>171.0</ele><time>2026-04-18T07:26:04Z</time></trkpt><trkpt lat="43.52717950146955" lon="10.743502235445899"><ele>171.0</ele><time>2026-04-18T07:26:05Z</time></trkpt><trkpt lat="43.52721097374324" lon="10.743630172477463"><ele>171.0</ele><time>2026-04-18T07:26:06Z</time></trkpt><trkpt lat="43.527232049580356" lon="10.743729106293681"><ele>171.0</ele><time>2026-04-18T07:26:07Z</time></trkpt><trkpt lat="43.52725685322425" lon="10.74381313244924"><ele>171.0</ele><time>2026-04-18T07:26:08Z</time></trkpt><trkpt lat="43.52727049758062" lon="10.743906113087156"><ele>171.0</ele><time>2026-04-18T07:26:09Z</time></trkpt><trkpt lat="43.52730108784348" lon="10.74401181295514"><ele>171.0</ele><time>2026-04-18T07:26:10Z</time></trkpt><trkpt lat="43.52733258975404" lon="10.744090229679331"><ele>171.0</ele><time>2026-04-18T07:26:11Z</time></trkpt><trkpt lat="43.52743627799319" lon="10.744215011632802"><ele>171.0</ele><time>2026-04-18T07:26:13Z</time></trkpt><trkpt lat="43.527525144610884" lon="10.744268660608604"><ele>171.0</ele><time>2026-04-18T07:26:15Z</time></trkpt><trkpt lat="43.527660582587266" lon="10.74434963295128"><ele>171.0</ele><time>2026-04-18T07:26:17Z</time></trkpt><trkpt lat="43.52773571465172" lon="10.74439444032589"><ele>171.0</ele><time>2026-04-18T07:26:18Z</time></trkpt><trkpt lat="43.527802783158926" lon="10.744460860439885"><ele>171.0</ele><time>2026-04-18T07:26:19Z</time></trkpt><trkpt lat="43.5279062506069" lon="10.744549225558446"><ele>169.8</ele><time>2026-04-18T07:26:20Z</time></trkpt><trkpt lat="43.52798430742647" lon="10.744613699325699"><ele>168.60000000000002</ele><time>2026-04-18T07:26:21Z</time></trkpt><trkpt lat="43.5281031929534" lon="10.744693733360624"><ele>167.4</ele><time>2026-04-18T07:26:22Z</time></trkpt><trkpt lat="43.52818441339399" lon="10.744774243653644"><ele>166.2</ele><time>2026-04-18T07:26:23Z</time></trkpt><trkpt lat="43.52825059682324" lon="10.744892896039893"><ele>165.0</ele><time>2026-04-18T07:26:24Z</time></trkpt><trkpt lat="43.52827352241402" lon="10.745037345914522"><ele>165.0</ele><time>2026-04-18T07:26:25Z</time></trkpt><trkpt lat="43.52830993999261" lon="10.745141093498269"><ele>165.0</ele><time>2026-04-18T07:26:26Z</time></trkpt><trkpt lat="43.52835085291594" lon="10.74522542411218"><ele>165.0</ele><time>2026-04-18T07:26:27Z</time></trkpt><trkpt lat="43.528387664303764" lon="10.74530868088751"><ele>165.0</ele><time>2026-04-18T07:26:28Z</time></trkpt><trkpt lat="43.52846452746369" lon="10.745418007221662"><ele>165.0</ele><time>2026-04-18T07:26:30Z</time></trkpt><trkpt lat="43.528510399289274" lon="10.745485504887576"><ele>165.0</ele><time>2026-04-18T07:26:32Z</time></trkpt><trkpt lat="43.52861088008477" lon="10.745451456611152"><ele>165.0</ele><time>2026-04-18T07:26:37Z</time></trkpt><trkpt lat="43.52860611933537" lon="10.745335652067363"><ele>165.0</ele><time>2026-04-18T07:26:52.999Z</time></trkpt><trkpt lat="43.528646419821406" lon="10.745253306287763"><ele>165.0</ele><time>2026-04-18T07:26:54.999Z</time></trkpt><trkpt lat="43.5287780429627" lon="10.745265274795186"><ele>165.0</ele><time>2026-04-18T07:26:56.999Z</time></trkpt><trkpt lat="43.52886641913339" lon="10.745246293202"><ele>165.0</ele><time>2026-04-18T07:26:57.999Z</time></trkpt><trkpt lat="43.52900286659082" lon="10.745216280872526"><ele>163.6</ele><time>2026-04-18T07:26:59.999Z</time></trkpt><trkpt lat="43.529090537553365" lon="10.745196452889491"><ele>162.2</ele><time>2026-04-18T07:27:00.999Z</time></trkpt><trkpt lat="43.52919012593121" lon="10.745171695458277"><ele>160.8</ele><time>2026-04-18T07:27:01.999Z</time></trkpt><trkpt lat="43.52928017151199" lon="10.745129663926296"><ele>159.4</ele><time>2026-04-18T07:27:02.999Z</time></trkpt><trkpt lat="43.52935081442725" lon="10.745079451844738"><ele>158.0</ele><time>2026-04-18T07:27:03.999Z</time></trkpt><trkpt lat="43.52946522182637" lon="10.74511757275794"><ele>158.0</ele><time>2026-04-18T07:27:05.999Z</time></trkpt><trkpt lat="43.529534693127125" lon="10.7451632279176"><ele>158.0</ele><time>2026-04-18T07:27:06.999Z</time></trkpt><trkpt lat="43.52961467006436" lon="10.745235378802585"><ele>158.0</ele><time>2026-04-18T07:27:07.999Z</time></trkpt><trkpt lat="43.52968039260842" lon="10.745284241660851"><ele>158.0</ele><time>2026-04-18T07:27:08.999Z</time></trkpt><trkpt lat="43.52978235231204" lon="10.745311361110588"><ele>158.0</ele><time>2026-04-18T07:27:10.999Z</time></trkpt><trkpt lat="43.529852351131076" lon="10.745317103149889"><ele>158.0</ele><time>2026-04-18T07:27:11.999Z</time></trkpt><trkpt lat="43.529918153896105" lon="10.745291354463882"><ele>157.75</ele><time>2026-04-18T07:27:12.999Z</time></trkpt><trkpt lat="43.53000009181796" lon="10.745250584109804"><ele>157.5</ele><time>2026-04-18T07:27:13.999Z</time></trkpt><trkpt lat="43.53009512134209" lon="10.74518861030911"><ele>157.25</ele><time>2026-04-18T07:27:14.999Z</time></trkpt><trkpt lat="43.53023328931915" lon="10.744997610034503"><ele>157.0</ele><time>2026-04-18T07:27:15.999Z</time></trkpt><trkpt lat="43.53033952899891" lon="10.744874964657612"><ele>156.75</ele><time>2026-04-18T07:27:16.999Z</time></trkpt><trkpt lat="43.53043702208377" lon="10.744820671623074"><ele>156.5</ele><time>2026-04-18T07:27:17.999Z</time></trkpt><trkpt lat="43.53053450911624" lon="10.744764693596402"><ele>156.25</ele><time>2026-04-18T07:27:18.999Z</time></trkpt><trkpt lat="43.530661451394415" lon="10.744725901064015"><ele>156.0</ele><time>2026-04-18T07:27:19.999Z</time></trkpt><trkpt lat="43.530780030014505" lon="10.74466835654161"><ele>156.0</ele><time>2026-04-18T07:27:20.999Z</time></trkpt><trkpt lat="43.53087538973477" lon="10.74457046291405"><ele>156.0</ele><time>2026-04-18T07:27:21.999Z</time></trkpt><trkpt lat="43.53091717369492" lon="10.74443619397803"><ele>156.0</ele><time>2026-04-18T07:27:22.999Z</time></trkpt><trkpt lat="43.53094218984753" lon="10.74429402219934"><ele>156.0</ele><time>2026-04-18T07:27:23.999Z</time></trkpt><trkpt lat="43.53096030113463" lon="10.744097694060386"><ele>156.0</ele><time>2026-04-18T07:27:24.999Z</time></trkpt><trkpt lat="43.53096952828267" lon="10.743890929850624"><ele>156.0</ele><time>2026-04-18T07:27:25.999Z</time></trkpt><trkpt lat="43.53096241381063" lon="10.743699647108578"><ele>156.0</ele><time>2026-04-18T07:27:26.999Z</time></trkpt><trkpt lat="43.53093077090546" lon="10.743487809701138"><ele>156.0</ele><time>2026-04-18T07:27:27.999Z</time></trkpt><trkpt lat="43.53089602490735" lon="10.743294849274973"><ele>157.2</ele><time>2026-04-18T07:27:28.999Z</time></trkpt><trkpt lat="43.530867563893445" lon="10.743121042207846"><ele>158.39999999999998</ele><time>2026-04-18T07:27:29.999Z</time></trkpt><trkpt lat="43.53085014393949" lon="10.742959621435842"><ele>159.6</ele><time>2026-04-18T07:27:30.999Z</time></trkpt><trkpt lat="43.53086557917861" lon="10.742815872065043"><ele>160.79999999999998</ele><time>2026-04-18T07:27:31.999Z</time></trkpt><trkpt lat="43.53089633538381" lon="10.742692158181102"><ele>162.0</ele><time>2026-04-18T07:27:32.999Z</time></trkpt><trkpt lat="43.53094702710984" lon="10.742580085078316"><ele>162.8</ele><time>2026-04-18T07:27:33.999Z</time></trkpt><trkpt lat="43.53098005576569" lon="10.742486595852569"><ele>163.6</ele><time>2026-04-18T07:27:34.999Z</time></trkpt><trkpt lat="43.530907395259035" lon="10.742311502808269"><ele>164.4</ele><time>2026-04-18T07:27:35.999Z</time></trkpt><trkpt lat="43.530870158628446" lon="10.742157689358605"><ele>165.20000000000002</ele><time>2026-04-18T07:27:36.999Z</time></trkpt><trkpt lat="43.53083329497451" lon="10.74203578932154"><ele>166.0</ele><time>2026-04-18T07:27:37.999Z</time></trkpt><trkpt lat="43.53079470585916" lon="10.741910576965612"><ele>166.5</ele><time>2026-04-18T07:27:38.999Z</time></trkpt><trkpt lat="43.53075726506274" lon="10.741795659421285"><ele>167.0</ele><time>2026-04-18T07:27:39.999Z</time></trkpt><trkpt lat="43.530731920253814" lon="10.741700905887933"><ele>167.5</ele><time>2026-04-18T07:27:40.999Z</time></trkpt><trkpt lat="43.53070698668388" lon="10.741537976932177"><ele>168.0</ele><time>2026-04-18T07:27:42.999Z</time></trkpt><trkpt lat="43.530701805000426" lon="10.74144381111865"><ele>168.5</ele><time>2026-04-18T07:27:43.999Z</time></trkpt><trkpt lat="43.53070113476615" lon="10.741355916932724"><ele>169.0</ele><time>2026-04-18T07:27:44.999Z</time></trkpt><trkpt lat="43.53074677873272" lon="10.741223648832468"><ele>169.0</ele><time>2026-04-18T07:27:45.999Z</time></trkpt><trkpt lat="43.530839605216265" lon="10.74116326272946"><ele>169.0</ele><time>2026-04-18T07:27:46.999Z</time></trkpt><trkpt lat="43.53089181186418" lon="10.74103440263255"><ele>169.0</ele><time>2026-04-18T07:27:47.999Z</time></trkpt><trkpt lat="43.53093142536309" lon="10.740925434778534"><ele>169.0</ele><time>2026-04-18T07:27:48.999Z</time></trkpt><trkpt lat="43.530960068318805" lon="10.740826998686433"><ele>169.0</ele><time>2026-04-18T07:27:49.999Z</time></trkpt><trkpt lat="43.53098822608873" lon="10.740670843199421"><ele>169.0</ele><time>2026-04-18T07:27:50.999Z</time></trkpt><trkpt lat="43.53105076451669" lon="10.7405099119709"><ele>169.0</ele><time>2026-04-18T07:27:51.999Z</time></trkpt><trkpt lat="43.531075204574684" lon="10.740349818027992"><ele>169.0</ele><time>2026-04-18T07:27:52.999Z</time></trkpt><trkpt lat="43.53109696877946" lon="10.740229958767639"><ele>169.0</ele><time>2026-04-18T07:27:53.999Z</time></trkpt><trkpt lat="43.53112785516067" lon="10.74009009161656"><ele>169.0</ele><time>2026-04-18T07:27:54.999Z</time></trkpt><trkpt lat="43.531186098714024" lon="10.739946947891733"><ele>166.0</ele><time>2026-04-18T07:27:55.998Z</time></trkpt><trkpt lat="43.53122626083151" lon="10.7398364514354"><ele>163.0</ele><time>2026-04-18T07:27:56.998Z</time></trkpt><trkpt lat="43.53126614840426" lon="10.739746638363973"><ele>160.0</ele><time>2026-04-18T07:27:57.998Z</time></trkpt><trkpt lat="43.531286605590125" lon="10.739642659172384"><ele>157.0</ele><time>2026-04-18T07:27:58.998Z</time></trkpt><trkpt lat="43.53132828096519" lon="10.73957133357761"><ele>154.0</ele><time>2026-04-18T07:27:59.998Z</time></trkpt><trkpt lat="43.531394026596494" lon="10.739483724846465"><ele>151.0</ele><time>2026-04-18T07:28:00.998Z</time></trkpt><trkpt lat="43.53147586814174" lon="10.739402247415905"><ele>152.75</ele><time>2026-04-18T07:28:02Z</time></trkpt><trkpt lat="43.53157886858855" lon="10.739263567516517"><ele>154.5</ele><time>2026-04-18T07:28:03Z</time></trkpt><trkpt lat="43.531694406932566" lon="10.739092622028345"><ele>156.25</ele><time>2026-04-18T07:28:04Z</time></trkpt><trkpt lat="43.53176215550648" lon="10.738980889044452"><ele>158.0</ele><time>2026-04-18T07:28:05Z</time></trkpt><trkpt lat="43.53197725624366" lon="10.738896597733294"><ele>154.25</ele><time>2026-04-18T07:28:06Z</time></trkpt><trkpt lat="43.53209038372606" lon="10.7388207615117"><ele>150.5</ele><time>2026-04-18T07:28:07Z</time></trkpt><trkpt lat="43.53219159827892" lon="10.738746942219906"><ele>146.75</ele><time>2026-04-18T07:28:08Z</time></trkpt><trkpt lat="43.53232324888326" lon="10.738654767024705"><ele>143.0</ele><time>2026-04-18T07:28:09Z</time></trkpt><trkpt lat="43.532462053554575" lon="10.73856248637439"><ele>144.25</ele><time>2026-04-18T07:28:10Z</time></trkpt><trkpt lat="43.53258008314994" lon="10.738478599969321"><ele>145.5</ele><time>2026-04-18T07:28:11Z</time></trkpt><trkpt lat="43.53270518074556" lon="10.738422682975772"><ele>146.75</ele><time>2026-04-18T07:28:12Z</time></trkpt><trkpt lat="43.53282013752686" lon="10.738340196805554"><ele>148.0</ele><time>2026-04-18T07:28:13Z</time></trkpt><trkpt lat="43.532935479688426" lon="10.73824260283144"><ele>148.0</ele><time>2026-04-18T07:28:14Z</time></trkpt><trkpt lat="43.533049552190654" lon="10.738123789142076"><ele>148.0</ele><time>2026-04-18T07:28:15Z</time></trkpt><trkpt lat="43.53317421982151" lon="10.737991218434495"><ele>148.0</ele><time>2026-04-18T07:28:16Z</time></trkpt><trkpt lat="43.53328191859175" lon="10.737873880456346"><ele>148.0</ele><time>2026-04-18T07:28:17Z</time></trkpt><trkpt lat="43.533390952533914" lon="10.737765104045625"><ele>147.75</ele><time>2026-04-18T07:28:18Z</time></trkpt><trkpt lat="43.53348928158609" lon="10.73770095167727"><ele>147.5</ele><time>2026-04-18T07:28:19Z</time></trkpt><trkpt lat="43.53359454447518" lon="10.737659639496666"><ele>147.25</ele><time>2026-04-18T07:28:20Z</time></trkpt><trkpt lat="43.53370929717622" lon="10.73763169571839"><ele>147.0</ele><time>2026-04-18T07:28:21Z</time></trkpt><trkpt lat="43.533828923948825" lon="10.73757633876977"><ele>146.25</ele><time>2026-04-18T07:28:22Z</time></trkpt><trkpt lat="43.53395769656959" lon="10.737520821862885"><ele>145.5</ele><time>2026-04-18T07:28:23Z</time></trkpt><trkpt lat="43.534070312132386" lon="10.737458474697412"><ele>144.75</ele><time>2026-04-18T07:28:24Z</time></trkpt><trkpt lat="43.53419210333996" lon="10.737396403986791"><ele>144.0</ele><time>2026-04-18T07:28:25Z</time></trkpt><trkpt lat="43.53430381065578" lon="10.737336516664094"><ele>144.0</ele><time>2026-04-18T07:28:26Z</time></trkpt><trkpt lat="43.53443133069497" lon="10.737259527605579"><ele>144.0</ele><time>2026-04-18T07:28:27Z</time></trkpt><trkpt lat="43.5345828945302" lon="10.73719433984825"><ele>144.0</ele><time>2026-04-18T07:28:28Z</time></trkpt><trkpt lat="43.534739822637746" lon="10.737107451268535"><ele>142.33333333333334</ele><time>2026-04-18T07:28:29Z</time></trkpt><trkpt lat="43.53488368065599" lon="10.737026981950512"><ele>140.66666666666669</ele><time>2026-04-18T07:28:30Z</time></trkpt><trkpt lat="43.53502403329379" lon="10.736928526390553"><ele>139.0</ele><time>2026-04-18T07:28:31Z</time></trkpt><trkpt lat="43.53515817667265" lon="10.73680058701932"><ele>138.66666666666669</ele><time>2026-04-18T07:28:32Z</time></trkpt><trkpt lat="43.53531341407055" lon="10.736657092352138"><ele>138.33333333333334</ele><time>2026-04-18T07:28:33Z</time></trkpt><trkpt lat="43.535458034863474" lon="10.736515596028399"><ele>138.0</ele><time>2026-04-18T07:28:34Z</time></trkpt><trkpt lat="43.53558894745711" lon="10.736390679208457"><ele>137.5</ele><time>2026-04-18T07:28:35Z</time></trkpt><trkpt lat="43.53571845485575" lon="10.736292323122642"><ele>137.0</ele><time>2026-04-18T07:28:36Z</time></trkpt><trkpt lat="43.5358353941546" lon="10.736186735383672"><ele>136.5</ele><time>2026-04-18T07:28:37Z</time></trkpt><trkpt lat="43.535949409285095" lon="10.736080666973264"><ele>136.0</ele><time>2026-04-18T07:28:38Z</time></trkpt><trkpt lat="43.53605486270891" lon="10.735962224149784"><ele>135.0</ele><time>2026-04-18T07:28:39Z</time></trkpt><trkpt lat="43.536166390967864" lon="10.735864548496092"><ele>134.0</ele><time>2026-04-18T07:28:40Z</time></trkpt><trkpt lat="43.53626816144788" lon="10.735771759543479"><ele>133.0</ele><time>2026-04-18T07:28:41Z</time></trkpt><trkpt lat="43.53635143434076" lon="10.73567195709231"><ele>132.0</ele><time>2026-04-18T07:28:42Z</time></trkpt><trkpt lat="43.53642621318145" lon="10.735566888869483"><ele>130.5</ele><time>2026-04-18T07:28:43Z</time></trkpt><trkpt lat="43.536531391064315" lon="10.735468191398953"><ele>129.0</ele><time>2026-04-18T07:28:44Z</time></trkpt><trkpt lat="43.53664444817756" lon="10.735375138004963"><ele>127.5</ele><time>2026-04-18T07:28:45Z</time></trkpt><trkpt lat="43.53674479439981" lon="10.735287853412261"><ele>126.0</ele><time>2026-04-18T07:28:46Z</time></trkpt><trkpt lat="43.53685182322397" lon="10.735202656498517"><ele>125.0</ele><time>2026-04-18T07:28:47Z</time></trkpt><trkpt lat="43.536962340960834" lon="10.735099806663017"><ele>124.0</ele><time>2026-04-18T07:28:48Z</time></trkpt><trkpt lat="43.53706658356042" lon="10.73498750164033"><ele>123.0</ele><time>2026-04-18T07:28:49Z</time></trkpt><trkpt lat="43.53716346666469" lon="10.734888073708115"><ele>122.0</ele><time>2026-04-18T07:28:49.999Z</time></trkpt><trkpt lat="43.5372589233439" lon="10.734800868340397"><ele>122.0</ele><time>2026-04-18T07:28:50.999Z</time></trkpt><trkpt lat="43.53735281600694" lon="10.734711275286063"><ele>122.0</ele><time>2026-04-18T07:28:51.999Z</time></trkpt><trkpt lat="43.537437020102935" lon="10.734607016104622"><ele>122.0</ele><time>2026-04-18T07:28:52.999Z</time></trkpt><trkpt lat="43.53754170788222" lon="10.734501749575665"><ele>122.0</ele><time>2026-04-18T07:28:53.999Z</time></trkpt><trkpt lat="43.537631282659206" lon="10.734401345270676"><ele>119.75</ele><time>2026-04-18T07:28:54.999Z</time></trkpt><trkpt lat="43.53770575037532" lon="10.734278627307264"><ele>117.5</ele><time>2026-04-18T07:28:55.999Z</time></trkpt><trkpt lat="43.5377606845976" lon="10.73413495609176"><ele>115.25</ele><time>2026-04-18T07:28:56.999Z</time></trkpt><trkpt lat="43.53778935061961" lon="10.733968759675744"><ele>113.0</ele><time>2026-04-18T07:28:57.999Z</time></trkpt><trkpt lat="43.53780977391044" lon="10.733808941746862"><ele>113.0</ele><time>2026-04-18T07:28:58.999Z</time></trkpt><trkpt lat="43.53782647413318" lon="10.733637628102935"><ele>113.0</ele><time>2026-04-18T07:28:59.999Z</time></trkpt><trkpt lat="43.53783350857715" lon="10.733463117812725"><ele>113.0</ele><time>2026-04-18T07:29:00.999Z</time></trkpt><trkpt lat="43.53781510293761" lon="10.733270721857979"><ele>113.0</ele><time>2026-04-18T07:29:01.999Z</time></trkpt><trkpt lat="43.53778319106194" lon="10.73311325240641"><ele>111.4</ele><time>2026-04-18T07:29:02.999Z</time></trkpt><trkpt lat="43.53774823713106" lon="10.732955099122622"><ele>109.80000000000001</ele><time>2026-04-18T07:29:03.999Z</time></trkpt><trkpt lat="43.53773054060816" lon="10.732810773239109"><ele>108.2</ele><time>2026-04-18T07:29:04.999Z</time></trkpt><trkpt lat="43.5377210852545" lon="10.732672723198029"><ele>106.6</ele><time>2026-04-18T07:29:05.999Z</time></trkpt><trkpt lat="43.53773871681297" lon="10.732563113158019"><ele>105.0</ele><time>2026-04-18T07:29:06.999Z</time></trkpt><trkpt lat="43.537746385360386" lon="10.732408939867891"><ele>104.6</ele><time>2026-04-18T07:29:07.999Z</time></trkpt><trkpt lat="43.5377745079723" lon="10.732263124529057"><ele>104.2</ele><time>2026-04-18T07:29:08.999Z</time></trkpt><trkpt lat="43.53783753796011" lon="10.732116566385503"><ele>103.80000000000001</ele><time>2026-04-18T07:29:09.999Z</time></trkpt><trkpt lat="43.53789200805707" lon="10.731993830051731"><ele>103.4</ele><time>2026-04-18T07:29:10.999Z</time></trkpt><trkpt lat="43.537957516161306" lon="10.73187317607556"><ele>103.0</ele><time>2026-04-18T07:29:11.999Z</time></trkpt><trkpt lat="43.538016881063676" lon="10.731739928599682"><ele>103.0</ele><time>2026-04-18T07:29:12.999Z</time></trkpt><trkpt lat="43.538103906004714" lon="10.731659427241958"><ele>103.0</ele><time>2026-04-18T07:29:13.999Z</time></trkpt><trkpt lat="43.538192275212104" lon="10.731583635266512"><ele>103.0</ele><time>2026-04-18T07:29:14.999Z</time></trkpt><trkpt lat="43.538302770234004" lon="10.731527469185002"><ele>103.0</ele><time>2026-04-18T07:29:15.999Z</time></trkpt><trkpt lat="43.53840893428187" lon="10.731457443353458"><ele>103.0</ele><time>2026-04-18T07:29:16.999Z</time></trkpt><trkpt lat="43.538508051328485" lon="10.731368861057003"><ele>103.0</ele><time>2026-04-18T07:29:17.999Z</time></trkpt><trkpt lat="43.53862040511852" lon="10.731294689029408"><ele>103.0</ele><time>2026-04-18T07:29:18.999Z</time></trkpt><trkpt lat="43.538734640006574" lon="10.731197813111052"><ele>103.0</ele><time>2026-04-18T07:29:19.999Z</time></trkpt><trkpt lat="43.53884788538348" lon="10.731108743677954"><ele>103.0</ele><time>2026-04-18T07:29:20.999Z</time></trkpt><trkpt lat="43.53895534372803" lon="10.731003618442266"><ele>100.25</ele><time>2026-04-18T07:29:21.999Z</time></trkpt><trkpt lat="43.539067665455114" lon="10.730904325043797"><ele>97.5</ele><time>2026-04-18T07:29:22.999Z</time></trkpt><trkpt lat="43.539143587580334" lon="10.7307748184556"><ele>94.75</ele><time>2026-04-18T07:29:23.999Z</time></trkpt><trkpt lat="43.539229986295965" lon="10.730629882803033"><ele>92.0</ele><time>2026-04-18T07:29:24.999Z</time></trkpt><trkpt lat="43.53930033878672" lon="10.730502103262205"><ele>92.0</ele><time>2026-04-18T07:29:25.999Z</time></trkpt><trkpt lat="43.53937134959149" lon="10.730380566135256"><ele>92.0</ele><time>2026-04-18T07:29:26.999Z</time></trkpt><trkpt lat="43.53944085408871" lon="10.730266812598503"><ele>92.0</ele><time>2026-04-18T07:29:27.999Z</time></trkpt><trkpt lat="43.539514427568065" lon="10.730133244168577"><ele>92.0</ele><time>2026-04-18T07:29:28.999Z</time></trkpt><trkpt lat="43.539592886539985" lon="10.730035384239986"><ele>92.0</ele><time>2026-04-18T07:29:29.999Z</time></trkpt><trkpt lat="43.53966080845274" lon="10.729936760727814"><ele>88.5</ele><time>2026-04-18T07:29:30.999Z</time></trkpt><trkpt lat="43.539760710991686" lon="10.729868130569026"><ele>85.0</ele><time>2026-04-18T07:29:31.999Z</time></trkpt><trkpt lat="43.539870646891785" lon="10.729781863185051"><ele>81.5</ele><time>2026-04-18T07:29:32.999Z</time></trkpt><trkpt lat="43.54000867727086" lon="10.72972741174146"><ele>78.0</ele><time>2026-04-18T07:29:33.999Z</time></trkpt><trkpt lat="43.540130515796434" lon="10.729658328732796"><ele>78.0</ele><time>2026-04-18T07:29:34.999Z</time></trkpt><trkpt lat="43.54024366008681" lon="10.729588931153843"><ele>78.0</ele><time>2026-04-18T07:29:35.999Z</time></trkpt><trkpt lat="43.54035093253401" lon="10.729519511122275"><ele>78.0</ele><time>2026-04-18T07:29:36.999Z</time></trkpt><trkpt lat="43.54046278007443" lon="10.729518005248202"><ele>78.0</ele><time>2026-04-18T07:29:37.999Z</time></trkpt><trkpt lat="43.54055969656668" lon="10.729481010952906"><ele>78.0</ele><time>2026-04-18T07:29:38.999Z</time></trkpt><trkpt lat="43.54066328872922" lon="10.729466023433703"><ele>78.0</ele><time>2026-04-18T07:29:39.999Z</time></trkpt><trkpt lat="43.54075271688056" lon="10.729441560874161"><ele>78.0</ele><time>2026-04-18T07:29:40.999Z</time></trkpt><trkpt lat="43.54082391022619" lon="10.729332484684809"><ele>78.0</ele><time>2026-04-18T07:29:41.999Z</time></trkpt><trkpt lat="43.54089725090105" lon="10.729239484846032"><ele>78.0</ele><time>2026-04-18T07:29:42.999Z</time></trkpt><trkpt lat="43.540931589134495" lon="10.72912810309782"><ele>76.0</ele><time>2026-04-18T07:29:43.999Z</time></trkpt><trkpt lat="43.54095755373006" lon="10.729010004406703"><ele>74.0</ele><time>2026-04-18T07:29:44.999Z</time></trkpt><trkpt lat="43.54098506995209" lon="10.728889051866796"><ele>72.0</ele><time>2026-04-18T07:29:45.999Z</time></trkpt><trkpt lat="43.54102542558506" lon="10.728764532716085"><ele>70.0</ele><time>2026-04-18T07:29:46.999Z</time></trkpt><trkpt lat="43.541059657091175" lon="10.728639735217135"><ele>68.0</ele><time>2026-04-18T07:29:47.999Z</time></trkpt><trkpt lat="43.541100932054334" lon="10.728514942398018"><ele>66.25</ele><time>2026-04-18T07:29:48.999Z</time></trkpt><trkpt lat="43.54113858356799" lon="10.72837360168653"><ele>64.5</ele><time>2026-04-18T07:29:49.999Z</time></trkpt><trkpt lat="43.54118886879089" lon="10.728224164452753"><ele>62.75</ele><time>2026-04-18T07:29:50.999Z</time></trkpt><trkpt lat="43.5412428079457" lon="10.72808735995428"><ele>61.0</ele><time>2026-04-18T07:29:51.999Z</time></trkpt><trkpt lat="43.541287895654165" lon="10.727942724837336"><ele>60.5</ele><time>2026-04-18T07:29:52.999Z</time></trkpt><trkpt lat="43.54133046769168" lon="10.727793953940063"><ele>60.0</ele><time>2026-04-18T07:29:53.999Z</time></trkpt><trkpt lat="43.541354755250815" lon="10.72763806327517"><ele>59.5</ele><time>2026-04-18T07:29:54.999Z</time></trkpt><trkpt lat="43.54136426819477" lon="10.727467391754333"><ele>59.0</ele><time>2026-04-18T07:29:55.999Z</time></trkpt><trkpt lat="43.54138886511835" lon="10.727318228022689"><ele>59.0</ele><time>2026-04-18T07:29:56.999Z</time></trkpt><trkpt lat="43.54142965656699" lon="10.727197820235473"><ele>59.0</ele><time>2026-04-18T07:29:57.999Z</time></trkpt><trkpt lat="43.541496452015956" lon="10.727084753443117"><ele>59.0</ele><time>2026-04-18T07:29:58.999Z</time></trkpt><trkpt lat="43.54158290773423" lon="10.72696264530665"><ele>59.0</ele><time>2026-04-18T07:29:59.999Z</time></trkpt><trkpt lat="43.541673826812406" lon="10.726832057932226"><ele>59.0</ele><time>2026-04-18T07:30:00.998Z</time></trkpt><trkpt lat="43.54176003277839" lon="10.726703195082697"><ele>59.0</ele><time>2026-04-18T07:30:01.998Z</time></trkpt><trkpt lat="43.54185740259052" lon="10.726564982233924"><ele>59.0</ele><time>2026-04-18T07:30:02.998Z</time></trkpt><trkpt lat="43.541962380227865" lon="10.726406389653379"><ele>59.0</ele><time>2026-04-18T07:30:03.998Z</time></trkpt><trkpt lat="43.54206568708779" lon="10.726234280733337"><ele>61.333333333333336</ele><time>2026-04-18T07:30:04.998Z</time></trkpt><trkpt lat="43.542203639946514" lon="10.726040903395063"><ele>63.66666666666667</ele><time>2026-04-18T07:30:05.998Z</time></trkpt><trkpt lat="43.5423141194307" lon="10.725875148625464"><ele>66.0</ele><time>2026-04-18T07:30:06.998Z</time></trkpt><trkpt lat="43.54240803391073" lon="10.725743955744191"><ele>66.0</ele><time>2026-04-18T07:30:08Z</time></trkpt><trkpt lat="43.54248117575656" lon="10.725657368480295"><ele>66.0</ele><time>2026-04-18T07:30:09Z</time></trkpt><trkpt lat="43.54253929421074" lon="10.725611183211884"><ele>66.0</ele><time>2026-04-18T07:30:10Z</time></trkpt><trkpt lat="43.54260604126205" lon="10.725620410552027"><ele>66.0</ele><time>2026-04-18T07:30:11Z</time></trkpt><trkpt lat="43.54268155715396" lon="10.7256536892691"><ele>66.0</ele><time>2026-04-18T07:30:12Z</time></trkpt><trkpt lat="43.5427621437083" lon="10.725633752954009"><ele>66.0</ele><time>2026-04-18T07:30:13Z</time></trkpt><trkpt lat="43.542833140528614" lon="10.72553859063693"><ele>69.75</ele><time>2026-04-18T07:30:14Z</time></trkpt><trkpt lat="43.54288524951729" lon="10.725396393504788"><ele>73.5</ele><time>2026-04-18T07:30:15Z</time></trkpt><trkpt lat="43.54291963382528" lon="10.725244725413695"><ele>77.25</ele><time>2026-04-18T07:30:16Z</time></trkpt><trkpt lat="43.542946114644174" lon="10.725080167086194"><ele>81.0</ele><time>2026-04-18T07:30:17Z</time></trkpt><trkpt lat="43.54297000979786" lon="10.724911401852431"><ele>83.8</ele><time>2026-04-18T07:30:18Z</time></trkpt><trkpt lat="43.542988403980935" lon="10.724755508107236"><ele>86.6</ele><time>2026-04-18T07:30:19Z</time></trkpt><trkpt lat="43.54301294981544" lon="10.724620568768652"><ele>89.4</ele><time>2026-04-18T07:30:20Z</time></trkpt><trkpt lat="43.5430716595064" lon="10.724526547378186"><ele>92.2</ele><time>2026-04-18T07:30:21Z</time></trkpt><trkpt lat="43.54317051800302" lon="10.724464370090041"><ele>95.0</ele><time>2026-04-18T07:30:22Z</time></trkpt><trkpt lat="43.54327285767029" lon="10.724426246931621"><ele>95.6</ele><time>2026-04-18T07:30:23Z</time></trkpt><trkpt lat="43.543363741318515" lon="10.724380815280833"><ele>96.2</ele><time>2026-04-18T07:30:24Z</time></trkpt><trkpt lat="43.543457469599346" lon="10.724292646256924"><ele>96.80000000000001</ele><time>2026-04-18T07:30:25Z</time></trkpt><trkpt lat="43.5435145731545" lon="10.724176509268048"><ele>97.4</ele><time>2026-04-18T07:30:26Z</time></trkpt><trkpt lat="43.5435338723645" lon="10.724044130181223"><ele>98.0</ele><time>2026-04-18T07:30:27Z</time></trkpt><trkpt lat="43.54356540606316" lon="10.723940154869881"><ele>98.0</ele><time>2026-04-18T07:30:28Z</time></trkpt><trkpt lat="43.54361795463112" lon="10.723830220292994"><ele>98.0</ele><time>2026-04-18T07:30:29Z</time></trkpt><trkpt lat="43.54370293845944" lon="10.723742704875104"><ele>98.0</ele><time>2026-04-18T07:30:30Z</time></trkpt><trkpt lat="43.54379385546895" lon="10.723630827738043"><ele>98.0</ele><time>2026-04-18T07:30:31Z</time></trkpt><trkpt lat="43.5438829448733" lon="10.723500021425941"><ele>102.75</ele><time>2026-04-18T07:30:32Z</time></trkpt><trkpt lat="43.543961730501515" lon="10.72337119335781"><ele>107.5</ele><time>2026-04-18T07:30:33Z</time></trkpt><trkpt lat="43.54402178303223" lon="10.7232431412363"><ele>112.25</ele><time>2026-04-18T07:30:34Z</time></trkpt><trkpt lat="43.54406797270601" lon="10.723114290299662"><ele>117.0</ele><time>2026-04-18T07:30:35Z</time></trkpt><trkpt lat="43.54409606757083" lon="10.7229609005569"><ele>117.0</ele><time>2026-04-18T07:30:36Z</time></trkpt><trkpt lat="43.544136830257024" lon="10.722804698966064"><ele>117.0</ele><time>2026-04-18T07:30:37Z</time></trkpt><trkpt lat="43.54420543169391" lon="10.72264183993785"><ele>117.0</ele><time>2026-04-18T07:30:38Z</time></trkpt><trkpt lat="43.544274169848016" lon="10.72247265481157"><ele>117.0</ele><time>2026-04-18T07:30:39Z</time></trkpt><trkpt lat="43.54433693131953" lon="10.722321007038103"><ele>117.6</ele><time>2026-04-18T07:30:40Z</time></trkpt><trkpt lat="43.54438991887801" lon="10.722204628433053"><ele>118.19999999999999</ele><time>2026-04-18T07:30:41Z</time></trkpt><trkpt lat="43.5444540037295" lon="10.72209615369085"><ele>118.8</ele><time>2026-04-18T07:30:42Z</time></trkpt><trkpt lat="43.544516482134746" lon="10.7219872977108"><ele>119.4</ele><time>2026-04-18T07:30:43Z</time></trkpt><trkpt lat="43.54460315248895" lon="10.721898223994927"><ele>120.0</ele><time>2026-04-18T07:30:44Z</time></trkpt><trkpt lat="43.54468993730031" lon="10.721804476909123"><ele>120.0</ele><time>2026-04-18T07:30:45Z</time></trkpt><trkpt lat="43.544778294503075" lon="10.72170641218798"><ele>120.0</ele><time>2026-04-18T07:30:46Z</time></trkpt><trkpt lat="43.54487019930709" lon="10.72164128845049"><ele>120.0</ele><time>2026-04-18T07:30:47Z</time></trkpt><trkpt lat="43.54496808928725" lon="10.721595166069779"><ele>120.0</ele><time>2026-04-18T07:30:48Z</time></trkpt><trkpt lat="43.54507594944452" lon="10.721546600705336"><ele>120.0</ele><time>2026-04-18T07:30:49Z</time></trkpt><trkpt lat="43.545158266418134" lon="10.721504348823691"><ele>120.0</ele><time>2026-04-18T07:30:50Z</time></trkpt><trkpt lat="43.54525816558079" lon="10.721459064203207"><ele>120.0</ele><time>2026-04-18T07:30:51Z</time></trkpt><trkpt lat="43.54535538391396" lon="10.721412286948034"><ele>120.0</ele><time>2026-04-18T07:30:52Z</time></trkpt><trkpt lat="43.54545251907577" lon="10.721353363320413"><ele>120.0</ele><time>2026-04-18T07:30:52.999Z</time></trkpt><trkpt lat="43.54554153008251" lon="10.721328352218338"><ele>120.0</ele><time>2026-04-18T07:30:53.999Z</time></trkpt><trkpt lat="43.54562964948292" lon="10.721276795236458"><ele>119.4</ele><time>2026-04-18T07:30:54.999Z</time></trkpt><trkpt lat="43.545703905661554" lon="10.721237021759988"><ele>118.8</ele><time>2026-04-18T07:30:55.999Z</time></trkpt><trkpt lat="43.54578621358081" lon="10.721165454283092"><ele>118.19999999999999</ele><time>2026-04-18T07:30:57.999Z</time></trkpt><trkpt lat="43.54581676195052" lon="10.721073657351775"><ele>117.6</ele><time>2026-04-18T07:31:00.999Z</time></trkpt><trkpt lat="43.54565869506189" lon="10.720941492979433"><ele>117.0</ele><time>2026-04-18T07:31:01.999Z</time></trkpt><trkpt lat="43.54558027845502" lon="10.720838384461741"><ele>117.8</ele><time>2026-04-18T07:31:02.999Z</time></trkpt><trkpt lat="43.54545884561847" lon="10.720791535287274"><ele>118.6</ele><time>2026-04-18T07:31:03.999Z</time></trkpt><trkpt lat="43.54535765150162" lon="10.720775038339386"><ele>119.39999999999999</ele><time>2026-04-18T07:31:04.999Z</time></trkpt><trkpt lat="43.545273387978796" lon="10.72075985069517"><ele>120.19999999999999</ele><time>2026-04-18T07:31:05.999Z</time></trkpt><trkpt lat="43.545195971394655" lon="10.720722749600965"><ele>121.0</ele><time>2026-04-18T07:31:06.999Z</time></trkpt><trkpt lat="43.545131204083724" lon="10.720658074277614"><ele>121.00000000000001</ele><time>2026-04-18T07:31:07.999Z</time></trkpt><trkpt lat="43.545070096574605" lon="10.720634372486542"><ele>121.0</ele><time>2026-04-18T07:31:08.999Z</time></trkpt><trkpt lat="43.54502129880906" lon="10.720573778757075"><ele>121.0</ele><time>2026-04-18T07:31:09.999Z</time></trkpt><trkpt lat="43.545032387869895" lon="10.720455171704256"><ele>121.0</ele><time>2026-04-18T07:31:10.999Z</time></trkpt><trkpt lat="43.54506705109741" lon="10.720325326847284"><ele>121.00000000000001</ele><time>2026-04-18T07:31:11.999Z</time></trkpt><trkpt lat="43.54514390857739" lon="10.720210763079393"><ele>121.0</ele><time>2026-04-18T07:31:12.999Z</time></trkpt><trkpt lat="43.54521849002693" lon="10.72010723339725"><ele>120.6</ele><time>2026-04-18T07:31:13.999Z</time></trkpt><trkpt lat="43.545293959120734" lon="10.7200142042535"><ele>120.19999999999999</ele><time>2026-04-18T07:31:14.999Z</time></trkpt><trkpt lat="43.545364997636376" lon="10.719922381658947"><ele>119.80000000000001</ele><time>2026-04-18T07:31:15.999Z</time></trkpt><trkpt lat="43.54543572993587" lon="10.719849443527838"><ele>119.4</ele><time>2026-04-18T07:31:16.999Z</time></trkpt><trkpt lat="43.545516586732745" lon="10.71978898208714"><ele>119.0</ele><time>2026-04-18T07:31:17.999Z</time></trkpt><trkpt lat="43.54560863784407" lon="10.719742210242341"><ele>119.0</ele><time>2026-04-18T07:31:18.999Z</time></trkpt><trkpt lat="43.54569620482376" lon="10.719704349774943"><ele>119.0</ele><time>2026-04-18T07:31:19.999Z</time></trkpt><trkpt lat="43.54585054908551" lon="10.719676569367728"><ele>119.0</ele><time>2026-04-18T07:31:20.999Z</time></trkpt><trkpt lat="43.545940608203914" lon="10.719626064503096"><ele>119.0</ele><time>2026-04-18T07:31:21.999Z</time></trkpt><trkpt lat="43.54603170825072" lon="10.719582125427367"><ele>119.0</ele><time>2026-04-18T07:31:22.999Z</time></trkpt><trkpt lat="43.546124435775305" lon="10.719545636072038"><ele>119.80000000000001</ele><time>2026-04-18T07:31:23.999Z</time></trkpt><trkpt lat="43.54621465263725" lon="10.719492664709728"><ele>120.60000000000001</ele><time>2026-04-18T07:31:24.999Z</time></trkpt><trkpt lat="43.54628569569391" lon="10.719468107769147"><ele>121.4</ele><time>2026-04-18T07:31:25.999Z</time></trkpt><trkpt lat="43.54636720206454" lon="10.719426869948451"><ele>122.2</ele><time>2026-04-18T07:31:26.999Z</time></trkpt><trkpt lat="43.5464318771482" lon="10.719410957125572"><ele>123.0</ele><time>2026-04-18T07:31:27.999Z</time></trkpt><trkpt lat="43.546557365788374" lon="10.719372661551555"><ele>120.83333333333333</ele><time>2026-04-18T07:31:29.999Z</time></trkpt><trkpt lat="43.54663929514618" lon="10.71937007269796"><ele>118.66666666666666</ele><time>2026-04-18T07:31:30.999Z</time></trkpt><trkpt lat="43.54671914447038" lon="10.719372882214136"><ele>116.5</ele><time>2026-04-18T07:31:31.999Z</time></trkpt><trkpt lat="43.546805206726695" lon="10.719375808808616"><ele>114.33333333333333</ele><time>2026-04-18T07:31:32.999Z</time></trkpt><trkpt lat="43.54689994313263" lon="10.719372270406156"><ele>112.16666666666666</ele><time>2026-04-18T07:31:33.999Z</time></trkpt><trkpt lat="43.546996476181405" lon="10.719367858776087"><ele>110.0</ele><time>2026-04-18T07:31:34.999Z</time></trkpt><trkpt lat="43.54710130793096" lon="10.719354287934147"><ele>109.5</ele><time>2026-04-18T07:31:35.999Z</time></trkpt><trkpt lat="43.547211401891595" lon="10.7193400070729"><ele>109.0</ele><time>2026-04-18T07:31:36.999Z</time></trkpt><trkpt lat="43.54733458272544" lon="10.719329586879697"><ele>108.5</ele><time>2026-04-18T07:31:37.999Z</time></trkpt><trkpt lat="43.54745187390587" lon="10.719326643837285"><ele>108.0</ele><time>2026-04-18T07:31:38.999Z</time></trkpt><trkpt lat="43.54757012980033" lon="10.719331697861026"><ele>108.0</ele><time>2026-04-18T07:31:39.999Z</time></trkpt><trkpt lat="43.54770067334425" lon="10.719324457171334"><ele>108.0</ele><time>2026-04-18T07:31:40.999Z</time></trkpt><trkpt lat="43.5478261719899" lon="10.719317980095095"><ele>108.0</ele><time>2026-04-18T07:31:41.999Z</time></trkpt><trkpt lat="43.54794130149594" lon="10.719313791122769"><ele>108.0</ele><time>2026-04-18T07:31:42.999Z</time></trkpt><trkpt lat="43.548066959117236" lon="10.71931183176258"><ele>109.5</ele><time>2026-04-18T07:31:43.999Z</time></trkpt><trkpt lat="43.5481923054673" lon="10.719315145994912"><ele>111.0</ele><time>2026-04-18T07:31:44.999Z</time></trkpt><trkpt lat="43.548330486963366" lon="10.719294306519098"><ele>112.5</ele><time>2026-04-18T07:31:45.999Z</time></trkpt><trkpt lat="43.54847573192572" lon="10.719278224654765"><ele>114.0</ele><time>2026-04-18T07:31:46.999Z</time></trkpt><trkpt lat="43.548632745953455" lon="10.719276008308698"><ele>114.5</ele><time>2026-04-18T07:31:47.999Z</time></trkpt><trkpt lat="43.54878401962978" lon="10.719304854589026"><ele>115.0</ele><time>2026-04-18T07:31:48.999Z</time></trkpt><trkpt lat="43.54893017484761" lon="10.719349604430914"><ele>115.5</ele><time>2026-04-18T07:31:49.999Z</time></trkpt><trkpt lat="43.54905716874905" lon="10.719401945551512"><ele>116.0</ele><time>2026-04-18T07:31:50.999Z</time></trkpt><trkpt lat="43.54916618097124" lon="10.719461456501067"><ele>119.66666666666666</ele><time>2026-04-18T07:31:51.999Z</time></trkpt><trkpt lat="43.54925563317509" lon="10.719536898988304"><ele>123.33333333333333</ele><time>2026-04-18T07:31:52.999Z</time></trkpt><trkpt lat="43.549328518479726" lon="10.719635294471498"><ele>127.0</ele><time>2026-04-18T07:31:53.999Z</time></trkpt><trkpt lat="43.54938115974081" lon="10.71972536431138"><ele>130.66666666666666</ele><time>2026-04-18T07:31:54.999Z</time></trkpt><trkpt lat="43.54942762953425" lon="10.719792025556382"><ele>134.33333333333334</ele><time>2026-04-18T07:31:55.999Z</time></trkpt><trkpt lat="43.5494819614108" lon="10.719868323967223"><ele>138.0</ele><time>2026-04-18T07:31:56.999Z</time></trkpt><trkpt lat="43.549532490459384" lon="10.719947246401068"><ele>136.33333333333334</ele><time>2026-04-18T07:31:57.999Z</time></trkpt><trkpt lat="43.54958047824637" lon="10.720029897808914"><ele>134.66666666666666</ele><time>2026-04-18T07:31:58.999Z</time></trkpt><trkpt lat="43.54962483830702" lon="10.720125029380034"><ele>133.0</ele><time>2026-04-18T07:31:59.999Z</time></trkpt><trkpt lat="43.549661436913205" lon="10.720228361303125"><ele>131.33333333333331</ele><time>2026-04-18T07:32:00.999Z</time></trkpt><trkpt lat="43.549681003658094" lon="10.72033711528692"><ele>129.66666666666666</ele><time>2026-04-18T07:32:01.999Z</time></trkpt><trkpt lat="43.54967830760295" lon="10.720449133362498"><ele>128.0</ele><time>2026-04-18T07:32:02.998Z</time></trkpt><trkpt lat="43.549668685314955" lon="10.720567980383372"><ele>128.0</ele><time>2026-04-18T07:32:03.998Z</time></trkpt><trkpt lat="43.5496673567768" lon="10.720675697377626"><ele>127.99999999999999</ele><time>2026-04-18T07:32:04.998Z</time></trkpt><trkpt lat="43.549662371072046" lon="10.720766165616515"><ele>128.0</ele><time>2026-04-18T07:32:05.998Z</time></trkpt><trkpt lat="43.54965582174308" lon="10.720867574585112"><ele>128.0</ele><time>2026-04-18T07:32:06.998Z</time></trkpt><trkpt lat="43.54964838112679" lon="10.72097545182875"><ele>127.99999999999999</ele><time>2026-04-18T07:32:07.998Z</time></trkpt><trkpt lat="43.54964453968777" lon="10.721084643607295"><ele>128.0</ele><time>2026-04-18T07:32:08.998Z</time></trkpt><trkpt lat="43.54963842754546" lon="10.721174706610428"><ele>128.0</ele><time>2026-04-18T07:32:09.998Z</time></trkpt><trkpt lat="43.549614480333" lon="10.721274724027982"><ele>129.20000000000002</ele><time>2026-04-18T07:32:11.998Z</time></trkpt><trkpt lat="43.5495532748332" lon="10.721420759521632"><ele>130.4</ele><time>2026-04-18T07:32:14Z</time></trkpt><trkpt lat="43.54956535160096" lon="10.721530104578042"><ele>131.60000000000002</ele><time>2026-04-18T07:32:15Z</time></trkpt><trkpt lat="43.54959340435395" lon="10.721632509085344"><ele>132.8</ele><time>2026-04-18T07:32:16Z</time></trkpt><trkpt lat="43.54962101145574" lon="10.721752210285038"><ele>134.0</ele><time>2026-04-18T07:32:17Z</time></trkpt><trkpt lat="43.54966269150477" lon="10.72186815808037"><ele>134.4</ele><time>2026-04-18T07:32:18Z</time></trkpt><trkpt lat="43.54970821273368" lon="10.721991305904867"><ele>134.8</ele><time>2026-04-18T07:32:19Z</time></trkpt><trkpt lat="43.549750058128716" lon="10.722102392528772"><ele>135.2</ele><time>2026-04-18T07:32:20Z</time></trkpt><trkpt lat="43.5497867503211" lon="10.722219591785208"><ele>135.6</ele><time>2026-04-18T07:32:21Z</time></trkpt><trkpt lat="43.54981515630459" lon="10.722337063424456"><ele>136.0</ele><time>2026-04-18T07:32:22Z</time></trkpt><trkpt lat="43.54983816903288" lon="10.722465775229809"><ele>136.0</ele><time>2026-04-18T07:32:23Z</time></trkpt><trkpt lat="43.54984933833737" lon="10.722608422076124"><ele>136.0</ele><time>2026-04-18T07:32:24Z</time></trkpt><trkpt lat="43.54984198722916" lon="10.722764879721534"><ele>136.0</ele><time>2026-04-18T07:32:25Z</time></trkpt><trkpt lat="43.54984713828206" lon="10.722913446315502"><ele>136.0</ele><time>2026-04-18T07:32:26Z</time></trkpt><trkpt lat="43.54988601811161" lon="10.723057927495244"><ele>136.0</ele><time>2026-04-18T07:32:27Z</time></trkpt><trkpt lat="43.54994052615326" lon="10.723198798325484"><ele>135.25</ele><time>2026-04-18T07:32:28Z</time></trkpt><trkpt lat="43.549988910067704" lon="10.723351016889586"><ele>134.5</ele><time>2026-04-18T07:32:29Z</time></trkpt><trkpt lat="43.55000758355492" lon="10.723513114741364"><ele>133.75</ele><time>2026-04-18T07:32:30Z</time></trkpt><trkpt lat="43.55002457964861" lon="10.723673186329426"><ele>133.0</ele><time>2026-04-18T07:32:31Z</time></trkpt><trkpt lat="43.550071633204674" lon="10.723822226876162"><ele>131.6</ele><time>2026-04-18T07:32:32Z</time></trkpt><trkpt lat="43.55014041739139" lon="10.723954344087517"><ele>130.20000000000002</ele><time>2026-04-18T07:32:33Z</time></trkpt><trkpt lat="43.55021217471878" lon="10.724060245298839"><ele>128.8</ele><time>2026-04-18T07:32:34Z</time></trkpt><trkpt lat="43.55028185132821" lon="10.72417446991326"><ele>127.4</ele><time>2026-04-18T07:32:35Z</time></trkpt><trkpt lat="43.55037919628606" lon="10.724254023225065"><ele>126.0</ele><time>2026-04-18T07:32:36Z</time></trkpt><trkpt lat="43.55049969832916" lon="10.724264316930727"><ele>126.0</ele><time>2026-04-18T07:32:37Z</time></trkpt><trkpt lat="43.55063517017788" lon="10.724267334591909"><ele>126.0</ele><time>2026-04-18T07:32:38Z</time></trkpt><trkpt lat="43.55077709283994" lon="10.724296636021668"><ele>126.0</ele><time>2026-04-18T07:32:39Z</time></trkpt><trkpt lat="43.55093120282914" lon="10.724325743301291"><ele>126.0</ele><time>2026-04-18T07:32:40Z</time></trkpt><trkpt lat="43.55108370468838" lon="10.724366703539415"><ele>119.75</ele><time>2026-04-18T07:32:41Z</time></trkpt><trkpt lat="43.55122298709669" lon="10.724431806879391"><ele>113.5</ele><time>2026-04-18T07:32:42Z</time></trkpt><trkpt lat="43.5513494084282" lon="10.724476910694746"><ele>107.25</ele><time>2026-04-18T07:32:43Z</time></trkpt><trkpt lat="43.551477282133945" lon="10.724523597139644"><ele>101.0</ele><time>2026-04-18T07:32:44Z</time></trkpt><trkpt lat="43.551601700576974" lon="10.72457191351383"><ele>101.0</ele><time>2026-04-18T07:32:45Z</time></trkpt><trkpt lat="43.55172628004601" lon="10.724608557757811"><ele>101.0</ele><time>2026-04-18T07:32:46Z</time></trkpt><trkpt lat="43.55185942489159" lon="10.724602145618638"><ele>101.0</ele><time>2026-04-18T07:32:47Z</time></trkpt><trkpt lat="43.55198504260318" lon="10.724623792605028"><ele>101.0</ele><time>2026-04-18T07:32:48Z</time></trkpt><trkpt lat="43.55210551432231" lon="10.724589341870892"><ele>99.5</ele><time>2026-04-18T07:32:49Z</time></trkpt><trkpt lat="43.55222996169042" lon="10.72457170268669"><ele>98.0</ele><time>2026-04-18T07:32:50Z</time></trkpt><trkpt lat="43.55235799294916" lon="10.724553431522095"><ele>96.5</ele><time>2026-04-18T07:32:51Z</time></trkpt><trkpt lat="43.5524902181614" lon="10.724554164084067"><ele>95.0</ele><time>2026-04-18T07:32:52Z</time></trkpt><trkpt lat="43.55262538021509" lon="10.724572024200134"><ele>95.0</ele><time>2026-04-18T07:32:53Z</time></trkpt><trkpt lat="43.552774339957146" lon="10.724605001818686"><ele>95.0</ele><time>2026-04-18T07:32:54Z</time></trkpt><trkpt lat="43.552936218720234" lon="10.724643918076357"><ele>95.0</ele><time>2026-04-18T07:32:55Z</time></trkpt><trkpt lat="43.553108140418" lon="10.724679230526153"><ele>92.0</ele><time>2026-04-18T07:32:56Z</time></trkpt><trkpt lat="43.55327160557543" lon="10.724712525917665"><ele>89.0</ele><time>2026-04-18T07:32:57Z</time></trkpt><trkpt lat="43.55342779388233" lon="10.72474342871332"><ele>86.0</ele><time>2026-04-18T07:32:58Z</time></trkpt><trkpt lat="43.55358111749616" lon="10.724778263402262"><ele>84.33333333333334</ele><time>2026-04-18T07:32:59Z</time></trkpt><trkpt lat="43.55373269882189" lon="10.72481417777589"><ele>82.66666666666667</ele><time>2026-04-18T07:33:00Z</time></trkpt><trkpt lat="43.55388497375617" lon="10.724850499996839"><ele>81.0</ele><time>2026-04-18T07:33:01Z</time></trkpt><trkpt lat="43.55403011068847" lon="10.724881767297644"><ele>81.0</ele><time>2026-04-18T07:33:01.999Z</time></trkpt><trkpt lat="43.55417786711948" lon="10.724903819770473"><ele>81.0</ele><time>2026-04-18T07:33:02.999Z</time></trkpt><trkpt lat="43.55433147598753" lon="10.724906593405628"><ele>81.0</ele><time>2026-04-18T07:33:03.999Z</time></trkpt><trkpt lat="43.554490850408754" lon="10.724904523581241"><ele>78.0</ele><time>2026-04-18T07:33:04.999Z</time></trkpt><trkpt lat="43.55464602080825" lon="10.72489926770873"><ele>75.0</ele><time>2026-04-18T07:33:05.999Z</time></trkpt><trkpt lat="43.55480226162501" lon="10.724890804024865"><ele>72.0</ele><time>2026-04-18T07:33:06.999Z</time></trkpt><trkpt lat="43.55496050320771" lon="10.724884280733635"><ele>72.0</ele><time>2026-04-18T07:33:07.999Z</time></trkpt><trkpt lat="43.5551146155693" lon="10.724881374935613"><ele>72.0</ele><time>2026-04-18T07:33:08.999Z</time></trkpt><trkpt lat="43.55526174137139" lon="10.724876832063245"><ele>72.0</ele><time>2026-04-18T07:33:09.999Z</time></trkpt><trkpt lat="43.55540818510778" lon="10.724878302543107"><ele>72.0</ele><time>2026-04-18T07:33:10.999Z</time></trkpt><trkpt lat="43.55555185937869" lon="10.724878757062747"><ele>70.75</ele><time>2026-04-18T07:33:11.999Z</time></trkpt><trkpt lat="43.55570273320561" lon="10.724881978543218"><ele>69.5</ele><time>2026-04-18T07:33:12.999Z</time></trkpt><trkpt lat="43.555846250191195" lon="10.72489928347723"><ele>68.25</ele><time>2026-04-18T07:33:13.999Z</time></trkpt><trkpt lat="43.55598976631736" lon="10.724932328945465"><ele>67.0</ele><time>2026-04-18T07:33:14.999Z</time></trkpt><trkpt lat="43.55613790156613" lon="10.72497714362165"><ele>66.5</ele><time>2026-04-18T07:33:15.999Z</time></trkpt><trkpt lat="43.556283344530115" lon="10.725027771637285"><ele>66.0</ele><time>2026-04-18T07:33:16.999Z</time></trkpt><trkpt lat="43.55640973046066" lon="10.72508699268745"><ele>65.5</ele><time>2026-04-18T07:33:17.999Z</time></trkpt><trkpt lat="43.55654714090843" lon="10.72513830751393"><ele>65.0</ele><time>2026-04-18T07:33:18.999Z</time></trkpt><trkpt lat="43.55668397852489" lon="10.725188969307116"><ele>61.75</ele><time>2026-04-18T07:33:19.999Z</time></trkpt><trkpt lat="43.556818358566744" lon="10.725240108895848"><ele>58.5</ele><time>2026-04-18T07:33:20.999Z</time></trkpt><trkpt lat="43.55695104772493" lon="10.72529843393138"><ele>55.25</ele><time>2026-04-18T07:33:21.999Z</time></trkpt><trkpt lat="43.55708732089525" lon="10.72536745338355"><ele>52.0</ele><time>2026-04-18T07:33:22.999Z</time></trkpt><trkpt lat="43.55721930280712" lon="10.72546392754779"><ele>51.5</ele><time>2026-04-18T07:33:23.999Z</time></trkpt><trkpt lat="43.55734113688304" lon="10.725592613001616"><ele>51.0</ele><time>2026-04-18T07:33:24.999Z</time></trkpt><trkpt lat="43.557446449266216" lon="10.725732406870184"><ele>50.5</ele><time>2026-04-18T07:33:25.999Z</time></trkpt><trkpt lat="43.557547192006766" lon="10.725880660139524"><ele>50.0</ele><time>2026-04-18T07:33:26.999Z</time></trkpt><trkpt lat="43.55764228726552" lon="10.726038475858006"><ele>49.333333333333336</ele><time>2026-04-18T07:33:27.999Z</time></trkpt><trkpt lat="43.55774147071022" lon="10.726196783176587"><ele>48.66666666666667</ele><time>2026-04-18T07:33:28.999Z</time></trkpt><trkpt lat="43.55784226115396" lon="10.726363648979648"><ele>48.0</ele><time>2026-04-18T07:33:29.999Z</time></trkpt><trkpt lat="43.55794792666039" lon="10.726528793259083"><ele>47.666666666666664</ele><time>2026-04-18T07:33:30.999Z</time></trkpt><trkpt lat="43.55805505582757" lon="10.726700869238293"><ele>47.33333333333333</ele><time>2026-04-18T07:33:31.999Z</time></trkpt><trkpt lat="43.558160546462666" lon="10.72687424568121"><ele>47.0</ele><time>2026-04-18T07:33:32.999Z</time></trkpt><trkpt lat="43.558262802927636" lon="10.727036557218327"><ele>47.0</ele><time>2026-04-18T07:33:33.999Z</time></trkpt><trkpt lat="43.55836937980062" lon="10.727200584683661"><ele>47.0</ele><time>2026-04-18T07:33:34.999Z</time></trkpt><trkpt lat="43.55847221907096" lon="10.727360822111997"><ele>47.0</ele><time>2026-04-18T07:33:35.999Z</time></trkpt><trkpt lat="43.55857372828444" lon="10.727520910743907"><ele>47.0</ele><time>2026-04-18T07:33:36.999Z</time></trkpt><trkpt lat="43.55867565103749" lon="10.727678149045209"><ele>47.0</ele><time>2026-04-18T07:33:37.999Z</time></trkpt><trkpt lat="43.55877313564906" lon="10.72782997620868"><ele>47.0</ele><time>2026-04-18T07:33:38.999Z</time></trkpt><trkpt lat="43.55886985487075" lon="10.727988680357731"><ele>47.0</ele><time>2026-04-18T07:33:39.999Z</time></trkpt><trkpt lat="43.55896428872438" lon="10.72814639858184"><ele>47.0</ele><time>2026-04-18T07:33:40.999Z</time></trkpt><trkpt lat="43.55905840504587" lon="10.728297168730625"><ele>47.0</ele><time>2026-04-18T07:33:41.999Z</time></trkpt><trkpt lat="43.559150305617365" lon="10.728449856888338"><ele>47.0</ele><time>2026-04-18T07:33:42.999Z</time></trkpt><trkpt lat="43.559244292988154" lon="10.728592928220191"><ele>47.5</ele><time>2026-04-18T07:33:43.999Z</time></trkpt><trkpt lat="43.559338526133175" lon="10.728737656254728"><ele>48.0</ele><time>2026-04-18T07:33:44.999Z</time></trkpt><trkpt lat="43.559433660610686" lon="10.728880208822147"><ele>48.5</ele><time>2026-04-18T07:33:45.999Z</time></trkpt><trkpt lat="43.55952952952934" lon="10.729033931521997"><ele>49.0</ele><time>2026-04-18T07:33:46.999Z</time></trkpt><trkpt lat="43.55962553539648" lon="10.729192912778574"><ele>48.0</ele><time>2026-04-18T07:33:47.999Z</time></trkpt><trkpt lat="43.55971846604545" lon="10.729345763371322"><ele>47.0</ele><time>2026-04-18T07:33:48.999Z</time></trkpt><trkpt lat="43.55981499627803" lon="10.729498290755751"><ele>46.0</ele><time>2026-04-18T07:33:49.999Z</time></trkpt><trkpt lat="43.55991414504534" lon="10.729651805426444"><ele>45.0</ele><time>2026-04-18T07:33:50.999Z</time></trkpt><trkpt lat="43.56000696604607" lon="10.729805673011086"><ele>45.0</ele><time>2026-04-18T07:33:51.999Z</time></trkpt><trkpt lat="43.560106431033226" lon="10.729962720909116"><ele>45.0</ele><time>2026-04-18T07:33:52.999Z</time></trkpt><trkpt lat="43.56021291513512" lon="10.730129182478052"><ele>45.0</ele><time>2026-04-18T07:33:53.999Z</time></trkpt><trkpt lat="43.56031862071104" lon="10.730298086264536"><ele>45.0</ele><time>2026-04-18T07:33:54.999Z</time></trkpt><trkpt lat="43.560434220711976" lon="10.730483298485215"><ele>45.0</ele><time>2026-04-18T07:33:55.999Z</time></trkpt><trkpt lat="43.56056485507794" lon="10.730695234739933"><ele>45.0</ele><time>2026-04-18T07:33:56.999Z</time></trkpt><trkpt lat="43.56070332983615" lon="10.73091404002951"><ele>45.666666666666664</ele><time>2026-04-18T07:33:57.999Z</time></trkpt><trkpt lat="43.560828435860316" lon="10.731116888391764"><ele>46.33333333333333</ele><time>2026-04-18T07:33:58.999Z</time></trkpt><trkpt lat="43.560951371284325" lon="10.731315180047739"><ele>47.0</ele><time>2026-04-18T07:33:59.999Z</time></trkpt><trkpt lat="43.56106549673025" lon="10.731494952644868"><ele>47.0</ele><time>2026-04-18T07:34:00.999Z</time></trkpt><trkpt lat="43.561180387890694" lon="10.731677135004485"><ele>47.0</ele><time>2026-04-18T07:34:01.999Z</time></trkpt><trkpt lat="43.561292430969445" lon="10.731858274885864"><ele>47.0</ele><time>2026-04-18T07:34:02.999Z</time></trkpt><trkpt lat="43.56140215510424" lon="10.732030347230479"><ele>46.33333333333333</ele><time>2026-04-18T07:34:03.999Z</time></trkpt><trkpt lat="43.56151153261723" lon="10.732203119815416"><ele>45.666666666666664</ele><time>2026-04-18T07:34:04.999Z</time></trkpt><trkpt lat="43.561622399752316" lon="10.732378033255367"><ele>45.0</ele><time>2026-04-18T07:34:05.999Z</time></trkpt><trkpt lat="43.56173022101894" lon="10.732550621148496"><ele>45.0</ele><time>2026-04-18T07:34:06.999Z</time></trkpt><trkpt lat="43.56183645255518" lon="10.73271412357474"><ele>45.0</ele><time>2026-04-18T07:34:07.999Z</time></trkpt><trkpt lat="43.561942993414036" lon="10.732874647168396"><ele>45.0</ele><time>2026-04-18T07:34:08.999Z</time></trkpt><trkpt lat="43.56204298007542" lon="10.733039959824051"><ele>45.666666666666664</ele><time>2026-04-18T07:34:09.999Z</time></trkpt><trkpt lat="43.562147706388515" lon="10.733213191809645"><ele>46.33333333333333</ele><time>2026-04-18T07:34:10.999Z</time></trkpt><trkpt lat="43.56225957750045" lon="10.733377598649575"><ele>47.0</ele><time>2026-04-18T07:34:11.998Z</time></trkpt><trkpt lat="43.562361886081256" lon="10.733541907718003"><ele>47.0</ele><time>2026-04-18T07:34:12.998Z</time></trkpt><trkpt lat="43.56246157169273" lon="10.733701724080376"><ele>47.0</ele><time>2026-04-18T07:34:13.998Z</time></trkpt><trkpt lat="43.56255949894105" lon="10.733854516941603"><ele>47.0</ele><time>2026-04-18T07:34:14.998Z</time></trkpt><trkpt lat="43.562660249109356" lon="10.734017004119472"><ele>47.0</ele><time>2026-04-18T07:34:15.998Z</time></trkpt><trkpt lat="43.56276338494874" lon="10.734187855091205"><ele>47.0</ele><time>2026-04-18T07:34:16.998Z</time></trkpt><trkpt lat="43.562866085874745" lon="10.734355852563315"><ele>47.0</ele><time>2026-04-18T07:34:17.998Z</time></trkpt><trkpt lat="43.56296552394212" lon="10.734531311251954"><ele>47.33333333333333</ele><time>2026-04-18T07:34:18.998Z</time></trkpt><trkpt lat="43.56306166716124" lon="10.734720654217297"><ele>47.666666666666664</ele><time>2026-04-18T07:34:20Z</time></trkpt><trkpt lat="43.563149299019514" lon="10.734916298945468"><ele>48.0</ele><time>2026-04-18T07:34:21Z</time></trkpt><trkpt lat="43.56323656994785" lon="10.735124278274645"><ele>47.666666666666664</ele><time>2026-04-18T07:34:22Z</time></trkpt><trkpt lat="43.563317804738276" lon="10.73532827068674"><ele>47.33333333333333</ele><time>2026-04-18T07:34:23Z</time></trkpt><trkpt lat="43.56339759258919" lon="10.73551942586103"><ele>47.0</ele><time>2026-04-18T07:34:24Z</time></trkpt><trkpt lat="43.56347558237243" lon="10.735697726640362"><ele>47.0</ele><time>2026-04-18T07:34:25Z</time></trkpt><trkpt lat="43.56355076399994" lon="10.735876813598907"><ele>47.0</ele><time>2026-04-18T07:34:26Z</time></trkpt><trkpt lat="43.563621893363596" lon="10.736053497926983"><ele>47.0</ele><time>2026-04-18T07:34:27Z</time></trkpt><trkpt lat="43.56369483678081" lon="10.736222413931332"><ele>47.0</ele><time>2026-04-18T07:34:28Z</time></trkpt><trkpt lat="43.563764761553955" lon="10.736387019348186"><ele>47.25</ele><time>2026-04-18T07:34:29Z</time></trkpt><trkpt lat="43.563829974008556" lon="10.736540017069085"><ele>47.5</ele><time>2026-04-18T07:34:30Z</time></trkpt><trkpt lat="43.56388892031046" lon="10.736688699027948"><ele>47.75</ele><time>2026-04-18T07:34:31Z</time></trkpt><trkpt lat="43.56395770128415" lon="10.736853410485718"><ele>48.0</ele><time>2026-04-18T07:34:32Z</time></trkpt><trkpt lat="43.56403118328131" lon="10.737019350074972"><ele>48.0</ele><time>2026-04-18T07:34:33Z</time></trkpt><trkpt lat="43.56410380775049" lon="10.737185636029487"><ele>48.0</ele><time>2026-04-18T07:34:34Z</time></trkpt><trkpt lat="43.56417773597158" lon="10.737358972105321"><ele>48.0</ele><time>2026-04-18T07:34:35Z</time></trkpt><trkpt lat="43.564251582128904" lon="10.737529907286353"><ele>48.0</ele><time>2026-04-18T07:34:36Z</time></trkpt><trkpt lat="43.56432190594808" lon="10.737699421838263"><ele>48.0</ele><time>2026-04-18T07:34:37Z</time></trkpt><trkpt lat="43.56439263067507" lon="10.737871375740344"><ele>48.0</ele><time>2026-04-18T07:34:38Z</time></trkpt><trkpt lat="43.56446621338262" lon="10.73804203926038"><ele>48.0</ele><time>2026-04-18T07:34:39Z</time></trkpt><trkpt lat="43.56454069811402" lon="10.738206389855058"><ele>48.0</ele><time>2026-04-18T07:34:40Z</time></trkpt><trkpt lat="43.56461157666608" lon="10.738370388986246"><ele>48.25</ele><time>2026-04-18T07:34:41Z</time></trkpt><trkpt lat="43.564678587415315" lon="10.738513119135389"><ele>48.5</ele><time>2026-04-18T07:34:42Z</time></trkpt><trkpt lat="43.564746466830236" lon="10.738644815816272"><ele>48.75</ele><time>2026-04-18T07:34:43Z</time></trkpt><trkpt lat="43.564819430144894" lon="10.738767719839496"><ele>49.0</ele><time>2026-04-18T07:34:44Z</time></trkpt><trkpt lat="43.56489351127617" lon="10.738877829109201"><ele>49.400000000000006</ele><time>2026-04-18T07:34:45Z</time></trkpt><trkpt lat="43.56496677566998" lon="10.73899489408692"><ele>49.8</ele><time>2026-04-18T07:34:46Z</time></trkpt><trkpt lat="43.56502573906678" lon="10.739115366490708"><ele>50.2</ele><time>2026-04-18T07:34:47Z</time></trkpt><trkpt lat="43.56505482294457" lon="10.739240426597183"><ele>50.599999999999994</ele><time>2026-04-18T07:34:48Z</time></trkpt><trkpt lat="43.565045528950264" lon="10.739363339695998"><ele>51.0</ele><time>2026-04-18T07:34:49Z</time></trkpt><trkpt lat="43.56500875658354" lon="10.739497758305008"><ele>51.5</ele><time>2026-04-18T07:34:50Z</time></trkpt><trkpt lat="43.56493945108356" lon="10.739630161126412"><ele>52.0</ele><time>2026-04-18T07:34:51Z</time></trkpt><trkpt lat="43.56484424560268" lon="10.739774642076755"><ele>52.5</ele><time>2026-04-18T07:34:52Z</time></trkpt><trkpt lat="43.56474987550368" lon="10.739940078176275"><ele>53.0</ele><time>2026-04-18T07:34:53Z</time></trkpt><trkpt lat="43.56465740199355" lon="10.740111721021858"><ele>53.0</ele><time>2026-04-18T07:34:54Z</time></trkpt><trkpt lat="43.56456373654331" lon="10.740278132674273"><ele>53.0</ele><time>2026-04-18T07:34:55Z</time></trkpt><trkpt lat="43.56446670669231" lon="10.740452746858582"><ele>53.0</ele><time>2026-04-18T07:34:56Z</time></trkpt><trkpt lat="43.56436790606743" lon="10.740629590588004"><ele>52.333333333333336</ele><time>2026-04-18T07:34:57Z</time></trkpt><trkpt lat="43.564268662032916" lon="10.74080463837675"><ele>51.66666666666667</ele><time>2026-04-18T07:34:58Z</time></trkpt><trkpt lat="43.56416676603327" lon="10.740986136203205"><ele>51.0</ele><time>2026-04-18T07:34:59Z</time></trkpt><trkpt lat="43.56406324032516" lon="10.741175806917061"><ele>53.0</ele><time>2026-04-18T07:35:00Z</time></trkpt><trkpt lat="43.56394690237436" lon="10.741387000868668"><ele>55.0</ele><time>2026-04-18T07:35:01Z</time></trkpt><trkpt lat="43.56382912807984" lon="10.741594170413302"><ele>57.0</ele><time>2026-04-18T07:35:02Z</time></trkpt><trkpt lat="43.56371311873068" lon="10.741800715779917"><ele>56.33333333333333</ele><time>2026-04-18T07:35:03Z</time></trkpt><trkpt lat="43.56360477794294" lon="10.742000438766464"><ele>55.666666666666664</ele><time>2026-04-18T07:35:04Z</time></trkpt><trkpt lat="43.56350094680743" lon="10.742186884275025"><ele>55.0</ele><time>2026-04-18T07:35:05Z</time></trkpt><trkpt lat="43.563405267296865" lon="10.742353885298291"><ele>55.0</ele><time>2026-04-18T07:35:06Z</time></trkpt><trkpt lat="43.56331569874489" lon="10.742509592514134"><ele>55.0</ele><time>2026-04-18T07:35:07Z</time></trkpt><trkpt lat="43.56323356345009" lon="10.742656286254062"><ele>55.0</ele><time>2026-04-18T07:35:07.999Z</time></trkpt><trkpt lat="43.56314741533727" lon="10.742810428747939"><ele>55.0</ele><time>2026-04-18T07:35:08.999Z</time></trkpt><trkpt lat="43.56305652508934" lon="10.74296832688559"><ele>56.0</ele><time>2026-04-18T07:35:09.999Z</time></trkpt><trkpt lat="43.562962422394605" lon="10.743134160055344"><ele>57.0</ele><time>2026-04-18T07:35:10.999Z</time></trkpt><trkpt lat="43.56286413551799" lon="10.743307225295775"><ele>58.0</ele><time>2026-04-18T07:35:11.999Z</time></trkpt><trkpt lat="43.562766871808606" lon="10.743478931875094"><ele>57.0</ele><time>2026-04-18T07:35:12.999Z</time></trkpt><trkpt lat="43.5626682313449" lon="10.743657999253731"><ele>56.0</ele><time>2026-04-18T07:35:13.999Z</time></trkpt><trkpt lat="43.562568357614175" lon="10.743841714126997"><ele>55.0</ele><time>2026-04-18T07:35:14.999Z</time></trkpt><trkpt lat="43.562474703570565" lon="10.744034555338862"><ele>55.0</ele><time>2026-04-18T07:35:15.999Z</time></trkpt><trkpt lat="43.562390032510514" lon="10.744240431677394"><ele>55.0</ele><time>2026-04-18T07:35:16.999Z</time></trkpt><trkpt lat="43.562319317262144" lon="10.744452938016755"><ele>55.0</ele><time>2026-04-18T07:35:17.999Z</time></trkpt><trkpt lat="43.56226050499805" lon="10.744677944829526"><ele>56.0</ele><time>2026-04-18T07:35:18.999Z</time></trkpt><trkpt lat="43.56221278809557" lon="10.744908261287124"><ele>57.0</ele><time>2026-04-18T07:35:19.999Z</time></trkpt><trkpt lat="43.56217706114886" lon="10.745143958406128"><ele>58.0</ele><time>2026-04-18T07:35:20.999Z</time></trkpt><trkpt lat="43.562150558118915" lon="10.745384409757268"><ele>58.0</ele><time>2026-04-18T07:35:21.999Z</time></trkpt><trkpt lat="43.562135254001305" lon="10.74562757404069"><ele>58.0</ele><time>2026-04-18T07:35:22.999Z</time></trkpt><trkpt lat="43.56212803710373" lon="10.74587117398686"><ele>58.0</ele><time>2026-04-18T07:35:23.999Z</time></trkpt><trkpt lat="43.56212557732425" lon="10.746112132626038"><ele>56.666666666666664</ele><time>2026-04-18T07:35:24.999Z</time></trkpt><trkpt lat="43.562135046322005" lon="10.746349987416913"><ele>55.33333333333333</ele><time>2026-04-18T07:35:25.999Z</time></trkpt><trkpt lat="43.562155662884884" lon="10.746580223639267"><ele>54.0</ele><time>2026-04-18T07:35:26.999Z</time></trkpt><trkpt lat="43.56219419805099" lon="10.746808528001939"><ele>53.33333333333333</ele><time>2026-04-18T07:35:27.999Z</time></trkpt><trkpt lat="43.56224228285829" lon="10.747036610469227"><ele>52.666666666666664</ele><time>2026-04-18T07:35:28.999Z</time></trkpt><trkpt lat="43.56230156067044" lon="10.747252958475144"><ele>52.0</ele><time>2026-04-18T07:35:29.999Z</time></trkpt><trkpt lat="43.56236357722601" lon="10.74744005906289"><ele>52.0</ele><time>2026-04-18T07:35:30.999Z</time></trkpt><trkpt lat="43.56242560833205" lon="10.747617838953023"><ele>52.0</ele><time>2026-04-18T07:35:31.999Z</time></trkpt><trkpt lat="43.562484069077776" lon="10.747797851528803"><ele>52.0</ele><time>2026-04-18T07:35:32.999Z</time></trkpt><trkpt lat="43.56254713255913" lon="10.747989476380061"><ele>52.0</ele><time>2026-04-18T07:35:33.999Z</time></trkpt><trkpt lat="43.5626120400917" lon="10.748179141283405"><ele>52.0</ele><time>2026-04-18T07:35:34.999Z</time></trkpt><trkpt lat="43.56267696551168" lon="10.74837742527465"><ele>52.0</ele><time>2026-04-18T07:35:35.999Z</time></trkpt><trkpt lat="43.562749554086494" lon="10.748583906157634"><ele>52.0</ele><time>2026-04-18T07:35:36.999Z</time></trkpt><trkpt lat="43.56282114287873" lon="10.748783763583154"><ele>53.33333333333333</ele><time>2026-04-18T07:35:37.999Z</time></trkpt><trkpt lat="43.56289134468575" lon="10.748992898737976"><ele>54.66666666666667</ele><time>2026-04-18T07:35:38.999Z</time></trkpt><trkpt lat="43.56296174948904" lon="10.749204541200893"><ele>56.0</ele><time>2026-04-18T07:35:39.999Z</time></trkpt><trkpt lat="43.563034126521906" lon="10.749420289510526"><ele>56.333333333333336</ele><time>2026-04-18T07:35:40.999Z</time></trkpt><trkpt lat="43.56310916988849" lon="10.749639154621766"><ele>56.66666666666667</ele><time>2026-04-18T07:35:41.999Z</time></trkpt><trkpt lat="43.56318330999206" lon="10.749859874519279"><ele>57.0</ele><time>2026-04-18T07:35:42.999Z</time></trkpt><trkpt lat="43.56325426502193" lon="10.75008120631494"><ele>55.66666666666667</ele><time>2026-04-18T07:35:43.999Z</time></trkpt><trkpt lat="43.563329953337" lon="10.750295476362993"><ele>54.333333333333336</ele><time>2026-04-18T07:35:44.999Z</time></trkpt><trkpt lat="43.56340769283361" lon="10.750494584295364"><ele>53.0</ele><time>2026-04-18T07:35:45.999Z</time></trkpt><trkpt lat="43.563464159539215" lon="10.750702994034672"><ele>53.0</ele><time>2026-04-18T07:35:46.999Z</time></trkpt><trkpt lat="43.56352887672373" lon="10.750891930503991"><ele>53.0</ele><time>2026-04-18T07:35:47.999Z</time></trkpt><trkpt lat="43.56359151447206" lon="10.751082575197877"><ele>53.0</ele><time>2026-04-18T07:35:48.999Z</time></trkpt><trkpt lat="43.56365680096199" lon="10.751271283244138"><ele>57.66666666666667</ele><time>2026-04-18T07:35:49.999Z</time></trkpt><trkpt lat="43.56372099091908" lon="10.751460746191295"><ele>62.33333333333333</ele><time>2026-04-18T07:35:50.999Z</time></trkpt><trkpt lat="43.56378374035433" lon="10.75164917231661"><ele>67.0</ele><time>2026-04-18T07:35:51.999Z</time></trkpt><trkpt lat="43.56384927306639" lon="10.751839778810753"><ele>64.66666666666666</ele><time>2026-04-18T07:35:52.999Z</time></trkpt><trkpt lat="43.56391371527921" lon="10.752032669339943"><ele>62.33333333333333</ele><time>2026-04-18T07:35:53.999Z</time></trkpt><trkpt lat="43.563976577114296" lon="10.752225548286306"><ele>60.0</ele><time>2026-04-18T07:35:54.999Z</time></trkpt><trkpt lat="43.56404278241372" lon="10.752418388024278"><ele>60.0</ele><time>2026-04-18T07:35:55.999Z</time></trkpt><trkpt lat="43.564111364535314" lon="10.75261017602085"><ele>60.0</ele><time>2026-04-18T07:35:56.999Z</time></trkpt><trkpt lat="43.56419033826809" lon="10.752795383679015"><ele>60.0</ele><time>2026-04-18T07:35:57.999Z</time></trkpt><trkpt lat="43.56427752211407" lon="10.752974037239278"><ele>58.0</ele><time>2026-04-18T07:35:58.999Z</time></trkpt><trkpt lat="43.56437613695554" lon="10.753152749846008"><ele>56.0</ele><time>2026-04-18T07:35:59.999Z</time></trkpt><trkpt lat="43.56448310634947" lon="10.753321646086079"><ele>54.0</ele><time>2026-04-18T07:36:00.999Z</time></trkpt><trkpt lat="43.564596431705226" lon="10.753479873188823"><ele>55.0</ele><time>2026-04-18T07:36:01.999Z</time></trkpt><trkpt lat="43.56471528789153" lon="10.753627096991911"><ele>56.0</ele><time>2026-04-18T07:36:02.999Z</time></trkpt><trkpt lat="43.56484005654531" lon="10.753753798974834"><ele>57.0</ele><time>2026-04-18T07:36:03.999Z</time></trkpt><trkpt lat="43.56496500805744" lon="10.753869206745"><ele>57.0</ele><time>2026-04-18T07:36:04.999Z</time></trkpt><trkpt lat="43.565088495971224" lon="10.753974648573037"><ele>57.0</ele><time>2026-04-18T07:36:05.999Z</time></trkpt><trkpt lat="43.565210840592464" lon="10.754081245815696"><ele>57.0</ele><time>2026-04-18T07:36:06.999Z</time></trkpt><trkpt lat="43.565335563979296" lon="10.75418947092855"><ele>57.0</ele><time>2026-04-18T07:36:07.999Z</time></trkpt><trkpt lat="43.56546404908612" lon="10.754297704247351"><ele>56.66666666666667</ele><time>2026-04-18T07:36:08.999Z</time></trkpt><trkpt lat="43.56559342292395" lon="10.754401765271025"><ele>56.333333333333336</ele><time>2026-04-18T07:36:09.999Z</time></trkpt><trkpt lat="43.56572366669938" lon="10.754509608164758"><ele>56.0</ele><time>2026-04-18T07:36:10.999Z</time></trkpt><trkpt lat="43.56585399453526" lon="10.754618329647228"><ele>56.0</ele><time>2026-04-18T07:36:11.999Z</time></trkpt><trkpt lat="43.56598303231679" lon="10.75472817847508"><ele>56.0</ele><time>2026-04-18T07:36:12.999Z</time></trkpt><trkpt lat="43.56611317422907" lon="10.75483553804182"><ele>56.0</ele><time>2026-04-18T07:36:13.999Z</time></trkpt><trkpt lat="43.56624262404877" lon="10.754946208286832"><ele>56.66666666666667</ele><time>2026-04-18T07:36:14.999Z</time></trkpt><trkpt lat="43.566373018966054" lon="10.755059007484608"><ele>57.33333333333333</ele><time>2026-04-18T07:36:15.999Z</time></trkpt><trkpt lat="43.566503749466456" lon="10.755169833470008"><ele>58.0</ele><time>2026-04-18T07:36:16.999Z</time></trkpt><trkpt lat="43.56664488115445" lon="10.75528962924515"><ele>58.0</ele><time>2026-04-18T07:36:17.998Z</time></trkpt><trkpt lat="43.56678916682135" lon="10.755411038658405"><ele>58.0</ele><time>2026-04-18T07:36:18.998Z</time></trkpt><trkpt lat="43.56693156591727" lon="10.755528696424342"><ele>58.0</ele><time>2026-04-18T07:36:19.998Z</time></trkpt><trkpt lat="43.56707146621953" lon="10.755646119748043"><ele>58.0</ele><time>2026-04-18T07:36:20.998Z</time></trkpt><trkpt lat="43.56721199308482" lon="10.755759935173268"><ele>58.0</ele><time>2026-04-18T07:36:21.998Z</time></trkpt><trkpt lat="43.56735169051073" lon="10.755876507804018"><ele>58.0</ele><time>2026-04-18T07:36:22.998Z</time></trkpt><trkpt lat="43.56748637501616" lon="10.75599462447999"><ele>58.33333333333333</ele><time>2026-04-18T07:36:23.998Z</time></trkpt><trkpt lat="43.567622469969805" lon="10.756110421680301"><ele>58.66666666666667</ele><time>2026-04-18T07:36:24.998Z</time></trkpt><trkpt lat="43.56775876900407" lon="10.756227157025261"><ele>59.0</ele><time>2026-04-18T07:36:26Z</time></trkpt><trkpt lat="43.56789458586404" lon="10.756342742319331"><ele>59.0</ele><time>2026-04-18T07:36:27Z</time></trkpt><trkpt lat="43.56802917978712" lon="10.756454244402203"><ele>59.0</ele><time>2026-04-18T07:36:28Z</time></trkpt><trkpt lat="43.568160687937905" lon="10.756564132702612"><ele>59.0</ele><time>2026-04-18T07:36:29Z</time></trkpt><trkpt lat="43.56828638800185" lon="10.75666557223334"><ele>59.0</ele><time>2026-04-18T07:36:30Z</time></trkpt><trkpt lat="43.5684019507127" lon="10.756760086875733"><ele>59.0</ele><time>2026-04-18T07:36:31Z</time></trkpt><trkpt lat="43.56850983140486" lon="10.756850128630727"><ele>59.0</ele><time>2026-04-18T07:36:32Z</time></trkpt><trkpt lat="43.56861509775486" lon="10.75693779762532"><ele>59.0</ele><time>2026-04-18T07:36:33Z</time></trkpt><trkpt lat="43.56871435827996" lon="10.757022640671199"><ele>58.6</ele><time>2026-04-18T07:36:34Z</time></trkpt><trkpt lat="43.56881872459025" lon="10.75711227224455"><ele>58.2</ele><time>2026-04-18T07:36:35Z</time></trkpt><trkpt lat="43.568914894476414" lon="10.757194596815701"><ele>57.800000000000004</ele><time>2026-04-18T07:36:36Z</time></trkpt><trkpt lat="43.569005476194754" lon="10.757272520873158"><ele>57.400000000000006</ele><time>2026-04-18T07:36:37Z</time></trkpt><trkpt lat="43.56908203098216" lon="10.757338393976099"><ele>57.0</ele><time>2026-04-18T07:36:38Z</time></trkpt><trkpt lat="43.56914184613718" lon="10.757389051972806"><ele>57.0</ele><time>2026-04-18T07:36:39Z</time></trkpt><trkpt lat="43.5692333381495" lon="10.757462155143376"><ele>57.0</ele><time>2026-04-18T07:36:41Z</time></trkpt><trkpt lat="43.56929291051345" lon="10.757522149572058"><ele>57.0</ele><time>2026-04-18T07:36:43Z</time></trkpt><trkpt lat="43.569127809827634" lon="10.757705977731696"><ele>57.0</ele><time>2026-04-18T07:36:47Z</time></trkpt><trkpt lat="43.5690851023266" lon="10.757825905212623"><ele>56.75</ele><time>2026-04-18T07:36:48Z</time></trkpt><trkpt lat="43.569022466540574" lon="10.757972837356348"><ele>56.5</ele><time>2026-04-18T07:36:49Z</time></trkpt><trkpt lat="43.568955802066974" lon="10.758132218681359"><ele>56.25</ele><time>2026-04-18T07:36:50Z</time></trkpt><trkpt lat="43.56889220513451" lon="10.758272383029814"><ele>56.0</ele><time>2026-04-18T07:36:51Z</time></trkpt><trkpt lat="43.56883059447593" lon="10.758409849378019"><ele>56.25</ele><time>2026-04-18T07:36:52Z</time></trkpt><trkpt lat="43.568764197304766" lon="10.758556834407308"><ele>56.5</ele><time>2026-04-18T07:36:53Z</time></trkpt><trkpt lat="43.56868805628614" lon="10.75870455331077"><ele>56.75</ele><time>2026-04-18T07:36:54Z</time></trkpt><trkpt lat="43.56859979660651" lon="10.75882437331889"><ele>57.0</ele><time>2026-04-18T07:36:55Z</time></trkpt><trkpt lat="43.56851153274705" lon="10.758938737842612"><ele>56.2</ele><time>2026-04-18T07:36:56Z</time></trkpt><trkpt lat="43.56842649356878" lon="10.759048607270149"><ele>55.400000000000006</ele><time>2026-04-18T07:36:57Z</time></trkpt><trkpt lat="43.56834755135847" lon="10.759149500211516"><ele>54.599999999999994</ele><time>2026-04-18T07:36:58Z</time></trkpt><trkpt lat="43.56828059504192" lon="10.759253398490898"><ele>53.8</ele><time>2026-04-18T07:36:59Z</time></trkpt><trkpt lat="43.56824264946977" lon="10.75935626131492"><ele>53.0</ele><time>2026-04-18T07:37:00Z</time></trkpt><trkpt lat="43.56820556342784" lon="10.759437828676093"><ele>53.0</ele><time>2026-04-18T07:37:01Z</time></trkpt><trkpt lat="43.56810038615515" lon="10.75951184770194"><ele>53.0</ele><time>2026-04-18T07:37:03Z</time></trkpt><trkpt lat="43.568033254966245" lon="10.759504782878412"><ele>53.0</ele><time>2026-04-18T07:37:04Z</time></trkpt><trkpt lat="43.56796597214987" lon="10.759503174902592"><ele>53.0</ele><time>2026-04-18T07:37:05Z</time></trkpt><trkpt lat="43.56785416370107" lon="10.759510391329684"><ele>53.0</ele><time>2026-04-18T07:37:07Z</time></trkpt><trkpt lat="43.56773121789088" lon="10.759551905026635"><ele>54.4</ele><time>2026-04-18T07:37:09Z</time></trkpt><trkpt lat="43.567623100749586" lon="10.75954309695212"><ele>55.8</ele><time>2026-04-18T07:37:11Z</time></trkpt><trkpt lat="43.567559596943696" lon="10.759549334786994"><ele>57.2</ele><time>2026-04-18T07:37:12Z</time></trkpt><trkpt lat="43.567472962902265" lon="10.759607875557291"><ele>58.6</ele><time>2026-04-18T07:37:14Z</time></trkpt><trkpt lat="43.56741872881531" lon="10.759667086370673"><ele>60.0</ele><time>2026-04-18T07:37:15Z</time></trkpt><trkpt lat="43.56730443030518" lon="10.759813172352107"><ele>60.0</ele><time>2026-04-18T07:37:15.999Z</time></trkpt><trkpt lat="43.56721677943941" lon="10.759906475883273"><ele>60.0</ele><time>2026-04-18T07:37:16.999Z</time></trkpt><trkpt lat="43.56711250242528" lon="10.760000240014243"><ele>60.0</ele><time>2026-04-18T07:37:17.999Z</time></trkpt><trkpt lat="43.56701789909772" lon="10.760061098484693"><ele>60.0</ele><time>2026-04-18T07:37:18.999Z</time></trkpt><trkpt lat="43.56695148135911" lon="10.760100720472456"><ele>60.0</ele><time>2026-04-18T07:37:19.999Z</time></trkpt><trkpt lat="43.56688946010605" lon="10.760160094084194"><ele>62.2</ele><time>2026-04-18T07:37:20.999Z</time></trkpt><trkpt lat="43.56680449746239" lon="10.760212979633303"><ele>64.4</ele><time>2026-04-18T07:37:21.999Z</time></trkpt><trkpt lat="43.56672754412889" lon="10.760311431617614"><ele>66.6</ele><time>2026-04-18T07:37:22.999Z</time></trkpt><trkpt lat="43.566639853931385" lon="10.76040136998612"><ele>68.8</ele><time>2026-04-18T07:37:23.999Z</time></trkpt><trkpt lat="43.56656353803331" lon="10.760469767445922"><ele>71.0</ele><time>2026-04-18T07:37:24.999Z</time></trkpt><trkpt lat="43.56649634592255" lon="10.760543200707913"><ele>71.0</ele><time>2026-04-18T07:37:25.999Z</time></trkpt><trkpt lat="43.56640652647949" lon="10.760666698065318"><ele>71.0</ele><time>2026-04-18T07:37:27.999Z</time></trkpt><trkpt lat="43.56636677798824" lon="10.760756880154506"><ele>71.0</ele><time>2026-04-18T07:37:28.999Z</time></trkpt><trkpt lat="43.56630861001733" lon="10.760855955660633"><ele>71.0</ele><time>2026-04-18T07:37:29.999Z</time></trkpt><trkpt lat="43.56626152923209" lon="10.760949041594587"><ele>71.0</ele><time>2026-04-18T07:37:30.999Z</time></trkpt><trkpt lat="43.56621983398316" lon="10.76106929783578"><ele>71.8</ele><time>2026-04-18T07:37:31.999Z</time></trkpt><trkpt lat="43.5662039950519" lon="10.761179107420693"><ele>72.6</ele><time>2026-04-18T07:37:32.999Z</time></trkpt><trkpt lat="43.56621827617457" lon="10.761321308293134"><ele>73.4</ele><time>2026-04-18T07:37:33.999Z</time></trkpt><trkpt lat="43.566243148960794" lon="10.761465598314071"><ele>74.2</ele><time>2026-04-18T07:37:34.999Z</time></trkpt><trkpt lat="43.56625200709771" lon="10.761596552041908"><ele>75.0</ele><time>2026-04-18T07:37:35.999Z</time></trkpt><trkpt lat="43.566237797407744" lon="10.761762752140367"><ele>74.8</ele><time>2026-04-18T07:37:36.999Z</time></trkpt><trkpt lat="43.5662054941842" lon="10.761925017900909"><ele>74.6</ele><time>2026-04-18T07:37:37.999Z</time></trkpt><trkpt lat="43.56617409191516" lon="10.762065442106648"><ele>74.4</ele><time>2026-04-18T07:37:38.999Z</time></trkpt><trkpt lat="43.56614390768918" lon="10.762195243288811"><ele>74.2</ele><time>2026-04-18T07:37:39.999Z</time></trkpt><trkpt lat="43.566104743147434" lon="10.762305867831513"><ele>74.0</ele><time>2026-04-18T07:37:40.999Z</time></trkpt><trkpt lat="43.566067538825564" lon="10.762431436815636"><ele>69.75</ele><time>2026-04-18T07:37:41.999Z</time></trkpt><trkpt lat="43.56604198253472" lon="10.762600746377073"><ele>65.5</ele><time>2026-04-18T07:37:42.999Z</time></trkpt><trkpt lat="43.56602583712564" lon="10.762765710357485"><ele>61.25</ele><time>2026-04-18T07:37:43.999Z</time></trkpt><trkpt lat="43.566019479517934" lon="10.762939112570528"><ele>57.0</ele><time>2026-04-18T07:37:44.999Z</time></trkpt><trkpt lat="43.56603114577622" lon="10.76312143500002"><ele>57.0</ele><time>2026-04-18T07:37:45.999Z</time></trkpt><trkpt lat="43.56604509309842" lon="10.763305245416838"><ele>57.0</ele><time>2026-04-18T07:37:46.999Z</time></trkpt><trkpt lat="43.56605327054433" lon="10.763501285095968"><ele>57.0</ele><time>2026-04-18T07:37:47.999Z</time></trkpt><trkpt lat="43.566066085909114" lon="10.7636867547943"><ele>57.0</ele><time>2026-04-18T07:37:48.999Z</time></trkpt><trkpt lat="43.56607497093273" lon="10.763853359876869"><ele>57.25</ele><time>2026-04-18T07:37:49.999Z</time></trkpt><trkpt lat="43.56608532320695" lon="10.764024083490131"><ele>57.5</ele><time>2026-04-18T07:37:50.999Z</time></trkpt><trkpt lat="43.5660976018175" lon="10.764212132183154"><ele>57.75</ele><time>2026-04-18T07:37:51.999Z</time></trkpt><trkpt lat="43.56611219759507" lon="10.764380327247691"><ele>58.0</ele><time>2026-04-18T07:37:52.999Z</time></trkpt><trkpt lat="43.56614004804453" lon="10.764558397933625"><ele>58.25</ele><time>2026-04-18T07:37:53.999Z</time></trkpt><trkpt lat="43.566177121642674" lon="10.764720231422816"><ele>58.5</ele><time>2026-04-18T07:37:54.999Z</time></trkpt><trkpt lat="43.566205194698064" lon="10.764885991202437"><ele>58.75</ele><time>2026-04-18T07:37:55.999Z</time></trkpt><trkpt lat="43.56623800505139" lon="10.765048463184243"><ele>59.0</ele><time>2026-04-18T07:37:56.999Z</time></trkpt><trkpt lat="43.56628297836448" lon="10.765215419397887"><ele>62.75</ele><time>2026-04-18T07:37:57.999Z</time></trkpt><trkpt lat="43.56632710094672" lon="10.76538092271827"><ele>66.5</ele><time>2026-04-18T07:37:58.999Z</time></trkpt><trkpt lat="43.56635792313603" lon="10.765558727511497"><ele>70.25</ele><time>2026-04-18T07:37:59.999Z</time></trkpt><trkpt lat="43.5663765792596" lon="10.765747836500514"><ele>74.0</ele><time>2026-04-18T07:38:00.999Z</time></trkpt><trkpt lat="43.566378164375465" lon="10.765950443306165"><ele>73.33333333333334</ele><time>2026-04-18T07:38:01.999Z</time></trkpt><trkpt lat="43.5663775400453" lon="10.766149743504387"><ele>72.66666666666667</ele><time>2026-04-18T07:38:02.999Z</time></trkpt><trkpt lat="43.56637663874387" lon="10.766371682167843"><ele>72.0</ele><time>2026-04-18T07:38:03.999Z</time></trkpt><trkpt lat="43.56638248799662" lon="10.766579822310158"><ele>72.0</ele><time>2026-04-18T07:38:04.999Z</time></trkpt><trkpt lat="43.56639056014084" lon="10.766792226917927"><ele>72.0</ele><time>2026-04-18T07:38:05.999Z</time></trkpt><trkpt lat="43.56638289589028" lon="10.767022144742098"><ele>72.0</ele><time>2026-04-18T07:38:06.999Z</time></trkpt><trkpt lat="43.5663771139431" lon="10.767224241206277"><ele>72.25</ele><time>2026-04-18T07:38:07.999Z</time></trkpt><trkpt lat="43.56636850943513" lon="10.76742455117409"><ele>72.5</ele><time>2026-04-18T07:38:08.999Z</time></trkpt><trkpt lat="43.56636652513273" lon="10.76762802508475"><ele>72.75</ele><time>2026-04-18T07:38:09.999Z</time></trkpt><trkpt lat="43.56636619300194" lon="10.767822864167329"><ele>73.0</ele><time>2026-04-18T07:38:10.999Z</time></trkpt><trkpt lat="43.56637046697131" lon="10.767988032889967"><ele>72.75</ele><time>2026-04-18T07:38:11.999Z</time></trkpt><trkpt lat="43.56639060025021" lon="10.76814277118172"><ele>72.5</ele><time>2026-04-18T07:38:12.999Z</time></trkpt><trkpt lat="43.56643619077828" lon="10.768304001830266"><ele>72.25</ele><time>2026-04-18T07:38:13.999Z</time></trkpt><trkpt lat="43.56649423230975" lon="10.76846077167885"><ele>72.0</ele><time>2026-04-18T07:38:14.999Z</time></trkpt><trkpt lat="43.56653292565567" lon="10.768599147522908"><ele>72.0</ele><time>2026-04-18T07:38:15.999Z</time></trkpt><trkpt lat="43.56654909581931" lon="10.76876907674324"><ele>72.0</ele><time>2026-04-18T07:38:16.999Z</time></trkpt><trkpt lat="43.56655512423441" lon="10.76893370047374"><ele>72.0</ele><time>2026-04-18T07:38:17.999Z</time></trkpt><trkpt lat="43.566558370711554" lon="10.769079096139691"><ele>72.0</ele><time>2026-04-18T07:38:18.999Z</time></trkpt><trkpt lat="43.56656649594643" lon="10.769237724729507"><ele>71.8</ele><time>2026-04-18T07:38:19.999Z</time></trkpt><trkpt lat="43.56657699685665" lon="10.76940607158646"><ele>71.6</ele><time>2026-04-18T07:38:20.999Z</time></trkpt><trkpt lat="43.56658174638275" lon="10.7695382755464"><ele>71.39999999999999</ele><time>2026-04-18T07:38:21.999Z</time></trkpt><trkpt lat="43.5665868345773" lon="10.769680645791812"><ele>71.2</ele><time>2026-04-18T07:38:22.999Z</time></trkpt><trkpt lat="43.566586234279065" lon="10.769845245274512"><ele>71.0</ele><time>2026-04-18T07:38:23.999Z</time></trkpt><trkpt lat="43.566569449777376" lon="10.770025754543552"><ele>71.0</ele><time>2026-04-18T07:38:24.998Z</time></trkpt><trkpt lat="43.56654365239135" lon="10.770152626064469"><ele>71.0</ele><time>2026-04-18T07:38:25.998Z</time></trkpt><trkpt lat="43.5665162253528" lon="10.770256118787675"><ele>71.0</ele><time>2026-04-18T07:38:26.998Z</time></trkpt><trkpt lat="43.566484773034524" lon="10.770363796484087"><ele>71.0</ele><time>2026-04-18T07:38:27.998Z</time></trkpt><trkpt lat="43.56642698512773" lon="10.7704421988626"><ele>71.0</ele><time>2026-04-18T07:38:28.998Z</time></trkpt><trkpt lat="43.566355408327766" lon="10.770508541608963"><ele>71.0</ele><time>2026-04-18T07:38:29.998Z</time></trkpt><trkpt lat="43.56627810176678" lon="10.770502679591843"><ele>69.83333333333334</ele><time>2026-04-18T07:38:30.998Z</time></trkpt><trkpt lat="43.566209180692404" lon="10.77051411860578"><ele>68.66666666666667</ele><time>2026-04-18T07:38:32Z</time></trkpt><trkpt lat="43.56615550132024" lon="10.770571899640538"><ele>67.5</ele><time>2026-04-18T07:38:35Z</time></trkpt><trkpt lat="43.566251166264095" lon="10.770509264352938"><ele>66.33333333333333</ele><time>2026-04-18T07:38:43Z</time></trkpt><trkpt lat="43.566340797804365" lon="10.770429282996"><ele>65.16666666666666</ele><time>2026-04-18T07:38:45Z</time></trkpt><trkpt lat="43.56640467514984" lon="10.770404967529787"><ele>64.0</ele><time>2026-04-18T07:38:47Z</time></trkpt><trkpt lat="43.566546703760714" lon="10.77024879643643"><ele>65.16666666666666</ele><time>2026-04-18T07:38:56Z</time></trkpt><trkpt lat="43.56658168601061" lon="10.770154434856163"><ele>66.33333333333333</ele><time>2026-04-18T07:38:58Z</time></trkpt><trkpt lat="43.566602554446106" lon="10.769986511549405"><ele>67.5</ele><time>2026-04-18T07:39:00Z</time></trkpt><trkpt lat="43.566612649365865" lon="10.769872769299118"><ele>68.66666666666667</ele><time>2026-04-18T07:39:02Z</time></trkpt><trkpt lat="43.56661241549427" lon="10.769778139000445"><ele>69.83333333333334</ele><time>2026-04-18T07:39:06Z</time></trkpt><trkpt lat="43.56661700397764" lon="10.769649612496904"><ele>71.0</ele><time>2026-04-18T07:39:10Z</time></trkpt><trkpt lat="43.566613072001836" lon="10.769510948011531"><ele>71.0</ele><time>2026-04-18T07:39:12Z</time></trkpt><trkpt lat="43.566606771107836" lon="10.769372986115911"><ele>71.0</ele><time>2026-04-18T07:39:14Z</time></trkpt><trkpt lat="43.56659071787033" lon="10.769228427690889"><ele>71.0</ele><time>2026-04-18T07:39:15.999Z</time></trkpt><trkpt lat="43.566578351899274" lon="10.769041754842618"><ele>71.0</ele><time>2026-04-18T07:39:17.999Z</time></trkpt><trkpt lat="43.56656121720087" lon="10.768921389649789"><ele>71.0</ele><time>2026-04-18T07:39:18.999Z</time></trkpt><trkpt lat="43.56655162710745" lon="10.768802273194682"><ele>71.16666666666667</ele><time>2026-04-18T07:39:19.999Z</time></trkpt><trkpt lat="43.566537552771386" lon="10.768655438977662"><ele>71.33333333333334</ele><time>2026-04-18T07:39:20.999Z</time></trkpt><trkpt lat="43.56653385498767" lon="10.768550337881031"><ele>71.5</ele><time>2026-04-18T07:39:21.999Z</time></trkpt><trkpt lat="43.56651643845037" lon="10.768455409062888"><ele>71.66666666666667</ele><time>2026-04-18T07:39:22.999Z</time></trkpt><trkpt lat="43.56649374030122" lon="10.768365609137238"><ele>71.83333333333333</ele><time>2026-04-18T07:39:23.999Z</time></trkpt><trkpt lat="43.566461040291195" lon="10.76828522319569"><ele>72.0</ele><time>2026-04-18T07:39:24.999Z</time></trkpt><trkpt lat="43.566411080403235" lon="10.768149227558373"><ele>72.8</ele><time>2026-04-18T07:39:26.999Z</time></trkpt><trkpt lat="43.56639258691134" lon="10.768042203636238"><ele>73.6</ele><time>2026-04-18T07:39:28.999Z</time></trkpt><trkpt lat="43.566390308517605" lon="10.767953337053205"><ele>74.39999999999999</ele><time>2026-04-18T07:39:32.999Z</time></trkpt><trkpt lat="43.566493009019275" lon="10.768158394632337"><ele>75.2</ele><time>2026-04-18T07:39:37.999Z</time></trkpt><trkpt lat="43.5665288731279" lon="10.768236236972093"><ele>76.0</ele><time>2026-04-18T07:39:38.999Z</time></trkpt><trkpt lat="43.56658071163637" lon="10.768350192236593"><ele>76.0</ele><time>2026-04-18T07:39:39.999Z</time></trkpt><trkpt lat="43.566638946726705" lon="10.768436020712494"><ele>76.0</ele><time>2026-04-18T07:39:40.999Z</time></trkpt><trkpt lat="43.56666802092634" lon="10.768514223471124"><ele>76.0</ele><time>2026-04-18T07:39:41.999Z</time></trkpt><trkpt lat="43.56672395024306" lon="10.7685713108372"><ele>76.0</ele><time>2026-04-18T07:39:42.999Z</time></trkpt><trkpt lat="43.56677848741419" lon="10.768656551544384"><ele>76.0</ele><time>2026-04-18T07:39:43.999Z</time></trkpt><trkpt lat="43.566828265510786" lon="10.768737292832371"><ele>76.0</ele><time>2026-04-18T07:39:44.999Z</time></trkpt><trkpt lat="43.566862459879324" lon="10.768878552105123"><ele>75.33333333333333</ele><time>2026-04-18T07:39:46.999Z</time></trkpt><trkpt lat="43.56689381997129" lon="10.769003841098854"><ele>74.66666666666666</ele><time>2026-04-18T07:39:47.999Z</time></trkpt><trkpt lat="43.56694659059148" lon="10.769059560978985"><ele>74.0</ele><time>2026-04-18T07:39:48.999Z</time></trkpt><trkpt lat="43.567053941750515" lon="10.769083064712081"><ele>73.33333333333333</ele><time>2026-04-18T07:39:49.999Z</time></trkpt><trkpt lat="43.56710078369185" lon="10.76915100428788"><ele>72.66666666666667</ele><time>2026-04-18T07:39:50.999Z</time></trkpt><trkpt lat="43.567126087529516" lon="10.769234864438637"><ele>72.0</ele><time>2026-04-18T07:39:51.999Z</time></trkpt><trkpt lat="43.567149022705166" lon="10.769334034783931"><ele>79.66666666666667</ele><time>2026-04-18T07:39:53.999Z</time></trkpt><trkpt lat="43.56724738578199" lon="10.769363789066606"><ele>87.33333333333334</ele><time>2026-04-18T07:39:59.999Z</time></trkpt><trkpt lat="43.56750953099588" lon="10.769370550695644"><ele>95.0</ele><time>2026-04-18T07:40:03.999Z</time></trkpt><trkpt lat="43.56765646643696" lon="10.769336040253426"><ele>95.0</ele><time>2026-04-18T07:40:05.999Z</time></trkpt><trkpt lat="43.567739422230275" lon="10.769377272849548"><ele>95.0</ele><time>2026-04-18T07:40:07.999Z</time></trkpt><trkpt lat="43.56780477569348" lon="10.769407398732278"><ele>95.0</ele><time>2026-04-18T07:40:08.999Z</time></trkpt><trkpt lat="43.56792214826366" lon="10.769486117741865"><ele>95.0</ele><time>2026-04-18T07:40:10.999Z</time></trkpt><trkpt lat="43.56800506762382" lon="10.76952661005506"><ele>95.0</ele><time>2026-04-18T07:40:11.999Z</time></trkpt><trkpt lat="43.56809778769366" lon="10.769550339354572"><ele>98.0</ele><time>2026-04-18T07:40:12.999Z</time></trkpt><trkpt lat="43.56816601869952" lon="10.769610171679778"><ele>101.0</ele><time>2026-04-18T07:40:13.999Z</time></trkpt><trkpt lat="43.56823390039587" lon="10.769634554730201"><ele>104.0</ele><time>2026-04-18T07:40:14.999Z</time></trkpt><trkpt lat="43.56830623147231" lon="10.76966297737078"><ele>107.0</ele><time>2026-04-18T07:40:15.999Z</time></trkpt><trkpt lat="43.568368007331564" lon="10.769777979101594"><ele>109.99999999999999</ele><time>2026-04-18T07:40:17.999Z</time></trkpt><trkpt lat="43.568346675464255" lon="10.769909930867412"><ele>113.0</ele><time>2026-04-18T07:40:18.999Z</time></trkpt><trkpt lat="43.56828999657382" lon="10.770053479755996"><ele>112.99999999999999</ele><time>2026-04-18T07:40:20.999Z</time></trkpt><trkpt lat="43.56825957459901" lon="10.77013814055935"><ele>113.0</ele><time>2026-04-18T07:40:21.999Z</time></trkpt><trkpt lat="43.568188917175746" lon="10.770226920212151"><ele>113.0</ele><time>2026-04-18T07:40:25.998Z</time></trkpt><trkpt lat="43.568146239821886" lon="10.770354553209929"><ele>113.0</ele><time>2026-04-18T07:40:26.998Z</time></trkpt><trkpt lat="43.56809617344971" lon="10.770474643674387"><ele>112.99999999999999</ele><time>2026-04-18T07:40:29.998Z</time></trkpt><trkpt lat="43.568049423255005" lon="10.770536199368935"><ele>113.0</ele><time>2026-04-18T07:40:30.998Z</time></trkpt><trkpt lat="43.56798495791628" lon="10.770646165391641"><ele>113.33333333333333</ele><time>2026-04-18T07:40:32.998Z</time></trkpt><trkpt lat="43.568006618031504" lon="10.770774503801261"><ele>113.66666666666666</ele><time>2026-04-18T07:40:33.998Z</time></trkpt><trkpt lat="43.56797808295253" lon="10.770867044638088"><ele>114.0</ele><time>2026-04-18T07:40:35.998Z</time></trkpt><trkpt lat="43.56767683135771" lon="10.771770067640167"><ele>113.6</ele><time>2026-04-18T07:40:39Z</time></trkpt><trkpt lat="43.56768157572794" lon="10.771868721510506"><ele>113.2</ele><time>2026-04-18T07:40:40Z</time></trkpt><trkpt lat="43.56773366371169" lon="10.771953605021997"><ele>112.79999999999998</ele><time>2026-04-18T07:40:41Z</time></trkpt><trkpt lat="43.567788393498894" lon="10.77204881783147"><ele>112.39999999999999</ele><time>2026-04-18T07:40:42Z</time></trkpt><trkpt lat="43.5678506048509" lon="10.772228509569548"><ele>112.0</ele><time>2026-04-18T07:40:43Z</time></trkpt><trkpt lat="43.56789781237184" lon="10.772350195807961"><ele>113.8</ele><time>2026-04-18T07:40:44Z</time></trkpt><trkpt lat="43.56793535051467" lon="10.772437246738903"><ele>115.6</ele><time>2026-04-18T07:40:45Z</time></trkpt><trkpt lat="43.56795074377613" lon="10.772580194954855"><ele>117.39999999999999</ele><time>2026-04-18T07:40:47Z</time></trkpt><trkpt lat="43.56794981534671" lon="10.772723125544196"><ele>119.19999999999999</ele><time>2026-04-18T07:40:49Z</time></trkpt><trkpt lat="43.56798938517102" lon="10.772829240049045"><ele>121.0</ele><time>2026-04-18T07:40:50Z</time></trkpt><trkpt lat="43.56804283724349" lon="10.772923439200227"><ele>121.16666666666667</ele><time>2026-04-18T07:40:51Z</time></trkpt><trkpt lat="43.56807225566351" lon="10.7730249291927"><ele>121.33333333333334</ele><time>2026-04-18T07:40:52Z</time></trkpt><trkpt lat="43.568082121447794" lon="10.773129850658258"><ele>121.5</ele><time>2026-04-18T07:40:53Z</time></trkpt><trkpt lat="43.56808328834638" lon="10.773247262501084"><ele>121.66666666666666</ele><time>2026-04-18T07:40:54Z</time></trkpt><trkpt lat="43.56806605288409" lon="10.773371060046282"><ele>121.83333333333333</ele><time>2026-04-18T07:40:55Z</time></trkpt><trkpt lat="43.56804361539669" lon="10.773476761477088"><ele>122.0</ele><time>2026-04-18T07:40:56Z</time></trkpt><trkpt lat="43.5680715217056" lon="10.77359569729515"><ele>123.0</ele><time>2026-04-18T07:40:57Z</time></trkpt><trkpt lat="43.56813625656235" lon="10.773761783486098"><ele>124.0</ele><time>2026-04-18T07:40:58Z</time></trkpt><trkpt lat="43.568195583839845" lon="10.773919894390499"><ele>125.0</ele><time>2026-04-18T07:40:59Z</time></trkpt><trkpt lat="43.568244577490006" lon="10.774063694111417"><ele>126.0</ele><time>2026-04-18T07:41:00Z</time></trkpt><trkpt lat="43.568312316530246" lon="10.774167907384541"><ele>126.0</ele><time>2026-04-18T07:41:01Z</time></trkpt><trkpt lat="43.568353391575215" lon="10.774301878359424"><ele>126.0</ele><time>2026-04-18T07:41:02Z</time></trkpt><trkpt lat="43.5683949676315" lon="10.774444660388689"><ele>126.0</ele><time>2026-04-18T07:41:03Z</time></trkpt><trkpt lat="43.56842823239567" lon="10.774591849759682"><ele>126.0</ele><time>2026-04-18T07:41:04Z</time></trkpt><trkpt lat="43.56845683123926" lon="10.774732735054531"><ele>126.0</ele><time>2026-04-18T07:41:05Z</time></trkpt><trkpt lat="43.568478757213036" lon="10.774878878935523"><ele>125.5</ele><time>2026-04-18T07:41:06Z</time></trkpt><trkpt lat="43.56849634321039" lon="10.775031116301541"><ele>125.0</ele><time>2026-04-18T07:41:07Z</time></trkpt><trkpt lat="43.5685131742445" lon="10.775190348345049"><ele>124.5</ele><time>2026-04-18T07:41:08Z</time></trkpt><trkpt lat="43.568533688197036" lon="10.77535180287618"><ele>124.0</ele><time>2026-04-18T07:41:09Z</time></trkpt><trkpt lat="43.5685567659795" lon="10.775513727712136"><ele>121.5</ele><time>2026-04-18T07:41:10Z</time></trkpt><trkpt lat="43.568583512121904" lon="10.775662614878925"><ele>119.0</ele><time>2026-04-18T07:41:11Z</time></trkpt><trkpt lat="43.56860529672906" lon="10.775826842484417"><ele>116.5</ele><time>2026-04-18T07:41:12Z</time></trkpt><trkpt lat="43.56862948209863" lon="10.775993904732072"><ele>114.0</ele><time>2026-04-18T07:41:13Z</time></trkpt><trkpt lat="43.56864739577331" lon="10.776151965084084"><ele>114.5</ele><time>2026-04-18T07:41:14Z</time></trkpt><trkpt lat="43.568671711852026" lon="10.776331938851879"><ele>115.0</ele><time>2026-04-18T07:41:15Z</time></trkpt><trkpt lat="43.568690985616215" lon="10.776495605870267"><ele>115.5</ele><time>2026-04-18T07:41:16Z</time></trkpt><trkpt lat="43.56870929631145" lon="10.776654345702195"><ele>116.0</ele><time>2026-04-18T07:41:17Z</time></trkpt><trkpt lat="43.56872856432563" lon="10.776823952020141"><ele>116.25</ele><time>2026-04-18T07:41:17.999Z</time></trkpt><trkpt lat="43.56875504126309" lon="10.77699446656659"><ele>116.5</ele><time>2026-04-18T07:41:18.999Z</time></trkpt><trkpt lat="43.56878047660898" lon="10.777160251639167"><ele>116.75</ele><time>2026-04-18T07:41:19.999Z</time></trkpt><trkpt lat="43.56881361291792" lon="10.777302785518541"><ele>117.0</ele><time>2026-04-18T07:41:20.999Z</time></trkpt><trkpt lat="43.568844464406595" lon="10.777443402634649"><ele>117.0</ele><time>2026-04-18T07:41:21.999Z</time></trkpt><trkpt lat="43.56887144376832" lon="10.77759770988376"><ele>117.0</ele><time>2026-04-18T07:41:22.999Z</time></trkpt><trkpt lat="43.568872532751406" lon="10.777737810400644"><ele>117.0</ele><time>2026-04-18T07:41:23.999Z</time></trkpt><trkpt lat="43.568855278959234" lon="10.77789686351865"><ele>117.0</ele><time>2026-04-18T07:41:24.999Z</time></trkpt><trkpt lat="43.568819266903176" lon="10.778067142943366"><ele>116.6</ele><time>2026-04-18T07:41:25.999Z</time></trkpt><trkpt lat="43.568778441497905" lon="10.778213385394807"><ele>116.19999999999999</ele><time>2026-04-18T07:41:26.999Z</time></trkpt><trkpt lat="43.568727970493434" lon="10.778317928790013"><ele>115.8</ele><time>2026-04-18T07:41:27.999Z</time></trkpt><trkpt lat="43.56865922085784" lon="10.778455237512928"><ele>115.4</ele><time>2026-04-18T07:41:28.999Z</time></trkpt><trkpt lat="43.56857877683544" lon="10.778552154548995"><ele>115.0</ele><time>2026-04-18T07:41:29.999Z</time></trkpt><trkpt lat="43.56849442011984" lon="10.778654309655483"><ele>116.25</ele><time>2026-04-18T07:41:30.999Z</time></trkpt><trkpt lat="43.568408256154825" lon="10.778752621892568"><ele>117.5</ele><time>2026-04-18T07:41:31.999Z</time></trkpt><trkpt lat="43.56831512347779" lon="10.778856077815556"><ele>118.75</ele><time>2026-04-18T07:41:32.999Z</time></trkpt><trkpt lat="43.568205384266236" lon="10.77896838510523"><ele>120.0</ele><time>2026-04-18T07:41:33.999Z</time></trkpt><trkpt lat="43.568098322403806" lon="10.77907663425673"><ele>120.0</ele><time>2026-04-18T07:41:34.999Z</time></trkpt><trkpt lat="43.56801498446547" lon="10.779210952746498"><ele>120.0</ele><time>2026-04-18T07:41:35.999Z</time></trkpt><trkpt lat="43.56797438212792" lon="10.779347661184996"><ele>120.0</ele><time>2026-04-18T07:41:36.999Z</time></trkpt><trkpt lat="43.56795375732701" lon="10.779475109712129"><ele>120.0</ele><time>2026-04-18T07:41:37.999Z</time></trkpt><trkpt lat="43.567941331671236" lon="10.779605962150224"><ele>120.0</ele><time>2026-04-18T07:41:38.999Z</time></trkpt><trkpt lat="43.56791181079535" lon="10.779714329823957"><ele>119.83333333333333</ele><time>2026-04-18T07:41:39.999Z</time></trkpt><trkpt lat="43.56786069506438" lon="10.779806779066636"><ele>119.66666666666666</ele><time>2026-04-18T07:41:40.999Z</time></trkpt><trkpt lat="43.56781471068873" lon="10.779898447917722"><ele>119.5</ele><time>2026-04-18T07:41:41.999Z</time></trkpt><trkpt lat="43.56778264801935" lon="10.780006064773632"><ele>119.33333333333333</ele><time>2026-04-18T07:41:42.999Z</time></trkpt><trkpt lat="43.56777878300371" lon="10.780117687766346"><ele>119.16666666666666</ele><time>2026-04-18T07:41:43.999Z</time></trkpt><trkpt lat="43.567778783941485" lon="10.780238523661348"><ele>119.0</ele><time>2026-04-18T07:41:44.999Z</time></trkpt><trkpt lat="43.56776070490798" lon="10.780365493787784"><ele>119.0</ele><time>2026-04-18T07:41:45.999Z</time></trkpt><trkpt lat="43.56772741644693" lon="10.780487707925932"><ele>119.0</ele><time>2026-04-18T07:41:46.999Z</time></trkpt><trkpt lat="43.567705958623165" lon="10.780621249841204"><ele>119.0</ele><time>2026-04-18T07:41:47.999Z</time></trkpt><trkpt lat="43.567701875516924" lon="10.780727286297644"><ele>119.0</ele><time>2026-04-18T07:41:48.999Z</time></trkpt><trkpt lat="43.56766274880822" lon="10.780883423235856"><ele>119.0</ele><time>2026-04-18T07:41:49.999Z</time></trkpt><trkpt lat="43.567622493283885" lon="10.78104457265964"><ele>119.6</ele><time>2026-04-18T07:41:50.999Z</time></trkpt><trkpt lat="43.56760726990271" lon="10.781179555129382"><ele>120.2</ele><time>2026-04-18T07:41:51.999Z</time></trkpt><trkpt lat="43.567608490963266" lon="10.781310098256418"><ele>120.79999999999998</ele><time>2026-04-18T07:41:52.999Z</time></trkpt><trkpt lat="43.567604263645975" lon="10.781424562222753"><ele>121.39999999999999</ele><time>2026-04-18T07:41:53.999Z</time></trkpt><trkpt lat="43.5675504050015" lon="10.781552884706885"><ele>122.0</ele><time>2026-04-18T07:41:55.999Z</time></trkpt><trkpt lat="43.567455522586904" lon="10.781677236701405"><ele>122.0</ele><time>2026-04-18T07:41:57.999Z</time></trkpt><trkpt lat="43.56736144841479" lon="10.781808855387558"><ele>121.99999999999999</ele><time>2026-04-18T07:41:59.999Z</time></trkpt><trkpt lat="43.56730187791309" lon="10.781886535849056"><ele>121.99999999999999</ele><time>2026-04-18T07:42:00.999Z</time></trkpt><trkpt lat="43.567239068813635" lon="10.781968405326115"><ele>122.0</ele><time>2026-04-18T07:42:01.999Z</time></trkpt><trkpt lat="43.56717421627763" lon="10.782090651964571"><ele>122.0</ele><time>2026-04-18T07:42:02.999Z</time></trkpt><trkpt lat="43.56712293402576" lon="10.782223938929816"><ele>121.25</ele><time>2026-04-18T07:42:03.999Z</time></trkpt><trkpt lat="43.567074477915874" lon="10.782380614879944"><ele>120.5</ele><time>2026-04-18T07:42:04.999Z</time></trkpt><trkpt lat="43.567024244085346" lon="10.782541663517517"><ele>119.75</ele><time>2026-04-18T07:42:05.999Z</time></trkpt><trkpt lat="43.566976382991896" lon="10.782716528829969"><ele>119.0</ele><time>2026-04-18T07:42:06.999Z</time></trkpt><trkpt lat="43.566919520860615" lon="10.782907108624906"><ele>121.0</ele><time>2026-04-18T07:42:07.999Z</time></trkpt><trkpt lat="43.566866189488344" lon="10.783090449828242"><ele>123.0</ele><time>2026-04-18T07:42:08.999Z</time></trkpt><trkpt lat="43.5668204960441" lon="10.78323693852308"><ele>125.0</ele><time>2026-04-18T07:42:09.999Z</time></trkpt><trkpt lat="43.56677477868748" lon="10.783375536657843"><ele>127.0</ele><time>2026-04-18T07:42:10.999Z</time></trkpt><trkpt lat="43.566741776695636" lon="10.783505785369513"><ele>127.39999999999999</ele><time>2026-04-18T07:42:11.999Z</time></trkpt><trkpt lat="43.566708976661985" lon="10.783629197959412"><ele>127.79999999999998</ele><time>2026-04-18T07:42:12.999Z</time></trkpt><trkpt lat="43.566665541711586" lon="10.783765749112803"><ele>128.2</ele><time>2026-04-18T07:42:13.999Z</time></trkpt><trkpt lat="43.566609429643776" lon="10.783901897323227"><ele>128.6</ele><time>2026-04-18T07:42:14.999Z</time></trkpt><trkpt lat="43.56654528032017" lon="10.784019347373007"><ele>129.0</ele><time>2026-04-18T07:42:15.999Z</time></trkpt><trkpt lat="43.56648507391316" lon="10.78414560818685"><ele>129.0</ele><time>2026-04-18T07:42:16.999Z</time></trkpt><trkpt lat="43.56642467983527" lon="10.784277597510863"><ele>129.0</ele><time>2026-04-18T07:42:17.999Z</time></trkpt><trkpt lat="43.56636311833686" lon="10.784392260135492"><ele>129.0</ele><time>2026-04-18T07:42:18.999Z</time></trkpt><trkpt lat="43.56629801903989" lon="10.784503981310896"><ele>129.0</ele><time>2026-04-18T07:42:19.999Z</time></trkpt><trkpt lat="43.5662331432361" lon="10.784597632911364"><ele>129.0</ele><time>2026-04-18T07:42:20.999Z</time></trkpt><trkpt lat="43.566157104391735" lon="10.78468371687516"><ele>130.4</ele><time>2026-04-18T07:42:21.999Z</time></trkpt><trkpt lat="43.566090889264224" lon="10.784748402184514"><ele>131.8</ele><time>2026-04-18T07:42:22.999Z</time></trkpt><trkpt lat="43.566026524926386" lon="10.784808972237105"><ele>133.2</ele><time>2026-04-18T07:42:23.999Z</time></trkpt><trkpt lat="43.56596498476217" lon="10.784855947341997"><ele>134.6</ele><time>2026-04-18T07:42:24.999Z</time></trkpt><trkpt lat="43.56586251504608" lon="10.784934138916476"><ele>136.0</ele><time>2026-04-18T07:42:26.999Z</time></trkpt><trkpt lat="43.56581866769449" lon="10.78508469591343"><ele>135.83333333333334</ele><time>2026-04-18T07:42:28.999Z</time></trkpt><trkpt lat="43.56579618787997" lon="10.785201526502682"><ele>135.66666666666669</ele><time>2026-04-18T07:42:29.999Z</time></trkpt><trkpt lat="43.56577025244524" lon="10.78531738648059"><ele>135.5</ele><time>2026-04-18T07:42:30.999Z</time></trkpt><trkpt lat="43.56574976282895" lon="10.785426689444536"><ele>135.33333333333334</ele><time>2026-04-18T07:42:31.998Z</time></trkpt><trkpt lat="43.56572137629495" lon="10.785527412733822"><ele>135.16666666666666</ele><time>2026-04-18T07:42:32.998Z</time></trkpt><trkpt lat="43.56568301571524" lon="10.785605856195765"><ele>135.0</ele><time>2026-04-18T07:42:33.998Z</time></trkpt><trkpt lat="43.56564268398798" lon="10.785690936830584"><ele>135.0</ele><time>2026-04-18T07:42:34.998Z</time></trkpt><trkpt lat="43.56560461170273" lon="10.785776989801516"><ele>135.0</ele><time>2026-04-18T07:42:35.998Z</time></trkpt><trkpt lat="43.56554681677339" lon="10.785908672580312"><ele>135.0</ele><time>2026-04-18T07:42:37.998Z</time></trkpt><trkpt lat="43.565493525522804" lon="10.78607726028797"><ele>135.0</ele><time>2026-04-18T07:42:39.998Z</time></trkpt><trkpt lat="43.56547432578438" lon="10.786172247868398"><ele>135.0</ele><time>2026-04-18T07:42:40.998Z</time></trkpt><trkpt lat="43.56545762501542" lon="10.786260790278483"><ele>135.0</ele><time>2026-04-18T07:42:41.998Z</time></trkpt><trkpt lat="43.565440350103145" lon="10.786351525927005"><ele>135.0</ele><time>2026-04-18T07:42:42.998Z</time></trkpt><trkpt lat="43.56542590284193" lon="10.786465801196961"><ele>135.0</ele><time>2026-04-18T07:42:44Z</time></trkpt><trkpt lat="43.56541907481999" lon="10.786569401749913"><ele>135.0</ele><time>2026-04-18T07:42:45Z</time></trkpt><trkpt lat="43.565413407147574" lon="10.786709983750917"><ele>135.0</ele><time>2026-04-18T07:42:46Z</time></trkpt><trkpt lat="43.56537197583807" lon="10.786836950130184"><ele>135.0</ele><time>2026-04-18T07:42:47Z</time></trkpt><trkpt lat="43.56529492091371" lon="10.78695044541594"><ele>135.0</ele><time>2026-04-18T07:42:48Z</time></trkpt><trkpt lat="43.565186025582186" lon="10.787058501929273"><ele>135.0</ele><time>2026-04-18T07:42:49Z</time></trkpt><trkpt lat="43.565077465170965" lon="10.787146766325028"><ele>135.0</ele><time>2026-04-18T07:42:50Z</time></trkpt><trkpt lat="43.56499605491154" lon="10.78722161789161"><ele>135.0</ele><time>2026-04-18T07:42:51Z</time></trkpt><trkpt lat="43.564932060543974" lon="10.787319371285884"><ele>135.0</ele><time>2026-04-18T07:42:52Z</time></trkpt><trkpt lat="43.56487776525787" lon="10.787390243306847"><ele>135.0</ele><time>2026-04-18T07:42:53Z</time></trkpt><trkpt lat="43.56484795834132" lon="10.787476705019168"><ele>135.0</ele><time>2026-04-18T07:42:54Z</time></trkpt><trkpt lat="43.564837926762124" lon="10.78761002533393"><ele>135.0</ele><time>2026-04-18T07:42:55Z</time></trkpt><trkpt lat="43.564828671757226" lon="10.787735171539863"><ele>135.0</ele><time>2026-04-18T07:42:56Z</time></trkpt><trkpt lat="43.5648112226916" lon="10.787867021774922"><ele>135.0</ele><time>2026-04-18T07:42:57Z</time></trkpt><trkpt lat="43.56477533373641" lon="10.787984447918728"><ele>135.16666666666666</ele><time>2026-04-18T07:42:58Z</time></trkpt><trkpt lat="43.56473815693807" lon="10.788108710194305"><ele>135.33333333333334</ele><time>2026-04-18T07:42:59Z</time></trkpt><trkpt lat="43.56468692144167" lon="10.788197147959362"><ele>135.5</ele><time>2026-04-18T07:43:00Z</time></trkpt><trkpt lat="43.56463182677072" lon="10.788333752495257"><ele>135.66666666666669</ele><time>2026-04-18T07:43:02Z</time></trkpt><trkpt lat="43.564590073566876" lon="10.788423247213803"><ele>135.83333333333334</ele><time>2026-04-18T07:43:03Z</time></trkpt><trkpt lat="43.564573214988265" lon="10.788530644353383"><ele>136.0</ele><time>2026-04-18T07:43:04Z</time></trkpt><trkpt lat="43.56455391844742" lon="10.788643009835058"><ele>136.0</ele><time>2026-04-18T07:43:05Z</time></trkpt><trkpt lat="43.56455382631031" lon="10.788787368160088"><ele>136.0</ele><time>2026-04-18T07:43:06Z</time></trkpt><trkpt lat="43.56457026120188" lon="10.788923616578526"><ele>136.0</ele><time>2026-04-18T07:43:07Z</time></trkpt><trkpt lat="43.564564072596134" lon="10.789064284102269"><ele>136.0</ele><time>2026-04-18T07:43:08Z</time></trkpt><trkpt lat="43.56452393546651" lon="10.789202814965979"><ele>136.0</ele><time>2026-04-18T07:43:09Z</time></trkpt><trkpt lat="43.56449923132196" lon="10.789341172160318"><ele>135.4</ele><time>2026-04-18T07:43:10Z</time></trkpt><trkpt lat="43.56445385174906" lon="10.789482717835304"><ele>134.8</ele><time>2026-04-18T07:43:11Z</time></trkpt><trkpt lat="43.564425438497814" lon="10.789626360850708"><ele>134.20000000000002</ele><time>2026-04-18T07:43:12Z</time></trkpt><trkpt lat="43.564409646009466" lon="10.789764447443563"><ele>133.6</ele><time>2026-04-18T07:43:13Z</time></trkpt><trkpt lat="43.56438717173108" lon="10.7898829865394"><ele>133.0</ele><time>2026-04-18T07:43:14Z</time></trkpt><trkpt lat="43.56436716213846" lon="10.79001030450333"><ele>133.0</ele><time>2026-04-18T07:43:15Z</time></trkpt><trkpt lat="43.564351685433124" lon="10.790156577841858"><ele>133.0</ele><time>2026-04-18T07:43:16Z</time></trkpt><trkpt lat="43.564325005529064" lon="10.790304639764843"><ele>133.0</ele><time>2026-04-18T07:43:17Z</time></trkpt><trkpt lat="43.56427939461029" lon="10.790463631998938"><ele>133.0</ele><time>2026-04-18T07:43:18Z</time></trkpt><trkpt lat="43.564225466141586" lon="10.790623640627876"><ele>133.6</ele><time>2026-04-18T07:43:19Z</time></trkpt><trkpt lat="43.56417581173432" lon="10.79075030450382"><ele>134.20000000000002</ele><time>2026-04-18T07:43:20Z</time></trkpt><trkpt lat="43.564139364600905" lon="10.790874471130518"><ele>134.8</ele><time>2026-04-18T07:43:21Z</time></trkpt><trkpt lat="43.56412096879907" lon="10.7910134317427"><ele>135.4</ele><time>2026-04-18T07:43:22Z</time></trkpt><trkpt lat="43.56412402766145" lon="10.791162445337877"><ele>136.0</ele><time>2026-04-18T07:43:23Z</time></trkpt><trkpt lat="43.56412641532652" lon="10.791319196289063"><ele>136.0</ele><time>2026-04-18T07:43:24Z</time></trkpt><trkpt lat="43.564116089447886" lon="10.791482258132291"><ele>136.0</ele><time>2026-04-18T07:43:25Z</time></trkpt><trkpt lat="43.56409132618733" lon="10.7916547946354"><ele>136.0</ele><time>2026-04-18T07:43:26Z</time></trkpt><trkpt lat="43.564059210972104" lon="10.791809471454723"><ele>136.0</ele><time>2026-04-18T07:43:27Z</time></trkpt><trkpt lat="43.56404778941458" lon="10.79193541644783"><ele>137.75</ele><time>2026-04-18T07:43:28Z</time></trkpt><trkpt lat="43.56405773229623" lon="10.792085500455148"><ele>139.5</ele><time>2026-04-18T07:43:29Z</time></trkpt><trkpt lat="43.56408508475645" lon="10.792258254949052"><ele>141.25</ele><time>2026-04-18T07:43:30Z</time></trkpt><trkpt lat="43.564117265181196" lon="10.792441039270111"><ele>143.0</ele><time>2026-04-18T07:43:30.999Z</time></trkpt><trkpt lat="43.56411452768981" lon="10.792608173419218"><ele>144.20000000000002</ele><time>2026-04-18T07:43:31.999Z</time></trkpt><trkpt lat="43.564131143189535" lon="10.792744907390547"><ele>145.4</ele><time>2026-04-18T07:43:32.999Z</time></trkpt><trkpt lat="43.564136087343286" lon="10.792851487289395"><ele>146.60000000000002</ele><time>2026-04-18T07:43:33.999Z</time></trkpt><trkpt lat="43.56417604121854" lon="10.792960489737354"><ele>147.8</ele><time>2026-04-18T07:43:34.999Z</time></trkpt><trkpt lat="43.564220064888666" lon="10.793081822464249"><ele>149.0</ele><time>2026-04-18T07:43:35.999Z</time></trkpt><trkpt lat="43.564259243038805" lon="10.793201134431193"><ele>149.0</ele><time>2026-04-18T07:43:36.999Z</time></trkpt><trkpt lat="43.564308535175" lon="10.79333003491045"><ele>149.0</ele><time>2026-04-18T07:43:37.999Z</time></trkpt><trkpt lat="43.564319352447534" lon="10.793465339262044"><ele>149.0</ele><time>2026-04-18T07:43:38.999Z</time></trkpt><trkpt lat="43.56431887554387" lon="10.79358046267296"><ele>149.0</ele><time>2026-04-18T07:43:39.999Z</time></trkpt><trkpt lat="43.564343928660755" lon="10.793732599811488"><ele>149.0</ele><time>2026-04-18T07:43:40.999Z</time></trkpt><trkpt lat="43.56434385263005" lon="10.793865048865127"><ele>149.0</ele><time>2026-04-18T07:43:41.999Z</time></trkpt><trkpt lat="43.56433749052787" lon="10.794035336790595"><ele>149.0</ele><time>2026-04-18T07:43:42.999Z</time></trkpt><trkpt lat="43.56432724319736" lon="10.794208821754783"><ele>149.0</ele><time>2026-04-18T07:43:43.999Z</time></trkpt><trkpt lat="43.564312385859246" lon="10.794369073449095"><ele>149.0</ele><time>2026-04-18T07:43:44.999Z</time></trkpt><trkpt lat="43.56429325271544" lon="10.79453777267518"><ele>149.0</ele><time>2026-04-18T07:43:45.999Z</time></trkpt><trkpt lat="43.564257769780305" lon="10.794699651787514"><ele>149.0</ele><time>2026-04-18T07:43:46.999Z</time></trkpt><trkpt lat="43.56424546357243" lon="10.794858664565846"><ele>149.0</ele><time>2026-04-18T07:43:47.999Z</time></trkpt><trkpt lat="43.56422207300834" lon="10.79502765101882"><ele>149.0</ele><time>2026-04-18T07:43:48.999Z</time></trkpt><trkpt lat="43.56421539159149" lon="10.795165368101983"><ele>149.75</ele><time>2026-04-18T07:43:49.999Z</time></trkpt><trkpt lat="43.564185086201114" lon="10.795295158241371"><ele>150.5</ele><time>2026-04-18T07:43:50.999Z</time></trkpt><trkpt lat="43.5640956276277" lon="10.795414808525464"><ele>151.25</ele><time>2026-04-18T07:43:51.999Z</time></trkpt><trkpt lat="43.56396019098652" lon="10.795544858969413"><ele>152.0</ele><time>2026-04-18T07:43:52.999Z</time></trkpt><trkpt lat="43.56383753826891" lon="10.795675323933391"><ele>152.0</ele><time>2026-04-18T07:43:53.999Z</time></trkpt><trkpt lat="43.56371987153305" lon="10.795786837702789"><ele>152.0</ele><time>2026-04-18T07:43:54.999Z</time></trkpt><trkpt lat="43.563600240458406" lon="10.795881643013157"><ele>152.0</ele><time>2026-04-18T07:43:55.999Z</time></trkpt><trkpt lat="43.56348945491913" lon="10.795962213870848"><ele>152.0</ele><time>2026-04-18T07:43:56.999Z</time></trkpt><trkpt lat="43.56339985311622" lon="10.796044583410907"><ele>154.6</ele><time>2026-04-18T07:43:57.999Z</time></trkpt><trkpt lat="43.563336797147336" lon="10.79614599224393"><ele>157.2</ele><time>2026-04-18T07:43:58.999Z</time></trkpt><trkpt lat="43.56329622131341" lon="10.796276027562651"><ele>159.8</ele><time>2026-04-18T07:43:59.999Z</time></trkpt><trkpt lat="43.56330330528872" lon="10.796433849433006"><ele>162.4</ele><time>2026-04-18T07:44:00.999Z</time></trkpt><trkpt lat="43.563327414405585" lon="10.796584202091209"><ele>165.0</ele><time>2026-04-18T07:44:01.999Z</time></trkpt><trkpt lat="43.5633644755161" lon="10.796744778004989"><ele>165.5</ele><time>2026-04-18T07:44:02.999Z</time></trkpt><trkpt lat="43.563402868708316" lon="10.796914838691805"><ele>166.0</ele><time>2026-04-18T07:44:03.999Z</time></trkpt><trkpt lat="43.56344696644365" lon="10.797102794631558"><ele>166.5</ele><time>2026-04-18T07:44:04.999Z</time></trkpt><trkpt lat="43.56349383924333" lon="10.7972943860035"><ele>167.0</ele><time>2026-04-18T07:44:05.999Z</time></trkpt><trkpt lat="43.5635543733117" lon="10.79748744397384"><ele>167.0</ele><time>2026-04-18T07:44:06.999Z</time></trkpt><trkpt lat="43.563610679461654" lon="10.797645920437073"><ele>167.0</ele><time>2026-04-18T07:44:07.999Z</time></trkpt><trkpt lat="43.56367578313076" lon="10.797808403110501"><ele>167.0</ele><time>2026-04-18T07:44:08.999Z</time></trkpt><trkpt lat="43.563732391162546" lon="10.797966040908292"><ele>167.0</ele><time>2026-04-18T07:44:09.999Z</time></trkpt><trkpt lat="43.563780412054385" lon="10.79811254450418"><ele>168.39999999999998</ele><time>2026-04-18T07:44:10.999Z</time></trkpt><trkpt lat="43.56381493421916" lon="10.798259510394548"><ele>169.79999999999998</ele><time>2026-04-18T07:44:11.999Z</time></trkpt><trkpt lat="43.56382288478434" lon="10.798371826140142"><ele>171.2</ele><time>2026-04-18T07:44:12.999Z</time></trkpt><trkpt lat="43.56382388596003" lon="10.798485308153149"><ele>172.6</ele><time>2026-04-18T07:44:13.999Z</time></trkpt><trkpt lat="43.56381481124086" lon="10.798638146489504"><ele>174.0</ele><time>2026-04-18T07:44:15.999Z</time></trkpt><trkpt lat="43.563785920302344" lon="10.7987390359514"><ele>175.2</ele><time>2026-04-18T07:44:17.999Z</time></trkpt><trkpt lat="43.56374154108457" lon="10.79881040850418"><ele>176.39999999999998</ele><time>2026-04-18T07:44:20.999Z</time></trkpt><trkpt lat="43.563570109492524" lon="10.798842151849701"><ele>177.6</ele><time>2026-04-18T07:44:33.999Z</time></trkpt><trkpt lat="43.56347374225609" lon="10.798818049833326"><ele>178.8</ele><time>2026-04-18T07:44:34.999Z</time></trkpt><trkpt lat="43.563394897162674" lon="10.798795072476294"><ele>180.0</ele><time>2026-04-18T07:44:35.999Z</time></trkpt><trkpt lat="43.563332568899185" lon="10.798776606929945"><ele>180.0</ele><time>2026-04-18T07:44:36.999Z</time></trkpt><trkpt lat="43.56335325323054" lon="10.798881924091521"><ele>180.0</ele><time>2026-04-18T07:44:42.999Z</time></trkpt><trkpt lat="43.5634130956949" lon="10.798926000834921"><ele>180.0</ele><time>2026-04-18T07:44:43.999Z</time></trkpt><trkpt lat="43.56347490715396" lon="10.79898417815202"><ele>180.0</ele><time>2026-04-18T07:44:44.999Z</time></trkpt><trkpt lat="43.563552053118" lon="10.799058512682606"><ele>180.0</ele><time>2026-04-18T07:44:45.998Z</time></trkpt><trkpt lat="43.56363661043827" lon="10.799155536576045"><ele>180.0</ele><time>2026-04-18T07:44:46.998Z</time></trkpt><trkpt lat="43.5637066085997" lon="10.79926017825476"><ele>181.0</ele><time>2026-04-18T07:44:47.998Z</time></trkpt><trkpt lat="43.563759617033064" lon="10.799371437126915"><ele>182.0</ele><time>2026-04-18T07:44:48.998Z</time></trkpt><trkpt lat="43.56379284597972" lon="10.799503981843326"><ele>183.0</ele><time>2026-04-18T07:44:50Z</time></trkpt><trkpt lat="43.563820947985455" lon="10.799641524453044"><ele>184.0</ele><time>2026-04-18T07:44:51Z</time></trkpt><trkpt lat="43.56386061392236" lon="10.79974883324186"><ele>185.0</ele><time>2026-04-18T07:44:52Z</time></trkpt><trkpt lat="43.563912432942864" lon="10.799824149689927"><ele>185.0</ele><time>2026-04-18T07:44:53Z</time></trkpt><trkpt lat="43.563986155271294" lon="10.799885354724315"><ele>185.0</ele><time>2026-04-18T07:44:54Z</time></trkpt><trkpt lat="43.56406698606434" lon="10.79994281995154"><ele>185.0</ele><time>2026-04-18T07:44:55Z</time></trkpt><trkpt lat="43.56416271584388" lon="10.800007559498127"><ele>185.0</ele><time>2026-04-18T07:44:56Z</time></trkpt><trkpt lat="43.56426631344822" lon="10.800078810734556"><ele>185.0</ele><time>2026-04-18T07:44:57Z</time></trkpt><trkpt lat="43.564376445575306" lon="10.800141819877684"><ele>184.0</ele><time>2026-04-18T07:44:58Z</time></trkpt><trkpt lat="43.56447304529639" lon="10.800191842675178"><ele>183.0</ele><time>2026-04-18T07:44:59Z</time></trkpt><trkpt lat="43.56456449371281" lon="10.800229507560601"><ele>182.0</ele><time>2026-04-18T07:45:00Z</time></trkpt><trkpt lat="43.56465039991222" lon="10.800268790009778"><ele>181.0</ele><time>2026-04-18T07:45:01Z</time></trkpt><trkpt lat="43.564757081884096" lon="10.800322255873093"><ele>180.0</ele><time>2026-04-18T07:45:02Z</time></trkpt><trkpt lat="43.56486040253449" lon="10.800372069907276"><ele>180.0</ele><time>2026-04-18T07:45:03Z</time></trkpt><trkpt lat="43.5649595854453" lon="10.800406861484857"><ele>180.0</ele><time>2026-04-18T07:45:04Z</time></trkpt><trkpt lat="43.56505595756119" lon="10.800457042705595"><ele>180.0</ele><time>2026-04-18T07:45:05Z</time></trkpt><trkpt lat="43.56516174948675" lon="10.80045563186014"><ele>180.0</ele><time>2026-04-18T07:45:06Z</time></trkpt><trkpt lat="43.56526051352018" lon="10.800443631054359"><ele>180.0</ele><time>2026-04-18T07:45:07Z</time></trkpt><trkpt lat="43.56534881387021" lon="10.800439478264417"><ele>180.33333333333334</ele><time>2026-04-18T07:45:08Z</time></trkpt><trkpt lat="43.565443092585504" lon="10.800456400113678"><ele>180.66666666666666</ele><time>2026-04-18T07:45:09Z</time></trkpt><trkpt lat="43.565518550286" lon="10.800468319722478"><ele>181.0</ele><time>2026-04-18T07:45:10Z</time></trkpt><trkpt lat="43.56559068332003" lon="10.800526233100102"><ele>181.33333333333331</ele><time>2026-04-18T07:45:11Z</time></trkpt><trkpt lat="43.56564718705661" lon="10.800607521690754"><ele>181.66666666666666</ele><time>2026-04-18T07:45:12Z</time></trkpt><trkpt lat="43.565704250000266" lon="10.800714478681178"><ele>182.0</ele><time>2026-04-18T07:45:13Z</time></trkpt><trkpt lat="43.56577654016266" lon="10.800826001029721"><ele>182.0</ele><time>2026-04-18T07:45:14Z</time></trkpt><trkpt lat="43.5658665441306" lon="10.800918536181221"><ele>182.0</ele><time>2026-04-18T07:45:15Z</time></trkpt><trkpt lat="43.56597415534729" lon="10.800996341872962"><ele>182.0</ele><time>2026-04-18T07:45:16Z</time></trkpt><trkpt lat="43.56609660984119" lon="10.801068204874712"><ele>182.0</ele><time>2026-04-18T07:45:17Z</time></trkpt><trkpt lat="43.566225010200824" lon="10.801153390855998"><ele>182.25</ele><time>2026-04-18T07:45:18Z</time></trkpt><trkpt lat="43.566353912734954" lon="10.80124070340372"><ele>182.5</ele><time>2026-04-18T07:45:19Z</time></trkpt><trkpt lat="43.566476328878636" lon="10.80131887829079"><ele>182.75</ele><time>2026-04-18T07:45:20Z</time></trkpt><trkpt lat="43.56661796357521" lon="10.80140960619845"><ele>183.0</ele><time>2026-04-18T07:45:21Z</time></trkpt><trkpt lat="43.566750877867804" lon="10.801496264809158"><ele>183.0</ele><time>2026-04-18T07:45:22Z</time></trkpt><trkpt lat="43.566905429939936" lon="10.801590463994726"><ele>183.0</ele><time>2026-04-18T07:45:23Z</time></trkpt><trkpt lat="43.56705836969238" lon="10.801674311974434"><ele>183.0</ele><time>2026-04-18T07:45:24Z</time></trkpt><trkpt lat="43.56719446751016" lon="10.801746298049274"><ele>183.0</ele><time>2026-04-18T07:45:25Z</time></trkpt><trkpt lat="43.56733019031456" lon="10.801799193089026"><ele>183.0</ele><time>2026-04-18T07:45:26Z</time></trkpt><trkpt lat="43.56746419604473" lon="10.801859828203469"><ele>183.0</ele><time>2026-04-18T07:45:27Z</time></trkpt><trkpt lat="43.56758830560273" lon="10.801889548961272"><ele>183.0</ele><time>2026-04-18T07:45:28Z</time></trkpt><trkpt lat="43.56770767890198" lon="10.8019045880761"><ele>183.0</ele><time>2026-04-18T07:45:29Z</time></trkpt><trkpt lat="43.567833106866686" lon="10.801912612187127"><ele>183.0</ele><time>2026-04-18T07:45:30Z</time></trkpt><trkpt lat="43.567962831231405" lon="10.80190440265054"><ele>183.0</ele><time>2026-04-18T07:45:31Z</time></trkpt><trkpt lat="43.56810463949503" lon="10.801912227893911"><ele>183.0</ele><time>2026-04-18T07:45:32Z</time></trkpt><trkpt lat="43.56825020525892" lon="10.801917945628928"><ele>182.5</ele><time>2026-04-18T07:45:33Z</time></trkpt><trkpt lat="43.56840073127271" lon="10.80192477070378"><ele>182.0</ele><time>2026-04-18T07:45:34Z</time></trkpt><trkpt lat="43.56853790868838" lon="10.801933528800086"><ele>181.5</ele><time>2026-04-18T07:45:35Z</time></trkpt><trkpt lat="43.568659674600084" lon="10.801941064100511"><ele>181.0</ele><time>2026-04-18T07:45:36Z</time></trkpt><trkpt lat="43.56876925321747" lon="10.801937878101525"><ele>183.60000000000002</ele><time>2026-04-18T07:45:37Z</time></trkpt><trkpt lat="43.56887339599954" lon="10.801930346099182"><ele>186.2</ele><time>2026-04-18T07:45:38Z</time></trkpt><trkpt lat="43.56898241360939" lon="10.801928055683595"><ele>188.8</ele><time>2026-04-18T07:45:39Z</time></trkpt><trkpt lat="43.569081604599795" lon="10.801894246622645"><ele>191.39999999999998</ele><time>2026-04-18T07:45:40Z</time></trkpt><trkpt lat="43.56918823373368" lon="10.801856888073488"><ele>194.0</ele><time>2026-04-18T07:45:41Z</time></trkpt><trkpt lat="43.56929526875643" lon="10.801801856259432"><ele>194.0</ele><time>2026-04-18T07:45:42Z</time></trkpt><trkpt lat="43.569379312568365" lon="10.801820957384624"><ele>194.0</ele><time>2026-04-18T07:45:42.999Z</time></trkpt><trkpt lat="43.56945438260019" lon="10.80189454464202"><ele>194.0</ele><time>2026-04-18T07:45:43.999Z</time></trkpt><trkpt lat="43.56953131918598" lon="10.802002644713898"><ele>194.0</ele><time>2026-04-18T07:45:44.999Z</time></trkpt><trkpt lat="43.56959875544022" lon="10.802130065988024"><ele>194.0</ele><time>2026-04-18T07:45:45.999Z</time></trkpt><trkpt lat="43.5696594925708" lon="10.802265475256652"><ele>196.2</ele><time>2026-04-18T07:45:46.999Z</time></trkpt><trkpt lat="43.56971035826418" lon="10.802375847667552"><ele>198.39999999999998</ele><time>2026-04-18T07:45:47.999Z</time></trkpt><trkpt lat="43.56975531647122" lon="10.802474102962918"><ele>200.6</ele><time>2026-04-18T07:45:48.999Z</time></trkpt><trkpt lat="43.56981975950225" lon="10.802600743783591"><ele>202.8</ele><time>2026-04-18T07:45:49.999Z</time></trkpt><trkpt lat="43.569888754008865" lon="10.802754684900924"><ele>205.0</ele><time>2026-04-18T07:45:50.999Z</time></trkpt><trkpt lat="43.569954067169064" lon="10.802905174101188"><ele>205.0</ele><time>2026-04-18T07:45:51.999Z</time></trkpt><trkpt lat="43.57001785615205" lon="10.80304598644048"><ele>205.0</ele><time>2026-04-18T07:45:52.999Z</time></trkpt><trkpt lat="43.570088910952684" lon="10.803175521560554"><ele>205.0</ele><time>2026-04-18T07:45:53.999Z</time></trkpt><trkpt lat="43.57017075082657" lon="10.803279952453028"><ele>205.0</ele><time>2026-04-18T07:45:54.999Z</time></trkpt><trkpt lat="43.570276435504006" lon="10.803344571740933"><ele>204.25</ele><time>2026-04-18T07:45:55.999Z</time></trkpt><trkpt lat="43.570399336360154" lon="10.803416059254717"><ele>203.5</ele><time>2026-04-18T07:45:56.999Z</time></trkpt><trkpt lat="43.57052196546955" lon="10.803485100529638"><ele>202.75</ele><time>2026-04-18T07:45:57.999Z</time></trkpt><trkpt lat="43.5706340706889" lon="10.803545692661686"><ele>202.0</ele><time>2026-04-18T07:45:58.999Z</time></trkpt><trkpt lat="43.57073898716851" lon="10.803612143394455"><ele>202.0</ele><time>2026-04-18T07:45:59.999Z</time></trkpt><trkpt lat="43.57083656790016" lon="10.803694123763442"><ele>202.0</ele><time>2026-04-18T07:46:00.999Z</time></trkpt><trkpt lat="43.57092053988235" lon="10.803789717880552"><ele>202.0</ele><time>2026-04-18T07:46:01.999Z</time></trkpt><trkpt lat="43.57098049660237" lon="10.803926134292778"><ele>202.0</ele><time>2026-04-18T07:46:02.999Z</time></trkpt><trkpt lat="43.57102354112902" lon="10.804090922422564"><ele>202.0</ele><time>2026-04-18T07:46:03.999Z</time></trkpt><trkpt lat="43.5710524656533" lon="10.804275178917525"><ele>202.0</ele><time>2026-04-18T07:46:04.999Z</time></trkpt><trkpt lat="43.57106088368769" lon="10.804470170701496"><ele>202.0</ele><time>2026-04-18T07:46:05.999Z</time></trkpt><trkpt lat="43.57105221531187" lon="10.804676008200811"><ele>202.0</ele><time>2026-04-18T07:46:06.999Z</time></trkpt><trkpt lat="43.57103504249393" lon="10.804891836255992"><ele>199.5</ele><time>2026-04-18T07:46:07.999Z</time></trkpt><trkpt lat="43.57101586891121" lon="10.805100300183414"><ele>197.0</ele><time>2026-04-18T07:46:08.999Z</time></trkpt><trkpt lat="43.57099555091036" lon="10.805304997630532"><ele>194.5</ele><time>2026-04-18T07:46:09.999Z</time></trkpt><trkpt lat="43.570974293546016" lon="10.80550254841164"><ele>192.0</ele><time>2026-04-18T07:46:10.999Z</time></trkpt><trkpt lat="43.570959598979606" lon="10.80569652276872"><ele>189.25</ele><time>2026-04-18T07:46:11.999Z</time></trkpt><trkpt lat="43.570961035302254" lon="10.805885279373639"><ele>186.5</ele><time>2026-04-18T07:46:12.999Z</time></trkpt><trkpt lat="43.57098152027551" lon="10.80608226345912"><ele>183.75</ele><time>2026-04-18T07:46:13.999Z</time></trkpt><trkpt lat="43.57101168711109" lon="10.8062789317926"><ele>181.0</ele><time>2026-04-18T07:46:14.999Z</time></trkpt><trkpt lat="43.571040890011744" lon="10.80646526419447"><ele>180.75</ele><time>2026-04-18T07:46:15.999Z</time></trkpt><trkpt lat="43.571068959667215" lon="10.806658773875235"><ele>180.5</ele><time>2026-04-18T07:46:16.999Z</time></trkpt><trkpt lat="43.57109530633677" lon="10.806833756618271"><ele>180.25</ele><time>2026-04-18T07:46:17.999Z</time></trkpt><trkpt lat="43.571126652754536" lon="10.807017284361448"><ele>180.0</ele><time>2026-04-18T07:46:18.999Z</time></trkpt><trkpt lat="43.571151628970505" lon="10.807194415900268"><ele>180.0</ele><time>2026-04-18T07:46:19.999Z</time></trkpt><trkpt lat="43.57115153674234" lon="10.80737758118115"><ele>180.0</ele><time>2026-04-18T07:46:20.999Z</time></trkpt><trkpt lat="43.57111311004197" lon="10.807569259362948"><ele>180.0</ele><time>2026-04-18T07:46:21.999Z</time></trkpt><trkpt lat="43.57104893431322" lon="10.807756552712725"><ele>180.0</ele><time>2026-04-18T07:46:22.999Z</time></trkpt><trkpt lat="43.57095390364936" lon="10.80792368127723"><ele>178.66666666666666</ele><time>2026-04-18T07:46:23.999Z</time></trkpt><trkpt lat="43.57084324028809" lon="10.80808609907206"><ele>177.33333333333331</ele><time>2026-04-18T07:46:24.999Z</time></trkpt><trkpt lat="43.57073723108086" lon="10.808257222933962"><ele>176.0</ele><time>2026-04-18T07:46:25.999Z</time></trkpt><trkpt lat="43.57063200386244" lon="10.808429596267178"><ele>174.5</ele><time>2026-04-18T07:46:26.999Z</time></trkpt><trkpt lat="43.57053264789125" lon="10.808589032883207"><ele>173.0</ele><time>2026-04-18T07:46:27.999Z</time></trkpt><trkpt lat="43.5704305662829" lon="10.808728053913407"><ele>171.5</ele><time>2026-04-18T07:46:28.999Z</time></trkpt><trkpt lat="43.570311929199306" lon="10.808814384624215"><ele>170.0</ele><time>2026-04-18T07:46:29.999Z</time></trkpt><trkpt lat="43.57018686831308" lon="10.808856176154944"><ele>170.0</ele><time>2026-04-18T07:46:30.999Z</time></trkpt><trkpt lat="43.5700543118447" lon="10.808845909836425"><ele>170.0</ele><time>2026-04-18T07:46:31.999Z</time></trkpt><trkpt lat="43.569919814691296" lon="10.80878201249023"><ele>170.0</ele><time>2026-04-18T07:46:32.999Z</time></trkpt><trkpt lat="43.56978793404419" lon="10.808692537891687"><ele>170.0</ele><time>2026-04-18T07:46:33.999Z</time></trkpt><trkpt lat="43.56965576247777" lon="10.808632038915134"><ele>170.0</ele><time>2026-04-18T07:46:34.999Z</time></trkpt><trkpt lat="43.56952630637043" lon="10.808624903393067"><ele>170.0</ele><time>2026-04-18T07:46:35.999Z</time></trkpt><trkpt lat="43.56939044804014" lon="10.808668675096001"><ele>170.0</ele><time>2026-04-18T07:46:36.999Z</time></trkpt><trkpt lat="43.569261967150354" lon="10.808762990360421"><ele>170.0</ele><time>2026-04-18T07:46:37.999Z</time></trkpt><trkpt lat="43.56913459277437" lon="10.808890277794816"><ele>169.33333333333331</ele><time>2026-04-18T07:46:38.999Z</time></trkpt><trkpt lat="43.569013503882616" lon="10.809052695768907"><ele>168.66666666666666</ele><time>2026-04-18T07:46:39.999Z</time></trkpt><trkpt lat="43.568914661214876" lon="10.809211042004874"><ele>168.0</ele><time>2026-04-18T07:46:40.999Z</time></trkpt><trkpt lat="43.56882149236618" lon="10.809359342906466"><ele>168.25</ele><time>2026-04-18T07:46:41.999Z</time></trkpt><trkpt lat="43.5687292196331" lon="10.809502596399104"><ele>168.5</ele><time>2026-04-18T07:46:42.999Z</time></trkpt><trkpt lat="43.568647787564856" lon="10.809635952469804"><ele>168.75</ele><time>2026-04-18T07:46:43.999Z</time></trkpt><trkpt lat="43.56857027752384" lon="10.809751343496782"><ele>169.0</ele><time>2026-04-18T07:46:44.999Z</time></trkpt><trkpt lat="43.56848114798535" lon="10.809836219513453"><ele>169.0</ele><time>2026-04-18T07:46:45.999Z</time></trkpt><trkpt lat="43.56837647352654" lon="10.80988286391126"><ele>169.0</ele><time>2026-04-18T07:46:46.999Z</time></trkpt><trkpt lat="43.56824167385157" lon="10.80990052512076"><ele>169.0</ele><time>2026-04-18T07:46:47.999Z</time></trkpt><trkpt lat="43.568114489931425" lon="10.809941667558423"><ele>169.0</ele><time>2026-04-18T07:46:48.999Z</time></trkpt><trkpt lat="43.56801550919629" lon="10.810038213991232"><ele>167.75</ele><time>2026-04-18T07:46:49.999Z</time></trkpt><trkpt lat="43.567932522228325" lon="10.810190022493245"><ele>166.5</ele><time>2026-04-18T07:46:50.999Z</time></trkpt><trkpt lat="43.56785019580358" lon="10.810357826956075"><ele>165.25</ele><time>2026-04-18T07:46:51.999Z</time></trkpt><trkpt lat="43.567779140418374" lon="10.810504000917312"><ele>164.0</ele><time>2026-04-18T07:46:52.999Z</time></trkpt><trkpt lat="43.56773328223547" lon="10.810676260922795"><ele>164.75</ele><time>2026-04-18T07:46:53.999Z</time></trkpt><trkpt lat="43.56773496352792" lon="10.810868069912706"><ele>165.5</ele><time>2026-04-18T07:46:54.999Z</time></trkpt><trkpt lat="43.567775601614315" lon="10.81105688858553"><ele>166.25</ele><time>2026-04-18T07:46:56Z</time></trkpt><trkpt lat="43.56783238149536" lon="10.811240393700512"><ele>167.0</ele><time>2026-04-18T07:46:57Z</time></trkpt><trkpt lat="43.56788838401542" lon="10.811428160998185"><ele>167.0</ele><time>2026-04-18T07:46:58Z</time></trkpt><trkpt lat="43.56793934293011" lon="10.811622409859325"><ele>167.0</ele><time>2026-04-18T07:46:59Z</time></trkpt><trkpt lat="43.567989917478556" lon="10.811816675028847"><ele>167.0</ele><time>2026-04-18T07:47:00Z</time></trkpt><trkpt lat="43.5680399590864" lon="10.812015401311085"><ele>168.25</ele><time>2026-04-18T07:47:01Z</time></trkpt><trkpt lat="43.568086542476465" lon="10.812212386868545"><ele>169.5</ele><time>2026-04-18T07:47:02Z</time></trkpt><trkpt lat="43.568130178270216" lon="10.81240351460245"><ele>170.75</ele><time>2026-04-18T07:47:03Z</time></trkpt><trkpt lat="43.568177216528596" lon="10.812571374648897"><ele>172.0</ele><time>2026-04-18T07:47:04Z</time></trkpt><trkpt lat="43.56821007901767" lon="10.812720362739753"><ele>172.0</ele><time>2026-04-18T07:47:05Z</time></trkpt><trkpt lat="43.56820429691088" lon="10.812866153853731"><ele>172.0</ele><time>2026-04-18T07:47:06Z</time></trkpt><trkpt lat="43.568169218661815" lon="10.813026381428768"><ele>172.0</ele><time>2026-04-18T07:47:07Z</time></trkpt><trkpt lat="43.568104546301264" lon="10.813194259275775"><ele>172.0</ele><time>2026-04-18T07:47:08Z</time></trkpt><trkpt lat="43.56802655659826" lon="10.813375038141055"><ele>172.33333333333334</ele><time>2026-04-18T07:47:09Z</time></trkpt><trkpt lat="43.567986572847666" lon="10.81357200605044"><ele>172.66666666666666</ele><time>2026-04-18T07:47:10Z</time></trkpt><trkpt lat="43.567989031723364" lon="10.813796911279473"><ele>173.0</ele><time>2026-04-18T07:47:11Z</time></trkpt><trkpt lat="43.568009089944525" lon="10.81403661076168"><ele>173.0</ele><time>2026-04-18T07:47:12Z</time></trkpt><trkpt lat="43.568035616907665" lon="10.81426539514556"><ele>173.0</ele><time>2026-04-18T07:47:13Z</time></trkpt><trkpt lat="43.5680565908018" lon="10.814492470271247"><ele>173.0</ele><time>2026-04-18T07:47:14Z</time></trkpt><trkpt lat="43.568081197084474" lon="10.814705942691361"><ele>174.66666666666666</ele><time>2026-04-18T07:47:15Z</time></trkpt><trkpt lat="43.56810126731739" lon="10.814930490493555"><ele>176.33333333333334</ele><time>2026-04-18T07:47:16Z</time></trkpt><trkpt lat="43.56812739734729" lon="10.815145874151609"><ele>178.0</ele><time>2026-04-18T07:47:17Z</time></trkpt><trkpt lat="43.568157870453454" lon="10.81535308994182"><ele>179.0</ele><time>2026-04-18T07:47:18Z</time></trkpt><trkpt lat="43.568203713791945" lon="10.815547272150614"><ele>180.0</ele><time>2026-04-18T07:47:19Z</time></trkpt><trkpt lat="43.568265330036844" lon="10.81573966171396"><ele>181.0</ele><time>2026-04-18T07:47:20Z</time></trkpt><trkpt lat="43.568339665169994" lon="10.8159280366864"><ele>180.0</ele><time>2026-04-18T07:47:21Z</time></trkpt><trkpt lat="43.56842715737791" lon="10.81612445067315"><ele>179.0</ele><time>2026-04-18T07:47:22Z</time></trkpt><trkpt lat="43.56851416855536" lon="10.816310959151014"><ele>178.0</ele><time>2026-04-18T07:47:23Z</time></trkpt><trkpt lat="43.56860483868901" lon="10.816504824544255"><ele>179.33333333333334</ele><time>2026-04-18T07:47:24Z</time></trkpt><trkpt lat="43.568696991234496" lon="10.816700304272219"><ele>180.66666666666666</ele><time>2026-04-18T07:47:25Z</time></trkpt><trkpt lat="43.568791931288146" lon="10.816897947430578"><ele>182.0</ele><time>2026-04-18T07:47:26Z</time></trkpt><trkpt lat="43.56888841183939" lon="10.817095318411749"><ele>182.0</ele><time>2026-04-18T07:47:27Z</time></trkpt><trkpt lat="43.568976866664386" lon="10.817284293280398"><ele>182.0</ele><time>2026-04-18T07:47:28Z</time></trkpt><trkpt lat="43.56905648978164" lon="10.817470628073155"><ele>182.0</ele><time>2026-04-18T07:47:29Z</time></trkpt><trkpt lat="43.5691322488705" lon="10.817654495500076"><ele>179.5</ele><time>2026-04-18T07:47:30Z</time></trkpt><trkpt lat="43.569196787500275" lon="10.817831126977758"><ele>177.0</ele><time>2026-04-18T07:47:31Z</time></trkpt><trkpt lat="43.56926081307191" lon="10.81799435646025"><ele>174.5</ele><time>2026-04-18T07:47:32Z</time></trkpt><trkpt lat="43.5693192545118" lon="10.818144455685907"><ele>172.0</ele><time>2026-04-18T07:47:33Z</time></trkpt><trkpt lat="43.56937625304921" lon="10.81829180468626"><ele>172.0</ele><time>2026-04-18T07:47:34Z</time></trkpt><trkpt lat="43.56943029582706" lon="10.818448650321393"><ele>172.0</ele><time>2026-04-18T07:47:35Z</time></trkpt><trkpt lat="43.56946511647537" lon="10.81861930103855"><ele>172.0</ele><time>2026-04-18T07:47:36Z</time></trkpt><trkpt lat="43.569476849269094" lon="10.818799318498757"><ele>172.0</ele><time>2026-04-18T07:47:37Z</time></trkpt><trkpt lat="43.56945810340042" lon="10.818977434182491"><ele>171.5</ele><time>2026-04-18T07:47:38Z</time></trkpt><trkpt lat="43.569429359715464" lon="10.819140789097819"><ele>171.0</ele><time>2026-04-18T07:47:39Z</time></trkpt><trkpt lat="43.56937587364589" lon="10.819299019683958"><ele>170.5</ele><time>2026-04-18T07:47:40Z</time></trkpt><trkpt lat="43.569293402338836" lon="10.819444242224792"><ele>170.0</ele><time>2026-04-18T07:47:41Z</time></trkpt><trkpt lat="43.56920691994912" lon="10.819601256207157"><ele>169.75</ele><time>2026-04-18T07:47:42Z</time></trkpt><trkpt lat="43.56912996847871" lon="10.819764121711527"><ele>169.5</ele><time>2026-04-18T07:47:43Z</time></trkpt><trkpt lat="43.569062434170576" lon="10.819917991920294"><ele>169.25</ele><time>2026-04-18T07:47:44Z</time></trkpt><trkpt lat="43.569001141221754" lon="10.820077926085478"><ele>169.0</ele><time>2026-04-18T07:47:45Z</time></trkpt><trkpt lat="43.568944984992214" lon="10.820234220633616"><ele>167.25</ele><time>2026-04-18T07:47:46Z</time></trkpt><trkpt lat="43.5689014044919" lon="10.820381972597499"><ele>165.5</ele><time>2026-04-18T07:47:47Z</time></trkpt><trkpt lat="43.56887674998357" lon="10.820537177182494"><ele>163.75</ele><time>2026-04-18T07:47:48Z</time></trkpt><trkpt lat="43.56887743357788" lon="10.820705186072194"><ele>162.0</ele><time>2026-04-18T07:47:49Z</time></trkpt><trkpt lat="43.56890209891919" lon="10.820879363907052"><ele>159.75</ele><time>2026-04-18T07:47:50Z</time></trkpt><trkpt lat="43.5689400604526" lon="10.821066867015292"><ele>157.5</ele><time>2026-04-18T07:47:51Z</time></trkpt><trkpt lat="43.56897388994338" lon="10.821257540067926"><ele>155.25</ele><time>2026-04-18T07:47:52Z</time></trkpt><trkpt lat="43.569000555469195" lon="10.821446579439693"><ele>153.0</ele><time>2026-04-18T07:47:52.999Z</time></trkpt><trkpt lat="43.569031591424654" lon="10.821637114134818"><ele>151.75</ele><time>2026-04-18T07:47:53.999Z</time></trkpt><trkpt lat="43.56906550524275" lon="10.821825200533524"><ele>150.5</ele><time>2026-04-18T07:47:54.999Z</time></trkpt><trkpt lat="43.56908778084015" lon="10.822024007820396"><ele>149.25</ele><time>2026-04-18T07:47:55.999Z</time></trkpt><trkpt lat="43.569092753480085" lon="10.822218161204292"><ele>148.0</ele><time>2026-04-18T07:47:56.999Z</time></trkpt><trkpt lat="43.569081922933705" lon="10.822399330286114"><ele>148.0</ele><time>2026-04-18T07:47:57.999Z</time></trkpt><trkpt lat="43.56906674271323" lon="10.822573608307875"><ele>148.0</ele><time>2026-04-18T07:47:58.999Z</time></trkpt><trkpt lat="43.56904958764863" lon="10.822747104612123"><ele>148.0</ele><time>2026-04-18T07:47:59.999Z</time></trkpt><trkpt lat="43.56903779437655" lon="10.822923715921332"><ele>148.0</ele><time>2026-04-18T07:48:00.999Z</time></trkpt><trkpt lat="43.569022214786415" lon="10.823106526640535"><ele>147.5</ele><time>2026-04-18T07:48:01.999Z</time></trkpt><trkpt lat="43.569003779667675" lon="10.823291575002807"><ele>147.0</ele><time>2026-04-18T07:48:02.999Z</time></trkpt><trkpt lat="43.56897555926504" lon="10.823474619128163"><ele>146.5</ele><time>2026-04-18T07:48:03.999Z</time></trkpt><trkpt lat="43.56894902460135" lon="10.823649506794977"><ele>146.0</ele><time>2026-04-18T07:48:04.999Z</time></trkpt><trkpt lat="43.56892341630891" lon="10.823819576239348"><ele>144.75</ele><time>2026-04-18T07:48:05.999Z</time></trkpt><trkpt lat="43.56889497697676" lon="10.823992371584328"><ele>143.5</ele><time>2026-04-18T07:48:06.999Z</time></trkpt><trkpt lat="43.568865839931185" lon="10.824156328626186"><ele>142.25</ele><time>2026-04-18T07:48:07.999Z</time></trkpt><trkpt lat="43.568835513708315" lon="10.824320620127736"><ele>141.0</ele><time>2026-04-18T07:48:08.999Z</time></trkpt><trkpt lat="43.56880525585565" lon="10.824474109281416"><ele>140.2</ele><time>2026-04-18T07:48:09.999Z</time></trkpt><trkpt lat="43.56878144254633" lon="10.824618225162517"><ele>139.39999999999998</ele><time>2026-04-18T07:48:10.999Z</time></trkpt><trkpt lat="43.56876382246416" lon="10.824751647809254"><ele>138.6</ele><time>2026-04-18T07:48:11.999Z</time></trkpt><trkpt lat="43.5687520315355" lon="10.82485101046543"><ele>137.79999999999998</ele><time>2026-04-18T07:48:12.999Z</time></trkpt><trkpt lat="43.568698545830294" lon="10.824990016195763"><ele>137.0</ele><time>2026-04-18T07:48:14.999Z</time></trkpt><trkpt lat="43.56857121169261" lon="10.824894021325132"><ele>136.75</ele><time>2026-04-18T07:48:17.999Z</time></trkpt><trkpt lat="43.568559404603825" lon="10.82474891452291"><ele>136.5</ele><time>2026-04-18T07:48:18.999Z</time></trkpt><trkpt lat="43.56853932716788" lon="10.82458067706836"><ele>136.25</ele><time>2026-04-18T07:48:19.999Z</time></trkpt><trkpt lat="43.568521370367094" lon="10.824400720544903"><ele>136.0</ele><time>2026-04-18T07:48:20.999Z</time></trkpt><trkpt lat="43.5684931870133" lon="10.82419687165897"><ele>134.33333333333334</ele><time>2026-04-18T07:48:21.999Z</time></trkpt><trkpt lat="43.56846631175994" lon="10.823979742615965"><ele>132.66666666666666</ele><time>2026-04-18T07:48:22.999Z</time></trkpt><trkpt lat="43.56844008728687" lon="10.823756279826084"><ele>131.0</ele><time>2026-04-18T07:48:23.999Z</time></trkpt><trkpt lat="43.56842138156857" lon="10.823543473306577"><ele>130.5</ele><time>2026-04-18T07:48:24.999Z</time></trkpt><trkpt lat="43.56840976041109" lon="10.823337471398029"><ele>130.0</ele><time>2026-04-18T07:48:25.999Z</time></trkpt><trkpt lat="43.56839834803362" lon="10.823132833676672"><ele>129.5</ele><time>2026-04-18T07:48:26.999Z</time></trkpt><trkpt lat="43.56838604715529" lon="10.822937407592562"><ele>129.0</ele><time>2026-04-18T07:48:27.999Z</time></trkpt><trkpt lat="43.568373510729884" lon="10.822740394626758"><ele>129.25</ele><time>2026-04-18T07:48:28.999Z</time></trkpt><trkpt lat="43.568365010028224" lon="10.822548844068768"><ele>129.5</ele><time>2026-04-18T07:48:29.999Z</time></trkpt><trkpt lat="43.56834755324257" lon="10.822369416641434"><ele>129.75</ele><time>2026-04-18T07:48:30.999Z</time></trkpt><trkpt lat="43.56831142900794" lon="10.822198275945151"><ele>130.0</ele><time>2026-04-18T07:48:31.999Z</time></trkpt><trkpt lat="43.56824878620727" lon="10.822048492474151"><ele>130.0</ele><time>2026-04-18T07:48:32.999Z</time></trkpt><trkpt lat="43.568154055914945" lon="10.821933787402177"><ele>130.0</ele><time>2026-04-18T07:48:33.999Z</time></trkpt><trkpt lat="43.56803710768932" lon="10.82185684189563"><ele>130.0</ele><time>2026-04-18T07:48:34.999Z</time></trkpt><trkpt lat="43.567904510295634" lon="10.821812752342337"><ele>130.0</ele><time>2026-04-18T07:48:35.999Z</time></trkpt><trkpt lat="43.56776001242273" lon="10.821782890638858"><ele>128.66666666666669</ele><time>2026-04-18T07:48:36.999Z</time></trkpt><trkpt lat="43.567612796503624" lon="10.821740699500216"><ele>127.33333333333334</ele><time>2026-04-18T07:48:37.999Z</time></trkpt><trkpt lat="43.56746203724694" lon="10.821698876077274"><ele>126.0</ele><time>2026-04-18T07:48:38.999Z</time></trkpt><trkpt lat="43.56730709686126" lon="10.821661241349746"><ele>126.0</ele><time>2026-04-18T07:48:39.999Z</time></trkpt><trkpt lat="43.567161036413054" lon="10.821620254814713"><ele>126.0</ele><time>2026-04-18T07:48:40.999Z</time></trkpt><trkpt lat="43.56701579745759" lon="10.821577398755323"><ele>126.0</ele><time>2026-04-18T07:48:41.999Z</time></trkpt><trkpt lat="43.566875921217964" lon="10.821533053876301"><ele>126.0</ele><time>2026-04-18T07:48:42.999Z</time></trkpt><trkpt lat="43.5667518813325" lon="10.821497382973387"><ele>122.0</ele><time>2026-04-18T07:48:43.999Z</time></trkpt><trkpt lat="43.566636066294016" lon="10.821463911665248"><ele>118.0</ele><time>2026-04-18T07:48:44.999Z</time></trkpt><trkpt lat="43.566522109233915" lon="10.821424016803707"><ele>114.0</ele><time>2026-04-18T07:48:45.999Z</time></trkpt><trkpt lat="43.56640856765513" lon="10.821372934205854"><ele>110.0</ele><time>2026-04-18T07:48:46.999Z</time></trkpt><trkpt lat="43.56629715509172" lon="10.821336693726211"><ele>107.25</ele><time>2026-04-18T07:48:47.999Z</time></trkpt><trkpt lat="43.566184038132825" lon="10.821315181324232"><ele>104.5</ele><time>2026-04-18T07:48:48.999Z</time></trkpt><trkpt lat="43.56606109734834" lon="10.821293557444747"><ele>101.75</ele><time>2026-04-18T07:48:49.999Z</time></trkpt><trkpt lat="43.56593091379483" lon="10.82126162090373"><ele>99.0</ele><time>2026-04-18T07:48:50.999Z</time></trkpt><trkpt lat="43.56580178492946" lon="10.821225742144604"><ele>99.0</ele><time>2026-04-18T07:48:51.999Z</time></trkpt><trkpt lat="43.56567010271249" lon="10.821175536775868"><ele>99.0</ele><time>2026-04-18T07:48:52.999Z</time></trkpt><trkpt lat="43.565537358244384" lon="10.821101164099945"><ele>99.0</ele><time>2026-04-18T07:48:53.999Z</time></trkpt><trkpt lat="43.56541418243964" lon="10.820995579463869"><ele>99.0</ele><time>2026-04-18T07:48:54.999Z</time></trkpt><trkpt lat="43.56529389308154" lon="10.820858421398755"><ele>99.0</ele><time>2026-04-18T07:48:55.999Z</time></trkpt><trkpt lat="43.56516303488453" lon="10.820705632823472"><ele>99.0</ele><time>2026-04-18T07:48:56.999Z</time></trkpt><trkpt lat="43.565020914331555" lon="10.820549435056844"><ele>99.0</ele><time>2026-04-18T07:48:57.999Z</time></trkpt><trkpt lat="43.5648787749615" lon="10.820394990603493"><ele>99.0</ele><time>2026-04-18T07:48:58.999Z</time></trkpt><trkpt lat="43.56474651948475" lon="10.8202529114818"><ele>99.0</ele><time>2026-04-18T07:48:59.999Z</time></trkpt><trkpt lat="43.56462010528146" lon="10.820113108760035"><ele>99.0</ele><time>2026-04-18T07:49:00.999Z</time></trkpt><trkpt lat="43.564504109602254" lon="10.819963794410466"><ele>94.33333333333333</ele><time>2026-04-18T07:49:02Z</time></trkpt><trkpt lat="43.56439818285305" lon="10.819797015137535"><ele>89.66666666666666</ele><time>2026-04-18T07:49:03Z</time></trkpt><trkpt lat="43.564310437544634" lon="10.819618330736006"><ele>85.0</ele><time>2026-04-18T07:49:04Z</time></trkpt><trkpt lat="43.56423856864718" lon="10.819444112553285"><ele>85.5</ele><time>2026-04-18T07:49:05Z</time></trkpt><trkpt lat="43.56416863206879" lon="10.819282466877702"><ele>86.0</ele><time>2026-04-18T07:49:06Z</time></trkpt><trkpt lat="43.564095752495085" lon="10.819124174724166"><ele>86.5</ele><time>2026-04-18T07:49:07Z</time></trkpt><trkpt lat="43.56402561535015" lon="10.818969584571505"><ele>87.0</ele><time>2026-04-18T07:49:08Z</time></trkpt><trkpt lat="43.56396754499808" lon="10.818837639073912"><ele>87.0</ele><time>2026-04-18T07:49:09Z</time></trkpt><trkpt lat="43.56390826997262" lon="10.818709444011976"><ele>87.0</ele><time>2026-04-18T07:49:10Z</time></trkpt><trkpt lat="43.56383250700502" lon="10.818612148459403"><ele>87.0</ele><time>2026-04-18T07:49:11Z</time></trkpt><trkpt lat="43.563743631380895" lon="10.818552778685643"><ele>87.0</ele><time>2026-04-18T07:49:12Z</time></trkpt><trkpt lat="43.563652687441234" lon="10.81852232524606"><ele>87.0</ele><time>2026-04-18T07:49:13Z</time></trkpt><trkpt lat="43.56356226055972" lon="10.81852302154899"><ele>85.0</ele><time>2026-04-18T07:49:14Z</time></trkpt><trkpt lat="43.56346118940312" lon="10.818564513052515"><ele>83.0</ele><time>2026-04-18T07:49:15Z</time></trkpt><trkpt lat="43.563353049554294" lon="10.818621576031223"><ele>81.0</ele><time>2026-04-18T07:49:16Z</time></trkpt><trkpt lat="43.56324220503385" lon="10.81868251988859"><ele>79.0</ele><time>2026-04-18T07:49:17Z</time></trkpt><trkpt lat="43.563140282969435" lon="10.818755085792235"><ele>79.0</ele><time>2026-04-18T07:49:18Z</time></trkpt><trkpt lat="43.563021707620656" lon="10.818839498543893"><ele>79.0</ele><time>2026-04-18T07:49:19Z</time></trkpt><trkpt lat="43.56290657596898" lon="10.818921231190396"><ele>79.0</ele><time>2026-04-18T07:49:20Z</time></trkpt><trkpt lat="43.56279954804657" lon="10.818990525945958"><ele>79.0</ele><time>2026-04-18T07:49:21Z</time></trkpt><trkpt lat="43.56269186296306" lon="10.819060603024385"><ele>80.0</ele><time>2026-04-18T07:49:22Z</time></trkpt><trkpt lat="43.562581630779086" lon="10.819126866152601"><ele>81.0</ele><time>2026-04-18T07:49:23Z</time></trkpt><trkpt lat="43.56248015188867" lon="10.819183276793474"><ele>82.0</ele><time>2026-04-18T07:49:24Z</time></trkpt><trkpt lat="43.56237365933395" lon="10.819209656437927"><ele>83.0</ele><time>2026-04-18T07:49:25Z</time></trkpt><trkpt lat="43.56226589393636" lon="10.819204292478005"><ele>84.0</ele><time>2026-04-18T07:49:26Z</time></trkpt><trkpt lat="43.562164997762686" lon="10.819161346322652"><ele>84.0</ele><time>2026-04-18T07:49:27Z</time></trkpt><trkpt lat="43.56206992264304" lon="10.819076135954996"><ele>84.0</ele><time>2026-04-18T07:49:28Z</time></trkpt><trkpt lat="43.56198115639881" lon="10.818952782129692"><ele>84.0</ele><time>2026-04-18T07:49:29Z</time></trkpt><trkpt lat="43.5619020106452" lon="10.818788502187196"><ele>84.0</ele><time>2026-04-18T07:49:30Z</time></trkpt><trkpt lat="43.56179526860775" lon="10.818637959360489"><ele>83.33333333333333</ele><time>2026-04-18T07:49:31Z</time></trkpt><trkpt lat="43.561696573819546" lon="10.81847161013733"><ele>82.66666666666666</ele><time>2026-04-18T07:49:32Z</time></trkpt><trkpt lat="43.561601926390026" lon="10.818300004786217"><ele>82.0</ele><time>2026-04-18T07:49:33Z</time></trkpt><trkpt lat="43.56150832941059" lon="10.81812572591431"><ele>82.0</ele><time>2026-04-18T07:49:34Z</time></trkpt><trkpt lat="43.561405676691734" lon="10.817944311110287"><ele>82.0</ele><time>2026-04-18T07:49:35Z</time></trkpt><trkpt lat="43.56129901300327" lon="10.817764455203841"><ele>82.0</ele><time>2026-04-18T07:49:36Z</time></trkpt><trkpt lat="43.561192422611754" lon="10.817579391335407"><ele>83.0</ele><time>2026-04-18T07:49:37Z</time></trkpt><trkpt lat="43.561086607767805" lon="10.817388949448178"><ele>84.0</ele><time>2026-04-18T07:49:38Z</time></trkpt><trkpt lat="43.560979923156175" lon="10.817208868772674"><ele>85.0</ele><time>2026-04-18T07:49:39Z</time></trkpt><trkpt lat="43.56087068344379" lon="10.817034229548172"><ele>85.0</ele><time>2026-04-18T07:49:40Z</time></trkpt><trkpt lat="43.5607544518359" lon="10.816881291688874"><ele>85.0</ele><time>2026-04-18T07:49:41Z</time></trkpt><trkpt lat="43.5606244417249" lon="10.81673757226622"><ele>85.0</ele><time>2026-04-18T07:49:42Z</time></trkpt><trkpt lat="43.56048305780276" lon="10.81660043693401"><ele>86.0</ele><time>2026-04-18T07:49:43Z</time></trkpt><trkpt lat="43.56033747675918" lon="10.81646519396056"><ele>87.0</ele><time>2026-04-18T07:49:44Z</time></trkpt><trkpt lat="43.560194947991825" lon="10.816330416582584"><ele>88.0</ele><time>2026-04-18T07:49:45Z</time></trkpt><trkpt lat="43.560061480335335" lon="10.816193583063123"><ele>88.0</ele><time>2026-04-18T07:49:46Z</time></trkpt><trkpt lat="43.559926418800494" lon="10.816059470047664"><ele>88.0</ele><time>2026-04-18T07:49:47Z</time></trkpt><trkpt lat="43.55979790119787" lon="10.815939435874661"><ele>88.0</ele><time>2026-04-18T07:49:48Z</time></trkpt><trkpt lat="43.55966884155305" lon="10.815833132579309"><ele>86.25</ele><time>2026-04-18T07:49:49Z</time></trkpt><trkpt lat="43.55953953251754" lon="10.815755393270772"><ele>84.5</ele><time>2026-04-18T07:49:50Z</time></trkpt><trkpt lat="43.55939995781734" lon="10.815707463161255"><ele>82.75</ele><time>2026-04-18T07:49:51Z</time></trkpt><trkpt lat="43.55924422944687" lon="10.815669030460493"><ele>81.0</ele><time>2026-04-18T07:49:52Z</time></trkpt><trkpt lat="43.55908890588674" lon="10.815631971760537"><ele>81.0</ele><time>2026-04-18T07:49:52.999Z</time></trkpt><trkpt lat="43.55893184108186" lon="10.815591086472713"><ele>81.0</ele><time>2026-04-18T07:49:53.999Z</time></trkpt><trkpt lat="43.55877385780327" lon="10.815552053744863"><ele>81.0</ele><time>2026-04-18T07:49:54.999Z</time></trkpt><trkpt lat="43.558610379384845" lon="10.815517054179526"><ele>80.66666666666667</ele><time>2026-04-18T07:49:55.999Z</time></trkpt><trkpt lat="43.558443469992774" lon="10.815479862255765"><ele>80.33333333333334</ele><time>2026-04-18T07:49:56.999Z</time></trkpt><trkpt lat="43.55827985639994" lon="10.815441312243728"><ele>80.0</ele><time>2026-04-18T07:49:57.999Z</time></trkpt><trkpt lat="43.55810628121902" lon="10.815406331807763"><ele>80.0</ele><time>2026-04-18T07:49:58.999Z</time></trkpt><trkpt lat="43.55793989673481" lon="10.815370507604769"><ele>80.0</ele><time>2026-04-18T07:49:59.999Z</time></trkpt><trkpt lat="43.557766514666305" lon="10.81532694328578"><ele>80.0</ele><time>2026-04-18T07:50:00.999Z</time></trkpt><trkpt lat="43.55758794769424" lon="10.815276844525725"><ele>79.0</ele><time>2026-04-18T07:50:01.999Z</time></trkpt><trkpt lat="43.55741539537552" lon="10.815231506885445"><ele>78.0</ele><time>2026-04-18T07:50:02.999Z</time></trkpt><trkpt lat="43.557262760242956" lon="10.81519225216875"><ele>77.0</ele><time>2026-04-18T07:50:03.999Z</time></trkpt><trkpt lat="43.557120475654365" lon="10.815164642186144"><ele>78.33333333333334</ele><time>2026-04-18T07:50:04.999Z</time></trkpt><trkpt lat="43.55696813561871" lon="10.815158809965746"><ele>79.66666666666667</ele><time>2026-04-18T07:50:05.999Z</time></trkpt><trkpt lat="43.556801376096836" lon="10.815185473870603"><ele>81.0</ele><time>2026-04-18T07:50:06.999Z</time></trkpt><trkpt lat="43.55662469559124" lon="10.815242390724308"><ele>81.0</ele><time>2026-04-18T07:50:07.999Z</time></trkpt><trkpt lat="43.55644321818485" lon="10.815305234602445"><ele>81.0</ele><time>2026-04-18T07:50:08.999Z</time></trkpt><trkpt lat="43.55627290882124" lon="10.815373254177784"><ele>81.0</ele><time>2026-04-18T07:50:09.999Z</time></trkpt><trkpt lat="43.5561150613548" lon="10.815434231960182"><ele>83.0</ele><time>2026-04-18T07:50:10.999Z</time></trkpt><trkpt lat="43.55596745923265" lon="10.81548049539571"><ele>85.0</ele><time>2026-04-18T07:50:11.999Z</time></trkpt><trkpt lat="43.55582072060126" lon="10.815525081200935"><ele>87.0</ele><time>2026-04-18T07:50:12.999Z</time></trkpt><trkpt lat="43.555683014405474" lon="10.815578754308671"><ele>89.0</ele><time>2026-04-18T07:50:13.999Z</time></trkpt><trkpt lat="43.555553496322425" lon="10.815658503442718"><ele>89.0</ele><time>2026-04-18T07:50:14.999Z</time></trkpt><trkpt lat="43.55543026824632" lon="10.815780456460052"><ele>89.0</ele><time>2026-04-18T07:50:15.999Z</time></trkpt><trkpt lat="43.55531691676225" lon="10.815937668630463"><ele>89.0</ele><time>2026-04-18T07:50:16.999Z</time></trkpt><trkpt lat="43.55521885278963" lon="10.81611517468155"><ele>91.66666666666667</ele><time>2026-04-18T07:50:17.999Z</time></trkpt><trkpt lat="43.555107078617986" lon="10.816327306950512"><ele>94.33333333333334</ele><time>2026-04-18T07:50:18.999Z</time></trkpt><trkpt lat="43.55498626019605" lon="10.816544748271292"><ele>97.0</ele><time>2026-04-18T07:50:19.999Z</time></trkpt><trkpt lat="43.554868334643885" lon="10.816755056552422"><ele>98.33333333333334</ele><time>2026-04-18T07:50:20.999Z</time></trkpt><trkpt lat="43.554753420781104" lon="10.816954493233705"><ele>99.66666666666666</ele><time>2026-04-18T07:50:21.999Z</time></trkpt><trkpt lat="43.55464416592705" lon="10.81715236709932"><ele>101.0</ele><time>2026-04-18T07:50:22.999Z</time></trkpt><trkpt lat="43.55453103728553" lon="10.81736110285252"><ele>101.66666666666666</ele><time>2026-04-18T07:50:23.999Z</time></trkpt><trkpt lat="43.55441432341572" lon="10.817572463833251"><ele>102.33333333333334</ele><time>2026-04-18T07:50:24.999Z</time></trkpt><trkpt lat="43.554298429326025" lon="10.817784058186126"><ele>103.0</ele><time>2026-04-18T07:50:25.999Z</time></trkpt><trkpt lat="43.55418608957383" lon="10.817992592911793"><ele>105.0</ele><time>2026-04-18T07:50:26.999Z</time></trkpt><trkpt lat="43.554073867294925" lon="10.81819750927168"><ele>107.0</ele><time>2026-04-18T07:50:27.999Z</time></trkpt><trkpt lat="43.55395910138863" lon="10.818406032412959"><ele>109.0</ele><time>2026-04-18T07:50:28.999Z</time></trkpt><trkpt lat="43.55384063895491" lon="10.818619448237287"><ele>110.33333333333334</ele><time>2026-04-18T07:50:29.999Z</time></trkpt><trkpt lat="43.553726783020544" lon="10.818821122522964"><ele>111.66666666666666</ele><time>2026-04-18T07:50:30.999Z</time></trkpt><trkpt lat="43.55362549039504" lon="10.81900365528491"><ele>113.0</ele><time>2026-04-18T07:50:31.999Z</time></trkpt><trkpt lat="43.553527695008" lon="10.819186063800425"><ele>116.0</ele><time>2026-04-18T07:50:32.999Z</time></trkpt><trkpt lat="43.55343520545805" lon="10.819366670571748"><ele>119.0</ele><time>2026-04-18T07:50:33.999Z</time></trkpt><trkpt lat="43.55333053837542" lon="10.81955009534015"><ele>122.0</ele><time>2026-04-18T07:50:34.999Z</time></trkpt><trkpt lat="43.5532231535933" lon="10.819740828213492"><ele>122.0</ele><time>2026-04-18T07:50:35.999Z</time></trkpt><trkpt lat="43.55311353915111" lon="10.81993979110969"><ele>122.0</ele><time>2026-04-18T07:50:36.999Z</time></trkpt><trkpt lat="43.55300293998745" lon="10.820131257748278"><ele>122.0</ele><time>2026-04-18T07:50:37.999Z</time></trkpt><trkpt lat="43.55289160683017" lon="10.82032658133289"><ele>123.33333333333333</ele><time>2026-04-18T07:50:38.999Z</time></trkpt><trkpt lat="43.55278458856277" lon="10.820528738489845"><ele>124.66666666666666</ele><time>2026-04-18T07:50:39.999Z</time></trkpt><trkpt lat="43.55267904477935" lon="10.820723406039585"><ele>126.0</ele><time>2026-04-18T07:50:40.999Z</time></trkpt><trkpt lat="43.55257324498615" lon="10.82091726775965"><ele>127.66666666666666</ele><time>2026-04-18T07:50:41.999Z</time></trkpt><trkpt lat="43.55246793001562" lon="10.821112987161495"><ele>129.33333333333331</ele><time>2026-04-18T07:50:42.999Z</time></trkpt><trkpt lat="43.5523634917584" lon="10.82130390847213"><ele>131.0</ele><time>2026-04-18T07:50:43.999Z</time></trkpt><trkpt lat="43.55225513163222" lon="10.821502063743313"><ele>131.0</ele><time>2026-04-18T07:50:44.999Z</time></trkpt><trkpt lat="43.55214710167189" lon="10.821699652330947"><ele>131.0</ele><time>2026-04-18T07:50:45.999Z</time></trkpt><trkpt lat="43.55204733587861" lon="10.821885539935872"><ele>131.0</ele><time>2026-04-18T07:50:46.999Z</time></trkpt><trkpt lat="43.551950675247916" lon="10.822063876540778"><ele>133.0</ele><time>2026-04-18T07:50:47.999Z</time></trkpt><trkpt lat="43.551855725778736" lon="10.82223481370434"><ele>135.0</ele><time>2026-04-18T07:50:48.999Z</time></trkpt><trkpt lat="43.551763754919435" lon="10.822402400628874"><ele>137.0</ele><time>2026-04-18T07:50:49.999Z</time></trkpt><trkpt lat="43.55167006418083" lon="10.822571672668168"><ele>139.5</ele><time>2026-04-18T07:50:50.999Z</time></trkpt><trkpt lat="43.55156881043152" lon="10.82272023584327"><ele>142.0</ele><time>2026-04-18T07:50:51.999Z</time></trkpt><trkpt lat="43.55147090084575" lon="10.82283652921949"><ele>144.5</ele><time>2026-04-18T07:50:52.999Z</time></trkpt><trkpt lat="43.551368261541924" lon="10.822914113788356"><ele>147.0</ele><time>2026-04-18T07:50:53.999Z</time></trkpt><trkpt lat="43.55125327929928" lon="10.822926288967663"><ele>147.0</ele><time>2026-04-18T07:50:54.999Z</time></trkpt><trkpt lat="43.55112994602362" lon="10.822958381312233"><ele>147.0</ele><time>2026-04-18T07:50:55.999Z</time></trkpt><trkpt lat="43.55099215068761" lon="10.822956984166732"><ele>147.0</ele><time>2026-04-18T07:50:56.999Z</time></trkpt><trkpt lat="43.55084362132819" lon="10.822945291457204"><ele>147.0</ele><time>2026-04-18T07:50:57.999Z</time></trkpt><trkpt lat="43.550699805158416" lon="10.822882005096373"><ele>147.0</ele><time>2026-04-18T07:50:58.999Z</time></trkpt><trkpt lat="43.55053027742449" lon="10.822823583865627"><ele>147.0</ele><time>2026-04-18T07:50:59.999Z</time></trkpt><trkpt lat="43.55034489435426" lon="10.82277185321483"><ele>147.0</ele><time>2026-04-18T07:51:00.999Z</time></trkpt><trkpt lat="43.550152727444456" lon="10.822719503176268"><ele>148.0</ele><time>2026-04-18T07:51:01.999Z</time></trkpt><trkpt lat="43.54995752309039" lon="10.822669595753347"><ele>149.0</ele><time>2026-04-18T07:51:02.999Z</time></trkpt><trkpt lat="43.549766609105106" lon="10.82262594432508"><ele>150.0</ele><time>2026-04-18T07:51:03.999Z</time></trkpt><trkpt lat="43.54957801445577" lon="10.822605820305228"><ele>148.33333333333334</ele><time>2026-04-18T07:51:04.999Z</time></trkpt><trkpt lat="43.549405334585735" lon="10.822560065845382"><ele>146.66666666666669</ele><time>2026-04-18T07:51:05.999Z</time></trkpt><trkpt lat="43.549231835008804" lon="10.822518526943055"><ele>145.0</ele><time>2026-04-18T07:51:06.999Z</time></trkpt><trkpt lat="43.549064856375864" lon="10.822479622259127"><ele>145.0</ele><time>2026-04-18T07:51:08Z</time></trkpt><trkpt lat="43.54890887858912" lon="10.822432087401829"><ele>145.0</ele><time>2026-04-18T07:51:09Z</time></trkpt><trkpt lat="43.54876727804732" lon="10.822372643220712"><ele>145.0</ele><time>2026-04-18T07:51:10Z</time></trkpt><trkpt lat="43.548633811533975" lon="10.82229668993267"><ele>148.0</ele><time>2026-04-18T07:51:11Z</time></trkpt><trkpt lat="43.548502580842325" lon="10.822202222936088"><ele>151.0</ele><time>2026-04-18T07:51:12Z</time></trkpt><trkpt lat="43.5483803649414" lon="10.822082993135945"><ele>154.0</ele><time>2026-04-18T07:51:13Z</time></trkpt><trkpt lat="43.54826402918009" lon="10.821931694751083"><ele>151.66666666666669</ele><time>2026-04-18T07:51:14Z</time></trkpt><trkpt lat="43.54814569048562" lon="10.821766257637881"><ele>149.33333333333334</ele><time>2026-04-18T07:51:15Z</time></trkpt><trkpt lat="43.54803139281917" lon="10.821606228162224"><ele>147.0</ele><time>2026-04-18T07:51:16Z</time></trkpt><trkpt lat="43.54792833582723" lon="10.821459256027302"><ele>146.25</ele><time>2026-04-18T07:51:17Z</time></trkpt><trkpt lat="43.547828063718256" lon="10.821320231835156"><ele>145.5</ele><time>2026-04-18T07:51:18Z</time></trkpt><trkpt lat="43.54773164919553" lon="10.821190652430483"><ele>144.75</ele><time>2026-04-18T07:51:19Z</time></trkpt><trkpt lat="43.54763985366517" lon="10.821066191332921"><ele>144.0</ele><time>2026-04-18T07:51:20Z</time></trkpt><trkpt lat="43.54755242837513" lon="10.820945198352435"><ele>144.0</ele><time>2026-04-18T07:51:21Z</time></trkpt><trkpt lat="43.54745596380978" lon="10.82081411996329"><ele>144.0</ele><time>2026-04-18T07:51:22Z</time></trkpt><trkpt lat="43.54736722484405" lon="10.820680025049535"><ele>144.0</ele><time>2026-04-18T07:51:23Z</time></trkpt><trkpt lat="43.547289872587235" lon="10.82055802007372"><ele>144.0</ele><time>2026-04-18T07:51:24Z</time></trkpt><trkpt lat="43.547218485883576" lon="10.82045615632429"><ele>144.0</ele><time>2026-04-18T07:51:25Z</time></trkpt><trkpt lat="43.54714754209537" lon="10.820381870684173"><ele>144.0</ele><time>2026-04-18T07:51:26Z</time></trkpt><trkpt lat="43.547084199615995" lon="10.820338689699717"><ele>144.0</ele><time>2026-04-18T07:51:27Z</time></trkpt><trkpt lat="43.54701986677181" lon="10.820344707468335"><ele>144.0</ele><time>2026-04-18T07:51:28Z</time></trkpt><trkpt lat="43.54694512003171" lon="10.820402835140685"><ele>144.0</ele><time>2026-04-18T07:51:29Z</time></trkpt><trkpt lat="43.5468800622737" lon="10.820499789969192"><ele>144.0</ele><time>2026-04-18T07:51:30Z</time></trkpt><trkpt lat="43.54683073261603" lon="10.82063229710741"><ele>140.25</ele><time>2026-04-18T07:51:31Z</time></trkpt><trkpt lat="43.546799796695424" lon="10.820803954702297"><ele>136.5</ele><time>2026-04-18T07:51:32Z</time></trkpt><trkpt lat="43.546762731069826" lon="10.82095396560592"><ele>132.75</ele><time>2026-04-18T07:51:33Z</time></trkpt><trkpt lat="43.54672646398348" lon="10.821116347406166"><ele>129.0</ele><time>2026-04-18T07:51:34Z</time></trkpt><trkpt lat="43.54668281091023" lon="10.821300646640788"><ele>128.5</ele><time>2026-04-18T07:51:35Z</time></trkpt><trkpt lat="43.546633630722766" lon="10.821499201863714"><ele>128.0</ele><time>2026-04-18T07:51:36Z</time></trkpt><trkpt lat="43.546571380086675" lon="10.821687310713097"><ele>127.5</ele><time>2026-04-18T07:51:37Z</time></trkpt><trkpt lat="43.546548433748136" lon="10.82188017632881"><ele>127.0</ele><time>2026-04-18T07:51:38Z</time></trkpt><trkpt lat="43.54650556604617" lon="10.822067318520629"><ele>126.39999999999999</ele><time>2026-04-18T07:51:39Z</time></trkpt><trkpt lat="43.54646787459065" lon="10.822236446833777"><ele>125.79999999999998</ele><time>2026-04-18T07:51:40Z</time></trkpt><trkpt lat="43.546436176845724" lon="10.822373505758975"><ele>125.2</ele><time>2026-04-18T07:51:41Z</time></trkpt><trkpt lat="43.5464121143151" lon="10.822493631291465"><ele>124.6</ele><time>2026-04-18T07:51:42Z</time></trkpt><trkpt lat="43.54638634167531" lon="10.822611525826947"><ele>124.0</ele><time>2026-04-18T07:51:43Z</time></trkpt><trkpt lat="43.54636138156066" lon="10.822702495942796"><ele>123.66666666666667</ele><time>2026-04-18T07:51:44Z</time></trkpt><trkpt lat="43.54632264138228" lon="10.822787610925204"><ele>123.33333333333334</ele><time>2026-04-18T07:51:45Z</time></trkpt><trkpt lat="43.54625727870273" lon="10.822841119966773"><ele>123.0</ele><time>2026-04-18T07:51:46Z</time></trkpt><trkpt lat="43.5461621019156" lon="10.82286285195965"><ele>122.66666666666666</ele><time>2026-04-18T07:51:47Z</time></trkpt><trkpt lat="43.546077500062076" lon="10.822830206482188"><ele>122.33333333333333</ele><time>2026-04-18T07:51:48Z</time></trkpt><trkpt lat="43.54600227791358" lon="10.822754629569602"><ele>122.0</ele><time>2026-04-18T07:51:49Z</time></trkpt><trkpt lat="43.54595176640682" lon="10.822615910696667"><ele>119.0</ele><time>2026-04-18T07:51:50Z</time></trkpt><trkpt lat="43.545866488719604" lon="10.822474755429182"><ele>116.0</ele><time>2026-04-18T07:51:51Z</time></trkpt><trkpt lat="43.54579103695318" lon="10.82230114570836"><ele>113.0</ele><time>2026-04-18T07:51:52Z</time></trkpt><trkpt lat="43.545724148293104" lon="10.82212350857806"><ele>110.0</ele><time>2026-04-18T07:51:53Z</time></trkpt><trkpt lat="43.54568651516937" lon="10.821941796898967"><ele>110.0</ele><time>2026-04-18T07:51:54Z</time></trkpt><trkpt lat="43.545642372315655" lon="10.821752462393434"><ele>110.0</ele><time>2026-04-18T07:51:55Z</time></trkpt><trkpt lat="43.545587089387354" lon="10.821551601821792"><ele>110.0</ele><time>2026-04-18T07:51:55.999Z</time></trkpt><trkpt lat="43.54554627257855" lon="10.821331265181533"><ele>110.0</ele><time>2026-04-18T07:51:56.999Z</time></trkpt><trkpt lat="43.545508428138895" lon="10.821125161052883"><ele>110.0</ele><time>2026-04-18T07:51:57.999Z</time></trkpt><trkpt lat="43.54547262383895" lon="10.820934484545102"><ele>110.0</ele><time>2026-04-18T07:51:58.999Z</time></trkpt><trkpt lat="43.54543598133869" lon="10.820755302591458"><ele>110.0</ele><time>2026-04-18T07:51:59.999Z</time></trkpt><trkpt lat="43.54541553093922" lon="10.820585337542669"><ele>106.75</ele><time>2026-04-18T07:52:00.999Z</time></trkpt><trkpt lat="43.54536132674588" lon="10.820423351462713"><ele>103.5</ele><time>2026-04-18T07:52:01.999Z</time></trkpt><trkpt lat="43.54526771299876" lon="10.820267682324296"><ele>100.25</ele><time>2026-04-18T07:52:02.999Z</time></trkpt><trkpt lat="43.54513272835164" lon="10.820150488410379"><ele>97.0</ele><time>2026-04-18T07:52:03.999Z</time></trkpt><trkpt lat="43.54502325171579" lon="10.820023233556462"><ele>97.0</ele><time>2026-04-18T07:52:04.999Z</time></trkpt><trkpt lat="43.544916230104285" lon="10.81988746050316"><ele>97.0</ele><time>2026-04-18T07:52:05.999Z</time></trkpt><trkpt lat="43.544823278405346" lon="10.819730771001701"><ele>97.0</ele><time>2026-04-18T07:52:06.999Z</time></trkpt><trkpt lat="43.54474656228938" lon="10.81956187697906"><ele>97.0</ele><time>2026-04-18T07:52:07.999Z</time></trkpt><trkpt lat="43.544698091625385" lon="10.819377087577667"><ele>98.0</ele><time>2026-04-18T07:52:08.999Z</time></trkpt><trkpt lat="43.54466346355619" lon="10.819150353890755"><ele>99.0</ele><time>2026-04-18T07:52:09.999Z</time></trkpt><trkpt lat="43.544633448310535" lon="10.81889996813186"><ele>100.0</ele><time>2026-04-18T07:52:10.999Z</time></trkpt><trkpt lat="43.544599325719304" lon="10.818647462490272"><ele>98.66666666666667</ele><time>2026-04-18T07:52:11.999Z</time></trkpt><trkpt lat="43.544565893374276" lon="10.818402462989797"><ele>97.33333333333334</ele><time>2026-04-18T07:52:12.999Z</time></trkpt><trkpt lat="43.54453718981882" lon="10.818177769123597"><ele>96.0</ele><time>2026-04-18T07:52:13.999Z</time></trkpt><trkpt lat="43.544508157736836" lon="10.817963276464065"><ele>92.75</ele><time>2026-04-18T07:52:14.999Z</time></trkpt><trkpt lat="43.54448308874944" lon="10.817757984946214"><ele>89.5</ele><time>2026-04-18T07:52:15.999Z</time></trkpt><trkpt lat="43.54446107396444" lon="10.81755880052094"><ele>86.25</ele><time>2026-04-18T07:52:16.999Z</time></trkpt><trkpt lat="43.5444361094029" lon="10.81737669526527"><ele>83.0</ele><time>2026-04-18T07:52:17.999Z</time></trkpt><trkpt lat="43.54440801910107" lon="10.81720673362642"><ele>83.0</ele><time>2026-04-18T07:52:18.999Z</time></trkpt><trkpt lat="43.54437394361356" lon="10.817058790125943"><ele>83.0</ele><time>2026-04-18T07:52:19.999Z</time></trkpt><trkpt lat="43.54431426265661" lon="10.816925066768919"><ele>83.0</ele><time>2026-04-18T07:52:20.999Z</time></trkpt><trkpt lat="43.544230685884614" lon="10.816821640549218"><ele>83.0</ele><time>2026-04-18T07:52:21.999Z</time></trkpt><trkpt lat="43.54412351273223" lon="10.816763141801992"><ele>83.0</ele><time>2026-04-18T07:52:22.999Z</time></trkpt><trkpt lat="43.544002040986406" lon="10.816751991180821"><ele>83.0</ele><time>2026-04-18T07:52:23.999Z</time></trkpt><trkpt lat="43.543872855861345" lon="10.816786874196838"><ele>83.0</ele><time>2026-04-18T07:52:24.999Z</time></trkpt><trkpt lat="43.54372649068353" lon="10.816852446654444"><ele>83.0</ele><time>2026-04-18T07:52:25.999Z</time></trkpt><trkpt lat="43.54356866607009" lon="10.8169237848627"><ele>82.0</ele><time>2026-04-18T07:52:26.999Z</time></trkpt><trkpt lat="43.54340448959762" lon="10.816992243801016"><ele>81.0</ele><time>2026-04-18T07:52:27.999Z</time></trkpt><trkpt lat="43.54326509494021" lon="10.817062424248622"><ele>80.0</ele><time>2026-04-18T07:52:28.999Z</time></trkpt><trkpt lat="43.543136834178895" lon="10.817116020405836"><ele>80.0</ele><time>2026-04-18T07:52:29.999Z</time></trkpt><trkpt lat="43.54302102590506" lon="10.817170864740053"><ele>80.0</ele><time>2026-04-18T07:52:30.999Z</time></trkpt><trkpt lat="43.54291869584238" lon="10.817239090792999"><ele>80.0</ele><time>2026-04-18T07:52:31.999Z</time></trkpt><trkpt lat="43.54283035640186" lon="10.817336024093906"><ele>80.0</ele><time>2026-04-18T07:52:32.999Z</time></trkpt><trkpt lat="43.542735386180986" lon="10.817461084816456"><ele>82.0</ele><time>2026-04-18T07:52:33.999Z</time></trkpt><trkpt lat="43.54267259724781" lon="10.817645969820212"><ele>84.0</ele><time>2026-04-18T07:52:34.999Z</time></trkpt><trkpt lat="43.542666057661144" lon="10.81786157310042"><ele>86.0</ele><time>2026-04-18T07:52:35.999Z</time></trkpt><trkpt lat="43.542649485242606" lon="10.81807347908037"><ele>88.0</ele><time>2026-04-18T07:52:36.999Z</time></trkpt><trkpt lat="43.54263001617034" lon="10.818283645550135"><ele>90.0</ele><time>2026-04-18T07:52:37.999Z</time></trkpt><trkpt lat="43.54261759509692" lon="10.818514203907517"><ele>92.0</ele><time>2026-04-18T07:52:38.999Z</time></trkpt><trkpt lat="43.54259436202028" lon="10.818743301513205"><ele>93.66666666666667</ele><time>2026-04-18T07:52:39.999Z</time></trkpt><trkpt lat="43.54257978033085" lon="10.8189655948936"><ele>95.33333333333334</ele><time>2026-04-18T07:52:40.999Z</time></trkpt><trkpt lat="43.54256521889473" lon="10.81918757934782"><ele>97.0</ele><time>2026-04-18T07:52:41.999Z</time></trkpt><trkpt lat="43.542549898324474" lon="10.819421136530643"><ele>98.33333333333334</ele><time>2026-04-18T07:52:42.999Z</time></trkpt><trkpt lat="43.54253018018314" lon="10.819649533884784"><ele>99.66666666666666</ele><time>2026-04-18T07:52:43.999Z</time></trkpt><trkpt lat="43.54249841020446" lon="10.819868662524254"><ele>101.0</ele><time>2026-04-18T07:52:44.999Z</time></trkpt><trkpt lat="43.54247462181007" lon="10.8200843924921"><ele>102.0</ele><time>2026-04-18T07:52:45.999Z</time></trkpt><trkpt lat="43.54242574972496" lon="10.820282974379536"><ele>103.0</ele><time>2026-04-18T07:52:46.999Z</time></trkpt><trkpt lat="43.54237244466057" lon="10.82049997287494"><ele>104.0</ele><time>2026-04-18T07:52:47.999Z</time></trkpt><trkpt lat="43.542320663158115" lon="10.820715013261083"><ele>104.0</ele><time>2026-04-18T07:52:48.999Z</time></trkpt><trkpt lat="43.54226596026658" lon="10.820907224916752"><ele>104.0</ele><time>2026-04-18T07:52:49.999Z</time></trkpt><trkpt lat="43.54220247191383" lon="10.82106814053363"><ele>104.0</ele><time>2026-04-18T07:52:50.999Z</time></trkpt><trkpt lat="43.54211848635043" lon="10.821233831768959"><ele>104.0</ele><time>2026-04-18T07:52:51.999Z</time></trkpt><trkpt lat="43.54201776785397" lon="10.821415388153495"><ele>109.33333333333333</ele><time>2026-04-18T07:52:52.999Z</time></trkpt><trkpt lat="43.541921157853174" lon="10.821582874637945"><ele>114.66666666666666</ele><time>2026-04-18T07:52:53.999Z</time></trkpt><trkpt lat="43.541846536350995" lon="10.821753724374908"><ele>120.0</ele><time>2026-04-18T07:52:54.999Z</time></trkpt><trkpt lat="43.54179967044213" lon="10.821968793121092"><ele>120.66666666666666</ele><time>2026-04-18T07:52:55.999Z</time></trkpt><trkpt lat="43.541780627368574" lon="10.822182105652544"><ele>121.33333333333333</ele><time>2026-04-18T07:52:56.999Z</time></trkpt><trkpt lat="43.541783606465884" lon="10.822399741251676"><ele>122.0</ele><time>2026-04-18T07:52:57.999Z</time></trkpt><trkpt lat="43.541774697745396" lon="10.822595887484061"><ele>123.0</ele><time>2026-04-18T07:52:58.999Z</time></trkpt><trkpt lat="43.541751799327386" lon="10.8227854256729"><ele>124.0</ele><time>2026-04-18T07:52:59.999Z</time></trkpt><trkpt lat="43.541716410783955" lon="10.82298695031123"><ele>125.0</ele><time>2026-04-18T07:53:00.999Z</time></trkpt><trkpt lat="43.54166128145425" lon="10.823200908687115"><ele>125.0</ele><time>2026-04-18T07:53:01.999Z</time></trkpt><trkpt lat="43.54160001516834" lon="10.823413529490137"><ele>125.0</ele><time>2026-04-18T07:53:02.999Z</time></trkpt><trkpt lat="43.541537889382546" lon="10.823614769771178"><ele>125.0</ele><time>2026-04-18T07:53:03.999Z</time></trkpt><trkpt lat="43.54147636987633" lon="10.823814855888234"><ele>125.0</ele><time>2026-04-18T07:53:04.999Z</time></trkpt><trkpt lat="43.541418504917175" lon="10.823985508039998"><ele>125.0</ele><time>2026-04-18T07:53:05.999Z</time></trkpt><trkpt lat="43.54135836080825" lon="10.82417036718145"><ele>125.0</ele><time>2026-04-18T07:53:06.999Z</time></trkpt><trkpt lat="43.54129265740603" lon="10.82435441021718"><ele>125.0</ele><time>2026-04-18T07:53:07.999Z</time></trkpt><trkpt lat="43.541234630512015" lon="10.824537449904705"><ele>129.0</ele><time>2026-04-18T07:53:08.999Z</time></trkpt><trkpt lat="43.541179840163245" lon="10.824714420175004"><ele>133.0</ele><time>2026-04-18T07:53:09.999Z</time></trkpt><trkpt lat="43.54112674716266" lon="10.824895832557804"><ele>137.0</ele><time>2026-04-18T07:53:10.998Z</time></trkpt><trkpt lat="43.541075659342845" lon="10.825081936176497"><ele>141.0</ele><time>2026-04-18T07:53:11.998Z</time></trkpt><trkpt lat="43.541025934992376" lon="10.825267104341428"><ele>141.0</ele><time>2026-04-18T07:53:12.998Z</time></trkpt><trkpt lat="43.54096919186136" lon="10.825462758454673"><ele>141.0</ele><time>2026-04-18T07:53:14Z</time></trkpt><trkpt lat="43.540912383131946" lon="10.825663853681867"><ele>141.0</ele><time>2026-04-18T07:53:15Z</time></trkpt><trkpt lat="43.54086208874501" lon="10.825865510070969"><ele>141.5</ele><time>2026-04-18T07:53:16Z</time></trkpt><trkpt lat="43.540812391857564" lon="10.826064573300831"><ele>142.0</ele><time>2026-04-18T07:53:17Z</time></trkpt><trkpt lat="43.54076437924385" lon="10.82625397408834"><ele>142.5</ele><time>2026-04-18T07:53:18Z</time></trkpt><trkpt lat="43.54071364372763" lon="10.826446216990409"><ele>143.0</ele><time>2026-04-18T07:53:19Z</time></trkpt><trkpt lat="43.540661988078256" lon="10.826638717901423"><ele>142.5</ele><time>2026-04-18T07:53:20Z</time></trkpt><trkpt lat="43.540609122747796" lon="10.826832502228559"><ele>142.0</ele><time>2026-04-18T07:53:21Z</time></trkpt><trkpt lat="43.54055500281967" lon="10.827020183992847"><ele>141.5</ele><time>2026-04-18T07:53:22Z</time></trkpt><trkpt lat="43.5404984658283" lon="10.827206669851789"><ele>141.0</ele><time>2026-04-18T07:53:23Z</time></trkpt><trkpt lat="43.540428366123145" lon="10.827390907189601"><ele>143.5</ele><time>2026-04-18T07:53:24Z</time></trkpt><trkpt lat="43.5403450310215" lon="10.82756611013949"><ele>146.0</ele><time>2026-04-18T07:53:25Z</time></trkpt><trkpt lat="43.540259577455046" lon="10.827729715789406"><ele>148.5</ele><time>2026-04-18T07:53:26Z</time></trkpt><trkpt lat="43.540183905430766" lon="10.827868049493539"><ele>151.0</ele><time>2026-04-18T07:53:27Z</time></trkpt><trkpt lat="43.54011720777947" lon="10.8279771720449"><ele>151.0</ele><time>2026-04-18T07:53:28Z</time></trkpt><trkpt lat="43.54006305050415" lon="10.828089757094157"><ele>151.0</ele><time>2026-04-18T07:53:29Z</time></trkpt><trkpt lat="43.53998960125244" lon="10.828164854501273"><ele>151.0</ele><time>2026-04-18T07:53:30Z</time></trkpt><trkpt lat="43.54000992896449" lon="10.828399969444696"><ele>151.0</ele><time>2026-04-18T07:53:31Z</time></trkpt><trkpt lat="43.540037523594904" lon="10.828589699179005"><ele>151.33333333333334</ele><time>2026-04-18T07:53:32Z</time></trkpt><trkpt lat="43.54006897204332" lon="10.828810148277165"><ele>151.66666666666666</ele><time>2026-04-18T07:53:33Z</time></trkpt><trkpt lat="43.54010051525203" lon="10.82903290807607"><ele>152.0</ele><time>2026-04-18T07:53:34Z</time></trkpt><trkpt lat="43.54012947130003" lon="10.829242273015234"><ele>152.25</ele><time>2026-04-18T07:53:35Z</time></trkpt><trkpt lat="43.54016045232582" lon="10.829466279308997"><ele>152.5</ele><time>2026-04-18T07:53:36Z</time></trkpt><trkpt lat="43.540185772962595" lon="10.82966395079759"><ele>152.75</ele><time>2026-04-18T07:53:37Z</time></trkpt><trkpt lat="43.540209077514426" lon="10.829846769673434"><ele>153.0</ele><time>2026-04-18T07:53:38Z</time></trkpt><trkpt lat="43.54023358882723" lon="10.830054530927205"><ele>154.0</ele><time>2026-04-18T07:53:39Z</time></trkpt><trkpt lat="43.54025044223735" lon="10.830246729998821"><ele>155.0</ele><time>2026-04-18T07:53:40Z</time></trkpt><trkpt lat="43.54025753791866" lon="10.830412627374606"><ele>156.0</ele><time>2026-04-18T07:53:41Z</time></trkpt><trkpt lat="43.54027176704348" lon="10.830615312547867"><ele>157.0</ele><time>2026-04-18T07:53:42Z</time></trkpt><trkpt lat="43.54025607842163" lon="10.830837008989583"><ele>158.66666666666669</ele><time>2026-04-18T07:53:43Z</time></trkpt><trkpt lat="43.540238346337574" lon="10.831084808954357"><ele>160.33333333333334</ele><time>2026-04-18T07:53:44Z</time></trkpt><trkpt lat="43.54022023940241" lon="10.831349167309543"><ele>162.0</ele><time>2026-04-18T07:53:45Z</time></trkpt><trkpt lat="43.54020806089069" lon="10.831591868101079"><ele>162.0</ele><time>2026-04-18T07:53:46Z</time></trkpt><trkpt lat="43.540198800418146" lon="10.831799152305285"><ele>162.0</ele><time>2026-04-18T07:53:47Z</time></trkpt><trkpt lat="43.540195973817745" lon="10.832011730678255"><ele>162.0</ele><time>2026-04-18T07:53:48Z</time></trkpt><trkpt lat="43.540208814905064" lon="10.832214852371022"><ele>162.33333333333334</ele><time>2026-04-18T07:53:49Z</time></trkpt><trkpt lat="43.54024822634488" lon="10.832440451679938"><ele>162.66666666666669</ele><time>2026-04-18T07:53:50Z</time></trkpt><trkpt lat="43.54029159910833" lon="10.832656274677657"><ele>163.0</ele><time>2026-04-18T07:53:51Z</time></trkpt><trkpt lat="43.54031837289843" lon="10.83283432875882"><ele>163.0</ele><time>2026-04-18T07:53:52Z</time></trkpt><trkpt lat="43.54033866906337" lon="10.833005177116117"><ele>163.0</ele><time>2026-04-18T07:53:53Z</time></trkpt><trkpt lat="43.540350001087546" lon="10.833191206581668"><ele>163.0</ele><time>2026-04-18T07:53:54Z</time></trkpt><trkpt lat="43.54035379348387" lon="10.833408940607367"><ele>163.0</ele><time>2026-04-18T07:53:55Z</time></trkpt><trkpt lat="43.54034970795891" lon="10.833643745282208"><ele>162.33333333333334</ele><time>2026-04-18T07:53:56Z</time></trkpt><trkpt lat="43.54034426699731" lon="10.833887620008493"><ele>161.66666666666666</ele><time>2026-04-18T07:53:57Z</time></trkpt><trkpt lat="43.540336427389974" lon="10.834130780537956"><ele>161.0</ele><time>2026-04-18T07:53:58Z</time></trkpt><trkpt lat="43.540324819104775" lon="10.834377664318101"><ele>161.0</ele><time>2026-04-18T07:53:59Z</time></trkpt><trkpt lat="43.54031257033997" lon="10.834608527611458"><ele>161.0</ele><time>2026-04-18T07:54:00Z</time></trkpt><trkpt lat="43.540301307826894" lon="10.834816597072512"><ele>161.0</ele><time>2026-04-18T07:54:01Z</time></trkpt><trkpt lat="43.54029015674049" lon="10.835038432631524"><ele>160.66666666666666</ele><time>2026-04-18T07:54:02Z</time></trkpt><trkpt lat="43.54027921813625" lon="10.83526418835299"><ele>160.33333333333334</ele><time>2026-04-18T07:54:03Z</time></trkpt><trkpt lat="43.54026757768739" lon="10.835475597749472"><ele>160.0</ele><time>2026-04-18T07:54:04Z</time></trkpt><trkpt lat="43.540259020529064" lon="10.835671344174923"><ele>160.0</ele><time>2026-04-18T07:54:05Z</time></trkpt><trkpt lat="43.54024966643128" lon="10.835862621713693"><ele>160.0</ele><time>2026-04-18T07:54:05.999Z</time></trkpt><trkpt lat="43.54024015980922" lon="10.836054362485761"><ele>160.0</ele><time>2026-04-18T07:54:06.999Z</time></trkpt><trkpt lat="43.54023127539862" lon="10.836250127209281"><ele>160.0</ele><time>2026-04-18T07:54:07.999Z</time></trkpt><trkpt lat="43.54022570006202" lon="10.836448097949354"><ele>159.0</ele><time>2026-04-18T07:54:08.999Z</time></trkpt><trkpt lat="43.54022057414861" lon="10.836647590528582"><ele>158.0</ele><time>2026-04-18T07:54:09.999Z</time></trkpt><trkpt lat="43.540225174008" lon="10.83685769847807"><ele>157.0</ele><time>2026-04-18T07:54:10.999Z</time></trkpt><trkpt lat="43.54024040791024" lon="10.837075547395079"><ele>157.0</ele><time>2026-04-18T07:54:11.999Z</time></trkpt><trkpt lat="43.54024385283604" lon="10.837288551867582"><ele>157.0</ele><time>2026-04-18T07:54:12.999Z</time></trkpt><trkpt lat="43.54027454797901" lon="10.837506594496212"><ele>157.0</ele><time>2026-04-18T07:54:13.999Z</time></trkpt><trkpt lat="43.54032745150515" lon="10.837712767288194"><ele>157.66666666666669</ele><time>2026-04-18T07:54:14.999Z</time></trkpt><trkpt lat="43.54036404319211" lon="10.837914981281783"><ele>158.33333333333334</ele><time>2026-04-18T07:54:15.999Z</time></trkpt><trkpt lat="43.540401043313054" lon="10.8381234858182"><ele>159.0</ele><time>2026-04-18T07:54:16.999Z</time></trkpt><trkpt lat="43.54043477449398" lon="10.83832250112873"><ele>162.0</ele><time>2026-04-18T07:54:17.999Z</time></trkpt><trkpt lat="43.540468084124804" lon="10.83852453784222"><ele>165.0</ele><time>2026-04-18T07:54:18.999Z</time></trkpt><trkpt lat="43.540505961122236" lon="10.838727128606603"><ele>168.0</ele><time>2026-04-18T07:54:19.999Z</time></trkpt><trkpt lat="43.540543918579644" lon="10.83893350934431"><ele>168.0</ele><time>2026-04-18T07:54:20.999Z</time></trkpt><trkpt lat="43.54056348449989" lon="10.839126334275637"><ele>168.0</ele><time>2026-04-18T07:54:21.999Z</time></trkpt><trkpt lat="43.54059713959714" lon="10.839308209722871"><ele>168.0</ele><time>2026-04-18T07:54:22.999Z</time></trkpt><trkpt lat="43.54062620264669" lon="10.839457956506163"><ele>168.0</ele><time>2026-04-18T07:54:23.999Z</time></trkpt><trkpt lat="43.54064814314938" lon="10.839574880616901"><ele>169.75</ele><time>2026-04-18T07:54:24.999Z</time></trkpt><trkpt lat="43.540648543614935" lon="10.839693689184935"><ele>171.5</ele><time>2026-04-18T07:54:26.999Z</time></trkpt><trkpt lat="43.54050887516059" lon="10.83958449271219"><ele>173.25</ele><time>2026-04-18T07:54:28.999Z</time></trkpt><trkpt lat="43.54040350435049" lon="10.839568204449057"><ele>175.0</ele><time>2026-04-18T07:54:29.999Z</time></trkpt><trkpt lat="43.5402846714118" lon="10.83955522896228"><ele>175.16666666666669</ele><time>2026-04-18T07:54:30.999Z</time></trkpt><trkpt lat="43.54021093903834" lon="10.839503503563627"><ele>175.33333333333334</ele><time>2026-04-18T07:54:31.999Z</time></trkpt><trkpt lat="43.54013948719872" lon="10.83946407671784"><ele>175.5</ele><time>2026-04-18T07:54:32.999Z</time></trkpt><trkpt lat="43.54007606300187" lon="10.839417734404492"><ele>175.66666666666666</ele><time>2026-04-18T07:54:33.999Z</time></trkpt><trkpt lat="43.54000833928108" lon="10.839360305567997"><ele>175.83333333333331</ele><time>2026-04-18T07:54:34.999Z</time></trkpt><trkpt lat="43.53992589940314" lon="10.839289102987768"><ele>176.0</ele><time>2026-04-18T07:54:35.999Z</time></trkpt><trkpt lat="43.53985388409852" lon="10.839226783985259"><ele>174.8</ele><time>2026-04-18T07:54:36.999Z</time></trkpt><trkpt lat="43.53977997752535" lon="10.83916282839817"><ele>173.60000000000002</ele><time>2026-04-18T07:54:37.999Z</time></trkpt><trkpt lat="43.539699704171156" lon="10.839095215951911"><ele>172.4</ele><time>2026-04-18T07:54:38.999Z</time></trkpt><trkpt lat="43.53960742827319" lon="10.839045839994267"><ele>171.2</ele><time>2026-04-18T07:54:39.999Z</time></trkpt><trkpt lat="43.53952424424985" lon="10.838977529059036"><ele>170.0</ele><time>2026-04-18T07:54:40.999Z</time></trkpt><trkpt lat="43.53944475367047" lon="10.838911776156738"><ele>169.83333333333331</ele><time>2026-04-18T07:54:41.999Z</time></trkpt><trkpt lat="43.539378437762075" lon="10.838838449001374"><ele>169.66666666666666</ele><time>2026-04-18T07:54:42.999Z</time></trkpt><trkpt lat="43.539307092103336" lon="10.838778068722403"><ele>169.5</ele><time>2026-04-18T07:54:43.999Z</time></trkpt><trkpt lat="43.53923119801628" lon="10.838710205770843"><ele>169.33333333333334</ele><time>2026-04-18T07:54:44.999Z</time></trkpt><trkpt lat="43.539157453869066" lon="10.838643446687682"><ele>169.16666666666669</ele><time>2026-04-18T07:54:45.999Z</time></trkpt><trkpt lat="43.53906390781307" lon="10.838587108516334"><ele>169.0</ele><time>2026-04-18T07:54:46.999Z</time></trkpt><trkpt lat="43.5389865350627" lon="10.83852192711104"><ele>168.0</ele><time>2026-04-18T07:54:47.999Z</time></trkpt><trkpt lat="43.538893440693926" lon="10.838436947394781"><ele>167.0</ele><time>2026-04-18T07:54:48.999Z</time></trkpt><trkpt lat="43.5387919029429" lon="10.83835253605159"><ele>166.0</ele><time>2026-04-18T07:54:49.999Z</time></trkpt><trkpt lat="43.5386744188275" lon="10.838265649241263"><ele>165.0</ele><time>2026-04-18T07:54:50.999Z</time></trkpt><trkpt lat="43.53857773920701" lon="10.838190045864346"><ele>165.0</ele><time>2026-04-18T07:54:51.999Z</time></trkpt><trkpt lat="43.53848309979499" lon="10.838114143256545"><ele>165.0</ele><time>2026-04-18T07:54:52.999Z</time></trkpt><trkpt lat="43.538390566908" lon="10.838031329189102"><ele>165.0</ele><time>2026-04-18T07:54:53.999Z</time></trkpt><trkpt lat="43.53830257422882" lon="10.837951166404642"><ele>165.0</ele><time>2026-04-18T07:54:54.999Z</time></trkpt><trkpt lat="43.53821653348691" lon="10.83787779949429"><ele>165.0</ele><time>2026-04-18T07:54:55.999Z</time></trkpt><trkpt lat="43.53813422109517" lon="10.837805693246734"><ele>165.0</ele><time>2026-04-18T07:54:56.999Z</time></trkpt><trkpt lat="43.53803438146991" lon="10.837725022130172"><ele>165.0</ele><time>2026-04-18T07:54:57.999Z</time></trkpt><trkpt lat="43.53794678744298" lon="10.837644526169251"><ele>165.0</ele><time>2026-04-18T07:54:58.999Z</time></trkpt><trkpt lat="43.53785377466783" lon="10.837566163676462"><ele>165.0</ele><time>2026-04-18T07:54:59.999Z</time></trkpt><trkpt lat="43.53776508417181" lon="10.837492020973196"><ele>165.0</ele><time>2026-04-18T07:55:00.999Z</time></trkpt><trkpt lat="43.537669903955425" lon="10.837417436404204"><ele>163.25</ele><time>2026-04-18T07:55:01.999Z</time></trkpt><trkpt lat="43.5375633495656" lon="10.837347502913849"><ele>161.5</ele><time>2026-04-18T07:55:02.999Z</time></trkpt><trkpt lat="43.5374189980433" lon="10.837287994701018"><ele>159.75</ele><time>2026-04-18T07:55:03.999Z</time></trkpt><trkpt lat="43.53727590085627" lon="10.83724602249518"><ele>158.0</ele><time>2026-04-18T07:55:04.999Z</time></trkpt><trkpt lat="43.53715374385733" lon="10.837221897205117"><ele>159.0</ele><time>2026-04-18T07:55:05.999Z</time></trkpt><trkpt lat="43.537038230775856" lon="10.83717174118103"><ele>160.0</ele><time>2026-04-18T07:55:06.999Z</time></trkpt><trkpt lat="43.53692990368343" lon="10.837098903432697"><ele>161.0</ele><time>2026-04-18T07:55:07.999Z</time></trkpt><trkpt lat="43.53682194948732" lon="10.836978995848481"><ele>162.0</ele><time>2026-04-18T07:55:08.999Z</time></trkpt><trkpt lat="43.53670272756444" lon="10.836862944619092"><ele>160.75</ele><time>2026-04-18T07:55:09.999Z</time></trkpt><trkpt lat="43.536578547082726" lon="10.836785882435837"><ele>159.5</ele><time>2026-04-18T07:55:10.999Z</time></trkpt><trkpt lat="43.53645731907372" lon="10.836700365711483"><ele>158.25</ele><time>2026-04-18T07:55:11.999Z</time></trkpt><trkpt lat="43.536354490357816" lon="10.836605055233496"><ele>157.0</ele><time>2026-04-18T07:55:12.999Z</time></trkpt><trkpt lat="43.5362829661134" lon="10.836488071120781"><ele>160.25</ele><time>2026-04-18T07:55:13.999Z</time></trkpt><trkpt lat="43.53620249866422" lon="10.836387842619724"><ele>163.5</ele><time>2026-04-18T07:55:14.999Z</time></trkpt><trkpt lat="43.53610822703159" lon="10.836307562695024"><ele>166.75</ele><time>2026-04-18T07:55:15.999Z</time></trkpt><trkpt lat="43.53599074718988" lon="10.836258559265433"><ele>170.0</ele><time>2026-04-18T07:55:16.999Z</time></trkpt><trkpt lat="43.53588208580927" lon="10.836217174195642"><ele>170.0</ele><time>2026-04-18T07:55:17.999Z</time></trkpt><trkpt lat="43.53579268394727" lon="10.83611733150411"><ele>170.0</ele><time>2026-04-18T07:55:18.999Z</time></trkpt><trkpt lat="43.5356933558323" lon="10.835949499126086"><ele>170.0</ele><time>2026-04-18T07:55:20Z</time></trkpt><trkpt lat="43.53557492117113" lon="10.835758421077426"><ele>167.33333333333331</ele><time>2026-04-18T07:55:21Z</time></trkpt><trkpt lat="43.535450245268805" lon="10.835581133645057"><ele>164.66666666666666</ele><time>2026-04-18T07:55:22Z</time></trkpt><trkpt lat="43.53533465893381" lon="10.835442978543"><ele>162.0</ele><time>2026-04-18T07:55:23Z</time></trkpt><trkpt lat="43.535217902981685" lon="10.835332686365621"><ele>163.6</ele><time>2026-04-18T07:55:24Z</time></trkpt><trkpt lat="43.53511280866493" lon="10.835255780972558"><ele>165.2</ele><time>2026-04-18T07:55:25Z</time></trkpt><trkpt lat="43.53501410692674" lon="10.835203700362758"><ele>166.8</ele><time>2026-04-18T07:55:26Z</time></trkpt><trkpt lat="43.53493842903356" lon="10.835129699439427"><ele>168.4</ele><time>2026-04-18T07:55:27Z</time></trkpt><trkpt lat="43.534885172767034" lon="10.835015189831157"><ele>170.0</ele><time>2026-04-18T07:55:28Z</time></trkpt><trkpt lat="43.53482938765306" lon="10.834854402504304"><ele>170.0</ele><time>2026-04-18T07:55:29Z</time></trkpt><trkpt lat="43.53477215371721" lon="10.834671026289621"><ele>170.0</ele><time>2026-04-18T07:55:30Z</time></trkpt><trkpt lat="43.53470966371846" lon="10.83452587014876"><ele>170.0</ele><time>2026-04-18T07:55:31Z</time></trkpt><trkpt lat="43.534639027605955" lon="10.834418438300832"><ele>170.0</ele><time>2026-04-18T07:55:32Z</time></trkpt><trkpt lat="43.53455603885817" lon="10.834318553252322"><ele>170.5</ele><time>2026-04-18T07:55:33Z</time></trkpt><trkpt lat="43.53447833961389" lon="10.834187415154048"><ele>171.0</ele><time>2026-04-18T07:55:34Z</time></trkpt><trkpt lat="43.534377222179494" lon="10.834073272426023"><ele>171.5</ele><time>2026-04-18T07:55:35Z</time></trkpt><trkpt lat="43.53428532056643" lon="10.833974406318374"><ele>172.0</ele><time>2026-04-18T07:55:36Z</time></trkpt><trkpt lat="43.53420626249906" lon="10.833902421765549"><ele>172.0</ele><time>2026-04-18T07:55:37Z</time></trkpt><trkpt lat="43.53410632488743" lon="10.833835008577115"><ele>172.0</ele><time>2026-04-18T07:55:38Z</time></trkpt><trkpt lat="43.533988359112655" lon="10.833779335503046"><ele>172.0</ele><time>2026-04-18T07:55:39Z</time></trkpt><trkpt lat="43.53389711675303" lon="10.83363778615123"><ele>172.0</ele><time>2026-04-18T07:55:40Z</time></trkpt><trkpt lat="43.53381247082629" lon="10.833491510091447"><ele>171.0</ele><time>2026-04-18T07:55:41Z</time></trkpt><trkpt lat="43.53372470218333" lon="10.833359895345556"><ele>170.0</ele><time>2026-04-18T07:55:42Z</time></trkpt><trkpt lat="43.533636657856704" lon="10.83319222455414"><ele>169.0</ele><time>2026-04-18T07:55:43Z</time></trkpt><trkpt lat="43.533524317801074" lon="10.833004579519562"><ele>169.0</ele><time>2026-04-18T07:55:44Z</time></trkpt><trkpt lat="43.53342523209436" lon="10.832816462197865"><ele>169.0</ele><time>2026-04-18T07:55:45Z</time></trkpt><trkpt lat="43.533373407702314" lon="10.832626857713425"><ele>169.0</ele><time>2026-04-18T07:55:46Z</time></trkpt><trkpt lat="43.53330249874582" lon="10.83247054783916"><ele>169.0</ele><time>2026-04-18T07:55:47Z</time></trkpt><trkpt lat="43.53322989751787" lon="10.832318727354977"><ele>169.33333333333334</ele><time>2026-04-18T07:55:48Z</time></trkpt><trkpt lat="43.53312879097537" lon="10.832180382757093"><ele>169.66666666666666</ele><time>2026-04-18T07:55:49Z</time></trkpt><trkpt lat="43.53300160199796" lon="10.832029216286413"><ele>170.0</ele><time>2026-04-18T07:55:50Z</time></trkpt><trkpt lat="43.53289388718655" lon="10.831862541312733"><ele>170.0</ele><time>2026-04-18T07:55:51Z</time></trkpt><trkpt lat="43.532795651175654" lon="10.831660873635625"><ele>170.0</ele><time>2026-04-18T07:55:52Z</time></trkpt><trkpt lat="43.5327184691148" lon="10.831456074875458"><ele>170.0</ele><time>2026-04-18T07:55:53Z</time></trkpt><trkpt lat="43.53264545299222" lon="10.831292410259492"><ele>170.0</ele><time>2026-04-18T07:55:54Z</time></trkpt><trkpt lat="43.53256204699008" lon="10.83117075503807"><ele>170.0</ele><time>2026-04-18T07:55:55Z</time></trkpt><trkpt lat="43.53245252120168" lon="10.831063841606328"><ele>170.0</ele><time>2026-04-18T07:55:56Z</time></trkpt><trkpt lat="43.53231164338244" lon="10.83094945506596"><ele>170.0</ele><time>2026-04-18T07:55:57Z</time></trkpt><trkpt lat="43.53215359946697" lon="10.83086896131514"><ele>173.66666666666666</ele><time>2026-04-18T07:55:58Z</time></trkpt><trkpt lat="43.531980037366694" lon="10.830799868068105"><ele>177.33333333333334</ele><time>2026-04-18T07:55:59Z</time></trkpt><trkpt lat="43.531820047479904" lon="10.830725427187462"><ele>181.0</ele><time>2026-04-18T07:56:00Z</time></trkpt><trkpt lat="43.531674726505784" lon="10.830648194857048"><ele>181.0</ele><time>2026-04-18T07:56:01Z</time></trkpt><trkpt lat="43.531550372193756" lon="10.830580129731052"><ele>181.0</ele><time>2026-04-18T07:56:02Z</time></trkpt><trkpt lat="43.53142196018764" lon="10.830514078022528"><ele>181.0</ele><time>2026-04-18T07:56:03Z</time></trkpt><trkpt lat="43.53131316335553" lon="10.830449688305587"><ele>181.0</ele><time>2026-04-18T07:56:04Z</time></trkpt><trkpt lat="43.53121744334317" lon="10.830390995199048"><ele>180.4</ele><time>2026-04-18T07:56:05Z</time></trkpt><trkpt lat="43.531133198698555" lon="10.830325038136507"><ele>179.8</ele><time>2026-04-18T07:56:06Z</time></trkpt><trkpt lat="43.53107223452688" lon="10.830245609032078"><ele>179.20000000000002</ele><time>2026-04-18T07:56:07Z</time></trkpt><trkpt lat="43.53105484121577" lon="10.830130422309665"><ele>178.60000000000002</ele><time>2026-04-18T07:56:08Z</time></trkpt><trkpt lat="43.53102420423424" lon="10.830011787701618"><ele>178.0</ele><time>2026-04-18T07:56:09Z</time></trkpt><trkpt lat="43.530988613421876" lon="10.829840949670926"><ele>178.0</ele><time>2026-04-18T07:56:10Z</time></trkpt><trkpt lat="43.530971979370484" lon="10.829683309019707"><ele>178.0</ele><time>2026-04-18T07:56:11Z</time></trkpt><trkpt lat="43.5309565422678" lon="10.82953710845474"><ele>178.0</ele><time>2026-04-18T07:56:12Z</time></trkpt><trkpt lat="43.530943214603404" lon="10.829407338049013"><ele>178.0</ele><time>2026-04-18T07:56:12.999Z</time></trkpt><trkpt lat="43.53093484596081" lon="10.829260452192013"><ele>178.0</ele><time>2026-04-18T07:56:13.999Z</time></trkpt><trkpt lat="43.53091156354337" lon="10.829112091523477"><ele>177.5</ele><time>2026-04-18T07:56:14.999Z</time></trkpt><trkpt lat="43.530850389760786" lon="10.82896516084457"><ele>177.0</ele><time>2026-04-18T07:56:15.999Z</time></trkpt><trkpt lat="43.53080113336549" lon="10.828814859108178"><ele>176.5</ele><time>2026-04-18T07:56:16.999Z</time></trkpt><trkpt lat="43.530724537576994" lon="10.828688280376154"><ele>176.0</ele><time>2026-04-18T07:56:17.999Z</time></trkpt><trkpt lat="43.530645110812934" lon="10.828561543386977"><ele>175.0</ele><time>2026-04-18T07:56:18.999Z</time></trkpt><trkpt lat="43.530558837302834" lon="10.82844952565509"><ele>174.0</ele><time>2026-04-18T07:56:19.999Z</time></trkpt><trkpt lat="43.53047515189864" lon="10.828342219948278"><ele>173.0</ele><time>2026-04-18T07:56:20.999Z</time></trkpt><trkpt lat="43.53039454236592" lon="10.828232982998935"><ele>172.0</ele><time>2026-04-18T07:56:21.999Z</time></trkpt><trkpt lat="43.5303118265849" lon="10.828134503347421"><ele>171.33333333333334</ele><time>2026-04-18T07:56:22.999Z</time></trkpt><trkpt lat="43.530233478268585" lon="10.828050335288593"><ele>170.66666666666669</ele><time>2026-04-18T07:56:23.999Z</time></trkpt><trkpt lat="43.53016451885748" lon="10.827974295259917"><ele>170.0</ele><time>2026-04-18T07:56:24.999Z</time></trkpt><trkpt lat="43.53010149649196" lon="10.827890247793674"><ele>169.33333333333334</ele><time>2026-04-18T07:56:25.999Z</time></trkpt><trkpt lat="43.530060960951985" lon="10.82779543842148"><ele>168.66666666666666</ele><time>2026-04-18T07:56:26.999Z</time></trkpt><trkpt lat="43.53000226643895" lon="10.827720934344342"><ele>168.0</ele><time>2026-04-18T07:56:27.999Z</time></trkpt><trkpt lat="43.52995613769414" lon="10.827635629222458"><ele>168.0</ele><time>2026-04-18T07:56:28.999Z</time></trkpt><trkpt lat="43.52991223039194" lon="10.827566762983782"><ele>168.0</ele><time>2026-04-18T07:56:29.999Z</time></trkpt><trkpt lat="43.529877503184274" lon="10.827484646271902"><ele>168.0</ele><time>2026-04-18T07:56:30.999Z</time></trkpt><trkpt lat="43.529837089621175" lon="10.827403926635833"><ele>168.0</ele><time>2026-04-18T07:56:31.999Z</time></trkpt><trkpt lat="43.529799037357236" lon="10.827324523584968"><ele>168.0</ele><time>2026-04-18T07:56:32.999Z</time></trkpt><trkpt lat="43.52975984759392" lon="10.827251132748623"><ele>168.0</ele><time>2026-04-18T07:56:33.999Z</time></trkpt><trkpt lat="43.52971732850286" lon="10.827165385176515"><ele>168.0</ele><time>2026-04-18T07:56:34.999Z</time></trkpt><trkpt lat="43.529694287822664" lon="10.827083184220392"><ele>168.0</ele><time>2026-04-18T07:56:35.999Z</time></trkpt><trkpt lat="43.529645494902425" lon="10.82700158429206"><ele>168.0</ele><time>2026-04-18T07:56:36.999Z</time></trkpt><trkpt lat="43.52959624090829" lon="10.826920551133663"><ele>168.0</ele><time>2026-04-18T07:56:37.999Z</time></trkpt><trkpt lat="43.529534288897246" lon="10.826845454307197"><ele>168.0</ele><time>2026-04-18T07:56:38.999Z</time></trkpt><trkpt lat="43.52948342444162" lon="10.82676636881866"><ele>168.0</ele><time>2026-04-18T07:56:39.999Z</time></trkpt><trkpt lat="43.52942818845916" lon="10.82668554520321"><ele>168.0</ele><time>2026-04-18T07:56:40.999Z</time></trkpt><trkpt lat="43.529374341247646" lon="10.826590343574226"><ele>165.4</ele><time>2026-04-18T07:56:41.999Z</time></trkpt><trkpt lat="43.52932598474657" lon="10.826488650407525"><ele>162.8</ele><time>2026-04-18T07:56:42.999Z</time></trkpt><trkpt lat="43.52927117650077" lon="10.826370131725792"><ele>160.2</ele><time>2026-04-18T07:56:43.999Z</time></trkpt><trkpt lat="43.52920593130036" lon="10.826252175415286"><ele>157.6</ele><time>2026-04-18T07:56:44.999Z</time></trkpt><trkpt lat="43.52914035411574" lon="10.826120782749472"><ele>155.0</ele><time>2026-04-18T07:56:45.999Z</time></trkpt><trkpt lat="43.52907101994963" lon="10.825983421123054"><ele>152.0</ele><time>2026-04-18T07:56:46.999Z</time></trkpt><trkpt lat="43.528991482933094" lon="10.825832047224816"><ele>149.0</ele><time>2026-04-18T07:56:47.999Z</time></trkpt><trkpt lat="43.528937480619696" lon="10.825680582115952"><ele>146.0</ele><time>2026-04-18T07:56:48.999Z</time></trkpt><trkpt lat="43.52889935160517" lon="10.825532842512542"><ele>143.0</ele><time>2026-04-18T07:56:49.999Z</time></trkpt><trkpt lat="43.52885686450417" lon="10.825372010377853"><ele>143.0</ele><time>2026-04-18T07:56:50.999Z</time></trkpt><trkpt lat="43.52882130658395" lon="10.825206175933307"><ele>143.0</ele><time>2026-04-18T07:56:51.999Z</time></trkpt><trkpt lat="43.52879239610202" lon="10.825051809176518"><ele>143.0</ele><time>2026-04-18T07:56:52.999Z</time></trkpt><trkpt lat="43.528767674038576" lon="10.824920317580732"><ele>143.0</ele><time>2026-04-18T07:56:53.999Z</time></trkpt><trkpt lat="43.52874259122626" lon="10.824805891349714"><ele>143.0</ele><time>2026-04-18T07:56:54.999Z</time></trkpt><trkpt lat="43.52871459117683" lon="10.824691353371911"><ele>142.0</ele><time>2026-04-18T07:56:55.999Z</time></trkpt><trkpt lat="43.5286911748506" lon="10.824589821099583"><ele>141.0</ele><time>2026-04-18T07:56:56.999Z</time></trkpt><trkpt lat="43.52867100798786" lon="10.824501284837691"><ele>140.0</ele><time>2026-04-18T07:56:57.999Z</time></trkpt><trkpt lat="43.52864018865629" lon="10.824397812182545"><ele>139.0</ele><time>2026-04-18T07:56:58.999Z</time></trkpt><trkpt lat="43.52861038962677" lon="10.82431211608682"><ele>138.0</ele><time>2026-04-18T07:56:59.999Z</time></trkpt><trkpt lat="43.52858252284425" lon="10.824204937395637"><ele>137.0</ele><time>2026-04-18T07:57:00.999Z</time></trkpt><trkpt lat="43.52854958133868" lon="10.824095828175508"><ele>136.83333333333331</ele><time>2026-04-18T07:57:01.999Z</time></trkpt><trkpt lat="43.52851196388413" lon="10.823995380606393"><ele>136.66666666666666</ele><time>2026-04-18T07:57:02.999Z</time></trkpt><trkpt lat="43.52847212990376" lon="10.823901495249398"><ele>136.5</ele><time>2026-04-18T07:57:03.999Z</time></trkpt><trkpt lat="43.528441348376624" lon="10.823810283330005"><ele>136.33333333333334</ele><time>2026-04-18T07:57:04.999Z</time></trkpt><trkpt lat="43.528403269499606" lon="10.823690791177055"><ele>136.16666666666669</ele><time>2026-04-18T07:57:05.999Z</time></trkpt><trkpt lat="43.52835857207013" lon="10.823556221961963"><ele>136.0</ele><time>2026-04-18T07:57:06.999Z</time></trkpt><trkpt lat="43.528308846330724" lon="10.82342925982649"><ele>134.25</ele><time>2026-04-18T07:57:07.999Z</time></trkpt><trkpt lat="43.52825136447706" lon="10.823293258693667"><ele>132.5</ele><time>2026-04-18T07:57:08.999Z</time></trkpt><trkpt lat="43.52818880415248" lon="10.823124914012146"><ele>130.75</ele><time>2026-04-18T07:57:09.999Z</time></trkpt><trkpt lat="43.528124071762655" lon="10.822963960273787"><ele>129.0</ele><time>2026-04-18T07:57:10.999Z</time></trkpt><trkpt lat="43.52805470459322" lon="10.822829113442921"><ele>129.0</ele><time>2026-04-18T07:57:11.999Z</time></trkpt><trkpt lat="43.527991919377236" lon="10.822701532714303"><ele>129.0</ele><time>2026-04-18T07:57:12.999Z</time></trkpt><trkpt lat="43.527939466403666" lon="10.822592835097481"><ele>129.0</ele><time>2026-04-18T07:57:13.999Z</time></trkpt><trkpt lat="43.527891553151996" lon="10.822489319496798"><ele>129.0</ele><time>2026-04-18T07:57:14.999Z</time></trkpt><trkpt lat="43.52786059335623" lon="10.822374236952168"><ele>129.0</ele><time>2026-04-18T07:57:15.999Z</time></trkpt><trkpt lat="43.52786595469257" lon="10.822258964184138"><ele>127.2</ele><time>2026-04-18T07:57:16.999Z</time></trkpt><trkpt lat="43.52790024998947" lon="10.822153930883424"><ele>125.4</ele><time>2026-04-18T07:57:17.999Z</time></trkpt><trkpt lat="43.52796009025871" lon="10.822061928016042"><ele>123.6</ele><time>2026-04-18T07:57:18.999Z</time></trkpt><trkpt lat="43.52800861523857" lon="10.821940220309457"><ele>121.8</ele><time>2026-04-18T07:57:19.999Z</time></trkpt><trkpt lat="43.528036886247506" lon="10.82176894381582"><ele>120.0</ele><time>2026-04-18T07:57:20.999Z</time></trkpt><trkpt lat="43.528018959656954" lon="10.821560226692373"><ele>117.33333333333334</ele><time>2026-04-18T07:57:21.999Z</time></trkpt><trkpt lat="43.52799204830605" lon="10.821337913126941"><ele>114.66666666666667</ele><time>2026-04-18T07:57:22.999Z</time></trkpt><trkpt lat="43.527957696132944" lon="10.821111353604739"><ele>112.0</ele><time>2026-04-18T07:57:23.999Z</time></trkpt><trkpt lat="43.52793024502343" lon="10.820910549648408"><ele>111.5</ele><time>2026-04-18T07:57:24.999Z</time></trkpt><trkpt lat="43.527900757816745" lon="10.820739286580155"><ele>111.0</ele><time>2026-04-18T07:57:26Z</time></trkpt><trkpt lat="43.52786585102293" lon="10.820601996835059"><ele>110.5</ele><time>2026-04-18T07:57:27Z</time></trkpt><trkpt lat="43.52780090989039" lon="10.820494732666166"><ele>110.0</ele><time>2026-04-18T07:57:28Z</time></trkpt><trkpt lat="43.52769508487354" lon="10.820426599963723"><ele>110.0</ele><time>2026-04-18T07:57:29Z</time></trkpt><trkpt lat="43.527552541380295" lon="10.820401587185899"><ele>110.0</ele><time>2026-04-18T07:57:30Z</time></trkpt><trkpt lat="43.52741727637534" lon="10.820380318463897"><ele>110.0</ele><time>2026-04-18T07:57:31Z</time></trkpt><trkpt lat="43.52730395862084" lon="10.820326967182933"><ele>110.0</ele><time>2026-04-18T07:57:32Z</time></trkpt><trkpt lat="43.52720788173329" lon="10.820294377550125"><ele>110.0</ele><time>2026-04-18T07:57:33Z</time></trkpt><trkpt lat="43.52711923250949" lon="10.820246141455065"><ele>110.0</ele><time>2026-04-18T07:57:34Z</time></trkpt><trkpt lat="43.52704814600247" lon="10.820182966807538"><ele>110.0</ele><time>2026-04-18T07:57:35Z</time></trkpt><trkpt lat="43.527015577513936" lon="10.820042312739647"><ele>110.0</ele><time>2026-04-18T07:57:36Z</time></trkpt><trkpt lat="43.52703065130498" lon="10.819895692602373"><ele>110.0</ele><time>2026-04-18T07:57:37Z</time></trkpt><trkpt lat="43.52703758849262" lon="10.819745957603612"><ele>105.75</ele><time>2026-04-18T07:57:38Z</time></trkpt><trkpt lat="43.52703651517693" lon="10.819567604565838"><ele>101.5</ele><time>2026-04-18T07:57:39Z</time></trkpt><trkpt lat="43.527050561985185" lon="10.819387583104136"><ele>97.25</ele><time>2026-04-18T07:57:40Z</time></trkpt><trkpt lat="43.527053054363115" lon="10.819244350846718"><ele>93.0</ele><time>2026-04-18T07:57:41Z</time></trkpt><trkpt lat="43.527039591013676" lon="10.81910648354783"><ele>92.2</ele><time>2026-04-18T07:57:42Z</time></trkpt><trkpt lat="43.52702236178514" lon="10.818960329025314"><ele>91.4</ele><time>2026-04-18T07:57:43Z</time></trkpt><trkpt lat="43.526938789914844" lon="10.81883246495"><ele>90.60000000000001</ele><time>2026-04-18T07:57:44Z</time></trkpt><trkpt lat="43.52687262022963" lon="10.818712637795658"><ele>89.80000000000001</ele><time>2026-04-18T07:57:45Z</time></trkpt><trkpt lat="43.52683523434722" lon="10.818619607258125"><ele>89.0</ele><time>2026-04-18T07:57:46Z</time></trkpt><trkpt lat="43.52681368310935" lon="10.818537119283832"><ele>89.0</ele><time>2026-04-18T07:57:48Z</time></trkpt><trkpt lat="43.526850651358465" lon="10.818453438959235"><ele>89.0</ele><time>2026-04-18T07:57:50Z</time></trkpt><trkpt lat="43.526923393802214" lon="10.818369230115525"><ele>89.0</ele><time>2026-04-18T07:57:51Z</time></trkpt><trkpt lat="43.526992616467666" lon="10.818224672127398"><ele>89.0</ele><time>2026-04-18T07:57:52Z</time></trkpt><trkpt lat="43.527084596197724" lon="10.818058719350114"><ele>89.0</ele><time>2026-04-18T07:57:53Z</time></trkpt><trkpt lat="43.52718100272799" lon="10.817873166332568"><ele>87.75</ele><time>2026-04-18T07:57:54Z</time></trkpt><trkpt lat="43.52727748291702" lon="10.817709883930144"><ele>86.5</ele><time>2026-04-18T07:57:55Z</time></trkpt><trkpt lat="43.52735718690108" lon="10.817539248215331"><ele>85.25</ele><time>2026-04-18T07:57:56Z</time></trkpt><trkpt lat="43.52745138122115" lon="10.817436921994926"><ele>84.0</ele><time>2026-04-18T07:57:57Z</time></trkpt><trkpt lat="43.52756394394817" lon="10.817343758052912"><ele>84.0</ele><time>2026-04-18T07:57:58Z</time></trkpt><trkpt lat="43.52768830681394" lon="10.817242538938862"><ele>84.0</ele><time>2026-04-18T07:57:59Z</time></trkpt><trkpt lat="43.52776436002256" lon="10.817122865619812"><ele>84.0</ele><time>2026-04-18T07:58:00Z</time></trkpt><trkpt lat="43.52780480958077" lon="10.816961196153047"><ele>84.0</ele><time>2026-04-18T07:58:01Z</time></trkpt><trkpt lat="43.527845447060834" lon="10.81680157950521"><ele>84.16666666666667</ele><time>2026-04-18T07:58:02Z</time></trkpt><trkpt lat="43.527875401456775" lon="10.816686002651938"><ele>84.33333333333333</ele><time>2026-04-18T07:58:03Z</time></trkpt><trkpt lat="43.52791541327104" lon="10.816574758188175"><ele>84.5</ele><time>2026-04-18T07:58:05Z</time></trkpt><trkpt lat="43.5279488329529" lon="10.816501103865553"><ele>84.66666666666666</ele><time>2026-04-18T07:58:08Z</time></trkpt><trkpt lat="43.52797630037084" lon="10.816385290057903"><ele>84.83333333333333</ele><time>2026-04-18T07:58:18.999Z</time></trkpt><trkpt lat="43.528029903915524" lon="10.81624853386667"><ele>85.0</ele><time>2026-04-18T07:58:20.999Z</time></trkpt><trkpt lat="43.528069981333886" lon="10.81613363870387"><ele>86.25</ele><time>2026-04-18T07:58:22.999Z</time></trkpt><trkpt lat="43.528242066342514" lon="10.815967461684007"><ele>87.5</ele><time>2026-04-18T07:59:30.999Z</time></trkpt><trkpt lat="43.52830674614888" lon="10.815944545753545"><ele>88.75</ele><time>2026-04-18T07:59:32Z</time></trkpt><trkpt lat="43.52838220470052" lon="10.816022992182106"><ele>90.0</ele><time>2026-04-18T07:59:33Z</time></trkpt><trkpt lat="43.528473132427955" lon="10.81605352503271"><ele>90.0</ele><time>2026-04-18T07:59:34Z</time></trkpt><trkpt lat="43.52855399979471" lon="10.816071355539298"><ele>90.0</ele><time>2026-04-18T07:59:35Z</time></trkpt><trkpt lat="43.5286527900248" lon="10.816098982667931"><ele>90.0</ele><time>2026-04-18T07:59:36Z</time></trkpt><trkpt lat="43.52874233672264" lon="10.816121286960016"><ele>90.0</ele><time>2026-04-18T07:59:37Z</time></trkpt><trkpt lat="43.52883686917621" lon="10.816135512337834"><ele>90.0</ele><time>2026-04-18T07:59:38Z</time></trkpt><trkpt lat="43.52894663203183" lon="10.816127477383375"><ele>91.8</ele><time>2026-04-18T07:59:39Z</time></trkpt><trkpt lat="43.529056172110266" lon="10.816081245889208"><ele>93.6</ele><time>2026-04-18T07:59:40Z</time></trkpt><trkpt lat="43.5291425721093" lon="10.816039257136797"><ele>95.4</ele><time>2026-04-18T07:59:41Z</time></trkpt><trkpt lat="43.529235428782194" lon="10.81599142963468"><ele>97.2</ele><time>2026-04-18T07:59:42Z</time></trkpt><trkpt lat="43.52933198729507" lon="10.815937029574966"><ele>99.0</ele><time>2026-04-18T07:59:43Z</time></trkpt><trkpt lat="43.529436282396716" lon="10.81588396273253"><ele>102.80000000000001</ele><time>2026-04-18T07:59:44Z</time></trkpt><trkpt lat="43.529533807636426" lon="10.815833155451852"><ele>106.60000000000001</ele><time>2026-04-18T07:59:45Z</time></trkpt><trkpt lat="43.52964505217252" lon="10.815790746597065"><ele>110.4</ele><time>2026-04-18T07:59:46Z</time></trkpt><trkpt lat="43.52976700289257" lon="10.81578064605992"><ele>114.2</ele><time>2026-04-18T07:59:47Z</time></trkpt><trkpt lat="43.52985063295231" lon="10.81576208937693"><ele>118.0</ele><time>2026-04-18T07:59:48Z</time></trkpt><trkpt lat="43.529958535373716" lon="10.81573983225653"><ele>119.5</ele><time>2026-04-18T07:59:49Z</time></trkpt><trkpt lat="43.53007299597916" lon="10.815699518957157"><ele>121.0</ele><time>2026-04-18T07:59:50Z</time></trkpt><trkpt lat="43.53019250623862" lon="10.815704083561025"><ele>122.5</ele><time>2026-04-18T07:59:51Z</time></trkpt><trkpt lat="43.530314642027356" lon="10.81568722127053"><ele>124.0</ele><time>2026-04-18T07:59:52Z</time></trkpt><trkpt lat="43.53043878184965" lon="10.81566424172641"><ele>124.6</ele><time>2026-04-18T07:59:53Z</time></trkpt><trkpt lat="43.53053595334392" lon="10.815616433108996"><ele>125.2</ele><time>2026-04-18T07:59:54Z</time></trkpt><trkpt lat="43.530643526073334" lon="10.815594600879475"><ele>125.79999999999998</ele><time>2026-04-18T07:59:55Z</time></trkpt><trkpt lat="43.53075577166013" lon="10.815574862602753"><ele>126.39999999999999</ele><time>2026-04-18T07:59:56Z</time></trkpt><trkpt lat="43.53086813830865" lon="10.8156289264284"><ele>127.0</ele><time>2026-04-18T07:59:57Z</time></trkpt><trkpt lat="43.531007128828875" lon="10.815687529334324"><ele>127.0</ele><time>2026-04-18T07:59:58Z</time></trkpt><trkpt lat="43.531148161478846" lon="10.815747647328328"><ele>127.0</ele><time>2026-04-18T07:59:59Z</time></trkpt><trkpt lat="43.531281006405905" lon="10.815800125177082"><ele>127.0</ele><time>2026-04-18T08:00:00Z</time></trkpt><trkpt lat="43.531403202138755" lon="10.815838190967064"><ele>127.0</ele><time>2026-04-18T08:00:01Z</time></trkpt><trkpt lat="43.53153603906952" lon="10.815857438514383"><ele>128.25</ele><time>2026-04-18T08:00:02Z</time></trkpt><trkpt lat="43.53168448241046" lon="10.815855969053468"><ele>129.5</ele><time>2026-04-18T08:00:03Z</time></trkpt><trkpt lat="43.53181052430905" lon="10.815864966744872"><ele>130.75</ele><time>2026-04-18T08:00:04Z</time></trkpt><trkpt lat="43.53192827168735" lon="10.81590274088602"><ele>132.0</ele><time>2026-04-18T08:00:05Z</time></trkpt><trkpt lat="43.53204341472684" lon="10.815966758333941"><ele>133.5</ele><time>2026-04-18T08:00:06Z</time></trkpt><trkpt lat="43.532166277952776" lon="10.816065348987719"><ele>135.0</ele><time>2026-04-18T08:00:07Z</time></trkpt><trkpt lat="43.53230373908244" lon="10.816162303850778"><ele>136.5</ele><time>2026-04-18T08:00:08Z</time></trkpt><trkpt lat="43.53241450253256" lon="10.81626498723413"><ele>138.0</ele><time>2026-04-18T08:00:09Z</time></trkpt><trkpt lat="43.53253183797362" lon="10.816334462879801"><ele>138.0</ele><time>2026-04-18T08:00:10Z</time></trkpt><trkpt lat="43.53264454727137" lon="10.816380982084498"><ele>138.0</ele><time>2026-04-18T08:00:11Z</time></trkpt><trkpt lat="43.532779894976386" lon="10.816430524850697"><ele>138.0</ele><time>2026-04-18T08:00:12Z</time></trkpt><trkpt lat="43.532925460433816" lon="10.81648735828146"><ele>138.0</ele><time>2026-04-18T08:00:13Z</time></trkpt><trkpt lat="43.533065256304376" lon="10.816549997559038"><ele>137.75</ele><time>2026-04-18T08:00:14Z</time></trkpt><trkpt lat="43.533196182302156" lon="10.816621348924482"><ele>137.5</ele><time>2026-04-18T08:00:15Z</time></trkpt><trkpt lat="43.53333181388715" lon="10.816667565620376"><ele>137.25</ele><time>2026-04-18T08:00:16Z</time></trkpt><trkpt lat="43.533440937834" lon="10.81674496835303"><ele>137.0</ele><time>2026-04-18T08:00:17Z</time></trkpt><trkpt lat="43.53354871902883" lon="10.81679843655067"><ele>137.0</ele><time>2026-04-18T08:00:18Z</time></trkpt><trkpt lat="43.53366397240251" lon="10.816786247131196"><ele>137.0</ele><time>2026-04-18T08:00:19Z</time></trkpt><trkpt lat="43.53379310888175" lon="10.81673728613877"><ele>137.0</ele><time>2026-04-18T08:00:20Z</time></trkpt><trkpt lat="43.53393212480317" lon="10.816675070131812"><ele>137.0</ele><time>2026-04-18T08:00:21Z</time></trkpt><trkpt lat="43.53405781147727" lon="10.816668413744374"><ele>138.5</ele><time>2026-04-18T08:00:21.999Z</time></trkpt><trkpt lat="43.53418645325777" lon="10.816667185588718"><ele>140.0</ele><time>2026-04-18T08:00:22.999Z</time></trkpt><trkpt lat="43.534328750273346" lon="10.816674003361868"><ele>141.5</ele><time>2026-04-18T08:00:23.999Z</time></trkpt><trkpt lat="43.53447457152142" lon="10.816685550968197"><ele>143.0</ele><time>2026-04-18T08:00:24.999Z</time></trkpt><trkpt lat="43.53461844403786" lon="10.816685852048058"><ele>145.25</ele><time>2026-04-18T08:00:25.999Z</time></trkpt><trkpt lat="43.53475818685633" lon="10.816709618738207"><ele>147.5</ele><time>2026-04-18T08:00:26.999Z</time></trkpt><trkpt lat="43.534874818891694" lon="10.816730257486558"><ele>149.75</ele><time>2026-04-18T08:00:27.999Z</time></trkpt><trkpt lat="43.53499954241179" lon="10.816727703033264"><ele>152.0</ele><time>2026-04-18T08:00:28.999Z</time></trkpt><trkpt lat="43.535107226703595" lon="10.816673237016724"><ele>152.0</ele><time>2026-04-18T08:00:29.999Z</time></trkpt><trkpt lat="43.535212850182084" lon="10.816589049885197"><ele>152.0</ele><time>2026-04-18T08:00:30.999Z</time></trkpt><trkpt lat="43.53530627699575" lon="10.816494235277554"><ele>152.0</ele><time>2026-04-18T08:00:31.999Z</time></trkpt><trkpt lat="43.53541342014516" lon="10.81640211199453"><ele>152.0</ele><time>2026-04-18T08:00:32.999Z</time></trkpt><trkpt lat="43.53552208804472" lon="10.816295247217125"><ele>155.0</ele><time>2026-04-18T08:00:33.999Z</time></trkpt><trkpt lat="43.53563216981829" lon="10.816187032055515"><ele>158.0</ele><time>2026-04-18T08:00:34.999Z</time></trkpt><trkpt lat="43.53573367033039" lon="10.816085321958456"><ele>161.0</ele><time>2026-04-18T08:00:35.999Z</time></trkpt><trkpt lat="43.5358375946722" lon="10.815987077162541"><ele>164.0</ele><time>2026-04-18T08:00:36.999Z</time></trkpt><trkpt lat="43.53595368800653" lon="10.815912307302245"><ele>164.0</ele><time>2026-04-18T08:00:37.999Z</time></trkpt><trkpt lat="43.5360591257522" lon="10.815815829798177"><ele>164.0</ele><time>2026-04-18T08:00:38.999Z</time></trkpt><trkpt lat="43.53617608504687" lon="10.815749081034951"><ele>164.0</ele><time>2026-04-18T08:00:39.999Z</time></trkpt><trkpt lat="43.53629454152604" lon="10.815703361416938"><ele>164.0</ele><time>2026-04-18T08:00:40.999Z</time></trkpt><trkpt lat="43.53641966300684" lon="10.815665865711315"><ele>165.6</ele><time>2026-04-18T08:00:41.999Z</time></trkpt><trkpt lat="43.53654561911644" lon="10.815635580727177"><ele>167.2</ele><time>2026-04-18T08:00:42.999Z</time></trkpt><trkpt lat="43.53666569670425" lon="10.815637554426008"><ele>168.79999999999998</ele><time>2026-04-18T08:00:43.999Z</time></trkpt><trkpt lat="43.53677090233726" lon="10.815651199856806"><ele>170.39999999999998</ele><time>2026-04-18T08:00:44.999Z</time></trkpt><trkpt lat="43.53685985406243" lon="10.815657551518472"><ele>172.0</ele><time>2026-04-18T08:00:45.999Z</time></trkpt><trkpt lat="43.53694882401811" lon="10.815615725810586"><ele>172.0</ele><time>2026-04-18T08:00:46.999Z</time></trkpt><trkpt lat="43.5370320398703" lon="10.815519311372539"><ele>172.0</ele><time>2026-04-18T08:00:47.999Z</time></trkpt><trkpt lat="43.53710141529732" lon="10.815391961947471"><ele>172.0</ele><time>2026-04-18T08:00:48.999Z</time></trkpt><trkpt lat="43.53715031124247" lon="10.815267169563"><ele>172.0</ele><time>2026-04-18T08:00:49.999Z</time></trkpt><trkpt lat="43.53720864115894" lon="10.815140132758595"><ele>172.0</ele><time>2026-04-18T08:00:50.999Z</time></trkpt><trkpt lat="43.53723725741337" lon="10.815037356697273"><ele>171.0</ele><time>2026-04-18T08:00:51.999Z</time></trkpt><trkpt lat="43.53724483097147" lon="10.814934888165913"><ele>170.0</ele><time>2026-04-18T08:00:53.999Z</time></trkpt><trkpt lat="43.53722301680996" lon="10.814753297595578"><ele>169.0</ele><time>2026-04-18T08:00:55.999Z</time></trkpt><trkpt lat="43.53718149658497" lon="10.814618613105738"><ele>168.0</ele><time>2026-04-18T08:00:56.999Z</time></trkpt><trkpt lat="43.53714868169768" lon="10.814454479630205"><ele>167.0</ele><time>2026-04-18T08:00:57.999Z</time></trkpt><trkpt lat="43.53714006546838" lon="10.814269379992194"><ele>167.0</ele><time>2026-04-18T08:00:58.999Z</time></trkpt><trkpt lat="43.53717449750846" lon="10.814070451513238"><ele>167.0</ele><time>2026-04-18T08:00:59.999Z</time></trkpt><trkpt lat="43.537249392128835" lon="10.813899220691786"><ele>167.0</ele><time>2026-04-18T08:01:00.999Z</time></trkpt><trkpt lat="43.53735690713386" lon="10.81372949909202"><ele>167.0</ele><time>2026-04-18T08:01:01.999Z</time></trkpt><trkpt lat="43.53745795766153" lon="10.813558393842236"><ele>167.0</ele><time>2026-04-18T08:01:02.999Z</time></trkpt><trkpt lat="43.53752799656653" lon="10.81340284745996"><ele>167.0</ele><time>2026-04-18T08:01:03.999Z</time></trkpt><trkpt lat="43.53757364997639" lon="10.813258757175499"><ele>167.0</ele><time>2026-04-18T08:01:04.999Z</time></trkpt><trkpt lat="43.53757509780675" lon="10.813114170107598"><ele>168.75</ele><time>2026-04-18T08:01:05.999Z</time></trkpt><trkpt lat="43.537541252868074" lon="10.812998075754127"><ele>170.5</ele><time>2026-04-18T08:01:06.999Z</time></trkpt><trkpt lat="43.53748142119817" lon="10.812874981305407"><ele>172.25</ele><time>2026-04-18T08:01:07.999Z</time></trkpt><trkpt lat="43.53736784536202" lon="10.812756505193985"><ele>174.0</ele><time>2026-04-18T08:01:08.999Z</time></trkpt><trkpt lat="43.537251599951155" lon="10.81264868988181"><ele>174.0</ele><time>2026-04-18T08:01:09.999Z</time></trkpt><trkpt lat="43.537143413847" lon="10.812556705378645"><ele>174.0</ele><time>2026-04-18T08:01:10.999Z</time></trkpt><trkpt lat="43.53703230861055" lon="10.812406239249922"><ele>174.0</ele><time>2026-04-18T08:01:11.999Z</time></trkpt><trkpt lat="43.536907728869515" lon="10.812270836544975"><ele>174.0</ele><time>2026-04-18T08:01:12.999Z</time></trkpt><trkpt lat="43.53679935694961" lon="10.812112556196139"><ele>174.33333333333334</ele><time>2026-04-18T08:01:13.999Z</time></trkpt><trkpt lat="43.53668868431422" lon="10.811922876815178"><ele>174.66666666666669</ele><time>2026-04-18T08:01:14.999Z</time></trkpt><trkpt lat="43.53658922205385" lon="10.811727401963068"><ele>175.0</ele><time>2026-04-18T08:01:15.999Z</time></trkpt><trkpt lat="43.53651236612675" lon="10.811534113036464"><ele>173.5</ele><time>2026-04-18T08:01:16.999Z</time></trkpt><trkpt lat="43.53646620820222" lon="10.811320875351612"><ele>172.0</ele><time>2026-04-18T08:01:17.999Z</time></trkpt><trkpt lat="43.53646532969879" lon="10.811149828382069"><ele>170.5</ele><time>2026-04-18T08:01:18.999Z</time></trkpt><trkpt lat="43.53646354943147" lon="10.81094398423049"><ele>169.0</ele><time>2026-04-18T08:01:19.999Z</time></trkpt><trkpt lat="43.536458119132035" lon="10.810775729003062"><ele>168.33333333333334</ele><time>2026-04-18T08:01:20.999Z</time></trkpt><trkpt lat="43.53643285864375" lon="10.810524431521651"><ele>167.66666666666666</ele><time>2026-04-18T08:01:21.999Z</time></trkpt><trkpt lat="43.536436519217226" lon="10.810330741187059"><ele>167.0</ele><time>2026-04-18T08:01:22.999Z</time></trkpt><trkpt lat="43.536417361424455" lon="10.810157378091889"><ele>166.5</ele><time>2026-04-18T08:01:23.999Z</time></trkpt><trkpt lat="43.53634357486059" lon="10.809987903130523"><ele>166.0</ele><time>2026-04-18T08:01:24.999Z</time></trkpt><trkpt lat="43.5362465794501" lon="10.809840827051618"><ele>165.5</ele><time>2026-04-18T08:01:25.999Z</time></trkpt><trkpt lat="43.53616245859579" lon="10.8096822309022"><ele>165.0</ele><time>2026-04-18T08:01:26.999Z</time></trkpt><trkpt lat="43.536099340454086" lon="10.809535518164791"><ele>164.75</ele><time>2026-04-18T08:01:27.999Z</time></trkpt><trkpt lat="43.536043677870104" lon="10.809364861549955"><ele>164.5</ele><time>2026-04-18T08:01:28.999Z</time></trkpt><trkpt lat="43.53600462991171" lon="10.809165715149794"><ele>164.25</ele><time>2026-04-18T08:01:29.999Z</time></trkpt><trkpt lat="43.53598756151108" lon="10.808961510637383"><ele>164.0</ele><time>2026-04-18T08:01:30.999Z</time></trkpt><trkpt lat="43.53598887251244" lon="10.80878176998748"><ele>164.0</ele><time>2026-04-18T08:01:31.999Z</time></trkpt><trkpt lat="43.536028992595355" lon="10.808585058833707"><ele>164.0</ele><time>2026-04-18T08:01:32.999Z</time></trkpt><trkpt lat="43.53606663038356" lon="10.80838912718239"><ele>164.0</ele><time>2026-04-18T08:01:33.999Z</time></trkpt><trkpt lat="43.536106907659125" lon="10.808169887795879"><ele>163.66666666666666</ele><time>2026-04-18T08:01:34.999Z</time></trkpt><trkpt lat="43.536134224648265" lon="10.807954303529916"><ele>163.33333333333334</ele><time>2026-04-18T08:01:35.999Z</time></trkpt><trkpt lat="43.536125412722676" lon="10.807740065235283"><ele>163.0</ele><time>2026-04-18T08:01:36.999Z</time></trkpt><trkpt lat="43.53612705601611" lon="10.807536381037215"><ele>163.0</ele><time>2026-04-18T08:01:38Z</time></trkpt><trkpt lat="43.53612561455766" lon="10.807349543625184"><ele>163.0</ele><time>2026-04-18T08:01:39Z</time></trkpt><trkpt lat="43.53611320329374" lon="10.807143923807237"><ele>163.0</ele><time>2026-04-18T08:01:40Z</time></trkpt><trkpt lat="43.53610294256894" lon="10.806940754754502"><ele>163.0</ele><time>2026-04-18T08:01:41Z</time></trkpt><trkpt lat="43.53607247194399" lon="10.806732837885189"><ele>163.66666666666669</ele><time>2026-04-18T08:01:42Z</time></trkpt><trkpt lat="43.53602973243565" lon="10.806513808009242"><ele>164.33333333333334</ele><time>2026-04-18T08:01:43Z</time></trkpt><trkpt lat="43.53598336462386" lon="10.80629047775568"><ele>165.0</ele><time>2026-04-18T08:01:44Z</time></trkpt><trkpt lat="43.536016039581426" lon="10.806098045396222"><ele>164.75</ele><time>2026-04-18T08:01:45Z</time></trkpt><trkpt lat="43.53604189208546" lon="10.80591115556514"><ele>164.5</ele><time>2026-04-18T08:01:46Z</time></trkpt><trkpt lat="43.53606274616786" lon="10.805715981642226"><ele>164.25</ele><time>2026-04-18T08:01:47Z</time></trkpt><trkpt lat="43.53611382460421" lon="10.805507213836577"><ele>164.0</ele><time>2026-04-18T08:01:48Z</time></trkpt><trkpt lat="43.536201290055224" lon="10.8053242307243"><ele>164.0</ele><time>2026-04-18T08:01:49Z</time></trkpt><trkpt lat="43.53627825531297" lon="10.805129557127216"><ele>164.0</ele><time>2026-04-18T08:01:50Z</time></trkpt><trkpt lat="43.53633876043516" lon="10.804920365717255"><ele>164.0</ele><time>2026-04-18T08:01:51Z</time></trkpt><trkpt lat="43.53641404676579" lon="10.8047234961371"><ele>164.0</ele><time>2026-04-18T08:01:52Z</time></trkpt><trkpt lat="43.53647706385719" lon="10.80452645892269"><ele>164.0</ele><time>2026-04-18T08:01:53Z</time></trkpt><trkpt lat="43.53653941339949" lon="10.804330665679537"><ele>164.0</ele><time>2026-04-18T08:01:54Z</time></trkpt><trkpt lat="43.53659423174653" lon="10.804123643394622"><ele>162.0</ele><time>2026-04-18T08:01:55Z</time></trkpt><trkpt lat="43.53663410303567" lon="10.803912201915097"><ele>160.0</ele><time>2026-04-18T08:01:56Z</time></trkpt><trkpt lat="43.536665658332375" lon="10.803684486724046"><ele>158.0</ele><time>2026-04-18T08:01:57Z</time></trkpt><trkpt lat="43.536696135528274" lon="10.80345326053355"><ele>157.33333333333331</ele><time>2026-04-18T08:01:58Z</time></trkpt><trkpt lat="43.53670643168525" lon="10.803229805192016"><ele>156.66666666666666</ele><time>2026-04-18T08:01:59Z</time></trkpt><trkpt lat="43.53671645926409" lon="10.803027291050455"><ele>156.0</ele><time>2026-04-18T08:02:00Z</time></trkpt><trkpt lat="43.53671774520482" lon="10.802834029263975"><ele>157.0</ele><time>2026-04-18T08:02:01Z</time></trkpt><trkpt lat="43.53672626433324" lon="10.802653186256002"><ele>158.0</ele><time>2026-04-18T08:02:02Z</time></trkpt><trkpt lat="43.536734735558255" lon="10.802461860916175"><ele>159.0</ele><time>2026-04-18T08:02:03Z</time></trkpt><trkpt lat="43.53675345265057" lon="10.802268325929068"><ele>160.0</ele><time>2026-04-18T08:02:04Z</time></trkpt><trkpt lat="43.536779443981004" lon="10.802088708034182"><ele>160.0</ele><time>2026-04-18T08:02:05Z</time></trkpt><trkpt lat="43.53682896634261" lon="10.801911791484724"><ele>160.0</ele><time>2026-04-18T08:02:06Z</time></trkpt><trkpt lat="43.536895081122644" lon="10.801738772178988"><ele>160.0</ele><time>2026-04-18T08:02:07Z</time></trkpt><trkpt lat="43.536977204438095" lon="10.80156396730409"><ele>160.0</ele><time>2026-04-18T08:02:08Z</time></trkpt><trkpt lat="43.53707326965744" lon="10.801419366980642"><ele>161.0</ele><time>2026-04-18T08:02:09Z</time></trkpt><trkpt lat="43.53718846034289" lon="10.801299687226697"><ele>162.0</ele><time>2026-04-18T08:02:10Z</time></trkpt><trkpt lat="43.53731366203724" lon="10.801218041705585"><ele>163.0</ele><time>2026-04-18T08:02:11Z</time></trkpt><trkpt lat="43.53742549580586" lon="10.801120592458982"><ele>164.0</ele><time>2026-04-18T08:02:12Z</time></trkpt><trkpt lat="43.53753494687308" lon="10.800997652806624"><ele>163.2</ele><time>2026-04-18T08:02:13Z</time></trkpt><trkpt lat="43.5376305362689" lon="10.800907884230268"><ele>162.39999999999998</ele><time>2026-04-18T08:02:14Z</time></trkpt><trkpt lat="43.53771537715606" lon="10.80079430970505"><ele>161.6</ele><time>2026-04-18T08:02:15Z</time></trkpt><trkpt lat="43.53778582230662" lon="10.800705601255292"><ele>160.8</ele><time>2026-04-18T08:02:16Z</time></trkpt><trkpt lat="43.53785259391358" lon="10.800618888699026"><ele>160.0</ele><time>2026-04-18T08:02:17Z</time></trkpt><trkpt lat="43.53792881706134" lon="10.800523331273785"><ele>160.0</ele><time>2026-04-18T08:02:18Z</time></trkpt><trkpt lat="43.538003000040305" lon="10.800404409001247"><ele>160.0</ele><time>2026-04-18T08:02:19Z</time></trkpt><trkpt lat="43.53807834780915" lon="10.800258613127758"><ele>160.0</ele><time>2026-04-18T08:02:20Z</time></trkpt><trkpt lat="43.53814289824641" lon="10.800099619002445"><ele>160.0</ele><time>2026-04-18T08:02:21Z</time></trkpt><trkpt lat="43.538198039660536" lon="10.799914530630707"><ele>160.5</ele><time>2026-04-18T08:02:22Z</time></trkpt><trkpt lat="43.53826161099065" lon="10.7997486346535"><ele>161.0</ele><time>2026-04-18T08:02:23Z</time></trkpt><trkpt lat="43.53832182874485" lon="10.799585336614742"><ele>161.5</ele><time>2026-04-18T08:02:24Z</time></trkpt><trkpt lat="43.538393392673456" lon="10.799447725749776"><ele>162.0</ele><time>2026-04-18T08:02:25Z</time></trkpt><trkpt lat="43.53845015469684" lon="10.799282221404724"><ele>162.0</ele><time>2026-04-18T08:02:26Z</time></trkpt><trkpt lat="43.53849252246521" lon="10.799136272497266"><ele>162.0</ele><time>2026-04-18T08:02:26.999Z</time></trkpt><trkpt lat="43.538533809618144" lon="10.79897260445794"><ele>162.0</ele><time>2026-04-18T08:02:27.999Z</time></trkpt><trkpt lat="43.538550139415875" lon="10.798783386704178"><ele>162.0</ele><time>2026-04-18T08:02:28.999Z</time></trkpt><trkpt lat="43.53854817326008" lon="10.798581504717365"><ele>160.75</ele><time>2026-04-18T08:02:29.999Z</time></trkpt><trkpt lat="43.53852770932553" lon="10.798387184616278"><ele>159.5</ele><time>2026-04-18T08:02:30.999Z</time></trkpt><trkpt lat="43.538498906123834" lon="10.798185688784876"><ele>158.25</ele><time>2026-04-18T08:02:31.999Z</time></trkpt><trkpt lat="43.53846764864609" lon="10.797979421723339"><ele>157.0</ele><time>2026-04-18T08:02:32.999Z</time></trkpt><trkpt lat="43.53843648006006" lon="10.797781086733137"><ele>157.75</ele><time>2026-04-18T08:02:33.999Z</time></trkpt><trkpt lat="43.538404656901676" lon="10.79757819937495"><ele>158.5</ele><time>2026-04-18T08:02:34.999Z</time></trkpt><trkpt lat="43.53837809315715" lon="10.797382760408665"><ele>159.25</ele><time>2026-04-18T08:02:35.999Z</time></trkpt><trkpt lat="43.53835444493702" lon="10.797190297728681"><ele>160.0</ele><time>2026-04-18T08:02:36.999Z</time></trkpt><trkpt lat="43.53831926969511" lon="10.797002187714034"><ele>162.0</ele><time>2026-04-18T08:02:37.999Z</time></trkpt><trkpt lat="43.538264753449496" lon="10.796830290201434"><ele>164.0</ele><time>2026-04-18T08:02:38.999Z</time></trkpt><trkpt lat="43.538205954494664" lon="10.796672272609461"><ele>166.0</ele><time>2026-04-18T08:02:39.999Z</time></trkpt><trkpt lat="43.53814713846494" lon="10.796508159446194"><ele>168.0</ele><time>2026-04-18T08:02:40.999Z</time></trkpt><trkpt lat="43.538122034036746" lon="10.79634817309643"><ele>168.0</ele><time>2026-04-18T08:02:41.999Z</time></trkpt><trkpt lat="43.53810877745715" lon="10.796192288100535"><ele>168.0</ele><time>2026-04-18T08:02:42.999Z</time></trkpt><trkpt lat="43.538130719216234" lon="10.796038965585998"><ele>168.0</ele><time>2026-04-18T08:02:43.999Z</time></trkpt><trkpt lat="43.53819432527375" lon="10.795887777013805"><ele>168.0</ele><time>2026-04-18T08:02:44.999Z</time></trkpt><trkpt lat="43.538250879437854" lon="10.795727502568782"><ele>169.75</ele><time>2026-04-18T08:02:45.999Z</time></trkpt><trkpt lat="43.53830402495423" lon="10.79558993714605"><ele>171.5</ele><time>2026-04-18T08:02:46.999Z</time></trkpt><trkpt lat="43.53837713660944" lon="10.795492231308115"><ele>173.25</ele><time>2026-04-18T08:02:47.999Z</time></trkpt><trkpt lat="43.53849191679992" lon="10.795461925322137"><ele>175.0</ele><time>2026-04-18T08:02:48.999Z</time></trkpt><trkpt lat="43.53859802935991" lon="10.795373249861568"><ele>175.0</ele><time>2026-04-18T08:02:49.999Z</time></trkpt><trkpt lat="43.53871535214106" lon="10.795307814792285"><ele>175.0</ele><time>2026-04-18T08:02:50.999Z</time></trkpt><trkpt lat="43.53881954116547" lon="10.795222253939583"><ele>175.0</ele><time>2026-04-18T08:02:51.999Z</time></trkpt><trkpt lat="43.538902286895805" lon="10.795092638017492"><ele>175.0</ele><time>2026-04-18T08:02:52.999Z</time></trkpt><trkpt lat="43.53894585871322" lon="10.79493044592365"><ele>175.8</ele><time>2026-04-18T08:02:53.999Z</time></trkpt><trkpt lat="43.53895986154246" lon="10.794763217208681"><ele>176.6</ele><time>2026-04-18T08:02:54.999Z</time></trkpt><trkpt lat="43.53897802007682" lon="10.794618390701022"><ele>177.39999999999998</ele><time>2026-04-18T08:02:55.999Z</time></trkpt><trkpt lat="43.53899322579549" lon="10.79448102955407"><ele>178.2</ele><time>2026-04-18T08:02:56.999Z</time></trkpt><trkpt lat="43.53901601816661" lon="10.794355723430153"><ele>179.0</ele><time>2026-04-18T08:02:57.999Z</time></trkpt><trkpt lat="43.53904255056614" lon="10.794226540100713"><ele>179.2</ele><time>2026-04-18T08:02:58.999Z</time></trkpt><trkpt lat="43.5390910692626" lon="10.794096783965005"><ele>179.39999999999998</ele><time>2026-04-18T08:02:59.999Z</time></trkpt><trkpt lat="43.53918708426299" lon="10.794001084751931"><ele>179.6</ele><time>2026-04-18T08:03:00.999Z</time></trkpt><trkpt lat="43.53925828118498" lon="10.793911913379725"><ele>179.8</ele><time>2026-04-18T08:03:01.999Z</time></trkpt><trkpt lat="43.539319967846176" lon="10.793861625015817"><ele>180.0</ele><time>2026-04-18T08:03:02.999Z</time></trkpt><trkpt lat="43.539403498390946" lon="10.793765297120144"><ele>180.0</ele><time>2026-04-18T08:03:04.999Z</time></trkpt><trkpt lat="43.539454382383376" lon="10.793700589184319"><ele>180.0</ele><time>2026-04-18T08:03:05.999Z</time></trkpt><trkpt lat="43.53953560571571" lon="10.793583654319397"><ele>180.0</ele><time>2026-04-18T08:03:07.999Z</time></trkpt><trkpt lat="43.53957602869591" lon="10.793433692486218"><ele>180.0</ele><time>2026-04-18T08:03:09.999Z</time></trkpt><trkpt lat="43.539603658565774" lon="10.79333919021584"><ele>180.0</ele><time>2026-04-18T08:03:11.999Z</time></trkpt><trkpt lat="43.539593459633636" lon="10.793201869433789"><ele>180.2</ele><time>2026-04-18T08:03:13.999Z</time></trkpt><trkpt lat="43.53959356815457" lon="10.793035699297562"><ele>180.4</ele><time>2026-04-18T08:03:15.999Z</time></trkpt><trkpt lat="43.539551746528794" lon="10.792867806041473"><ele>180.60000000000002</ele><time>2026-04-18T08:03:17.999Z</time></trkpt><trkpt lat="43.53951287987208" lon="10.792742775545037"><ele>180.8</ele><time>2026-04-18T08:03:19.999Z</time></trkpt><trkpt lat="43.53947973325836" lon="10.792666735566723"><ele>181.0</ele><time>2026-04-18T08:03:20.999Z</time></trkpt><trkpt lat="43.53941441837872" lon="10.792509984588513"><ele>181.0</ele><time>2026-04-18T08:03:22.999Z</time></trkpt><trkpt lat="43.53937578056312" lon="10.79242969423273"><ele>181.0</ele><time>2026-04-18T08:03:23.999Z</time></trkpt><trkpt lat="43.53933610138738" lon="10.792354939351329"><ele>181.0</ele><time>2026-04-18T08:03:24.999Z</time></trkpt><trkpt lat="43.5392894438093" lon="10.79226033253677"><ele>181.0</ele><time>2026-04-18T08:03:25.999Z</time></trkpt><trkpt lat="43.53924020239762" lon="10.792146005289323"><ele>181.0</ele><time>2026-04-18T08:03:26.999Z</time></trkpt><trkpt lat="43.539193303085575" lon="10.792018850726912"><ele>181.0</ele><time>2026-04-18T08:03:27.999Z</time></trkpt><trkpt lat="43.53914653248479" lon="10.791890157950208"><ele>182.4</ele><time>2026-04-18T08:03:28.999Z</time></trkpt><trkpt lat="43.53911105911496" lon="10.79179307121932"><ele>183.8</ele><time>2026-04-18T08:03:29.999Z</time></trkpt><trkpt lat="43.53906721865683" lon="10.79169190696774"><ele>185.20000000000002</ele><time>2026-04-18T08:03:30.999Z</time></trkpt><trkpt lat="43.53901202044838" lon="10.791596907669309"><ele>186.60000000000002</ele><time>2026-04-18T08:03:31.999Z</time></trkpt><trkpt lat="43.5389450594214" lon="10.79148581387777"><ele>188.0</ele><time>2026-04-18T08:03:32.999Z</time></trkpt><trkpt lat="43.53887648611647" lon="10.791374327897644"><ele>188.0</ele><time>2026-04-18T08:03:33.999Z</time></trkpt><trkpt lat="43.53882298167186" lon="10.791278696183412"><ele>188.0</ele><time>2026-04-18T08:03:34.999Z</time></trkpt><trkpt lat="43.538754312195564" lon="10.791179714893508"><ele>188.0</ele><time>2026-04-18T08:03:35.999Z</time></trkpt><trkpt lat="43.538682590069584" lon="10.791081896540977"><ele>188.0</ele><time>2026-04-18T08:03:36.999Z</time></trkpt><trkpt lat="43.53863368258953" lon="10.791017156783827"><ele>188.0</ele><time>2026-04-18T08:03:37.999Z</time></trkpt><trkpt lat="43.53858315202611" lon="10.790944852935159"><ele>188.0</ele><time>2026-04-18T08:03:38.999Z</time></trkpt><trkpt lat="43.53851044249465" lon="10.790847097972376"><ele>186.2</ele><time>2026-04-18T08:03:40.999Z</time></trkpt><trkpt lat="43.53842164317908" lon="10.79079366986008"><ele>184.4</ele><time>2026-04-18T08:03:42.999Z</time></trkpt><trkpt lat="43.53833932865929" lon="10.79076236751176"><ele>182.6</ele><time>2026-04-18T08:03:44Z</time></trkpt><trkpt lat="43.53824819611453" lon="10.790699940382215"><ele>180.79999999999998</ele><time>2026-04-18T08:03:45Z</time></trkpt><trkpt lat="43.538156888680795" lon="10.790649990463304"><ele>179.0</ele><time>2026-04-18T08:03:46Z</time></trkpt><trkpt lat="43.538059394061534" lon="10.790610387692821"><ele>179.0</ele><time>2026-04-18T08:03:47Z</time></trkpt><trkpt lat="43.53795818272558" lon="10.790593893682342"><ele>179.0</ele><time>2026-04-18T08:03:48Z</time></trkpt><trkpt lat="43.537854254638674" lon="10.790590020529025"><ele>179.0</ele><time>2026-04-18T08:03:49Z</time></trkpt><trkpt lat="43.53776535642382" lon="10.790578783162719"><ele>179.0</ele><time>2026-04-18T08:03:50Z</time></trkpt><trkpt lat="43.537687786535244" lon="10.790576820161519"><ele>179.0</ele><time>2026-04-18T08:03:51Z</time></trkpt><trkpt lat="43.537601680856014" lon="10.790599949205768"><ele>178.6</ele><time>2026-04-18T08:03:52Z</time></trkpt><trkpt lat="43.53751331733635" lon="10.790637720735171"><ele>178.2</ele><time>2026-04-18T08:03:53Z</time></trkpt><trkpt lat="43.537418908459294" lon="10.790681248318801"><ele>177.79999999999998</ele><time>2026-04-18T08:03:54Z</time></trkpt><trkpt lat="43.537338213640446" lon="10.790714919058091"><ele>177.39999999999998</ele><time>2026-04-18T08:03:55Z</time></trkpt><trkpt lat="43.53724950527866" lon="10.790749354776324"><ele>177.0</ele><time>2026-04-18T08:03:56Z</time></trkpt><trkpt lat="43.53715344239507" lon="10.79078514996753"><ele>177.0</ele><time>2026-04-18T08:03:57Z</time></trkpt><trkpt lat="43.537060022914545" lon="10.790805721957534"><ele>177.0</ele><time>2026-04-18T08:03:58Z</time></trkpt><trkpt lat="43.536966082121616" lon="10.7908095759974"><ele>177.0</ele><time>2026-04-18T08:03:59Z</time></trkpt><trkpt lat="43.53686247581075" lon="10.790798569699184"><ele>177.0</ele><time>2026-04-18T08:04:00Z</time></trkpt><trkpt lat="43.53675185258871" lon="10.790788170309504"><ele>177.0</ele><time>2026-04-18T08:04:01Z</time></trkpt><trkpt lat="43.536641439381015" lon="10.790782319822636"><ele>177.2</ele><time>2026-04-18T08:04:02Z</time></trkpt><trkpt lat="43.53652785653668" lon="10.790790212771487"><ele>177.39999999999998</ele><time>2026-04-18T08:04:03Z</time></trkpt><trkpt lat="43.536419289174766" lon="10.79080965274455"><ele>177.60000000000002</ele><time>2026-04-18T08:04:04Z</time></trkpt><trkpt lat="43.53632556096018" lon="10.790830212529011"><ele>177.8</ele><time>2026-04-18T08:04:05Z</time></trkpt><trkpt lat="43.5362416925055" lon="10.790842673387047"><ele>178.0</ele><time>2026-04-18T08:04:06Z</time></trkpt><trkpt lat="43.53614641437111" lon="10.790844501221732"><ele>178.0</ele><time>2026-04-18T08:04:07Z</time></trkpt><trkpt lat="43.53604972622358" lon="10.79083094510117"><ele>178.0</ele><time>2026-04-18T08:04:08Z</time></trkpt><trkpt lat="43.535954245181806" lon="10.790789744341224"><ele>178.0</ele><time>2026-04-18T08:04:09Z</time></trkpt><trkpt lat="43.53586911118086" lon="10.790722588395946"><ele>178.0</ele><time>2026-04-18T08:04:10Z</time></trkpt><trkpt lat="43.53578918748006" lon="10.79065085934814"><ele>178.0</ele><time>2026-04-18T08:04:11Z</time></trkpt><trkpt lat="43.535696414309335" lon="10.790572228402683"><ele>178.0</ele><time>2026-04-18T08:04:12Z</time></trkpt><trkpt lat="43.535596710097444" lon="10.790492712866369"><ele>178.0</ele><time>2026-04-18T08:04:13Z</time></trkpt><trkpt lat="43.535490041593974" lon="10.79040360095247"><ele>178.0</ele><time>2026-04-18T08:04:14Z</time></trkpt><trkpt lat="43.53536528048314" lon="10.79030262083931"><ele>178.0</ele><time>2026-04-18T08:04:15Z</time></trkpt><trkpt lat="43.535220188781814" lon="10.79019964291358"><ele>175.66666666666669</ele><time>2026-04-18T08:04:16Z</time></trkpt><trkpt lat="43.53508515648687" lon="10.7900971719229"><ele>173.33333333333334</ele><time>2026-04-18T08:04:17Z</time></trkpt><trkpt lat="43.53495985527474" lon="10.789971951218833"><ele>171.0</ele><time>2026-04-18T08:04:18Z</time></trkpt><trkpt lat="43.5348288169477" lon="10.789877652127004"><ele>171.0</ele><time>2026-04-18T08:04:19Z</time></trkpt><trkpt lat="43.53469404311478" lon="10.789776222222956"><ele>171.0</ele><time>2026-04-18T08:04:20Z</time></trkpt><trkpt lat="43.534573568342815" lon="10.789676121053692"><ele>171.0</ele><time>2026-04-18T08:04:21Z</time></trkpt><trkpt lat="43.53445521263082" lon="10.789603103423364"><ele>171.0</ele><time>2026-04-18T08:04:22Z</time></trkpt><trkpt lat="43.534335935960726" lon="10.78953487217527"><ele>170.75</ele><time>2026-04-18T08:04:23Z</time></trkpt><trkpt lat="43.53421132507712" lon="10.7894618341054"><ele>170.5</ele><time>2026-04-18T08:04:24Z</time></trkpt><trkpt lat="43.53407825180878" lon="10.789379639512688"><ele>170.25</ele><time>2026-04-18T08:04:25Z</time></trkpt><trkpt lat="43.53394334230418" lon="10.789301287511186"><ele>170.0</ele><time>2026-04-18T08:04:26Z</time></trkpt><trkpt lat="43.53382215187028" lon="10.789230866593911"><ele>168.0</ele><time>2026-04-18T08:04:27Z</time></trkpt><trkpt lat="43.53371359403132" lon="10.789145830752933"><ele>166.0</ele><time>2026-04-18T08:04:28Z</time></trkpt><trkpt lat="43.53359869980272" lon="10.789078806844541"><ele>164.0</ele><time>2026-04-18T08:04:29Z</time></trkpt><trkpt lat="43.53348326081615" lon="10.789014409591113"><ele>162.0</ele><time>2026-04-18T08:04:30Z</time></trkpt><trkpt lat="43.53337195866227" lon="10.788956111987982"><ele>162.0</ele><time>2026-04-18T08:04:31Z</time></trkpt><trkpt lat="43.53326511707" lon="10.788894812617082"><ele>162.0</ele><time>2026-04-18T08:04:31.999Z</time></trkpt><trkpt lat="43.53316609831615" lon="10.788836688747546"><ele>162.0</ele><time>2026-04-18T08:04:32.999Z</time></trkpt><trkpt lat="43.53306268803093" lon="10.788776939133902"><ele>162.0</ele><time>2026-04-18T08:04:33.999Z</time></trkpt><trkpt lat="43.532961944199265" lon="10.788721758261945"><ele>162.0</ele><time>2026-04-18T08:04:34.999Z</time></trkpt><trkpt lat="43.532861048728904" lon="10.788666610356296"><ele>161.0</ele><time>2026-04-18T08:04:35.999Z</time></trkpt><trkpt lat="43.53276152987893" lon="10.788608340467267"><ele>160.0</ele><time>2026-04-18T08:04:36.999Z</time></trkpt><trkpt lat="43.53265663066357" lon="10.788550773688666"><ele>159.0</ele><time>2026-04-18T08:04:37.999Z</time></trkpt><trkpt lat="43.532559986672084" lon="10.788501148162931"><ele>158.0</ele><time>2026-04-18T08:04:38.999Z</time></trkpt><trkpt lat="43.53246437029382" lon="10.788446577087013"><ele>157.0</ele><time>2026-04-18T08:04:39.999Z</time></trkpt><trkpt lat="43.532369957520025" lon="10.788395456478591"><ele>157.0</ele><time>2026-04-18T08:04:40.999Z</time></trkpt><trkpt lat="43.532289630358754" lon="10.788345081036766"><ele>157.0</ele><time>2026-04-18T08:04:41.999Z</time></trkpt><trkpt lat="43.53220758250356" lon="10.78829899508489"><ele>157.0</ele><time>2026-04-18T08:04:42.999Z</time></trkpt><trkpt lat="43.53211106332597" lon="10.788244190544546"><ele>157.0</ele><time>2026-04-18T08:04:43.999Z</time></trkpt><trkpt lat="43.53202235839584" lon="10.788188471956813"><ele>157.0</ele><time>2026-04-18T08:04:44.999Z</time></trkpt><trkpt lat="43.531931924941404" lon="10.788129604014472"><ele>156.33333333333334</ele><time>2026-04-18T08:04:45.999Z</time></trkpt><trkpt lat="43.53185878380916" lon="10.788057339559078"><ele>155.66666666666669</ele><time>2026-04-18T08:04:46.999Z</time></trkpt><trkpt lat="43.53179109045743" lon="10.787971584917424"><ele>155.0</ele><time>2026-04-18T08:04:47.999Z</time></trkpt><trkpt lat="43.53174710227864" lon="10.787888315040696"><ele>154.33333333333334</ele><time>2026-04-18T08:04:48.999Z</time></trkpt><trkpt lat="43.53170530082614" lon="10.787806225022058"><ele>153.66666666666666</ele><time>2026-04-18T08:04:49.999Z</time></trkpt><trkpt lat="43.531661033987994" lon="10.787734262753567"><ele>153.0</ele><time>2026-04-18T08:04:50.999Z</time></trkpt><trkpt lat="43.531614874493094" lon="10.787659664831205"><ele>153.0</ele><time>2026-04-18T08:04:51.999Z</time></trkpt><trkpt lat="43.531566857023634" lon="10.787588134280991"><ele>153.0</ele><time>2026-04-18T08:04:52.999Z</time></trkpt><trkpt lat="43.531522251582786" lon="10.787505673863325"><ele>153.0</ele><time>2026-04-18T08:04:53.999Z</time></trkpt><trkpt lat="43.53147415270025" lon="10.787433333232382"><ele>153.0</ele><time>2026-04-18T08:04:54.999Z</time></trkpt><trkpt lat="43.531428738171414" lon="10.787358314477336"><ele>153.0</ele><time>2026-04-18T08:04:55.999Z</time></trkpt><trkpt lat="43.531383225611066" lon="10.78728780662111"><ele>153.0</ele><time>2026-04-18T08:04:56.999Z</time></trkpt><trkpt lat="43.531332012991015" lon="10.787196272008565"><ele>153.0</ele><time>2026-04-18T08:04:57.999Z</time></trkpt><trkpt lat="43.53127577976079" lon="10.78708725445906"><ele>150.6</ele><time>2026-04-18T08:04:58.999Z</time></trkpt><trkpt lat="43.5312075274111" lon="10.78697391152755"><ele>148.20000000000002</ele><time>2026-04-18T08:04:59.999Z</time></trkpt><trkpt lat="43.53113469871978" lon="10.786853531537737"><ele>145.8</ele><time>2026-04-18T08:05:00.999Z</time></trkpt><trkpt lat="43.53105884832914" lon="10.78674161037026"><ele>143.4</ele><time>2026-04-18T08:05:01.999Z</time></trkpt><trkpt lat="43.53098482660314" lon="10.786642840171577"><ele>141.0</ele><time>2026-04-18T08:05:02.999Z</time></trkpt><trkpt lat="43.5309169936194" lon="10.786541504243054"><ele>141.0</ele><time>2026-04-18T08:05:03.999Z</time></trkpt><trkpt lat="43.53084366290334" lon="10.786438173798523"><ele>141.0</ele><time>2026-04-18T08:05:04.999Z</time></trkpt><trkpt lat="43.530776985929656" lon="10.786348207964268"><ele>141.0</ele><time>2026-04-18T08:05:05.999Z</time></trkpt><trkpt lat="43.530717379202855" lon="10.786261160982987"><ele>141.0</ele><time>2026-04-18T08:05:06.999Z</time></trkpt><trkpt lat="43.530674921884945" lon="10.786171611925182"><ele>141.0</ele><time>2026-04-18T08:05:07.999Z</time></trkpt><trkpt lat="43.53065093874322" lon="10.786083082120435"><ele>141.0</ele><time>2026-04-18T08:05:08.999Z</time></trkpt><trkpt lat="43.5306514914947" lon="10.785986675317645"><ele>141.6</ele><time>2026-04-18T08:05:09.999Z</time></trkpt><trkpt lat="43.5306832651612" lon="10.785866034977273"><ele>142.2</ele><time>2026-04-18T08:05:10.999Z</time></trkpt><trkpt lat="43.530735714074" lon="10.785745008075121"><ele>142.8</ele><time>2026-04-18T08:05:11.999Z</time></trkpt><trkpt lat="43.53077928094319" lon="10.785635741085375"><ele>143.4</ele><time>2026-04-18T08:05:12.999Z</time></trkpt><trkpt lat="43.530818272509656" lon="10.785538757542346"><ele>144.0</ele><time>2026-04-18T08:05:13.999Z</time></trkpt><trkpt lat="43.53085582042885" lon="10.785424887834786"><ele>144.0</ele><time>2026-04-18T08:05:14.999Z</time></trkpt><trkpt lat="43.530883095718" lon="10.785329328140657"><ele>144.0</ele><time>2026-04-18T08:05:15.999Z</time></trkpt><trkpt lat="43.53090070177922" lon="10.785226351340212"><ele>144.0</ele><time>2026-04-18T08:05:16.999Z</time></trkpt><trkpt lat="43.53088787701745" lon="10.785111103430038"><ele>144.0</ele><time>2026-04-18T08:05:17.999Z</time></trkpt><trkpt lat="43.53085913006541" lon="10.784952358341986"><ele>144.0</ele><time>2026-04-18T08:05:18.999Z</time></trkpt><trkpt lat="43.530799074256585" lon="10.784771147668044"><ele>142.75</ele><time>2026-04-18T08:05:19.999Z</time></trkpt><trkpt lat="43.530765376937325" lon="10.784575809290816"><ele>141.5</ele><time>2026-04-18T08:05:20.999Z</time></trkpt><trkpt lat="43.53071978133145" lon="10.78440044130679"><ele>140.25</ele><time>2026-04-18T08:05:21.999Z</time></trkpt><trkpt lat="43.53067048306615" lon="10.784244781955989"><ele>139.0</ele><time>2026-04-18T08:05:22.999Z</time></trkpt><trkpt lat="43.53061529475273" lon="10.784164678938087"><ele>137.5</ele><time>2026-04-18T08:05:23.999Z</time></trkpt><trkpt lat="43.53057760637372" lon="10.784077952239596"><ele>136.0</ele><time>2026-04-18T08:05:24.999Z</time></trkpt><trkpt lat="43.53053637529336" lon="10.783942457131497"><ele>134.5</ele><time>2026-04-18T08:05:26.999Z</time></trkpt><trkpt lat="43.530517071799494" lon="10.783832921243475"><ele>133.0</ele><time>2026-04-18T08:05:35.999Z</time></trkpt><trkpt lat="43.53053667179093" lon="10.783933833075542"><ele>131.5</ele><time>2026-04-18T08:05:52Z</time></trkpt><trkpt lat="43.53055564182162" lon="10.784021982164438"><ele>130.0</ele><time>2026-04-18T08:05:53Z</time></trkpt><trkpt lat="43.53055160700359" lon="10.784109109664225"><ele>130.0</ele><time>2026-04-18T08:05:54Z</time></trkpt><trkpt lat="43.530470940585204" lon="10.784154606208721"><ele>130.0</ele><time>2026-04-18T08:05:56Z</time></trkpt><trkpt lat="43.53040802289349" lon="10.784204227839666"><ele>130.0</ele><time>2026-04-18T08:05:57Z</time></trkpt><trkpt lat="43.53031957933227" lon="10.784282674756573"><ele>130.0</ele><time>2026-04-18T08:05:58Z</time></trkpt><trkpt lat="43.53024587378735" lon="10.784370200587315"><ele>130.0</ele><time>2026-04-18T08:05:59Z</time></trkpt><trkpt lat="43.530145434364464" lon="10.784454170154326"><ele>131.0</ele><time>2026-04-18T08:06:00Z</time></trkpt><trkpt lat="43.53007624831522" lon="10.784549656544218"><ele>132.0</ele><time>2026-04-18T08:06:01Z</time></trkpt><trkpt lat="43.53000937088128" lon="10.784640721872968"><ele>133.0</ele><time>2026-04-18T08:06:02Z</time></trkpt><trkpt lat="43.52991185979434" lon="10.784686766057336"><ele>134.0</ele><time>2026-04-18T08:06:03Z</time></trkpt><trkpt lat="43.52979966539073" lon="10.784713777783516"><ele>135.0</ele><time>2026-04-18T08:06:04Z</time></trkpt><trkpt lat="43.52967944544491" lon="10.78472990839328"><ele>129.5</ele><time>2026-04-18T08:06:05Z</time></trkpt><trkpt lat="43.52951511187799" lon="10.78472812430447"><ele>124.0</ele><time>2026-04-18T08:06:06Z</time></trkpt><trkpt lat="43.52936573664678" lon="10.784711608045503"><ele>118.5</ele><time>2026-04-18T08:06:07Z</time></trkpt><trkpt lat="43.52923269751205" lon="10.78467983886694"><ele>113.0</ele><time>2026-04-18T08:06:08Z</time></trkpt><trkpt lat="43.52911719650346" lon="10.78465556348674"><ele>113.0</ele><time>2026-04-18T08:06:09Z</time></trkpt><trkpt lat="43.528991924077665" lon="10.78463027050295"><ele>113.0</ele><time>2026-04-18T08:06:10Z</time></trkpt><trkpt lat="43.52887489933517" lon="10.784606040818295"><ele>113.0</ele><time>2026-04-18T08:06:11Z</time></trkpt><trkpt lat="43.5287493231603" lon="10.784586770442878"><ele>113.0</ele><time>2026-04-18T08:06:12Z</time></trkpt><trkpt lat="43.52862519985004" lon="10.78458070826087"><ele>110.60000000000001</ele><time>2026-04-18T08:06:13Z</time></trkpt><trkpt lat="43.528513550815696" lon="10.784593607686183"><ele>108.20000000000002</ele><time>2026-04-18T08:06:14Z</time></trkpt><trkpt lat="43.52841053139029" lon="10.78461922483432"><ele>105.8</ele><time>2026-04-18T08:06:15Z</time></trkpt><trkpt lat="43.528302646389434" lon="10.78465374370038"><ele>103.4</ele><time>2026-04-18T08:06:16Z</time></trkpt><trkpt lat="43.52819625083208" lon="10.784666324085274"><ele>101.0</ele><time>2026-04-18T08:06:17Z</time></trkpt><trkpt lat="43.52809459344772" lon="10.784672901031541"><ele>101.0</ele><time>2026-04-18T08:06:18Z</time></trkpt><trkpt lat="43.527986603635036" lon="10.784658360783936"><ele>101.0</ele><time>2026-04-18T08:06:19Z</time></trkpt><trkpt lat="43.527874009252685" lon="10.784636643756818"><ele>101.0</ele><time>2026-04-18T08:06:20Z</time></trkpt><trkpt lat="43.527754969925105" lon="10.784624831527687"><ele>101.0</ele><time>2026-04-18T08:06:21Z</time></trkpt><trkpt lat="43.527643732267364" lon="10.784607013858972"><ele>99.0</ele><time>2026-04-18T08:06:22Z</time></trkpt><trkpt lat="43.527539946438665" lon="10.784561090562692"><ele>97.0</ele><time>2026-04-18T08:06:23Z</time></trkpt><trkpt lat="43.5274364762472" lon="10.78450271533178"><ele>95.0</ele><time>2026-04-18T08:06:24Z</time></trkpt><trkpt lat="43.527335812986934" lon="10.784411983819044"><ele>93.0</ele><time>2026-04-18T08:06:25Z</time></trkpt><trkpt lat="43.52725614416891" lon="10.784299990621301"><ele>93.0</ele><time>2026-04-18T08:06:26Z</time></trkpt><trkpt lat="43.52718888600106" lon="10.784171383357418"><ele>93.0</ele><time>2026-04-18T08:06:27Z</time></trkpt><trkpt lat="43.52712672974803" lon="10.784033730752304"><ele>93.0</ele><time>2026-04-18T08:06:28Z</time></trkpt><trkpt lat="43.5270410104232" lon="10.78388827871496"><ele>93.0</ele><time>2026-04-18T08:06:29Z</time></trkpt><trkpt lat="43.526949459257466" lon="10.783737399864604"><ele>92.5</ele><time>2026-04-18T08:06:30Z</time></trkpt><trkpt lat="43.52686631613487" lon="10.783597050786474"><ele>92.0</ele><time>2026-04-18T08:06:31Z</time></trkpt><trkpt lat="43.52678368959763" lon="10.783454988307174"><ele>91.5</ele><time>2026-04-18T08:06:32Z</time></trkpt><trkpt lat="43.52670648954925" lon="10.783320930871243"><ele>91.0</ele><time>2026-04-18T08:06:33Z</time></trkpt><trkpt lat="43.526635367012425" lon="10.783185462572455"><ele>90.0</ele><time>2026-04-18T08:06:34Z</time></trkpt><trkpt lat="43.52657836983155" lon="10.783054528405764"><ele>89.0</ele><time>2026-04-18T08:06:35Z</time></trkpt><trkpt lat="43.526528543949915" lon="10.782908031025592"><ele>88.0</ele><time>2026-04-18T08:06:36Z</time></trkpt><trkpt lat="43.526480495254035" lon="10.78275083952864"><ele>87.0</ele><time>2026-04-18T08:06:37Z</time></trkpt><trkpt lat="43.52642727307074" lon="10.782585167470682"><ele>84.75</ele><time>2026-04-18T08:06:38Z</time></trkpt><trkpt lat="43.52637482687844" lon="10.782409199426324"><ele>82.5</ele><time>2026-04-18T08:06:39Z</time></trkpt><trkpt lat="43.526321762489154" lon="10.782235344932186"><ele>80.25</ele><time>2026-04-18T08:06:40Z</time></trkpt><trkpt lat="43.526265948261496" lon="10.782061444102306"><ele>78.0</ele><time>2026-04-18T08:06:41Z</time></trkpt><trkpt lat="43.52622424114927" lon="10.781877451898533"><ele>76.2</ele><time>2026-04-18T08:06:42Z</time></trkpt><trkpt lat="43.526171754495756" lon="10.781714712153237"><ele>74.4</ele><time>2026-04-18T08:06:43Z</time></trkpt><trkpt lat="43.52612433212766" lon="10.781568372532833"><ele>72.60000000000001</ele><time>2026-04-18T08:06:44Z</time></trkpt><trkpt lat="43.52608108842063" lon="10.78142924154529"><ele>70.8</ele><time>2026-04-18T08:06:45Z</time></trkpt><trkpt lat="43.52604013611487" lon="10.781316102639476"><ele>69.0</ele><time>2026-04-18T08:06:45.999Z</time></trkpt><trkpt lat="43.526010277217395" lon="10.781224205748503"><ele>69.0</ele><time>2026-04-18T08:06:47.999Z</time></trkpt><trkpt lat="43.525864032745424" lon="10.781245115737628"><ele>69.0</ele><time>2026-04-18T08:06:53.999Z</time></trkpt><trkpt lat="43.525787643033325" lon="10.781349550036664"><ele>69.0</ele><time>2026-04-18T08:06:54.999Z</time></trkpt><trkpt lat="43.52569086293949" lon="10.781443032390865"><ele>69.0</ele><time>2026-04-18T08:06:55.999Z</time></trkpt><trkpt lat="43.52559045515404" lon="10.781531885493004"><ele>69.0</ele><time>2026-04-18T08:06:56.999Z</time></trkpt><trkpt lat="43.52546459081658" lon="10.781660884701772"><ele>69.0</ele><time>2026-04-18T08:06:57.999Z</time></trkpt><trkpt lat="43.52531852648125" lon="10.78180276192919"><ele>69.0</ele><time>2026-04-18T08:06:58.999Z</time></trkpt><trkpt lat="43.52517318231874" lon="10.78194123224528"><ele>69.66666666666667</ele><time>2026-04-18T08:06:59.999Z</time></trkpt><trkpt lat="43.52503053184834" lon="10.78208767954273"><ele>70.33333333333334</ele><time>2026-04-18T08:07:00.999Z</time></trkpt><trkpt lat="43.52489877488348" lon="10.782215154595855"><ele>71.0</ele><time>2026-04-18T08:07:01.999Z</time></trkpt><trkpt lat="43.524785360729425" lon="10.782362545512985"><ele>71.0</ele><time>2026-04-18T08:07:02.999Z</time></trkpt><trkpt lat="43.52467055944327" lon="10.782563967055696"><ele>71.0</ele><time>2026-04-18T08:07:03.999Z</time></trkpt><trkpt lat="43.52454030672199" lon="10.7827860061452"><ele>71.0</ele><time>2026-04-18T08:07:04.999Z</time></trkpt><trkpt lat="43.52443045650239" lon="10.78303370801536"><ele>69.0</ele><time>2026-04-18T08:07:05.999Z</time></trkpt><trkpt lat="43.524318702076876" lon="10.783280238659957"><ele>67.0</ele><time>2026-04-18T08:07:06.999Z</time></trkpt><trkpt lat="43.524214770457995" lon="10.783553873147335"><ele>65.0</ele><time>2026-04-18T08:07:07.999Z</time></trkpt><trkpt lat="43.52409700117363" lon="10.783799352552855"><ele>65.0</ele><time>2026-04-18T08:07:08.999Z</time></trkpt><trkpt lat="43.52399164770741" lon="10.784025500499448"><ele>65.0</ele><time>2026-04-18T08:07:09.999Z</time></trkpt><trkpt lat="43.523891780499916" lon="10.78420720706011"><ele>65.0</ele><time>2026-04-18T08:07:10.999Z</time></trkpt><trkpt lat="43.523774147828775" lon="10.78433680796247"><ele>66.33333333333334</ele><time>2026-04-18T08:07:11.999Z</time></trkpt><trkpt lat="43.52364483516525" lon="10.784473932602044"><ele>67.66666666666667</ele><time>2026-04-18T08:07:12.999Z</time></trkpt><trkpt lat="43.52347017971617" lon="10.784577537422184"><ele>69.0</ele><time>2026-04-18T08:07:13.999Z</time></trkpt><trkpt lat="43.523278945385506" lon="10.784678775014203"><ele>69.0</ele><time>2026-04-18T08:07:14.999Z</time></trkpt><trkpt lat="43.523092376072185" lon="10.784778289372506"><ele>69.0</ele><time>2026-04-18T08:07:15.999Z</time></trkpt><trkpt lat="43.522937578010776" lon="10.78487447292206"><ele>69.0</ele><time>2026-04-18T08:07:16.999Z</time></trkpt><trkpt lat="43.5227947872195" lon="10.784966113071727"><ele>69.0</ele><time>2026-04-18T08:07:17.999Z</time></trkpt><trkpt lat="43.52267433971015" lon="10.785032513087506"><ele>69.0</ele><time>2026-04-18T08:07:18.999Z</time></trkpt><trkpt lat="43.522576725134456" lon="10.785095425323929"><ele>69.0</ele><time>2026-04-18T08:07:19.999Z</time></trkpt><trkpt lat="43.52249884462688" lon="10.785142945485996"><ele>69.0</ele><time>2026-04-18T08:07:20.999Z</time></trkpt><trkpt lat="43.52243816472035" lon="10.785187033038273"><ele>69.0</ele><time>2026-04-18T08:07:21.999Z</time></trkpt><trkpt lat="43.522366522846994" lon="10.785232135540467"><ele>69.0</ele><time>2026-04-18T08:07:23.999Z</time></trkpt><trkpt lat="43.522466035490105" lon="10.78551679933089"><ele>69.0</ele><time>2026-04-18T08:07:25.999Z</time></trkpt><trkpt lat="43.52252620097146" lon="10.785624147120298"><ele>69.0</ele><time>2026-04-18T08:07:26.999Z</time></trkpt><trkpt lat="43.52255718136042" lon="10.785768645338266"><ele>69.0</ele><time>2026-04-18T08:07:27.999Z</time></trkpt><trkpt lat="43.52255019591277" lon="10.785924932542702"><ele>69.25</ele><time>2026-04-18T08:07:28.999Z</time></trkpt><trkpt lat="43.52255419178385" lon="10.78609813062712"><ele>69.5</ele><time>2026-04-18T08:07:29.999Z</time></trkpt><trkpt lat="43.52255726574717" lon="10.78626305887336"><ele>69.75</ele><time>2026-04-18T08:07:30.999Z</time></trkpt><trkpt lat="43.522563058222104" lon="10.78641563759133"><ele>70.0</ele><time>2026-04-18T08:07:31.999Z</time></trkpt><trkpt lat="43.52257159757727" lon="10.786560496658746"><ele>70.0</ele><time>2026-04-18T08:07:32.999Z</time></trkpt><trkpt lat="43.52258883253759" lon="10.786735968983429"><ele>70.0</ele><time>2026-04-18T08:07:33.999Z</time></trkpt><trkpt lat="43.52260866523083" lon="10.786906782882735"><ele>70.0</ele><time>2026-04-18T08:07:34.999Z</time></trkpt><trkpt lat="43.52263922628194" lon="10.787099387797994"><ele>70.0</ele><time>2026-04-18T08:07:35.999Z</time></trkpt><trkpt lat="43.52267396147754" lon="10.787293357162087"><ele>70.5</ele><time>2026-04-18T08:07:36.999Z</time></trkpt><trkpt lat="43.5227017770661" lon="10.78747867778726"><ele>71.0</ele><time>2026-04-18T08:07:37.999Z</time></trkpt><trkpt lat="43.52272733381467" lon="10.787671512008778"><ele>71.5</ele><time>2026-04-18T08:07:38.999Z</time></trkpt><trkpt lat="43.5227511344781" lon="10.787851345854211"><ele>72.0</ele><time>2026-04-18T08:07:39.999Z</time></trkpt><trkpt lat="43.52277353334727" lon="10.788020587992785"><ele>72.5</ele><time>2026-04-18T08:07:40.999Z</time></trkpt><trkpt lat="43.522798774516424" lon="10.788201203329812"><ele>73.0</ele><time>2026-04-18T08:07:41.999Z</time></trkpt><trkpt lat="43.52282378515223" lon="10.78837508007712"><ele>73.5</ele><time>2026-04-18T08:07:42.999Z</time></trkpt><trkpt lat="43.52284877266371" lon="10.788548796063262"><ele>74.0</ele><time>2026-04-18T08:07:43.999Z</time></trkpt><trkpt lat="43.52287571662125" lon="10.788734152711442"><ele>76.5</ele><time>2026-04-18T08:07:44.999Z</time></trkpt><trkpt lat="43.52290165810672" lon="10.788912254885835"><ele>79.0</ele><time>2026-04-18T08:07:45.999Z</time></trkpt><trkpt lat="43.52293030960117" lon="10.789108962774534"><ele>81.5</ele><time>2026-04-18T08:07:46.999Z</time></trkpt><trkpt lat="43.52295214437089" lon="10.78926394307147"><ele>84.0</ele><time>2026-04-18T08:07:47.999Z</time></trkpt><trkpt lat="43.52297698856971" lon="10.789446410638352"><ele>85.5</ele><time>2026-04-18T08:07:48.999Z</time></trkpt><trkpt lat="43.523005903854504" lon="10.789622444921465"><ele>87.0</ele><time>2026-04-18T08:07:49.999Z</time></trkpt><trkpt lat="43.52304209562497" lon="10.78977617264058"><ele>88.5</ele><time>2026-04-18T08:07:50.999Z</time></trkpt><trkpt lat="43.52307490552294" lon="10.789912569549212"><ele>90.0</ele><time>2026-04-18T08:07:51.999Z</time></trkpt><trkpt lat="43.52310150821978" lon="10.79005284390179"><ele>91.75</ele><time>2026-04-18T08:07:52.999Z</time></trkpt><trkpt lat="43.523133129177694" lon="10.790208925801636"><ele>93.5</ele><time>2026-04-18T08:07:53.999Z</time></trkpt><trkpt lat="43.52314023636661" lon="10.790356795117887"><ele>95.25</ele><time>2026-04-18T08:07:54.999Z</time></trkpt><trkpt lat="43.523160769538485" lon="10.790510777211821"><ele>97.0</ele><time>2026-04-18T08:07:56Z</time></trkpt><trkpt lat="43.52317282065487" lon="10.790688435049226"><ele>97.0</ele><time>2026-04-18T08:07:57Z</time></trkpt><trkpt lat="43.523198360409424" lon="10.790849271480843"><ele>97.0</ele><time>2026-04-18T08:07:58Z</time></trkpt><trkpt lat="43.523241540908316" lon="10.791026862098475"><ele>97.0</ele><time>2026-04-18T08:07:59Z</time></trkpt><trkpt lat="43.523312793805566" lon="10.791168946892482"><ele>97.0</ele><time>2026-04-18T08:08:00Z</time></trkpt><trkpt lat="43.52341934659907" lon="10.791278451999991"><ele>96.0</ele><time>2026-04-18T08:08:01Z</time></trkpt><trkpt lat="43.523492235259816" lon="10.791426067301794"><ele>95.0</ele><time>2026-04-18T08:08:02Z</time></trkpt><trkpt lat="43.52356962159277" lon="10.791562941666898"><ele>94.0</ele><time>2026-04-18T08:08:03Z</time></trkpt><trkpt lat="43.52363669186496" lon="10.79169439748192"><ele>93.0</ele><time>2026-04-18T08:08:04Z</time></trkpt><trkpt lat="43.52368388820964" lon="10.791806867211996"><ele>93.0</ele><time>2026-04-18T08:08:05Z</time></trkpt><trkpt lat="43.52369364522798" lon="10.791954644685447"><ele>93.0</ele><time>2026-04-18T08:08:06Z</time></trkpt><trkpt lat="43.52367684891693" lon="10.792124720471444"><ele>93.0</ele><time>2026-04-18T08:08:07Z</time></trkpt><trkpt lat="43.52366144472195" lon="10.79229052746906"><ele>93.0</ele><time>2026-04-18T08:08:08Z</time></trkpt><trkpt lat="43.52362298098583" lon="10.792479860328116"><ele>93.0</ele><time>2026-04-18T08:08:09Z</time></trkpt><trkpt lat="43.523571498978576" lon="10.792661453773844"><ele>93.0</ele><time>2026-04-18T08:08:10Z</time></trkpt><trkpt lat="43.52352734746236" lon="10.792848687382133"><ele>93.0</ele><time>2026-04-18T08:08:11Z</time></trkpt><trkpt lat="43.523503015024666" lon="10.793069315016592"><ele>93.0</ele><time>2026-04-18T08:08:12Z</time></trkpt><trkpt lat="43.52349373221169" lon="10.79330748222224"><ele>94.0</ele><time>2026-04-18T08:08:13Z</time></trkpt><trkpt lat="43.52350285088465" lon="10.793554569135313"><ele>95.0</ele><time>2026-04-18T08:08:14Z</time></trkpt><trkpt lat="43.52351061982098" lon="10.793807221051322"><ele>96.0</ele><time>2026-04-18T08:08:15Z</time></trkpt><trkpt lat="43.523511342403" lon="10.794021964213211"><ele>96.0</ele><time>2026-04-18T08:08:16Z</time></trkpt><trkpt lat="43.52350051316382" lon="10.794215245203876"><ele>96.0</ele><time>2026-04-18T08:08:17Z</time></trkpt><trkpt lat="43.52348268693566" lon="10.79439861283566"><ele>96.0</ele><time>2026-04-18T08:08:18Z</time></trkpt><trkpt lat="43.52346910633336" lon="10.794580122477987"><ele>96.0</ele><time>2026-04-18T08:08:19Z</time></trkpt><trkpt lat="43.52346269198091" lon="10.794752303307646"><ele>96.0</ele><time>2026-04-18T08:08:20Z</time></trkpt><trkpt lat="43.523453782584944" lon="10.794916961565171"><ele>96.0</ele><time>2026-04-18T08:08:21Z</time></trkpt><trkpt lat="43.52345969918941" lon="10.795085302078057"><ele>96.0</ele><time>2026-04-18T08:08:22Z</time></trkpt><trkpt lat="43.52348709997968" lon="10.795268760506227"><ele>96.0</ele><time>2026-04-18T08:08:23Z</time></trkpt><trkpt lat="43.523526941276955" lon="10.795456929060824"><ele>94.66666666666667</ele><time>2026-04-18T08:08:24Z</time></trkpt><trkpt lat="43.52357454985048" lon="10.795670631598892"><ele>93.33333333333334</ele><time>2026-04-18T08:08:25Z</time></trkpt><trkpt lat="43.52364139518733" lon="10.795897870331903"><ele>92.0</ele><time>2026-04-18T08:08:26Z</time></trkpt><trkpt lat="43.523715034672165" lon="10.796095694909766"><ele>92.75</ele><time>2026-04-18T08:08:27Z</time></trkpt><trkpt lat="43.52378122262577" lon="10.796270147885336"><ele>93.5</ele><time>2026-04-18T08:08:28Z</time></trkpt><trkpt lat="43.52383984728863" lon="10.796449125476398"><ele>94.25</ele><time>2026-04-18T08:08:29Z</time></trkpt><trkpt lat="43.523888638628954" lon="10.7966392581803"><ele>95.0</ele><time>2026-04-18T08:08:30Z</time></trkpt><trkpt lat="43.52392156909043" lon="10.796831662954828"><ele>94.75</ele><time>2026-04-18T08:08:31Z</time></trkpt><trkpt lat="43.523955836516265" lon="10.797030886097435"><ele>94.5</ele><time>2026-04-18T08:08:32Z</time></trkpt><trkpt lat="43.5239795049818" lon="10.797229731042997"><ele>94.25</ele><time>2026-04-18T08:08:33Z</time></trkpt><trkpt lat="43.52399248332272" lon="10.797433353748874"><ele>94.0</ele><time>2026-04-18T08:08:34Z</time></trkpt><trkpt lat="43.524002821671885" lon="10.79762363649493"><ele>95.33333333333333</ele><time>2026-04-18T08:08:35Z</time></trkpt><trkpt lat="43.52401582164974" lon="10.797827562166349"><ele>96.66666666666666</ele><time>2026-04-18T08:08:36Z</time></trkpt><trkpt lat="43.52403107031312" lon="10.798038491786025"><ele>98.0</ele><time>2026-04-18T08:08:37Z</time></trkpt><trkpt lat="43.52405276883402" lon="10.798242599295031"><ele>98.0</ele><time>2026-04-18T08:08:38Z</time></trkpt><trkpt lat="43.52407838697851" lon="10.798449099039715"><ele>98.0</ele><time>2026-04-18T08:08:39Z</time></trkpt><trkpt lat="43.52411021204482" lon="10.798627061748682"><ele>98.0</ele><time>2026-04-18T08:08:40Z</time></trkpt><trkpt lat="43.52415100887665" lon="10.798819166711576"><ele>98.0</ele><time>2026-04-18T08:08:41Z</time></trkpt><trkpt lat="43.524183772690016" lon="10.79900862440603"><ele>98.75</ele><time>2026-04-18T08:08:42Z</time></trkpt><trkpt lat="43.52420909756485" lon="10.799212455797349"><ele>99.5</ele><time>2026-04-18T08:08:42.999Z</time></trkpt><trkpt lat="43.5242280128131" lon="10.79940829842229"><ele>100.25</ele><time>2026-04-18T08:08:43.999Z</time></trkpt><trkpt lat="43.52423595310631" lon="10.799591688788459"><ele>101.0</ele><time>2026-04-18T08:08:44.999Z</time></trkpt><trkpt lat="43.52422660284707" lon="10.799784912457108"><ele>100.75</ele><time>2026-04-18T08:08:45.999Z</time></trkpt><trkpt lat="43.52420520771181" lon="10.799953538062136"><ele>100.5</ele><time>2026-04-18T08:08:46.999Z</time></trkpt><trkpt lat="43.5241853260785" lon="10.800113601819266"><ele>100.25</ele><time>2026-04-18T08:08:47.999Z</time></trkpt><trkpt lat="43.52416912650388" lon="10.800269211871665"><ele>100.0</ele><time>2026-04-18T08:08:48.999Z</time></trkpt><trkpt lat="43.524156981861914" lon="10.800430896448825"><ele>100.0</ele><time>2026-04-18T08:08:49.999Z</time></trkpt><trkpt lat="43.52415250369062" lon="10.800595537968457"><ele>100.0</ele><time>2026-04-18T08:08:50.999Z</time></trkpt><trkpt lat="43.52414658709645" lon="10.800751823082146"><ele>100.0</ele><time>2026-04-18T08:08:51.999Z</time></trkpt><trkpt lat="43.524131804692296" lon="10.800917232731992"><ele>100.0</ele><time>2026-04-18T08:08:52.999Z</time></trkpt><trkpt lat="43.52409392228556" lon="10.801082774270093"><ele>98.5</ele><time>2026-04-18T08:08:53.999Z</time></trkpt><trkpt lat="43.52403507007949" lon="10.801287719298088"><ele>97.0</ele><time>2026-04-18T08:08:54.999Z</time></trkpt><trkpt lat="43.52396321734747" lon="10.801466989206872"><ele>95.5</ele><time>2026-04-18T08:08:55.999Z</time></trkpt><trkpt lat="43.52388640416527" lon="10.80162789554411"><ele>94.0</ele><time>2026-04-18T08:08:56.999Z</time></trkpt><trkpt lat="43.52381531370093" lon="10.801785326424842"><ele>94.0</ele><time>2026-04-18T08:08:57.999Z</time></trkpt><trkpt lat="43.52373595311659" lon="10.801923734664157"><ele>94.0</ele><time>2026-04-18T08:08:58.999Z</time></trkpt><trkpt lat="43.52361724643063" lon="10.802017731396218"><ele>94.0</ele><time>2026-04-18T08:08:59.999Z</time></trkpt><trkpt lat="43.523468685990295" lon="10.802112987949185"><ele>94.0</ele><time>2026-04-18T08:09:00.999Z</time></trkpt><trkpt lat="43.523331307661145" lon="10.802215009461866"><ele>96.25</ele><time>2026-04-18T08:09:01.999Z</time></trkpt><trkpt lat="43.523217496210165" lon="10.802297526461706"><ele>98.5</ele><time>2026-04-18T08:09:02.999Z</time></trkpt><trkpt lat="43.523123224419265" lon="10.802393121646245"><ele>100.75</ele><time>2026-04-18T08:09:03.999Z</time></trkpt><trkpt lat="43.52305895922971" lon="10.802499366101937"><ele>103.0</ele><time>2026-04-18T08:09:04.999Z</time></trkpt><trkpt lat="43.52300157743555" lon="10.802642447688783"><ele>104.0</ele><time>2026-04-18T08:09:05.999Z</time></trkpt><trkpt lat="43.522960435628235" lon="10.80282411439363"><ele>105.0</ele><time>2026-04-18T08:09:06.999Z</time></trkpt><trkpt lat="43.522944326793095" lon="10.803002002616452"><ele>106.0</ele><time>2026-04-18T08:09:07.999Z</time></trkpt><trkpt lat="43.52293603408549" lon="10.803134739113608"><ele>107.0</ele><time>2026-04-18T08:09:08.999Z</time></trkpt><trkpt lat="43.52292284649681" lon="10.803264952765316"><ele>107.0</ele><time>2026-04-18T08:09:09.999Z</time></trkpt><trkpt lat="43.52291353739565" lon="10.803407094776396"><ele>106.99999999999999</ele><time>2026-04-18T08:09:10.999Z</time></trkpt><trkpt lat="43.52292171762189" lon="10.803545972919048"><ele>106.99999999999999</ele><time>2026-04-18T08:09:11.999Z</time></trkpt><trkpt lat="43.5229490913383" lon="10.803682975397429"><ele>107.0</ele><time>2026-04-18T08:09:12.999Z</time></trkpt><trkpt lat="43.52298783583387" lon="10.803817840784182"><ele>107.0</ele><time>2026-04-18T08:09:13.999Z</time></trkpt><trkpt lat="43.52305314523347" lon="10.803958829489327"><ele>106.75</ele><time>2026-04-18T08:09:14.999Z</time></trkpt><trkpt lat="43.52314050317098" lon="10.804113003270329"><ele>106.5</ele><time>2026-04-18T08:09:15.999Z</time></trkpt><trkpt lat="43.52321022040566" lon="10.804291652408857"><ele>106.25</ele><time>2026-04-18T08:09:16.999Z</time></trkpt><trkpt lat="43.52328715640541" lon="10.804448041150774"><ele>106.0</ele><time>2026-04-18T08:09:17.999Z</time></trkpt><trkpt lat="43.523349232614976" lon="10.804608704421224"><ele>104.5</ele><time>2026-04-18T08:09:18.999Z</time></trkpt><trkpt lat="43.52341926371434" lon="10.804785304606613"><ele>103.0</ele><time>2026-04-18T08:09:19.999Z</time></trkpt><trkpt lat="43.52349613494253" lon="10.8049482683173"><ele>101.5</ele><time>2026-04-18T08:09:20.999Z</time></trkpt><trkpt lat="43.523561637290015" lon="10.805110568368491"><ele>100.0</ele><time>2026-04-18T08:09:21.999Z</time></trkpt><trkpt lat="43.52361861747034" lon="10.805288456358172"><ele>99.75</ele><time>2026-04-18T08:09:22.999Z</time></trkpt><trkpt lat="43.523661603865065" lon="10.805497699980195"><ele>99.5</ele><time>2026-04-18T08:09:23.999Z</time></trkpt><trkpt lat="43.52368759187123" lon="10.805697319981753"><ele>99.25</ele><time>2026-04-18T08:09:24.999Z</time></trkpt><trkpt lat="43.523727757792386" lon="10.805884342226328"><ele>99.0</ele><time>2026-04-18T08:09:25.999Z</time></trkpt><trkpt lat="43.52377474925689" lon="10.806058302846774"><ele>98.25</ele><time>2026-04-18T08:09:26.999Z</time></trkpt><trkpt lat="43.5238028023989" lon="10.806224930378752"><ele>97.5</ele><time>2026-04-18T08:09:27.999Z</time></trkpt><trkpt lat="43.523810557534254" lon="10.806378405147061"><ele>96.75</ele><time>2026-04-18T08:09:28.999Z</time></trkpt><trkpt lat="43.52378910500169" lon="10.806527594685205"><ele>96.0</ele><time>2026-04-18T08:09:29.999Z</time></trkpt><trkpt lat="43.52375525377504" lon="10.806685816115396"><ele>96.0</ele><time>2026-04-18T08:09:30.999Z</time></trkpt><trkpt lat="43.52372107632468" lon="10.806841079760868"><ele>96.0</ele><time>2026-04-18T08:09:31.999Z</time></trkpt><trkpt lat="43.52369825017792" lon="10.80701594762712"><ele>96.0</ele><time>2026-04-18T08:09:32.999Z</time></trkpt><trkpt lat="43.523703229393604" lon="10.807178098033422"><ele>96.0</ele><time>2026-04-18T08:09:33.999Z</time></trkpt><trkpt lat="43.52373379032256" lon="10.807365268165663"><ele>96.0</ele><time>2026-04-18T08:09:34.999Z</time></trkpt><trkpt lat="43.52378123060262" lon="10.80754329467013"><ele>96.0</ele><time>2026-04-18T08:09:35.999Z</time></trkpt><trkpt lat="43.5238367489633" lon="10.80772102663043"><ele>96.0</ele><time>2026-04-18T08:09:36.999Z</time></trkpt><trkpt lat="43.52389646293853" lon="10.8078802958208"><ele>96.0</ele><time>2026-04-18T08:09:37.999Z</time></trkpt><trkpt lat="43.523959466011284" lon="10.808031243782743"><ele>96.0</ele><time>2026-04-18T08:09:38.999Z</time></trkpt><trkpt lat="43.5240110804883" lon="10.808157175686468"><ele>96.0</ele><time>2026-04-18T08:09:39.999Z</time></trkpt><trkpt lat="43.52404865077821" lon="10.808291284814489"><ele>96.0</ele><time>2026-04-18T08:09:40.999Z</time></trkpt><trkpt lat="43.52407728312007" lon="10.808450845259646"><ele>96.0</ele><time>2026-04-18T08:09:41.999Z</time></trkpt><trkpt lat="43.52407548772418" lon="10.808620334946388"><ele>97.0</ele><time>2026-04-18T08:09:42.999Z</time></trkpt><trkpt lat="43.524052226794396" lon="10.808793704946979"><ele>98.0</ele><time>2026-04-18T08:09:43.999Z</time></trkpt><trkpt lat="43.524028995779915" lon="10.80895458472067"><ele>99.0</ele><time>2026-04-18T08:09:44.999Z</time></trkpt><trkpt lat="43.524016850464804" lon="10.809136428773368"><ele>100.0</ele><time>2026-04-18T08:09:45.999Z</time></trkpt><trkpt lat="43.52402051896739" lon="10.809287034298102"><ele>100.75</ele><time>2026-04-18T08:09:46.999Z</time></trkpt><trkpt lat="43.52403819043742" lon="10.809453450910418"><ele>101.5</ele><time>2026-04-18T08:09:47.999Z</time></trkpt><trkpt lat="43.52406281727841" lon="10.80962606565469"><ele>102.25</ele><time>2026-04-18T08:09:48.999Z</time></trkpt><trkpt lat="43.52408325207699" lon="10.80980319974286"><ele>103.0</ele><time>2026-04-18T08:09:49.999Z</time></trkpt><trkpt lat="43.52410795086074" lon="10.809991996381461"><ele>103.25</ele><time>2026-04-18T08:09:50.999Z</time></trkpt><trkpt lat="43.524108537312685" lon="10.810171079157467"><ele>103.5</ele><time>2026-04-18T08:09:51.999Z</time></trkpt><trkpt lat="43.52409002021923" lon="10.810356321330602"><ele>103.75</ele><time>2026-04-18T08:09:52.999Z</time></trkpt><trkpt lat="43.52405080761295" lon="10.810544847930188"><ele>104.0</ele><time>2026-04-18T08:09:53.999Z</time></trkpt><trkpt lat="43.52400537861046" lon="10.810718724164069"><ele>104.0</ele><time>2026-04-18T08:09:54.999Z</time></trkpt><trkpt lat="43.52397276851387" lon="10.810881007216095"><ele>104.0</ele><time>2026-04-18T08:09:55.999Z</time></trkpt><trkpt lat="43.52395661121878" lon="10.811061713398836"><ele>104.0</ele><time>2026-04-18T08:09:56.999Z</time></trkpt><trkpt lat="43.52392963435366" lon="10.81122088649444"><ele>104.0</ele><time>2026-04-18T08:09:57.999Z</time></trkpt><trkpt lat="43.52388034279385" lon="10.81138989332974"><ele>103.5</ele><time>2026-04-18T08:09:58.999Z</time></trkpt><trkpt lat="43.5238148489806" lon="10.811567629302049"><ele>103.0</ele><time>2026-04-18T08:09:59.998Z</time></trkpt><trkpt lat="43.52372716038647" lon="10.811710505414366"><ele>102.5</ele><time>2026-04-18T08:10:00.998Z</time></trkpt><trkpt lat="43.52363288720713" lon="10.811806089255507"><ele>102.0</ele><time>2026-04-18T08:10:02Z</time></trkpt><trkpt lat="43.52353236715025" lon="10.81192032098188"><ele>105.5</ele><time>2026-04-18T08:10:03Z</time></trkpt><trkpt lat="43.5234461974369" lon="10.81199787475329"><ele>109.0</ele><time>2026-04-18T08:10:04Z</time></trkpt><trkpt lat="43.523348142531994" lon="10.812056553484238"><ele>112.5</ele><time>2026-04-18T08:10:05Z</time></trkpt><trkpt lat="43.52322707785432" lon="10.812093511611225"><ele>116.0</ele><time>2026-04-18T08:10:06Z</time></trkpt><trkpt lat="43.52311132094544" lon="10.81216880040209"><ele>116.0</ele><time>2026-04-18T08:10:07Z</time></trkpt><trkpt lat="43.52301954731458" lon="10.812268310958734"><ele>116.0</ele><time>2026-04-18T08:10:08Z</time></trkpt><trkpt lat="43.522940468754335" lon="10.8124038465999"><ele>116.0</ele><time>2026-04-18T08:10:09Z</time></trkpt><trkpt lat="43.52289521914523" lon="10.812555691462395"><ele>116.0</ele><time>2026-04-18T08:10:10Z</time></trkpt><trkpt lat="43.522852883730536" lon="10.812722374359183"><ele>117.19999999999999</ele><time>2026-04-18T08:10:11Z</time></trkpt><trkpt lat="43.52279170324157" lon="10.812892563453023"><ele>118.39999999999999</ele><time>2026-04-18T08:10:12Z</time></trkpt><trkpt lat="43.52273839877994" lon="10.813024283924479"><ele>119.6</ele><time>2026-04-18T08:10:13Z</time></trkpt><trkpt lat="43.522686096380994" lon="10.813078152530199"><ele>120.8</ele><time>2026-04-18T08:10:14Z</time></trkpt><trkpt lat="43.522607104069145" lon="10.81316919679863"><ele>122.0</ele><time>2026-04-18T08:10:15Z</time></trkpt><trkpt lat="43.52250014359817" lon="10.813269926209399"><ele>122.0</ele><time>2026-04-18T08:10:16Z</time></trkpt><trkpt lat="43.52238387374551" lon="10.813373236879105"><ele>122.0</ele><time>2026-04-18T08:10:17Z</time></trkpt><trkpt lat="43.52228333614734" lon="10.813459043619128"><ele>122.0</ele><time>2026-04-18T08:10:18Z</time></trkpt><trkpt lat="43.5221961133709" lon="10.81355739664694"><ele>122.0</ele><time>2026-04-18T08:10:19Z</time></trkpt><trkpt lat="43.52210519248258" lon="10.813643427163536"><ele>124.0</ele><time>2026-04-18T08:10:20Z</time></trkpt><trkpt lat="43.52199682604456" lon="10.813782602318996"><ele>126.0</ele><time>2026-04-18T08:10:21Z</time></trkpt><trkpt lat="43.52196979794896" lon="10.814037821408807"><ele>128.0</ele><time>2026-04-18T08:10:22Z</time></trkpt><trkpt lat="43.521926346669446" lon="10.81423867050833"><ele>128.0</ele><time>2026-04-18T08:10:23Z</time></trkpt><trkpt lat="43.52188132732982" lon="10.814410483696554"><ele>128.0</ele><time>2026-04-18T08:10:24Z</time></trkpt><trkpt lat="43.52182696597942" lon="10.814557041837965"><ele>128.0</ele><time>2026-04-18T08:10:25Z</time></trkpt><trkpt lat="43.52177233934471" lon="10.81467911448815"><ele>128.0</ele><time>2026-04-18T08:10:26Z</time></trkpt><trkpt lat="43.52172646718111" lon="10.814793442676887"><ele>128.0</ele><time>2026-04-18T08:10:27Z</time></trkpt><trkpt lat="43.52168912974811" lon="10.814940426808343"><ele>128.0</ele><time>2026-04-18T08:10:28Z</time></trkpt><trkpt lat="43.521694678236685" lon="10.815150237208654"><ele>128.0</ele><time>2026-04-18T08:10:29Z</time></trkpt><trkpt lat="43.52169123648847" lon="10.815312908936473"><ele>128.0</ele><time>2026-04-18T08:10:30Z</time></trkpt><trkpt lat="43.52167634311151" lon="10.815471266281632"><ele>127.75</ele><time>2026-04-18T08:10:31Z</time></trkpt><trkpt lat="43.521666676251634" lon="10.815649334538858"><ele>127.5</ele><time>2026-04-18T08:10:32Z</time></trkpt><trkpt lat="43.52169152581458" lon="10.81579280721313"><ele>127.25</ele><time>2026-04-18T08:10:33Z</time></trkpt><trkpt lat="43.5217375990493" lon="10.815931928903687"><ele>127.0</ele><time>2026-04-18T08:10:34Z</time></trkpt><trkpt lat="43.52181624373595" lon="10.816106136844294"><ele>125.25</ele><time>2026-04-18T08:10:35Z</time></trkpt><trkpt lat="43.521904497841156" lon="10.816256035118865"><ele>123.5</ele><time>2026-04-18T08:10:36Z</time></trkpt><trkpt lat="43.52195439297967" lon="10.816345882600947"><ele>121.75</ele><time>2026-04-18T08:10:37Z</time></trkpt><trkpt lat="43.522014130232805" lon="10.81646702771102"><ele>120.0</ele><time>2026-04-18T08:10:38Z</time></trkpt><trkpt lat="43.52206434555964" lon="10.81662280419867"><ele>120.5</ele><time>2026-04-18T08:10:39Z</time></trkpt><trkpt lat="43.522087255726426" lon="10.816777963812694"><ele>121.0</ele><time>2026-04-18T08:10:40Z</time></trkpt><trkpt lat="43.5220849965462" lon="10.81691895499468"><ele>121.5</ele><time>2026-04-18T08:10:41Z</time></trkpt><trkpt lat="43.52206151837563" lon="10.817100455640954"><ele>122.0</ele><time>2026-04-18T08:10:42Z</time></trkpt><trkpt lat="43.52200446919628" lon="10.817295772236589"><ele>122.25</ele><time>2026-04-18T08:10:43Z</time></trkpt><trkpt lat="43.52194275571047" lon="10.817483089266041"><ele>122.5</ele><time>2026-04-18T08:10:44Z</time></trkpt><trkpt lat="43.5218908637016" lon="10.81764213642788"><ele>122.75</ele><time>2026-04-18T08:10:45Z</time></trkpt><trkpt lat="43.52183683335608" lon="10.817782530899857"><ele>123.0</ele><time>2026-04-18T08:10:46Z</time></trkpt><trkpt lat="43.521767661675085" lon="10.817902655401296"><ele>124.60000000000001</ele><time>2026-04-18T08:10:47Z</time></trkpt><trkpt lat="43.52166692896647" lon="10.818035432858931"><ele>126.20000000000002</ele><time>2026-04-18T08:10:48Z</time></trkpt><trkpt lat="43.52157034462904" lon="10.818144402946125"><ele>127.8</ele><time>2026-04-18T08:10:49Z</time></trkpt><trkpt lat="43.52149327970543" lon="10.81820377296117"><ele>129.4</ele><time>2026-04-18T08:10:50Z</time></trkpt><trkpt lat="43.52144570526981" lon="10.818273498103931"><ele>131.0</ele><time>2026-04-18T08:10:51Z</time></trkpt><trkpt lat="43.52139903356867" lon="10.818343445250463"><ele>131.0</ele><time>2026-04-18T08:10:52Z</time></trkpt><trkpt lat="43.521345509340044" lon="10.81844578745364"><ele>131.0</ele><time>2026-04-18T08:10:52.999Z</time></trkpt><trkpt lat="43.521332103992926" lon="10.818541158244118"><ele>131.0</ele><time>2026-04-18T08:10:53.999Z</time></trkpt><trkpt lat="43.52130165897563" lon="10.818622515469041"><ele>131.0</ele><time>2026-04-18T08:10:54.999Z</time></trkpt><trkpt lat="43.52127849847722" lon="10.818741419722564"><ele>131.0</ele><time>2026-04-18T08:10:55.999Z</time></trkpt><trkpt lat="43.521268238272064" lon="10.818881452726"><ele>131.0</ele><time>2026-04-18T08:10:56.999Z</time></trkpt><trkpt lat="43.52128031009399" lon="10.819045780299538"><ele>130.16666666666666</ele><time>2026-04-18T08:10:57.999Z</time></trkpt><trkpt lat="43.52131004000271" lon="10.819156345044965"><ele>129.33333333333331</ele><time>2026-04-18T08:10:58.999Z</time></trkpt><trkpt lat="43.52136409670376" lon="10.819274967130836"><ele>128.5</ele><time>2026-04-18T08:10:59.999Z</time></trkpt><trkpt lat="43.52139687340374" lon="10.8193641146078"><ele>127.66666666666666</ele><time>2026-04-18T08:11:00.999Z</time></trkpt><trkpt lat="43.52142048314383" lon="10.819471451448543"><ele>126.83333333333333</ele><time>2026-04-18T08:11:01.999Z</time></trkpt><trkpt lat="43.521436343205764" lon="10.819580661244885"><ele>126.0</ele><time>2026-04-18T08:11:02.999Z</time></trkpt><trkpt lat="43.52144094517178" lon="10.819686408143893"><ele>123.8</ele><time>2026-04-18T08:11:03.999Z</time></trkpt><trkpt lat="43.52142621981549" lon="10.819790396269275"><ele>121.6</ele><time>2026-04-18T08:11:04.999Z</time></trkpt><trkpt lat="43.521399957390386" lon="10.819877520563676"><ele>119.4</ele><time>2026-04-18T08:11:05.999Z</time></trkpt><trkpt lat="43.52135625333441" lon="10.820008705224964"><ele>117.2</ele><time>2026-04-18T08:11:07.999Z</time></trkpt><trkpt lat="43.52146100082721" lon="10.819823705292158"><ele>115.0</ele><time>2026-04-18T08:11:34.999Z</time></trkpt><trkpt lat="43.5214796652096" lon="10.819710407872233"><ele>115.0</ele><time>2026-04-18T08:11:35.999Z</time></trkpt><trkpt lat="43.52148705721365" lon="10.819561975362197"><ele>115.0</ele><time>2026-04-18T08:11:36.999Z</time></trkpt><trkpt lat="43.52147340215474" lon="10.819431810243142"><ele>115.0</ele><time>2026-04-18T08:11:37.999Z</time></trkpt><trkpt lat="43.52144130768778" lon="10.819321068303683"><ele>115.0</ele><time>2026-04-18T08:11:38.999Z</time></trkpt><trkpt lat="43.521397720154724" lon="10.819231935838182"><ele>115.0</ele><time>2026-04-18T08:11:39.999Z</time></trkpt><trkpt lat="43.521355634377656" lon="10.819133556566577"><ele>117.2</ele><time>2026-04-18T08:11:40.999Z</time></trkpt><trkpt lat="43.52132326983385" lon="10.819047809716226"><ele>119.4</ele><time>2026-04-18T08:11:41.999Z</time></trkpt><trkpt lat="43.52129626273951" lon="10.818887949703623"><ele>121.6</ele><time>2026-04-18T08:11:43.999Z</time></trkpt><trkpt lat="43.52129517914114" lon="10.818736116051"><ele>123.8</ele><time>2026-04-18T08:11:45.999Z</time></trkpt><trkpt lat="43.521199355579014" lon="10.818805627417897"><ele>126.0</ele><time>2026-04-18T08:11:50.999Z</time></trkpt><trkpt lat="43.52115823066336" lon="10.81888339803103"><ele>127.16666666666667</ele><time>2026-04-18T08:11:51.999Z</time></trkpt><trkpt lat="43.521111913172966" lon="10.81897206930266"><ele>128.33333333333334</ele><time>2026-04-18T08:11:52.999Z</time></trkpt><trkpt lat="43.521042388375044" lon="10.81902756867395"><ele>129.5</ele><time>2026-04-18T08:11:54.999Z</time></trkpt><trkpt lat="43.52098956349345" lon="10.819088057196662"><ele>130.66666666666669</ele><time>2026-04-18T08:12:08Z</time></trkpt><trkpt lat="43.52092200807577" lon="10.819133389646991"><ele>131.83333333333334</ele><time>2026-04-18T08:12:10Z</time></trkpt><trkpt lat="43.520832792566054" lon="10.819191479526992"><ele>133.0</ele><time>2026-04-18T08:12:12Z</time></trkpt><trkpt lat="43.52077306879871" lon="10.819249620185435"><ele>131.4</ele><time>2026-04-18T08:12:13Z</time></trkpt><trkpt lat="43.52071005889751" lon="10.81933695758907"><ele>129.8</ele><time>2026-04-18T08:12:14Z</time></trkpt><trkpt lat="43.520654613869404" lon="10.819430977939177"><ele>128.2</ele><time>2026-04-18T08:12:15Z</time></trkpt><trkpt lat="43.52061809154585" lon="10.81950802315002"><ele>126.6</ele><time>2026-04-18T08:12:16Z</time></trkpt><trkpt lat="43.52049042179237" lon="10.819606693110568"><ele>125.0</ele><time>2026-04-18T08:12:18Z</time></trkpt><trkpt lat="43.52042050960464" lon="10.819714609142666"><ele>127.0</ele><time>2026-04-18T08:12:19Z</time></trkpt><trkpt lat="43.52034270571522" lon="10.819849258183035"><ele>129.0</ele><time>2026-04-18T08:12:20Z</time></trkpt><trkpt lat="43.52026727295234" lon="10.819976631817559"><ele>131.0</ele><time>2026-04-18T08:12:21Z</time></trkpt><trkpt lat="43.520202416223476" lon="10.820112007138592"><ele>133.0</ele><time>2026-04-18T08:12:22Z</time></trkpt><trkpt lat="43.52014909090575" lon="10.820226372714428"><ele>133.16666666666669</ele><time>2026-04-18T08:12:23Z</time></trkpt><trkpt lat="43.520102033817075" lon="10.820332101547015"><ele>133.33333333333334</ele><time>2026-04-18T08:12:24Z</time></trkpt><trkpt lat="43.520047739797334" lon="10.820401319907068"><ele>133.5</ele><time>2026-04-18T08:12:25Z</time></trkpt><trkpt lat="43.51998816854771" lon="10.820465861467252"><ele>133.66666666666666</ele><time>2026-04-18T08:12:26Z</time></trkpt><trkpt lat="43.51992236660923" lon="10.82052938569727"><ele>133.83333333333331</ele><time>2026-04-18T08:12:27Z</time></trkpt><trkpt lat="43.519861041191334" lon="10.820585339685712"><ele>134.0</ele><time>2026-04-18T08:12:28Z</time></trkpt><trkpt lat="43.51980142257887" lon="10.82061926563561"><ele>134.0</ele><time>2026-04-18T08:12:29Z</time></trkpt><trkpt lat="43.519730786451554" lon="10.820643920110824"><ele>134.0</ele><time>2026-04-18T08:12:30Z</time></trkpt><trkpt lat="43.51965977209238" lon="10.82065826495931"><ele>134.0</ele><time>2026-04-18T08:12:31Z</time></trkpt><trkpt lat="43.51957170672168" lon="10.820667121425386"><ele>134.0</ele><time>2026-04-18T08:12:32Z</time></trkpt><trkpt lat="43.51947614110625" lon="10.820697260479632"><ele>134.0</ele><time>2026-04-18T08:12:33Z</time></trkpt><trkpt lat="43.51939523216357" lon="10.820720034651623"><ele>134.0</ele><time>2026-04-18T08:12:34Z</time></trkpt><trkpt lat="43.519321029380244" lon="10.820734419844825"><ele>135.16666666666666</ele><time>2026-04-18T08:12:35Z</time></trkpt><trkpt lat="43.51926101411078" lon="10.820761451046385"><ele>136.33333333333331</ele><time>2026-04-18T08:12:36Z</time></trkpt><trkpt lat="43.51927889809778" lon="10.820926994705008"><ele>137.5</ele><time>2026-04-18T08:12:38Z</time></trkpt><trkpt lat="43.51927819743994" lon="10.821030181449595"><ele>138.66666666666666</ele><time>2026-04-18T08:12:39Z</time></trkpt><trkpt lat="43.51926155040264" lon="10.821136576553247"><ele>139.83333333333334</ele><time>2026-04-18T08:12:40Z</time></trkpt><trkpt lat="43.519238212103936" lon="10.821240322319492"><ele>141.0</ele><time>2026-04-18T08:12:41Z</time></trkpt><trkpt lat="43.51920503489403" lon="10.82133291311504"><ele>141.4</ele><time>2026-04-18T08:12:42Z</time></trkpt><trkpt lat="43.51914699464404" lon="10.82140994903259"><ele>141.8</ele><time>2026-04-18T08:12:43Z</time></trkpt><trkpt lat="43.51909464511916" lon="10.821525825283684"><ele>142.20000000000002</ele><time>2026-04-18T08:12:44Z</time></trkpt><trkpt lat="43.51901721118501" lon="10.821644941205195"><ele>142.6</ele><time>2026-04-18T08:12:45Z</time></trkpt><trkpt lat="43.51893340294982" lon="10.82174393088285"><ele>143.0</ele><time>2026-04-18T08:12:46Z</time></trkpt><trkpt lat="43.518898263808175" lon="10.821880698784101"><ele>143.0</ele><time>2026-04-18T08:12:47Z</time></trkpt><trkpt lat="43.51884516364675" lon="10.822030227378617"><ele>143.0</ele><time>2026-04-18T08:12:48Z</time></trkpt><trkpt lat="43.518811220317346" lon="10.82212628566831"><ele>143.0</ele><time>2026-04-18T08:12:49Z</time></trkpt><trkpt lat="43.51878723441961" lon="10.822260507323842"><ele>143.0</ele><time>2026-04-18T08:12:51Z</time></trkpt><trkpt lat="43.51874950633546" lon="10.822402555013715"><ele>143.0</ele><time>2026-04-18T08:12:53Z</time></trkpt><trkpt lat="43.51868861045072" lon="10.822507618513008"><ele>144.83333333333331</ele><time>2026-04-18T08:12:55Z</time></trkpt><trkpt lat="43.51867821316563" lon="10.822596247462144"><ele>146.66666666666666</ele><time>2026-04-18T08:12:57Z</time></trkpt><trkpt lat="43.518647439235714" lon="10.822698826705391"><ele>148.5</ele><time>2026-04-18T08:13:04.999Z</time></trkpt><trkpt lat="43.51859312685358" lon="10.822788821397486"><ele>150.33333333333334</ele><time>2026-04-18T08:13:06.999Z</time></trkpt><trkpt lat="43.51854976687783" lon="10.822869392485549"><ele>152.16666666666669</ele><time>2026-04-18T08:13:09.999Z</time></trkpt><trkpt lat="43.51849503691539" lon="10.822937898207348"><ele>154.0</ele><time>2026-04-18T08:13:26.999Z</time></trkpt><trkpt lat="43.518455872738215" lon="10.823032455956797"><ele>155.4</ele><time>2026-04-18T08:13:28.999Z</time></trkpt><trkpt lat="43.51840526467137" lon="10.823146790016521"><ele>156.8</ele><time>2026-04-18T08:13:30.999Z</time></trkpt><trkpt lat="43.518346653795454" lon="10.823246032489065"><ele>158.20000000000002</ele><time>2026-04-18T08:13:32.999Z</time></trkpt><trkpt lat="43.51829243202812" lon="10.82339015343684"><ele>159.60000000000002</ele><time>2026-04-18T08:13:34.999Z</time></trkpt><trkpt lat="43.51825554949386" lon="10.823480284632856"><ele>161.0</ele><time>2026-04-18T08:13:35.999Z</time></trkpt><trkpt lat="43.51821552795191" lon="10.823578349783373"><ele>161.60000000000002</ele><time>2026-04-18T08:13:36.999Z</time></trkpt><trkpt lat="43.51818199764561" lon="10.823687391734525"><ele>162.2</ele><time>2026-04-18T08:13:37.999Z</time></trkpt><trkpt lat="43.51814050930636" lon="10.823783976450398"><ele>162.8</ele><time>2026-04-18T08:13:38.999Z</time></trkpt><trkpt lat="43.51805967662989" lon="10.823905575262012"><ele>163.39999999999998</ele><time>2026-04-18T08:13:39.999Z</time></trkpt><trkpt lat="43.518001618559715" lon="10.824042765277158"><ele>164.0</ele><time>2026-04-18T08:13:40.999Z</time></trkpt><trkpt lat="43.517949666374314" lon="10.824121409318543"><ele>163.75</ele><time>2026-04-18T08:13:41.999Z</time></trkpt><trkpt lat="43.51788131728316" lon="10.824238630071019"><ele>163.5</ele><time>2026-04-18T08:13:43.999Z</time></trkpt><trkpt lat="43.51781311690216" lon="10.824384221889504"><ele>163.25</ele><time>2026-04-18T08:13:45.999Z</time></trkpt><trkpt lat="43.517809597104446" lon="10.824565247152679"><ele>163.0</ele><time>2026-04-18T08:13:47.999Z</time></trkpt><trkpt lat="43.51784000057206" lon="10.824683278298911"><ele>163.0</ele><time>2026-04-18T08:13:48.999Z</time></trkpt><trkpt lat="43.51788811539446" lon="10.82476798513193"><ele>163.0</ele><time>2026-04-18T08:13:49.999Z</time></trkpt><trkpt lat="43.51790468984669" lon="10.824888309681535"><ele>163.0</ele><time>2026-04-18T08:13:50.999Z</time></trkpt><trkpt lat="43.51789934061682" lon="10.82500350847291"><ele>163.0</ele><time>2026-04-18T08:13:52.999Z</time></trkpt><trkpt lat="43.517828491878305" lon="10.825203744928489"><ele>163.0</ele><time>2026-04-18T08:13:54.999Z</time></trkpt><trkpt lat="43.51781016348506" lon="10.825341280539293"><ele>163.14285714285714</ele><time>2026-04-18T08:13:55.999Z</time></trkpt><trkpt lat="43.51779917802226" lon="10.82543442783762"><ele>163.28571428571428</ele><time>2026-04-18T08:13:56.999Z</time></trkpt><trkpt lat="43.517763539436096" lon="10.825523823171558"><ele>163.42857142857142</ele><time>2026-04-18T08:13:57.999Z</time></trkpt><trkpt lat="43.51772199647606" lon="10.825594480722692"><ele>163.57142857142856</ele><time>2026-04-18T08:13:58.999Z</time></trkpt><trkpt lat="43.51768447548876" lon="10.825667400949206"><ele>163.71428571428572</ele><time>2026-04-18T08:13:59.999Z</time></trkpt><trkpt lat="43.51763463328519" lon="10.82573051843149"><ele>163.85714285714283</ele><time>2026-04-18T08:14:00.999Z</time></trkpt><trkpt lat="43.5175761636632" lon="10.825833792765463"><ele>164.0</ele><time>2026-04-18T08:14:02.999Z</time></trkpt><trkpt lat="43.517522037972135" lon="10.825915359271125"><ele>164.33333333333331</ele><time>2026-04-18T08:14:04.999Z</time></trkpt><trkpt lat="43.51746544452829" lon="10.825996396935558"><ele>164.66666666666666</ele><time>2026-04-18T08:14:05.999Z</time></trkpt><trkpt lat="43.517400475794446" lon="10.826085245296998"><ele>165.0</ele><time>2026-04-18T08:14:08.999Z</time></trkpt><trkpt lat="43.51739750566393" lon="10.826174445781279"><ele>165.33333333333334</ele><time>2026-04-18T08:14:18Z</time></trkpt><trkpt lat="43.51732685194439" lon="10.826240923407273"><ele>165.66666666666669</ele><time>2026-04-18T08:14:29Z</time></trkpt><trkpt lat="43.51727285079299" lon="10.826298213116338"><ele>166.0</ele><time>2026-04-18T08:14:31Z</time></trkpt><trkpt lat="43.51728687759016" lon="10.826384295161354"><ele>166.0</ele><time>2026-04-18T08:14:37Z</time></trkpt><trkpt lat="43.51734377365674" lon="10.826439866011285"><ele>166.0</ele><time>2026-04-18T08:14:43Z</time></trkpt><trkpt lat="43.51735434142844" lon="10.826525534124467"><ele>166.0</ele><time>2026-04-18T08:14:46Z</time></trkpt><trkpt lat="43.51736448737562" lon="10.826619453379893"><ele>166.0</ele><time>2026-04-18T08:14:50Z</time></trkpt><trkpt lat="43.517387791148735" lon="10.82670211558392"><ele>166.0</ele><time>2026-04-18T08:14:53Z</time></trkpt><trkpt lat="43.51729648959323" lon="10.826833440030063"><ele>166.0</ele><time>2026-04-18T08:14:54.999Z</time></trkpt><trkpt lat="43.517206909315824" lon="10.826900676726991"><ele>166.33333333333334</ele><time>2026-04-18T08:14:55.999Z</time></trkpt><trkpt lat="43.51713845494297" lon="10.826965542199574"><ele>166.66666666666669</ele><time>2026-04-18T08:14:56.999Z</time></trkpt><trkpt lat="43.517049652044626" lon="10.827019630627545"><ele>167.0</ele><time>2026-04-18T08:14:57.999Z</time></trkpt><trkpt lat="43.516977682723095" lon="10.82707693922259"><ele>167.33333333333334</ele><time>2026-04-18T08:14:58.999Z</time></trkpt><trkpt lat="43.51690186797437" lon="10.827111393307607"><ele>167.66666666666666</ele><time>2026-04-18T08:14:59.999Z</time></trkpt><trkpt lat="43.51683274403437" lon="10.82716647261069"><ele>168.0</ele><time>2026-04-18T08:15:00.999Z</time></trkpt><trkpt lat="43.516768836189044" lon="10.82723608464773"><ele>168.0</ele><time>2026-04-18T08:15:01.999Z</time></trkpt><trkpt lat="43.51671335366338" lon="10.827287026470039"><ele>168.0</ele><time>2026-04-18T08:15:02.999Z</time></trkpt><trkpt lat="43.516614360693865" lon="10.827406618430667"><ele>168.0</ele><time>2026-04-18T08:15:04.999Z</time></trkpt><trkpt lat="43.51655751231941" lon="10.827473498615447"><ele>168.0</ele><time>2026-04-18T08:15:05.999Z</time></trkpt><trkpt lat="43.51646687300584" lon="10.827567382679632"><ele>168.0</ele><time>2026-04-18T08:15:07.999Z</time></trkpt><trkpt lat="43.51637029839926" lon="10.82763761615331"><ele>166.8</ele><time>2026-04-18T08:15:09.999Z</time></trkpt><trkpt lat="43.51627010903605" lon="10.82768866332291"><ele>165.60000000000002</ele><time>2026-04-18T08:15:11.999Z</time></trkpt><trkpt lat="43.51616679914521" lon="10.827777227539782"><ele>164.39999999999998</ele><time>2026-04-18T08:15:13.999Z</time></trkpt><trkpt lat="43.51610183171614" lon="10.827812813546943"><ele>163.2</ele><time>2026-04-18T08:15:14.999Z</time></trkpt><trkpt lat="43.5160333074614" lon="10.827956734113771"><ele>162.0</ele><time>2026-04-18T08:15:16.999Z</time></trkpt><trkpt lat="43.5159489859151" lon="10.828071790917893"><ele>164.39999999999998</ele><time>2026-04-18T08:15:18.999Z</time></trkpt><trkpt lat="43.51588808738438" lon="10.828180197128733"><ele>166.79999999999998</ele><time>2026-04-18T08:15:19.999Z</time></trkpt><trkpt lat="43.51578270154515" lon="10.828312403477828"><ele>169.2</ele><time>2026-04-18T08:15:21.999Z</time></trkpt><trkpt lat="43.51571422953287" lon="10.828392072416854"><ele>171.6</ele><time>2026-04-18T08:15:22.999Z</time></trkpt><trkpt lat="43.51562532100866" lon="10.828459974037688"><ele>174.0</ele><time>2026-04-18T08:15:23.999Z</time></trkpt><trkpt lat="43.51554107800826" lon="10.828527854636716"><ele>174.0</ele><time>2026-04-18T08:15:24.999Z</time></trkpt><trkpt lat="43.515485332940024" lon="10.828595860125855"><ele>174.0</ele><time>2026-04-18T08:15:25.999Z</time></trkpt><trkpt lat="43.51542796042063" lon="10.828664864452096"><ele>174.0</ele><time>2026-04-18T08:15:26.999Z</time></trkpt><trkpt lat="43.515321637352315" lon="10.82877205026638"><ele>174.0</ele><time>2026-04-18T08:15:28.999Z</time></trkpt><trkpt lat="43.51523140991903" lon="10.828870928910733"><ele>174.0</ele><time>2026-04-18T08:15:30.999Z</time></trkpt><trkpt lat="43.51517186951958" lon="10.828936864851022"><ele>176.39999999999998</ele><time>2026-04-18T08:15:32.999Z</time></trkpt><trkpt lat="43.51506969441141" lon="10.829019574850221"><ele>178.8</ele><time>2026-04-18T08:15:34.999Z</time></trkpt><trkpt lat="43.5149790839147" lon="10.829091644642542"><ele>181.2</ele><time>2026-04-18T08:15:36.999Z</time></trkpt><trkpt lat="43.51492026861791" lon="10.829123399436513"><ele>183.60000000000002</ele><time>2026-04-18T08:15:37.999Z</time></trkpt><trkpt lat="43.514815290962595" lon="10.829091603930957"><ele>186.0</ele><time>2026-04-18T08:15:39.999Z</time></trkpt><trkpt lat="43.51475459590969" lon="10.829057053261213"><ele>186.0</ele><time>2026-04-18T08:15:40.999Z</time></trkpt><trkpt lat="43.514693062507384" lon="10.829035007522238"><ele>186.0</ele><time>2026-04-18T08:15:41.999Z</time></trkpt><trkpt lat="43.514615589816245" lon="10.829011644254342"><ele>186.0</ele><time>2026-04-18T08:15:42.999Z</time></trkpt><trkpt lat="43.51453055974377" lon="10.82904728077504"><ele>186.0</ele><time>2026-04-18T08:15:43.999Z</time></trkpt><trkpt lat="43.51441059833132" lon="10.829103662059415"><ele>186.0</ele><time>2026-04-18T08:15:45.999Z</time></trkpt><trkpt lat="43.5143474800459" lon="10.829141194503988"><ele>186.0</ele><time>2026-04-18T08:15:46.999Z</time></trkpt><trkpt lat="43.51429219257655" lon="10.829200758467994"><ele>188.60000000000002</ele><time>2026-04-18T08:15:47.999Z</time></trkpt><trkpt lat="43.514225699175256" lon="10.829123605247846"><ele>191.2</ele><time>2026-04-18T08:15:49.999Z</time></trkpt><trkpt lat="43.51417855322081" lon="10.829063718578386"><ele>193.8</ele><time>2026-04-18T08:15:50.999Z</time></trkpt><trkpt lat="43.5141357879118" lon="10.82925183689605"><ele>196.39999999999998</ele><time>2026-04-18T08:16:11.999Z</time></trkpt><trkpt lat="43.51415741462749" lon="10.82935744173783"><ele>199.0</ele><time>2026-04-18T08:16:12.999Z</time></trkpt><trkpt lat="43.51415744079166" lon="10.829463406898368"><ele>199.6</ele><time>2026-04-18T08:16:13.999Z</time></trkpt><trkpt lat="43.51416197168639" lon="10.829572799381205"><ele>200.2</ele><time>2026-04-18T08:16:14.999Z</time></trkpt><trkpt lat="43.51415884676814" lon="10.829773449993155"><ele>200.79999999999998</ele><time>2026-04-18T08:16:16.998Z</time></trkpt><trkpt lat="43.514162598737634" lon="10.829931901654506"><ele>201.39999999999998</ele><time>2026-04-18T08:16:18.998Z</time></trkpt><trkpt lat="43.514204704130016" lon="10.830032537017706"><ele>202.0</ele><time>2026-04-18T08:16:21Z</time></trkpt><trkpt lat="43.514234495554234" lon="10.830112456746722"><ele>201.66666666666666</ele><time>2026-04-18T08:16:24Z</time></trkpt><trkpt lat="43.51429287960065" lon="10.830185304204077"><ele>201.33333333333331</ele><time>2026-04-18T08:16:27Z</time></trkpt><trkpt lat="43.51434486054599" lon="10.830280579086443"><ele>201.0</ele><time>2026-04-18T08:16:29Z</time></trkpt><trkpt lat="43.51440038607073" lon="10.830348756870956"><ele>200.66666666666669</ele><time>2026-04-18T08:16:32Z</time></trkpt><trkpt lat="43.51444364918069" lon="10.830414632099476"><ele>200.33333333333334</ele><time>2026-04-18T08:16:34Z</time></trkpt><trkpt lat="43.5145092170102" lon="10.830534470250619"><ele>200.0</ele><time>2026-04-18T08:16:36Z</time></trkpt><trkpt lat="43.5145464626418" lon="10.830604930342066"><ele>200.00000000000003</ele><time>2026-04-18T08:16:37Z</time></trkpt><trkpt lat="43.51458507681071" lon="10.830679851539665"><ele>200.0</ele><time>2026-04-18T08:16:38Z</time></trkpt><trkpt lat="43.51463530833165" lon="10.830764179020594"><ele>200.0</ele><time>2026-04-18T08:16:39Z</time></trkpt><trkpt lat="43.51466948137239" lon="10.830887143742142"><ele>200.0</ele><time>2026-04-18T08:16:41Z</time></trkpt><trkpt lat="43.514590189250555" lon="10.83095621109073"><ele>200.00000000000003</ele><time>2026-04-18T08:16:43Z</time></trkpt><trkpt lat="43.514493501821015" lon="10.830971818850445"><ele>200.0</ele><time>2026-04-18T08:16:44Z</time></trkpt><trkpt lat="43.51437453852247" lon="10.830982185607319"><ele>197.25</ele><time>2026-04-18T08:16:45Z</time></trkpt><trkpt lat="43.514242225915396" lon="10.831003614746995"><ele>194.5</ele><time>2026-04-18T08:16:46Z</time></trkpt><trkpt lat="43.514109967466986" lon="10.83102702740783"><ele>191.75</ele><time>2026-04-18T08:16:47Z</time></trkpt><trkpt lat="43.513985859977815" lon="10.831033462928659"><ele>189.0</ele><time>2026-04-18T08:16:48Z</time></trkpt><trkpt lat="43.513873195972316" lon="10.831041594025592"><ele>189.0</ele><time>2026-04-18T08:16:49Z</time></trkpt><trkpt lat="43.51378062022469" lon="10.831041147360931"><ele>189.0</ele><time>2026-04-18T08:16:50Z</time></trkpt><trkpt lat="43.513676812888875" lon="10.831057388620449"><ele>189.0</ele><time>2026-04-18T08:16:51Z</time></trkpt><trkpt lat="43.51356431879406" lon="10.831123695823505"><ele>189.0</ele><time>2026-04-18T08:16:52Z</time></trkpt><trkpt lat="43.513471582049846" lon="10.831198787505585"><ele>189.0</ele><time>2026-04-18T08:16:53Z</time></trkpt><trkpt lat="43.513387681434956" lon="10.831234038378977"><ele>192.75</ele><time>2026-04-18T08:16:54Z</time></trkpt><trkpt lat="43.51328148609042" lon="10.83127865715351"><ele>196.5</ele><time>2026-04-18T08:16:55Z</time></trkpt><trkpt lat="43.51317791270611" lon="10.831339175058138"><ele>200.25</ele><time>2026-04-18T08:16:56Z</time></trkpt><trkpt lat="43.51307912941049" lon="10.831460958326849"><ele>204.0</ele><time>2026-04-18T08:16:57Z</time></trkpt><trkpt lat="43.51298615101755" lon="10.831612329267758"><ele>204.0</ele><time>2026-04-18T08:16:58Z</time></trkpt><trkpt lat="43.512907284618336" lon="10.831734446227662"><ele>204.0</ele><time>2026-04-18T08:16:59Z</time></trkpt><trkpt lat="43.512828481638756" lon="10.831843095403771"><ele>204.0</ele><time>2026-04-18T08:17:00Z</time></trkpt><trkpt lat="43.512748298988406" lon="10.831951637455695"><ele>204.0</ele><time>2026-04-18T08:17:01Z</time></trkpt><trkpt lat="43.5126345946039" lon="10.832033984288163"><ele>205.6</ele><time>2026-04-18T08:17:02Z</time></trkpt><trkpt lat="43.51250259712784" lon="10.832101302466109"><ele>207.2</ele><time>2026-04-18T08:17:03Z</time></trkpt><trkpt lat="43.51239254791106" lon="10.83214760935295"><ele>208.79999999999998</ele><time>2026-04-18T08:17:04Z</time></trkpt><trkpt lat="43.5123144306954" lon="10.832181669868902"><ele>210.39999999999998</ele><time>2026-04-18T08:17:05Z</time></trkpt><trkpt lat="43.51223652529278" lon="10.832230686246435"><ele>212.0</ele><time>2026-04-18T08:17:06Z</time></trkpt><trkpt lat="43.51218176473801" lon="10.832288440958964"><ele>212.0</ele><time>2026-04-18T08:17:07Z</time></trkpt><trkpt lat="43.512126797447785" lon="10.832375014518734"><ele>212.0</ele><time>2026-04-18T08:17:08Z</time></trkpt><trkpt lat="43.51208964785954" lon="10.832478001983853"><ele>212.0</ele><time>2026-04-18T08:17:08.999Z</time></trkpt><trkpt lat="43.5120362761665" lon="10.832573782556047"><ele>212.0</ele><time>2026-04-18T08:17:09.999Z</time></trkpt><trkpt lat="43.51200302750146" lon="10.832716395615424"><ele>212.0</ele><time>2026-04-18T08:17:10.999Z</time></trkpt><trkpt lat="43.51196004421812" lon="10.832852537455947"><ele>209.39999999999998</ele><time>2026-04-18T08:17:11.999Z</time></trkpt><trkpt lat="43.51191075936827" lon="10.832991630784207"><ele>206.79999999999998</ele><time>2026-04-18T08:17:12.999Z</time></trkpt><trkpt lat="43.511851289719104" lon="10.833126287919315"><ele>204.2</ele><time>2026-04-18T08:17:13.999Z</time></trkpt><trkpt lat="43.5117806669115" lon="10.833255449133633"><ele>201.6</ele><time>2026-04-18T08:17:14.999Z</time></trkpt><trkpt lat="43.51170744889588" lon="10.833351172671334"><ele>199.0</ele><time>2026-04-18T08:17:15.999Z</time></trkpt><trkpt lat="43.511633801140775" lon="10.833445031718846"><ele>199.5</ele><time>2026-04-18T08:17:16.999Z</time></trkpt><trkpt lat="43.51155100953225" lon="10.833525766245113"><ele>200.0</ele><time>2026-04-18T08:17:17.999Z</time></trkpt><trkpt lat="43.51144752095273" lon="10.833596679852306"><ele>200.5</ele><time>2026-04-18T08:17:18.999Z</time></trkpt><trkpt lat="43.511329894009165" lon="10.833684592116866"><ele>201.0</ele><time>2026-04-18T08:17:19.999Z</time></trkpt><trkpt lat="43.511226213665445" lon="10.833771080398213"><ele>201.0</ele><time>2026-04-18T08:17:20.999Z</time></trkpt><trkpt lat="43.511143091487625" lon="10.83383240806849"><ele>201.0</ele><time>2026-04-18T08:17:21.999Z</time></trkpt><trkpt lat="43.511084074346535" lon="10.833889267629697"><ele>201.0</ele><time>2026-04-18T08:17:22.999Z</time></trkpt><trkpt lat="43.511053908421566" lon="10.833966941074863"><ele>201.0</ele><time>2026-04-18T08:17:23.999Z</time></trkpt><trkpt lat="43.51105594197563" lon="10.834078549055235"><ele>201.0</ele><time>2026-04-18T08:17:24.999Z</time></trkpt><trkpt lat="43.51109300649066" lon="10.83423422545235"><ele>201.0</ele><time>2026-04-18T08:17:25.999Z</time></trkpt><trkpt lat="43.51112091007646" lon="10.834372406742665"><ele>200.5</ele><time>2026-04-18T08:17:26.999Z</time></trkpt><trkpt lat="43.511136670221305" lon="10.834531573995491"><ele>200.0</ele><time>2026-04-18T08:17:27.999Z</time></trkpt><trkpt lat="43.51111831854025" lon="10.834665447389158"><ele>199.5</ele><time>2026-04-18T08:17:28.999Z</time></trkpt><trkpt lat="43.51108251007168" lon="10.834842033008485"><ele>199.0</ele><time>2026-04-18T08:17:29.999Z</time></trkpt><trkpt lat="43.511031646734224" lon="10.835019473093157"><ele>197.0</ele><time>2026-04-18T08:17:30.999Z</time></trkpt><trkpt lat="43.51093739360971" lon="10.835160673130664"><ele>195.0</ele><time>2026-04-18T08:17:31.999Z</time></trkpt><trkpt lat="43.51089808148177" lon="10.835317357184081"><ele>193.0</ele><time>2026-04-18T08:17:32.999Z</time></trkpt><trkpt lat="43.510859131884516" lon="10.835520024831375"><ele>191.0</ele><time>2026-04-18T08:17:33.999Z</time></trkpt><trkpt lat="43.51082933806219" lon="10.835695116057169"><ele>191.0</ele><time>2026-04-18T08:17:34.999Z</time></trkpt><trkpt lat="43.51080549480749" lon="10.835877531982458"><ele>191.0</ele><time>2026-04-18T08:17:35.999Z</time></trkpt><trkpt lat="43.510827248599654" lon="10.836081009500944"><ele>191.0</ele><time>2026-04-18T08:17:36.999Z</time></trkpt><trkpt lat="43.51081935135047" lon="10.836317393795822"><ele>190.75</ele><time>2026-04-18T08:17:37.999Z</time></trkpt><trkpt lat="43.510822663700345" lon="10.836521232023006"><ele>190.5</ele><time>2026-04-18T08:17:38.999Z</time></trkpt><trkpt lat="43.51082167067113" lon="10.836722757116533"><ele>190.25</ele><time>2026-04-18T08:17:39.999Z</time></trkpt><trkpt lat="43.510819428842645" lon="10.83692915084506"><ele>190.0</ele><time>2026-04-18T08:17:40.999Z</time></trkpt><trkpt lat="43.5108138126462" lon="10.837118502741196"><ele>190.0</ele><time>2026-04-18T08:17:41.999Z</time></trkpt><trkpt lat="43.51079067358177" lon="10.837267767240647"><ele>190.0</ele><time>2026-04-18T08:17:42.999Z</time></trkpt><trkpt lat="43.51075729224076" lon="10.837404793573043"><ele>190.0</ele><time>2026-04-18T08:17:43.999Z</time></trkpt><trkpt lat="43.51073399423487" lon="10.83756421467916"><ele>190.0</ele><time>2026-04-18T08:17:44.999Z</time></trkpt><trkpt lat="43.510689848007765" lon="10.837717473321472"><ele>190.25</ele><time>2026-04-18T08:17:45.999Z</time></trkpt><trkpt lat="43.5106650885072" lon="10.837877340329072"><ele>190.5</ele><time>2026-04-18T08:17:46.999Z</time></trkpt><trkpt lat="43.51065610757871" lon="10.838037863180153"><ele>190.75</ele><time>2026-04-18T08:17:47.999Z</time></trkpt><trkpt lat="43.51067561518816" lon="10.838185225185386"><ele>191.0</ele><time>2026-04-18T08:17:48.999Z</time></trkpt><trkpt lat="43.51070326876621" lon="10.838349593934433"><ele>190.20000000000002</ele><time>2026-04-18T08:17:49.999Z</time></trkpt><trkpt lat="43.51073760958259" lon="10.83849705501022"><ele>189.4</ele><time>2026-04-18T08:17:50.999Z</time></trkpt><trkpt lat="43.51076939543946" lon="10.838638694944219"><ele>188.6</ele><time>2026-04-18T08:17:51.999Z</time></trkpt><trkpt lat="43.51079028872724" lon="10.838763257799318"><ele>187.8</ele><time>2026-04-18T08:17:52.999Z</time></trkpt><trkpt lat="43.5107987140641" lon="10.838905249577662"><ele>187.0</ele><time>2026-04-18T08:17:53.999Z</time></trkpt><trkpt lat="43.5107828565234" lon="10.83903640778239"><ele>187.0</ele><time>2026-04-18T08:17:54.999Z</time></trkpt><trkpt lat="43.51074817904268" lon="10.83919289909119"><ele>187.0</ele><time>2026-04-18T08:17:55.999Z</time></trkpt><trkpt lat="43.51070866779137" lon="10.839340594932947"><ele>187.0</ele><time>2026-04-18T08:17:56.999Z</time></trkpt><trkpt lat="43.510666333937955" lon="10.839479886660563"><ele>187.0</ele><time>2026-04-18T08:17:57.999Z</time></trkpt><trkpt lat="43.51064776983477" lon="10.83961895310626"><ele>187.0</ele><time>2026-04-18T08:17:58.999Z</time></trkpt><trkpt lat="43.51065329796009" lon="10.839777093692724"><ele>186.0</ele><time>2026-04-18T08:17:59.999Z</time></trkpt><trkpt lat="43.51067288558162" lon="10.839969701134372"><ele>185.0</ele><time>2026-04-18T08:18:00.999Z</time></trkpt><trkpt lat="43.51070104447948" lon="10.84017838061523"><ele>184.0</ele><time>2026-04-18T08:18:01.999Z</time></trkpt><trkpt lat="43.510735730519585" lon="10.840391974043447"><ele>183.66666666666669</ele><time>2026-04-18T08:18:02.999Z</time></trkpt><trkpt lat="43.510770947599" lon="10.840599903399166"><ele>183.33333333333334</ele><time>2026-04-18T08:18:03.999Z</time></trkpt><trkpt lat="43.510760263554424" lon="10.840818292964906"><ele>183.0</ele><time>2026-04-18T08:18:04.999Z</time></trkpt><trkpt lat="43.510778832809834" lon="10.84102488777298"><ele>183.0</ele><time>2026-04-18T08:18:05.999Z</time></trkpt><trkpt lat="43.51079513106153" lon="10.84122934596595"><ele>183.0</ele><time>2026-04-18T08:18:06.999Z</time></trkpt><trkpt lat="43.510810830209586" lon="10.841426648997272"><ele>183.0</ele><time>2026-04-18T08:18:07.999Z</time></trkpt><trkpt lat="43.51082842017673" lon="10.84162774976321"><ele>183.0</ele><time>2026-04-18T08:18:08.999Z</time></trkpt><trkpt lat="43.51085501297225" lon="10.841812795264683"><ele>183.5</ele><time>2026-04-18T08:18:09.999Z</time></trkpt><trkpt lat="43.51091612351176" lon="10.84200780423583"><ele>184.0</ele><time>2026-04-18T08:18:10.999Z</time></trkpt><trkpt lat="43.510981992994076" lon="10.842176607335407"><ele>184.5</ele><time>2026-04-18T08:18:11.999Z</time></trkpt><trkpt lat="43.51104382778116" lon="10.84235076745878"><ele>185.0</ele><time>2026-04-18T08:18:12.999Z</time></trkpt><trkpt lat="43.51107281807435" lon="10.842525311680285"><ele>184.5</ele><time>2026-04-18T08:18:13.999Z</time></trkpt><trkpt lat="43.51108544787792" lon="10.842725199417949"><ele>184.0</ele><time>2026-04-18T08:18:14.999Z</time></trkpt><trkpt lat="43.51110115124035" lon="10.842912540661345"><ele>183.5</ele><time>2026-04-18T08:18:15.999Z</time></trkpt><trkpt lat="43.51107644987333" lon="10.843095820616087"><ele>183.0</ele><time>2026-04-18T08:18:16.999Z</time></trkpt><trkpt lat="43.51105236683411" lon="10.843288961174874"><ele>182.0</ele><time>2026-04-18T08:18:17.999Z</time></trkpt><trkpt lat="43.51103087971303" lon="10.843484627505559"><ele>181.0</ele><time>2026-04-18T08:18:18.999Z</time></trkpt><trkpt lat="43.511001174890964" lon="10.843653403979367"><ele>180.0</ele><time>2026-04-18T08:18:19.999Z</time></trkpt><trkpt lat="43.51098509813585" lon="10.843814405925277"><ele>179.0</ele><time>2026-04-18T08:18:20.999Z</time></trkpt><trkpt lat="43.510967645791624" lon="10.84397814982912"><ele>179.0</ele><time>2026-04-18T08:18:21.999Z</time></trkpt><trkpt lat="43.511000273347925" lon="10.844150347833926"><ele>179.0</ele><time>2026-04-18T08:18:22.999Z</time></trkpt><trkpt lat="43.51100615794591" lon="10.844327362387974"><ele>179.0</ele><time>2026-04-18T08:18:23.999Z</time></trkpt><trkpt lat="43.51102275243534" lon="10.844485692970014"><ele>179.0</ele><time>2026-04-18T08:18:24.999Z</time></trkpt><trkpt lat="43.51105159728759" lon="10.844646777733209"><ele>178.6</ele><time>2026-04-18T08:18:26Z</time></trkpt><trkpt lat="43.51109391428914" lon="10.844782476229815"><ele>178.2</ele><time>2026-04-18T08:18:27Z</time></trkpt><trkpt lat="43.511148050669114" lon="10.844918644485826"><ele>177.79999999999998</ele><time>2026-04-18T08:18:28Z</time></trkpt><trkpt lat="43.511217981272445" lon="10.845044742469549"><ele>177.39999999999998</ele><time>2026-04-18T08:18:29Z</time></trkpt><trkpt lat="43.51129786041643" lon="10.845152689510206"><ele>177.0</ele><time>2026-04-18T08:18:30Z</time></trkpt><trkpt lat="43.51134340639809" lon="10.845286282442633"><ele>177.0</ele><time>2026-04-18T08:18:31Z</time></trkpt><trkpt lat="43.511402951168236" lon="10.845403837305778"><ele>177.0</ele><time>2026-04-18T08:18:32Z</time></trkpt><trkpt lat="43.51146601099459" lon="10.84550608008025"><ele>177.0</ele><time>2026-04-18T08:18:33Z</time></trkpt><trkpt lat="43.51152410154495" lon="10.845587846514753"><ele>177.0</ele><time>2026-04-18T08:18:34Z</time></trkpt><trkpt lat="43.511571168826116" lon="10.845674477404572"><ele>177.0</ele><time>2026-04-18T08:18:35Z</time></trkpt><trkpt lat="43.51161476146538" lon="10.845770146016575"><ele>177.0</ele><time>2026-04-18T08:18:36Z</time></trkpt><trkpt lat="43.51165284121919" lon="10.845854576932219"><ele>177.33333333333334</ele><time>2026-04-18T08:18:37Z</time></trkpt><trkpt lat="43.51169920083062" lon="10.845980750982456"><ele>177.66666666666666</ele><time>2026-04-18T08:18:39Z</time></trkpt><trkpt lat="43.51170723732096" lon="10.84612037929329"><ele>178.0</ele><time>2026-04-18T08:20:30.999Z</time></trkpt><trkpt lat="43.51171551835679" lon="10.846212096326004"><ele>178.33333333333331</ele><time>2026-04-18T08:20:32Z</time></trkpt><trkpt lat="43.511712099205596" lon="10.846319264953157"><ele>178.66666666666666</ele><time>2026-04-18T08:20:33Z</time></trkpt><trkpt lat="43.5117037283146" lon="10.846452655863184"><ele>179.0</ele><time>2026-04-18T08:20:34Z</time></trkpt><trkpt lat="43.51168744262775" lon="10.84661171375676"><ele>179.0</ele><time>2026-04-18T08:20:35Z</time></trkpt><trkpt lat="43.5116649221074" lon="10.846775706211215"><ele>179.0</ele><time>2026-04-18T08:20:36Z</time></trkpt><trkpt lat="43.511639334996424" lon="10.846912335697859"><ele>179.0</ele><time>2026-04-18T08:20:37Z</time></trkpt><trkpt lat="43.511615231387445" lon="10.847053321559288"><ele>179.0</ele><time>2026-04-18T08:20:38Z</time></trkpt><trkpt lat="43.51159911550529" lon="10.847179635592243"><ele>179.0</ele><time>2026-04-18T08:20:39Z</time></trkpt><trkpt lat="43.51160943722113" lon="10.84729684951996"><ele>179.0</ele><time>2026-04-18T08:20:40Z</time></trkpt><trkpt lat="43.511617639322466" lon="10.847420938172782"><ele>179.0</ele><time>2026-04-18T08:20:41Z</time></trkpt><trkpt lat="43.5116364868083" lon="10.847536562853353"><ele>179.0</ele><time>2026-04-18T08:20:42Z</time></trkpt><trkpt lat="43.51165426481176" lon="10.84766013198043"><ele>179.0</ele><time>2026-04-18T08:20:43Z</time></trkpt><trkpt lat="43.51167208687179" lon="10.84779658920834"><ele>179.0</ele><time>2026-04-18T08:20:44Z</time></trkpt><trkpt lat="43.51170315764721" lon="10.847931254344651"><ele>179.0</ele><time>2026-04-18T08:20:45Z</time></trkpt><trkpt lat="43.51171313462887" lon="10.848068208691405"><ele>179.0</ele><time>2026-04-18T08:20:46Z</time></trkpt><trkpt lat="43.51172608040811" lon="10.848200633369679"><ele>179.0</ele><time>2026-04-18T08:20:47Z</time></trkpt><trkpt lat="43.51174636286858" lon="10.848335496198448"><ele>179.0</ele><time>2026-04-18T08:20:48Z</time></trkpt><trkpt lat="43.51178068236405" lon="10.84847530868817"><ele>179.0</ele><time>2026-04-18T08:20:49Z</time></trkpt><trkpt lat="43.51181865207007" lon="10.848592643697279"><ele>177.25</ele><time>2026-04-18T08:20:50Z</time></trkpt><trkpt lat="43.511864409834004" lon="10.848737730840558"><ele>175.5</ele><time>2026-04-18T08:20:51Z</time></trkpt><trkpt lat="43.51191404581033" lon="10.848889682400722"><ele>173.75</ele><time>2026-04-18T08:20:52Z</time></trkpt><trkpt lat="43.51196843076422" lon="10.849048415680528"><ele>172.0</ele><time>2026-04-18T08:20:53Z</time></trkpt><trkpt lat="43.51204737026099" lon="10.849215244966631"><ele>172.25</ele><time>2026-04-18T08:20:54Z</time></trkpt><trkpt lat="43.51213675911745" lon="10.849337456149867"><ele>172.5</ele><time>2026-04-18T08:20:55Z</time></trkpt><trkpt lat="43.51223572360306" lon="10.849474702479153"><ele>172.75</ele><time>2026-04-18T08:20:56Z</time></trkpt><trkpt lat="43.51232661217405" lon="10.8496073053093"><ele>173.0</ele><time>2026-04-18T08:20:57Z</time></trkpt><trkpt lat="43.51241534784387" lon="10.849737908531678"><ele>173.0</ele><time>2026-04-18T08:20:58Z</time></trkpt><trkpt lat="43.512505514711286" lon="10.849870581802817"><ele>173.0</ele><time>2026-04-18T08:20:59Z</time></trkpt><trkpt lat="43.51259567417317" lon="10.849996721317336"><ele>173.0</ele><time>2026-04-18T08:21:00Z</time></trkpt><trkpt lat="43.51269425636432" lon="10.850115191065901"><ele>173.0</ele><time>2026-04-18T08:21:01Z</time></trkpt><trkpt lat="43.51278366373735" lon="10.850224769485067"><ele>172.4</ele><time>2026-04-18T08:21:02Z</time></trkpt><trkpt lat="43.51288259423248" lon="10.850328345626153"><ele>171.8</ele><time>2026-04-18T08:21:03Z</time></trkpt><trkpt lat="43.51297094036308" lon="10.850448942994571"><ele>171.2</ele><time>2026-04-18T08:21:04Z</time></trkpt><trkpt lat="43.51304537948414" lon="10.850546310960006"><ele>170.6</ele><time>2026-04-18T08:21:05Z</time></trkpt><trkpt lat="43.51310755386412" lon="10.850649172484784"><ele>170.0</ele><time>2026-04-18T08:21:06Z</time></trkpt><trkpt lat="43.51315946779961" lon="10.850748305222146"><ele>170.0</ele><time>2026-04-18T08:21:07Z</time></trkpt><trkpt lat="43.5132029124025" lon="10.850854022861613"><ele>170.0</ele><time>2026-04-18T08:21:08Z</time></trkpt><trkpt lat="43.513207162562324" lon="10.850958038963137"><ele>170.0</ele><time>2026-04-18T08:21:09Z</time></trkpt><trkpt lat="43.51316462048479" lon="10.851076036505251"><ele>170.0</ele><time>2026-04-18T08:21:10Z</time></trkpt><trkpt lat="43.51309396673515" lon="10.851209754781356"><ele>170.0</ele><time>2026-04-18T08:21:11Z</time></trkpt><trkpt lat="43.513029047381984" lon="10.851353393259325"><ele>170.5</ele><time>2026-04-18T08:21:12Z</time></trkpt><trkpt lat="43.5129990114855" lon="10.851501306826943"><ele>171.0</ele><time>2026-04-18T08:21:13Z</time></trkpt><trkpt lat="43.51298137064755" lon="10.85165473880988"><ele>171.5</ele><time>2026-04-18T08:21:14Z</time></trkpt><trkpt lat="43.51296884938527" lon="10.85182243244308"><ele>172.0</ele><time>2026-04-18T08:21:15Z</time></trkpt><trkpt lat="43.51295217504845" lon="10.851975635161628"><ele>172.0</ele><time>2026-04-18T08:21:16Z</time></trkpt><trkpt lat="43.512910199205244" lon="10.852152106734767"><ele>172.0</ele><time>2026-04-18T08:21:17Z</time></trkpt><trkpt lat="43.51285603887032" lon="10.852322023772823"><ele>172.0</ele><time>2026-04-18T08:21:18Z</time></trkpt><trkpt lat="43.51280298767553" lon="10.852457565861311"><ele>172.0</ele><time>2026-04-18T08:21:19Z</time></trkpt><trkpt lat="43.5127440044216" lon="10.852591450726102"><ele>172.75</ele><time>2026-04-18T08:21:20Z</time></trkpt><trkpt lat="43.51267028237598" lon="10.852714225725837"><ele>173.5</ele><time>2026-04-18T08:21:21Z</time></trkpt><trkpt lat="43.51256717036004" lon="10.85279764965724"><ele>174.25</ele><time>2026-04-18T08:21:22Z</time></trkpt><trkpt lat="43.51245094678515" lon="10.852834682742458"><ele>175.0</ele><time>2026-04-18T08:21:23Z</time></trkpt><trkpt lat="43.512369786841774" lon="10.852905013878386"><ele>175.0</ele><time>2026-04-18T08:21:24Z</time></trkpt><trkpt lat="43.51232541882801" lon="10.853028633400548"><ele>175.0</ele><time>2026-04-18T08:21:25Z</time></trkpt><trkpt lat="43.51230509424397" lon="10.853201951081425"><ele>175.0</ele><time>2026-04-18T08:21:25.999Z</time></trkpt><trkpt lat="43.51230868292308" lon="10.853403009689027"><ele>175.0</ele><time>2026-04-18T08:21:26.999Z</time></trkpt><trkpt lat="43.51231810866833" lon="10.853570729938479"><ele>175.0</ele><time>2026-04-18T08:21:27.999Z</time></trkpt><trkpt lat="43.512314862991474" lon="10.85374101790392"><ele>175.0</ele><time>2026-04-18T08:21:28.999Z</time></trkpt><trkpt lat="43.51230862254305" lon="10.85391289323315"><ele>175.0</ele><time>2026-04-18T08:21:29.999Z</time></trkpt><trkpt lat="43.5122953491957" lon="10.854056311679301"><ele>175.0</ele><time>2026-04-18T08:21:30.999Z</time></trkpt><trkpt lat="43.51228656826561" lon="10.854227941718253"><ele>175.2</ele><time>2026-04-18T08:21:31.999Z</time></trkpt><trkpt lat="43.512288045192996" lon="10.854388695718386"><ele>175.4</ele><time>2026-04-18T08:21:32.999Z</time></trkpt><trkpt lat="43.512281053307596" lon="10.854538714601754"><ele>175.60000000000002</ele><time>2026-04-18T08:21:33.999Z</time></trkpt><trkpt lat="43.512271104314884" lon="10.854696904911918"><ele>175.8</ele><time>2026-04-18T08:21:34.999Z</time></trkpt><trkpt lat="43.5122671729256" lon="10.854840395398432"><ele>176.0</ele><time>2026-04-18T08:21:35.999Z</time></trkpt><trkpt lat="43.512258580055985" lon="10.854977889113098"><ele>176.0</ele><time>2026-04-18T08:21:36.999Z</time></trkpt><trkpt lat="43.51224948040332" lon="10.85511481392388"><ele>176.0</ele><time>2026-04-18T08:21:37.999Z</time></trkpt><trkpt lat="43.512239455038596" lon="10.85525414956103"><ele>176.0</ele><time>2026-04-18T08:21:38.999Z</time></trkpt><trkpt lat="43.5122178715109" lon="10.855427206962547"><ele>176.0</ele><time>2026-04-18T08:21:39.999Z</time></trkpt><trkpt lat="43.51220162258113" lon="10.855589869081086"><ele>176.0</ele><time>2026-04-18T08:21:40.999Z</time></trkpt><trkpt lat="43.5121840475427" lon="10.855765894189076"><ele>176.25</ele><time>2026-04-18T08:21:41.999Z</time></trkpt><trkpt lat="43.51217305951254" lon="10.85593599160193"><ele>176.5</ele><time>2026-04-18T08:21:42.999Z</time></trkpt><trkpt lat="43.51216005098338" lon="10.856103833070858"><ele>176.75</ele><time>2026-04-18T08:21:43.999Z</time></trkpt><trkpt lat="43.5121397295715" lon="10.856266885020982"><ele>177.0</ele><time>2026-04-18T08:21:44.999Z</time></trkpt><trkpt lat="43.512113266696055" lon="10.856453655759701"><ele>178.0</ele><time>2026-04-18T08:21:45.999Z</time></trkpt><trkpt lat="43.51208522747698" lon="10.856647705003207"><ele>179.0</ele><time>2026-04-18T08:21:46.999Z</time></trkpt><trkpt lat="43.512059169056016" lon="10.856839321154323"><ele>180.0</ele><time>2026-04-18T08:21:47.999Z</time></trkpt><trkpt lat="43.512037574736766" lon="10.857009741843566"><ele>181.0</ele><time>2026-04-18T08:21:48.999Z</time></trkpt><trkpt lat="43.51203518181015" lon="10.857157462737717"><ele>181.0</ele><time>2026-04-18T08:21:49.999Z</time></trkpt><trkpt lat="43.51204534117616" lon="10.857309743743526"><ele>181.0</ele><time>2026-04-18T08:21:50.999Z</time></trkpt><trkpt lat="43.51207262982538" lon="10.857468129891611"><ele>181.0</ele><time>2026-04-18T08:21:51.999Z</time></trkpt><trkpt lat="43.512111941059906" lon="10.857611850401563"><ele>181.0</ele><time>2026-04-18T08:21:52.999Z</time></trkpt><trkpt lat="43.512153945429105" lon="10.857759457827584"><ele>181.5</ele><time>2026-04-18T08:21:53.999Z</time></trkpt><trkpt lat="43.5121981697331" lon="10.857920018453326"><ele>182.0</ele><time>2026-04-18T08:21:54.999Z</time></trkpt><trkpt lat="43.51224464903207" lon="10.858060680764742"><ele>182.5</ele><time>2026-04-18T08:21:55.999Z</time></trkpt><trkpt lat="43.512288029423416" lon="10.858200854652408"><ele>183.0</ele><time>2026-04-18T08:21:56.999Z</time></trkpt><trkpt lat="43.51233856856632" lon="10.858340315003026"><ele>182.25</ele><time>2026-04-18T08:21:57.999Z</time></trkpt><trkpt lat="43.51238943301449" lon="10.858481957939807"><ele>181.5</ele><time>2026-04-18T08:21:58.999Z</time></trkpt><trkpt lat="43.51243923587702" lon="10.858613882298217"><ele>180.75</ele><time>2026-04-18T08:21:59.999Z</time></trkpt><trkpt lat="43.51249846035327" lon="10.858756641399626"><ele>180.0</ele><time>2026-04-18T08:22:00.999Z</time></trkpt><trkpt lat="43.51257875588755" lon="10.858885674740558"><ele>180.0</ele><time>2026-04-18T08:22:01.999Z</time></trkpt><trkpt lat="43.512658029726616" lon="10.859003012243479"><ele>180.0</ele><time>2026-04-18T08:22:02.999Z</time></trkpt><trkpt lat="43.5127451502457" lon="10.859124832763158"><ele>180.0</ele><time>2026-04-18T08:22:03.999Z</time></trkpt><trkpt lat="43.512822577882126" lon="10.859264247792662"><ele>180.0</ele><time>2026-04-18T08:22:04.999Z</time></trkpt><trkpt lat="43.51291212577778" lon="10.85940922589303"><ele>181.25</ele><time>2026-04-18T08:22:05.999Z</time></trkpt><trkpt lat="43.51301188387574" lon="10.85954027753853"><ele>182.5</ele><time>2026-04-18T08:22:06.999Z</time></trkpt><trkpt lat="43.513111570806984" lon="10.859644618852696"><ele>183.75</ele><time>2026-04-18T08:22:07.999Z</time></trkpt><trkpt lat="43.513204185972114" lon="10.859725198427668"><ele>185.0</ele><time>2026-04-18T08:22:08.999Z</time></trkpt><trkpt lat="43.5132807642859" lon="10.85981520518573"><ele>185.0</ele><time>2026-04-18T08:22:09.999Z</time></trkpt><trkpt lat="43.51334757733369" lon="10.859917400974071"><ele>185.0</ele><time>2026-04-18T08:22:10.999Z</time></trkpt><trkpt lat="43.51342061424279" lon="10.860037604845683"><ele>185.0</ele><time>2026-04-18T08:22:11.999Z</time></trkpt><trkpt lat="43.51349260041714" lon="10.860167315160666"><ele>185.0</ele><time>2026-04-18T08:22:12.999Z</time></trkpt><trkpt lat="43.51356816160153" lon="10.860272976519807"><ele>185.0</ele><time>2026-04-18T08:22:13.999Z</time></trkpt><trkpt lat="43.513646446626964" lon="10.860380354675566"><ele>184.6</ele><time>2026-04-18T08:22:14.999Z</time></trkpt><trkpt lat="43.513726715617985" lon="10.86047057919419"><ele>184.2</ele><time>2026-04-18T08:22:15.999Z</time></trkpt><trkpt lat="43.51380950031485" lon="10.860536360552908"><ele>183.8</ele><time>2026-04-18T08:22:16.999Z</time></trkpt><trkpt lat="43.513908635228844" lon="10.860592555297243"><ele>183.4</ele><time>2026-04-18T08:22:17.999Z</time></trkpt><trkpt lat="43.51402660472915" lon="10.860636141533739"><ele>183.0</ele><time>2026-04-18T08:22:18.999Z</time></trkpt><trkpt lat="43.51413256457287" lon="10.860692831303634"><ele>185.75</ele><time>2026-04-18T08:22:19.999Z</time></trkpt><trkpt lat="43.51422167676724" lon="10.86079463472556"><ele>188.5</ele><time>2026-04-18T08:22:20.999Z</time></trkpt><trkpt lat="43.51429024799371" lon="10.860919871215657"><ele>191.25</ele><time>2026-04-18T08:22:21.999Z</time></trkpt><trkpt lat="43.514335871161514" lon="10.86106413328302"><ele>194.0</ele><time>2026-04-18T08:22:22.999Z</time></trkpt><trkpt lat="43.514361893108195" lon="10.86121279962278"><ele>195.6</ele><time>2026-04-18T08:22:23.999Z</time></trkpt><trkpt lat="43.51437737004719" lon="10.861367140575165"><ele>197.2</ele><time>2026-04-18T08:22:24.999Z</time></trkpt><trkpt lat="43.5143913530655" lon="10.861525771586152"><ele>198.79999999999998</ele><time>2026-04-18T08:22:25.999Z</time></trkpt><trkpt lat="43.51439109585989" lon="10.861659770596512"><ele>200.39999999999998</ele><time>2026-04-18T08:22:26.999Z</time></trkpt><trkpt lat="43.51435064559297" lon="10.86178396785748"><ele>202.0</ele><time>2026-04-18T08:22:27.999Z</time></trkpt><trkpt lat="43.51426190169833" lon="10.861880085939525"><ele>202.6</ele><time>2026-04-18T08:22:28.999Z</time></trkpt><trkpt lat="43.51415818700621" lon="10.861933560262743"><ele>203.2</ele><time>2026-04-18T08:22:29.999Z</time></trkpt><trkpt lat="43.51406233356503" lon="10.861985298489081"><ele>203.8</ele><time>2026-04-18T08:22:30.999Z</time></trkpt><trkpt lat="43.51397691068109" lon="10.862089243457115"><ele>204.4</ele><time>2026-04-18T08:22:31.999Z</time></trkpt><trkpt lat="43.5139134734633" lon="10.862215512526667"><ele>205.0</ele><time>2026-04-18T08:22:32.999Z</time></trkpt><trkpt lat="43.51386932848581" lon="10.862347390893644"><ele>205.0</ele><time>2026-04-18T08:22:33.999Z</time></trkpt><trkpt lat="43.513848254705884" lon="10.862488467427253"><ele>205.0</ele><time>2026-04-18T08:22:34.999Z</time></trkpt><trkpt lat="43.51384831984" lon="10.86267202772396"><ele>205.0</ele><time>2026-04-18T08:22:35.999Z</time></trkpt><trkpt lat="43.513863331027935" lon="10.862828623537803"><ele>205.0</ele><time>2026-04-18T08:22:36.999Z</time></trkpt><trkpt lat="43.51388486047226" lon="10.862952259791497"><ele>205.0</ele><time>2026-04-18T08:22:38Z</time></trkpt><trkpt lat="43.51391730605192" lon="10.863065209841553"><ele>206.0</ele><time>2026-04-18T08:22:39Z</time></trkpt><trkpt lat="43.51396213557534" lon="10.863169823531834"><ele>207.0</ele><time>2026-04-18T08:22:40Z</time></trkpt><trkpt lat="43.51402156965164" lon="10.863279986642347"><ele>208.0</ele><time>2026-04-18T08:22:41Z</time></trkpt><trkpt lat="43.51408461494856" lon="10.863379700644181"><ele>209.0</ele><time>2026-04-18T08:22:42Z</time></trkpt><trkpt lat="43.51414778408008" lon="10.86347268214127"><ele>210.0</ele><time>2026-04-18T08:22:43Z</time></trkpt><trkpt lat="43.514181956302295" lon="10.86359616657725"><ele>211.2</ele><time>2026-04-18T08:22:44Z</time></trkpt><trkpt lat="43.51422336494824" lon="10.863701906155688"><ele>212.4</ele><time>2026-04-18T08:22:45Z</time></trkpt><trkpt lat="43.51421340892193" lon="10.863831821627214"><ele>213.60000000000002</ele><time>2026-04-18T08:22:46Z</time></trkpt><trkpt lat="43.51424371339241" lon="10.863952311440435"><ele>214.8</ele><time>2026-04-18T08:22:47Z</time></trkpt><trkpt lat="43.514246849375674" lon="10.864078438508031"><ele>216.0</ele><time>2026-04-18T08:22:48Z</time></trkpt><trkpt lat="43.51425823239999" lon="10.864210891394908"><ele>217.8</ele><time>2026-04-18T08:22:49Z</time></trkpt><trkpt lat="43.51427260090569" lon="10.864326781468108"><ele>219.60000000000002</ele><time>2026-04-18T08:22:50Z</time></trkpt><trkpt lat="43.51428388526727" lon="10.864461129565603"><ele>221.4</ele><time>2026-04-18T08:22:51Z</time></trkpt><trkpt lat="43.51429633669192" lon="10.864590123402277"><ele>223.2</ele><time>2026-04-18T08:22:52Z</time></trkpt><trkpt lat="43.514302719271505" lon="10.864745461724594"><ele>225.0</ele><time>2026-04-18T08:22:53Z</time></trkpt><trkpt lat="43.51431199562994" lon="10.864907691457184"><ele>225.0</ele><time>2026-04-18T08:22:54Z</time></trkpt><trkpt lat="43.51433323991749" lon="10.865068505967589"><ele>225.0</ele><time>2026-04-18T08:22:55Z</time></trkpt><trkpt lat="43.51434850972514" lon="10.865231242474094"><ele>225.0</ele><time>2026-04-18T08:22:56Z</time></trkpt><trkpt lat="43.51437092851635" lon="10.865392288266783"><ele>225.0</ele><time>2026-04-18T08:22:57Z</time></trkpt><trkpt lat="43.51439137949404" lon="10.865555509510227"><ele>227.5</ele><time>2026-04-18T08:22:58Z</time></trkpt><trkpt lat="43.5144039999695" lon="10.865714925372147"><ele>230.0</ele><time>2026-04-18T08:22:59Z</time></trkpt><trkpt lat="43.51441335729913" lon="10.865900242023256"><ele>232.5</ele><time>2026-04-18T08:23:00Z</time></trkpt><trkpt lat="43.51444572981447" lon="10.86608307544674"><ele>235.0</ele><time>2026-04-18T08:23:01Z</time></trkpt><trkpt lat="43.51448788230391" lon="10.866258105723878"><ele>236.5</ele><time>2026-04-18T08:23:02Z</time></trkpt><trkpt lat="43.51452082866914" lon="10.866415071909026"><ele>238.0</ele><time>2026-04-18T08:23:03Z</time></trkpt><trkpt lat="43.51455210426462" lon="10.866574428413571"><ele>239.5</ele><time>2026-04-18T08:23:04Z</time></trkpt><trkpt lat="43.51456357157592" lon="10.866729893292312"><ele>241.0</ele><time>2026-04-18T08:23:05Z</time></trkpt><trkpt lat="43.51456855216547" lon="10.866905162627349"><ele>239.25</ele><time>2026-04-18T08:23:06Z</time></trkpt><trkpt lat="43.514572522914605" lon="10.867087372719695"><ele>237.5</ele><time>2026-04-18T08:23:07Z</time></trkpt><trkpt lat="43.5145822471317" lon="10.867247303447135"><ele>235.75</ele><time>2026-04-18T08:23:08Z</time></trkpt><trkpt lat="43.51461650299769" lon="10.867437845227208"><ele>234.0</ele><time>2026-04-18T08:23:09Z</time></trkpt><trkpt lat="43.5146878806974" lon="10.867606398979012"><ele>235.75</ele><time>2026-04-18T08:23:10Z</time></trkpt><trkpt lat="43.51476666363559" lon="10.867773209409616"><ele>237.5</ele><time>2026-04-18T08:23:11Z</time></trkpt><trkpt lat="43.51485967755253" lon="10.867939455215122"><ele>239.25</ele><time>2026-04-18T08:23:12Z</time></trkpt><trkpt lat="43.514941412136885" lon="10.868106712180856"><ele>241.0</ele><time>2026-04-18T08:23:13Z</time></trkpt><trkpt lat="43.515023659455665" lon="10.868240727796945"><ele>241.0</ele><time>2026-04-18T08:23:14Z</time></trkpt><trkpt lat="43.51509864952445" lon="10.868368995731919"><ele>241.0</ele><time>2026-04-18T08:23:15Z</time></trkpt><trkpt lat="43.51518371776689" lon="10.868512142359634"><ele>241.0</ele><time>2026-04-18T08:23:16Z</time></trkpt><trkpt lat="43.51528593046812" lon="10.868685806346432"><ele>241.0</ele><time>2026-04-18T08:23:17Z</time></trkpt><trkpt lat="43.515393180862766" lon="10.868858090329068"><ele>243.0</ele><time>2026-04-18T08:23:18Z</time></trkpt><trkpt lat="43.51550023281899" lon="10.869048781346404"><ele>245.0</ele><time>2026-04-18T08:23:19Z</time></trkpt><trkpt lat="43.515636205527834" lon="10.869211410351706"><ele>247.0</ele><time>2026-04-18T08:23:20Z</time></trkpt><trkpt lat="43.51576777119238" lon="10.869380767796919"><ele>249.33333333333331</ele><time>2026-04-18T08:23:21Z</time></trkpt><trkpt lat="43.515889133242396" lon="10.86955002558151"><ele>251.66666666666669</ele><time>2026-04-18T08:23:22Z</time></trkpt><trkpt lat="43.51599507649847" lon="10.869701982951057"><ele>254.0</ele><time>2026-04-18T08:23:23Z</time></trkpt><trkpt lat="43.51608943249245" lon="10.869838659442134"><ele>254.0</ele><time>2026-04-18T08:23:24Z</time></trkpt><trkpt lat="43.51617470350476" lon="10.86997188071062"><ele>253.99999999999997</ele><time>2026-04-18T08:23:25Z</time></trkpt><trkpt lat="43.51623862830555" lon="10.870085391502005"><ele>253.99999999999997</ele><time>2026-04-18T08:23:26Z</time></trkpt><trkpt lat="43.516286439829365" lon="10.870208780786605"><ele>254.0</ele><time>2026-04-18T08:23:27Z</time></trkpt><trkpt lat="43.516304623668944" lon="10.87035876935991"><ele>254.0</ele><time>2026-04-18T08:23:28Z</time></trkpt><trkpt lat="43.51628921604443" lon="10.870536934704456"><ele>259.4</ele><time>2026-04-18T08:23:29Z</time></trkpt><trkpt lat="43.51626258327649" lon="10.870716970793874"><ele>264.79999999999995</ele><time>2026-04-18T08:23:30Z</time></trkpt><trkpt lat="43.51625352038781" lon="10.87086972999871"><ele>270.20000000000005</ele><time>2026-04-18T08:23:31Z</time></trkpt><trkpt lat="43.51619772235439" lon="10.870959066880928"><ele>275.6</ele><time>2026-04-18T08:23:32Z</time></trkpt><trkpt lat="43.5161325262011" lon="10.871017124356506"><ele>281.0</ele><time>2026-04-18T08:23:32.999Z</time></trkpt><trkpt lat="43.51604533916819" lon="10.870958313093237"><ele>282.25</ele><time>2026-04-18T08:23:33.999Z</time></trkpt><trkpt lat="43.51594728860252" lon="10.870964155161431"><ele>283.5</ele><time>2026-04-18T08:23:34.999Z</time></trkpt><trkpt lat="43.515824548310405" lon="10.870967963946946"><ele>284.75</ele><time>2026-04-18T08:23:35.999Z</time></trkpt><trkpt lat="43.51572107992448" lon="10.871087473673017"><ele>286.0</ele><time>2026-04-18T08:23:36.999Z</time></trkpt><trkpt lat="43.51563945412225" lon="10.871226659836733"><ele>286.0</ele><time>2026-04-18T08:23:37.999Z</time></trkpt><trkpt lat="43.51558958792405" lon="10.871394771118947"><ele>286.0</ele><time>2026-04-18T08:23:38.999Z</time></trkpt><trkpt lat="43.51556455348499" lon="10.871577152166317"><ele>286.0</ele><time>2026-04-18T08:23:39.999Z</time></trkpt><trkpt lat="43.51555333699553" lon="10.871764160940383"><ele>286.0</ele><time>2026-04-18T08:23:40.999Z</time></trkpt><trkpt lat="43.51554242898896" lon="10.871927214209638"><ele>288.0</ele><time>2026-04-18T08:23:41.999Z</time></trkpt><trkpt lat="43.51554980393121" lon="10.872055872845246"><ele>290.0</ele><time>2026-04-18T08:23:42.999Z</time></trkpt><trkpt lat="43.515649193388874" lon="10.872128958936766"><ele>292.0</ele><time>2026-04-18T08:23:44.999Z</time></trkpt><trkpt lat="43.515717156093466" lon="10.872101711890057"><ele>294.0</ele><time>2026-04-18T08:23:45.999Z</time></trkpt><trkpt lat="43.51579782275735" lon="10.87213673710629"><ele>296.0</ele><time>2026-04-18T08:23:46.999Z</time></trkpt><trkpt lat="43.51590233660086" lon="10.872152933256391"><ele>296.0</ele><time>2026-04-18T08:23:47.999Z</time></trkpt><trkpt lat="43.51601616757219" lon="10.872164825853458"><ele>296.0</ele><time>2026-04-18T08:23:48.999Z</time></trkpt><trkpt lat="43.516093076725944" lon="10.87223323387553"><ele>296.0</ele><time>2026-04-18T08:23:49.999Z</time></trkpt><trkpt lat="43.51615899649661" lon="10.872306322439615"><ele>296.0</ele><time>2026-04-18T08:23:50.999Z</time></trkpt><trkpt lat="43.51617311965611" lon="10.872429583152684"><ele>296.0</ele><time>2026-04-18T08:23:51.999Z</time></trkpt><trkpt lat="43.51613394028542" lon="10.872556218708485"><ele>297.0</ele><time>2026-04-18T08:23:52.999Z</time></trkpt><trkpt lat="43.51617146452805" lon="10.872671445521872"><ele>298.0</ele><time>2026-04-18T08:23:53.999Z</time></trkpt><trkpt lat="43.516234899901704" lon="10.872806070218202"><ele>299.0</ele><time>2026-04-18T08:23:54.999Z</time></trkpt><trkpt lat="43.51630391009637" lon="10.872882325698066"><ele>300.0</ele><time>2026-04-18T08:23:55.999Z</time></trkpt><trkpt lat="43.516365208617216" lon="10.872936402872334"><ele>301.0</ele><time>2026-04-18T08:23:56.999Z</time></trkpt><trkpt lat="43.5163950316101" lon="10.873065471836503"><ele>304.75</ele><time>2026-04-18T08:23:58.999Z</time></trkpt><trkpt lat="43.51633680986516" lon="10.873234182629933"><ele>308.5</ele><time>2026-04-18T08:24:00.999Z</time></trkpt><trkpt lat="43.5163266552189" lon="10.873412829626858"><ele>312.25</ele><time>2026-04-18T08:24:01.999Z</time></trkpt><trkpt lat="43.51633106913026" lon="10.873564823482399"><ele>316.0</ele><time>2026-04-18T08:24:02.999Z</time></trkpt><trkpt lat="43.51631108546683" lon="10.873685040134488"><ele>315.8333333333333</ele><time>2026-04-18T08:24:03.999Z</time></trkpt><trkpt lat="43.5162987715025" lon="10.873777981464517"><ele>315.66666666666663</ele><time>2026-04-18T08:24:04.999Z</time></trkpt><trkpt lat="43.51628619827845" lon="10.873864656583235"><ele>315.5</ele><time>2026-04-18T08:24:05.999Z</time></trkpt><trkpt lat="43.51626250958553" lon="10.874004501296703"><ele>315.3333333333333</ele><time>2026-04-18T08:24:07.999Z</time></trkpt><trkpt lat="43.51623298752128" lon="10.87415920472454"><ele>315.1666666666667</ele><time>2026-04-18T08:24:09.999Z</time></trkpt><trkpt lat="43.51617840476544" lon="10.87425212734697"><ele>315.0</ele><time>2026-04-18T08:24:10.999Z</time></trkpt><trkpt lat="43.51612698243681" lon="10.87433292667747"><ele>315.0</ele><time>2026-04-18T08:24:11.999Z</time></trkpt><trkpt lat="43.51607463475466" lon="10.874419078241266"><ele>315.0</ele><time>2026-04-18T08:24:12.999Z</time></trkpt><trkpt lat="43.51597557502878" lon="10.874528290566607"><ele>315.0</ele><time>2026-04-18T08:24:14.999Z</time></trkpt><trkpt lat="43.51590911215882" lon="10.874543306833493"><ele>315.0</ele><time>2026-04-18T08:24:15.999Z</time></trkpt><trkpt lat="43.51581852246892" lon="10.874557238195573"><ele>315.0</ele><time>2026-04-18T08:24:16.999Z</time></trkpt><trkpt lat="43.515746630919246" lon="10.874609995693543"><ele>315.0</ele><time>2026-04-18T08:24:17.999Z</time></trkpt><trkpt lat="43.51563390677616" lon="10.874679993029046"><ele>315.0</ele><time>2026-04-18T08:24:18.999Z</time></trkpt><trkpt lat="43.51555066445394" lon="10.874800113931807"><ele>315.0</ele><time>2026-04-18T08:24:19.999Z</time></trkpt><trkpt lat="43.5154320910168" lon="10.874872066441545"><ele>315.0</ele><time>2026-04-18T08:24:20.999Z</time></trkpt><trkpt lat="43.5153644078175" lon="10.874929635613205"><ele>315.0</ele><time>2026-04-18T08:24:21.999Z</time></trkpt><trkpt lat="43.51529686593572" lon="10.875004553963684"><ele>315.0</ele><time>2026-04-18T08:24:22.999Z</time></trkpt><trkpt lat="43.51524778261015" lon="10.87510494232325"><ele>315.0</ele><time>2026-04-18T08:24:23.999Z</time></trkpt><trkpt lat="43.51521598169872" lon="10.875197644540947"><ele>315.0</ele><time>2026-04-18T08:24:24.999Z</time></trkpt><trkpt lat="43.51519115239267" lon="10.875388442186988"><ele>315.0</ele><time>2026-04-18T08:24:25.999Z</time></trkpt><trkpt lat="43.51519952208844" lon="10.875526685344667"><ele>315.0</ele><time>2026-04-18T08:24:26.999Z</time></trkpt><trkpt lat="43.515193987845066" lon="10.875637495702268"><ele>315.0</ele><time>2026-04-18T08:24:27.999Z</time></trkpt><trkpt lat="43.51516677928998" lon="10.87573256696052"><ele>315.0</ele><time>2026-04-18T08:24:28.999Z</time></trkpt><trkpt lat="43.515157754142685" lon="10.875825827662"><ele>315.0</ele><time>2026-04-18T08:24:29.999Z</time></trkpt><trkpt lat="43.515154180237005" lon="10.875933968819934"><ele>315.0</ele><time>2026-04-18T08:24:31.999Z</time></trkpt><trkpt lat="43.51526345391387" lon="10.875988808738828"><ele>315.0</ele><time>2026-04-18T08:24:35.999Z</time></trkpt><trkpt lat="43.51535815068554" lon="10.87598754703066"><ele>315.0</ele><time>2026-04-18T08:24:36.999Z</time></trkpt><trkpt lat="43.51544770494407" lon="10.876010258290368"><ele>315.0</ele><time>2026-04-18T08:24:37.999Z</time></trkpt><trkpt lat="43.51555182595306" lon="10.876077789474712"><ele>319.25</ele><time>2026-04-18T08:24:38.999Z</time></trkpt><trkpt lat="43.51566313781182" lon="10.876188984136753"><ele>323.5</ele><time>2026-04-18T08:24:39.999Z</time></trkpt><trkpt lat="43.51575915072148" lon="10.87628945720939"><ele>327.75</ele><time>2026-04-18T08:24:40.999Z</time></trkpt><trkpt lat="43.51584225261329" lon="10.876392632633916"><ele>332.0</ele><time>2026-04-18T08:24:41.999Z</time></trkpt><trkpt lat="43.515979569968664" lon="10.876347167358364"><ele>332.0</ele><time>2026-04-18T08:24:42.999Z</time></trkpt><trkpt lat="43.51610369734376" lon="10.876290712538971"><ele>332.0</ele><time>2026-04-18T08:24:44Z</time></trkpt><trkpt lat="43.51622065669259" lon="10.876213032533869"><ele>332.0</ele><time>2026-04-18T08:24:45Z</time></trkpt><trkpt lat="43.51632847358764" lon="10.876141667541345"><ele>332.0</ele><time>2026-04-18T08:24:46Z</time></trkpt><trkpt lat="43.51643737049489" lon="10.876079150577105"><ele>332.75</ele><time>2026-04-18T08:24:47Z</time></trkpt><trkpt lat="43.51654469396561" lon="10.876018312168496"><ele>333.5</ele><time>2026-04-18T08:24:48Z</time></trkpt><trkpt lat="43.516650334926005" lon="10.875956915772496"><ele>334.25</ele><time>2026-04-18T08:24:49Z</time></trkpt><trkpt lat="43.51675713340911" lon="10.875894196126163"><ele>335.0</ele><time>2026-04-18T08:24:50Z</time></trkpt><trkpt lat="43.51685984041479" lon="10.875815700836087"><ele>335.0</ele><time>2026-04-18T08:24:51Z</time></trkpt><trkpt lat="43.51693733240596" lon="10.875718764407603"><ele>335.0</ele><time>2026-04-18T08:24:52Z</time></trkpt><trkpt lat="43.5169828973293" lon="10.875585504513337"><ele>335.0</ele><time>2026-04-18T08:24:53Z</time></trkpt><trkpt lat="43.516996354871786" lon="10.875446868805579"><ele>335.0</ele><time>2026-04-18T08:24:54Z</time></trkpt><trkpt lat="43.517049424741316" lon="10.875289210092099"><ele>335.0</ele><time>2026-04-18T08:24:55Z</time></trkpt><trkpt lat="43.517121948888004" lon="10.875126274811077"><ele>337.25</ele><time>2026-04-18T08:24:56Z</time></trkpt><trkpt lat="43.517202942057814" lon="10.874993946545194"><ele>339.5</ele><time>2026-04-18T08:24:57Z</time></trkpt><trkpt lat="43.517311468746556" lon="10.874892560893247"><ele>341.75</ele><time>2026-04-18T08:24:58Z</time></trkpt><trkpt lat="43.51744148213161" lon="10.874824620662698"><ele>344.0</ele><time>2026-04-18T08:24:59Z</time></trkpt><trkpt lat="43.51757551534516" lon="10.874818484324944"><ele>344.0</ele><time>2026-04-18T08:25:00Z</time></trkpt><trkpt lat="43.51772283986462" lon="10.874777367528232"><ele>344.0</ele><time>2026-04-18T08:25:01Z</time></trkpt><trkpt lat="43.517987118834064" lon="10.874780227426008"><ele>344.0</ele><time>2026-04-18T08:25:03Z</time></trkpt><trkpt lat="43.518139765457576" lon="10.874801266047502"><ele>346.0</ele><time>2026-04-18T08:25:04Z</time></trkpt><trkpt lat="43.51826635123754" lon="10.874809943546431"><ele>348.0</ele><time>2026-04-18T08:25:05Z</time></trkpt><trkpt lat="43.51839850518293" lon="10.87484700438895"><ele>350.0</ele><time>2026-04-18T08:25:06Z</time></trkpt><trkpt lat="43.51849833376855" lon="10.874875127766705"><ele>352.0</ele><time>2026-04-18T08:25:07Z</time></trkpt><trkpt lat="43.51860943641505" lon="10.87489454979098"><ele>352.0</ele><time>2026-04-18T08:25:08Z</time></trkpt><trkpt lat="43.518708174162605" lon="10.87490555904176"><ele>352.0</ele><time>2026-04-18T08:25:09Z</time></trkpt><trkpt lat="43.51883425645058" lon="10.874894034113035"><ele>352.0</ele><time>2026-04-18T08:25:10Z</time></trkpt><trkpt lat="43.51892758843373" lon="10.874902959915778"><ele>352.0</ele><time>2026-04-18T08:25:11Z</time></trkpt><trkpt lat="43.519013509363624" lon="10.874941461924541"><ele>352.0</ele><time>2026-04-18T08:25:12Z</time></trkpt><trkpt lat="43.51910964085204" lon="10.875013392670036"><ele>352.25</ele><time>2026-04-18T08:25:13Z</time></trkpt><trkpt lat="43.519185054760676" lon="10.875143124213718"><ele>352.5</ele><time>2026-04-18T08:25:14Z</time></trkpt><trkpt lat="43.51924354140218" lon="10.87530125821014"><ele>352.75</ele><time>2026-04-18T08:25:15Z</time></trkpt><trkpt lat="43.51927151756688" lon="10.875479201316725"><ele>353.0</ele><time>2026-04-18T08:25:16Z</time></trkpt><trkpt lat="43.51930181441562" lon="10.875632922600833"><ele>353.0</ele><time>2026-04-18T08:25:17Z</time></trkpt><trkpt lat="43.519362849684796" lon="10.875779566377012"><ele>353.0</ele><time>2026-04-18T08:25:18Z</time></trkpt><trkpt lat="43.519434172882846" lon="10.875911787796925"><ele>353.0</ele><time>2026-04-18T08:25:19Z</time></trkpt><trkpt lat="43.51952934516906" lon="10.876010886380689"><ele>353.0</ele><time>2026-04-18T08:25:20Z</time></trkpt><trkpt lat="43.519644356787644" lon="10.876089906381372"><ele>348.0</ele><time>2026-04-18T08:25:21Z</time></trkpt><trkpt lat="43.51972527859" lon="10.876162074738899"><ele>343.0</ele><time>2026-04-18T08:25:22Z</time></trkpt><trkpt lat="43.51980238551432" lon="10.876264735023"><ele>338.0</ele><time>2026-04-18T08:25:23Z</time></trkpt><trkpt lat="43.51985552282285" lon="10.87642005824302"><ele>333.0</ele><time>2026-04-18T08:25:24Z</time></trkpt><trkpt lat="43.519874733004904" lon="10.876607068123977"><ele>335.25</ele><time>2026-04-18T08:25:25Z</time></trkpt><trkpt lat="43.5198876232465" lon="10.87680325907292"><ele>337.5</ele><time>2026-04-18T08:25:26Z</time></trkpt><trkpt lat="43.519914419866204" lon="10.877003931397867"><ele>339.75</ele><time>2026-04-18T08:25:27Z</time></trkpt><trkpt lat="43.51993100564106" lon="10.877211016441747"><ele>342.0</ele><time>2026-04-18T08:25:28Z</time></trkpt><trkpt lat="43.51996928359855" lon="10.877419039806115"><ele>343.25</ele><time>2026-04-18T08:25:29Z</time></trkpt><trkpt lat="43.52000078693356" lon="10.877613075608497"><ele>344.5</ele><time>2026-04-18T08:25:30Z</time></trkpt><trkpt lat="43.52004534910095" lon="10.877790956180478"><ele>345.75</ele><time>2026-04-18T08:25:31Z</time></trkpt><trkpt lat="43.520078934033386" lon="10.877971576696284"><ele>347.0</ele><time>2026-04-18T08:25:32Z</time></trkpt><trkpt lat="43.520122524867446" lon="10.87812927901049"><ele>347.0</ele><time>2026-04-18T08:25:33Z</time></trkpt><trkpt lat="43.52016861846107" lon="10.87829399592342"><ele>347.0</ele><time>2026-04-18T08:25:33.999Z</time></trkpt><trkpt lat="43.52020681733177" lon="10.878437521358046"><ele>347.0</ele><time>2026-04-18T08:25:34.999Z</time></trkpt><trkpt lat="43.5202323811076" lon="10.878589688154497"><ele>347.0</ele><time>2026-04-18T08:25:35.999Z</time></trkpt><trkpt lat="43.52021984978468" lon="10.878753771482044"><ele>344.25</ele><time>2026-04-18T08:25:36.999Z</time></trkpt><trkpt lat="43.5201813764419" lon="10.878925499914919"><ele>341.5</ele><time>2026-04-18T08:25:37.999Z</time></trkpt><trkpt lat="43.52009940797044" lon="10.879062403350968"><ele>338.75</ele><time>2026-04-18T08:25:38.999Z</time></trkpt><trkpt lat="43.51997806801313" lon="10.879158881488433"><ele>336.0</ele><time>2026-04-18T08:25:39.999Z</time></trkpt><trkpt lat="43.51987471990479" lon="10.879211276081925"><ele>336.0</ele><time>2026-04-18T08:25:40.999Z</time></trkpt><trkpt lat="43.5197682564145" lon="10.879199108903288"><ele>336.0</ele><time>2026-04-18T08:25:41.999Z</time></trkpt><trkpt lat="43.51964649733832" lon="10.87915809872762"><ele>336.0</ele><time>2026-04-18T08:25:42.999Z</time></trkpt><trkpt lat="43.51951396315929" lon="10.879147286521503"><ele>336.0</ele><time>2026-04-18T08:25:43.999Z</time></trkpt><trkpt lat="43.519399038660474" lon="10.879125633803712"><ele>337.0</ele><time>2026-04-18T08:25:44.999Z</time></trkpt><trkpt lat="43.51929786966447" lon="10.879096858811279"><ele>338.0</ele><time>2026-04-18T08:25:45.999Z</time></trkpt><trkpt lat="43.51919297485226" lon="10.879102456069171"><ele>339.0</ele><time>2026-04-18T08:25:46.999Z</time></trkpt><trkpt lat="43.5190904748368" lon="10.879134649748233"><ele>340.0</ele><time>2026-04-18T08:25:47.999Z</time></trkpt><trkpt lat="43.51899832467611" lon="10.879234700545966"><ele>341.0</ele><time>2026-04-18T08:25:48.999Z</time></trkpt><trkpt lat="43.51894000356724" lon="10.879376768889422"><ele>341.0</ele><time>2026-04-18T08:25:49.999Z</time></trkpt><trkpt lat="43.51894324345448" lon="10.879518693423886"><ele>341.0</ele><time>2026-04-18T08:25:50.999Z</time></trkpt><trkpt lat="43.51901163848908" lon="10.879640442279438"><ele>341.0</ele><time>2026-04-18T08:25:51.999Z</time></trkpt><trkpt lat="43.519094818862854" lon="10.879704808234374"><ele>341.0</ele><time>2026-04-18T08:25:52.999Z</time></trkpt><trkpt lat="43.519205695433925" lon="10.879731816641083"><ele>341.0</ele><time>2026-04-18T08:25:53.999Z</time></trkpt><trkpt lat="43.51932830980244" lon="10.879734557895349"><ele>341.0</ele><time>2026-04-18T08:25:54.999Z</time></trkpt><trkpt lat="43.51942410697924" lon="10.87978667858428"><ele>341.0</ele><time>2026-04-18T08:25:55.999Z</time></trkpt><trkpt lat="43.519525997458274" lon="10.879883229122441"><ele>341.0</ele><time>2026-04-18T08:25:56.999Z</time></trkpt><trkpt lat="43.519600862971444" lon="10.879989254074106"><ele>341.0</ele><time>2026-04-18T08:25:57.999Z</time></trkpt><trkpt lat="43.519637505164894" lon="10.88010034746156"><ele>341.0</ele><time>2026-04-18T08:25:58.999Z</time></trkpt><trkpt lat="43.51963129619659" lon="10.880233015710061"><ele>338.5</ele><time>2026-04-18T08:25:59.999Z</time></trkpt><trkpt lat="43.51959769135496" lon="10.880381018921701"><ele>336.0</ele><time>2026-04-18T08:26:00.999Z</time></trkpt><trkpt lat="43.51955905975626" lon="10.880529115144212"><ele>333.5</ele><time>2026-04-18T08:26:01.999Z</time></trkpt><trkpt lat="43.51955612891707" lon="10.88069182397543"><ele>331.0</ele><time>2026-04-18T08:26:02.999Z</time></trkpt><trkpt lat="43.51956605135976" lon="10.880840642812544"><ele>333.25</ele><time>2026-04-18T08:26:03.999Z</time></trkpt><trkpt lat="43.51958313361638" lon="10.880991455866429"><ele>335.5</ele><time>2026-04-18T08:26:04.999Z</time></trkpt><trkpt lat="43.51958875843198" lon="10.881156105781017"><ele>337.75</ele><time>2026-04-18T08:26:05.999Z</time></trkpt><trkpt lat="43.5195572622322" lon="10.881318182536006"><ele>340.0</ele><time>2026-04-18T08:26:06.999Z</time></trkpt><trkpt lat="43.51952565231824" lon="10.881491346890154"><ele>345.25</ele><time>2026-04-18T08:26:07.999Z</time></trkpt><trkpt lat="43.51949714876607" lon="10.881666770729447"><ele>350.5</ele><time>2026-04-18T08:26:08.999Z</time></trkpt><trkpt lat="43.51948290818372" lon="10.88184854439643"><ele>355.75</ele><time>2026-04-18T08:26:09.999Z</time></trkpt><trkpt lat="43.51949396435948" lon="10.882040824544253"><ele>361.0</ele><time>2026-04-18T08:26:10.999Z</time></trkpt><trkpt lat="43.51954292123229" lon="10.882229061110678"><ele>361.0</ele><time>2026-04-18T08:26:11.999Z</time></trkpt><trkpt lat="43.519606489330755" lon="10.882397175923284"><ele>361.0</ele><time>2026-04-18T08:26:12.999Z</time></trkpt><trkpt lat="43.51966823802282" lon="10.88255355462058"><ele>361.0</ele><time>2026-04-18T08:26:13.999Z</time></trkpt><trkpt lat="43.51974904282566" lon="10.882699843081687"><ele>361.0</ele><time>2026-04-18T08:26:14.999Z</time></trkpt><trkpt lat="43.51985826767669" lon="10.882812094475096"><ele>361.0</ele><time>2026-04-18T08:26:15.999Z</time></trkpt><trkpt lat="43.51996770711768" lon="10.882900494794118"><ele>361.0</ele><time>2026-04-18T08:26:16.999Z</time></trkpt><trkpt lat="43.52006978523074" lon="10.882984061117691"><ele>361.0</ele><time>2026-04-18T08:26:17.999Z</time></trkpt><trkpt lat="43.52017389818293" lon="10.883067506276582"><ele>361.0</ele><time>2026-04-18T08:26:18.999Z</time></trkpt><trkpt lat="43.52028352961258" lon="10.883133881630005"><ele>359.75</ele><time>2026-04-18T08:26:19.999Z</time></trkpt><trkpt lat="43.52040848923409" lon="10.883176065672314"><ele>358.5</ele><time>2026-04-18T08:26:20.999Z</time></trkpt><trkpt lat="43.52054013719462" lon="10.8831415333035"><ele>357.25</ele><time>2026-04-18T08:26:21.999Z</time></trkpt><trkpt lat="43.52063910754607" lon="10.883094345589315"><ele>356.0</ele><time>2026-04-18T08:26:22.999Z</time></trkpt><trkpt lat="43.52072815806639" lon="10.883039445335807"><ele>356.0</ele><time>2026-04-18T08:26:23.999Z</time></trkpt><trkpt lat="43.52083403542303" lon="10.88305978347652"><ele>356.0</ele><time>2026-04-18T08:26:24.999Z</time></trkpt><trkpt lat="43.52095952154572" lon="10.883122091112226"><ele>356.0</ele><time>2026-04-18T08:26:25.999Z</time></trkpt><trkpt lat="43.52106561120843" lon="10.883198064677101"><ele>356.0</ele><time>2026-04-18T08:26:26.999Z</time></trkpt><trkpt lat="43.52116581114643" lon="10.883285359742004"><ele>353.20000000000005</ele><time>2026-04-18T08:26:27.999Z</time></trkpt><trkpt lat="43.52124166722663" lon="10.883403120649723"><ele>350.40000000000003</ele><time>2026-04-18T08:26:28.999Z</time></trkpt><trkpt lat="43.521292608746734" lon="10.883558268198263"><ele>347.6</ele><time>2026-04-18T08:26:29.999Z</time></trkpt><trkpt lat="43.52131131359901" lon="10.883700535057576"><ele>344.8</ele><time>2026-04-18T08:26:30.999Z</time></trkpt><trkpt lat="43.521311503547004" lon="10.883841528061224"><ele>342.0</ele><time>2026-04-18T08:26:31.999Z</time></trkpt><trkpt lat="43.521280281306815" lon="10.883968457314595"><ele>345.8</ele><time>2026-04-18T08:26:32.999Z</time></trkpt><trkpt lat="43.521220312924456" lon="10.884083629675748"><ele>349.6</ele><time>2026-04-18T08:26:33.999Z</time></trkpt><trkpt lat="43.52116841159421" lon="10.88418757562623"><ele>353.40000000000003</ele><time>2026-04-18T08:26:34.999Z</time></trkpt><trkpt lat="43.521122975529025" lon="10.884319704097292"><ele>357.20000000000005</ele><time>2026-04-18T08:26:35.999Z</time></trkpt><trkpt lat="43.52108115861615" lon="10.88447365942618"><ele>361.0</ele><time>2026-04-18T08:26:36.999Z</time></trkpt><trkpt lat="43.521100628736626" lon="10.88467156789943"><ele>360.0</ele><time>2026-04-18T08:26:37.999Z</time></trkpt><trkpt lat="43.52115312481929" lon="10.88485856208667"><ele>359.0</ele><time>2026-04-18T08:26:38.999Z</time></trkpt><trkpt lat="43.52120576815067" lon="10.885037088110472"><ele>358.0</ele><time>2026-04-18T08:26:39.999Z</time></trkpt><trkpt lat="43.52126635703256" lon="10.885216241660673"><ele>357.0</ele><time>2026-04-18T08:26:40.999Z</time></trkpt><trkpt lat="43.521327868072525" lon="10.885370096948146"><ele>357.0</ele><time>2026-04-18T08:26:41.999Z</time></trkpt><trkpt lat="43.52141758686213" lon="10.885540674877252"><ele>357.0</ele><time>2026-04-18T08:26:42.999Z</time></trkpt><trkpt lat="43.52151558960761" lon="10.885710541890825"><ele>357.0</ele><time>2026-04-18T08:26:43.999Z</time></trkpt><trkpt lat="43.521623646351884" lon="10.885882977292178"><ele>360.25</ele><time>2026-04-18T08:26:44.999Z</time></trkpt><trkpt lat="43.52171085228447" lon="10.886048756214484"><ele>363.5</ele><time>2026-04-18T08:26:45.999Z</time></trkpt><trkpt lat="43.52177809847476" lon="10.886199696414934"><ele>366.75</ele><time>2026-04-18T08:26:46.999Z</time></trkpt><trkpt lat="43.52184204115352" lon="10.886363446760056"><ele>370.0</ele><time>2026-04-18T08:26:47.999Z</time></trkpt><trkpt lat="43.521900190984006" lon="10.886520463743855"><ele>370.0</ele><time>2026-04-18T08:26:48.999Z</time></trkpt><trkpt lat="43.52195734133781" lon="10.886676013141281"><ele>370.0</ele><time>2026-04-18T08:26:50Z</time></trkpt><trkpt lat="43.522014808394154" lon="10.886833363366343"><ele>370.0</ele><time>2026-04-18T08:26:51Z</time></trkpt><trkpt lat="43.52207315835141" lon="10.886993131107197"><ele>370.0</ele><time>2026-04-18T08:26:52Z</time></trkpt><trkpt lat="43.52212982985249" lon="10.887147148201981"><ele>370.5</ele><time>2026-04-18T08:26:53Z</time></trkpt><trkpt lat="43.522188982921485" lon="10.88730003409941"><ele>371.0</ele><time>2026-04-18T08:26:54Z</time></trkpt><trkpt lat="43.522242664644416" lon="10.887442523561607"><ele>371.5</ele><time>2026-04-18T08:26:55Z</time></trkpt><trkpt lat="43.522295779322995" lon="10.887591992452883"><ele>372.0</ele><time>2026-04-18T08:26:56Z</time></trkpt><trkpt lat="43.52233494852791" lon="10.887756497424485"><ele>372.0</ele><time>2026-04-18T08:26:57Z</time></trkpt><trkpt lat="43.52236176684377" lon="10.887925998756822"><ele>372.0</ele><time>2026-04-18T08:26:58Z</time></trkpt><trkpt lat="43.52237266776061" lon="10.888113575310499"><ele>372.0</ele><time>2026-04-18T08:26:59Z</time></trkpt><trkpt lat="43.52235866409795" lon="10.888302210045914"><ele>372.0</ele><time>2026-04-18T08:27:00Z</time></trkpt><trkpt lat="43.522340638887506" lon="10.888495068127648"><ele>374.0</ele><time>2026-04-18T08:27:01Z</time></trkpt><trkpt lat="43.52232276726221" lon="10.888691659479312"><ele>376.0</ele><time>2026-04-18T08:27:02Z</time></trkpt><trkpt lat="43.52230333721035" lon="10.8888936516619"><ele>378.0</ele><time>2026-04-18T08:27:03Z</time></trkpt><trkpt lat="43.52228192735443" lon="10.889092227638724"><ele>380.0</ele><time>2026-04-18T08:27:04Z</time></trkpt><trkpt lat="43.52226284895809" lon="10.889285380623502"><ele>382.0</ele><time>2026-04-18T08:27:05Z</time></trkpt><trkpt lat="43.522247666049275" lon="10.889471246536093"><ele>384.0</ele><time>2026-04-18T08:27:06Z</time></trkpt><trkpt lat="43.5222306154201" lon="10.889644420027295"><ele>386.0</ele><time>2026-04-18T08:27:07Z</time></trkpt><trkpt lat="43.52221090849344" lon="10.889798342270492"><ele>388.0</ele><time>2026-04-18T08:27:08Z</time></trkpt><trkpt lat="43.52219549602136" lon="10.88995585239578"><ele>389.0</ele><time>2026-04-18T08:27:09Z</time></trkpt><trkpt lat="43.52218641604414" lon="10.890116444042215"><ele>390.0</ele><time>2026-04-18T08:27:10Z</time></trkpt><trkpt lat="43.52218744854841" lon="10.890289705528822"><ele>391.0</ele><time>2026-04-18T08:27:11Z</time></trkpt><trkpt lat="43.52220403407752" lon="10.890457184774146"><ele>392.0</ele><time>2026-04-18T08:27:12Z</time></trkpt><trkpt lat="43.522243148051594" lon="10.890634924375126"><ele>392.0</ele><time>2026-04-18T08:27:13Z</time></trkpt><trkpt lat="43.52229352619185" lon="10.890819680977964"><ele>392.0</ele><time>2026-04-18T08:27:14Z</time></trkpt><trkpt lat="43.522351107117295" lon="10.89100828822079"><ele>392.0</ele><time>2026-04-18T08:27:15Z</time></trkpt><trkpt lat="43.52241116603738" lon="10.891195742109275"><ele>392.0</ele><time>2026-04-18T08:27:16Z</time></trkpt><trkpt lat="43.52246760276248" lon="10.8913807190114"><ele>393.0</ele><time>2026-04-18T08:27:17Z</time></trkpt><trkpt lat="43.522527681217795" lon="10.891563021139554"><ele>394.0</ele><time>2026-04-18T08:27:18Z</time></trkpt><trkpt lat="43.522589913064905" lon="10.891736540099153"><ele>395.0</ele><time>2026-04-18T08:27:19Z</time></trkpt><trkpt lat="43.52265485523444" lon="10.891907524705653"><ele>396.0</ele><time>2026-04-18T08:27:20Z</time></trkpt><trkpt lat="43.52270005348962" lon="10.892094199251284"><ele>397.0</ele><time>2026-04-18T08:27:21Z</time></trkpt><trkpt lat="43.522758010651" lon="10.892268354286593"><ele>398.0</ele><time>2026-04-18T08:27:22Z</time></trkpt><trkpt lat="43.52282850913915" lon="10.892441595077575"><ele>399.0</ele><time>2026-04-18T08:27:23Z</time></trkpt><trkpt lat="43.52288072332006" lon="10.892621454011863"><ele>400.0</ele><time>2026-04-18T08:27:24Z</time></trkpt><trkpt lat="43.52294405455313" lon="10.892808313915848"><ele>400.0</ele><time>2026-04-18T08:27:25Z</time></trkpt><trkpt lat="43.52300607671792" lon="10.89300464627641"><ele>400.0</ele><time>2026-04-18T08:27:26Z</time></trkpt><trkpt lat="43.52306684433896" lon="10.893202634124695"><ele>400.0</ele><time>2026-04-18T08:27:27Z</time></trkpt><trkpt lat="43.52312774083041" lon="10.893392256931818"><ele>402.0</ele><time>2026-04-18T08:27:28Z</time></trkpt><trkpt lat="43.523188565534156" lon="10.89357233086023"><ele>404.0</ele><time>2026-04-18T08:27:29Z</time></trkpt><trkpt lat="43.523230650845385" lon="10.893765773479725"><ele>406.0</ele><time>2026-04-18T08:27:30Z</time></trkpt><trkpt lat="43.52328586897357" lon="10.893949881528325"><ele>408.0</ele><time>2026-04-18T08:27:31Z</time></trkpt><trkpt lat="43.52333867696191" lon="10.894107850482396"><ele>406.5</ele><time>2026-04-18T08:27:32Z</time></trkpt><trkpt lat="43.52340758989107" lon="10.894289544070672"><ele>405.0</ele><time>2026-04-18T08:27:33Z</time></trkpt><trkpt lat="43.523482804038736" lon="10.894458616585403"><ele>403.5</ele><time>2026-04-18T08:27:34Z</time></trkpt><trkpt lat="43.52355297065338" lon="10.894624047068762"><ele>402.0</ele><time>2026-04-18T08:27:35Z</time></trkpt><trkpt lat="43.523622460664974" lon="10.894782747836357"><ele>402.0</ele><time>2026-04-18T08:27:36Z</time></trkpt><trkpt lat="43.52368983116832" lon="10.894946046642554"><ele>402.0</ele><time>2026-04-18T08:27:37Z</time></trkpt><trkpt lat="43.523744965089016" lon="10.895117748306768"><ele>402.0</ele><time>2026-04-18T08:27:38Z</time></trkpt><trkpt lat="43.52378836040834" lon="10.895292972390193"><ele>402.0</ele><time>2026-04-18T08:27:39Z</time></trkpt><trkpt lat="43.5238325931505" lon="10.895467028534606"><ele>403.25</ele><time>2026-04-18T08:27:40Z</time></trkpt><trkpt lat="43.52385443344601" lon="10.895641567311385"><ele>404.5</ele><time>2026-04-18T08:27:41Z</time></trkpt><trkpt lat="43.52389523805623" lon="10.895815462292104"><ele>405.75</ele><time>2026-04-18T08:27:42Z</time></trkpt><trkpt lat="43.523945114491994" lon="10.895958101024057"><ele>407.0</ele><time>2026-04-18T08:27:43Z</time></trkpt><trkpt lat="43.5239768858107" lon="10.896120669083349"><ele>408.25</ele><time>2026-04-18T08:27:44Z</time></trkpt><trkpt lat="43.52401579330495" lon="10.896290609544927"><ele>409.5</ele><time>2026-04-18T08:27:45Z</time></trkpt><trkpt lat="43.5240597471123" lon="10.896457762069458"><ele>410.75</ele><time>2026-04-18T08:27:45.999Z</time></trkpt><trkpt lat="43.52409479541825" lon="10.896640808484516"><ele>412.0</ele><time>2026-04-18T08:27:46.999Z</time></trkpt><trkpt lat="43.52411684862878" lon="10.896768132813339"><ele>412.25</ele><time>2026-04-18T08:27:47.999Z</time></trkpt><trkpt lat="43.524145941989005" lon="10.896918200106343"><ele>412.5</ele><time>2026-04-18T08:27:48.999Z</time></trkpt><trkpt lat="43.52418611488942" lon="10.897062648839587"><ele>412.75</ele><time>2026-04-18T08:27:49.999Z</time></trkpt><trkpt lat="43.52423146494543" lon="10.897207203325653"><ele>413.0</ele><time>2026-04-18T08:27:50.999Z</time></trkpt><trkpt lat="43.52426593084725" lon="10.89735358428656"><ele>413.0</ele><time>2026-04-18T08:27:51.999Z</time></trkpt><trkpt lat="43.52429471781793" lon="10.8974899328043"><ele>413.0</ele><time>2026-04-18T08:27:52.999Z</time></trkpt><trkpt lat="43.524315156229264" lon="10.897611070838794"><ele>413.0</ele><time>2026-04-18T08:27:53.999Z</time></trkpt><trkpt lat="43.524342746884386" lon="10.89773203985014"><ele>413.0</ele><time>2026-04-18T08:27:54.999Z</time></trkpt><trkpt lat="43.52436021089334" lon="10.897845723400506"><ele>413.0</ele><time>2026-04-18T08:27:55.999Z</time></trkpt><trkpt lat="43.524371693358326" lon="10.897960778164554"><ele>414.0</ele><time>2026-04-18T08:27:56.999Z</time></trkpt><trkpt lat="43.52434733108493" lon="10.89807121846639"><ele>415.0</ele><time>2026-04-18T08:27:57.999Z</time></trkpt><trkpt lat="43.52428567147906" lon="10.898165326613807"><ele>416.0</ele><time>2026-04-18T08:27:58.999Z</time></trkpt><trkpt lat="43.52420489692634" lon="10.898273537275731"><ele>417.0</ele><time>2026-04-18T08:27:59.999Z</time></trkpt><trkpt lat="43.52411672199858" lon="10.898390000607144"><ele>418.0</ele><time>2026-04-18T08:28:00.999Z</time></trkpt><trkpt lat="43.52402702715283" lon="10.898510342042634"><ele>420.5</ele><time>2026-04-18T08:28:01.999Z</time></trkpt><trkpt lat="43.52392883640248" lon="10.898635584221248"><ele>423.0</ele><time>2026-04-18T08:28:02.999Z</time></trkpt><trkpt lat="43.52382512233405" lon="10.898760638489774"><ele>425.5</ele><time>2026-04-18T08:28:03.999Z</time></trkpt><trkpt lat="43.52371988311413" lon="10.898893633248793"><ele>428.0</ele><time>2026-04-18T08:28:04.999Z</time></trkpt><trkpt lat="43.52361792341606" lon="10.899013263920121"><ele>427.5</ele><time>2026-04-18T08:28:05.999Z</time></trkpt><trkpt lat="43.52350968370794" lon="10.899129034175619"><ele>427.0</ele><time>2026-04-18T08:28:06.999Z</time></trkpt><trkpt lat="43.52339702918473" lon="10.899230927370093"><ele>426.5</ele><time>2026-04-18T08:28:07.999Z</time></trkpt><trkpt lat="43.52327993937144" lon="10.899331873515777"><ele>426.0</ele><time>2026-04-18T08:28:08.999Z</time></trkpt><trkpt lat="43.52316748088037" lon="10.899431240159098"><ele>426.0</ele><time>2026-04-18T08:28:09.999Z</time></trkpt><trkpt lat="43.52304730476139" lon="10.899511747350413"><ele>426.0</ele><time>2026-04-18T08:28:10.999Z</time></trkpt><trkpt lat="43.5229238855287" lon="10.899589368952087"><ele>426.0</ele><time>2026-04-18T08:28:11.999Z</time></trkpt><trkpt lat="43.522790382676014" lon="10.899649835081847"><ele>426.0</ele><time>2026-04-18T08:28:12.999Z</time></trkpt><trkpt lat="43.52264898715764" lon="10.899707625482396"><ele>426.66666666666663</ele><time>2026-04-18T08:28:13.999Z</time></trkpt><trkpt lat="43.52250210920956" lon="10.899765542593284"><ele>427.3333333333333</ele><time>2026-04-18T08:28:14.999Z</time></trkpt><trkpt lat="43.52235572634043" lon="10.899820635023966"><ele>428.0</ele><time>2026-04-18T08:28:15.999Z</time></trkpt><trkpt lat="43.52220735130305" lon="10.899880895962085"><ele>429.66666666666663</ele><time>2026-04-18T08:28:16.999Z</time></trkpt><trkpt lat="43.52205999218096" lon="10.899954655415138"><ele>431.33333333333337</ele><time>2026-04-18T08:28:17.999Z</time></trkpt><trkpt lat="43.52191439991203" lon="10.900037202918432"><ele>433.0</ele><time>2026-04-18T08:28:18.999Z</time></trkpt><trkpt lat="43.52177240772993" lon="10.90013825432949"><ele>433.0</ele><time>2026-04-18T08:28:19.999Z</time></trkpt><trkpt lat="43.521634609140804" lon="10.900269040375473"><ele>433.0</ele><time>2026-04-18T08:28:20.999Z</time></trkpt><trkpt lat="43.52149493567293" lon="10.900419898911858"><ele>433.0</ele><time>2026-04-18T08:28:21.999Z</time></trkpt><trkpt lat="43.52136052462686" lon="10.900573716130435"><ele>435.0</ele><time>2026-04-18T08:28:22.999Z</time></trkpt><trkpt lat="43.52122451656487" lon="10.900717692977114"><ele>437.0</ele><time>2026-04-18T08:28:23.999Z</time></trkpt><trkpt lat="43.52108628858609" lon="10.900864830472928"><ele>439.0</ele><time>2026-04-18T08:28:24.999Z</time></trkpt><trkpt lat="43.52095571629529" lon="10.901011636146146"><ele>439.0</ele><time>2026-04-18T08:28:25.999Z</time></trkpt><trkpt lat="43.52082715101752" lon="10.901154633204824"><ele>439.0</ele><time>2026-04-18T08:28:26.999Z</time></trkpt><trkpt lat="43.52070365158482" lon="10.901294450709171"><ele>439.0</ele><time>2026-04-18T08:28:27.999Z</time></trkpt><trkpt lat="43.520576852751994" lon="10.901424260174426"><ele>439.0</ele><time>2026-04-18T08:28:28.999Z</time></trkpt><trkpt lat="43.52045626903379" lon="10.901556678131294"><ele>439.0</ele><time>2026-04-18T08:28:29.999Z</time></trkpt><trkpt lat="43.520335858431245" lon="10.901687822077168"><ele>439.0</ele><time>2026-04-18T08:28:30.999Z</time></trkpt><trkpt lat="43.52021981624898" lon="10.90181580825356"><ele>438.25</ele><time>2026-04-18T08:28:31.999Z</time></trkpt><trkpt lat="43.52010827226049" lon="10.901941202897655"><ele>437.5</ele><time>2026-04-18T08:28:32.999Z</time></trkpt><trkpt lat="43.52000169038012" lon="10.902062057074088"><ele>436.75</ele><time>2026-04-18T08:28:33.999Z</time></trkpt><trkpt lat="43.51989243269912" lon="10.902180685211889"><ele>436.0</ele><time>2026-04-18T08:28:34.999Z</time></trkpt><trkpt lat="43.5197728880505" lon="10.902294121030177"><ele>436.0</ele><time>2026-04-18T08:28:35.999Z</time></trkpt><trkpt lat="43.519647394723755" lon="10.90239524845691"><ele>436.0</ele><time>2026-04-18T08:28:36.999Z</time></trkpt><trkpt lat="43.519514854150884" lon="10.902486412200972"><ele>436.0</ele><time>2026-04-18T08:28:37.999Z</time></trkpt><trkpt lat="43.51937305525839" lon="10.902557369458904"><ele>436.0</ele><time>2026-04-18T08:28:38.999Z</time></trkpt><trkpt lat="43.519222100899405" lon="10.902610549972525"><ele>438.0</ele><time>2026-04-18T08:28:39.999Z</time></trkpt><trkpt lat="43.51906450574712" lon="10.902644751782004"><ele>440.0</ele><time>2026-04-18T08:28:40.999Z</time></trkpt><trkpt lat="43.518904487677126" lon="10.902663961510193"><ele>442.0</ele><time>2026-04-18T08:28:41.999Z</time></trkpt><trkpt lat="43.51874461063391" lon="10.90266792225282"><ele>441.6666666666667</ele><time>2026-04-18T08:28:42.999Z</time></trkpt><trkpt lat="43.518585027258126" lon="10.902671493582277"><ele>441.33333333333337</ele><time>2026-04-18T08:28:43.999Z</time></trkpt><trkpt lat="43.51842364929557" lon="10.902675277467386"><ele>441.0</ele><time>2026-04-18T08:28:44.999Z</time></trkpt><trkpt lat="43.51827030612031" lon="10.902682819486374"><ele>441.0</ele><time>2026-04-18T08:28:45.999Z</time></trkpt><trkpt lat="43.518137206155984" lon="10.902687590313066"><ele>441.0</ele><time>2026-04-18T08:28:46.999Z</time></trkpt><trkpt lat="43.51800656530993" lon="10.902697860770278"><ele>441.0</ele><time>2026-04-18T08:28:47.999Z</time></trkpt><trkpt lat="43.51788170286586" lon="10.902705228786136"><ele>441.0</ele><time>2026-04-18T08:28:48.999Z</time></trkpt><trkpt lat="43.51775045414687" lon="10.902701366034826"><ele>443.0</ele><time>2026-04-18T08:28:49.999Z</time></trkpt><trkpt lat="43.517613269550615" lon="10.902693529747953"><ele>445.0</ele><time>2026-04-18T08:28:50.999Z</time></trkpt><trkpt lat="43.517476701929944" lon="10.902673749035088"><ele>447.0</ele><time>2026-04-18T08:28:51.999Z</time></trkpt><trkpt lat="43.51734117156768" lon="10.902625689670865"><ele>449.0</ele><time>2026-04-18T08:28:52.999Z</time></trkpt><trkpt lat="43.517210174862505" lon="10.902542722389633"><ele>449.0</ele><time>2026-04-18T08:28:53.999Z</time></trkpt><trkpt lat="43.51708909147562" lon="10.902432248043786"><ele>449.0</ele><time>2026-04-18T08:28:54.999Z</time></trkpt><trkpt lat="43.516975763750246" lon="10.90230353957496"><ele>449.0</ele><time>2026-04-18T08:28:56Z</time></trkpt><trkpt lat="43.51686643274591" lon="10.9021687066455"><ele>449.0</ele><time>2026-04-18T08:28:57Z</time></trkpt><trkpt lat="43.51675446446974" lon="10.902032657920524"><ele>451.75</ele><time>2026-04-18T08:28:58Z</time></trkpt><trkpt lat="43.51664071895708" lon="10.901895469489874"><ele>454.5</ele><time>2026-04-18T08:28:59Z</time></trkpt><trkpt lat="43.516529215354055" lon="10.901758785704226"><ele>457.25</ele><time>2026-04-18T08:29:00Z</time></trkpt><trkpt lat="43.51641649410578" lon="10.901625524964285"><ele>460.0</ele><time>2026-04-18T08:29:01Z</time></trkpt><trkpt lat="43.516291486840586" lon="10.90150042508208"><ele>461.33333333333337</ele><time>2026-04-18T08:29:02Z</time></trkpt><trkpt lat="43.51616965030364" lon="10.90138326255232"><ele>462.66666666666663</ele><time>2026-04-18T08:29:03Z</time></trkpt><trkpt lat="43.5160348812998" lon="10.901279701387276"><ele>464.0</ele><time>2026-04-18T08:29:04Z</time></trkpt><trkpt lat="43.51589798023817" lon="10.901181230981896"><ele>464.0</ele><time>2026-04-18T08:29:05Z</time></trkpt><trkpt lat="43.51575580395553" lon="10.901083745560284"><ele>464.0</ele><time>2026-04-18T08:29:06Z</time></trkpt><trkpt lat="43.51562105301788" lon="10.900990632650661"><ele>464.0</ele><time>2026-04-18T08:29:07Z</time></trkpt><trkpt lat="43.515484263199" lon="10.900894025577013"><ele>467.0</ele><time>2026-04-18T08:29:08Z</time></trkpt><trkpt lat="43.51534426976017" lon="10.900802439971976"><ele>470.0</ele><time>2026-04-18T08:29:09Z</time></trkpt><trkpt lat="43.515199338590556" lon="10.90071381808473"><ele>473.0</ele><time>2026-04-18T08:29:10Z</time></trkpt><trkpt lat="43.515059056716595" lon="10.900622198599564"><ele>473.0</ele><time>2026-04-18T08:29:11Z</time></trkpt><trkpt lat="43.51491966115005" lon="10.90053567142012"><ele>473.0</ele><time>2026-04-18T08:29:12Z</time></trkpt><trkpt lat="43.51478021244586" lon="10.900451330950462"><ele>473.0</ele><time>2026-04-18T08:29:13Z</time></trkpt><trkpt lat="43.51464637416283" lon="10.900370352920646"><ele>474.25</ele><time>2026-04-18T08:29:14Z</time></trkpt><trkpt lat="43.5145149851412" lon="10.900285380880625"><ele>475.5</ele><time>2026-04-18T08:29:15Z</time></trkpt><trkpt lat="43.51438894774626" lon="10.900186140334663"><ele>476.75</ele><time>2026-04-18T08:29:16Z</time></trkpt><trkpt lat="43.514266823455245" lon="10.900069655612302"><ele>478.0</ele><time>2026-04-18T08:29:17Z</time></trkpt><trkpt lat="43.514138743615156" lon="10.899947229700848"><ele>478.0</ele><time>2026-04-18T08:29:18Z</time></trkpt><trkpt lat="43.51402626153963" lon="10.899819860882294"><ele>478.0</ele><time>2026-04-18T08:29:19Z</time></trkpt><trkpt lat="43.51390044842211" lon="10.899684429149234"><ele>478.0</ele><time>2026-04-18T08:29:20Z</time></trkpt><trkpt lat="43.51378780391643" lon="10.899559392300255"><ele>477.5</ele><time>2026-04-18T08:29:21Z</time></trkpt><trkpt lat="43.51367106698539" lon="10.899431879917508"><ele>477.0</ele><time>2026-04-18T08:29:22Z</time></trkpt><trkpt lat="43.51355861722425" lon="10.899314926039988"><ele>476.5</ele><time>2026-04-18T08:29:23Z</time></trkpt><trkpt lat="43.51344038623243" lon="10.899196666382135"><ele>476.0</ele><time>2026-04-18T08:29:24Z</time></trkpt><trkpt lat="43.513311107104435" lon="10.899100368137042"><ele>476.66666666666663</ele><time>2026-04-18T08:29:25Z</time></trkpt><trkpt lat="43.513169373678316" lon="10.89901643064203"><ele>477.33333333333337</ele><time>2026-04-18T08:29:26Z</time></trkpt><trkpt lat="43.51303462089895" lon="10.898957612051321"><ele>478.0</ele><time>2026-04-18T08:29:27Z</time></trkpt><trkpt lat="43.512883392415745" lon="10.898914699033782"><ele>478.0</ele><time>2026-04-18T08:29:28Z</time></trkpt><trkpt lat="43.5127251336791" lon="10.898900330845047"><ele>478.0</ele><time>2026-04-18T08:29:29Z</time></trkpt><trkpt lat="43.51256484359793" lon="10.898918938038442"><ele>478.0</ele><time>2026-04-18T08:29:30Z</time></trkpt><trkpt lat="43.512415749719246" lon="10.898985507478063"><ele>478.0</ele><time>2026-04-18T08:29:31Z</time></trkpt><trkpt lat="43.51227517023176" lon="10.899079379361103"><ele>478.0</ele><time>2026-04-18T08:29:32Z</time></trkpt><trkpt lat="43.51214853951546" lon="10.899184477406939"><ele>478.0</ele><time>2026-04-18T08:29:33Z</time></trkpt><trkpt lat="43.51203457276138" lon="10.899319145094891"><ele>480.33333333333337</ele><time>2026-04-18T08:29:34Z</time></trkpt><trkpt lat="43.5119245211045" lon="10.899457235237502"><ele>482.66666666666663</ele><time>2026-04-18T08:29:35Z</time></trkpt><trkpt lat="43.511844098492624" lon="10.899634575657117"><ele>485.0</ele><time>2026-04-18T08:29:36Z</time></trkpt><trkpt lat="43.51178658232909" lon="10.89984815479178"><ele>485.0</ele><time>2026-04-18T08:29:37Z</time></trkpt><trkpt lat="43.51175571991875" lon="10.900077388970447"><ele>485.0</ele><time>2026-04-18T08:29:38Z</time></trkpt><trkpt lat="43.511744445002634" lon="10.900309834650937"><ele>485.0</ele><time>2026-04-18T08:29:39Z</time></trkpt><trkpt lat="43.51174980163568" lon="10.900549835747897"><ele>484.66666666666663</ele><time>2026-04-18T08:29:40Z</time></trkpt><trkpt lat="43.51176927481362" lon="10.900784696231693"><ele>484.33333333333337</ele><time>2026-04-18T08:29:41Z</time></trkpt><trkpt lat="43.511827208895895" lon="10.901023819765879"><ele>484.0</ele><time>2026-04-18T08:29:42Z</time></trkpt><trkpt lat="43.511883792319146" lon="10.901252841855165"><ele>484.0</ele><time>2026-04-18T08:29:43Z</time></trkpt><trkpt lat="43.51193754573848" lon="10.90147721142208"><ele>484.0</ele><time>2026-04-18T08:29:44Z</time></trkpt><trkpt lat="43.51200851494822" lon="10.901688168732683"><ele>484.0</ele><time>2026-04-18T08:29:45Z</time></trkpt><trkpt lat="43.512081189176406" lon="10.901902788862937"><ele>483.6666666666667</ele><time>2026-04-18T08:29:46Z</time></trkpt><trkpt lat="43.5121429471156" lon="10.902122276843118"><ele>483.33333333333337</ele><time>2026-04-18T08:29:47Z</time></trkpt><trkpt lat="43.51218414350417" lon="10.90235168872094"><ele>483.0</ele><time>2026-04-18T08:29:48Z</time></trkpt><trkpt lat="43.512202427127676" lon="10.902577537719324"><ele>483.33333333333337</ele><time>2026-04-18T08:29:49Z</time></trkpt><trkpt lat="43.51220361804776" lon="10.902806413724916"><ele>483.6666666666667</ele><time>2026-04-18T08:29:50Z</time></trkpt><trkpt lat="43.5121876807286" lon="10.903041510808864"><ele>484.0</ele><time>2026-04-18T08:29:51Z</time></trkpt><trkpt lat="43.512184996069564" lon="10.903278350317153"><ele>484.33333333333337</ele><time>2026-04-18T08:29:52Z</time></trkpt><trkpt lat="43.51216664923381" lon="10.903517302989764"><ele>484.66666666666663</ele><time>2026-04-18T08:29:53Z</time></trkpt><trkpt lat="43.51214551970551" lon="10.90371421561289"><ele>485.0</ele><time>2026-04-18T08:29:54Z</time></trkpt><trkpt lat="43.5121253853811" lon="10.903914811129333"><ele>485.0</ele><time>2026-04-18T08:29:55Z</time></trkpt><trkpt lat="43.51209302467041" lon="10.904108622575478"><ele>485.0</ele><time>2026-04-18T08:29:56Z</time></trkpt><trkpt lat="43.51203620533801" lon="10.904290866841778"><ele>485.0</ele><time>2026-04-18T08:29:56.999Z</time></trkpt><trkpt lat="43.51194913531393" lon="10.904452760573895"><ele>485.0</ele><time>2026-04-18T08:29:57.999Z</time></trkpt><trkpt lat="43.51184099599932" lon="10.904589614083914"><ele>486.25</ele><time>2026-04-18T08:29:58.999Z</time></trkpt><trkpt lat="43.51171907379865" lon="10.904698983210723"><ele>487.5</ele><time>2026-04-18T08:29:59.999Z</time></trkpt><trkpt lat="43.511586272286806" lon="10.904771136472649"><ele>488.75</ele><time>2026-04-18T08:30:00.999Z</time></trkpt><trkpt lat="43.51144168803427" lon="10.904819328364912"><ele>490.0</ele><time>2026-04-18T08:30:01.999Z</time></trkpt><trkpt lat="43.511295838046166" lon="10.90486350452143"><ele>489.5</ele><time>2026-04-18T08:30:02.999Z</time></trkpt><trkpt lat="43.51115367069934" lon="10.904914651591975"><ele>489.0</ele><time>2026-04-18T08:30:03.999Z</time></trkpt><trkpt lat="43.51101159299269" lon="10.904963351000722"><ele>488.5</ele><time>2026-04-18T08:30:04.999Z</time></trkpt><trkpt lat="43.510864344791635" lon="10.905020496380427"><ele>488.0</ele><time>2026-04-18T08:30:05.999Z</time></trkpt><trkpt lat="43.51071687255353" lon="10.90507163049199"><ele>487.0</ele><time>2026-04-18T08:30:06.999Z</time></trkpt><trkpt lat="43.51055896433927" lon="10.905129652407384"><ele>486.0</ele><time>2026-04-18T08:30:07.999Z</time></trkpt><trkpt lat="43.510390957783784" lon="10.905189902138055"><ele>485.0</ele><time>2026-04-18T08:30:08.999Z</time></trkpt><trkpt lat="43.51021607766107" lon="10.905256623865418"><ele>487.0</ele><time>2026-04-18T08:30:09.999Z</time></trkpt><trkpt lat="43.51003997516984" lon="10.905321201651676"><ele>489.0</ele><time>2026-04-18T08:30:10.999Z</time></trkpt><trkpt lat="43.50986599339562" lon="10.905379112334996"><ele>491.0</ele><time>2026-04-18T08:30:11.999Z</time></trkpt><trkpt lat="43.50970316305282" lon="10.905432839533196"><ele>493.66666666666663</ele><time>2026-04-18T08:30:12.999Z</time></trkpt><trkpt lat="43.50953925084918" lon="10.905489874071359"><ele>496.33333333333337</ele><time>2026-04-18T08:30:13.999Z</time></trkpt><trkpt lat="43.50937604968031" lon="10.905548322472967"><ele>499.0</ele><time>2026-04-18T08:30:14.999Z</time></trkpt><trkpt lat="43.50921074932685" lon="10.905605851274105"><ele>499.0</ele><time>2026-04-18T08:30:15.999Z</time></trkpt><trkpt lat="43.50905577124722" lon="10.905659511062915"><ele>499.0</ele><time>2026-04-18T08:30:16.999Z</time></trkpt><trkpt lat="43.50891343861911" lon="10.9057090438706"><ele>499.0</ele><time>2026-04-18T08:30:17.999Z</time></trkpt><trkpt lat="43.50877094107002" lon="10.90575763489179"><ele>501.0</ele><time>2026-04-18T08:30:18.999Z</time></trkpt><trkpt lat="43.50862074061982" lon="10.905809558463694"><ele>503.0</ele><time>2026-04-18T08:30:19.999Z</time></trkpt><trkpt lat="43.50846897337755" lon="10.905867179861358"><ele>505.0</ele><time>2026-04-18T08:30:20.999Z</time></trkpt><trkpt lat="43.50831815330878" lon="10.905921500909699"><ele>505.5</ele><time>2026-04-18T08:30:21.999Z</time></trkpt><trkpt lat="43.50817399019077" lon="10.905971122277625"><ele>506.0</ele><time>2026-04-18T08:30:22.999Z</time></trkpt><trkpt lat="43.50803164911646" lon="10.906019658608031"><ele>506.5</ele><time>2026-04-18T08:30:23.999Z</time></trkpt><trkpt lat="43.507890200685914" lon="10.906072619708798"><ele>507.0</ele><time>2026-04-18T08:30:24.999Z</time></trkpt><trkpt lat="43.507746525670214" lon="10.906137181921377"><ele>508.0</ele><time>2026-04-18T08:30:25.999Z</time></trkpt><trkpt lat="43.50760522441062" lon="10.90623170426154"><ele>509.0</ele><time>2026-04-18T08:30:26.999Z</time></trkpt><trkpt lat="43.50747338385801" lon="10.90634595766592"><ele>510.0</ele><time>2026-04-18T08:30:27.999Z</time></trkpt><trkpt lat="43.50734359962284" lon="10.906481405205662"><ele>510.0</ele><time>2026-04-18T08:30:28.999Z</time></trkpt><trkpt lat="43.50721092050791" lon="10.906624528441908"><ele>510.0</ele><time>2026-04-18T08:30:29.999Z</time></trkpt><trkpt lat="43.50707760011555" lon="10.906773131803783"><ele>510.0</ele><time>2026-04-18T08:30:30.999Z</time></trkpt><trkpt lat="43.50694614218052" lon="10.906924446799701"><ele>513.3333333333334</ele><time>2026-04-18T08:30:31.999Z</time></trkpt><trkpt lat="43.506821565223966" lon="10.907065800112049"><ele>516.6666666666667</ele><time>2026-04-18T08:30:32.999Z</time></trkpt><trkpt lat="43.50669869286615" lon="10.907202460394165"><ele>520.0</ele><time>2026-04-18T08:30:33.999Z</time></trkpt><trkpt lat="43.50657437323055" lon="10.907340810933677"><ele>520.0</ele><time>2026-04-18T08:30:34.999Z</time></trkpt><trkpt lat="43.5064517829096" lon="10.907476152259575"><ele>520.0</ele><time>2026-04-18T08:30:35.999Z</time></trkpt><trkpt lat="43.506334395012125" lon="10.907609794273641"><ele>520.0</ele><time>2026-04-18T08:30:36.999Z</time></trkpt><trkpt lat="43.50622227099367" lon="10.907733911556234"><ele>521.0</ele><time>2026-04-18T08:30:37.999Z</time></trkpt><trkpt lat="43.5061100156171" lon="10.90785241793956"><ele>522.0</ele><time>2026-04-18T08:30:38.999Z</time></trkpt><trkpt lat="43.505994629880405" lon="10.907954889818086"><ele>523.0</ele><time>2026-04-18T08:30:39.999Z</time></trkpt><trkpt lat="43.50584942513118" lon="10.908044058396358"><ele>524.0</ele><time>2026-04-18T08:30:40.999Z</time></trkpt><trkpt lat="43.50568677243371" lon="10.908100546297735"><ele>524.0</ele><time>2026-04-18T08:30:41.999Z</time></trkpt><trkpt lat="43.505522230037194" lon="10.908145739104787"><ele>524.0</ele><time>2026-04-18T08:30:42.999Z</time></trkpt><trkpt lat="43.505352207149194" lon="10.908156408623354"><ele>524.0</ele><time>2026-04-18T08:30:43.999Z</time></trkpt><trkpt lat="43.50518413764836" lon="10.908126863160872"><ele>525.3333333333333</ele><time>2026-04-18T08:30:44.999Z</time></trkpt><trkpt lat="43.5050199356396" lon="10.908089130899912"><ele>526.6666666666666</ele><time>2026-04-18T08:30:45.999Z</time></trkpt><trkpt lat="43.50485252224046" lon="10.908069250427697"><ele>528.0</ele><time>2026-04-18T08:30:46.999Z</time></trkpt><trkpt lat="43.50467927041492" lon="10.908044302210946"><ele>530.0</ele><time>2026-04-18T08:30:47.999Z</time></trkpt><trkpt lat="43.504514256972705" lon="10.908018189322597"><ele>532.0</ele><time>2026-04-18T08:30:48.999Z</time></trkpt><trkpt lat="43.50435376086311" lon="10.907996511854881"><ele>534.0</ele><time>2026-04-18T08:30:49.999Z</time></trkpt><trkpt lat="43.5042068456624" lon="10.907976124505545"><ele>534.0</ele><time>2026-04-18T08:30:50.999Z</time></trkpt><trkpt lat="43.504068054918946" lon="10.907956317770449"><ele>534.0</ele><time>2026-04-18T08:30:51.999Z</time></trkpt><trkpt lat="43.50392711577008" lon="10.907933831535297"><ele>534.0</ele><time>2026-04-18T08:30:52.999Z</time></trkpt><trkpt lat="43.503786725758225" lon="10.907913786329013"><ele>534.0</ele><time>2026-04-18T08:30:53.999Z</time></trkpt><trkpt lat="43.50364076643428" lon="10.907894470766957"><ele>534.6666666666666</ele><time>2026-04-18T08:30:54.999Z</time></trkpt><trkpt lat="43.50349062911072" lon="10.907870454604167"><ele>535.3333333333333</ele><time>2026-04-18T08:30:55.999Z</time></trkpt><trkpt lat="43.50333497327887" lon="10.907848656489413"><ele>536.0</ele><time>2026-04-18T08:30:56.999Z</time></trkpt><trkpt lat="43.50318204422508" lon="10.907825113990793"><ele>536.0</ele><time>2026-04-18T08:30:57.999Z</time></trkpt><trkpt lat="43.50302339078306" lon="10.907804575758512"><ele>536.0</ele><time>2026-04-18T08:30:58.999Z</time></trkpt><trkpt lat="43.50286585387694" lon="10.907781835070839"><ele>536.0</ele><time>2026-04-18T08:30:59.999Z</time></trkpt><trkpt lat="43.50271128728102" lon="10.90776252000201"><ele>535.5</ele><time>2026-04-18T08:31:00.999Z</time></trkpt><trkpt lat="43.50255745607402" lon="10.907740924360608"><ele>535.0</ele><time>2026-04-18T08:31:02Z</time></trkpt><trkpt lat="43.50241512959047" lon="10.90771570132275"><ele>534.5</ele><time>2026-04-18T08:31:03Z</time></trkpt><trkpt lat="43.50227122760188" lon="10.907689793546611"><ele>534.0</ele><time>2026-04-18T08:31:04Z</time></trkpt><trkpt lat="43.502125310681755" lon="10.907669333625085"><ele>534.75</ele><time>2026-04-18T08:31:05Z</time></trkpt><trkpt lat="43.50198189777238" lon="10.90765656490188"><ele>535.5</ele><time>2026-04-18T08:31:06Z</time></trkpt><trkpt lat="43.501838610271385" lon="10.907660340525984"><ele>536.25</ele><time>2026-04-18T08:31:07Z</time></trkpt><trkpt lat="43.50169681707178" lon="10.907700668818924"><ele>537.0</ele><time>2026-04-18T08:31:08Z</time></trkpt><trkpt lat="43.50155895415788" lon="10.907773480636372"><ele>537.0</ele><time>2026-04-18T08:31:09Z</time></trkpt><trkpt lat="43.50142754832094" lon="10.907872793426899"><ele>537.0</ele><time>2026-04-18T08:31:10Z</time></trkpt><trkpt lat="43.50131635353276" lon="10.908014872724682"><ele>537.0</ele><time>2026-04-18T08:31:11Z</time></trkpt><trkpt lat="43.501221523838794" lon="10.908149200773249"><ele>537.0</ele><time>2026-04-18T08:31:12Z</time></trkpt><trkpt lat="43.501131857761635" lon="10.908307818945564"><ele>538.6666666666666</ele><time>2026-04-18T08:31:13Z</time></trkpt><trkpt lat="43.501045334538844" lon="10.90847007129879"><ele>540.3333333333333</ele><time>2026-04-18T08:31:14Z</time></trkpt><trkpt lat="43.500960925559724" lon="10.90864449050514"><ele>542.0</ele><time>2026-04-18T08:31:15Z</time></trkpt><trkpt lat="43.500884086531414" lon="10.908834490015288"><ele>542.0</ele><time>2026-04-18T08:31:16Z</time></trkpt><trkpt lat="43.50081455042231" lon="10.909047727101418"><ele>542.0</ele><time>2026-04-18T08:31:17Z</time></trkpt><trkpt lat="43.50075667487752" lon="10.909261542826735"><ele>542.0</ele><time>2026-04-18T08:31:18Z</time></trkpt><trkpt lat="43.50070725066869" lon="10.90945598644443"><ele>542.0</ele><time>2026-04-18T08:31:19Z</time></trkpt><trkpt lat="43.500660590326895" lon="10.909640067600439"><ele>542.0</ele><time>2026-04-18T08:31:20Z</time></trkpt><trkpt lat="43.50061434456728" lon="10.909817833303942"><ele>542.0</ele><time>2026-04-18T08:31:21Z</time></trkpt><trkpt lat="43.50058128698362" lon="10.909984683063751"><ele>542.0</ele><time>2026-04-18T08:31:22Z</time></trkpt><trkpt lat="43.5005615250913" lon="10.91015883586177"><ele>543.0</ele><time>2026-04-18T08:31:23Z</time></trkpt><trkpt lat="43.500559188043546" lon="10.910345777721053"><ele>544.0</ele><time>2026-04-18T08:31:24Z</time></trkpt><trkpt lat="43.500579767406514" lon="10.910539770758911"><ele>545.0</ele><time>2026-04-18T08:31:25Z</time></trkpt><trkpt lat="43.50061084101975" lon="10.910733232111177"><ele>546.0</ele><time>2026-04-18T08:31:26Z</time></trkpt><trkpt lat="43.50064520655779" lon="10.910931808873821"><ele>546.0</ele><time>2026-04-18T08:31:27Z</time></trkpt><trkpt lat="43.500680452793596" lon="10.911128774898675"><ele>546.0</ele><time>2026-04-18T08:31:28Z</time></trkpt><trkpt lat="43.50071616297678" lon="10.911321919187728"><ele>546.0</ele><time>2026-04-18T08:31:29Z</time></trkpt><trkpt lat="43.50075146566376" lon="10.911522176756169"><ele>546.0</ele><time>2026-04-18T08:31:30Z</time></trkpt><trkpt lat="43.50077620068956" lon="10.911723925457249"><ele>544.75</ele><time>2026-04-18T08:31:31Z</time></trkpt><trkpt lat="43.50077656538345" lon="10.911911614589885"><ele>543.5</ele><time>2026-04-18T08:31:32Z</time></trkpt><trkpt lat="43.500742556192094" lon="10.912101392072207"><ele>542.25</ele><time>2026-04-18T08:31:33Z</time></trkpt><trkpt lat="43.50068291772818" lon="10.912309827021293"><ele>541.0</ele><time>2026-04-18T08:31:34Z</time></trkpt><trkpt lat="43.50061258806402" lon="10.912518386708621"><ele>539.6666666666667</ele><time>2026-04-18T08:31:35Z</time></trkpt><trkpt lat="43.500535175020175" lon="10.912744730020009"><ele>538.3333333333334</ele><time>2026-04-18T08:31:36Z</time></trkpt><trkpt lat="43.50047009075698" lon="10.91297618928302"><ele>537.0</ele><time>2026-04-18T08:31:37Z</time></trkpt><trkpt lat="43.50036754452972" lon="10.913185394816024"><ele>537.0</ele><time>2026-04-18T08:31:38Z</time></trkpt><trkpt lat="43.500274698740654" lon="10.913386474575367"><ele>537.0</ele><time>2026-04-18T08:31:39Z</time></trkpt><trkpt lat="43.50018061180172" lon="10.91357985988039"><ele>537.0</ele><time>2026-04-18T08:31:40Z</time></trkpt><trkpt lat="43.50009578514437" lon="10.913760575606968"><ele>537.3333333333334</ele><time>2026-04-18T08:31:41Z</time></trkpt><trkpt lat="43.50000751178872" lon="10.913934236005224"><ele>537.6666666666667</ele><time>2026-04-18T08:31:42Z</time></trkpt><trkpt lat="43.4999276356014" lon="10.914122996767171"><ele>538.0</ele><time>2026-04-18T08:31:43Z</time></trkpt><trkpt lat="43.499866158252665" lon="10.914295196150766"><ele>538.0</ele><time>2026-04-18T08:31:44Z</time></trkpt><trkpt lat="43.49983426741957" lon="10.91449646078443"><ele>538.0</ele><time>2026-04-18T08:31:45Z</time></trkpt><trkpt lat="43.49983537909265" lon="10.914716988142283"><ele>538.0</ele><time>2026-04-18T08:31:46Z</time></trkpt><trkpt lat="43.49985909798455" lon="10.914954994365823"><ele>537.6666666666667</ele><time>2026-04-18T08:31:47Z</time></trkpt><trkpt lat="43.499891888841006" lon="10.915190242084124"><ele>537.3333333333334</ele><time>2026-04-18T08:31:48Z</time></trkpt><trkpt lat="43.49992187942877" lon="10.915399756968146"><ele>537.0</ele><time>2026-04-18T08:31:49Z</time></trkpt><trkpt lat="43.49994569441087" lon="10.915594034677294"><ele>537.0</ele><time>2026-04-18T08:31:50Z</time></trkpt><trkpt lat="43.499967964389626" lon="10.915795335803297"><ele>537.0</ele><time>2026-04-18T08:31:51Z</time></trkpt><trkpt lat="43.49998391416242" lon="10.915995229546487"><ele>537.0</ele><time>2026-04-18T08:31:52Z</time></trkpt><trkpt lat="43.49998795658384" lon="10.916204939528015"><ele>537.0</ele><time>2026-04-18T08:31:53Z</time></trkpt><trkpt lat="43.49996199150147" lon="10.916408282227627"><ele>536.3333333333334</ele><time>2026-04-18T08:31:54Z</time></trkpt><trkpt lat="43.499880159743036" lon="10.91658035330989"><ele>535.6666666666667</ele><time>2026-04-18T08:31:55Z</time></trkpt><trkpt lat="43.499793334594656" lon="10.916745825084663"><ele>535.0</ele><time>2026-04-18T08:31:56Z</time></trkpt><trkpt lat="43.49966521228316" lon="10.916864603184475"><ele>537.0</ele><time>2026-04-18T08:31:57Z</time></trkpt><trkpt lat="43.49952804935512" lon="10.916959893719131"><ele>539.0</ele><time>2026-04-18T08:31:58Z</time></trkpt><trkpt lat="43.49939716457122" lon="10.917060279195791"><ele>541.0</ele><time>2026-04-18T08:31:59Z</time></trkpt><trkpt lat="43.49927464698175" lon="10.917161411725575"><ele>543.0</ele><time>2026-04-18T08:32:00Z</time></trkpt><trkpt lat="43.499151265479696" lon="10.9172601356326"><ele>543.0</ele><time>2026-04-18T08:32:01Z</time></trkpt><trkpt lat="43.49902729831533" lon="10.917360194511991"><ele>543.0</ele><time>2026-04-18T08:32:02Z</time></trkpt><trkpt lat="43.49890660801869" lon="10.917454990872582"><ele>543.0</ele><time>2026-04-18T08:32:03Z</time></trkpt><trkpt lat="43.49878920047415" lon="10.917552861774274"><ele>543.0</ele><time>2026-04-18T08:32:03.999Z</time></trkpt><trkpt lat="43.49866634506474" lon="10.917633131293002"><ele>541.75</ele><time>2026-04-18T08:32:04.999Z</time></trkpt><trkpt lat="43.498526691751" lon="10.917663102437595"><ele>540.5</ele><time>2026-04-18T08:32:05.999Z</time></trkpt><trkpt lat="43.49839587476017" lon="10.917707442561214"><ele>539.25</ele><time>2026-04-18T08:32:06.999Z</time></trkpt><trkpt lat="43.49826614335595" lon="10.91772104467412"><ele>538.0</ele><time>2026-04-18T08:32:07.999Z</time></trkpt><trkpt lat="43.498145854292424" lon="10.917762937011169"><ele>538.0</ele><time>2026-04-18T08:32:08.999Z</time></trkpt><trkpt lat="43.49802400502065" lon="10.917821842058158"><ele>538.0</ele><time>2026-04-18T08:32:09.999Z</time></trkpt><trkpt lat="43.49795939418734" lon="10.917965630853422"><ele>538.0</ele><time>2026-04-18T08:32:10.999Z</time></trkpt><trkpt lat="43.49791361388314" lon="10.91812925096665"><ele>538.0</ele><time>2026-04-18T08:32:11.999Z</time></trkpt><trkpt lat="43.497869735763324" lon="10.918307655520016"><ele>538.0</ele><time>2026-04-18T08:32:12.999Z</time></trkpt><trkpt lat="43.49781650044687" lon="10.91848838868809"><ele>538.0</ele><time>2026-04-18T08:32:13.999Z</time></trkpt><trkpt lat="43.49775691071065" lon="10.91866318433505"><ele>538.0</ele><time>2026-04-18T08:32:14.999Z</time></trkpt><trkpt lat="43.49770220584896" lon="10.918842553622955"><ele>538.0</ele><time>2026-04-18T08:32:15.999Z</time></trkpt><trkpt lat="43.497645470118705" lon="10.919026735338415"><ele>538.0</ele><time>2026-04-18T08:32:16.999Z</time></trkpt><trkpt lat="43.49758104272236" lon="10.919210011381994"><ele>538.0</ele><time>2026-04-18T08:32:17.999Z</time></trkpt><trkpt lat="43.49751262197423" lon="10.919406008281832"><ele>538.0</ele><time>2026-04-18T08:32:18.999Z</time></trkpt><trkpt lat="43.49744709422375" lon="10.919581717251642"><ele>538.0</ele><time>2026-04-18T08:32:19.999Z</time></trkpt><trkpt lat="43.497392193318234" lon="10.919768617262383"><ele>536.5</ele><time>2026-04-18T08:32:20.999Z</time></trkpt><trkpt lat="43.4973705011629" lon="10.919960233637257"><ele>535.0</ele><time>2026-04-18T08:32:21.999Z</time></trkpt><trkpt lat="43.49738916773223" lon="10.920161123349935"><ele>533.5</ele><time>2026-04-18T08:32:22.999Z</time></trkpt><trkpt lat="43.49740130362289" lon="10.92035329678143"><ele>532.0</ele><time>2026-04-18T08:32:23.999Z</time></trkpt><trkpt lat="43.49740573851741" lon="10.920531907367664"><ele>531.0</ele><time>2026-04-18T08:32:24.999Z</time></trkpt><trkpt lat="43.49739546916922" lon="10.92067423416701"><ele>530.0</ele><time>2026-04-18T08:32:25.999Z</time></trkpt><trkpt lat="43.49735776677385" lon="10.920804703992918"><ele>529.0</ele><time>2026-04-18T08:32:26.999Z</time></trkpt><trkpt lat="43.4972699228609" lon="10.920890195828136"><ele>528.0</ele><time>2026-04-18T08:32:27.999Z</time></trkpt><trkpt lat="43.49714872813919" lon="10.920959445771558"><ele>527.0</ele><time>2026-04-18T08:32:28.999Z</time></trkpt><trkpt lat="43.49701519355211" lon="10.920990171351372"><ele>524.75</ele><time>2026-04-18T08:32:29.999Z</time></trkpt><trkpt lat="43.49687411329883" lon="10.921073538047988"><ele>522.5</ele><time>2026-04-18T08:32:30.999Z</time></trkpt><trkpt lat="43.49672872722331" lon="10.921146825855926"><ele>520.25</ele><time>2026-04-18T08:32:31.999Z</time></trkpt><trkpt lat="43.49659692580514" lon="10.921216382488428"><ele>518.0</ele><time>2026-04-18T08:32:32.999Z</time></trkpt><trkpt lat="43.49647274725712" lon="10.921322837996325"><ele>518.0</ele><time>2026-04-18T08:32:33.999Z</time></trkpt><trkpt lat="43.49634286720183" lon="10.921509099102659"><ele>518.0</ele><time>2026-04-18T08:32:34.999Z</time></trkpt><trkpt lat="43.4962187440293" lon="10.921709949119528"><ele>518.0</ele><time>2026-04-18T08:32:35.999Z</time></trkpt><trkpt lat="43.49612185860131" lon="10.921915254816554"><ele>517.6666666666666</ele><time>2026-04-18T08:32:36.999Z</time></trkpt><trkpt lat="43.49602629624362" lon="10.922121378765572"><ele>517.3333333333334</ele><time>2026-04-18T08:32:37.999Z</time></trkpt><trkpt lat="43.49592713670885" lon="10.922335131629627"><ele>517.0</ele><time>2026-04-18T08:32:38.999Z</time></trkpt><trkpt lat="43.4958255977479" lon="10.922552919491492"><ele>517.6666666666667</ele><time>2026-04-18T08:32:39.999Z</time></trkpt><trkpt lat="43.495726254594096" lon="10.92274760733168"><ele>518.3333333333334</ele><time>2026-04-18T08:32:40.999Z</time></trkpt><trkpt lat="43.49561297268816" lon="10.92292151639656"><ele>519.0</ele><time>2026-04-18T08:32:41.999Z</time></trkpt><trkpt lat="43.49548558654039" lon="10.923078552455856"><ele>517.6666666666666</ele><time>2026-04-18T08:32:42.999Z</time></trkpt><trkpt lat="43.49536185033897" lon="10.923249157120324"><ele>516.3333333333333</ele><time>2026-04-18T08:32:43.999Z</time></trkpt><trkpt lat="43.49523313171413" lon="10.923408477745408"><ele>515.0</ele><time>2026-04-18T08:32:44.999Z</time></trkpt><trkpt lat="43.495104718506504" lon="10.923558459105923"><ele>515.0</ele><time>2026-04-18T08:32:45.999Z</time></trkpt><trkpt lat="43.49497828721106" lon="10.923706167327394"><ele>515.0</ele><time>2026-04-18T08:32:46.999Z</time></trkpt><trkpt lat="43.49485879515114" lon="10.923859003371218"><ele>515.0</ele><time>2026-04-18T08:32:47.999Z</time></trkpt><trkpt lat="43.4947268228086" lon="10.923997594599847"><ele>515.0</ele><time>2026-04-18T08:32:48.999Z</time></trkpt><trkpt lat="43.49460839879827" lon="10.924152313031684"><ele>515.0</ele><time>2026-04-18T08:32:49.999Z</time></trkpt><trkpt lat="43.49448921515225" lon="10.924310605645518"><ele>515.0</ele><time>2026-04-18T08:32:50.999Z</time></trkpt><trkpt lat="43.49438174522196" lon="10.924482016090403"><ele>512.3333333333333</ele><time>2026-04-18T08:32:51.999Z</time></trkpt><trkpt lat="43.494267282302026" lon="10.924634641598589"><ele>509.66666666666663</ele><time>2026-04-18T08:32:52.999Z</time></trkpt><trkpt lat="43.49414793919034" lon="10.924765512908698"><ele>507.0</ele><time>2026-04-18T08:32:53.999Z</time></trkpt><trkpt lat="43.494046979636956" lon="10.924915429539654"><ele>506.0</ele><time>2026-04-18T08:32:54.999Z</time></trkpt><trkpt lat="43.49396191932441" lon="10.925091915759788"><ele>505.0</ele><time>2026-04-18T08:32:55.999Z</time></trkpt><trkpt lat="43.493925902680886" lon="10.925280315868575"><ele>504.0</ele><time>2026-04-18T08:32:56.999Z</time></trkpt><trkpt lat="43.49391462216713" lon="10.925480806689418"><ele>503.0</ele><time>2026-04-18T08:32:57.999Z</time></trkpt><trkpt lat="43.49390170160047" lon="10.925667974553722"><ele>503.0</ele><time>2026-04-18T08:32:58.999Z</time></trkpt><trkpt lat="43.49389762000788" lon="10.925847504462642"><ele>503.0</ele><time>2026-04-18T08:32:59.999Z</time></trkpt><trkpt lat="43.49389329241907" lon="10.926015238281245"><ele>503.0</ele><time>2026-04-18T08:33:00.999Z</time></trkpt><trkpt lat="43.49389760792166" lon="10.926177117566958"><ele>503.0</ele><time>2026-04-18T08:33:01.999Z</time></trkpt><trkpt lat="43.49389123006408" lon="10.926324106369787"><ele>502.0</ele><time>2026-04-18T08:33:02.999Z</time></trkpt><trkpt lat="43.49388567588352" lon="10.92646452556523"><ele>500.99999999999994</ele><time>2026-04-18T08:33:03.999Z</time></trkpt><trkpt lat="43.49387912872642" lon="10.92657934629572"><ele>499.99999999999994</ele><time>2026-04-18T08:33:04.999Z</time></trkpt><trkpt lat="43.49387240550046" lon="10.926736929830023"><ele>499.0</ele><time>2026-04-18T08:33:06.999Z</time></trkpt><trkpt lat="43.493770779924425" lon="10.926834802284839"><ele>498.0</ele><time>2026-04-18T08:33:08Z</time></trkpt><trkpt lat="43.49368838649497" lon="10.926908738553587"><ele>498.0</ele><time>2026-04-18T08:33:09Z</time></trkpt><trkpt lat="43.49360239501254" lon="10.926999603330628"><ele>498.0</ele><time>2026-04-18T08:33:10Z</time></trkpt><trkpt lat="43.493515712549325" lon="10.92711747312074"><ele>498.0</ele><time>2026-04-18T08:33:11Z</time></trkpt><trkpt lat="43.49343210966808" lon="10.927242274565092"><ele>498.0</ele><time>2026-04-18T08:33:12Z</time></trkpt><trkpt lat="43.493347630873416" lon="10.927374518973668"><ele>498.0</ele><time>2026-04-18T08:33:13Z</time></trkpt><trkpt lat="43.49326305007886" lon="10.927502300636077"><ele>498.0</ele><time>2026-04-18T08:33:14Z</time></trkpt><trkpt lat="43.493181554477246" lon="10.927624332867225"><ele>498.0</ele><time>2026-04-18T08:33:15Z</time></trkpt><trkpt lat="43.49309796099045" lon="10.927742103958906"><ele>498.0</ele><time>2026-04-18T08:33:16Z</time></trkpt><trkpt lat="43.49300884399815" lon="10.927836921103934"><ele>497.0</ele><time>2026-04-18T08:33:17Z</time></trkpt><trkpt lat="43.49292517899045" lon="10.92796296732762"><ele>496.0</ele><time>2026-04-18T08:33:18Z</time></trkpt><trkpt lat="43.492841399618975" lon="10.928108320428416"><ele>495.0</ele><time>2026-04-18T08:33:19Z</time></trkpt><trkpt lat="43.49275085821477" lon="10.928253372488607"><ele>494.0</ele><time>2026-04-18T08:33:20Z</time></trkpt><trkpt lat="43.49264885311506" lon="10.928392272019519"><ele>491.5</ele><time>2026-04-18T08:33:21Z</time></trkpt><trkpt lat="43.49254382462352" lon="10.928519597090926"><ele>489.0</ele><time>2026-04-18T08:33:22Z</time></trkpt><trkpt lat="43.492440587444605" lon="10.928622133980928"><ele>486.5</ele><time>2026-04-18T08:33:23Z</time></trkpt><trkpt lat="43.49232809602513" lon="10.928701272606803"><ele>484.0</ele><time>2026-04-18T08:33:24Z</time></trkpt><trkpt lat="43.492207268553095" lon="10.928754339140617"><ele>484.5</ele><time>2026-04-18T08:33:25Z</time></trkpt><trkpt lat="43.49207648166633" lon="10.928773239769587"><ele>485.0</ele><time>2026-04-18T08:33:26Z</time></trkpt><trkpt lat="43.49193952620472" lon="10.92875168372305"><ele>485.5</ele><time>2026-04-18T08:33:27Z</time></trkpt><trkpt lat="43.49180788995617" lon="10.92868193320105"><ele>486.0</ele><time>2026-04-18T08:33:28Z</time></trkpt><trkpt lat="43.49168288679968" lon="10.928588931946546"><ele>486.0</ele><time>2026-04-18T08:33:29Z</time></trkpt><trkpt lat="43.49156392764043" lon="10.928506840770197"><ele>486.0</ele><time>2026-04-18T08:33:30Z</time></trkpt><trkpt lat="43.4914387872251" lon="10.928460686274954"><ele>486.0</ele><time>2026-04-18T08:33:31Z</time></trkpt><trkpt lat="43.49130881822569" lon="10.928464924439401"><ele>486.0</ele><time>2026-04-18T08:33:32Z</time></trkpt><trkpt lat="43.491188907693335" lon="10.928528883052037"><ele>483.25</ele><time>2026-04-18T08:33:33Z</time></trkpt><trkpt lat="43.49107992963115" lon="10.928638713255678"><ele>480.5</ele><time>2026-04-18T08:33:34Z</time></trkpt><trkpt lat="43.49099079811884" lon="10.928788897460898"><ele>477.75</ele><time>2026-04-18T08:33:35Z</time></trkpt><trkpt lat="43.490915685856095" lon="10.928955684162512"><ele>475.0</ele><time>2026-04-18T08:33:36Z</time></trkpt><trkpt lat="43.49084126994182" lon="10.929133256851447"><ele>476.25</ele><time>2026-04-18T08:33:37Z</time></trkpt><trkpt lat="43.490770170562485" lon="10.929307154270594"><ele>477.5</ele><time>2026-04-18T08:33:38Z</time></trkpt><trkpt lat="43.49069817658502" lon="10.929480760766182"><ele>478.75</ele><time>2026-04-18T08:33:39Z</time></trkpt><trkpt lat="43.49062141698949" lon="10.929656701046836"><ele>480.0</ele><time>2026-04-18T08:33:40Z</time></trkpt><trkpt lat="43.490539240704024" lon="10.929837905163158"><ele>480.0</ele><time>2026-04-18T08:33:41Z</time></trkpt><trkpt lat="43.49045879749522" lon="10.930027651865124"><ele>480.0</ele><time>2026-04-18T08:33:42Z</time></trkpt><trkpt lat="43.490387250242755" lon="10.930212895282265"><ele>480.0</ele><time>2026-04-18T08:33:43Z</time></trkpt><trkpt lat="43.49031112025768" lon="10.930386680607796"><ele>475.5</ele><time>2026-04-18T08:33:44Z</time></trkpt><trkpt lat="43.49023986732179" lon="10.930558209280397"><ele>471.0</ele><time>2026-04-18T08:33:45Z</time></trkpt><trkpt lat="43.490176861623844" lon="10.930733647228166"><ele>466.5</ele><time>2026-04-18T08:33:46Z</time></trkpt><trkpt lat="43.49012456716866" lon="10.930919403146756"><ele>462.0</ele><time>2026-04-18T08:33:47Z</time></trkpt><trkpt lat="43.49010299658343" lon="10.931095335806363"><ele>461.75</ele><time>2026-04-18T08:33:48Z</time></trkpt><trkpt lat="43.49007333322387" lon="10.931266820254084"><ele>461.5</ele><time>2026-04-18T08:33:49Z</time></trkpt><trkpt lat="43.490083201821115" lon="10.931428773955314"><ele>461.25</ele><time>2026-04-18T08:33:50Z</time></trkpt><trkpt lat="43.49007947530002" lon="10.931576869140942"><ele>461.0</ele><time>2026-04-18T08:33:51Z</time></trkpt><trkpt lat="43.49007237684733" lon="10.931719421213959"><ele>460.49999999999994</ele><time>2026-04-18T08:33:52Z</time></trkpt><trkpt lat="43.49007576777552" lon="10.931854180937545"><ele>460.0</ele><time>2026-04-18T08:33:53Z</time></trkpt><trkpt lat="43.490077470428346" lon="10.931967692858098"><ele>459.5</ele><time>2026-04-18T08:33:54Z</time></trkpt><trkpt lat="43.490079546384905" lon="10.932086526962365"><ele>459.0</ele><time>2026-04-18T08:33:55Z</time></trkpt><trkpt lat="43.49007660239503" lon="10.93220035322782"><ele>458.49999999999994</ele><time>2026-04-18T08:33:56Z</time></trkpt><trkpt lat="43.490071867233695" lon="10.932313434788352"><ele>458.0</ele><time>2026-04-18T08:33:57Z</time></trkpt><trkpt lat="43.49004706979901" lon="10.932414094182315"><ele>457.99999999999994</ele><time>2026-04-18T08:33:58Z</time></trkpt><trkpt lat="43.489992920796674" lon="10.932475456367017"><ele>458.0</ele><time>2026-04-18T08:33:59Z</time></trkpt><trkpt lat="43.48991710636572" lon="10.932492847680816"><ele>458.0</ele><time>2026-04-18T08:34:00Z</time></trkpt><trkpt lat="43.48983923353706" lon="10.932462205913751"><ele>458.0</ele><time>2026-04-18T08:34:01Z</time></trkpt><trkpt lat="43.48978220991088" lon="10.932380783757496"><ele>457.99999999999994</ele><time>2026-04-18T08:34:02Z</time></trkpt><trkpt lat="43.489764014331925" lon="10.932266687774135"><ele>458.0</ele><time>2026-04-18T08:34:03Z</time></trkpt><trkpt lat="43.48975697022952" lon="10.932115435904988"><ele>458.0</ele><time>2026-04-18T08:34:04Z</time></trkpt><trkpt lat="43.48974974393818" lon="10.931937638780841"><ele>458.0</ele><time>2026-04-18T08:34:05Z</time></trkpt><trkpt lat="43.48973074806297" lon="10.93173886993622"><ele>458.0</ele><time>2026-04-18T08:34:05.999Z</time></trkpt><trkpt lat="43.489718542397775" lon="10.931547308671528"><ele>458.0</ele><time>2026-04-18T08:34:06.999Z</time></trkpt><trkpt lat="43.489704264236636" lon="10.931340511387239"><ele>458.75</ele><time>2026-04-18T08:34:07.999Z</time></trkpt><trkpt lat="43.48968206851325" lon="10.931133447443235"><ele>459.5</ele><time>2026-04-18T08:34:08.999Z</time></trkpt><trkpt lat="43.48966302695432" lon="10.930935198688134"><ele>460.25</ele><time>2026-04-18T08:34:09.999Z</time></trkpt><trkpt lat="43.48964718826855" lon="10.930751986950678"><ele>461.0</ele><time>2026-04-18T08:34:10.999Z</time></trkpt><trkpt lat="43.489631522785814" lon="10.93056738142827"><ele>461.25</ele><time>2026-04-18T08:34:11.999Z</time></trkpt><trkpt lat="43.48960808319707" lon="10.930374709258357"><ele>461.5</ele><time>2026-04-18T08:34:12.999Z</time></trkpt><trkpt lat="43.48956770398541" lon="10.93017511135885"><ele>461.75</ele><time>2026-04-18T08:34:13.999Z</time></trkpt><trkpt lat="43.48952116489967" lon="10.929988952548282"><ele>462.0</ele><time>2026-04-18T08:34:14.999Z</time></trkpt><trkpt lat="43.489470623918876" lon="10.929802998514134"><ele>455.75</ele><time>2026-04-18T08:34:15.999Z</time></trkpt><trkpt lat="43.489417542253804" lon="10.929613568091794"><ele>449.5</ele><time>2026-04-18T08:34:16.999Z</time></trkpt><trkpt lat="43.489360121416695" lon="10.929428439892472"><ele>443.25</ele><time>2026-04-18T08:34:17.999Z</time></trkpt><trkpt lat="43.48930563181682" lon="10.929252034883277"><ele>437.0</ele><time>2026-04-18T08:34:18.999Z</time></trkpt><trkpt lat="43.489265162160656" lon="10.929075129907892"><ele>436.75</ele><time>2026-04-18T08:34:19.999Z</time></trkpt><trkpt lat="43.489242988700056" lon="10.928894961335482"><ele>436.5</ele><time>2026-04-18T08:34:20.999Z</time></trkpt><trkpt lat="43.48924379783968" lon="10.928713630744324"><ele>436.25</ele><time>2026-04-18T08:34:21.999Z</time></trkpt><trkpt lat="43.489260027878615" lon="10.928530215858583"><ele>436.0</ele><time>2026-04-18T08:34:22.999Z</time></trkpt><trkpt lat="43.489277539500826" lon="10.928345373568456"><ele>435.5</ele><time>2026-04-18T08:34:23.999Z</time></trkpt><trkpt lat="43.48928662556536" lon="10.928132429541678"><ele>435.0</ele><time>2026-04-18T08:34:24.999Z</time></trkpt><trkpt lat="43.489297997612645" lon="10.927939825107718"><ele>434.5</ele><time>2026-04-18T08:34:25.999Z</time></trkpt><trkpt lat="43.489311027527236" lon="10.927748216150508"><ele>434.0</ele><time>2026-04-18T08:34:26.999Z</time></trkpt><trkpt lat="43.48932588585777" lon="10.92755617440788"><ele>433.5</ele><time>2026-04-18T08:34:27.999Z</time></trkpt><trkpt lat="43.48934153267954" lon="10.92735735708933"><ele>433.0</ele><time>2026-04-18T08:34:28.999Z</time></trkpt><trkpt lat="43.489358044053155" lon="10.927157117151504"><ele>432.5</ele><time>2026-04-18T08:34:29.999Z</time></trkpt><trkpt lat="43.48938066094554" lon="10.92696626683615"><ele>432.0</ele><time>2026-04-18T08:34:30.999Z</time></trkpt><trkpt lat="43.48940630187318" lon="10.926775497477552"><ele>429.66666666666663</ele><time>2026-04-18T08:34:31.999Z</time></trkpt><trkpt lat="43.48943887448217" lon="10.92657100332658"><ele>427.3333333333333</ele><time>2026-04-18T08:34:32.999Z</time></trkpt><trkpt lat="43.48946991451425" lon="10.926367106398702"><ele>425.0</ele><time>2026-04-18T08:34:33.999Z</time></trkpt><trkpt lat="43.48949709871012" lon="10.92615937853827"><ele>425.0</ele><time>2026-04-18T08:34:34.999Z</time></trkpt><trkpt lat="43.48952688821905" lon="10.92594390633782"><ele>425.0</ele><time>2026-04-18T08:34:35.999Z</time></trkpt><trkpt lat="43.48955706337791" lon="10.925722562416052"><ele>425.0</ele><time>2026-04-18T08:34:36.999Z</time></trkpt><trkpt lat="43.48958537917263" lon="10.92553418292094"><ele>424.99999999999994</ele><time>2026-04-18T08:34:37.999Z</time></trkpt><trkpt lat="43.48960532290723" lon="10.92537911649645"><ele>425.0</ele><time>2026-04-18T08:34:38.999Z</time></trkpt><trkpt lat="43.48961832462169" lon="10.925260769635726"><ele>425.0</ele><time>2026-04-18T08:34:39.999Z</time></trkpt><trkpt lat="43.48962807036913" lon="10.925146699831735"><ele>425.0</ele><time>2026-04-18T08:34:40.999Z</time></trkpt><trkpt lat="43.48963596297336" lon="10.925040122738004"><ele>424.99999999999994</ele><time>2026-04-18T08:34:41.999Z</time></trkpt><trkpt lat="43.48966322285286" lon="10.924951270116171"><ele>425.0</ele><time>2026-04-18T08:34:42.999Z</time></trkpt><trkpt lat="43.489496129136725" lon="10.924825018188596"><ele>423.66666666666663</ele><time>2026-04-18T08:34:45.999Z</time></trkpt><trkpt lat="43.48942754468775" lon="10.924851271073623"><ele>422.3333333333333</ele><time>2026-04-18T08:34:46.999Z</time></trkpt><trkpt lat="43.48934806029982" lon="10.924917065102845"><ele>421.0</ele><time>2026-04-18T08:34:47.999Z</time></trkpt><trkpt lat="43.489268510805296" lon="10.924982985652342"><ele>419.66666666666663</ele><time>2026-04-18T08:34:48.999Z</time></trkpt><trkpt lat="43.48920226323658" lon="10.925070660533502"><ele>418.3333333333333</ele><time>2026-04-18T08:34:49.999Z</time></trkpt><trkpt lat="43.48914209330318" lon="10.925167826682163"><ele>417.0</ele><time>2026-04-18T08:34:50.999Z</time></trkpt><trkpt lat="43.489109037930675" lon="10.925302885481392"><ele>417.0</ele><time>2026-04-18T08:34:51.999Z</time></trkpt><trkpt lat="43.48909831156435" lon="10.92546524261228"><ele>417.0</ele><time>2026-04-18T08:34:52.999Z</time></trkpt><trkpt lat="43.489097932292644" lon="10.925608260709835"><ele>417.0</ele><time>2026-04-18T08:34:53.999Z</time></trkpt><trkpt lat="43.4891131913649" lon="10.925747997689056"><ele>417.0</ele><time>2026-04-18T08:34:54.999Z</time></trkpt><trkpt lat="43.489097163275495" lon="10.925890665675023"><ele>417.0</ele><time>2026-04-18T08:34:55.999Z</time></trkpt><trkpt lat="43.48905452722117" lon="10.926032789189568"><ele>419.0</ele><time>2026-04-18T08:34:56.999Z</time></trkpt><trkpt lat="43.48899066199866" lon="10.926164302218393"><ele>421.0</ele><time>2026-04-18T08:34:57.999Z</time></trkpt><trkpt lat="43.48890955359751" lon="10.926263227086464"><ele>423.0</ele><time>2026-04-18T08:34:58.999Z</time></trkpt><trkpt lat="43.48880421914453" lon="10.926332543603655"><ele>425.0</ele><time>2026-04-18T08:34:59.999Z</time></trkpt><trkpt lat="43.488676079533924" lon="10.926380836485716"><ele>420.5</ele><time>2026-04-18T08:35:00.999Z</time></trkpt><trkpt lat="43.48854777496988" lon="10.926438733821456"><ele>416.0</ele><time>2026-04-18T08:35:01.999Z</time></trkpt><trkpt lat="43.48842882533797" lon="10.926482071625905"><ele>411.5</ele><time>2026-04-18T08:35:02.999Z</time></trkpt><trkpt lat="43.48831382224061" lon="10.92652548842494"><ele>407.0</ele><time>2026-04-18T08:35:03.999Z</time></trkpt><trkpt lat="43.48821232642025" lon="10.926572099576488"><ele>407.0</ele><time>2026-04-18T08:35:04.999Z</time></trkpt><trkpt lat="43.488114596882056" lon="10.926641193242222"><ele>407.0</ele><time>2026-04-18T08:35:05.999Z</time></trkpt><trkpt lat="43.488021916321024" lon="10.92672175134729"><ele>407.0</ele><time>2026-04-18T08:35:06.999Z</time></trkpt><trkpt lat="43.48795675473747" lon="10.926843687995039"><ele>407.0</ele><time>2026-04-18T08:35:07.999Z</time></trkpt><trkpt lat="43.48791965771401" lon="10.926974018845897"><ele>407.0</ele><time>2026-04-18T08:35:08.999Z</time></trkpt><trkpt lat="43.487862653337245" lon="10.927069292879844"><ele>405.16666666666663</ele><time>2026-04-18T08:35:09.999Z</time></trkpt><trkpt lat="43.48780297147207" lon="10.927135231443806"><ele>403.3333333333333</ele><time>2026-04-18T08:35:10.999Z</time></trkpt><trkpt lat="43.4877246704723" lon="10.927164228975137"><ele>401.5</ele><time>2026-04-18T08:35:11.999Z</time></trkpt><trkpt lat="43.48763671422827" lon="10.927136975770305"><ele>399.66666666666663</ele><time>2026-04-18T08:35:13Z</time></trkpt><trkpt lat="43.48757486962434" lon="10.927050498538957"><ele>397.8333333333333</ele><time>2026-04-18T08:35:14Z</time></trkpt><trkpt lat="43.487552049185965" lon="10.926925032846219"><ele>396.0</ele><time>2026-04-18T08:35:15Z</time></trkpt><trkpt lat="43.48756021075978" lon="10.926771576700988"><ele>395.20000000000005</ele><time>2026-04-18T08:35:16Z</time></trkpt><trkpt lat="43.48756267854496" lon="10.926644985269121"><ele>394.40000000000003</ele><time>2026-04-18T08:35:17Z</time></trkpt><trkpt lat="43.487528649311116" lon="10.926530887315696"><ele>393.6</ele><time>2026-04-18T08:35:18Z</time></trkpt><trkpt lat="43.48746181653295" lon="10.926444915183335"><ele>392.8</ele><time>2026-04-18T08:35:19Z</time></trkpt><trkpt lat="43.487364396036675" lon="10.92638376055543"><ele>392.0</ele><time>2026-04-18T08:35:20Z</time></trkpt><trkpt lat="43.48724650649637" lon="10.926346546273379"><ele>392.0</ele><time>2026-04-18T08:35:21Z</time></trkpt><trkpt lat="43.48713963540129" lon="10.926328563738354"><ele>392.0</ele><time>2026-04-18T08:35:22Z</time></trkpt><trkpt lat="43.48703640177063" lon="10.92631250486386"><ele>392.0</ele><time>2026-04-18T08:35:23Z</time></trkpt><trkpt lat="43.486934899616536" lon="10.926303638606125"><ele>392.0</ele><time>2026-04-18T08:35:24Z</time></trkpt><trkpt lat="43.486832569064816" lon="10.926287567907742"><ele>392.0</ele><time>2026-04-18T08:35:25Z</time></trkpt><trkpt lat="43.486719257066234" lon="10.926264290936857"><ele>388.5</ele><time>2026-04-18T08:35:26Z</time></trkpt><trkpt lat="43.48660078216262" lon="10.926247429591594"><ele>385.0</ele><time>2026-04-18T08:35:27Z</time></trkpt><trkpt lat="43.486477336863516" lon="10.92623348630426"><ele>381.5</ele><time>2026-04-18T08:35:28Z</time></trkpt><trkpt lat="43.486360055200805" lon="10.926217336100818"><ele>378.0</ele><time>2026-04-18T08:35:29Z</time></trkpt><trkpt lat="43.48624304761309" lon="10.926210548685676"><ele>377.5</ele><time>2026-04-18T08:35:30Z</time></trkpt><trkpt lat="43.48612058164981" lon="10.926213136414903"><ele>377.0</ele><time>2026-04-18T08:35:31Z</time></trkpt><trkpt lat="43.485990562311926" lon="10.926221692590568"><ele>376.5</ele><time>2026-04-18T08:35:32Z</time></trkpt><trkpt lat="43.48586346709274" lon="10.926234738957879"><ele>376.0</ele><time>2026-04-18T08:35:33Z</time></trkpt><trkpt lat="43.48573827536463" lon="10.92624843318411"><ele>376.0</ele><time>2026-04-18T08:35:34Z</time></trkpt><trkpt lat="43.48561006242996" lon="10.9262590777767"><ele>376.0</ele><time>2026-04-18T08:35:35Z</time></trkpt><trkpt lat="43.48548673636544" lon="10.926270200723444"><ele>376.0</ele><time>2026-04-18T08:35:36Z</time></trkpt><trkpt lat="43.485368823029525" lon="10.926275286883577"><ele>376.0</ele><time>2026-04-18T08:35:37Z</time></trkpt><trkpt lat="43.48525518939837" lon="10.926259570724397"><ele>374.0</ele><time>2026-04-18T08:35:38Z</time></trkpt><trkpt lat="43.48514139907159" lon="10.926206215146696"><ele>372.0</ele><time>2026-04-18T08:35:39Z</time></trkpt><trkpt lat="43.48502775612702" lon="10.926125482276893"><ele>370.0</ele><time>2026-04-18T08:35:40Z</time></trkpt><trkpt lat="43.48492857396653" lon="10.926016980123489"><ele>368.0</ele><time>2026-04-18T08:35:41Z</time></trkpt><trkpt lat="43.48483221895875" lon="10.925891436089126"><ele>368.0</ele><time>2026-04-18T08:35:42Z</time></trkpt><trkpt lat="43.484735697830466" lon="10.925761352175272"><ele>368.0</ele><time>2026-04-18T08:35:43Z</time></trkpt><trkpt lat="43.48464169209605" lon="10.925648828641512"><ele>368.0</ele><time>2026-04-18T08:35:44Z</time></trkpt><trkpt lat="43.484555870328066" lon="10.9255524239359"><ele>368.0</ele><time>2026-04-18T08:35:45Z</time></trkpt><trkpt lat="43.48446135971144" lon="10.925498347342202"><ele>366.75</ele><time>2026-04-18T08:35:46Z</time></trkpt><trkpt lat="43.4843582232389" lon="10.925479955730513"><ele>365.5</ele><time>2026-04-18T08:35:47Z</time></trkpt><trkpt lat="43.48423996385049" lon="10.92549482391466"><ele>364.25</ele><time>2026-04-18T08:35:48Z</time></trkpt><trkpt lat="43.48412837434448" lon="10.92552945616151"><ele>363.0</ele><time>2026-04-18T08:35:49Z</time></trkpt><trkpt lat="43.484013763443265" lon="10.92558067845301"><ele>363.0</ele><time>2026-04-18T08:35:50Z</time></trkpt><trkpt lat="43.48390645479145" lon="10.925653223462403"><ele>363.0</ele><time>2026-04-18T08:35:51Z</time></trkpt><trkpt lat="43.48380570651935" lon="10.925743677062115"><ele>363.0</ele><time>2026-04-18T08:35:52Z</time></trkpt><trkpt lat="43.4836901647439" lon="10.925844005282206"><ele>363.0</ele><time>2026-04-18T08:35:53Z</time></trkpt><trkpt lat="43.483592842125795" lon="10.925964040597705"><ele>360.5</ele><time>2026-04-18T08:35:54Z</time></trkpt><trkpt lat="43.48349866675103" lon="10.92607235938264"><ele>358.0</ele><time>2026-04-18T08:35:55Z</time></trkpt><trkpt lat="43.48338911795789" lon="10.92616712228682"><ele>355.5</ele><time>2026-04-18T08:35:56Z</time></trkpt><trkpt lat="43.483266524773924" lon="10.926252841981844"><ele>353.0</ele><time>2026-04-18T08:35:57Z</time></trkpt><trkpt lat="43.48313757060053" lon="10.926311685352418"><ele>353.0</ele><time>2026-04-18T08:35:58Z</time></trkpt><trkpt lat="43.48300394358022" lon="10.92638538981375"><ele>353.0</ele><time>2026-04-18T08:35:59Z</time></trkpt><trkpt lat="43.48287342654019" lon="10.926434441220238"><ele>353.0</ele><time>2026-04-18T08:36:00Z</time></trkpt><trkpt lat="43.48274180076332" lon="10.92647515102208"><ele>353.0</ele><time>2026-04-18T08:36:01Z</time></trkpt><trkpt lat="43.48261153241525" lon="10.926526872525846"><ele>352.75</ele><time>2026-04-18T08:36:02Z</time></trkpt><trkpt lat="43.482488998457555" lon="10.926588152812142"><ele>352.5</ele><time>2026-04-18T08:36:03Z</time></trkpt><trkpt lat="43.4823795670487" lon="10.92666971661768"><ele>352.25</ele><time>2026-04-18T08:36:04Z</time></trkpt><trkpt lat="43.48227683771677" lon="10.92675746639138"><ele>352.0</ele><time>2026-04-18T08:36:05Z</time></trkpt><trkpt lat="43.482184782344994" lon="10.926867320110677"><ele>350.75</ele><time>2026-04-18T08:36:06Z</time></trkpt><trkpt lat="43.4820890862261" lon="10.926998788439679"><ele>349.5</ele><time>2026-04-18T08:36:07Z</time></trkpt><trkpt lat="43.48198942628354" lon="10.927118151776192"><ele>348.25</ele><time>2026-04-18T08:36:08Z</time></trkpt><trkpt lat="43.481889974096205" lon="10.927228250047062"><ele>347.0</ele><time>2026-04-18T08:36:08.999Z</time></trkpt><trkpt lat="43.481783679407854" lon="10.927320787234043"><ele>347.0</ele><time>2026-04-18T08:36:09.999Z</time></trkpt><trkpt lat="43.48166281284909" lon="10.927382570466067"><ele>347.0</ele><time>2026-04-18T08:36:10.999Z</time></trkpt><trkpt lat="43.48153261266909" lon="10.92739209323505"><ele>347.0</ele><time>2026-04-18T08:36:11.999Z</time></trkpt><trkpt lat="43.481406205871224" lon="10.927338125180153"><ele>347.0</ele><time>2026-04-18T08:36:12.999Z</time></trkpt><trkpt lat="43.481267374926446" lon="10.927314309669672"><ele>346.25</ele><time>2026-04-18T08:36:13.999Z</time></trkpt><trkpt lat="43.48113160788704" lon="10.92728301472866"><ele>345.5</ele><time>2026-04-18T08:36:14.999Z</time></trkpt><trkpt lat="43.48098537870595" lon="10.927248425425484"><ele>344.75</ele><time>2026-04-18T08:36:15.999Z</time></trkpt><trkpt lat="43.48083299767738" lon="10.927217127850925"><ele>344.0</ele><time>2026-04-18T08:36:16.999Z</time></trkpt><trkpt lat="43.48067245069646" lon="10.927191820822582"><ele>344.0</ele><time>2026-04-18T08:36:17.999Z</time></trkpt><trkpt lat="43.48051403304532" lon="10.927148018445836"><ele>344.0</ele><time>2026-04-18T08:36:18.999Z</time></trkpt><trkpt lat="43.48034979754558" lon="10.927147134301832"><ele>344.0</ele><time>2026-04-18T08:36:19.999Z</time></trkpt><trkpt lat="43.48021531487448" lon="10.927134575633772"><ele>343.5</ele><time>2026-04-18T08:36:20.999Z</time></trkpt><trkpt lat="43.48007504705501" lon="10.927129049043225"><ele>343.0</ele><time>2026-04-18T08:36:21.999Z</time></trkpt><trkpt lat="43.479948741361" lon="10.927123493240785"><ele>342.5</ele><time>2026-04-18T08:36:22.999Z</time></trkpt><trkpt lat="43.479810567948405" lon="10.927130001994753"><ele>342.0</ele><time>2026-04-18T08:36:23.999Z</time></trkpt><trkpt lat="43.479673707699874" lon="10.927136796349586"><ele>341.25</ele><time>2026-04-18T08:36:24.999Z</time></trkpt><trkpt lat="43.47953349670884" lon="10.927141119439183"><ele>340.5</ele><time>2026-04-18T08:36:25.999Z</time></trkpt><trkpt lat="43.479391247311405" lon="10.927153620423333"><ele>339.75</ele><time>2026-04-18T08:36:26.999Z</time></trkpt><trkpt lat="43.47926378149884" lon="10.92715542124505"><ele>339.0</ele><time>2026-04-18T08:36:27.999Z</time></trkpt><trkpt lat="43.47915134880711" lon="10.927140167388902"><ele>339.0</ele><time>2026-04-18T08:36:28.999Z</time></trkpt><trkpt lat="43.47903468961006" lon="10.92715048440441"><ele>339.0</ele><time>2026-04-18T08:36:29.999Z</time></trkpt><trkpt lat="43.478922175681426" lon="10.927151491345912"><ele>339.0</ele><time>2026-04-18T08:36:30.999Z</time></trkpt><trkpt lat="43.47881572859753" lon="10.927134341966356"><ele>339.0</ele><time>2026-04-18T08:36:31.999Z</time></trkpt><trkpt lat="43.478694784377794" lon="10.927100914275753"><ele>337.79999999999995</ele><time>2026-04-18T08:36:32.999Z</time></trkpt><trkpt lat="43.478585617778045" lon="10.927048550929248"><ele>336.59999999999997</ele><time>2026-04-18T08:36:33.999Z</time></trkpt><trkpt lat="43.47847951551545" lon="10.927013866132645"><ele>335.4</ele><time>2026-04-18T08:36:34.999Z</time></trkpt><trkpt lat="43.478395502306" lon="10.926967633228974"><ele>334.2</ele><time>2026-04-18T08:36:35.999Z</time></trkpt><trkpt lat="43.47831995668769" lon="10.926953378912522"><ele>333.0</ele><time>2026-04-18T08:36:36.999Z</time></trkpt><trkpt lat="43.47822011330669" lon="10.926904046017947"><ele>333.0</ele><time>2026-04-18T08:36:37.999Z</time></trkpt><trkpt lat="43.47811371696796" lon="10.926867604716886"><ele>333.0</ele><time>2026-04-18T08:36:38.999Z</time></trkpt><trkpt lat="43.47800564571156" lon="10.92682051388756"><ele>333.0</ele><time>2026-04-18T08:36:39.999Z</time></trkpt><trkpt lat="43.477892141215335" lon="10.926777590417942"><ele>333.0</ele><time>2026-04-18T08:36:40.999Z</time></trkpt><trkpt lat="43.47776988866735" lon="10.926735936230626"><ele>334.0</ele><time>2026-04-18T08:36:41.999Z</time></trkpt><trkpt lat="43.4776566338383" lon="10.926683634531319"><ele>335.0</ele><time>2026-04-18T08:36:42.999Z</time></trkpt><trkpt lat="43.47754744393998" lon="10.926627276710363"><ele>336.0</ele><time>2026-04-18T08:36:43.999Z</time></trkpt><trkpt lat="43.477440576792574" lon="10.92656723901162"><ele>337.0</ele><time>2026-04-18T08:36:44.999Z</time></trkpt><trkpt lat="43.47732778184782" lon="10.926508433340848"><ele>337.0</ele><time>2026-04-18T08:36:45.999Z</time></trkpt><trkpt lat="43.47721935722548" lon="10.926432836647097"><ele>337.0</ele><time>2026-04-18T08:36:46.999Z</time></trkpt><trkpt lat="43.47711068114143" lon="10.926362889583118"><ele>337.0</ele><time>2026-04-18T08:36:47.999Z</time></trkpt><trkpt lat="43.47699577540082" lon="10.926287265687925"><ele>337.0</ele><time>2026-04-18T08:36:48.999Z</time></trkpt><trkpt lat="43.476886301068646" lon="10.926210942537674"><ele>334.0</ele><time>2026-04-18T08:36:49.999Z</time></trkpt><trkpt lat="43.47677353977028" lon="10.926127621661173"><ele>331.0</ele><time>2026-04-18T08:36:50.999Z</time></trkpt><trkpt lat="43.47665796044641" lon="10.926051748472982"><ele>328.0</ele><time>2026-04-18T08:36:51.999Z</time></trkpt><trkpt lat="43.47654911846872" lon="10.925977030294444"><ele>325.0</ele><time>2026-04-18T08:36:52.999Z</time></trkpt><trkpt lat="43.47643527418812" lon="10.925903709570314"><ele>325.0</ele><time>2026-04-18T08:36:53.999Z</time></trkpt><trkpt lat="43.47632272072122" lon="10.925830934173609"><ele>325.0</ele><time>2026-04-18T08:36:54.999Z</time></trkpt><trkpt lat="43.47621656299192" lon="10.925773049436172"><ele>325.0</ele><time>2026-04-18T08:36:55.999Z</time></trkpt><trkpt lat="43.476095374748" lon="10.925733945234951"><ele>325.0</ele><time>2026-04-18T08:36:56.999Z</time></trkpt><trkpt lat="43.47597368458787" lon="10.925722373349737"><ele>325.0</ele><time>2026-04-18T08:36:57.999Z</time></trkpt><trkpt lat="43.475841953453944" lon="10.925732747662414"><ele>325.0</ele><time>2026-04-18T08:36:58.999Z</time></trkpt><trkpt lat="43.475704401961295" lon="10.925753618690441"><ele>325.0</ele><time>2026-04-18T08:36:59.999Z</time></trkpt><trkpt lat="43.4755555203069" lon="10.925792425747053"><ele>325.0</ele><time>2026-04-18T08:37:00.999Z</time></trkpt><trkpt lat="43.47539846041005" lon="10.925834461487119"><ele>323.0</ele><time>2026-04-18T08:37:01.999Z</time></trkpt><trkpt lat="43.475239419439326" lon="10.925879582903258"><ele>321.0</ele><time>2026-04-18T08:37:02.999Z</time></trkpt><trkpt lat="43.47509399578033" lon="10.925921746271413"><ele>319.0</ele><time>2026-04-18T08:37:03.999Z</time></trkpt><trkpt lat="43.47495237748488" lon="10.925962345547584"><ele>314.25</ele><time>2026-04-18T08:37:04.999Z</time></trkpt><trkpt lat="43.474810874841786" lon="10.92599739241592"><ele>309.5</ele><time>2026-04-18T08:37:05.999Z</time></trkpt><trkpt lat="43.47467846724719" lon="10.926018047136488"><ele>304.75</ele><time>2026-04-18T08:37:06.999Z</time></trkpt><trkpt lat="43.47457160433453" lon="10.926019778495943"><ele>300.0</ele><time>2026-04-18T08:37:07.999Z</time></trkpt><trkpt lat="43.47447506326293" lon="10.926019428643706"><ele>301.1666666666667</ele><time>2026-04-18T08:37:08.999Z</time></trkpt><trkpt lat="43.474397768953025" lon="10.926014438882232"><ele>302.3333333333333</ele><time>2026-04-18T08:37:09.999Z</time></trkpt><trkpt lat="43.47431475494847" lon="10.92597858084907"><ele>303.5</ele><time>2026-04-18T08:37:11.999Z</time></trkpt><trkpt lat="43.47424823611057" lon="10.925989197558014"><ele>304.66666666666663</ele><time>2026-04-18T08:38:11Z</time></trkpt><trkpt lat="43.47430915294776" lon="10.926039716536376"><ele>305.8333333333333</ele><time>2026-04-18T08:38:43.999Z</time></trkpt><trkpt lat="43.47425801284702" lon="10.925944178278176"><ele>307.0</ele><time>2026-04-18T08:50:14Z</time></trkpt><trkpt lat="43.47422132409434" lon="10.925841895659072"><ele>307.0</ele><time>2026-04-18T08:50:19Z</time></trkpt><trkpt lat="43.47410755637903" lon="10.92575456567619"><ele>307.0</ele><time>2026-04-18T08:50:21Z</time></trkpt><trkpt lat="43.47404434828161" lon="10.925684703069475"><ele>307.0</ele><time>2026-04-18T08:50:22Z</time></trkpt><trkpt lat="43.4739816819355" lon="10.925601029206563"><ele>307.0</ele><time>2026-04-18T08:50:23Z</time></trkpt><trkpt lat="43.47392377479067" lon="10.9255209102673"><ele>307.0</ele><time>2026-04-18T08:50:24Z</time></trkpt><trkpt lat="43.47386406114608" lon="10.92544259308306"><ele>307.0</ele><time>2026-04-18T08:50:25Z</time></trkpt><trkpt lat="43.473797180423375" lon="10.925362462001361"><ele>307.0</ele><time>2026-04-18T08:50:26Z</time></trkpt><trkpt lat="43.47374451352627" lon="10.92528458676847"><ele>307.0</ele><time>2026-04-18T08:50:27Z</time></trkpt><trkpt lat="43.47369198795795" lon="10.925202098985082"><ele>307.0</ele><time>2026-04-18T08:50:28Z</time></trkpt><trkpt lat="43.47363031173196" lon="10.925096028022198"><ele>307.0</ele><time>2026-04-18T08:50:29Z</time></trkpt><trkpt lat="43.47357010037462" lon="10.924970341554877"><ele>305.0</ele><time>2026-04-18T08:50:30Z</time></trkpt><trkpt lat="43.473511684440425" lon="10.924835625366795"><ele>303.0</ele><time>2026-04-18T08:50:31Z</time></trkpt><trkpt lat="43.47345613353647" lon="10.924704428452849"><ele>301.0</ele><time>2026-04-18T08:50:32Z</time></trkpt><trkpt lat="43.47338968117062" lon="10.924564948030033"><ele>299.0</ele><time>2026-04-18T08:50:33Z</time></trkpt><trkpt lat="43.47330999045957" lon="10.924440429801326"><ele>299.0</ele><time>2026-04-18T08:50:34Z</time></trkpt><trkpt lat="43.47323275558215" lon="10.924348965693728"><ele>299.0</ele><time>2026-04-18T08:50:35Z</time></trkpt><trkpt lat="43.4731237714102" lon="10.924247657493844"><ele>299.0</ele><time>2026-04-18T08:50:36Z</time></trkpt><trkpt lat="43.473003295549574" lon="10.924152831478139"><ele>299.0</ele><time>2026-04-18T08:50:37Z</time></trkpt><trkpt lat="43.472902560127366" lon="10.924067088169155"><ele>296.5</ele><time>2026-04-18T08:50:38Z</time></trkpt><trkpt lat="43.47279377429258" lon="10.923977433813539"><ele>294.0</ele><time>2026-04-18T08:50:39Z</time></trkpt><trkpt lat="43.472691611838094" lon="10.923891707876146"><ele>291.5</ele><time>2026-04-18T08:50:40Z</time></trkpt><trkpt lat="43.472587885295845" lon="10.923813648186092"><ele>289.0</ele><time>2026-04-18T08:50:41Z</time></trkpt><trkpt lat="43.47248829798187" lon="10.923736437700706"><ele>289.0</ele><time>2026-04-18T08:50:42Z</time></trkpt><trkpt lat="43.472387917450256" lon="10.923650212232795"><ele>289.0</ele><time>2026-04-18T08:50:43Z</time></trkpt><trkpt lat="43.47228417016605" lon="10.92356323738672"><ele>289.0</ele><time>2026-04-18T08:50:44Z</time></trkpt><trkpt lat="43.47220539206647" lon="10.923468939101049"><ele>289.0</ele><time>2026-04-18T08:50:45Z</time></trkpt><trkpt lat="43.4721382669727" lon="10.923361279906327"><ele>289.0</ele><time>2026-04-18T08:50:46Z</time></trkpt><trkpt lat="43.472127948732386" lon="10.923242403060753"><ele>290.0</ele><time>2026-04-18T08:50:47Z</time></trkpt><trkpt lat="43.47212909587294" lon="10.923107841885901"><ele>291.0</ele><time>2026-04-18T08:50:47.999Z</time></trkpt><trkpt lat="43.47216783770353" lon="10.922966943389438"><ele>292.0</ele><time>2026-04-18T08:50:48.999Z</time></trkpt><trkpt lat="43.472261135038686" lon="10.922870326600991"><ele>293.0</ele><time>2026-04-18T08:50:49.999Z</time></trkpt><trkpt lat="43.4723536501194" lon="10.922713164343959"><ele>293.0</ele><time>2026-04-18T08:50:50.999Z</time></trkpt><trkpt lat="43.472479751049285" lon="10.922576311979432"><ele>293.0</ele><time>2026-04-18T08:50:51.999Z</time></trkpt><trkpt lat="43.47258183353606" lon="10.922478578202032"><ele>293.0</ele><time>2026-04-18T08:50:52.999Z</time></trkpt><trkpt lat="43.47267780140454" lon="10.922372456389022"><ele>293.0</ele><time>2026-04-18T08:50:53.999Z</time></trkpt><trkpt lat="43.47277225739021" lon="10.92226221273803"><ele>293.5</ele><time>2026-04-18T08:50:54.999Z</time></trkpt><trkpt lat="43.47286703577886" lon="10.922128031992669"><ele>294.0</ele><time>2026-04-18T08:50:55.999Z</time></trkpt><trkpt lat="43.47296440855517" lon="10.922003154912762"><ele>294.5</ele><time>2026-04-18T08:50:56.999Z</time></trkpt><trkpt lat="43.47304447819343" lon="10.921874114057578"><ele>295.0</ele><time>2026-04-18T08:50:57.999Z</time></trkpt><trkpt lat="43.47312160445007" lon="10.921749534063418"><ele>291.25</ele><time>2026-04-18T08:50:58.999Z</time></trkpt><trkpt lat="43.473183089762394" lon="10.921644129468168"><ele>287.5</ele><time>2026-04-18T08:50:59.999Z</time></trkpt><trkpt lat="43.47323065080893" lon="10.921521826399266"><ele>283.75</ele><time>2026-04-18T08:51:00.999Z</time></trkpt><trkpt lat="43.473304354232155" lon="10.921388927670874"><ele>280.0</ele><time>2026-04-18T08:51:01.999Z</time></trkpt><trkpt lat="43.473347562712966" lon="10.921208630445078"><ele>280.0</ele><time>2026-04-18T08:51:02.999Z</time></trkpt><trkpt lat="43.47338275224659" lon="10.921023051590977"><ele>280.0</ele><time>2026-04-18T08:51:03.999Z</time></trkpt><trkpt lat="43.4734049830295" lon="10.92084626038189"><ele>280.0</ele><time>2026-04-18T08:51:04.999Z</time></trkpt><trkpt lat="43.47342586409353" lon="10.920670667689768"><ele>280.0</ele><time>2026-04-18T08:51:05.999Z</time></trkpt><trkpt lat="43.47342693106883" lon="10.920501495375403"><ele>278.0</ele><time>2026-04-18T08:51:06.999Z</time></trkpt><trkpt lat="43.473412716189344" lon="10.920355899675755"><ele>276.0</ele><time>2026-04-18T08:51:07.999Z</time></trkpt><trkpt lat="43.47339889906365" lon="10.920210916731449"><ele>274.0</ele><time>2026-04-18T08:51:08.999Z</time></trkpt><trkpt lat="43.473352105424645" lon="10.920082913922943"><ele>272.0</ele><time>2026-04-18T08:51:09.999Z</time></trkpt><trkpt lat="43.47328241607828" lon="10.919961844547762"><ele>270.0</ele><time>2026-04-18T08:51:10.999Z</time></trkpt><trkpt lat="43.473198403731026" lon="10.919860014127972"><ele>268.25</ele><time>2026-04-18T08:51:11.999Z</time></trkpt><trkpt lat="43.4731043995622" lon="10.919790289218728"><ele>266.5</ele><time>2026-04-18T08:51:12.999Z</time></trkpt><trkpt lat="43.47303037985408" lon="10.919664822470995"><ele>264.75</ele><time>2026-04-18T08:51:13.999Z</time></trkpt><trkpt lat="43.472971046396694" lon="10.919517887547402"><ele>263.0</ele><time>2026-04-18T08:51:14.999Z</time></trkpt><trkpt lat="43.47293325650729" lon="10.919347320924693"><ele>260.75</ele><time>2026-04-18T08:51:15.999Z</time></trkpt><trkpt lat="43.47291473252445" lon="10.919147440196891"><ele>258.5</ele><time>2026-04-18T08:51:16.999Z</time></trkpt><trkpt lat="43.47290285104462" lon="10.918949016349574"><ele>256.25</ele><time>2026-04-18T08:51:17.999Z</time></trkpt><trkpt lat="43.47287085277682" lon="10.918766178294376"><ele>254.0</ele><time>2026-04-18T08:51:18.999Z</time></trkpt><trkpt lat="43.472819807548056" lon="10.918606078740034"><ele>254.0</ele><time>2026-04-18T08:51:19.999Z</time></trkpt><trkpt lat="43.472746175240715" lon="10.918452140462756"><ele>254.0</ele><time>2026-04-18T08:51:20.999Z</time></trkpt><trkpt lat="43.472661905004216" lon="10.918277295013866"><ele>254.0</ele><time>2026-04-18T08:51:21.999Z</time></trkpt><trkpt lat="43.472583690922015" lon="10.918124544015038"><ele>254.0</ele><time>2026-04-18T08:51:22.999Z</time></trkpt><trkpt lat="43.47250494527875" lon="10.917966552674006"><ele>252.5</ele><time>2026-04-18T08:51:23.999Z</time></trkpt><trkpt lat="43.47242626348922" lon="10.917814107380455"><ele>251.0</ele><time>2026-04-18T08:51:24.999Z</time></trkpt><trkpt lat="43.472353269223795" lon="10.917662809778623"><ele>249.5</ele><time>2026-04-18T08:51:25.999Z</time></trkpt><trkpt lat="43.47228513321513" lon="10.917541426600106"><ele>248.0</ele><time>2026-04-18T08:51:26.999Z</time></trkpt><trkpt lat="43.472208869992656" lon="10.917429241847506"><ele>247.25</ele><time>2026-04-18T08:51:27.999Z</time></trkpt><trkpt lat="43.47213127001865" lon="10.91732135708145"><ele>246.5</ele><time>2026-04-18T08:51:28.999Z</time></trkpt><trkpt lat="43.47202030629392" lon="10.91724348672887"><ele>245.75</ele><time>2026-04-18T08:51:29.999Z</time></trkpt><trkpt lat="43.4719125710912" lon="10.917184986650136"><ele>245.0</ele><time>2026-04-18T08:51:30.999Z</time></trkpt><trkpt lat="43.47180241976491" lon="10.91716537679783"><ele>243.75</ele><time>2026-04-18T08:51:31.999Z</time></trkpt><trkpt lat="43.4717071722644" lon="10.917158764274456"><ele>242.5</ele><time>2026-04-18T08:51:32.999Z</time></trkpt><trkpt lat="43.471596807567" lon="10.917156353214365"><ele>241.25</ele><time>2026-04-18T08:51:33.999Z</time></trkpt><trkpt lat="43.471481081316135" lon="10.917216000432475"><ele>240.0</ele><time>2026-04-18T08:51:34.999Z</time></trkpt><trkpt lat="43.47137969053611" lon="10.917325075862463"><ele>239.5</ele><time>2026-04-18T08:51:35.999Z</time></trkpt><trkpt lat="43.47126185590128" lon="10.917445942515402"><ele>239.0</ele><time>2026-04-18T08:51:36.999Z</time></trkpt><trkpt lat="43.471141761777936" lon="10.91756613916407"><ele>238.5</ele><time>2026-04-18T08:51:37.999Z</time></trkpt><trkpt lat="43.47102545119174" lon="10.917691679371611"><ele>238.0</ele><time>2026-04-18T08:51:38.999Z</time></trkpt><trkpt lat="43.470904804163794" lon="10.917817291211373"><ele>238.0</ele><time>2026-04-18T08:51:39.999Z</time></trkpt><trkpt lat="43.470782739750305" lon="10.917945283438348"><ele>238.0</ele><time>2026-04-18T08:51:40.999Z</time></trkpt><trkpt lat="43.47066313607889" lon="10.918068887327994"><ele>238.0</ele><time>2026-04-18T08:51:41.999Z</time></trkpt><trkpt lat="43.470548988279106" lon="10.918182294068066"><ele>238.0</ele><time>2026-04-18T08:51:42.999Z</time></trkpt><trkpt lat="43.470445268861845" lon="10.918291930993146"><ele>236.8</ele><time>2026-04-18T08:51:43.999Z</time></trkpt><trkpt lat="43.470351492445765" lon="10.918385699572697"><ele>235.60000000000002</ele><time>2026-04-18T08:51:44.999Z</time></trkpt><trkpt lat="43.4702630148113" lon="10.918462154597046"><ele>234.39999999999998</ele><time>2026-04-18T08:51:45.999Z</time></trkpt><trkpt lat="43.470170238805416" lon="10.918503882492717"><ele>233.2</ele><time>2026-04-18T08:51:46.999Z</time></trkpt><trkpt lat="43.470071508197705" lon="10.918506906295015"><ele>232.0</ele><time>2026-04-18T08:51:47.999Z</time></trkpt><trkpt lat="43.46997732925734" lon="10.918450117677942"><ele>230.8</ele><time>2026-04-18T08:51:48.999Z</time></trkpt><trkpt lat="43.46991306261114" lon="10.91835813073874"><ele>229.6</ele><time>2026-04-18T08:51:49.999Z</time></trkpt><trkpt lat="43.46989343722792" lon="10.918241546159758"><ele>228.40000000000003</ele><time>2026-04-18T08:51:50.999Z</time></trkpt><trkpt lat="43.46990138689668" lon="10.91808872504454"><ele>227.20000000000002</ele><time>2026-04-18T08:51:51.999Z</time></trkpt><trkpt lat="43.4699357323043" lon="10.917902016269727"><ele>226.0</ele><time>2026-04-18T08:51:52.999Z</time></trkpt><trkpt lat="43.46996990861181" lon="10.917746405038923"><ele>226.0</ele><time>2026-04-18T08:51:53.999Z</time></trkpt><trkpt lat="43.46998711199106" lon="10.917612005148095"><ele>226.00000000000003</ele><time>2026-04-18T08:51:54.999Z</time></trkpt><trkpt lat="43.46998052112791" lon="10.917477230604712"><ele>226.00000000000003</ele><time>2026-04-18T08:51:55.999Z</time></trkpt><trkpt lat="43.46994188473786" lon="10.917361023650198"><ele>226.0</ele><time>2026-04-18T08:51:56.999Z</time></trkpt><trkpt lat="43.46987788660171" lon="10.917265436317805"><ele>226.0</ele><time>2026-04-18T08:51:57.999Z</time></trkpt><trkpt lat="43.46978106217415" lon="10.917208840046213"><ele>224.5</ele><time>2026-04-18T08:51:58.999Z</time></trkpt><trkpt lat="43.46965167527206" lon="10.917192188392775"><ele>223.0</ele><time>2026-04-18T08:52:00Z</time></trkpt><trkpt lat="43.46950134584606" lon="10.917204337592644"><ele>221.5</ele><time>2026-04-18T08:52:01Z</time></trkpt><trkpt lat="43.469346388651395" lon="10.91720444289351"><ele>220.0</ele><time>2026-04-18T08:52:02Z</time></trkpt><trkpt lat="43.469197780656415" lon="10.917202817769853"><ele>217.5</ele><time>2026-04-18T08:52:03Z</time></trkpt><trkpt lat="43.46905606718291" lon="10.917206637635934"><ele>215.0</ele><time>2026-04-18T08:52:04Z</time></trkpt><trkpt lat="43.468919981220246" lon="10.91720548750762"><ele>212.5</ele><time>2026-04-18T08:52:05Z</time></trkpt><trkpt lat="43.46878157519022" lon="10.917206335676742"><ele>210.0</ele><time>2026-04-18T08:52:06Z</time></trkpt><trkpt lat="43.468637706766536" lon="10.917201781595802"><ele>208.25</ele><time>2026-04-18T08:52:07Z</time></trkpt><trkpt lat="43.46850325532591" lon="10.917192141019573"><ele>206.5</ele><time>2026-04-18T08:52:08Z</time></trkpt><trkpt lat="43.468361627658986" lon="10.917164216860062"><ele>204.75</ele><time>2026-04-18T08:52:09Z</time></trkpt><trkpt lat="43.4682288696374" lon="10.917111207024591"><ele>203.0</ele><time>2026-04-18T08:52:10Z</time></trkpt><trkpt lat="43.46808944175491" lon="10.917031804057006"><ele>203.0</ele><time>2026-04-18T08:52:11Z</time></trkpt><trkpt lat="43.46795735433521" lon="10.916936123120212"><ele>203.0</ele><time>2026-04-18T08:52:12Z</time></trkpt><trkpt lat="43.46784992627439" lon="10.916830326557275"><ele>203.0</ele><time>2026-04-18T08:52:13Z</time></trkpt><trkpt lat="43.46776370627556" lon="10.916705330939546"><ele>203.0</ele><time>2026-04-18T08:52:14Z</time></trkpt><trkpt lat="43.467708279475254" lon="10.91655647804009"><ele>201.25</ele><time>2026-04-18T08:52:15Z</time></trkpt><trkpt lat="43.46769222355757" lon="10.91638463084901"><ele>199.5</ele><time>2026-04-18T08:52:16Z</time></trkpt><trkpt lat="43.46770647435258" lon="10.91620016536673"><ele>197.75</ele><time>2026-04-18T08:52:17Z</time></trkpt><trkpt lat="43.46774519790326" lon="10.915992201989514"><ele>196.0</ele><time>2026-04-18T08:52:18Z</time></trkpt><trkpt lat="43.46778831517643" lon="10.91579180241727"><ele>194.5</ele><time>2026-04-18T08:52:19Z</time></trkpt><trkpt lat="43.46783064351644" lon="10.915600516794083"><ele>193.0</ele><time>2026-04-18T08:52:20Z</time></trkpt><trkpt lat="43.467863226846546" lon="10.915424307087335"><ele>191.5</ele><time>2026-04-18T08:52:21Z</time></trkpt><trkpt lat="43.46787157608709" lon="10.915246657395734"><ele>190.0</ele><time>2026-04-18T08:52:22Z</time></trkpt><trkpt lat="43.467866257816354" lon="10.915050367478619"><ele>189.0</ele><time>2026-04-18T08:52:23Z</time></trkpt><trkpt lat="43.46784515918581" lon="10.914828768426695"><ele>188.0</ele><time>2026-04-18T08:52:24Z</time></trkpt><trkpt lat="43.467818896822045" lon="10.914591613043948"><ele>187.0</ele><time>2026-04-18T08:52:25Z</time></trkpt><trkpt lat="43.467791755845745" lon="10.91435075471903"><ele>186.66666666666669</ele><time>2026-04-18T08:52:26Z</time></trkpt><trkpt lat="43.46776900290124" lon="10.91411552465612"><ele>186.33333333333334</ele><time>2026-04-18T08:52:27Z</time></trkpt><trkpt lat="43.467746232593484" lon="10.913903049253316"><ele>186.0</ele><time>2026-04-18T08:52:28Z</time></trkpt><trkpt lat="43.4677276637439" lon="10.913704443276377"><ele>186.0</ele><time>2026-04-18T08:52:29Z</time></trkpt><trkpt lat="43.46770704635176" lon="10.913513719317978"><ele>186.0</ele><time>2026-04-18T08:52:30Z</time></trkpt><trkpt lat="43.467671520814406" lon="10.913349388851953"><ele>186.0</ele><time>2026-04-18T08:52:31Z</time></trkpt><trkpt lat="43.4676209772164" lon="10.913200930673248"><ele>186.0</ele><time>2026-04-18T08:52:32Z</time></trkpt><trkpt lat="43.467566751375074" lon="10.913089342294851"><ele>185.66666666666666</ele><time>2026-04-18T08:52:33Z</time></trkpt><trkpt lat="43.467500934542315" lon="10.913014456637962"><ele>185.33333333333334</ele><time>2026-04-18T08:52:34Z</time></trkpt><trkpt lat="43.46742330159948" lon="10.912993766568885"><ele>185.0</ele><time>2026-04-18T08:52:35Z</time></trkpt><trkpt lat="43.4673528953982" lon="10.91300530970742"><ele>184.66666666666669</ele><time>2026-04-18T08:52:36Z</time></trkpt><trkpt lat="43.46724229379833" lon="10.913051845426274"><ele>184.33333333333334</ele><time>2026-04-18T08:52:38Z</time></trkpt><trkpt lat="43.46715455868246" lon="10.913073564619486"><ele>184.0</ele><time>2026-04-18T08:52:40Z</time></trkpt><trkpt lat="43.46703417758763" lon="10.913119460659239"><ele>184.66666666666669</ele><time>2026-04-18T08:52:42Z</time></trkpt><trkpt lat="43.46696345170976" lon="10.913157001730216"><ele>185.33333333333334</ele><time>2026-04-18T08:52:43Z</time></trkpt><trkpt lat="43.46689591544039" lon="10.913175518296203"><ele>186.0</ele><time>2026-04-18T08:52:44Z</time></trkpt><trkpt lat="43.466812256423275" lon="10.913177462313389"><ele>186.66666666666666</ele><time>2026-04-18T08:52:45Z</time></trkpt><trkpt lat="43.466721872739605" lon="10.913167174711939"><ele>187.33333333333331</ele><time>2026-04-18T08:52:46Z</time></trkpt><trkpt lat="43.466623209376856" lon="10.913147690909575"><ele>188.0</ele><time>2026-04-18T08:52:47Z</time></trkpt><trkpt lat="43.46653303738419" lon="10.913129626870216"><ele>188.0</ele><time>2026-04-18T08:52:47.999Z</time></trkpt><trkpt lat="43.466441430578676" lon="10.91311541229954"><ele>188.0</ele><time>2026-04-18T08:52:48.999Z</time></trkpt><trkpt lat="43.46634006793802" lon="10.913098718461146"><ele>188.0</ele><time>2026-04-18T08:52:49.999Z</time></trkpt><trkpt lat="43.46623293586388" lon="10.913078275766477"><ele>188.0</ele><time>2026-04-18T08:52:50.999Z</time></trkpt><trkpt lat="43.46611009334166" lon="10.913063025475987"><ele>188.0</ele><time>2026-04-18T08:52:51.999Z</time></trkpt><trkpt lat="43.46598135524902" lon="10.913044944847531"><ele>189.0</ele><time>2026-04-18T08:52:52.999Z</time></trkpt><trkpt lat="43.4658521392978" lon="10.913017590074377"><ele>190.0</ele><time>2026-04-18T08:52:53.999Z</time></trkpt><trkpt lat="43.4657375939159" lon="10.912999338238329"><ele>191.0</ele><time>2026-04-18T08:52:54.999Z</time></trkpt><trkpt lat="43.46563161830607" lon="10.912994856814736"><ele>192.0</ele><time>2026-04-18T08:52:55.999Z</time></trkpt><trkpt lat="43.4655280783983" lon="10.913001671351106"><ele>190.75</ele><time>2026-04-18T08:52:56.999Z</time></trkpt><trkpt lat="43.46540978543184" lon="10.913039903676745"><ele>189.5</ele><time>2026-04-18T08:52:57.999Z</time></trkpt><trkpt lat="43.46529414526194" lon="10.913116867980579"><ele>188.25</ele><time>2026-04-18T08:52:58.999Z</time></trkpt><trkpt lat="43.46519085337445" lon="10.913201204530843"><ele>187.0</ele><time>2026-04-18T08:52:59.999Z</time></trkpt><trkpt lat="43.465096717401046" lon="10.913306776215528"><ele>187.0</ele><time>2026-04-18T08:53:00.999Z</time></trkpt><trkpt lat="43.46501158210943" lon="10.913405406490183"><ele>187.0</ele><time>2026-04-18T08:53:01.999Z</time></trkpt><trkpt lat="43.464925277053794" lon="10.91350601403958"><ele>187.0</ele><time>2026-04-18T08:53:02.999Z</time></trkpt><trkpt lat="43.464840124385205" lon="10.91360388344166"><ele>187.0</ele><time>2026-04-18T08:53:03.999Z</time></trkpt><trkpt lat="43.46476056353883" lon="10.913698696632343"><ele>187.0</ele><time>2026-04-18T08:53:04.999Z</time></trkpt><trkpt lat="43.46468103890956" lon="10.913787270564852"><ele>187.8</ele><time>2026-04-18T08:53:05.999Z</time></trkpt><trkpt lat="43.46459766770934" lon="10.913866987352662"><ele>188.6</ele><time>2026-04-18T08:53:06.999Z</time></trkpt><trkpt lat="43.464510619396606" lon="10.913937169236464"><ele>189.4</ele><time>2026-04-18T08:53:07.999Z</time></trkpt><trkpt lat="43.46441740942232" lon="10.913981253402817"><ele>190.20000000000002</ele><time>2026-04-18T08:53:08.999Z</time></trkpt><trkpt lat="43.46431851982484" lon="10.91398618052846"><ele>191.0</ele><time>2026-04-18T08:53:09.999Z</time></trkpt><trkpt lat="43.464224386760634" lon="10.913957362457753"><ele>191.0</ele><time>2026-04-18T08:53:10.999Z</time></trkpt><trkpt lat="43.46411802630567" lon="10.913903287886649"><ele>191.0</ele><time>2026-04-18T08:53:11.999Z</time></trkpt><trkpt lat="43.46402006094159" lon="10.913838849730308"><ele>191.0</ele><time>2026-04-18T08:53:12.999Z</time></trkpt><trkpt lat="43.463933732669524" lon="10.913803429818845"><ele>191.0</ele><time>2026-04-18T08:53:13.999Z</time></trkpt><trkpt lat="43.463836750875664" lon="10.913817760474432"><ele>191.0</ele><time>2026-04-18T08:53:14.999Z</time></trkpt><trkpt lat="43.46374888454298" lon="10.913872153658374"><ele>192.20000000000002</ele><time>2026-04-18T08:53:15.999Z</time></trkpt><trkpt lat="43.46366592003137" lon="10.913971387589843"><ele>193.4</ele><time>2026-04-18T08:53:16.999Z</time></trkpt><trkpt lat="43.46359598651864" lon="10.91408199495059"><ele>194.6</ele><time>2026-04-18T08:53:17.999Z</time></trkpt><trkpt lat="43.463526036192086" lon="10.914205880479207"><ele>195.8</ele><time>2026-04-18T08:53:18.999Z</time></trkpt><trkpt lat="43.46346687496817" lon="10.914342391660245"><ele>197.0</ele><time>2026-04-18T08:53:19.999Z</time></trkpt><trkpt lat="43.46339934336402" lon="10.914476325060813"><ele>197.0</ele><time>2026-04-18T08:53:20.999Z</time></trkpt><trkpt lat="43.46333226296319" lon="10.914603269615723"><ele>197.0</ele><time>2026-04-18T08:53:21.999Z</time></trkpt><trkpt lat="43.46326045534488" lon="10.914735539611058"><ele>197.0</ele><time>2026-04-18T08:53:22.999Z</time></trkpt><trkpt lat="43.46319002271548" lon="10.914863106193662"><ele>197.0</ele><time>2026-04-18T08:53:23.999Z</time></trkpt><trkpt lat="43.463118269414174" lon="10.914989227734557"><ele>196.25</ele><time>2026-04-18T08:53:24.999Z</time></trkpt><trkpt lat="43.46304257342733" lon="10.915115159445245"><ele>195.5</ele><time>2026-04-18T08:53:25.999Z</time></trkpt><trkpt lat="43.462954404750406" lon="10.915224345974224"><ele>194.75</ele><time>2026-04-18T08:53:26.999Z</time></trkpt><trkpt lat="43.46285545510193" lon="10.915315104526936"><ele>194.0</ele><time>2026-04-18T08:53:27.999Z</time></trkpt><trkpt lat="43.462749769242855" lon="10.915385441211688"><ele>196.5</ele><time>2026-04-18T08:53:28.999Z</time></trkpt><trkpt lat="43.462627665854605" lon="10.915450138444651"><ele>199.0</ele><time>2026-04-18T08:53:29.999Z</time></trkpt><trkpt lat="43.46250842851256" lon="10.915515166734433"><ele>201.5</ele><time>2026-04-18T08:53:30.999Z</time></trkpt><trkpt lat="43.4623834229779" lon="10.91557272293753"><ele>204.0</ele><time>2026-04-18T08:53:31.999Z</time></trkpt><trkpt lat="43.46224730877491" lon="10.91562609119934"><ele>206.75</ele><time>2026-04-18T08:53:32.999Z</time></trkpt><trkpt lat="43.46210059179453" lon="10.9156544542244"><ele>209.5</ele><time>2026-04-18T08:53:33.999Z</time></trkpt><trkpt lat="43.46195538567867" lon="10.915676562318094"><ele>212.25</ele><time>2026-04-18T08:53:34.999Z</time></trkpt><trkpt lat="43.46180931273457" lon="10.91570543928912"><ele>215.0</ele><time>2026-04-18T08:53:35.999Z</time></trkpt><trkpt lat="43.461662955717564" lon="10.915737493559744"><ele>215.0</ele><time>2026-04-18T08:53:36.999Z</time></trkpt><trkpt lat="43.461502926620696" lon="10.915783247961276"><ele>215.0</ele><time>2026-04-18T08:53:37.999Z</time></trkpt><trkpt lat="43.461354784211366" lon="10.915821262775095"><ele>215.0</ele><time>2026-04-18T08:53:38.999Z</time></trkpt><trkpt lat="43.461227874861635" lon="10.915834423912996"><ele>215.0</ele><time>2026-04-18T08:53:39.999Z</time></trkpt><trkpt lat="43.461098592364095" lon="10.915829049891533"><ele>216.5</ele><time>2026-04-18T08:53:40.999Z</time></trkpt><trkpt lat="43.4609902162727" lon="10.915784157211753"><ele>218.0</ele><time>2026-04-18T08:53:41.999Z</time></trkpt><trkpt lat="43.46088169665653" lon="10.915698000155352"><ele>219.5</ele><time>2026-04-18T08:53:42.999Z</time></trkpt><trkpt lat="43.46078361284489" lon="10.915618661024673"><ele>221.0</ele><time>2026-04-18T08:53:43.999Z</time></trkpt><trkpt lat="43.46069806186217" lon="10.915533162437477"><ele>221.0</ele><time>2026-04-18T08:53:44.999Z</time></trkpt><trkpt lat="43.4606244612388" lon="10.915467698375961"><ele>221.0</ele><time>2026-04-18T08:53:45.999Z</time></trkpt><trkpt lat="43.46043625596584" lon="10.915707173193697"><ele>221.0</ele><time>2026-04-18T08:53:46.999Z</time></trkpt><trkpt lat="43.46034262476418" lon="10.915814968647188"><ele>222.5</ele><time>2026-04-18T08:53:47.999Z</time></trkpt><trkpt lat="43.460285303746545" lon="10.915880831733158"><ele>224.0</ele><time>2026-04-18T08:53:48.999Z</time></trkpt><trkpt lat="43.46016211137943" lon="10.915900831000943"><ele>225.5</ele><time>2026-04-18T08:53:49.999Z</time></trkpt><trkpt lat="43.46001793961703" lon="10.91589451176323"><ele>227.0</ele><time>2026-04-18T08:53:50.999Z</time></trkpt><trkpt lat="43.45989415300742" lon="10.915840144852972"><ele>227.0</ele><time>2026-04-18T08:53:51.999Z</time></trkpt><trkpt lat="43.45979224090444" lon="10.91575908688313"><ele>227.0</ele><time>2026-04-18T08:53:52.999Z</time></trkpt><trkpt lat="43.4597069458206" lon="10.915642567054613"><ele>227.0</ele><time>2026-04-18T08:53:53.999Z</time></trkpt><trkpt lat="43.45962306853039" lon="10.915491506711259"><ele>227.0</ele><time>2026-04-18T08:53:54.999Z</time></trkpt><trkpt lat="43.45954951137553" lon="10.915376515705553"><ele>227.75</ele><time>2026-04-18T08:53:55.999Z</time></trkpt><trkpt lat="43.45946041515808" lon="10.915259209573087"><ele>228.5</ele><time>2026-04-18T08:53:56.999Z</time></trkpt><trkpt lat="43.45934744935351" lon="10.915179988472818"><ele>229.25</ele><time>2026-04-18T08:53:57.999Z</time></trkpt><trkpt lat="43.459242929557504" lon="10.915176299903278"><ele>230.0</ele><time>2026-04-18T08:53:58.999Z</time></trkpt><trkpt lat="43.459134588572255" lon="10.915232501247184"><ele>230.0</ele><time>2026-04-18T08:53:59.999Z</time></trkpt><trkpt lat="43.45904087404464" lon="10.915322340441275"><ele>230.0</ele><time>2026-04-18T08:54:00.999Z</time></trkpt><trkpt lat="43.45894279313486" lon="10.91536072629032"><ele>230.0</ele><time>2026-04-18T08:54:01.999Z</time></trkpt><trkpt lat="43.45881352765643" lon="10.915316038288232"><ele>230.0</ele><time>2026-04-18T08:54:02.999Z</time></trkpt><trkpt lat="43.45871344632381" lon="10.91520873930122"><ele>228.75</ele><time>2026-04-18T08:54:03.999Z</time></trkpt><trkpt lat="43.45862774120958" lon="10.915076800235093"><ele>227.5</ele><time>2026-04-18T08:54:04.999Z</time></trkpt><trkpt lat="43.4585742575968" lon="10.914920686304562"><ele>226.25</ele><time>2026-04-18T08:54:06Z</time></trkpt><trkpt lat="43.45855203435836" lon="10.914732972230293"><ele>225.0</ele><time>2026-04-18T08:54:07Z</time></trkpt><trkpt lat="43.458554604391004" lon="10.914508951828653"><ele>227.5</ele><time>2026-04-18T08:54:08Z</time></trkpt><trkpt lat="43.45856602066159" lon="10.914300111503874"><ele>230.0</ele><time>2026-04-18T08:54:09Z</time></trkpt><trkpt lat="43.4585690814774" lon="10.914104063973307"><ele>232.5</ele><time>2026-04-18T08:54:10Z</time></trkpt><trkpt lat="43.458569248197485" lon="10.913894133309299"><ele>235.0</ele><time>2026-04-18T08:54:11Z</time></trkpt><trkpt lat="43.458569506599865" lon="10.913703011271338"><ele>236.6</ele><time>2026-04-18T08:54:12Z</time></trkpt><trkpt lat="43.458568614415256" lon="10.913529353460076"><ele>238.2</ele><time>2026-04-18T08:54:13Z</time></trkpt><trkpt lat="43.458575530968126" lon="10.913380135904916"><ele>239.8</ele><time>2026-04-18T08:54:14Z</time></trkpt><trkpt lat="43.45857686120269" lon="10.91324437638827"><ele>241.4</ele><time>2026-04-18T08:54:15Z</time></trkpt><trkpt lat="43.458555119245275" lon="10.913104138639245"><ele>243.0</ele><time>2026-04-18T08:54:16Z</time></trkpt><trkpt lat="43.45849530861639" lon="10.91296192773535"><ele>244.75</ele><time>2026-04-18T08:54:17Z</time></trkpt><trkpt lat="43.45840822626213" lon="10.912856579033127"><ele>246.5</ele><time>2026-04-18T08:54:18Z</time></trkpt><trkpt lat="43.45829234255598" lon="10.912758868602626"><ele>248.25</ele><time>2026-04-18T08:54:19Z</time></trkpt><trkpt lat="43.45815190832316" lon="10.912668874301989"><ele>250.0</ele><time>2026-04-18T08:54:20Z</time></trkpt><trkpt lat="43.458017222388456" lon="10.912587414402994"><ele>253.0</ele><time>2026-04-18T08:54:21Z</time></trkpt><trkpt lat="43.457888648318004" lon="10.912512548271"><ele>256.0</ele><time>2026-04-18T08:54:22Z</time></trkpt><trkpt lat="43.45775560340693" lon="10.912417843848488"><ele>259.0</ele><time>2026-04-18T08:54:23Z</time></trkpt><trkpt lat="43.45761340545093" lon="10.912306886587583"><ele>259.0</ele><time>2026-04-18T08:54:24Z</time></trkpt><trkpt lat="43.457462964760325" lon="10.912205083095175"><ele>259.0</ele><time>2026-04-18T08:54:25Z</time></trkpt><trkpt lat="43.45731381858024" lon="10.912101396092853"><ele>259.0</ele><time>2026-04-18T08:54:26Z</time></trkpt><trkpt lat="43.457167494656375" lon="10.911997661697832"><ele>260.3333333333333</ele><time>2026-04-18T08:54:27Z</time></trkpt><trkpt lat="43.4570238637355" lon="10.911889433188493"><ele>261.6666666666667</ele><time>2026-04-18T08:54:28Z</time></trkpt><trkpt lat="43.45688352274023" lon="10.911794448678029"><ele>263.0</ele><time>2026-04-18T08:54:29Z</time></trkpt><trkpt lat="43.45675626342514" lon="10.911701941540933"><ele>263.25</ele><time>2026-04-18T08:54:30Z</time></trkpt><trkpt lat="43.45663900833402" lon="10.911623660361792"><ele>263.5</ele><time>2026-04-18T08:54:31Z</time></trkpt><trkpt lat="43.45653764478155" lon="10.911550894891949"><ele>263.75</ele><time>2026-04-18T08:54:32Z</time></trkpt><trkpt lat="43.45643091715079" lon="10.91150383203532"><ele>264.0</ele><time>2026-04-18T08:54:33Z</time></trkpt><trkpt lat="43.456318422178036" lon="10.911499706058812"><ele>266.0</ele><time>2026-04-18T08:54:34Z</time></trkpt><trkpt lat="43.45620792609873" lon="10.911550382807599"><ele>268.0</ele><time>2026-04-18T08:54:35Z</time></trkpt><trkpt lat="43.45609499733349" lon="10.911634150360854"><ele>270.0</ele><time>2026-04-18T08:54:36Z</time></trkpt><trkpt lat="43.45596995039228" lon="10.911711204131457"><ele>272.0</ele><time>2026-04-18T08:54:37Z</time></trkpt><trkpt lat="43.45583490188179" lon="10.911765002807156"><ele>272.0</ele><time>2026-04-18T08:54:38Z</time></trkpt><trkpt lat="43.45572113694982" lon="10.911817720621551"><ele>272.0</ele><time>2026-04-18T08:54:39Z</time></trkpt><trkpt lat="43.45560312463217" lon="10.911865811759087"><ele>272.0</ele><time>2026-04-18T08:54:40Z</time></trkpt><trkpt lat="43.455473079503136" lon="10.91190979091528"><ele>272.0</ele><time>2026-04-18T08:54:41Z</time></trkpt><trkpt lat="43.45532397664317" lon="10.911938304549292"><ele>274.5</ele><time>2026-04-18T08:54:42Z</time></trkpt><trkpt lat="43.45517096830124" lon="10.911964812739091"><ele>277.0</ele><time>2026-04-18T08:54:43Z</time></trkpt><trkpt lat="43.45504498882525" lon="10.911985752205137"><ele>279.5</ele><time>2026-04-18T08:54:44Z</time></trkpt><trkpt lat="43.45492859178704" lon="10.912021333142912"><ele>282.0</ele><time>2026-04-18T08:54:45Z</time></trkpt><trkpt lat="43.45481093530631" lon="10.912099362590947"><ele>282.0</ele><time>2026-04-18T08:54:46Z</time></trkpt><trkpt lat="43.45469326220043" lon="10.91217818596091"><ele>282.0</ele><time>2026-04-18T08:54:47Z</time></trkpt><trkpt lat="43.454560775303" lon="10.912239835119836"><ele>282.0</ele><time>2026-04-18T08:54:48Z</time></trkpt><trkpt lat="43.45442703936858" lon="10.91226152345999"><ele>282.0</ele><time>2026-04-18T08:54:49Z</time></trkpt><trkpt lat="43.45429091472421" lon="10.912271078813445"><ele>284.5</ele><time>2026-04-18T08:54:50Z</time></trkpt><trkpt lat="43.454151935083985" lon="10.912261491183791"><ele>287.0</ele><time>2026-04-18T08:54:51Z</time></trkpt><trkpt lat="43.45402816836077" lon="10.912233486397295"><ele>289.5</ele><time>2026-04-18T08:54:52Z</time></trkpt><trkpt lat="43.45391311178371" lon="10.912180807321594"><ele>292.0</ele><time>2026-04-18T08:54:53Z</time></trkpt><trkpt lat="43.45380944094279" lon="10.91213435423956"><ele>292.4</ele><time>2026-04-18T08:54:54Z</time></trkpt><trkpt lat="43.45371172749214" lon="10.912112064871707"><ele>292.79999999999995</ele><time>2026-04-18T08:54:55Z</time></trkpt><trkpt lat="43.45362591019917" lon="10.912113891013465"><ele>293.2</ele><time>2026-04-18T08:54:56Z</time></trkpt><trkpt lat="43.453472043323785" lon="10.912130511861672"><ele>293.59999999999997</ele><time>2026-04-18T08:54:58Z</time></trkpt><trkpt lat="43.45336818170838" lon="10.912160062096277"><ele>294.0</ele><time>2026-04-18T08:54:59Z</time></trkpt><trkpt lat="43.453255694448" lon="10.912206285737254"><ele>294.0</ele><time>2026-04-18T08:55:00Z</time></trkpt><trkpt lat="43.45313677276063" lon="10.912246675784765"><ele>294.0</ele><time>2026-04-18T08:55:01Z</time></trkpt><trkpt lat="43.4530139169002" lon="10.912273350251168"><ele>294.0</ele><time>2026-04-18T08:55:02Z</time></trkpt><trkpt lat="43.45290456175053" lon="10.912295724413404"><ele>294.0</ele><time>2026-04-18T08:55:03Z</time></trkpt><trkpt lat="43.45280209949086" lon="10.912317090340856"><ele>293.5</ele><time>2026-04-18T08:55:04Z</time></trkpt><trkpt lat="43.45269500653521" lon="10.912318612114515"><ele>293.0</ele><time>2026-04-18T08:55:04.999Z</time></trkpt><trkpt lat="43.4525744584469" lon="10.912273286601755"><ele>292.5</ele><time>2026-04-18T08:55:05.999Z</time></trkpt><trkpt lat="43.4524608487655" lon="10.91221306564571"><ele>292.0</ele><time>2026-04-18T08:55:06.999Z</time></trkpt><trkpt lat="43.45236207988734" lon="10.912156174344165"><ele>292.0</ele><time>2026-04-18T08:55:07.999Z</time></trkpt><trkpt lat="43.452239826845585" lon="10.912113326588262"><ele>292.0</ele><time>2026-04-18T08:55:08.999Z</time></trkpt><trkpt lat="43.45210248986987" lon="10.912089636574747"><ele>292.0</ele><time>2026-04-18T08:55:09.999Z</time></trkpt><trkpt lat="43.45195926307387" lon="10.912080692269347"><ele>292.0</ele><time>2026-04-18T08:55:10.999Z</time></trkpt><trkpt lat="43.45181668681019" lon="10.912083056437165"><ele>290.75</ele><time>2026-04-18T08:55:11.999Z</time></trkpt><trkpt lat="43.45168089559597" lon="10.912080597541337"><ele>289.5</ele><time>2026-04-18T08:55:12.999Z</time></trkpt><trkpt lat="43.451551787171525" lon="10.912069170830998"><ele>288.25</ele><time>2026-04-18T08:55:13.999Z</time></trkpt><trkpt lat="43.45142436424982" lon="10.912026807647191"><ele>287.0</ele><time>2026-04-18T08:55:14.999Z</time></trkpt><trkpt lat="43.45130952961585" lon="10.911976598526234"><ele>286.2</ele><time>2026-04-18T08:55:15.999Z</time></trkpt><trkpt lat="43.451203040059276" lon="10.911944588164314"><ele>285.4</ele><time>2026-04-18T08:55:16.999Z</time></trkpt><trkpt lat="43.451087480064984" lon="10.911932554041805"><ele>284.6</ele><time>2026-04-18T08:55:17.999Z</time></trkpt><trkpt lat="43.4509691391388" lon="10.91195210004083"><ele>283.8</ele><time>2026-04-18T08:55:18.999Z</time></trkpt><trkpt lat="43.45087229365503" lon="10.911970141637688"><ele>283.0</ele><time>2026-04-18T08:55:19.999Z</time></trkpt><trkpt lat="43.45078680470968" lon="10.911951469624212"><ele>283.0</ele><time>2026-04-18T08:55:20.999Z</time></trkpt><trkpt lat="43.450696254069236" lon="10.911874215801538"><ele>283.0</ele><time>2026-04-18T08:55:21.999Z</time></trkpt><trkpt lat="43.450624520765835" lon="10.911743832807295"><ele>283.0</ele><time>2026-04-18T08:55:22.999Z</time></trkpt><trkpt lat="43.45054643411387" lon="10.91164837042489"><ele>283.0</ele><time>2026-04-18T08:55:23.999Z</time></trkpt><trkpt lat="43.450423788681626" lon="10.91154072739854"><ele>281.3333333333333</ele><time>2026-04-18T08:55:24.999Z</time></trkpt><trkpt lat="43.45028700688902" lon="10.911452853193575"><ele>279.6666666666667</ele><time>2026-04-18T08:55:25.999Z</time></trkpt><trkpt lat="43.45013764745022" lon="10.911364656627933"><ele>278.0</ele><time>2026-04-18T08:55:26.999Z</time></trkpt><trkpt lat="43.44998213782259" lon="10.911277469432228"><ele>278.0</ele><time>2026-04-18T08:55:27.999Z</time></trkpt><trkpt lat="43.449836940381495" lon="10.91119819956066"><ele>278.0</ele><time>2026-04-18T08:55:28.999Z</time></trkpt><trkpt lat="43.4496927963338" lon="10.911119431522488"><ele>278.0</ele><time>2026-04-18T08:55:29.999Z</time></trkpt><trkpt lat="43.449550684759835" lon="10.911043707578035"><ele>276.33333333333337</ele><time>2026-04-18T08:55:30.999Z</time></trkpt><trkpt lat="43.44940291751489" lon="10.910966198307507"><ele>274.6666666666667</ele><time>2026-04-18T08:55:31.999Z</time></trkpt><trkpt lat="43.44923819821393" lon="10.910891904462279"><ele>273.0</ele><time>2026-04-18T08:55:32.999Z</time></trkpt><trkpt lat="43.44906919319007" lon="10.910829271976676"><ele>273.0</ele><time>2026-04-18T08:55:33.999Z</time></trkpt><trkpt lat="43.44891878839603" lon="10.910775673278406"><ele>273.0</ele><time>2026-04-18T08:55:34.999Z</time></trkpt><trkpt lat="43.44876700086005" lon="10.910713933340364"><ele>273.0</ele><time>2026-04-18T08:55:35.999Z</time></trkpt><trkpt lat="43.448629798919264" lon="10.910620548139837"><ele>272.6666666666667</ele><time>2026-04-18T08:55:36.999Z</time></trkpt><trkpt lat="43.44848197908863" lon="10.910492780305487"><ele>272.33333333333337</ele><time>2026-04-18T08:55:37.999Z</time></trkpt><trkpt lat="43.44834218306595" lon="10.9103694054476"><ele>272.0</ele><time>2026-04-18T08:55:38.999Z</time></trkpt><trkpt lat="43.44821293007413" lon="10.910262177081043"><ele>272.0</ele><time>2026-04-18T08:55:39.999Z</time></trkpt><trkpt lat="43.448073232275874" lon="10.910172879846714"><ele>272.0</ele><time>2026-04-18T08:55:40.999Z</time></trkpt><trkpt lat="43.447915066184045" lon="10.910081761231707"><ele>272.0</ele><time>2026-04-18T08:55:41.999Z</time></trkpt><trkpt lat="43.44776298908664" lon="10.909988768079405"><ele>270.33333333333337</ele><time>2026-04-18T08:55:42.999Z</time></trkpt><trkpt lat="43.447611150010225" lon="10.909913463364264"><ele>268.6666666666667</ele><time>2026-04-18T08:55:43.999Z</time></trkpt><trkpt lat="43.447474825268685" lon="10.909837193086167"><ele>267.0</ele><time>2026-04-18T08:55:44.999Z</time></trkpt><trkpt lat="43.44734469851439" lon="10.90975244717164"><ele>267.0</ele><time>2026-04-18T08:55:45.999Z</time></trkpt><trkpt lat="43.44721473073396" lon="10.909665406832627"><ele>267.0</ele><time>2026-04-18T08:55:46.999Z</time></trkpt><trkpt lat="43.44708120785191" lon="10.909596332825524"><ele>267.0</ele><time>2026-04-18T08:55:47.999Z</time></trkpt><trkpt lat="43.446937298129654" lon="10.909534893994872"><ele>267.0</ele><time>2026-04-18T08:55:48.999Z</time></trkpt><trkpt lat="43.44680312593722" lon="10.909485718247634"><ele>265.5</ele><time>2026-04-18T08:55:49.999Z</time></trkpt><trkpt lat="43.44667709925635" lon="10.90944022915143"><ele>264.0</ele><time>2026-04-18T08:55:50.999Z</time></trkpt><trkpt lat="43.44656429648647" lon="10.909385287202468"><ele>262.5</ele><time>2026-04-18T08:55:51.999Z</time></trkpt><trkpt lat="43.4464691472151" lon="10.90929230145457"><ele>261.0</ele><time>2026-04-18T08:55:52.999Z</time></trkpt><trkpt lat="43.44638719902219" lon="10.909153596921023"><ele>260.25</ele><time>2026-04-18T08:55:53.999Z</time></trkpt><trkpt lat="43.44630944472409" lon="10.908986318011594"><ele>259.5</ele><time>2026-04-18T08:55:54.999Z</time></trkpt><trkpt lat="43.44624579067321" lon="10.908814791047371"><ele>258.75</ele><time>2026-04-18T08:55:55.999Z</time></trkpt><trkpt lat="43.44620515177391" lon="10.908641390045963"><ele>258.0</ele><time>2026-04-18T08:55:56.999Z</time></trkpt><trkpt lat="43.44615079199771" lon="10.90848407496903"><ele>257.75</ele><time>2026-04-18T08:55:57.999Z</time></trkpt><trkpt lat="43.44611456517665" lon="10.90831303001918"><ele>257.5</ele><time>2026-04-18T08:55:58.999Z</time></trkpt><trkpt lat="43.4460701204769" lon="10.908144449554069"><ele>257.25</ele><time>2026-04-18T08:55:59.999Z</time></trkpt><trkpt lat="43.446015049185185" lon="10.907979525150754"><ele>257.0</ele><time>2026-04-18T08:56:00.999Z</time></trkpt><trkpt lat="43.445951276932185" lon="10.907821296888947"><ele>257.0</ele><time>2026-04-18T08:56:01.999Z</time></trkpt><trkpt lat="43.44586638562375" lon="10.907660426231127"><ele>257.0</ele><time>2026-04-18T08:56:02.999Z</time></trkpt><trkpt lat="43.445766797218035" lon="10.907487751443739"><ele>257.0</ele><time>2026-04-18T08:56:03.999Z</time></trkpt><trkpt lat="43.44567654604025" lon="10.907333883214918"><ele>257.0</ele><time>2026-04-18T08:56:04.999Z</time></trkpt><trkpt lat="43.44559010828774" lon="10.907196204613802"><ele>256.5</ele><time>2026-04-18T08:56:05.999Z</time></trkpt><trkpt lat="43.445497628541" lon="10.90704707696369"><ele>256.0</ele><time>2026-04-18T08:56:06.999Z</time></trkpt><trkpt lat="43.44540591989924" lon="10.906884464056143"><ele>255.5</ele><time>2026-04-18T08:56:07.999Z</time></trkpt><trkpt lat="43.445315192334796" lon="10.906722158525218"><ele>255.0</ele><time>2026-04-18T08:56:08.999Z</time></trkpt><trkpt lat="43.44522010376718" lon="10.906562503762952"><ele>254.0</ele><time>2026-04-18T08:56:09.999Z</time></trkpt><trkpt lat="43.44511550204602" lon="10.906413348318065"><ele>253.0</ele><time>2026-04-18T08:56:10.999Z</time></trkpt><trkpt lat="43.444999740178986" lon="10.906257970820109"><ele>252.0</ele><time>2026-04-18T08:56:12Z</time></trkpt><trkpt lat="43.44488051700466" lon="10.906102543746035"><ele>252.0</ele><time>2026-04-18T08:56:13Z</time></trkpt><trkpt lat="43.44477411173212" lon="10.905958138627504"><ele>252.0</ele><time>2026-04-18T08:56:14Z</time></trkpt><trkpt lat="43.444668908656205" lon="10.905821308078693"><ele>252.0</ele><time>2026-04-18T08:56:15Z</time></trkpt><trkpt lat="43.44456690405204" lon="10.905669767276486"><ele>252.0</ele><time>2026-04-18T08:56:16Z</time></trkpt><trkpt lat="43.444490369619054" lon="10.905466766036188"><ele>251.75</ele><time>2026-04-18T08:56:17Z</time></trkpt><trkpt lat="43.44440631821324" lon="10.90531637653516"><ele>251.5</ele><time>2026-04-18T08:56:18Z</time></trkpt><trkpt lat="43.444334561397675" lon="10.905173360514162"><ele>251.25</ele><time>2026-04-18T08:56:19Z</time></trkpt><trkpt lat="43.444266800362094" lon="10.905025933173471"><ele>251.0</ele><time>2026-04-18T08:56:20Z</time></trkpt><trkpt lat="43.44416241576246" lon="10.904923513632713"><ele>251.0</ele><time>2026-04-18T08:56:21Z</time></trkpt><trkpt lat="43.444048459683636" lon="10.904798325728407"><ele>251.0</ele><time>2026-04-18T08:56:22Z</time></trkpt><trkpt lat="43.44391518971658" lon="10.90466684788849"><ele>251.0</ele><time>2026-04-18T08:56:23Z</time></trkpt><trkpt lat="43.4437700104034" lon="10.904533116361025"><ele>249.0</ele><time>2026-04-18T08:56:24Z</time></trkpt><trkpt lat="43.44361899960432" lon="10.904394149915284"><ele>247.0</ele><time>2026-04-18T08:56:25Z</time></trkpt><trkpt lat="43.44347866150074" lon="10.904260021434133"><ele>245.0</ele><time>2026-04-18T08:56:26Z</time></trkpt><trkpt lat="43.443332630477165" lon="10.904125899506854"><ele>245.0</ele><time>2026-04-18T08:56:27Z</time></trkpt><trkpt lat="43.443180898954516" lon="10.903990489272418"><ele>245.0</ele><time>2026-04-18T08:56:28Z</time></trkpt><trkpt lat="43.44301667836951" lon="10.903848838594802"><ele>245.0</ele><time>2026-04-18T08:56:29Z</time></trkpt><trkpt lat="43.44285364274708" lon="10.903713888105337"><ele>245.33333333333334</ele><time>2026-04-18T08:56:30Z</time></trkpt><trkpt lat="43.442704583436125" lon="10.903585420445918"><ele>245.66666666666669</ele><time>2026-04-18T08:56:31Z</time></trkpt><trkpt lat="43.442562668903726" lon="10.903447225071105"><ele>246.0</ele><time>2026-04-18T08:56:32Z</time></trkpt><trkpt lat="43.44242996639109" lon="10.903309415060317"><ele>246.0</ele><time>2026-04-18T08:56:33Z</time></trkpt><trkpt lat="43.442294769540936" lon="10.903176787274266"><ele>246.0</ele><time>2026-04-18T08:56:34Z</time></trkpt><trkpt lat="43.442160083781665" lon="10.903053157283972"><ele>246.0</ele><time>2026-04-18T08:56:35Z</time></trkpt><trkpt lat="43.442020725677985" lon="10.902946029614402"><ele>245.33333333333331</ele><time>2026-04-18T08:56:36Z</time></trkpt><trkpt lat="43.441873522759074" lon="10.902846990338332"><ele>244.66666666666666</ele><time>2026-04-18T08:56:37Z</time></trkpt><trkpt lat="43.44172085836392" lon="10.902772403491776"><ele>244.0</ele><time>2026-04-18T08:56:38Z</time></trkpt><trkpt lat="43.44157219738381" lon="10.902700031922397"><ele>244.0</ele><time>2026-04-18T08:56:39Z</time></trkpt><trkpt lat="43.44140643330955" lon="10.902694757072332"><ele>244.0</ele><time>2026-04-18T08:56:40Z</time></trkpt><trkpt lat="43.44124502485394" lon="10.902686954487537"><ele>244.0</ele><time>2026-04-18T08:56:41Z</time></trkpt><trkpt lat="43.44107768590769" lon="10.902651410919786"><ele>243.33333333333331</ele><time>2026-04-18T08:56:42Z</time></trkpt><trkpt lat="43.44092369935027" lon="10.902647889279992"><ele>242.66666666666669</ele><time>2026-04-18T08:56:43Z</time></trkpt><trkpt lat="43.44077522868914" lon="10.90260233167174"><ele>242.0</ele><time>2026-04-18T08:56:44Z</time></trkpt><trkpt lat="43.44062901322653" lon="10.902532375879908"><ele>243.33333333333334</ele><time>2026-04-18T08:56:45Z</time></trkpt><trkpt lat="43.44048624136199" lon="10.902440358221225"><ele>244.66666666666669</ele><time>2026-04-18T08:56:46Z</time></trkpt><trkpt lat="43.440343533040384" lon="10.902327417358457"><ele>246.0</ele><time>2026-04-18T08:56:47Z</time></trkpt><trkpt lat="43.44021843214159" lon="10.902204243123752"><ele>247.33333333333331</ele><time>2026-04-18T08:56:48Z</time></trkpt><trkpt lat="43.440112596622754" lon="10.902061617085664"><ele>248.66666666666666</ele><time>2026-04-18T08:56:49Z</time></trkpt><trkpt lat="43.44001189155915" lon="10.901895138464363"><ele>250.0</ele><time>2026-04-18T08:56:50Z</time></trkpt><trkpt lat="43.4399196587784" lon="10.901718085056975"><ele>250.0</ele><time>2026-04-18T08:56:51Z</time></trkpt><trkpt lat="43.43982689445584" lon="10.901545133439365"><ele>250.0</ele><time>2026-04-18T08:56:52Z</time></trkpt><trkpt lat="43.439736209139966" lon="10.901370053557644"><ele>250.0</ele><time>2026-04-18T08:56:53Z</time></trkpt><trkpt lat="43.43968959601314" lon="10.901190598660758"><ele>250.0</ele><time>2026-04-18T08:56:54Z</time></trkpt><trkpt lat="43.43964547299413" lon="10.901005065278845"><ele>250.0</ele><time>2026-04-18T08:56:55Z</time></trkpt><trkpt lat="43.43964026263758" lon="10.90078267938875"><ele>250.0</ele><time>2026-04-18T08:56:56Z</time></trkpt><trkpt lat="43.43965657196242" lon="10.900548983702103"><ele>249.25</ele><time>2026-04-18T08:56:57Z</time></trkpt><trkpt lat="43.43966903558459" lon="10.900328838847285"><ele>248.5</ele><time>2026-04-18T08:56:58Z</time></trkpt><trkpt lat="43.439686006390424" lon="10.900130584668453"><ele>247.75</ele><time>2026-04-18T08:56:59Z</time></trkpt><trkpt lat="43.43970432469716" lon="10.899937623572423"><ele>247.0</ele><time>2026-04-18T08:57:00Z</time></trkpt><trkpt lat="43.43966091804115" lon="10.899760358091749"><ele>250.25</ele><time>2026-04-18T08:57:01Z</time></trkpt><trkpt lat="43.43960923243211" lon="10.899597324195023"><ele>253.5</ele><time>2026-04-18T08:57:02Z</time></trkpt><trkpt lat="43.43953453093716" lon="10.899472983833363"><ele>256.75</ele><time>2026-04-18T08:57:03Z</time></trkpt><trkpt lat="43.439433375411824" lon="10.89935804402399"><ele>260.0</ele><time>2026-04-18T08:57:04Z</time></trkpt><trkpt lat="43.439312124416915" lon="10.899254240239204"><ele>257.75</ele><time>2026-04-18T08:57:05Z</time></trkpt><trkpt lat="43.439204205452725" lon="10.899117147878593"><ele>255.5</ele><time>2026-04-18T08:57:06Z</time></trkpt><trkpt lat="43.43910160684409" lon="10.898987670563397"><ele>253.25</ele><time>2026-04-18T08:57:07Z</time></trkpt><trkpt lat="43.43900486536037" lon="10.898873342685022"><ele>251.0</ele><time>2026-04-18T08:57:08Z</time></trkpt><trkpt lat="43.43892381935534" lon="10.898773687140197"><ele>251.0</ele><time>2026-04-18T08:57:09Z</time></trkpt><trkpt lat="43.438844497362105" lon="10.898651470367716"><ele>251.0</ele><time>2026-04-18T08:57:10Z</time></trkpt><trkpt lat="43.43877726775597" lon="10.898502217562227"><ele>251.0</ele><time>2026-04-18T08:57:11Z</time></trkpt><trkpt lat="43.43875322978252" lon="10.89833532711045"><ele>251.0</ele><time>2026-04-18T08:57:12Z</time></trkpt><trkpt lat="43.438720356214446" lon="10.89818114634922"><ele>250.0</ele><time>2026-04-18T08:57:13Z</time></trkpt><trkpt lat="43.43866542806312" lon="10.898036242713022"><ele>249.0</ele><time>2026-04-18T08:57:14Z</time></trkpt><trkpt lat="43.43858618292338" lon="10.897894845349413"><ele>248.0</ele><time>2026-04-18T08:57:15Z</time></trkpt><trkpt lat="43.43849701468947" lon="10.897781568731977"><ele>247.0</ele><time>2026-04-18T08:57:16Z</time></trkpt><trkpt lat="43.438429980504694" lon="10.897630329489534"><ele>245.0</ele><time>2026-04-18T08:57:17Z</time></trkpt><trkpt lat="43.43838662587677" lon="10.897445018711236"><ele>243.0</ele><time>2026-04-18T08:57:18Z</time></trkpt><trkpt lat="43.43836266886325" lon="10.897238388875962"><ele>241.0</ele><time>2026-04-18T08:57:19Z</time></trkpt><trkpt lat="43.438359801566634" lon="10.897025121712634"><ele>239.0</ele><time>2026-04-18T08:57:20Z</time></trkpt><trkpt lat="43.438316914643885" lon="10.896815291645298"><ele>237.25</ele><time>2026-04-18T08:57:20.999Z</time></trkpt><trkpt lat="43.438260903097245" lon="10.896629889863183"><ele>235.5</ele><time>2026-04-18T08:57:21.999Z</time></trkpt><trkpt lat="43.43820405822944" lon="10.896452393378645"><ele>233.75</ele><time>2026-04-18T08:57:22.999Z</time></trkpt><trkpt lat="43.43818316102029" lon="10.896273700270676"><ele>232.0</ele><time>2026-04-18T08:57:23.999Z</time></trkpt><trkpt lat="43.438188591654374" lon="10.896105911155239"><ele>231.99999999999997</ele><time>2026-04-18T08:57:24.999Z</time></trkpt><trkpt lat="43.438205933870805" lon="10.895981817526195"><ele>232.0</ele><time>2026-04-18T08:57:25.999Z</time></trkpt><trkpt lat="43.43820285054049" lon="10.8958674758051"><ele>232.0</ele><time>2026-04-18T08:57:26.999Z</time></trkpt><trkpt lat="43.438172920638635" lon="10.895767736926024"><ele>232.0</ele><time>2026-04-18T08:57:27.999Z</time></trkpt><trkpt lat="43.43811350541093" lon="10.8956952698482"><ele>231.99999999999997</ele><time>2026-04-18T08:57:28.999Z</time></trkpt><trkpt lat="43.43803777652158" lon="10.895600399805925"><ele>232.0</ele><time>2026-04-18T08:57:29.999Z</time></trkpt><trkpt lat="43.43794888265927" lon="10.895514080477534"><ele>231.25</ele><time>2026-04-18T08:57:30.999Z</time></trkpt><trkpt lat="43.437875630795695" lon="10.895407599156496"><ele>230.5</ele><time>2026-04-18T08:57:31.999Z</time></trkpt><trkpt lat="43.43779083558105" lon="10.895250691265217"><ele>229.75</ele><time>2026-04-18T08:57:32.999Z</time></trkpt><trkpt lat="43.43773264779662" lon="10.895053640214128"><ele>229.0</ele><time>2026-04-18T08:57:33.999Z</time></trkpt><trkpt lat="43.437674107304254" lon="10.894882565611013"><ele>228.5</ele><time>2026-04-18T08:57:34.999Z</time></trkpt><trkpt lat="43.43760781357603" lon="10.894745986890811"><ele>228.0</ele><time>2026-04-18T08:57:35.999Z</time></trkpt><trkpt lat="43.43755097418059" lon="10.894610838136048"><ele>227.5</ele><time>2026-04-18T08:57:36.999Z</time></trkpt><trkpt lat="43.43748154848195" lon="10.894462594478105"><ele>227.0</ele><time>2026-04-18T08:57:37.999Z</time></trkpt><trkpt lat="43.43736256246221" lon="10.894315530207408"><ele>225.0</ele><time>2026-04-18T08:57:38.999Z</time></trkpt><trkpt lat="43.43722513808757" lon="10.894195025474877"><ele>223.0</ele><time>2026-04-18T08:57:39.999Z</time></trkpt><trkpt lat="43.43707975525334" lon="10.894071425034275"><ele>221.0</ele><time>2026-04-18T08:57:40.999Z</time></trkpt><trkpt lat="43.43692909089127" lon="10.89397276226641"><ele>220.0</ele><time>2026-04-18T08:57:41.999Z</time></trkpt><trkpt lat="43.43676714260197" lon="10.89390463714522"><ele>219.0</ele><time>2026-04-18T08:57:42.999Z</time></trkpt><trkpt lat="43.43660421303593" lon="10.893857062095456"><ele>218.0</ele><time>2026-04-18T08:57:43.999Z</time></trkpt><trkpt lat="43.43645345083661" lon="10.893847791547243"><ele>218.0</ele><time>2026-04-18T08:57:44.999Z</time></trkpt><trkpt lat="43.43631093420547" lon="10.893795279622436"><ele>218.0</ele><time>2026-04-18T08:57:45.999Z</time></trkpt><trkpt lat="43.43619113900203" lon="10.89373779225897"><ele>218.0</ele><time>2026-04-18T08:57:46.999Z</time></trkpt><trkpt lat="43.43608375532988" lon="10.893666921172805"><ele>218.0</ele><time>2026-04-18T08:57:47.999Z</time></trkpt><trkpt lat="43.43597785138642" lon="10.893561095260912"><ele>218.0</ele><time>2026-04-18T08:57:48.999Z</time></trkpt><trkpt lat="43.435870347559145" lon="10.89340475451306"><ele>218.0</ele><time>2026-04-18T08:57:49.999Z</time></trkpt><trkpt lat="43.43575526313849" lon="10.893225311845903"><ele>218.0</ele><time>2026-04-18T08:57:50.999Z</time></trkpt><trkpt lat="43.43564032574284" lon="10.893054515209279"><ele>218.0</ele><time>2026-04-18T08:57:51.999Z</time></trkpt><trkpt lat="43.435528995258856" lon="10.892892566473362"><ele>218.0</ele><time>2026-04-18T08:57:52.999Z</time></trkpt><trkpt lat="43.43542126410614" lon="10.892737325829083"><ele>218.0</ele><time>2026-04-18T08:57:53.999Z</time></trkpt><trkpt lat="43.43531499826536" lon="10.892595103629896"><ele>216.25</ele><time>2026-04-18T08:57:54.999Z</time></trkpt><trkpt lat="43.435195229465855" lon="10.892464605245582"><ele>214.5</ele><time>2026-04-18T08:57:55.999Z</time></trkpt><trkpt lat="43.435086630701655" lon="10.892349743807236"><ele>212.75</ele><time>2026-04-18T08:57:56.999Z</time></trkpt><trkpt lat="43.43498786509488" lon="10.892237773877833"><ele>211.0</ele><time>2026-04-18T08:57:57.999Z</time></trkpt><trkpt lat="43.43490546674364" lon="10.892107381683822"><ele>211.0</ele><time>2026-04-18T08:57:58.999Z</time></trkpt><trkpt lat="43.434847156247926" lon="10.891960280722657"><ele>211.0</ele><time>2026-04-18T08:57:59.999Z</time></trkpt><trkpt lat="43.434807172860864" lon="10.891811572854575"><ele>211.0</ele><time>2026-04-18T08:58:00.999Z</time></trkpt><trkpt lat="43.434772927335125" lon="10.891690005475857"><ele>211.0</ele><time>2026-04-18T08:58:01.999Z</time></trkpt><trkpt lat="43.43475150711629" lon="10.891594432440716"><ele>211.0</ele><time>2026-04-18T08:58:02.999Z</time></trkpt><trkpt lat="43.43469708550122" lon="10.891522886617397"><ele>209.0</ele><time>2026-04-18T08:58:03.999Z</time></trkpt><trkpt lat="43.43460899053788" lon="10.891510620508564"><ele>207.0</ele><time>2026-04-18T08:58:04.999Z</time></trkpt><trkpt lat="43.434530289411896" lon="10.89156735730958"><ele>205.0</ele><time>2026-04-18T08:58:05.999Z</time></trkpt><trkpt lat="43.43448526182125" lon="10.891694006483283"><ele>203.0</ele><time>2026-04-18T08:58:06.999Z</time></trkpt><trkpt lat="43.43444290785968" lon="10.891807922861323"><ele>201.0</ele><time>2026-04-18T08:58:07.999Z</time></trkpt><trkpt lat="43.434399555775606" lon="10.891940276524432"><ele>200.0</ele><time>2026-04-18T08:58:08.999Z</time></trkpt><trkpt lat="43.4343818622377" lon="10.892110155097466"><ele>199.0</ele><time>2026-04-18T08:58:09.999Z</time></trkpt><trkpt lat="43.43441538301994" lon="10.892274298265699"><ele>198.0</ele><time>2026-04-18T08:58:10.999Z</time></trkpt><trkpt lat="43.434467269354585" lon="10.892443055832722"><ele>197.0</ele><time>2026-04-18T08:58:11.999Z</time></trkpt><trkpt lat="43.43452299553104" lon="10.892583946114115"><ele>195.25</ele><time>2026-04-18T08:58:12.999Z</time></trkpt><trkpt lat="43.43458088990288" lon="10.892719795359836"><ele>193.5</ele><time>2026-04-18T08:58:13.999Z</time></trkpt><trkpt lat="43.43462884917683" lon="10.892852721869838"><ele>191.75</ele><time>2026-04-18T08:58:14.999Z</time></trkpt><trkpt lat="43.43465261512031" lon="10.893005596743928"><ele>190.0</ele><time>2026-04-18T08:58:15.999Z</time></trkpt><trkpt lat="43.43465622421493" lon="10.89316777065291"><ele>191.0</ele><time>2026-04-18T08:58:16.999Z</time></trkpt><trkpt lat="43.434657548355744" lon="10.893322101767799"><ele>192.0</ele><time>2026-04-18T08:58:18Z</time></trkpt><trkpt lat="43.434659656438676" lon="10.89346937953926"><ele>193.0</ele><time>2026-04-18T08:58:19Z</time></trkpt><trkpt lat="43.4346684219259" lon="10.893603074936314"><ele>194.0</ele><time>2026-04-18T08:58:20Z</time></trkpt><trkpt lat="43.43468256792664" lon="10.893717821915237"><ele>195.0</ele><time>2026-04-18T08:58:21Z</time></trkpt><trkpt lat="43.43470277237863" lon="10.893810760131643"><ele>195.0</ele><time>2026-04-18T08:58:22Z</time></trkpt><trkpt lat="43.434663017348406" lon="10.893940233911149"><ele>195.0</ele><time>2026-04-18T08:58:24Z</time></trkpt><trkpt lat="43.434600629178995" lon="10.893957860906847"><ele>195.0</ele><time>2026-04-18T08:58:25Z</time></trkpt><trkpt lat="43.43452272588363" lon="10.893908420863687"><ele>195.0</ele><time>2026-04-18T08:58:26Z</time></trkpt><trkpt lat="43.434470693636094" lon="10.893781703419359"><ele>195.0</ele><time>2026-04-18T08:58:27Z</time></trkpt><trkpt lat="43.43439163353199" lon="10.893662975735342"><ele>193.75</ele><time>2026-04-18T08:58:28Z</time></trkpt><trkpt lat="43.434295384711035" lon="10.893540473859185"><ele>192.5</ele><time>2026-04-18T08:58:29Z</time></trkpt><trkpt lat="43.43417810661775" lon="10.893424036660123"><ele>191.25</ele><time>2026-04-18T08:58:30Z</time></trkpt><trkpt lat="43.43406426911602" lon="10.89333440870142"><ele>190.0</ele><time>2026-04-18T08:58:31Z</time></trkpt><trkpt lat="43.43394092114132" lon="10.893276563458569"><ele>190.0</ele><time>2026-04-18T08:58:32Z</time></trkpt><trkpt lat="43.43383555197909" lon="10.893200970418505"><ele>190.0</ele><time>2026-04-18T08:58:33Z</time></trkpt><trkpt lat="43.43371838035492" lon="10.89310987474229"><ele>190.0</ele><time>2026-04-18T08:58:34Z</time></trkpt><trkpt lat="43.43360410422229" lon="10.892996471905047"><ele>190.0</ele><time>2026-04-18T08:58:35Z</time></trkpt><trkpt lat="43.43349806436507" lon="10.892897480761956"><ele>187.6</ele><time>2026-04-18T08:58:36Z</time></trkpt><trkpt lat="43.43340551445881" lon="10.89280406715841"><ele>185.2</ele><time>2026-04-18T08:58:37Z</time></trkpt><trkpt lat="43.43332263927" lon="10.892724487434204"><ele>182.8</ele><time>2026-04-18T08:58:38Z</time></trkpt><trkpt lat="43.43322934575291" lon="10.892663922559953"><ele>180.4</ele><time>2026-04-18T08:58:39Z</time></trkpt><trkpt lat="43.433124860856104" lon="10.89264078170952"><ele>178.0</ele><time>2026-04-18T08:58:40Z</time></trkpt><trkpt lat="43.43300822809785" lon="10.892647599586935"><ele>176.75</ele><time>2026-04-18T08:58:41Z</time></trkpt><trkpt lat="43.43288763442413" lon="10.892687343755997"><ele>175.5</ele><time>2026-04-18T08:58:42Z</time></trkpt><trkpt lat="43.432769125871765" lon="10.892730661045983"><ele>174.25</ele><time>2026-04-18T08:58:43Z</time></trkpt><trkpt lat="43.43265389590134" lon="10.892765392378909"><ele>173.0</ele><time>2026-04-18T08:58:44Z</time></trkpt><trkpt lat="43.432540321550654" lon="10.892803222453509"><ele>173.0</ele><time>2026-04-18T08:58:45Z</time></trkpt><trkpt lat="43.43242868908504" lon="10.89282858129631"><ele>173.0</ele><time>2026-04-18T08:58:46Z</time></trkpt><trkpt lat="43.432314414010804" lon="10.892851170704548"><ele>173.0</ele><time>2026-04-18T08:58:47Z</time></trkpt><trkpt lat="43.43220352096968" lon="10.892879644590266"><ele>173.0</ele><time>2026-04-18T08:58:48Z</time></trkpt><trkpt lat="43.432101338121264" lon="10.892909182238082"><ele>173.0</ele><time>2026-04-18T08:58:49Z</time></trkpt><trkpt lat="43.43200991294709" lon="10.892928130499774"><ele>174.0</ele><time>2026-04-18T08:58:50Z</time></trkpt><trkpt lat="43.431946005489145" lon="10.89294477682447"><ele>175.0</ele><time>2026-04-18T08:58:51Z</time></trkpt><trkpt lat="43.43187448436644" lon="10.892956749966165"><ele>176.0</ele><time>2026-04-18T08:58:53Z</time></trkpt><trkpt lat="43.431871879743596" lon="10.893220366420875"><ele>177.0</ele><time>2026-04-18T08:58:56Z</time></trkpt><trkpt lat="43.43188379445557" lon="10.89335303096533"><ele>178.0</ele><time>2026-04-18T08:58:57Z</time></trkpt><trkpt lat="43.431903303642166" lon="10.8934999762957"><ele>178.25</ele><time>2026-04-18T08:58:58Z</time></trkpt><trkpt lat="43.431913725711986" lon="10.8936644613335"><ele>178.5</ele><time>2026-04-18T08:58:59Z</time></trkpt><trkpt lat="43.431891556620705" lon="10.89384858076196"><ele>178.75</ele><time>2026-04-18T08:59:00Z</time></trkpt><trkpt lat="43.43185430064716" lon="10.893998685736298"><ele>179.0</ele><time>2026-04-18T08:59:01Z</time></trkpt><trkpt lat="43.431825321942036" lon="10.894151300714462"><ele>178.79999999999998</ele><time>2026-04-18T08:59:02Z</time></trkpt><trkpt lat="43.43177954044131" lon="10.894293393045796"><ele>178.6</ele><time>2026-04-18T08:59:03Z</time></trkpt><trkpt lat="43.43173654779385" lon="10.894411009776299"><ele>178.4</ele><time>2026-04-18T08:59:04Z</time></trkpt><trkpt lat="43.431685116432746" lon="10.894518313462191"><ele>178.2</ele><time>2026-04-18T08:59:05Z</time></trkpt><trkpt lat="43.43161574579844" lon="10.89461257657222"><ele>178.0</ele><time>2026-04-18T08:59:06Z</time></trkpt><trkpt lat="43.43153475614435" lon="10.894721932998365"><ele>178.0</ele><time>2026-04-18T08:59:07Z</time></trkpt><trkpt lat="43.43145243295495" lon="10.894820501992006"><ele>178.0</ele><time>2026-04-18T08:59:08Z</time></trkpt><trkpt lat="43.431415539153505" lon="10.89495724059381"><ele>178.0</ele><time>2026-04-18T08:59:09Z</time></trkpt><trkpt lat="43.43144528495738" lon="10.89511715462984"><ele>178.0</ele><time>2026-04-18T08:59:10Z</time></trkpt><trkpt lat="43.43147095208138" lon="10.895254394611955"><ele>178.0</ele><time>2026-04-18T08:59:11Z</time></trkpt><trkpt lat="43.43152561511175" lon="10.895394623179413"><ele>178.75</ele><time>2026-04-18T08:59:12Z</time></trkpt><trkpt lat="43.43155711535719" lon="10.895545660994921"><ele>179.5</ele><time>2026-04-18T08:59:13Z</time></trkpt><trkpt lat="43.431595940383524" lon="10.895713514234805"><ele>180.25</ele><time>2026-04-18T08:59:14Z</time></trkpt><trkpt lat="43.43162474944385" lon="10.895872506446075"><ele>181.0</ele><time>2026-04-18T08:59:15Z</time></trkpt><trkpt lat="43.43164696743556" lon="10.89602389121544"><ele>182.0</ele><time>2026-04-18T08:59:16Z</time></trkpt><trkpt lat="43.431657202240956" lon="10.896156502012454"><ele>183.0</ele><time>2026-04-18T08:59:17Z</time></trkpt><trkpt lat="43.431667040128055" lon="10.896259559433993"><ele>184.0</ele><time>2026-04-18T08:59:18Z</time></trkpt><trkpt lat="43.4315412325517" lon="10.896324521560313"><ele>185.0</ele><time>2026-04-18T08:59:20Z</time></trkpt><trkpt lat="43.43146747181836" lon="10.89625489125636"><ele>186.0</ele><time>2026-04-18T08:59:21Z</time></trkpt><trkpt lat="43.431411368057404" lon="10.89612589941781"><ele>186.0</ele><time>2026-04-18T08:59:22Z</time></trkpt><trkpt lat="43.43131336753746" lon="10.896041575974598"><ele>186.0</ele><time>2026-04-18T08:59:23Z</time></trkpt><trkpt lat="43.431213421229124" lon="10.895973826440706"><ele>186.0</ele><time>2026-04-18T08:59:24Z</time></trkpt><trkpt lat="43.43107495722507" lon="10.895920949752213"><ele>186.0</ele><time>2026-04-18T08:59:25Z</time></trkpt><trkpt lat="43.43093376806356" lon="10.895879948981023"><ele>186.8</ele><time>2026-04-18T08:59:26Z</time></trkpt><trkpt lat="43.43081305158066" lon="10.895824156939447"><ele>187.60000000000002</ele><time>2026-04-18T08:59:27Z</time></trkpt><trkpt lat="43.43070488606287" lon="10.895799678619028"><ele>188.4</ele><time>2026-04-18T08:59:28Z</time></trkpt><trkpt lat="43.43063473946966" lon="10.895801851593308"><ele>189.2</ele><time>2026-04-18T08:59:29Z</time></trkpt><trkpt lat="43.430588112195736" lon="10.8958626271008"><ele>190.0</ele><time>2026-04-18T08:59:30Z</time></trkpt><trkpt lat="43.43057156391313" lon="10.895975472580531"><ele>192.75</ele><time>2026-04-18T08:59:32Z</time></trkpt><trkpt lat="43.430632005287805" lon="10.896151620650922"><ele>195.5</ele><time>2026-04-18T08:59:34Z</time></trkpt><trkpt lat="43.43069631239016" lon="10.896253300649263"><ele>198.25</ele><time>2026-04-18T08:59:35Z</time></trkpt><trkpt lat="43.43077339891875" lon="10.896370583325734"><ele>201.0</ele><time>2026-04-18T08:59:35.999Z</time></trkpt><trkpt lat="43.43084991838971" lon="10.896485333381223"><ele>201.0</ele><time>2026-04-18T08:59:36.999Z</time></trkpt><trkpt lat="43.43092415460703" lon="10.896602714485864"><ele>201.0</ele><time>2026-04-18T08:59:37.999Z</time></trkpt><trkpt lat="43.43097425687503" lon="10.896686754491691"><ele>201.0</ele><time>2026-04-18T08:59:38.999Z</time></trkpt><trkpt lat="43.43100557125828" lon="10.89678021207573"><ele>201.0</ele><time>2026-04-18T08:59:39.999Z</time></trkpt><trkpt lat="43.43102552638549" lon="10.896896013840971"><ele>201.0</ele><time>2026-04-18T08:59:40.999Z</time></trkpt><trkpt lat="43.431008049047165" lon="10.897027001552882"><ele>202.60000000000002</ele><time>2026-04-18T08:59:41.999Z</time></trkpt><trkpt lat="43.43099035834537" lon="10.897134326084034"><ele>204.2</ele><time>2026-04-18T08:59:42.999Z</time></trkpt><trkpt lat="43.43095119734188" lon="10.897263691530576"><ele>205.8</ele><time>2026-04-18T08:59:43.999Z</time></trkpt><trkpt lat="43.43089378341253" lon="10.897374244159066"><ele>207.39999999999998</ele><time>2026-04-18T08:59:44.999Z</time></trkpt><trkpt lat="43.43079167629755" lon="10.897441750921466"><ele>209.0</ele><time>2026-04-18T08:59:46.999Z</time></trkpt><trkpt lat="43.430728105860645" lon="10.897366820269822"><ele>209.0</ele><time>2026-04-18T08:59:47.999Z</time></trkpt><trkpt lat="43.43069281000359" lon="10.897221264513671"><ele>209.0</ele><time>2026-04-18T08:59:48.999Z</time></trkpt><trkpt lat="43.4306304223678" lon="10.897126909662386"><ele>209.0</ele><time>2026-04-18T08:59:49.999Z</time></trkpt><trkpt lat="43.43054372145071" lon="10.89706440797811"><ele>209.0</ele><time>2026-04-18T08:59:50.999Z</time></trkpt><trkpt lat="43.43045428725391" lon="10.897072864192662"><ele>209.0</ele><time>2026-04-18T08:59:51.999Z</time></trkpt><trkpt lat="43.43033320586459" lon="10.897174432327867"><ele>210.75</ele><time>2026-04-18T08:59:52.999Z</time></trkpt><trkpt lat="43.43023024507886" lon="10.897281190609899"><ele>212.5</ele><time>2026-04-18T08:59:53.999Z</time></trkpt><trkpt lat="43.4301293648469" lon="10.897354878797826"><ele>214.25</ele><time>2026-04-18T08:59:54.999Z</time></trkpt><trkpt lat="43.43002540112829" lon="10.897407516739918"><ele>216.0</ele><time>2026-04-18T08:59:55.999Z</time></trkpt><trkpt lat="43.42993932047529" lon="10.897519250752264"><ele>217.5</ele><time>2026-04-18T08:59:56.999Z</time></trkpt><trkpt lat="43.429900360699946" lon="10.897678723824326"><ele>219.0</ele><time>2026-04-18T08:59:57.999Z</time></trkpt><trkpt lat="43.429912249083266" lon="10.897854259740756"><ele>220.5</ele><time>2026-04-18T08:59:58.999Z</time></trkpt><trkpt lat="43.429913769282294" lon="10.89804116654107"><ele>222.0</ele><time>2026-04-18T08:59:59.999Z</time></trkpt><trkpt lat="43.42991607941402" lon="10.898219813981944"><ele>222.0</ele><time>2026-04-18T09:00:00.999Z</time></trkpt><trkpt lat="43.42991943134984" lon="10.898393125191339"><ele>222.0</ele><time>2026-04-18T09:00:01.999Z</time></trkpt><trkpt lat="43.42994756223055" lon="10.898577055560152"><ele>222.0</ele><time>2026-04-18T09:00:02.999Z</time></trkpt><trkpt lat="43.42995246590907" lon="10.898700466332652"><ele>222.0</ele><time>2026-04-18T09:00:03.999Z</time></trkpt><trkpt lat="43.42995950128665" lon="10.89881249779646"><ele>222.0</ele><time>2026-04-18T09:00:04.999Z</time></trkpt><trkpt lat="43.42997050102607" lon="10.898926294958452"><ele>223.2</ele><time>2026-04-18T09:00:05.999Z</time></trkpt><trkpt lat="43.42994609783143" lon="10.89902003400024"><ele>224.39999999999998</ele><time>2026-04-18T09:00:06.999Z</time></trkpt><trkpt lat="43.429873901277794" lon="10.899121730591846"><ele>225.60000000000002</ele><time>2026-04-18T09:00:08.999Z</time></trkpt><trkpt lat="43.42980144812412" lon="10.899103370745458"><ele>226.8</ele><time>2026-04-18T09:00:09.999Z</time></trkpt><trkpt lat="43.429716785820816" lon="10.899017779426798"><ele>228.0</ele><time>2026-04-18T09:00:10.999Z</time></trkpt><trkpt lat="43.42960921583719" lon="10.899010516887826"><ele>230.0</ele><time>2026-04-18T09:00:11.999Z</time></trkpt><trkpt lat="43.429476924854356" lon="10.89900496004259"><ele>232.0</ele><time>2026-04-18T09:00:12.999Z</time></trkpt><trkpt lat="43.42934990949372" lon="10.899036617929562"><ele>234.0</ele><time>2026-04-18T09:00:13.999Z</time></trkpt><trkpt lat="43.429223026086994" lon="10.899085104829167"><ele>236.0</ele><time>2026-04-18T09:00:14.999Z</time></trkpt><trkpt lat="43.42913877172383" lon="10.899127448722252"><ele>236.0</ele><time>2026-04-18T09:00:15.999Z</time></trkpt><trkpt lat="43.429021311823156" lon="10.89920803199774"><ele>236.0</ele><time>2026-04-18T09:00:17.999Z</time></trkpt><trkpt lat="43.428955528334775" lon="10.899371921045995"><ele>236.0</ele><time>2026-04-18T09:00:19.999Z</time></trkpt><trkpt lat="43.42902176526171" lon="10.8994918203034"><ele>236.0</ele><time>2026-04-18T09:00:20.999Z</time></trkpt><trkpt lat="43.429075450830055" lon="10.899608420962188"><ele>237.60000000000002</ele><time>2026-04-18T09:00:21.999Z</time></trkpt><trkpt lat="43.42913125127543" lon="10.899749375029689"><ele>239.20000000000002</ele><time>2026-04-18T09:00:22.999Z</time></trkpt><trkpt lat="43.42917313941466" lon="10.89986923263022"><ele>240.79999999999998</ele><time>2026-04-18T09:00:24Z</time></trkpt><trkpt lat="43.429205700813526" lon="10.89999857266678"><ele>242.39999999999998</ele><time>2026-04-18T09:00:25Z</time></trkpt><trkpt lat="43.4292177501419" lon="10.900133689966994"><ele>244.0</ele><time>2026-04-18T09:00:26Z</time></trkpt><trkpt lat="43.42916541714454" lon="10.900285247825881"><ele>245.25</ele><time>2026-04-18T09:00:27Z</time></trkpt><trkpt lat="43.42911020378863" lon="10.900424305927993"><ele>246.5</ele><time>2026-04-18T09:00:28Z</time></trkpt><trkpt lat="43.42901307433612" lon="10.900519910860082"><ele>247.75</ele><time>2026-04-18T09:00:29Z</time></trkpt><trkpt lat="43.428905924276584" lon="10.900571079835851"><ele>249.0</ele><time>2026-04-18T09:00:30Z</time></trkpt><trkpt lat="43.428790619851526" lon="10.90055493444295"><ele>250.6</ele><time>2026-04-18T09:00:31Z</time></trkpt><trkpt lat="43.42869665954145" lon="10.900617814001755"><ele>252.2</ele><time>2026-04-18T09:00:32Z</time></trkpt><trkpt lat="43.42864242856879" lon="10.90071078819298"><ele>253.79999999999998</ele><time>2026-04-18T09:00:33Z</time></trkpt><trkpt lat="43.42860156903291" lon="10.900870839760914"><ele>255.39999999999998</ele><time>2026-04-18T09:00:34Z</time></trkpt><trkpt lat="43.42863140560285" lon="10.901052070620677"><ele>257.0</ele><time>2026-04-18T09:00:35Z</time></trkpt><trkpt lat="43.42867464181553" lon="10.9012282014271"><ele>256.5</ele><time>2026-04-18T09:00:36Z</time></trkpt><trkpt lat="43.428731049756756" lon="10.901380371422722"><ele>256.0</ele><time>2026-04-18T09:00:37Z</time></trkpt><trkpt lat="43.42880589917346" lon="10.901534770819646"><ele>255.5</ele><time>2026-04-18T09:00:38Z</time></trkpt><trkpt lat="43.42891559178226" lon="10.901662636677083"><ele>255.0</ele><time>2026-04-18T09:00:39Z</time></trkpt><trkpt lat="43.42902713829032" lon="10.901795723750109"><ele>258.25</ele><time>2026-04-18T09:00:40Z</time></trkpt><trkpt lat="43.42911681981912" lon="10.901969382657262"><ele>261.5</ele><time>2026-04-18T09:00:41Z</time></trkpt><trkpt lat="43.42921977686563" lon="10.902126344899646"><ele>264.75</ele><time>2026-04-18T09:00:42Z</time></trkpt><trkpt lat="43.429338736113614" lon="10.902229669597494"><ele>268.0</ele><time>2026-04-18T09:00:43Z</time></trkpt><trkpt lat="43.42945390582733" lon="10.9023565186462"><ele>268.0</ele><time>2026-04-18T09:00:44Z</time></trkpt><trkpt lat="43.42957204921472" lon="10.9024680551417"><ele>268.0</ele><time>2026-04-18T09:00:45Z</time></trkpt><trkpt lat="43.42965757561119" lon="10.902566494381295"><ele>268.0</ele><time>2026-04-18T09:00:46Z</time></trkpt><trkpt lat="43.42970111493538" lon="10.902638932644258"><ele>268.0</ele><time>2026-04-18T09:00:47Z</time></trkpt><trkpt lat="43.4297075616267" lon="10.902796175540162"><ele>268.0</ele><time>2026-04-18T09:00:49Z</time></trkpt><trkpt lat="43.42960301669964" lon="10.90281567742428"><ele>269.6</ele><time>2026-04-18T09:00:50Z</time></trkpt><trkpt lat="43.429528820855346" lon="10.902791584730586"><ele>271.20000000000005</ele><time>2026-04-18T09:00:51Z</time></trkpt><trkpt lat="43.42940802735765" lon="10.902824103936515"><ele>272.8</ele><time>2026-04-18T09:00:52Z</time></trkpt><trkpt lat="43.429281205833504" lon="10.902821839452391"><ele>274.40000000000003</ele><time>2026-04-18T09:00:53Z</time></trkpt><trkpt lat="43.42917514052229" lon="10.902763565061619"><ele>276.0</ele><time>2026-04-18T09:00:54Z</time></trkpt><trkpt lat="43.42912316259538" lon="10.902597087176055"><ele>276.5</ele><time>2026-04-18T09:00:55Z</time></trkpt><trkpt lat="43.429040818661825" lon="10.902439815550721"><ele>277.0</ele><time>2026-04-18T09:00:56Z</time></trkpt><trkpt lat="43.428969678538216" lon="10.902314336788969"><ele>277.5</ele><time>2026-04-18T09:00:57Z</time></trkpt><trkpt lat="43.42887461586746" lon="10.902245559386914"><ele>278.0</ele><time>2026-04-18T09:00:58Z</time></trkpt><trkpt lat="43.42877268128566" lon="10.90221001905745"><ele>278.0</ele><time>2026-04-18T09:00:59Z</time></trkpt><trkpt lat="43.428665672128446" lon="10.902223835719166"><ele>278.0</ele><time>2026-04-18T09:01:00Z</time></trkpt><trkpt lat="43.42855571595593" lon="10.902259443563935"><ele>278.0</ele><time>2026-04-18T09:01:01Z</time></trkpt><trkpt lat="43.42843568311975" lon="10.902320234274386"><ele>278.0</ele><time>2026-04-18T09:01:02Z</time></trkpt><trkpt lat="43.428308553850506" lon="10.902355567330286"><ele>278.0</ele><time>2026-04-18T09:01:03Z</time></trkpt><trkpt lat="43.42819074759265" lon="10.902378634356966"><ele>278.0</ele><time>2026-04-18T09:01:04Z</time></trkpt><trkpt lat="43.42807777309585" lon="10.902284941599824"><ele>278.0</ele><time>2026-04-18T09:01:05Z</time></trkpt><trkpt lat="43.42795372818633" lon="10.902218501165224"><ele>278.0</ele><time>2026-04-18T09:01:06Z</time></trkpt><trkpt lat="43.42783971217669" lon="10.902169448917148"><ele>278.5</ele><time>2026-04-18T09:01:07Z</time></trkpt><trkpt lat="43.427761289482" lon="10.902119743038561"><ele>279.0</ele><time>2026-04-18T09:01:08Z</time></trkpt><trkpt lat="43.427689795749565" lon="10.902102011782471"><ele>279.5</ele><time>2026-04-18T09:01:09Z</time></trkpt><trkpt lat="43.42760778380644" lon="10.902152326544295"><ele>280.0</ele><time>2026-04-18T09:01:10Z</time></trkpt><trkpt lat="43.42755789973884" lon="10.90223694514648"><ele>280.5</ele><time>2026-04-18T09:01:11Z</time></trkpt><trkpt lat="43.42755921086142" lon="10.90238358840718"><ele>281.0</ele><time>2026-04-18T09:01:12Z</time></trkpt><trkpt lat="43.42764588212764" lon="10.902486270361246"><ele>281.0</ele><time>2026-04-18T09:01:13Z</time></trkpt><trkpt lat="43.42772888531039" lon="10.90257892978828"><ele>281.0</ele><time>2026-04-18T09:01:14Z</time></trkpt><trkpt lat="43.42784398841515" lon="10.902683216372932"><ele>281.0</ele><time>2026-04-18T09:01:15Z</time></trkpt><trkpt lat="43.42795785627665" lon="10.902804704189332"><ele>281.0</ele><time>2026-04-18T09:01:16Z</time></trkpt><trkpt lat="43.4280905917219" lon="10.902936190285269"><ele>282.5</ele><time>2026-04-18T09:01:17Z</time></trkpt><trkpt lat="43.428224259059675" lon="10.903041384785633"><ele>284.0</ele><time>2026-04-18T09:01:18Z</time></trkpt><trkpt lat="43.42835052591648" lon="10.903139511886764"><ele>285.5</ele><time>2026-04-18T09:01:19Z</time></trkpt><trkpt lat="43.42844667609645" lon="10.903232708824829"><ele>287.0</ele><time>2026-04-18T09:01:20Z</time></trkpt><trkpt lat="43.428508641094034" lon="10.903373198189456"><ele>288.8</ele><time>2026-04-18T09:01:21Z</time></trkpt><trkpt lat="43.42857153528956" lon="10.903508008487474"><ele>290.6</ele><time>2026-04-18T09:01:22Z</time></trkpt><trkpt lat="43.42863376797085" lon="10.903649569895915"><ele>292.40000000000003</ele><time>2026-04-18T09:01:23Z</time></trkpt><trkpt lat="43.428679107965365" lon="10.903765917019703"><ele>294.2</ele><time>2026-04-18T09:01:24Z</time></trkpt><trkpt lat="43.428740642783424" lon="10.90389567365279"><ele>296.0</ele><time>2026-04-18T09:01:25Z</time></trkpt><trkpt lat="43.42877172340082" lon="10.904048703092716"><ele>295.5</ele><time>2026-04-18T09:01:26Z</time></trkpt><trkpt lat="43.428839687585345" lon="10.904221420557105"><ele>295.0</ele><time>2026-04-18T09:01:27Z</time></trkpt><trkpt lat="43.42887202785591" lon="10.904406124945416"><ele>294.5</ele><time>2026-04-18T09:01:28Z</time></trkpt><trkpt lat="43.42890487422766" lon="10.904570016243703"><ele>294.0</ele><time>2026-04-18T09:01:29Z</time></trkpt><trkpt lat="43.42893427628613" lon="10.904744110458726"><ele>294.0</ele><time>2026-04-18T09:01:30Z</time></trkpt><trkpt lat="43.42899170504357" lon="10.904890407712774"><ele>294.0</ele><time>2026-04-18T09:01:31Z</time></trkpt><trkpt lat="43.42907145571416" lon="10.905029429341534"><ele>294.0</ele><time>2026-04-18T09:01:32Z</time></trkpt><trkpt lat="43.42916957595185" lon="10.905137501553378"><ele>294.0</ele><time>2026-04-18T09:01:33Z</time></trkpt><trkpt lat="43.42926583265339" lon="10.90525026780081"><ele>296.0</ele><time>2026-04-18T09:01:34Z</time></trkpt><trkpt lat="43.4293539369805" lon="10.905367151689907"><ele>298.0</ele><time>2026-04-18T09:01:35Z</time></trkpt><trkpt lat="43.429397200904134" lon="10.905482434936607"><ele>300.0</ele><time>2026-04-18T09:01:36Z</time></trkpt><trkpt lat="43.42942535453181" lon="10.90562458108877"><ele>302.0</ele><time>2026-04-18T09:01:37Z</time></trkpt><trkpt lat="43.42939927526805" lon="10.90575786697854"><ele>304.0</ele><time>2026-04-18T09:01:38Z</time></trkpt><trkpt lat="43.42934318723386" lon="10.905857615000947"><ele>304.0</ele><time>2026-04-18T09:01:39Z</time></trkpt><trkpt lat="43.429264834800385" lon="10.905892670588841"><ele>304.0</ele><time>2026-04-18T09:01:40Z</time></trkpt><trkpt lat="43.42919047417123" lon="10.905914536929433"><ele>304.0</ele><time>2026-04-18T09:01:41Z</time></trkpt><trkpt lat="43.42909964996689" lon="10.905871008042462"><ele>304.0</ele><time>2026-04-18T09:01:41.999Z</time></trkpt><trkpt lat="43.42902868180753" lon="10.905791095387576"><ele>304.0</ele><time>2026-04-18T09:01:42.999Z</time></trkpt><trkpt lat="43.428947233278116" lon="10.905748120119524"><ele>304.0</ele><time>2026-04-18T09:01:43.999Z</time></trkpt><trkpt lat="43.428858257975975" lon="10.905696026916292"><ele>307.25</ele><time>2026-04-18T09:01:44.999Z</time></trkpt><trkpt lat="43.42874995256824" lon="10.905606976326824"><ele>310.5</ele><time>2026-04-18T09:01:45.999Z</time></trkpt><trkpt lat="43.42862448833431" lon="10.905526473280007"><ele>313.75</ele><time>2026-04-18T09:01:46.999Z</time></trkpt><trkpt lat="43.42847209900422" lon="10.905443677289924"><ele>317.0</ele><time>2026-04-18T09:01:47.999Z</time></trkpt><trkpt lat="43.42832486776551" lon="10.905356288784708"><ele>317.0</ele><time>2026-04-18T09:01:48.999Z</time></trkpt><trkpt lat="43.42818621323448" lon="10.905275746630942"><ele>317.0</ele><time>2026-04-18T09:01:49.999Z</time></trkpt><trkpt lat="43.428043903856405" lon="10.905204660386794"><ele>317.0</ele><time>2026-04-18T09:01:50.999Z</time></trkpt><trkpt lat="43.427912754952025" lon="10.905109880232413"><ele>317.25</ele><time>2026-04-18T09:01:51.999Z</time></trkpt><trkpt lat="43.42777581604754" lon="10.905006542706245"><ele>317.5</ele><time>2026-04-18T09:01:52.999Z</time></trkpt><trkpt lat="43.42766003527765" lon="10.904920117547064"><ele>317.75</ele><time>2026-04-18T09:01:53.999Z</time></trkpt><trkpt lat="43.427537385166076" lon="10.904847384357167"><ele>318.0</ele><time>2026-04-18T09:01:54.999Z</time></trkpt><trkpt lat="43.427435744516856" lon="10.904777866894957"><ele>318.0</ele><time>2026-04-18T09:01:55.999Z</time></trkpt><trkpt lat="43.42733502333623" lon="10.904783719972597"><ele>318.0</ele><time>2026-04-18T09:01:56.999Z</time></trkpt><trkpt lat="43.4272516653766" lon="10.90479677651036"><ele>318.0</ele><time>2026-04-18T09:01:57.999Z</time></trkpt><trkpt lat="43.427186332519376" lon="10.904861873977548"><ele>318.0</ele><time>2026-04-18T09:01:58.999Z</time></trkpt><trkpt lat="43.4271040657397" lon="10.90489096180662"><ele>318.0</ele><time>2026-04-18T09:01:59.999Z</time></trkpt><trkpt lat="43.427090050074476" lon="10.905103101117039"><ele>321.25</ele><time>2026-04-18T09:02:00.999Z</time></trkpt><trkpt lat="43.42704180592777" lon="10.905172466570109"><ele>324.5</ele><time>2026-04-18T09:02:01.999Z</time></trkpt><trkpt lat="43.42695722470082" lon="10.905338016158558"><ele>327.75</ele><time>2026-04-18T09:02:02.999Z</time></trkpt><trkpt lat="43.42685240504911" lon="10.905446552864456"><ele>331.0</ele><time>2026-04-18T09:02:03.999Z</time></trkpt><trkpt lat="43.42674829122625" lon="10.905486844698942"><ele>331.0</ele><time>2026-04-18T09:02:04.999Z</time></trkpt><trkpt lat="43.42665097754255" lon="10.90551012966012"><ele>331.0</ele><time>2026-04-18T09:02:05.999Z</time></trkpt><trkpt lat="43.42658808690658" lon="10.90557397070902"><ele>331.0</ele><time>2026-04-18T09:02:06.999Z</time></trkpt><trkpt lat="43.42659544936797" lon="10.905732061774076"><ele>331.0</ele><time>2026-04-18T09:02:08.999Z</time></trkpt><trkpt lat="43.42666205573576" lon="10.90578256409581"><ele>331.0</ele><time>2026-04-18T09:02:09.999Z</time></trkpt><trkpt lat="43.42674057753605" lon="10.90585629991988"><ele>333.75</ele><time>2026-04-18T09:02:10.999Z</time></trkpt><trkpt lat="43.42683414194743" lon="10.905918115457501"><ele>336.5</ele><time>2026-04-18T09:02:11.999Z</time></trkpt><trkpt lat="43.4269467635569" lon="10.905994566640983"><ele>339.25</ele><time>2026-04-18T09:02:12.999Z</time></trkpt><trkpt lat="43.42705113171632" lon="10.906073726465477"><ele>342.0</ele><time>2026-04-18T09:02:13.999Z</time></trkpt><trkpt lat="43.42716226736441" lon="10.90618482922804"><ele>342.0</ele><time>2026-04-18T09:02:14.999Z</time></trkpt><trkpt lat="43.4272760449625" lon="10.906294539532231"><ele>342.0</ele><time>2026-04-18T09:02:15.999Z</time></trkpt><trkpt lat="43.427385108253155" lon="10.906365461735744"><ele>342.0</ele><time>2026-04-18T09:02:16.999Z</time></trkpt><trkpt lat="43.42747235934971" lon="10.906465120166924"><ele>342.0</ele><time>2026-04-18T09:02:17.999Z</time></trkpt><trkpt lat="43.427539240029525" lon="10.906595546648141"><ele>344.5</ele><time>2026-04-18T09:02:18.999Z</time></trkpt><trkpt lat="43.42760712827989" lon="10.906770063511553"><ele>347.0</ele><time>2026-04-18T09:02:19.999Z</time></trkpt><trkpt lat="43.427665056648756" lon="10.906942349777935"><ele>349.5</ele><time>2026-04-18T09:02:20.999Z</time></trkpt><trkpt lat="43.42771203532286" lon="10.907100465595907"><ele>352.0</ele><time>2026-04-18T09:02:21.999Z</time></trkpt><trkpt lat="43.4277618272664" lon="10.907249976016699"><ele>352.0</ele><time>2026-04-18T09:02:22.999Z</time></trkpt><trkpt lat="43.42779226588508" lon="10.907398192314293"><ele>352.0</ele><time>2026-04-18T09:02:23.999Z</time></trkpt><trkpt lat="43.42779582992797" lon="10.907561425807362"><ele>352.0</ele><time>2026-04-18T09:02:24.999Z</time></trkpt><trkpt lat="43.42776881314119" lon="10.907728431667882"><ele>352.0</ele><time>2026-04-18T09:02:25.999Z</time></trkpt><trkpt lat="43.4277325525424" lon="10.907839841460973"><ele>352.0</ele><time>2026-04-18T09:02:26.999Z</time></trkpt><trkpt lat="43.4276881226004" lon="10.90796353118008"><ele>353.0</ele><time>2026-04-18T09:02:27.999Z</time></trkpt><trkpt lat="43.42762362634257" lon="10.908118802082008"><ele>354.0</ele><time>2026-04-18T09:02:28.999Z</time></trkpt><trkpt lat="43.42755845546202" lon="10.908270623412674"><ele>355.0</ele><time>2026-04-18T09:02:30Z</time></trkpt><trkpt lat="43.42748905945542" lon="10.908421526244815"><ele>356.0</ele><time>2026-04-18T09:02:31Z</time></trkpt><trkpt lat="43.42742788674241" lon="10.90852536446763"><ele>356.8</ele><time>2026-04-18T09:02:32Z</time></trkpt><trkpt lat="43.42734505956836" lon="10.908571321098721"><ele>357.6</ele><time>2026-04-18T09:02:33Z</time></trkpt><trkpt lat="43.42723807872286" lon="10.908626733821539"><ele>358.4</ele><time>2026-04-18T09:02:34Z</time></trkpt><trkpt lat="43.427170506042806" lon="10.908703392161854"><ele>359.2</ele><time>2026-04-18T09:02:35Z</time></trkpt><trkpt lat="43.427110486008786" lon="10.908771909172692"><ele>360.0</ele><time>2026-04-18T09:02:36Z</time></trkpt><trkpt lat="43.42710280460807" lon="10.908892298519834"><ele>360.0</ele><time>2026-04-18T09:02:37Z</time></trkpt><trkpt lat="43.427160041679464" lon="10.909014270725642"><ele>360.0</ele><time>2026-04-18T09:02:38Z</time></trkpt><trkpt lat="43.42725027054724" lon="10.909123793889309"><ele>360.0</ele><time>2026-04-18T09:02:39Z</time></trkpt><trkpt lat="43.42735022266526" lon="10.909207035243332"><ele>360.0</ele><time>2026-04-18T09:02:40Z</time></trkpt><trkpt lat="43.427452726798755" lon="10.909284435834804"><ele>362.25</ele><time>2026-04-18T09:02:41Z</time></trkpt><trkpt lat="43.427561043055334" lon="10.909362031177425"><ele>364.5</ele><time>2026-04-18T09:02:42Z</time></trkpt><trkpt lat="43.427656588097186" lon="10.909438976316165"><ele>366.75</ele><time>2026-04-18T09:02:43Z</time></trkpt><trkpt lat="43.42775798885446" lon="10.909564132819122"><ele>369.0</ele><time>2026-04-18T09:02:44Z</time></trkpt><trkpt lat="43.4277936668735" lon="10.909701581099783"><ele>369.0</ele><time>2026-04-18T09:02:45Z</time></trkpt><trkpt lat="43.42776625868912" lon="10.909840933115158"><ele>369.0</ele><time>2026-04-18T09:02:46Z</time></trkpt><trkpt lat="43.42773583818733" lon="10.910006003184401"><ele>369.0</ele><time>2026-04-18T09:02:47Z</time></trkpt><trkpt lat="43.42769786799692" lon="10.910188210187876"><ele>369.0</ele><time>2026-04-18T09:02:48Z</time></trkpt><trkpt lat="43.42771119597496" lon="10.910333628317794"><ele>370.75</ele><time>2026-04-18T09:02:49Z</time></trkpt><trkpt lat="43.42777882048856" lon="10.910487956146987"><ele>372.5</ele><time>2026-04-18T09:02:50Z</time></trkpt><trkpt lat="43.42787425596299" lon="10.910660549324577"><ele>374.25</ele><time>2026-04-18T09:02:51Z</time></trkpt><trkpt lat="43.42790951715886" lon="10.910819380635022"><ele>376.0</ele><time>2026-04-18T09:02:52Z</time></trkpt><trkpt lat="43.42790464947871" lon="10.91097164620772"><ele>378.66666666666663</ele><time>2026-04-18T09:02:53Z</time></trkpt><trkpt lat="43.42789118404239" lon="10.911182769862709"><ele>381.3333333333333</ele><time>2026-04-18T09:02:54Z</time></trkpt><trkpt lat="43.42788302696953" lon="10.911442813231615"><ele>384.0</ele><time>2026-04-18T09:02:55Z</time></trkpt><trkpt lat="43.427872024120525" lon="10.911674191535432"><ele>386.33333333333337</ele><time>2026-04-18T09:02:56Z</time></trkpt><trkpt lat="43.427856617259515" lon="10.91190464840331"><ele>388.6666666666667</ele><time>2026-04-18T09:02:57Z</time></trkpt><trkpt lat="43.42785075610185" lon="10.912126061759464"><ele>391.0</ele><time>2026-04-18T09:02:58Z</time></trkpt><trkpt lat="43.42781044242873" lon="10.912287613439211"><ele>391.0</ele><time>2026-04-18T09:02:59Z</time></trkpt><trkpt lat="43.42776058355798" lon="10.912469827254766"><ele>391.0</ele><time>2026-04-18T09:03:00Z</time></trkpt><trkpt lat="43.42768213063711" lon="10.912660579345703"><ele>391.0</ele><time>2026-04-18T09:03:01Z</time></trkpt><trkpt lat="43.4275978818811" lon="10.912829701239652"><ele>390.25</ele><time>2026-04-18T09:03:02Z</time></trkpt><trkpt lat="43.42751390847513" lon="10.912986179362242"><ele>389.5</ele><time>2026-04-18T09:03:03Z</time></trkpt><trkpt lat="43.42744428877225" lon="10.913148958467216"><ele>388.75</ele><time>2026-04-18T09:03:04Z</time></trkpt><trkpt lat="43.42736880374457" lon="10.913281577557948"><ele>388.0</ele><time>2026-04-18T09:03:05Z</time></trkpt><trkpt lat="43.427331703248925" lon="10.913454924872651"><ele>387.75</ele><time>2026-04-18T09:03:06Z</time></trkpt><trkpt lat="43.427325049524626" lon="10.913617302003352"><ele>387.5</ele><time>2026-04-18T09:03:07Z</time></trkpt><trkpt lat="43.42736111969851" lon="10.913786088128337"><ele>387.25</ele><time>2026-04-18T09:03:08Z</time></trkpt><trkpt lat="43.427457141543236" lon="10.913929795043225"><ele>387.0</ele><time>2026-04-18T09:03:09Z</time></trkpt><trkpt lat="43.42754402738182" lon="10.914115278977803"><ele>385.6666666666667</ele><time>2026-04-18T09:03:10Z</time></trkpt><trkpt lat="43.42765098802944" lon="10.91429508870847"><ele>384.33333333333337</ele><time>2026-04-18T09:03:11Z</time></trkpt><trkpt lat="43.42776316176137" lon="10.914482972380535"><ele>383.0</ele><time>2026-04-18T09:03:12Z</time></trkpt><trkpt lat="43.42786719569916" lon="10.9146571789801"><ele>383.0</ele><time>2026-04-18T09:03:13Z</time></trkpt><trkpt lat="43.42797460243785" lon="10.914833351153266"><ele>383.0</ele><time>2026-04-18T09:03:14Z</time></trkpt><trkpt lat="43.428072601201094" lon="10.914976016696373"><ele>383.0</ele><time>2026-04-18T09:03:15Z</time></trkpt><trkpt lat="43.428142134812475" lon="10.915123003265698"><ele>383.0</ele><time>2026-04-18T09:03:16Z</time></trkpt><trkpt lat="43.428262145682424" lon="10.915268026599588"><ele>385.25</ele><time>2026-04-18T09:03:17Z</time></trkpt><trkpt lat="43.42838680937663" lon="10.91540158177051"><ele>387.5</ele><time>2026-04-18T09:03:18Z</time></trkpt><trkpt lat="43.428540787049215" lon="10.915440881366047"><ele>389.75</ele><time>2026-04-18T09:03:19Z</time></trkpt><trkpt lat="43.42866855894008" lon="10.915457676240916"><ele>392.0</ele><time>2026-04-18T09:03:20Z</time></trkpt><trkpt lat="43.428775552803245" lon="10.915522607914617"><ele>396.25</ele><time>2026-04-18T09:03:21Z</time></trkpt><trkpt lat="43.42887843479639" lon="10.915635797943072"><ele>400.5</ele><time>2026-04-18T09:03:22Z</time></trkpt><trkpt lat="43.42893966774214" lon="10.915796535730905"><ele>404.75</ele><time>2026-04-18T09:03:23Z</time></trkpt><trkpt lat="43.42893424956341" lon="10.915972004101727"><ele>409.0</ele><time>2026-04-18T09:03:24Z</time></trkpt><trkpt lat="43.42892610366819" lon="10.916142002873677"><ele>410.25</ele><time>2026-04-18T09:03:25Z</time></trkpt><trkpt lat="43.42893126440752" lon="10.916340882326269"><ele>411.5</ele><time>2026-04-18T09:03:26Z</time></trkpt><trkpt lat="43.428985932024176" lon="10.916546247463401"><ele>412.75</ele><time>2026-04-18T09:03:27Z</time></trkpt><trkpt lat="43.429004432016335" lon="10.91674274373866"><ele>414.0</ele><time>2026-04-18T09:03:28Z</time></trkpt><trkpt lat="43.42903204000115" lon="10.916933884501313"><ele>414.5</ele><time>2026-04-18T09:03:29Z</time></trkpt><trkpt lat="43.429076581902706" lon="10.917124733724778"><ele>415.0</ele><time>2026-04-18T09:03:30Z</time></trkpt><trkpt lat="43.429109216742596" lon="10.917306916704495"><ele>415.5</ele><time>2026-04-18T09:03:31Z</time></trkpt><trkpt lat="43.42915368702058" lon="10.917480444511972"><ele>416.0</ele><time>2026-04-18T09:03:32Z</time></trkpt><trkpt lat="43.429202473981924" lon="10.91765906540146"><ele>416.0</ele><time>2026-04-18T09:03:33Z</time></trkpt><trkpt lat="43.429229160835305" lon="10.917850277865464"><ele>416.0</ele><time>2026-04-18T09:03:34Z</time></trkpt><trkpt lat="43.429256487080764" lon="10.918038230774197"><ele>416.0</ele><time>2026-04-18T09:03:35Z</time></trkpt><trkpt lat="43.42928967941971" lon="10.918228935487956"><ele>416.0</ele><time>2026-04-18T09:03:36Z</time></trkpt><trkpt lat="43.429295506553366" lon="10.918432687547979"><ele>417.25</ele><time>2026-04-18T09:03:37Z</time></trkpt><trkpt lat="43.42927923976715" lon="10.918626050295348"><ele>418.5</ele><time>2026-04-18T09:03:38Z</time></trkpt><trkpt lat="43.42925866799212" lon="10.918812771873771"><ele>419.75</ele><time>2026-04-18T09:03:39Z</time></trkpt><trkpt lat="43.42922152320664" lon="10.919008497910433"><ele>421.0</ele><time>2026-04-18T09:03:40Z</time></trkpt><trkpt lat="43.42917020144082" lon="10.919199045007357"><ele>422.6666666666667</ele><time>2026-04-18T09:03:41Z</time></trkpt><trkpt lat="43.42909758552148" lon="10.919390160111362"><ele>424.33333333333337</ele><time>2026-04-18T09:03:42Z</time></trkpt><trkpt lat="43.42902373067415" lon="10.919574624987987"><ele>426.0</ele><time>2026-04-18T09:03:42.999Z</time></trkpt><trkpt lat="43.42895036956645" lon="10.919747257366133"><ele>426.0</ele><time>2026-04-18T09:03:43.999Z</time></trkpt><trkpt lat="43.42888423413802" lon="10.919925314112906"><ele>426.0</ele><time>2026-04-18T09:03:44.999Z</time></trkpt><trkpt lat="43.42885078965846" lon="10.92008627818359"><ele>426.0</ele><time>2026-04-18T09:03:45.999Z</time></trkpt><trkpt lat="43.428851449630656" lon="10.920232467641139"><ele>426.0</ele><time>2026-04-18T09:03:46.999Z</time></trkpt><trkpt lat="43.42887809661392" lon="10.920390699727546"><ele>426.0</ele><time>2026-04-18T09:03:47.999Z</time></trkpt><trkpt lat="43.42892317628055" lon="10.920580579541125"><ele>426.0</ele><time>2026-04-18T09:03:48.999Z</time></trkpt><trkpt lat="43.4289615880442" lon="10.920755712480071"><ele>426.0</ele><time>2026-04-18T09:03:49.999Z</time></trkpt><trkpt lat="43.42899095122516" lon="10.920904279289214"><ele>426.0</ele><time>2026-04-18T09:03:50.999Z</time></trkpt><trkpt lat="43.429016228851" lon="10.921050167232059"><ele>425.0</ele><time>2026-04-18T09:03:51.999Z</time></trkpt><trkpt lat="43.42900049378837" lon="10.921193595526027"><ele>424.0</ele><time>2026-04-18T09:03:52.999Z</time></trkpt><trkpt lat="43.42896127608886" lon="10.921345308200127"><ele>423.0</ele><time>2026-04-18T09:03:53.999Z</time></trkpt><trkpt lat="43.42888558459846" lon="10.921493192207214"><ele>422.0</ele><time>2026-04-18T09:03:54.999Z</time></trkpt><trkpt lat="43.42876663886843" lon="10.921622888716952"><ele>422.0</ele><time>2026-04-18T09:03:55.999Z</time></trkpt><trkpt lat="43.42861842070366" lon="10.921749190025436"><ele>422.0</ele><time>2026-04-18T09:03:56.999Z</time></trkpt><trkpt lat="43.42849151378963" lon="10.921885705616793"><ele>422.0</ele><time>2026-04-18T09:03:57.999Z</time></trkpt><trkpt lat="43.4283638976434" lon="10.922018997892753"><ele>422.0</ele><time>2026-04-18T09:03:58.999Z</time></trkpt><trkpt lat="43.42826476570765" lon="10.922205380099943"><ele>422.0</ele><time>2026-04-18T09:03:59.999Z</time></trkpt><trkpt lat="43.4281934623584" lon="10.922419186691034"><ele>422.0</ele><time>2026-04-18T09:04:00.999Z</time></trkpt><trkpt lat="43.42813851114309" lon="10.92263533028955"><ele>422.25</ele><time>2026-04-18T09:04:01.999Z</time></trkpt><trkpt lat="43.42808933428203" lon="10.922829177165399"><ele>422.5</ele><time>2026-04-18T09:04:02.999Z</time></trkpt><trkpt lat="43.42805509331207" lon="10.923026722712237"><ele>422.75</ele><time>2026-04-18T09:04:03.999Z</time></trkpt><trkpt lat="43.4279996480344" lon="10.923222933673495"><ele>423.0</ele><time>2026-04-18T09:04:04.999Z</time></trkpt><trkpt lat="43.42794882728411" lon="10.923414999540514"><ele>431.0</ele><time>2026-04-18T09:04:05.999Z</time></trkpt><trkpt lat="43.4279091108021" lon="10.923604243057158"><ele>439.0</ele><time>2026-04-18T09:04:06.999Z</time></trkpt><trkpt lat="43.427853098650864" lon="10.923792731052876"><ele>447.0</ele><time>2026-04-18T09:04:07.999Z</time></trkpt><trkpt lat="43.42782982523047" lon="10.923989030982105"><ele>455.0</ele><time>2026-04-18T09:04:08.999Z</time></trkpt><trkpt lat="43.4278197030038" lon="10.924202905693912"><ele>456.66666666666663</ele><time>2026-04-18T09:04:09.999Z</time></trkpt><trkpt lat="43.42781985704432" lon="10.924423291718034"><ele>458.33333333333337</ele><time>2026-04-18T09:04:10.999Z</time></trkpt><trkpt lat="43.42782205508641" lon="10.924644053774621"><ele>460.0</ele><time>2026-04-18T09:04:11.999Z</time></trkpt><trkpt lat="43.42782630933921" lon="10.924858256076854"><ele>459.5</ele><time>2026-04-18T09:04:12.999Z</time></trkpt><trkpt lat="43.42783188947558" lon="10.92507463007654"><ele>459.0</ele><time>2026-04-18T09:04:13.999Z</time></trkpt><trkpt lat="43.427836985193345" lon="10.925272220246018"><ele>458.5</ele><time>2026-04-18T09:04:14.999Z</time></trkpt><trkpt lat="43.427840635138196" lon="10.92546542184859"><ele>458.0</ele><time>2026-04-18T09:04:15.999Z</time></trkpt><trkpt lat="43.42784234966814" lon="10.925645234269485"><ele>458.0</ele><time>2026-04-18T09:04:16.999Z</time></trkpt><trkpt lat="43.42783632728273" lon="10.925793312538552"><ele>458.0</ele><time>2026-04-18T09:04:17.999Z</time></trkpt><trkpt lat="43.42780789049911" lon="10.925941682424364"><ele>458.0</ele><time>2026-04-18T09:04:18.999Z</time></trkpt><trkpt lat="43.42775403020834" lon="10.926076596710606"><ele>458.0</ele><time>2026-04-18T09:04:19.999Z</time></trkpt><trkpt lat="43.427687662036" lon="10.926217245859087"><ele>457.25</ele><time>2026-04-18T09:04:20.999Z</time></trkpt><trkpt lat="43.42762950921727" lon="10.926345733301112"><ele>456.5</ele><time>2026-04-18T09:04:21.999Z</time></trkpt><trkpt lat="43.427532555913686" lon="10.92641261683916"><ele>455.75</ele><time>2026-04-18T09:04:22.999Z</time></trkpt><trkpt lat="43.427406306114214" lon="10.926363972371819"><ele>455.0</ele><time>2026-04-18T09:04:23.999Z</time></trkpt><trkpt lat="43.42726435914381" lon="10.92639486845123"><ele>458.25</ele><time>2026-04-18T09:04:24.999Z</time></trkpt><trkpt lat="43.427125097485956" lon="10.92643858805022"><ele>461.5</ele><time>2026-04-18T09:04:25.999Z</time></trkpt><trkpt lat="43.427020058418215" lon="10.926519996593008"><ele>464.75</ele><time>2026-04-18T09:04:26.999Z</time></trkpt><trkpt lat="43.426949712023756" lon="10.92665652750189"><ele>468.0</ele><time>2026-04-18T09:04:27.999Z</time></trkpt><trkpt lat="43.426945017649714" lon="10.926823803491432"><ele>467.59999999999997</ele><time>2026-04-18T09:04:28.999Z</time></trkpt><trkpt lat="43.42696422836652" lon="10.926955467516066"><ele>467.19999999999993</ele><time>2026-04-18T09:04:29.999Z</time></trkpt><trkpt lat="43.427017726595444" lon="10.927053493822314"><ele>466.8</ele><time>2026-04-18T09:04:30.999Z</time></trkpt><trkpt lat="43.427116584282494" lon="10.927123415313982"><ele>466.4</ele><time>2026-04-18T09:04:31.999Z</time></trkpt><trkpt lat="43.427241511548914" lon="10.927193511587165"><ele>466.0</ele><time>2026-04-18T09:04:32.999Z</time></trkpt><trkpt lat="43.427388794392805" lon="10.92726257633968"><ele>466.0</ele><time>2026-04-18T09:04:33.999Z</time></trkpt><trkpt lat="43.42753427210017" lon="10.927356836046616"><ele>466.0</ele><time>2026-04-18T09:04:34.999Z</time></trkpt><trkpt lat="43.42760127798419" lon="10.927535730028017"><ele>466.0</ele><time>2026-04-18T09:04:36Z</time></trkpt><trkpt lat="43.42768374275023" lon="10.927725522571013"><ele>470.0</ele><time>2026-04-18T09:04:37Z</time></trkpt><trkpt lat="43.42777031471352" lon="10.92792437113763"><ele>474.0</ele><time>2026-04-18T09:04:38Z</time></trkpt><trkpt lat="43.4278604580192" lon="10.928086318212161"><ele>478.0</ele><time>2026-04-18T09:04:39Z</time></trkpt><trkpt lat="43.42792662124898" lon="10.928231078099538"><ele>482.0</ele><time>2026-04-18T09:04:40Z</time></trkpt><trkpt lat="43.427957107635415" lon="10.928388639440314"><ele>479.5</ele><time>2026-04-18T09:04:41Z</time></trkpt><trkpt lat="43.42796977773666" lon="10.928574016698358"><ele>477.0</ele><time>2026-04-18T09:04:42Z</time></trkpt><trkpt lat="43.42796868870554" lon="10.928784268218513"><ele>474.5</ele><time>2026-04-18T09:04:43Z</time></trkpt><trkpt lat="43.427979793629206" lon="10.928985335586423"><ele>472.0</ele><time>2026-04-18T09:04:44Z</time></trkpt><trkpt lat="43.4280172173648" lon="10.929190412572105"><ele>475.25</ele><time>2026-04-18T09:04:45Z</time></trkpt><trkpt lat="43.42809932426232" lon="10.92938870858759"><ele>478.5</ele><time>2026-04-18T09:04:46Z</time></trkpt><trkpt lat="43.4281594328818" lon="10.929588164740379"><ele>481.75</ele><time>2026-04-18T09:04:47Z</time></trkpt><trkpt lat="43.42820376659562" lon="10.929748675551837"><ele>485.0</ele><time>2026-04-18T09:04:48Z</time></trkpt><trkpt lat="43.428212170375055" lon="10.929897395727215"><ele>487.25</ele><time>2026-04-18T09:04:49Z</time></trkpt><trkpt lat="43.42821668059371" lon="10.930080351027959"><ele>489.5</ele><time>2026-04-18T09:04:50Z</time></trkpt><trkpt lat="43.42820779364571" lon="10.93025500148019"><ele>491.75</ele><time>2026-04-18T09:04:51Z</time></trkpt><trkpt lat="43.42816144677849" lon="10.93042799272502"><ele>494.0</ele><time>2026-04-18T09:04:52Z</time></trkpt><trkpt lat="43.42811047535106" lon="10.930617305693303"><ele>494.0</ele><time>2026-04-18T09:04:53Z</time></trkpt><trkpt lat="43.42804768591802" lon="10.930853836313423"><ele>494.0</ele><time>2026-04-18T09:04:54Z</time></trkpt><trkpt lat="43.428015373127124" lon="10.931062517535818"><ele>494.0</ele><time>2026-04-18T09:04:55Z</time></trkpt><trkpt lat="43.428021636541445" lon="10.931197125704688"><ele>494.0</ele><time>2026-04-18T09:04:56Z</time></trkpt><trkpt lat="43.42803599525594" lon="10.93146658392633"><ele>496.75</ele><time>2026-04-18T09:04:57Z</time></trkpt><trkpt lat="43.42806623757762" lon="10.931660643890815"><ele>499.5</ele><time>2026-04-18T09:04:58Z</time></trkpt><trkpt lat="43.428100391344124" lon="10.931853128302649"><ele>502.25</ele><time>2026-04-18T09:04:59Z</time></trkpt><trkpt lat="43.42811671841687" lon="10.931993325565076"><ele>505.0</ele><time>2026-04-18T09:05:00Z</time></trkpt><trkpt lat="43.42807775995691" lon="10.932138552759016"><ele>506.4</ele><time>2026-04-18T09:05:01Z</time></trkpt><trkpt lat="43.42801744195006" lon="10.932240199121894"><ele>507.8</ele><time>2026-04-18T09:05:02Z</time></trkpt><trkpt lat="43.42790313652278" lon="10.932315074331136"><ele>509.20000000000005</ele><time>2026-04-18T09:05:03Z</time></trkpt><trkpt lat="43.42779408113943" lon="10.932367125135464"><ele>510.6</ele><time>2026-04-18T09:05:04Z</time></trkpt><trkpt lat="43.42774562786452" lon="10.932469677148626"><ele>512.0</ele><time>2026-04-18T09:05:05Z</time></trkpt><trkpt lat="43.42772957854235" lon="10.932579601692375"><ele>512.5</ele><time>2026-04-18T09:05:06Z</time></trkpt><trkpt lat="43.42776487671004" lon="10.932679149770944"><ele>513.0</ele><time>2026-04-18T09:05:07Z</time></trkpt><trkpt lat="43.427800862206844" lon="10.932817314951048"><ele>513.5</ele><time>2026-04-18T09:05:08Z</time></trkpt><trkpt lat="43.42784803703737" lon="10.93298191554098"><ele>514.0</ele><time>2026-04-18T09:05:09Z</time></trkpt><trkpt lat="43.4279031931801" lon="10.933166025722798"><ele>514.0</ele><time>2026-04-18T09:05:10Z</time></trkpt><trkpt lat="43.42794524740134" lon="10.933322130658741"><ele>514.0</ele><time>2026-04-18T09:05:11Z</time></trkpt><trkpt lat="43.42798793218515" lon="10.933480746237088"><ele>514.0</ele><time>2026-04-18T09:05:12Z</time></trkpt><trkpt lat="43.42803478685612" lon="10.933628813804528"><ele>514.0</ele><time>2026-04-18T09:05:13Z</time></trkpt><trkpt lat="43.428106288227816" lon="10.933765670230613"><ele>510.25</ele><time>2026-04-18T09:05:14Z</time></trkpt><trkpt lat="43.428186521201006" lon="10.933901987732636"><ele>506.5</ele><time>2026-04-18T09:05:15Z</time></trkpt><trkpt lat="43.42828207153249" lon="10.934015060121565"><ele>502.75</ele><time>2026-04-18T09:05:16Z</time></trkpt><trkpt lat="43.42838614921555" lon="10.934106696186396"><ele>499.0</ele><time>2026-04-18T09:05:17Z</time></trkpt><trkpt lat="43.42847627939489" lon="10.93418006172849"><ele>496.5</ele><time>2026-04-18T09:05:18Z</time></trkpt><trkpt lat="43.42857813410196" lon="10.934256959953464"><ele>494.0</ele><time>2026-04-18T09:05:19Z</time></trkpt><trkpt lat="43.42868366265766" lon="10.934362475576958"><ele>491.5</ele><time>2026-04-18T09:05:20Z</time></trkpt><trkpt lat="43.42879000096326" lon="10.934451569757826"><ele>489.0</ele><time>2026-04-18T09:05:21Z</time></trkpt><trkpt lat="43.428911333281484" lon="10.934572222313935"><ele>489.0</ele><time>2026-04-18T09:05:22Z</time></trkpt><trkpt lat="43.429029177600945" lon="10.93467794374597"><ele>489.0</ele><time>2026-04-18T09:05:23Z</time></trkpt><trkpt lat="43.42915962870548" lon="10.934756762835228"><ele>489.0</ele><time>2026-04-18T09:05:24Z</time></trkpt><trkpt lat="43.42929364133707" lon="10.934840567569617"><ele>489.0</ele><time>2026-04-18T09:05:25Z</time></trkpt><trkpt lat="43.42942832614842" lon="10.93493192081796"><ele>489.0</ele><time>2026-04-18T09:05:26Z</time></trkpt><trkpt lat="43.42956805112924" lon="10.935007251651328"><ele>489.0</ele><time>2026-04-18T09:05:27Z</time></trkpt><trkpt lat="43.429696033151004" lon="10.93512078031492"><ele>489.0</ele><time>2026-04-18T09:05:28Z</time></trkpt><trkpt lat="43.429830917732836" lon="10.93522531269883"><ele>489.25</ele><time>2026-04-18T09:05:29Z</time></trkpt><trkpt lat="43.42994679357709" lon="10.935315546980956"><ele>489.5</ele><time>2026-04-18T09:05:30Z</time></trkpt><trkpt lat="43.430058834913645" lon="10.935417362905675"><ele>489.75</ele><time>2026-04-18T09:05:31Z</time></trkpt><trkpt lat="43.43015402859574" lon="10.935512094069042"><ele>490.0</ele><time>2026-04-18T09:05:32Z</time></trkpt><trkpt lat="43.43025596318655" lon="10.935640917332066"><ele>490.0</ele><time>2026-04-18T09:05:33Z</time></trkpt><trkpt lat="43.43034655845697" lon="10.935803857804705"><ele>490.0</ele><time>2026-04-18T09:05:34Z</time></trkpt><trkpt lat="43.430454380877684" lon="10.93595689955867"><ele>490.0</ele><time>2026-04-18T09:05:35Z</time></trkpt><trkpt lat="43.43056010602407" lon="10.936116728119256"><ele>493.0</ele><time>2026-04-18T09:05:36Z</time></trkpt><trkpt lat="43.43065764447338" lon="10.936294620227748"><ele>496.0</ele><time>2026-04-18T09:05:37Z</time></trkpt><trkpt lat="43.43073836152905" lon="10.936471351112848"><ele>499.0</ele><time>2026-04-18T09:05:38Z</time></trkpt><trkpt lat="43.430808139573784" lon="10.936652254143915"><ele>497.5</ele><time>2026-04-18T09:05:39Z</time></trkpt><trkpt lat="43.430876238025604" lon="10.936846765756249"><ele>496.0</ele><time>2026-04-18T09:05:40Z</time></trkpt><trkpt lat="43.430925108635684" lon="10.937021144720388"><ele>494.5</ele><time>2026-04-18T09:05:41Z</time></trkpt><trkpt lat="43.43097674999422" lon="10.93719850439311"><ele>493.0</ele><time>2026-04-18T09:05:42Z</time></trkpt><trkpt lat="43.431049523119945" lon="10.93736432162007"><ele>493.0</ele><time>2026-04-18T09:05:43Z</time></trkpt><trkpt lat="43.43113932102983" lon="10.937503791818747"><ele>493.0</ele><time>2026-04-18T09:05:44Z</time></trkpt><trkpt lat="43.43122990715142" lon="10.93761878060858"><ele>493.0</ele><time>2026-04-18T09:05:45Z</time></trkpt><trkpt lat="43.431346811405476" lon="10.93772963017613"><ele>493.0</ele><time>2026-04-18T09:05:46Z</time></trkpt><trkpt lat="43.431463717866194" lon="10.937838724583086"><ele>494.75</ele><time>2026-04-18T09:05:47Z</time></trkpt><trkpt lat="43.43156887470029" lon="10.937980333046847"><ele>496.5</ele><time>2026-04-18T09:05:47.999Z</time></trkpt><trkpt lat="43.43166807362486" lon="10.938127063395987"><ele>498.25</ele><time>2026-04-18T09:05:48.999Z</time></trkpt><trkpt lat="43.43176211611823" lon="10.938278592776742"><ele>500.0</ele><time>2026-04-18T09:05:49.999Z</time></trkpt><trkpt lat="43.43184384538479" lon="10.938471037701527"><ele>500.0</ele><time>2026-04-18T09:05:50.999Z</time></trkpt><trkpt lat="43.43193538647432" lon="10.938653545517866"><ele>500.0</ele><time>2026-04-18T09:05:51.999Z</time></trkpt><trkpt lat="43.43197912967129" lon="10.938830814951153"><ele>500.0</ele><time>2026-04-18T09:05:52.999Z</time></trkpt><trkpt lat="43.43199436158875" lon="10.939040331563218"><ele>500.0</ele><time>2026-04-18T09:05:53.999Z</time></trkpt><trkpt lat="43.431960882476076" lon="10.939206124545795"><ele>500.0</ele><time>2026-04-18T09:05:54.999Z</time></trkpt><trkpt lat="43.43195070292076" lon="10.939424541509275"><ele>500.0</ele><time>2026-04-18T09:05:55.999Z</time></trkpt><trkpt lat="43.43194415631342" lon="10.939636829892509"><ele>500.0</ele><time>2026-04-18T09:05:56.999Z</time></trkpt><trkpt lat="43.43204695544214" lon="10.939805914794682"><ele>500.8</ele><time>2026-04-18T09:05:57.999Z</time></trkpt><trkpt lat="43.43204642680713" lon="10.939928568487748"><ele>501.6</ele><time>2026-04-18T09:05:58.999Z</time></trkpt><trkpt lat="43.432102135482765" lon="10.940035734102459"><ele>502.4</ele><time>2026-04-18T09:05:59.999Z</time></trkpt><trkpt lat="43.43208311151386" lon="10.940159367505968"><ele>503.2</ele><time>2026-04-18T09:06:00.999Z</time></trkpt><trkpt lat="43.432030636370946" lon="10.940300602737992"><ele>504.0</ele><time>2026-04-18T09:06:01.999Z</time></trkpt><trkpt lat="43.431993233054214" lon="10.940465307438544"><ele>506.0</ele><time>2026-04-18T09:06:02.999Z</time></trkpt><trkpt lat="43.43195793688913" lon="10.940683821937512"><ele>508.0</ele><time>2026-04-18T09:06:03.999Z</time></trkpt><trkpt lat="43.431924314290306" lon="10.940908847722662"><ele>510.0</ele><time>2026-04-18T09:06:04.999Z</time></trkpt><trkpt lat="43.43188895645545" lon="10.941141427242464"><ele>511.66666666666663</ele><time>2026-04-18T09:06:05.999Z</time></trkpt><trkpt lat="43.43187871239169" lon="10.941365095036296"><ele>513.3333333333333</ele><time>2026-04-18T09:06:06.999Z</time></trkpt><trkpt lat="43.431883115648326" lon="10.941596520189945"><ele>515.0</ele><time>2026-04-18T09:06:07.999Z</time></trkpt><trkpt lat="43.43186438519794" lon="10.941838323217214"><ele>515.3333333333333</ele><time>2026-04-18T09:06:08.999Z</time></trkpt><trkpt lat="43.431859502579016" lon="10.942064794798268"><ele>515.6666666666666</ele><time>2026-04-18T09:06:09.999Z</time></trkpt><trkpt lat="43.431855385293964" lon="10.942278153100284"><ele>516.0</ele><time>2026-04-18T09:06:10.999Z</time></trkpt><trkpt lat="43.431864050775886" lon="10.942484555499165"><ele>514.75</ele><time>2026-04-18T09:06:11.999Z</time></trkpt><trkpt lat="43.43187254798881" lon="10.942669556531637"><ele>513.5</ele><time>2026-04-18T09:06:12.999Z</time></trkpt><trkpt lat="43.43189054672775" lon="10.942883070268485"><ele>512.25</ele><time>2026-04-18T09:06:13.999Z</time></trkpt><trkpt lat="43.43190538610916" lon="10.943094220655595"><ele>511.0</ele><time>2026-04-18T09:06:14.999Z</time></trkpt><trkpt lat="43.431914841088194" lon="10.943299866931628"><ele>510.25</ele><time>2026-04-18T09:06:15.999Z</time></trkpt><trkpt lat="43.4319051215077" lon="10.943508459005809"><ele>509.5</ele><time>2026-04-18T09:06:16.999Z</time></trkpt><trkpt lat="43.431902330366874" lon="10.94366883364153"><ele>508.75</ele><time>2026-04-18T09:06:17.999Z</time></trkpt><trkpt lat="43.431900249841114" lon="10.943830734432318"><ele>508.0</ele><time>2026-04-18T09:06:18.999Z</time></trkpt><trkpt lat="43.43192912046004" lon="10.944062638952426"><ele>507.25</ele><time>2026-04-18T09:06:19.999Z</time></trkpt><trkpt lat="43.431959792652606" lon="10.94422646029818"><ele>506.5</ele><time>2026-04-18T09:06:20.999Z</time></trkpt><trkpt lat="43.432025688345995" lon="10.944403444060214"><ele>505.75</ele><time>2026-04-18T09:06:21.999Z</time></trkpt><trkpt lat="43.43212522620455" lon="10.944514533508425"><ele>505.0</ele><time>2026-04-18T09:06:22.999Z</time></trkpt><trkpt lat="43.432238361371866" lon="10.944561600791777"><ele>506.5</ele><time>2026-04-18T09:06:23.999Z</time></trkpt><trkpt lat="43.432356997476376" lon="10.944565407833243"><ele>508.0</ele><time>2026-04-18T09:06:24.999Z</time></trkpt><trkpt lat="43.432481497962215" lon="10.944559572195548"><ele>509.5</ele><time>2026-04-18T09:06:25.999Z</time></trkpt><trkpt lat="43.43265928967903" lon="10.94452460392693"><ele>511.0</ele><time>2026-04-18T09:06:26.999Z</time></trkpt><trkpt lat="43.43281878596336" lon="10.944471636709084"><ele>513.0</ele><time>2026-04-18T09:06:27.999Z</time></trkpt><trkpt lat="43.432996822299145" lon="10.944436547958485"><ele>515.0</ele><time>2026-04-18T09:06:28.999Z</time></trkpt><trkpt lat="43.43315500056999" lon="10.944400150803217"><ele>517.0</ele><time>2026-04-18T09:06:29.999Z</time></trkpt><trkpt lat="43.43329647641836" lon="10.944380313672843"><ele>517.0</ele><time>2026-04-18T09:06:30.999Z</time></trkpt><trkpt lat="43.43342700069383" lon="10.944375341961338"><ele>517.0</ele><time>2026-04-18T09:06:31.999Z</time></trkpt><trkpt lat="43.43355208161243" lon="10.944447978315617"><ele>517.0</ele><time>2026-04-18T09:06:32.999Z</time></trkpt><trkpt lat="43.43368547284629" lon="10.944524621316146"><ele>517.0</ele><time>2026-04-18T09:06:33.999Z</time></trkpt><trkpt lat="43.433817132691985" lon="10.944644111860176"><ele>520.6666666666667</ele><time>2026-04-18T09:06:34.999Z</time></trkpt><trkpt lat="43.43396001763735" lon="10.94475940288993"><ele>524.3333333333334</ele><time>2026-04-18T09:06:35.999Z</time></trkpt><trkpt lat="43.43410970216317" lon="10.944862548056667"><ele>528.0</ele><time>2026-04-18T09:06:36.999Z</time></trkpt><trkpt lat="43.43425669193905" lon="10.944934993326635"><ele>528.0</ele><time>2026-04-18T09:06:37.999Z</time></trkpt><trkpt lat="43.434399724745134" lon="10.944973109700571"><ele>528.0</ele><time>2026-04-18T09:06:38.999Z</time></trkpt><trkpt lat="43.434496477470574" lon="10.94500112177757"><ele>528.0</ele><time>2026-04-18T09:06:39.999Z</time></trkpt><trkpt lat="43.43460715186547" lon="10.945026044576405"><ele>528.0</ele><time>2026-04-18T09:06:40.999Z</time></trkpt><trkpt lat="43.43469878085134" lon="10.945034701722886"><ele>528.0</ele><time>2026-04-18T09:06:42Z</time></trkpt><trkpt lat="43.43478720552021" lon="10.945082490341179"><ele>530.5</ele><time>2026-04-18T09:06:43Z</time></trkpt><trkpt lat="43.434810398180616" lon="10.945196522263577"><ele>533.0</ele><time>2026-04-18T09:06:44Z</time></trkpt><trkpt lat="43.43483580155037" lon="10.945300372175579"><ele>535.5</ele><time>2026-04-18T09:06:45Z</time></trkpt><trkpt lat="43.4348842542655" lon="10.945414172450942"><ele>538.0</ele><time>2026-04-18T09:06:46Z</time></trkpt><trkpt lat="43.43490640595594" lon="10.945529609639927"><ele>540.5</ele><time>2026-04-18T09:06:47Z</time></trkpt><trkpt lat="43.43495634537081" lon="10.945624122873767"><ele>543.0</ele><time>2026-04-18T09:06:48Z</time></trkpt><trkpt lat="43.43501783461306" lon="10.945702352794623"><ele>543.0</ele><time>2026-04-18T09:06:49Z</time></trkpt><trkpt lat="43.43510089724844" lon="10.945764441277792"><ele>543.0</ele><time>2026-04-18T09:06:50Z</time></trkpt><trkpt lat="43.43515533889053" lon="10.945861020872409"><ele>543.0</ele><time>2026-04-18T09:06:51Z</time></trkpt><trkpt lat="43.43521557974457" lon="10.945927090881572"><ele>543.0</ele><time>2026-04-18T09:06:52Z</time></trkpt><trkpt lat="43.43528750664132" lon="10.946001544638005"><ele>543.0</ele><time>2026-04-18T09:06:53Z</time></trkpt><trkpt lat="43.43535929969769" lon="10.946117533864756"><ele>544.6</ele><time>2026-04-18T09:06:54Z</time></trkpt><trkpt lat="43.43543950345675" lon="10.94617949275187"><ele>546.1999999999999</ele><time>2026-04-18T09:06:55Z</time></trkpt><trkpt lat="43.4355151926262" lon="10.94625320506099"><ele>547.8</ele><time>2026-04-18T09:06:56Z</time></trkpt><trkpt lat="43.435584995099305" lon="10.946346562159434"><ele>549.4</ele><time>2026-04-18T09:06:57Z</time></trkpt><trkpt lat="43.435681557196865" lon="10.946417425886477"><ele>551.0</ele><time>2026-04-18T09:06:58Z</time></trkpt><trkpt lat="43.43578212468909" lon="10.946479623446246"><ele>551.0</ele><time>2026-04-18T09:06:59Z</time></trkpt><trkpt lat="43.43588630253682" lon="10.946595270961646"><ele>551.0</ele><time>2026-04-18T09:07:00Z</time></trkpt><trkpt lat="43.43597693476378" lon="10.946706819131883"><ele>551.0</ele><time>2026-04-18T09:07:01Z</time></trkpt><trkpt lat="43.43606568821809" lon="10.946858663894334"><ele>551.0</ele><time>2026-04-18T09:07:02Z</time></trkpt><trkpt lat="43.43614722062801" lon="10.947006981214603"><ele>553.5</ele><time>2026-04-18T09:07:03Z</time></trkpt><trkpt lat="43.436207110057765" lon="10.947126950663336"><ele>556.0</ele><time>2026-04-18T09:07:04Z</time></trkpt><trkpt lat="43.43624901345345" lon="10.947225717582462"><ele>558.5</ele><time>2026-04-18T09:07:05Z</time></trkpt><trkpt lat="43.43627758952624" lon="10.947306137335431"><ele>561.0</ele><time>2026-04-18T09:07:06Z</time></trkpt><trkpt lat="43.43629554656655" lon="10.947417064787839"><ele>563.5</ele><time>2026-04-18T09:07:07Z</time></trkpt><trkpt lat="43.43626989520419" lon="10.947522190954329"><ele>566.0</ele><time>2026-04-18T09:07:08Z</time></trkpt><trkpt lat="43.43619054231073" lon="10.947617841623094"><ele>566.0</ele><time>2026-04-18T09:07:09Z</time></trkpt><trkpt lat="43.436170311802556" lon="10.947792117156038"><ele>566.0</ele><time>2026-04-18T09:07:10Z</time></trkpt><trkpt lat="43.43614825296163" lon="10.947935944948409"><ele>566.0</ele><time>2026-04-18T09:07:11Z</time></trkpt><trkpt lat="43.43614554389588" lon="10.948107874123153"><ele>566.0</ele><time>2026-04-18T09:07:12Z</time></trkpt><trkpt lat="43.436151852389365" lon="10.948290866730215"><ele>564.75</ele><time>2026-04-18T09:07:13Z</time></trkpt><trkpt lat="43.436150632422965" lon="10.948468947561645"><ele>563.5</ele><time>2026-04-18T09:07:14Z</time></trkpt><trkpt lat="43.43622444351075" lon="10.948636315731736"><ele>562.25</ele><time>2026-04-18T09:07:15Z</time></trkpt><trkpt lat="43.43628401928079" lon="10.948766139104503"><ele>561.0</ele><time>2026-04-18T09:07:16Z</time></trkpt><trkpt lat="43.436325952849295" lon="10.948894304357024"><ele>561.0</ele><time>2026-04-18T09:07:17Z</time></trkpt><trkpt lat="43.436393250546566" lon="10.949020232737215"><ele>561.0</ele><time>2026-04-18T09:07:18Z</time></trkpt><trkpt lat="43.436454693387596" lon="10.949153585133894"><ele>561.0</ele><time>2026-04-18T09:07:19Z</time></trkpt><trkpt lat="43.43654430317247" lon="10.949317582564992"><ele>561.0</ele><time>2026-04-18T09:07:20Z</time></trkpt><trkpt lat="43.43665205863722" lon="10.949430358355672"><ele>560.75</ele><time>2026-04-18T09:07:21Z</time></trkpt><trkpt lat="43.43674758215065" lon="10.94954150487805"><ele>560.5</ele><time>2026-04-18T09:07:22Z</time></trkpt><trkpt lat="43.43684965420014" lon="10.949646510686216"><ele>560.25</ele><time>2026-04-18T09:07:23Z</time></trkpt><trkpt lat="43.43696943684732" lon="10.949711042184015"><ele>560.0</ele><time>2026-04-18T09:07:24Z</time></trkpt><trkpt lat="43.43712335842144" lon="10.949737563523557"><ele>561.0</ele><time>2026-04-18T09:07:25Z</time></trkpt><trkpt lat="43.43727838393055" lon="10.949756286692978"><ele>562.0</ele><time>2026-04-18T09:07:26Z</time></trkpt><trkpt lat="43.43740249656003" lon="10.949808685335265"><ele>563.0</ele><time>2026-04-18T09:07:27Z</time></trkpt><trkpt lat="43.437545353615114" lon="10.949851874389951"><ele>564.0</ele><time>2026-04-18T09:07:28Z</time></trkpt><trkpt lat="43.43767991540887" lon="10.94989475150561"><ele>564.0</ele><time>2026-04-18T09:07:29Z</time></trkpt><trkpt lat="43.437809436384654" lon="10.949993304236628"><ele>564.0</ele><time>2026-04-18T09:07:30Z</time></trkpt><trkpt lat="43.43791308602309" lon="10.950089090040073"><ele>564.0</ele><time>2026-04-18T09:07:31Z</time></trkpt><trkpt lat="43.43802616744048" lon="10.95021542014766"><ele>564.0</ele><time>2026-04-18T09:07:32Z</time></trkpt><trkpt lat="43.43814665954226" lon="10.95034190289526"><ele>564.3333333333334</ele><time>2026-04-18T09:07:33Z</time></trkpt><trkpt lat="43.4382857204068" lon="10.950483965682563"><ele>564.6666666666667</ele><time>2026-04-18T09:07:34Z</time></trkpt><trkpt lat="43.43843475404147" lon="10.950658747082347"><ele>565.0</ele><time>2026-04-18T09:07:35Z</time></trkpt><trkpt lat="43.43858001635268" lon="10.950809560998135"><ele>564.0</ele><time>2026-04-18T09:07:36Z</time></trkpt><trkpt lat="43.43873010164807" lon="10.950959584501744"><ele>563.0</ele><time>2026-04-18T09:07:37Z</time></trkpt><trkpt lat="43.43887120715908" lon="10.951105828717605"><ele>562.0</ele><time>2026-04-18T09:07:38Z</time></trkpt><trkpt lat="43.43901394034153" lon="10.951242350551965"><ele>565.0</ele><time>2026-04-18T09:07:39Z</time></trkpt><trkpt lat="43.439146291056474" lon="10.951392354315608"><ele>568.0</ele><time>2026-04-18T09:07:40Z</time></trkpt><trkpt lat="43.43929244564357" lon="10.951532712384708"><ele>571.0</ele><time>2026-04-18T09:07:41Z</time></trkpt><trkpt lat="43.43942285661946" lon="10.951664741160114"><ele>570.0</ele><time>2026-04-18T09:07:42Z</time></trkpt><trkpt lat="43.43954830425819" lon="10.951806264167073"><ele>569.0</ele><time>2026-04-18T09:07:43Z</time></trkpt><trkpt lat="43.439685715581604" lon="10.951966876066175"><ele>568.0</ele><time>2026-04-18T09:07:44Z</time></trkpt><trkpt lat="43.439810636030174" lon="10.952099776101841"><ele>572.3333333333334</ele><time>2026-04-18T09:07:45Z</time></trkpt><trkpt lat="43.43993339343631" lon="10.952203913041528"><ele>576.6666666666666</ele><time>2026-04-18T09:07:46Z</time></trkpt><trkpt lat="43.44004803898909" lon="10.952352343755631"><ele>581.0</ele><time>2026-04-18T09:07:47Z</time></trkpt><trkpt lat="43.44017274397763" lon="10.952485014584154"><ele>580.75</ele><time>2026-04-18T09:07:47.999Z</time></trkpt><trkpt lat="43.44029064187467" lon="10.952613262175145"><ele>580.5</ele><time>2026-04-18T09:07:48.999Z</time></trkpt><trkpt lat="43.440407804767744" lon="10.952713557852418"><ele>580.25</ele><time>2026-04-18T09:07:49.999Z</time></trkpt><trkpt lat="43.44052507942047" lon="10.95286123985584"><ele>580.0</ele><time>2026-04-18T09:07:50.999Z</time></trkpt><trkpt lat="43.44064730408874" lon="10.952960561539314"><ele>583.0</ele><time>2026-04-18T09:07:51.999Z</time></trkpt><trkpt lat="43.440756843699006" lon="10.953076934823555"><ele>586.0</ele><time>2026-04-18T09:07:52.999Z</time></trkpt><trkpt lat="43.44088827576752" lon="10.95313760714178"><ele>589.0</ele><time>2026-04-18T09:07:53.999Z</time></trkpt><trkpt lat="43.440997001130015" lon="10.953197827622343"><ele>592.0</ele><time>2026-04-18T09:07:54.999Z</time></trkpt><trkpt lat="43.4410979993217" lon="10.953181041545133"><ele>592.0</ele><time>2026-04-18T09:07:55.999Z</time></trkpt><trkpt lat="43.441178389949414" lon="10.953115658148304"><ele>592.0</ele><time>2026-04-18T09:07:56.999Z</time></trkpt><trkpt lat="43.44124622398199" lon="10.953014255397488"><ele>592.0</ele><time>2026-04-18T09:07:57.999Z</time></trkpt><trkpt lat="43.44124649313686" lon="10.952850438187838"><ele>592.0</ele><time>2026-04-18T09:07:58.999Z</time></trkpt><trkpt lat="43.441256108292436" lon="10.952722698387962"><ele>592.0</ele><time>2026-04-18T09:07:59.999Z</time></trkpt><trkpt lat="43.4412445084722" lon="10.952559277593291"><ele>591.8000000000001</ele><time>2026-04-18T09:08:00.999Z</time></trkpt><trkpt lat="43.441290113354015" lon="10.952444285301993"><ele>591.6</ele><time>2026-04-18T09:08:01.999Z</time></trkpt><trkpt lat="43.44137504375939" lon="10.952398866427258"><ele>591.4000000000001</ele><time>2026-04-18T09:08:02.999Z</time></trkpt><trkpt lat="43.44148926203778" lon="10.952428202890745"><ele>591.2</ele><time>2026-04-18T09:08:03.999Z</time></trkpt><trkpt lat="43.441599415808625" lon="10.952464658559355"><ele>591.0</ele><time>2026-04-18T09:08:04.999Z</time></trkpt><trkpt lat="43.441678739380116" lon="10.952507201447569"><ele>593.6</ele><time>2026-04-18T09:08:05.999Z</time></trkpt><trkpt lat="43.44172036927644" lon="10.952637121930138"><ele>596.2</ele><time>2026-04-18T09:08:07.999Z</time></trkpt><trkpt lat="43.441673589701864" lon="10.952791757584029"><ele>598.8</ele><time>2026-04-18T09:08:09.999Z</time></trkpt><trkpt lat="43.44165733996677" lon="10.952903342884094"><ele>601.4</ele><time>2026-04-18T09:08:10.999Z</time></trkpt><trkpt lat="43.441658903967074" lon="10.95305105923512"><ele>604.0</ele><time>2026-04-18T09:08:11.999Z</time></trkpt><trkpt lat="43.441675872268725" lon="10.953214153869839"><ele>604.0</ele><time>2026-04-18T09:08:12.999Z</time></trkpt><trkpt lat="43.4416891582116" lon="10.953384994237425"><ele>604.0</ele><time>2026-04-18T09:08:13.999Z</time></trkpt><trkpt lat="43.441706152875376" lon="10.953546231525586"><ele>604.0</ele><time>2026-04-18T09:08:14.999Z</time></trkpt><trkpt lat="43.44171607261265" lon="10.953706240219951"><ele>604.0</ele><time>2026-04-18T09:08:15.999Z</time></trkpt><trkpt lat="43.44172598594259" lon="10.953880601550898"><ele>604.0</ele><time>2026-04-18T09:08:16.999Z</time></trkpt><trkpt lat="43.44173879985348" lon="10.954081828994152"><ele>604.0</ele><time>2026-04-18T09:08:17.999Z</time></trkpt><trkpt lat="43.4417395727482" lon="10.954295970299714"><ele>604.0</ele><time>2026-04-18T09:08:18.999Z</time></trkpt><trkpt lat="43.44171633490312" lon="10.95450023513827"><ele>603.6666666666667</ele><time>2026-04-18T09:08:19.999Z</time></trkpt><trkpt lat="43.44167930522529" lon="10.954705134418191"><ele>603.3333333333334</ele><time>2026-04-18T09:08:20.999Z</time></trkpt><trkpt lat="43.44164718830066" lon="10.954916908356715"><ele>603.0</ele><time>2026-04-18T09:08:21.999Z</time></trkpt><trkpt lat="43.441611836300154" lon="10.955119361069011"><ele>602.5</ele><time>2026-04-18T09:08:22.999Z</time></trkpt><trkpt lat="43.44157576543606" lon="10.95528746708273"><ele>602.0</ele><time>2026-04-18T09:08:23.999Z</time></trkpt><trkpt lat="43.44152220501323" lon="10.955425667884805"><ele>601.5</ele><time>2026-04-18T09:08:24.999Z</time></trkpt><trkpt lat="43.44148573300684" lon="10.955570464400855"><ele>601.0</ele><time>2026-04-18T09:08:25.999Z</time></trkpt><trkpt lat="43.44144193699996" lon="10.955717643152553"><ele>601.0</ele><time>2026-04-18T09:08:26.999Z</time></trkpt><trkpt lat="43.441391303397836" lon="10.955864537539423"><ele>601.0</ele><time>2026-04-18T09:08:27.999Z</time></trkpt><trkpt lat="43.44133807796533" lon="10.955997212374976"><ele>601.0</ele><time>2026-04-18T09:08:28.999Z</time></trkpt><trkpt lat="43.441271554377" lon="10.956141341963004"><ele>601.0</ele><time>2026-04-18T09:08:29.999Z</time></trkpt><trkpt lat="43.44119158553689" lon="10.956283729717867"><ele>601.25</ele><time>2026-04-18T09:08:30.999Z</time></trkpt><trkpt lat="43.441109423223644" lon="10.956417418398344"><ele>601.5</ele><time>2026-04-18T09:08:31.999Z</time></trkpt><trkpt lat="43.44103683679444" lon="10.956553710773424"><ele>601.75</ele><time>2026-04-18T09:08:32.999Z</time></trkpt><trkpt lat="43.44095371205079" lon="10.956683050903273"><ele>602.0</ele><time>2026-04-18T09:08:33.999Z</time></trkpt><trkpt lat="43.44087591156876" lon="10.956809791699037"><ele>602.0</ele><time>2026-04-18T09:08:34.999Z</time></trkpt><trkpt lat="43.44079696986902" lon="10.956927701727292"><ele>602.0</ele><time>2026-04-18T09:08:35.999Z</time></trkpt><trkpt lat="43.44071860446814" lon="10.957041914842943"><ele>602.0</ele><time>2026-04-18T09:08:36.999Z</time></trkpt><trkpt lat="43.44063950364822" lon="10.957157794362583"><ele>602.0</ele><time>2026-04-18T09:08:37.999Z</time></trkpt><trkpt lat="43.44057387943196" lon="10.957265013548678"><ele>602.0</ele><time>2026-04-18T09:08:38.999Z</time></trkpt><trkpt lat="43.440502460034345" lon="10.95738153454617"><ele>600.6666666666666</ele><time>2026-04-18T09:08:39.999Z</time></trkpt><trkpt lat="43.440397848018" lon="10.95751342326256"><ele>599.3333333333334</ele><time>2026-04-18T09:08:40.999Z</time></trkpt><trkpt lat="43.44031169826913" lon="10.957689441787542"><ele>598.0</ele><time>2026-04-18T09:08:41.999Z</time></trkpt><trkpt lat="43.44020038447444" lon="10.957841753996368"><ele>598.0</ele><time>2026-04-18T09:08:42.999Z</time></trkpt><trkpt lat="43.44009757320634" lon="10.95800933102945"><ele>598.0</ele><time>2026-04-18T09:08:43.999Z</time></trkpt><trkpt lat="43.43999188574077" lon="10.958201501664242"><ele>598.0</ele><time>2026-04-18T09:08:44.999Z</time></trkpt><trkpt lat="43.439872088112566" lon="10.958410975259781"><ele>596.0</ele><time>2026-04-18T09:08:45.999Z</time></trkpt><trkpt lat="43.43975212312966" lon="10.95862427144357"><ele>594.0</ele><time>2026-04-18T09:08:46.999Z</time></trkpt><trkpt lat="43.439630599660575" lon="10.958832843873177"><ele>592.0</ele><time>2026-04-18T09:08:48Z</time></trkpt><trkpt lat="43.43950873964264" lon="10.959035740157978"><ele>591.3333333333334</ele><time>2026-04-18T09:08:49Z</time></trkpt><trkpt lat="43.439383317848396" lon="10.95924046920851"><ele>590.6666666666666</ele><time>2026-04-18T09:08:50Z</time></trkpt><trkpt lat="43.43925315930419" lon="10.959451815102401"><ele>590.0</ele><time>2026-04-18T09:08:51Z</time></trkpt><trkpt lat="43.439128569526126" lon="10.959640329183422"><ele>590.0</ele><time>2026-04-18T09:08:52Z</time></trkpt><trkpt lat="43.43899000191223" lon="10.959812903070848"><ele>590.0</ele><time>2026-04-18T09:08:53Z</time></trkpt><trkpt lat="43.438824837053545" lon="10.959968582247466"><ele>590.0</ele><time>2026-04-18T09:08:54Z</time></trkpt><trkpt lat="43.438648818585634" lon="10.960117941604706"><ele>590.3333333333333</ele><time>2026-04-18T09:08:55Z</time></trkpt><trkpt lat="43.43846864945849" lon="10.960273079284846"><ele>590.6666666666666</ele><time>2026-04-18T09:08:56Z</time></trkpt><trkpt lat="43.43829104112893" lon="10.960423529908999"><ele>591.0</ele><time>2026-04-18T09:08:57Z</time></trkpt><trkpt lat="43.43811992860344" lon="10.96055673048711"><ele>590.3333333333334</ele><time>2026-04-18T09:08:58Z</time></trkpt><trkpt lat="43.437964176207565" lon="10.960682090609193"><ele>589.6666666666667</ele><time>2026-04-18T09:08:59Z</time></trkpt><trkpt lat="43.43779606386891" lon="10.960802045624288"><ele>589.0</ele><time>2026-04-18T09:09:00Z</time></trkpt><trkpt lat="43.43761924061884" lon="10.960902865009889"><ele>590.3333333333334</ele><time>2026-04-18T09:09:01Z</time></trkpt><trkpt lat="43.43746172546738" lon="10.960992161341288"><ele>591.6666666666666</ele><time>2026-04-18T09:09:02Z</time></trkpt><trkpt lat="43.43731506761691" lon="10.961089589585328"><ele>593.0</ele><time>2026-04-18T09:09:03Z</time></trkpt><trkpt lat="43.43716730315583" lon="10.961203125151327"><ele>590.6666666666666</ele><time>2026-04-18T09:09:04Z</time></trkpt><trkpt lat="43.437042036263186" lon="10.961374513761957"><ele>588.3333333333334</ele><time>2026-04-18T09:09:05Z</time></trkpt><trkpt lat="43.436966436311614" lon="10.961574639596341"><ele>586.0</ele><time>2026-04-18T09:09:06Z</time></trkpt><trkpt lat="43.43689005975521" lon="10.961772286664964"><ele>586.0</ele><time>2026-04-18T09:09:07Z</time></trkpt><trkpt lat="43.43683564123413" lon="10.962007146543279"><ele>586.0</ele><time>2026-04-18T09:09:08Z</time></trkpt><trkpt lat="43.43680146548833" lon="10.962231886649613"><ele>586.0</ele><time>2026-04-18T09:09:09Z</time></trkpt><trkpt lat="43.43678010759386" lon="10.962442567112808"><ele>586.25</ele><time>2026-04-18T09:09:10Z</time></trkpt><trkpt lat="43.43671993640847" lon="10.962620205547742"><ele>586.5</ele><time>2026-04-18T09:09:11Z</time></trkpt><trkpt lat="43.43664138720788" lon="10.96277279070987"><ele>586.75</ele><time>2026-04-18T09:09:12Z</time></trkpt><trkpt lat="43.436527556915784" lon="10.962908092682763"><ele>587.0</ele><time>2026-04-18T09:09:13Z</time></trkpt><trkpt lat="43.436385447970785" lon="10.963006293880483"><ele>586.6666666666666</ele><time>2026-04-18T09:09:14Z</time></trkpt><trkpt lat="43.4362530134604" lon="10.963138907577306"><ele>586.3333333333334</ele><time>2026-04-18T09:09:15Z</time></trkpt><trkpt lat="43.43612549397076" lon="10.963287662247065"><ele>586.0</ele><time>2026-04-18T09:09:16Z</time></trkpt><trkpt lat="43.43601216083131" lon="10.963458986634919"><ele>586.0</ele><time>2026-04-18T09:09:17Z</time></trkpt><trkpt lat="43.435902677982156" lon="10.963637768575632"><ele>586.0</ele><time>2026-04-18T09:09:18Z</time></trkpt><trkpt lat="43.43579759105358" lon="10.963834970381372"><ele>586.0</ele><time>2026-04-18T09:09:19Z</time></trkpt><trkpt lat="43.43572503072549" lon="10.964040378797828"><ele>582.0</ele><time>2026-04-18T09:09:20Z</time></trkpt><trkpt lat="43.43568854576127" lon="10.964253173475107"><ele>578.0</ele><time>2026-04-18T09:09:21Z</time></trkpt><trkpt lat="43.435604311049275" lon="10.964449512447603"><ele>574.0</ele><time>2026-04-18T09:09:22Z</time></trkpt><trkpt lat="43.43550049504719" lon="10.964648982905285"><ele>574.6666666666667</ele><time>2026-04-18T09:09:23Z</time></trkpt><trkpt lat="43.43538506793844" lon="10.96484832761434"><ele>575.3333333333334</ele><time>2026-04-18T09:09:24Z</time></trkpt><trkpt lat="43.43527782273286" lon="10.965059434377874"><ele>576.0</ele><time>2026-04-18T09:09:25Z</time></trkpt><trkpt lat="43.435179847673" lon="10.965283227335354"><ele>576.0</ele><time>2026-04-18T09:09:26Z</time></trkpt><trkpt lat="43.43507757550835" lon="10.965471874496302"><ele>576.0</ele><time>2026-04-18T09:09:27Z</time></trkpt><trkpt lat="43.43500938913391" lon="10.965682270583043"><ele>576.0</ele><time>2026-04-18T09:09:28Z</time></trkpt><trkpt lat="43.434902208187495" lon="10.965857940364174"><ele>573.3333333333334</ele><time>2026-04-18T09:09:29Z</time></trkpt><trkpt lat="43.43476729768882" lon="10.966014151598186"><ele>570.6666666666667</ele><time>2026-04-18T09:09:30Z</time></trkpt><trkpt lat="43.43463469993374" lon="10.966169918327338"><ele>568.0</ele><time>2026-04-18T09:09:31Z</time></trkpt><trkpt lat="43.43449771249765" lon="10.966315223930332"><ele>568.0</ele><time>2026-04-18T09:09:32Z</time></trkpt><trkpt lat="43.43437893605774" lon="10.966531661349629"><ele>568.0</ele><time>2026-04-18T09:09:33Z</time></trkpt><trkpt lat="43.4342872256318" lon="10.966747980944417"><ele>568.0</ele><time>2026-04-18T09:09:34Z</time></trkpt><trkpt lat="43.4341493587466" lon="10.966921705412684"><ele>566.3333333333334</ele><time>2026-04-18T09:09:35Z</time></trkpt><trkpt lat="43.43399560770843" lon="10.967072813461725"><ele>564.6666666666666</ele><time>2026-04-18T09:09:36Z</time></trkpt><trkpt lat="43.433815350648466" lon="10.967210426252457"><ele>563.0</ele><time>2026-04-18T09:09:37Z</time></trkpt><trkpt lat="43.433627817972024" lon="10.967351103033359"><ele>562.3333333333333</ele><time>2026-04-18T09:09:38Z</time></trkpt><trkpt lat="43.433444026965205" lon="10.967468924175664"><ele>561.6666666666666</ele><time>2026-04-18T09:09:39Z</time></trkpt><trkpt lat="43.43328072957518" lon="10.967585755467423"><ele>561.0</ele><time>2026-04-18T09:09:40Z</time></trkpt><trkpt lat="43.43312802956734" lon="10.967689511051415"><ele>560.6666666666666</ele><time>2026-04-18T09:09:41Z</time></trkpt><trkpt lat="43.43297602396339" lon="10.967787962103095"><ele>560.3333333333333</ele><time>2026-04-18T09:09:42Z</time></trkpt><trkpt lat="43.432820083838216" lon="10.967841810806657"><ele>560.0</ele><time>2026-04-18T09:09:43Z</time></trkpt><trkpt lat="43.432674436161285" lon="10.967890136189961"><ele>560.0</ele><time>2026-04-18T09:09:44Z</time></trkpt><trkpt lat="43.43253995659724" lon="10.967974040225146"><ele>560.0</ele><time>2026-04-18T09:09:45Z</time></trkpt><trkpt lat="43.432420431634796" lon="10.968105427221753"><ele>560.0</ele><time>2026-04-18T09:09:46Z</time></trkpt><trkpt lat="43.432329055289806" lon="10.96825995035184"><ele>560.0</ele><time>2026-04-18T09:09:47Z</time></trkpt><trkpt lat="43.432227357521484" lon="10.96839729290092"><ele>557.5</ele><time>2026-04-18T09:09:48Z</time></trkpt><trkpt lat="43.43212917886976" lon="10.968515429857868"><ele>555.0</ele><time>2026-04-18T09:09:49Z</time></trkpt><trkpt lat="43.431987900675345" lon="10.968532188951723"><ele>552.5</ele><time>2026-04-18T09:09:50Z</time></trkpt><trkpt lat="43.43182610944803" lon="10.968478408294153"><ele>550.0</ele><time>2026-04-18T09:09:51Z</time></trkpt><trkpt lat="43.43166241364628" lon="10.968424296506027"><ele>550.0</ele><time>2026-04-18T09:09:52Z</time></trkpt><trkpt lat="43.43150197860829" lon="10.968360029674251"><ele>550.0</ele><time>2026-04-18T09:09:53Z</time></trkpt><trkpt lat="43.431342926012626" lon="10.968281368813066"><ele>550.0</ele><time>2026-04-18T09:09:54Z</time></trkpt><trkpt lat="43.4311939042299" lon="10.968194116843211"><ele>549.5</ele><time>2026-04-18T09:09:55Z</time></trkpt><trkpt lat="43.43105438272569" lon="10.96813062174257"><ele>549.0</ele><time>2026-04-18T09:09:56Z</time></trkpt><trkpt lat="43.43090147314543" lon="10.968094978404132"><ele>548.5</ele><time>2026-04-18T09:09:57Z</time></trkpt><trkpt lat="43.43075713113019" lon="10.968086521793884"><ele>548.0</ele><time>2026-04-18T09:09:58Z</time></trkpt><trkpt lat="43.43060704516261" lon="10.968093229870947"><ele>544.6666666666666</ele><time>2026-04-18T09:09:58.999Z</time></trkpt><trkpt lat="43.43045773037394" lon="10.968115944151364"><ele>541.3333333333334</ele><time>2026-04-18T09:09:59.999Z</time></trkpt><trkpt lat="43.43031982215338" lon="10.96822746124082"><ele>538.0</ele><time>2026-04-18T09:10:00.999Z</time></trkpt><trkpt lat="43.43018236145347" lon="10.96837246142614"><ele>538.0</ele><time>2026-04-18T09:10:01.999Z</time></trkpt><trkpt lat="43.43005083732266" lon="10.968518116002928"><ele>538.0</ele><time>2026-04-18T09:10:02.999Z</time></trkpt><trkpt lat="43.42991960631976" lon="10.968663445958953"><ele>538.0</ele><time>2026-04-18T09:10:03.999Z</time></trkpt><trkpt lat="43.42978800745365" lon="10.968809183726453"><ele>538.0</ele><time>2026-04-18T09:10:04.999Z</time></trkpt><trkpt lat="43.42967776205174" lon="10.969018385360625"><ele>538.0</ele><time>2026-04-18T09:10:05.999Z</time></trkpt><trkpt lat="43.42956963429868" lon="10.969211881038273"><ele>538.0</ele><time>2026-04-18T09:10:06.999Z</time></trkpt><trkpt lat="43.42948465996661" lon="10.969402781676653"><ele>535.6666666666667</ele><time>2026-04-18T09:10:07.999Z</time></trkpt><trkpt lat="43.42940416079258" lon="10.969584846181776"><ele>533.3333333333334</ele><time>2026-04-18T09:10:08.999Z</time></trkpt><trkpt lat="43.42931745886683" lon="10.969763277229525"><ele>531.0</ele><time>2026-04-18T09:10:09.999Z</time></trkpt><trkpt lat="43.429225456255125" lon="10.969935306521837"><ele>531.25</ele><time>2026-04-18T09:10:10.999Z</time></trkpt><trkpt lat="43.42913013539159" lon="10.970078509355561"><ele>531.5</ele><time>2026-04-18T09:10:11.999Z</time></trkpt><trkpt lat="43.42900829675236" lon="10.970175189970286"><ele>531.75</ele><time>2026-04-18T09:10:12.999Z</time></trkpt><trkpt lat="43.42886627190267" lon="10.970234561562615"><ele>532.0</ele><time>2026-04-18T09:10:13.999Z</time></trkpt><trkpt lat="43.42871010026168" lon="10.970262504602296"><ele>530.75</ele><time>2026-04-18T09:10:14.999Z</time></trkpt><trkpt lat="43.42855153604274" lon="10.97029994086959"><ele>529.5</ele><time>2026-04-18T09:10:15.999Z</time></trkpt><trkpt lat="43.42841652143243" lon="10.970331173160126"><ele>528.25</ele><time>2026-04-18T09:10:16.999Z</time></trkpt><trkpt lat="43.42828480742407" lon="10.970374531807638"><ele>527.0</ele><time>2026-04-18T09:10:17.999Z</time></trkpt><trkpt lat="43.42817086948081" lon="10.97041628593285"><ele>527.0</ele><time>2026-04-18T09:10:18.999Z</time></trkpt><trkpt lat="43.428078403782365" lon="10.970530004161649"><ele>527.0</ele><time>2026-04-18T09:10:19.999Z</time></trkpt><trkpt lat="43.428066347116825" lon="10.970714067113505"><ele>527.0</ele><time>2026-04-18T09:10:20.999Z</time></trkpt><trkpt lat="43.42805608722693" lon="10.970885699243833"><ele>527.0</ele><time>2026-04-18T09:10:21.999Z</time></trkpt><trkpt lat="43.428068323419836" lon="10.971087543006801"><ele>526.25</ele><time>2026-04-18T09:10:22.999Z</time></trkpt><trkpt lat="43.42807621540391" lon="10.971290865525825"><ele>525.5</ele><time>2026-04-18T09:10:23.999Z</time></trkpt><trkpt lat="43.428076809093454" lon="10.971490604458111"><ele>524.75</ele><time>2026-04-18T09:10:24.999Z</time></trkpt><trkpt lat="43.42804798440153" lon="10.971679742303222"><ele>524.0</ele><time>2026-04-18T09:10:25.999Z</time></trkpt><trkpt lat="43.427977160187446" lon="10.971848050289475"><ele>520.3333333333333</ele><time>2026-04-18T09:10:26.999Z</time></trkpt><trkpt lat="43.427880198867065" lon="10.972029116179623"><ele>516.6666666666666</ele><time>2026-04-18T09:10:27.999Z</time></trkpt><trkpt lat="43.42779202649479" lon="10.972236497188812"><ele>513.0</ele><time>2026-04-18T09:10:28.999Z</time></trkpt><trkpt lat="43.42766286511263" lon="10.972415293597741"><ele>512.6666666666666</ele><time>2026-04-18T09:10:29.999Z</time></trkpt><trkpt lat="43.4275385933264" lon="10.972599047695287"><ele>512.3333333333333</ele><time>2026-04-18T09:10:30.999Z</time></trkpt><trkpt lat="43.427408481008484" lon="10.972784432533002"><ele>512.0</ele><time>2026-04-18T09:10:31.999Z</time></trkpt><trkpt lat="43.42727228297447" lon="10.972970675898054"><ele>511.66666666666663</ele><time>2026-04-18T09:10:32.999Z</time></trkpt><trkpt lat="43.427136253845966" lon="10.97314952274635"><ele>511.33333333333337</ele><time>2026-04-18T09:10:33.999Z</time></trkpt><trkpt lat="43.42701055930448" lon="10.973334666043765"><ele>511.0</ele><time>2026-04-18T09:10:34.999Z</time></trkpt><trkpt lat="43.42686543136317" lon="10.973479548913218"><ele>510.6666666666667</ele><time>2026-04-18T09:10:35.999Z</time></trkpt><trkpt lat="43.42671684727102" lon="10.973598913454621"><ele>510.33333333333337</ele><time>2026-04-18T09:10:36.999Z</time></trkpt><trkpt lat="43.42656356697567" lon="10.973677506228931"><ele>510.0</ele><time>2026-04-18T09:10:37.999Z</time></trkpt><trkpt lat="43.42640693686155" lon="10.97371615401758"><ele>509.5</ele><time>2026-04-18T09:10:38.999Z</time></trkpt><trkpt lat="43.426256833647585" lon="10.973740158998542"><ele>509.0</ele><time>2026-04-18T09:10:39.999Z</time></trkpt><trkpt lat="43.42610820336762" lon="10.973740160570658"><ele>508.5</ele><time>2026-04-18T09:10:40.999Z</time></trkpt><trkpt lat="43.425972404222854" lon="10.973686349008526"><ele>508.0</ele><time>2026-04-18T09:10:41.999Z</time></trkpt><trkpt lat="43.42586990116993" lon="10.973554893826599"><ele>508.0</ele><time>2026-04-18T09:10:42.999Z</time></trkpt><trkpt lat="43.42576416860734" lon="10.973423890931485"><ele>508.0</ele><time>2026-04-18T09:10:43.999Z</time></trkpt><trkpt lat="43.42565057975019" lon="10.97332550738254"><ele>508.0</ele><time>2026-04-18T09:10:44.999Z</time></trkpt><trkpt lat="43.42552668525274" lon="10.973268576038752"><ele>508.0</ele><time>2026-04-18T09:10:45.999Z</time></trkpt><trkpt lat="43.4253970852721" lon="10.973249592188646"><ele>505.5</ele><time>2026-04-18T09:10:46.999Z</time></trkpt><trkpt lat="43.42527230894902" lon="10.973276387640668"><ele>503.0</ele><time>2026-04-18T09:10:47.999Z</time></trkpt><trkpt lat="43.425164221961076" lon="10.97334733250521"><ele>500.5</ele><time>2026-04-18T09:10:48.999Z</time></trkpt><trkpt lat="43.425087851649465" lon="10.973470588193939"><ele>498.0</ele><time>2026-04-18T09:10:49.999Z</time></trkpt><trkpt lat="43.42506021092381" lon="10.97363777729469"><ele>498.0</ele><time>2026-04-18T09:10:50.999Z</time></trkpt><trkpt lat="43.42504986456932" lon="10.973808304045294"><ele>498.0</ele><time>2026-04-18T09:10:51.999Z</time></trkpt><trkpt lat="43.42501978132252" lon="10.973985430382568"><ele>498.0</ele><time>2026-04-18T09:10:52.999Z</time></trkpt><trkpt lat="43.42501425124498" lon="10.974179659382198"><ele>498.0</ele><time>2026-04-18T09:10:54Z</time></trkpt><trkpt lat="43.424955598180304" lon="10.974373869908804"><ele>496.66666666666663</ele><time>2026-04-18T09:10:55Z</time></trkpt><trkpt lat="43.42488589025403" lon="10.974571598460905"><ele>495.3333333333333</ele><time>2026-04-18T09:10:56Z</time></trkpt><trkpt lat="43.42481331644246" lon="10.97476877423067"><ele>494.0</ele><time>2026-04-18T09:10:57Z</time></trkpt><trkpt lat="43.42471638912045" lon="10.974939891837701"><ele>493.75</ele><time>2026-04-18T09:10:58Z</time></trkpt><trkpt lat="43.42462584665756" lon="10.97509286560727"><ele>493.5</ele><time>2026-04-18T09:10:59Z</time></trkpt><trkpt lat="43.424515185051845" lon="10.975225430102453"><ele>493.25</ele><time>2026-04-18T09:11:00Z</time></trkpt><trkpt lat="43.42437091321486" lon="10.975306017226215"><ele>493.0</ele><time>2026-04-18T09:11:01Z</time></trkpt><trkpt lat="43.42422277004134" lon="10.975357569277433"><ele>493.0</ele><time>2026-04-18T09:11:02Z</time></trkpt><trkpt lat="43.42407696144321" lon="10.975424967669031"><ele>493.0</ele><time>2026-04-18T09:11:03Z</time></trkpt><trkpt lat="43.4239289075076" lon="10.975494231111709"><ele>493.0</ele><time>2026-04-18T09:11:04Z</time></trkpt><trkpt lat="43.4237889494332" lon="10.975584810066636"><ele>493.33333333333337</ele><time>2026-04-18T09:11:05Z</time></trkpt><trkpt lat="43.42363785186231" lon="10.97565442216541"><ele>493.66666666666663</ele><time>2026-04-18T09:11:06Z</time></trkpt><trkpt lat="43.42350711937382" lon="10.975783941487347"><ele>494.0</ele><time>2026-04-18T09:11:07Z</time></trkpt><trkpt lat="43.423364545778774" lon="10.975898813663813"><ele>494.66666666666663</ele><time>2026-04-18T09:11:08Z</time></trkpt><trkpt lat="43.42322077038487" lon="10.976018865377704"><ele>495.33333333333337</ele><time>2026-04-18T09:11:09Z</time></trkpt><trkpt lat="43.423075126893735" lon="10.976121204133264"><ele>496.0</ele><time>2026-04-18T09:11:10Z</time></trkpt><trkpt lat="43.42292896099937" lon="10.976192344511945"><ele>496.0</ele><time>2026-04-18T09:11:11Z</time></trkpt><trkpt lat="43.422783819846885" lon="10.976250490460359"><ele>496.0</ele><time>2026-04-18T09:11:12Z</time></trkpt><trkpt lat="43.4226383488159" lon="10.97628230650216"><ele>496.0</ele><time>2026-04-18T09:11:13Z</time></trkpt><trkpt lat="43.42249692236903" lon="10.976262424077213"><ele>496.0</ele><time>2026-04-18T09:11:14Z</time></trkpt><trkpt lat="43.42236428436712" lon="10.97618204531288"><ele>496.0</ele><time>2026-04-18T09:11:15Z</time></trkpt><trkpt lat="43.422251641550716" lon="10.976065164584625"><ele>496.0</ele><time>2026-04-18T09:11:16Z</time></trkpt><trkpt lat="43.422162322884816" lon="10.975946153414553"><ele>496.0</ele><time>2026-04-18T09:11:17Z</time></trkpt><trkpt lat="43.4220767378643" lon="10.975858978996017"><ele>496.0</ele><time>2026-04-18T09:11:18Z</time></trkpt><trkpt lat="43.42197871507193" lon="10.975789041007758"><ele>498.75</ele><time>2026-04-18T09:11:19Z</time></trkpt><trkpt lat="43.42186129991065" lon="10.975769702456498"><ele>501.5</ele><time>2026-04-18T09:11:20Z</time></trkpt><trkpt lat="43.42173198066721" lon="10.975790206845996"><ele>504.25</ele><time>2026-04-18T09:11:21Z</time></trkpt><trkpt lat="43.42160089860872" lon="10.975823001344736"><ele>507.0</ele><time>2026-04-18T09:11:22Z</time></trkpt><trkpt lat="43.421463905914365" lon="10.97586090683218"><ele>507.0</ele><time>2026-04-18T09:11:23Z</time></trkpt><trkpt lat="43.421323165566996" lon="10.975883338255047"><ele>507.0</ele><time>2026-04-18T09:11:24Z</time></trkpt><trkpt lat="43.4211777328239" lon="10.975892692870035"><ele>507.0</ele><time>2026-04-18T09:11:25Z</time></trkpt><trkpt lat="43.42103363536611" lon="10.975863569220135"><ele>507.0</ele><time>2026-04-18T09:11:26Z</time></trkpt><trkpt lat="43.42088298436926" lon="10.975803889167182"><ele>508.66666666666663</ele><time>2026-04-18T09:11:27Z</time></trkpt><trkpt lat="43.420733628730964" lon="10.975753208866989"><ele>510.3333333333333</ele><time>2026-04-18T09:11:28Z</time></trkpt><trkpt lat="43.42057949008532" lon="10.975719481830119"><ele>512.0</ele><time>2026-04-18T09:11:29Z</time></trkpt><trkpt lat="43.420438191417446" lon="10.975712165562488"><ele>513.25</ele><time>2026-04-18T09:11:30Z</time></trkpt><trkpt lat="43.420298217141394" lon="10.975717459284837"><ele>514.5</ele><time>2026-04-18T09:11:31Z</time></trkpt><trkpt lat="43.42014305418742" lon="10.975744437695921"><ele>515.75</ele><time>2026-04-18T09:11:32Z</time></trkpt><trkpt lat="43.4200093947188" lon="10.975769922097067"><ele>517.0</ele><time>2026-04-18T09:11:33Z</time></trkpt><trkpt lat="43.41985992385234" lon="10.975798169663047"><ele>517.6666666666667</ele><time>2026-04-18T09:11:34Z</time></trkpt><trkpt lat="43.419705440031194" lon="10.975873491399028"><ele>518.3333333333334</ele><time>2026-04-18T09:11:35Z</time></trkpt><trkpt lat="43.419555411146135" lon="10.975946701322139"><ele>519.0</ele><time>2026-04-18T09:11:36Z</time></trkpt><trkpt lat="43.419398720995396" lon="10.976026658633543"><ele>519.0</ele><time>2026-04-18T09:11:37Z</time></trkpt><trkpt lat="43.419248031859425" lon="10.976100360736922"><ele>519.0</ele><time>2026-04-18T09:11:38Z</time></trkpt><trkpt lat="43.419111876297755" lon="10.976169539519336"><ele>519.0</ele><time>2026-04-18T09:11:39Z</time></trkpt><trkpt lat="43.418994160147335" lon="10.976253178732971"><ele>519.0</ele><time>2026-04-18T09:11:40Z</time></trkpt><trkpt lat="43.41889871372516" lon="10.976288281578272"><ele>519.0</ele><time>2026-04-18T09:11:41Z</time></trkpt><trkpt lat="43.41883258133508" lon="10.976296047194305"><ele>519.0</ele><time>2026-04-18T09:11:42Z</time></trkpt><trkpt lat="43.418752252550526" lon="10.976271617293563"><ele>519.0</ele><time>2026-04-18T09:11:44Z</time></trkpt><trkpt lat="43.41882464342884" lon="10.976290981830788"><ele>519.0</ele><time>2026-04-18T09:11:51Z</time></trkpt><trkpt lat="43.41892495449427" lon="10.97626448815447"><ele>519.0</ele><time>2026-04-18T09:11:53Z</time></trkpt><trkpt lat="43.41899720811734" lon="10.976231869841893"><ele>519.0</ele><time>2026-04-18T09:11:55Z</time></trkpt><trkpt lat="43.41884042491174" lon="10.976292472870675"><ele>519.0</ele><time>2026-04-18T09:11:57Z</time></trkpt><trkpt lat="43.41883747216634" lon="10.975998822935725"><ele>519.0</ele><time>2026-04-18T09:11:57.999Z</time></trkpt><trkpt lat="43.41872924954409" lon="10.97593523708295"><ele>519.0</ele><time>2026-04-18T09:11:58.999Z</time></trkpt><trkpt lat="43.41861648580684" lon="10.97588908921711"><ele>519.0</ele><time>2026-04-18T09:11:59.999Z</time></trkpt><trkpt lat="43.41849148735451" lon="10.975798371048722"><ele>517.0</ele><time>2026-04-18T09:12:00.999Z</time></trkpt><trkpt lat="43.41838206167523" lon="10.975716275912715"><ele>515.0</ele><time>2026-04-18T09:12:01.999Z</time></trkpt><trkpt lat="43.41829551970894" lon="10.9756543729611"><ele>513.0</ele><time>2026-04-18T09:12:02.999Z</time></trkpt><trkpt lat="43.41821570502383" lon="10.97557935723119"><ele>511.0</ele><time>2026-04-18T09:12:03.999Z</time></trkpt><trkpt lat="43.4181070261909" lon="10.97547027025631"><ele>511.25</ele><time>2026-04-18T09:12:04.999Z</time></trkpt><trkpt lat="43.41796075815555" lon="10.975404567762846"><ele>511.5</ele><time>2026-04-18T09:12:05.999Z</time></trkpt><trkpt lat="43.41783537398869" lon="10.975456542023847"><ele>511.75</ele><time>2026-04-18T09:12:06.999Z</time></trkpt><trkpt lat="43.41772692771741" lon="10.975436019766864"><ele>512.0</ele><time>2026-04-18T09:12:07.999Z</time></trkpt><trkpt lat="43.41762850339546" lon="10.975403400982666"><ele>511.99999999999994</ele><time>2026-04-18T09:12:08.999Z</time></trkpt><trkpt lat="43.41754275645049" lon="10.975399069374419"><ele>512.0</ele><time>2026-04-18T09:12:09.999Z</time></trkpt><trkpt lat="43.41746827227326" lon="10.975372796628283"><ele>512.0</ele><time>2026-04-18T09:12:10.999Z</time></trkpt><trkpt lat="43.41738432100601" lon="10.9753562876024"><ele>512.0</ele><time>2026-04-18T09:12:11.999Z</time></trkpt><trkpt lat="43.41729644757504" lon="10.97536887118106"><ele>511.99999999999994</ele><time>2026-04-18T09:12:13.999Z</time></trkpt><trkpt lat="43.41730928163568" lon="10.975273647209532"><ele>512.0</ele><time>2026-04-18T09:12:16.999Z</time></trkpt><trkpt lat="43.417372639429374" lon="10.97520252929902"><ele>512.0</ele><time>2026-04-18T09:12:17.999Z</time></trkpt><trkpt lat="43.417458905974996" lon="10.975083437895297"><ele>512.0</ele><time>2026-04-18T09:12:18.999Z</time></trkpt><trkpt lat="43.417524689234675" lon="10.975000026459961"><ele>512.0</ele><time>2026-04-18T09:12:19.999Z</time></trkpt><trkpt lat="43.41759983346421" lon="10.974924600178554"><ele>512.0</ele><time>2026-04-18T09:12:20.999Z</time></trkpt><trkpt lat="43.41766335563196" lon="10.974847509083881"><ele>512.0</ele><time>2026-04-18T09:12:21.999Z</time></trkpt><trkpt lat="43.41770606563527" lon="10.974744207801335"><ele>508.5</ele><time>2026-04-18T09:12:22.999Z</time></trkpt><trkpt lat="43.41773903721984" lon="10.974534429852927"><ele>505.0</ele><time>2026-04-18T09:12:24.999Z</time></trkpt><trkpt lat="43.41769575984732" lon="10.974423067857588"><ele>501.5</ele><time>2026-04-18T09:12:25.999Z</time></trkpt><trkpt lat="43.4176428185077" lon="10.974256549654843"><ele>498.0</ele><time>2026-04-18T09:12:26.999Z</time></trkpt><trkpt lat="43.41756598301756" lon="10.974139890227246"><ele>495.0</ele><time>2026-04-18T09:12:27.999Z</time></trkpt><trkpt lat="43.41748750695082" lon="10.974024317640225"><ele>492.0</ele><time>2026-04-18T09:12:28.999Z</time></trkpt><trkpt lat="43.41741395680648" lon="10.97388554549226"><ele>489.0</ele><time>2026-04-18T09:12:29.999Z</time></trkpt><trkpt lat="43.417359040946856" lon="10.973753457395786"><ele>486.0</ele><time>2026-04-18T09:12:30.999Z</time></trkpt><trkpt lat="43.417305522938854" lon="10.973624907035436"><ele>486.0</ele><time>2026-04-18T09:12:31.999Z</time></trkpt><trkpt lat="43.41717392517674" lon="10.973484561802964"><ele>486.0</ele><time>2026-04-18T09:12:32.999Z</time></trkpt><trkpt lat="43.41710630383026" lon="10.97336995237636"><ele>486.0</ele><time>2026-04-18T09:12:33.999Z</time></trkpt><trkpt lat="43.41712236151653" lon="10.973114599195188"><ele>483.5</ele><time>2026-04-18T09:12:34.999Z</time></trkpt><trkpt lat="43.41706375549077" lon="10.97294036996579"><ele>481.0</ele><time>2026-04-18T09:12:35.999Z</time></trkpt><trkpt lat="43.417014100070446" lon="10.972776761197615"><ele>478.5</ele><time>2026-04-18T09:12:36.999Z</time></trkpt><trkpt lat="43.41696508931933" lon="10.97259368368635"><ele>476.0</ele><time>2026-04-18T09:12:37.999Z</time></trkpt><trkpt lat="43.41691514804434" lon="10.972400340524743"><ele>475.75</ele><time>2026-04-18T09:12:38.999Z</time></trkpt><trkpt lat="43.41687214794894" lon="10.972233869412472"><ele>475.5</ele><time>2026-04-18T09:12:39.999Z</time></trkpt><trkpt lat="43.41682226830852" lon="10.972098285088778"><ele>475.25</ele><time>2026-04-18T09:12:40.999Z</time></trkpt><trkpt lat="43.41678638930941" lon="10.971946221529006"><ele>475.0</ele><time>2026-04-18T09:12:41.999Z</time></trkpt><trkpt lat="43.41673950429629" lon="10.97174324969899"><ele>475.75</ele><time>2026-04-18T09:12:42.999Z</time></trkpt><trkpt lat="43.41667470693704" lon="10.971571019246223"><ele>476.5</ele><time>2026-04-18T09:12:43.999Z</time></trkpt><trkpt lat="43.41659277537833" lon="10.971408374969727"><ele>477.25</ele><time>2026-04-18T09:12:44.999Z</time></trkpt><trkpt lat="43.416524787831094" lon="10.97124503812021"><ele>478.0</ele><time>2026-04-18T09:12:45.999Z</time></trkpt><trkpt lat="43.416461995112215" lon="10.971107797356094"><ele>478.0</ele><time>2026-04-18T09:12:46.999Z</time></trkpt><trkpt lat="43.4163890554045" lon="10.970952029312608"><ele>478.0</ele><time>2026-04-18T09:12:47.999Z</time></trkpt><trkpt lat="43.41632674378094" lon="10.970818077995059"><ele>478.0</ele><time>2026-04-18T09:12:48.999Z</time></trkpt><trkpt lat="43.416254672981665" lon="10.970686732660273"><ele>478.0</ele><time>2026-04-18T09:12:49.999Z</time></trkpt><trkpt lat="43.41614414600896" lon="10.970509248010645"><ele>478.5</ele><time>2026-04-18T09:12:50.999Z</time></trkpt><trkpt lat="43.41606022471367" lon="10.970354955680376"><ele>479.0</ele><time>2026-04-18T09:12:51.999Z</time></trkpt><trkpt lat="43.415979182576145" lon="10.970189149420111"><ele>479.5</ele><time>2026-04-18T09:12:52.999Z</time></trkpt><trkpt lat="43.41588183465196" lon="10.970032061377935"><ele>480.0</ele><time>2026-04-18T09:12:53.999Z</time></trkpt><trkpt lat="43.415799980635285" lon="10.969871148082678"><ele>480.0</ele><time>2026-04-18T09:12:54.999Z</time></trkpt><trkpt lat="43.415716068664175" lon="10.969701764867683"><ele>480.0</ele><time>2026-04-18T09:12:55.999Z</time></trkpt><trkpt lat="43.41562808000695" lon="10.969538612223362"><ele>480.0</ele><time>2026-04-18T09:12:56.999Z</time></trkpt><trkpt lat="43.4155544482674" lon="10.969368280154352"><ele>480.0</ele><time>2026-04-18T09:12:57.999Z</time></trkpt><trkpt lat="43.41551437740452" lon="10.969223257274942"><ele>478.33333333333337</ele><time>2026-04-18T09:12:59Z</time></trkpt><trkpt lat="43.41549980442504" lon="10.969043009744526"><ele>476.6666666666667</ele><time>2026-04-18T09:13:00Z</time></trkpt><trkpt lat="43.41550554145843" lon="10.968813708819654"><ele>475.0</ele><time>2026-04-18T09:13:01Z</time></trkpt><trkpt lat="43.415515678358865" lon="10.968592790055302"><ele>475.33333333333337</ele><time>2026-04-18T09:13:02Z</time></trkpt><trkpt lat="43.41552050121015" lon="10.968335339338397"><ele>475.66666666666663</ele><time>2026-04-18T09:13:03Z</time></trkpt><trkpt lat="43.41553489135521" lon="10.968121476605726"><ele>476.0</ele><time>2026-04-18T09:13:04Z</time></trkpt><trkpt lat="43.41555707017596" lon="10.967917116117594"><ele>476.0</ele><time>2026-04-18T09:13:05Z</time></trkpt><trkpt lat="43.41557940551277" lon="10.967716871098359"><ele>476.0</ele><time>2026-04-18T09:13:06Z</time></trkpt><trkpt lat="43.41560207634765" lon="10.967531218091993"><ele>476.0</ele><time>2026-04-18T09:13:07Z</time></trkpt><trkpt lat="43.41561909603514" lon="10.967349445463244"><ele>476.0</ele><time>2026-04-18T09:13:08Z</time></trkpt><trkpt lat="43.41564221819446" lon="10.967190302892242"><ele>478.0</ele><time>2026-04-18T09:13:09Z</time></trkpt><trkpt lat="43.415645083108444" lon="10.96703498083608"><ele>480.0</ele><time>2026-04-18T09:13:10Z</time></trkpt><trkpt lat="43.4156740668547" lon="10.966882151979974"><ele>482.0</ele><time>2026-04-18T09:13:11Z</time></trkpt><trkpt lat="43.41568287979213" lon="10.966713573670088"><ele>484.0</ele><time>2026-04-18T09:13:12Z</time></trkpt><trkpt lat="43.41572098359347" lon="10.966557531412022"><ele>485.75</ele><time>2026-04-18T09:13:13Z</time></trkpt><trkpt lat="43.41574176187091" lon="10.966385257882026"><ele>487.5</ele><time>2026-04-18T09:13:14Z</time></trkpt><trkpt lat="43.415722789433616" lon="10.966218725708448"><ele>489.25</ele><time>2026-04-18T09:13:15Z</time></trkpt><trkpt lat="43.41569334978931" lon="10.966055779316086"><ele>491.0</ele><time>2026-04-18T09:13:16Z</time></trkpt><trkpt lat="43.41566115864768" lon="10.96587760340273"><ele>491.6</ele><time>2026-04-18T09:13:17Z</time></trkpt><trkpt lat="43.41563291710031" lon="10.965721287823134"><ele>492.20000000000005</ele><time>2026-04-18T09:13:18Z</time></trkpt><trkpt lat="43.41561347399418" lon="10.965584042228581"><ele>492.79999999999995</ele><time>2026-04-18T09:13:19Z</time></trkpt><trkpt lat="43.415593093232744" lon="10.965445001477464"><ele>493.4</ele><time>2026-04-18T09:13:20Z</time></trkpt><trkpt lat="43.41561003563955" lon="10.96530288992484"><ele>494.0</ele><time>2026-04-18T09:13:21Z</time></trkpt><trkpt lat="43.415636499402396" lon="10.965195213024437"><ele>493.99999999999994</ele><time>2026-04-18T09:13:22Z</time></trkpt><trkpt lat="43.4156527468723" lon="10.965057102971738"><ele>494.0</ele><time>2026-04-18T09:13:23Z</time></trkpt><trkpt lat="43.4156704676634" lon="10.9649679472822"><ele>494.0</ele><time>2026-04-18T09:13:24Z</time></trkpt><trkpt lat="43.41570302738865" lon="10.964858175434314"><ele>494.0</ele><time>2026-04-18T09:13:26Z</time></trkpt><trkpt lat="43.41571654685286" lon="10.964763285891795"><ele>493.99999999999994</ele><time>2026-04-18T09:13:27Z</time></trkpt><trkpt lat="43.41571975265513" lon="10.964625195229967"><ele>494.0</ele><time>2026-04-18T09:13:29Z</time></trkpt><trkpt lat="43.41572339503152" lon="10.964483502496483"><ele>493.66666666666663</ele><time>2026-04-18T09:13:31Z</time></trkpt><trkpt lat="43.4156177680023" lon="10.964396481089395"><ele>493.3333333333333</ele><time>2026-04-18T09:13:32Z</time></trkpt><trkpt lat="43.41557660384208" lon="10.964326323638572"><ele>493.0</ele><time>2026-04-18T09:13:33Z</time></trkpt><trkpt lat="43.41552980351961" lon="10.964257069326484"><ele>492.66666666666663</ele><time>2026-04-18T09:13:34Z</time></trkpt><trkpt lat="43.41548787621304" lon="10.964165420149827"><ele>492.3333333333333</ele><time>2026-04-18T09:13:35Z</time></trkpt><trkpt lat="43.41543890006051" lon="10.964092197491944"><ele>492.0</ele><time>2026-04-18T09:13:36Z</time></trkpt><trkpt lat="43.415379191683776" lon="10.964022219914392"><ele>492.0</ele><time>2026-04-18T09:13:37Z</time></trkpt><trkpt lat="43.4153128646528" lon="10.963961444014034"><ele>492.0</ele><time>2026-04-18T09:13:38Z</time></trkpt><trkpt lat="43.41523991325859" lon="10.963908704903783"><ele>492.0</ele><time>2026-04-18T09:13:39Z</time></trkpt><trkpt lat="43.415164952361636" lon="10.963876488716853"><ele>492.0</ele><time>2026-04-18T09:13:40Z</time></trkpt><trkpt lat="43.41508867329744" lon="10.96383588191924"><ele>492.0</ele><time>2026-04-18T09:13:41Z</time></trkpt><trkpt lat="43.41501460045296" lon="10.963793296409904"><ele>492.0</ele><time>2026-04-18T09:13:42Z</time></trkpt><trkpt lat="43.414937894195155" lon="10.963707527421526"><ele>492.0</ele><time>2026-04-18T09:13:43Z</time></trkpt><trkpt lat="43.41485596707697" lon="10.963639314723023"><ele>492.00000000000006</ele><time>2026-04-18T09:13:44Z</time></trkpt><trkpt lat="43.41477021933759" lon="10.963564734738938"><ele>492.00000000000006</ele><time>2026-04-18T09:13:45Z</time></trkpt><trkpt lat="43.414679616649394" lon="10.963534612997288"><ele>492.0</ele><time>2026-04-18T09:13:46Z</time></trkpt><trkpt lat="43.41458722632154" lon="10.963514073494686"><ele>492.0</ele><time>2026-04-18T09:13:47Z</time></trkpt><trkpt lat="43.41450421339231" lon="10.963497615280316"><ele>490.0</ele><time>2026-04-18T09:13:48Z</time></trkpt><trkpt lat="43.41442093032175" lon="10.963489828548921"><ele>488.0</ele><time>2026-04-18T09:13:49Z</time></trkpt><trkpt lat="43.41433601968254" lon="10.963467568862288"><ele>486.0</ele><time>2026-04-18T09:13:50Z</time></trkpt><trkpt lat="43.414249534397335" lon="10.963446822274369"><ele>484.0</ele><time>2026-04-18T09:13:51Z</time></trkpt><trkpt lat="43.41419384730899" lon="10.963380207379469"><ele>482.0</ele><time>2026-04-18T09:13:52Z</time></trkpt><trkpt lat="43.414146069178514" lon="10.963318949050217"><ele>480.0</ele><time>2026-04-18T09:13:53Z</time></trkpt><trkpt lat="43.41406668692732" lon="10.96314016130562"><ele>480.0</ele><time>2026-04-18T09:13:55Z</time></trkpt><trkpt lat="43.414024182762496" lon="10.963040350731136"><ele>480.0</ele><time>2026-04-18T09:13:56Z</time></trkpt><trkpt lat="43.41399008406643" lon="10.962941471779718"><ele>480.0</ele><time>2026-04-18T09:13:57Z</time></trkpt><trkpt lat="43.41394782787752" lon="10.962857595889147"><ele>480.0</ele><time>2026-04-18T09:13:58Z</time></trkpt><trkpt lat="43.41386566417895" lon="10.96280843030462"><ele>480.0</ele><time>2026-04-18T09:13:59Z</time></trkpt><trkpt lat="43.41376040597567" lon="10.962883580633257"><ele>480.0</ele><time>2026-04-18T09:14:00Z</time></trkpt><trkpt lat="43.413708302214125" lon="10.96298116810748"><ele>478.0</ele><time>2026-04-18T09:14:00.999Z</time></trkpt><trkpt lat="43.41363090982428" lon="10.963027677868666"><ele>476.0</ele><time>2026-04-18T09:14:01.999Z</time></trkpt><trkpt lat="43.41353912310635" lon="10.963063111133351"><ele>474.0</ele><time>2026-04-18T09:14:02.999Z</time></trkpt><trkpt lat="43.41346185950602" lon="10.963098339912067"><ele>472.0</ele><time>2026-04-18T09:14:03.999Z</time></trkpt><trkpt lat="43.4133811917947" lon="10.963116990065435"><ele>470.0</ele><time>2026-04-18T09:14:04.999Z</time></trkpt><trkpt lat="43.41331779641655" lon="10.963121600645875"><ele>468.0</ele><time>2026-04-18T09:14:05.999Z</time></trkpt><trkpt lat="43.41323398762962" lon="10.963087882037861"><ele>468.0</ele><time>2026-04-18T09:14:06.999Z</time></trkpt><trkpt lat="43.413170128116626" lon="10.96302404955319"><ele>467.99999999999994</ele><time>2026-04-18T09:14:07.999Z</time></trkpt><trkpt lat="43.413076263130264" lon="10.962914229684584"><ele>467.99999999999994</ele><time>2026-04-18T09:14:08.999Z</time></trkpt><trkpt lat="43.41299739356951" lon="10.962820616848786"><ele>468.0</ele><time>2026-04-18T09:14:09.999Z</time></trkpt><trkpt lat="43.41294467417381" lon="10.962707928884951"><ele>468.0</ele><time>2026-04-18T09:14:10.999Z</time></trkpt><trkpt lat="43.412877592608595" lon="10.962623444555998"><ele>465.3333333333333</ele><time>2026-04-18T09:14:11.999Z</time></trkpt><trkpt lat="43.41280882105152" lon="10.962547670075846"><ele>462.66666666666663</ele><time>2026-04-18T09:14:12.999Z</time></trkpt><trkpt lat="43.412750054836195" lon="10.96248076143246"><ele>460.0</ele><time>2026-04-18T09:14:13.999Z</time></trkpt><trkpt lat="43.412708637531146" lon="10.962405040871015"><ele>457.3333333333333</ele><time>2026-04-18T09:14:14.999Z</time></trkpt><trkpt lat="43.412690400324536" lon="10.962311975643132"><ele>454.66666666666663</ele><time>2026-04-18T09:14:15.999Z</time></trkpt><trkpt lat="43.41267710074867" lon="10.96221197648624"><ele>452.0</ele><time>2026-04-18T09:14:16.999Z</time></trkpt><trkpt lat="43.412699176598885" lon="10.962072397925985"><ele>451.6</ele><time>2026-04-18T09:14:17.999Z</time></trkpt><trkpt lat="43.41273109651152" lon="10.96194283162698"><ele>451.20000000000005</ele><time>2026-04-18T09:14:18.999Z</time></trkpt><trkpt lat="43.41276400052942" lon="10.961817637756912"><ele>450.8</ele><time>2026-04-18T09:14:19.999Z</time></trkpt><trkpt lat="43.4128006400638" lon="10.961673117747699"><ele>450.4</ele><time>2026-04-18T09:14:20.999Z</time></trkpt><trkpt lat="43.4128255647916" lon="10.961534688159794"><ele>450.0</ele><time>2026-04-18T09:14:21.999Z</time></trkpt><trkpt lat="43.41284895207959" lon="10.961382418784668"><ele>449.0</ele><time>2026-04-18T09:14:22.999Z</time></trkpt><trkpt lat="43.41285323118579" lon="10.961248159259256"><ele>448.0</ele><time>2026-04-18T09:14:23.999Z</time></trkpt><trkpt lat="43.41283989306381" lon="10.96111100648179"><ele>447.0</ele><time>2026-04-18T09:14:24.999Z</time></trkpt><trkpt lat="43.412817397892155" lon="10.96097366168564"><ele>446.0</ele><time>2026-04-18T09:14:25.999Z</time></trkpt><trkpt lat="43.41279660336412" lon="10.960829747902942"><ele>445.0</ele><time>2026-04-18T09:14:26.999Z</time></trkpt><trkpt lat="43.41277710603031" lon="10.96069378113912"><ele>442.4</ele><time>2026-04-18T09:14:27.999Z</time></trkpt><trkpt lat="43.412759102450735" lon="10.960538134070156"><ele>439.8</ele><time>2026-04-18T09:14:28.999Z</time></trkpt><trkpt lat="43.4127489674726" lon="10.960394743162771"><ele>437.20000000000005</ele><time>2026-04-18T09:14:29.999Z</time></trkpt><trkpt lat="43.412758602310554" lon="10.96025857651347"><ele>434.6</ele><time>2026-04-18T09:14:30.999Z</time></trkpt><trkpt lat="43.41277852892505" lon="10.960120226740719"><ele>432.0</ele><time>2026-04-18T09:14:31.999Z</time></trkpt><trkpt lat="43.412821573877885" lon="10.960004125886986"><ele>430.0</ele><time>2026-04-18T09:14:32.999Z</time></trkpt><trkpt lat="43.41284346028417" lon="10.95985815335776"><ele>428.00000000000006</ele><time>2026-04-18T09:14:33.999Z</time></trkpt><trkpt lat="43.412878544013964" lon="10.959709018698627"><ele>426.0</ele><time>2026-04-18T09:14:34.999Z</time></trkpt><trkpt lat="43.412915126738156" lon="10.959570309206212"><ele>424.0</ele><time>2026-04-18T09:14:35.999Z</time></trkpt><trkpt lat="43.41295977109782" lon="10.959446907558995"><ele>422.0</ele><time>2026-04-18T09:14:36.999Z</time></trkpt><trkpt lat="43.41297294213839" lon="10.959308472839238"><ele>419.5</ele><time>2026-04-18T09:14:37.999Z</time></trkpt><trkpt lat="43.41298368122087" lon="10.959162099269667"><ele>417.0</ele><time>2026-04-18T09:14:38.999Z</time></trkpt><trkpt lat="43.41298376189965" lon="10.958998356337124"><ele>414.5</ele><time>2026-04-18T09:14:39.999Z</time></trkpt><trkpt lat="43.41295515432241" lon="10.958852551354298"><ele>412.0</ele><time>2026-04-18T09:14:40.999Z</time></trkpt><trkpt lat="43.41290841456444" lon="10.958699747787053"><ele>412.0</ele><time>2026-04-18T09:14:41.999Z</time></trkpt><trkpt lat="43.41286587448409" lon="10.95855215827816"><ele>412.0</ele><time>2026-04-18T09:14:42.999Z</time></trkpt><trkpt lat="43.41282138458043" lon="10.958378275389784"><ele>412.0</ele><time>2026-04-18T09:14:43.999Z</time></trkpt><trkpt lat="43.41277606020699" lon="10.958210738532479"><ele>412.0</ele><time>2026-04-18T09:14:44.999Z</time></trkpt><trkpt lat="43.412726914076714" lon="10.95804142532451"><ele>410.0</ele><time>2026-04-18T09:14:45.999Z</time></trkpt><trkpt lat="43.412679536940836" lon="10.957872138551195"><ele>408.0</ele><time>2026-04-18T09:14:46.999Z</time></trkpt><trkpt lat="43.41263143605812" lon="10.95768950034173"><ele>406.0</ele><time>2026-04-18T09:14:47.999Z</time></trkpt><trkpt lat="43.41258068989591" lon="10.957517143273584"><ele>404.0</ele><time>2026-04-18T09:14:48.999Z</time></trkpt><trkpt lat="43.41253605916743" lon="10.957355696351454"><ele>402.0</ele><time>2026-04-18T09:14:49.999Z</time></trkpt><trkpt lat="43.41248949787603" lon="10.957195030478426"><ele>400.0</ele><time>2026-04-18T09:14:50.999Z</time></trkpt><trkpt lat="43.412450897850775" lon="10.957045348593812"><ele>398.0</ele><time>2026-04-18T09:14:51.999Z</time></trkpt><trkpt lat="43.412415216175" lon="10.956911921017463"><ele>396.0</ele><time>2026-04-18T09:14:52.999Z</time></trkpt><trkpt lat="43.41238221418031" lon="10.956784421746054"><ele>394.0</ele><time>2026-04-18T09:14:53.999Z</time></trkpt><trkpt lat="43.41236097893216" lon="10.956670953027485"><ele>393.1666666666667</ele><time>2026-04-18T09:14:54.999Z</time></trkpt><trkpt lat="43.41236229142467" lon="10.95656613113951"><ele>392.33333333333337</ele><time>2026-04-18T09:14:55.999Z</time></trkpt><trkpt lat="43.41232315536494" lon="10.956472212718818"><ele>391.5</ele><time>2026-04-18T09:14:56.999Z</time></trkpt><trkpt lat="43.41229488673965" lon="10.956355557486198"><ele>390.66666666666663</ele><time>2026-04-18T09:14:57.999Z</time></trkpt><trkpt lat="43.41226475333625" lon="10.956231207236751"><ele>389.8333333333333</ele><time>2026-04-18T09:14:58.999Z</time></trkpt><trkpt lat="43.41223137685107" lon="10.95608962842156"><ele>389.0</ele><time>2026-04-18T09:14:59.999Z</time></trkpt><trkpt lat="43.412202616798865" lon="10.95595244868218"><ele>388.99999999999994</ele><time>2026-04-18T09:15:00.999Z</time></trkpt><trkpt lat="43.412183337125235" lon="10.955809600839522"><ele>389.0</ele><time>2026-04-18T09:15:01.999Z</time></trkpt><trkpt lat="43.41214507078274" lon="10.955717759711394"><ele>389.0</ele><time>2026-04-18T09:15:02.999Z</time></trkpt><trkpt lat="43.412135186957094" lon="10.955625916146706"><ele>389.0</ele><time>2026-04-18T09:15:03.999Z</time></trkpt><trkpt lat="43.41212847994976" lon="10.955467906757196"><ele>388.99999999999994</ele><time>2026-04-18T09:15:06Z</time></trkpt><trkpt lat="43.41212722227224" lon="10.95535740521305"><ele>389.0</ele><time>2026-04-18T09:15:07Z</time></trkpt><trkpt lat="43.412135999764715" lon="10.955243619485312"><ele>389.0</ele><time>2026-04-18T09:15:08Z</time></trkpt><trkpt lat="43.412138775982086" lon="10.955069966549894"><ele>389.0</ele><time>2026-04-18T09:15:09Z</time></trkpt><trkpt lat="43.412112239973204" lon="10.954940989694194"><ele>389.0</ele><time>2026-04-18T09:15:10Z</time></trkpt><trkpt lat="43.41207392812171" lon="10.954769854257554"><ele>389.0</ele><time>2026-04-18T09:15:11Z</time></trkpt><trkpt lat="43.41200237260723" lon="10.954608910504659"><ele>391.25</ele><time>2026-04-18T09:15:12Z</time></trkpt><trkpt lat="43.411965515663766" lon="10.954498867818273"><ele>393.5</ele><time>2026-04-18T09:15:13Z</time></trkpt><trkpt lat="43.411938301614754" lon="10.954351578310918"><ele>395.75</ele><time>2026-04-18T09:15:14Z</time></trkpt><trkpt lat="43.41190039666152" lon="10.95416749764502"><ele>398.0</ele><time>2026-04-18T09:15:15Z</time></trkpt><trkpt lat="43.4118881915863" lon="10.9539684372764"><ele>398.66666666666663</ele><time>2026-04-18T09:15:16Z</time></trkpt><trkpt lat="43.41187699032662" lon="10.953765936891978"><ele>399.33333333333337</ele><time>2026-04-18T09:15:17Z</time></trkpt><trkpt lat="43.411866438626355" lon="10.953547676737982"><ele>400.0</ele><time>2026-04-18T09:15:18Z</time></trkpt><trkpt lat="43.411847469321486" lon="10.953305347576094"><ele>401.5</ele><time>2026-04-18T09:15:19Z</time></trkpt><trkpt lat="43.41183117369754" lon="10.953075267231824"><ele>403.0</ele><time>2026-04-18T09:15:20Z</time></trkpt><trkpt lat="43.41182414900435" lon="10.9528881422747"><ele>404.5</ele><time>2026-04-18T09:15:21Z</time></trkpt><trkpt lat="43.41181335098392" lon="10.952708829350275"><ele>406.0</ele><time>2026-04-18T09:15:22Z</time></trkpt><trkpt lat="43.4118041590677" lon="10.952548727306059"><ele>407.00000000000006</ele><time>2026-04-18T09:15:23Z</time></trkpt><trkpt lat="43.41179701439429" lon="10.952410916259659"><ele>408.0</ele><time>2026-04-18T09:15:24Z</time></trkpt><trkpt lat="43.41179022791012" lon="10.952311671178531"><ele>409.0</ele><time>2026-04-18T09:15:25Z</time></trkpt><trkpt lat="43.411784201690054" lon="10.952209377753322"><ele>410.0</ele><time>2026-04-18T09:15:26Z</time></trkpt><trkpt lat="43.411775340520926" lon="10.952095846711973"><ele>411.00000000000006</ele><time>2026-04-18T09:15:27Z</time></trkpt><trkpt lat="43.41176868097291" lon="10.95198950753669"><ele>412.0</ele><time>2026-04-18T09:15:28Z</time></trkpt><trkpt lat="43.41176536022243" lon="10.951879467311578"><ele>412.0</ele><time>2026-04-18T09:15:29Z</time></trkpt><trkpt lat="43.41175654911358" lon="10.951764382695949"><ele>412.0</ele><time>2026-04-18T09:15:30Z</time></trkpt><trkpt lat="43.4117415017741" lon="10.951644064085965"><ele>412.0</ele><time>2026-04-18T09:15:31Z</time></trkpt><trkpt lat="43.41173049200585" lon="10.95151344957066"><ele>412.0</ele><time>2026-04-18T09:15:32Z</time></trkpt><trkpt lat="43.41172904094713" lon="10.951372016889282"><ele>412.0</ele><time>2026-04-18T09:15:33Z</time></trkpt><trkpt lat="43.41172086422206" lon="10.951225669482062"><ele>412.6666666666667</ele><time>2026-04-18T09:15:34Z</time></trkpt><trkpt lat="43.41171114838643" lon="10.951091407762174"><ele>413.33333333333337</ele><time>2026-04-18T09:15:35Z</time></trkpt><trkpt lat="43.411701083925905" lon="10.95097843448855"><ele>414.0</ele><time>2026-04-18T09:15:36Z</time></trkpt><trkpt lat="43.411692943168035" lon="10.950862309642561"><ele>414.66666666666663</ele><time>2026-04-18T09:15:37Z</time></trkpt><trkpt lat="43.41168426306061" lon="10.950743575726031"><ele>415.3333333333333</ele><time>2026-04-18T09:15:38Z</time></trkpt><trkpt lat="43.411675061399464" lon="10.950623643851248"><ele>416.0</ele><time>2026-04-18T09:15:39Z</time></trkpt><trkpt lat="43.41166515088766" lon="10.950498141479423"><ele>416.8</ele><time>2026-04-18T09:15:40Z</time></trkpt><trkpt lat="43.41164774383654" lon="10.950376351172745"><ele>417.6</ele><time>2026-04-18T09:15:41Z</time></trkpt><trkpt lat="43.4116294212102" lon="10.95025520286359"><ele>418.4</ele><time>2026-04-18T09:15:42Z</time></trkpt><trkpt lat="43.41160887868008" lon="10.950125089442235"><ele>419.2</ele><time>2026-04-18T09:15:43Z</time></trkpt><trkpt lat="43.41158270964579" lon="10.949990444999193"><ele>420.0</ele><time>2026-04-18T09:15:44Z</time></trkpt><trkpt lat="43.41155703095556" lon="10.949853511597917"><ele>420.4</ele><time>2026-04-18T09:15:45Z</time></trkpt><trkpt lat="43.41153102322157" lon="10.949720352200561"><ele>420.8</ele><time>2026-04-18T09:15:46Z</time></trkpt><trkpt lat="43.41149250795052" lon="10.949587121160311"><ele>421.20000000000005</ele><time>2026-04-18T09:15:47Z</time></trkpt><trkpt lat="43.41144151256037" lon="10.949462885333615"><ele>421.6</ele><time>2026-04-18T09:15:48Z</time></trkpt><trkpt lat="43.4113869140166" lon="10.949339309582394"><ele>422.0</ele><time>2026-04-18T09:15:49Z</time></trkpt><trkpt lat="43.41133096319469" lon="10.94924566941582"><ele>421.6</ele><time>2026-04-18T09:15:50Z</time></trkpt><trkpt lat="43.4112715773477" lon="10.949144454865387"><ele>421.20000000000005</ele><time>2026-04-18T09:15:51Z</time></trkpt><trkpt lat="43.41122413890797" lon="10.949061778850174"><ele>420.8</ele><time>2026-04-18T09:15:52Z</time></trkpt><trkpt lat="43.411160757077376" lon="10.948969029869707"><ele>420.4</ele><time>2026-04-18T09:15:53Z</time></trkpt><trkpt lat="43.41108833228426" lon="10.948874091835986"><ele>420.0</ele><time>2026-04-18T09:15:54Z</time></trkpt><trkpt lat="43.411011317257355" lon="10.948779664372967"><ele>420.0</ele><time>2026-04-18T09:15:55Z</time></trkpt><trkpt lat="43.41097044247388" lon="10.94860932855398"><ele>420.0</ele><time>2026-04-18T09:15:56Z</time></trkpt><trkpt lat="43.410920717617934" lon="10.948424940402688"><ele>420.0</ele><time>2026-04-18T09:15:57Z</time></trkpt><trkpt lat="43.4109010088138" lon="10.948234190624856"><ele>420.0</ele><time>2026-04-18T09:15:58Z</time></trkpt><trkpt lat="43.41090541690624" lon="10.948072114731923"><ele>419.5</ele><time>2026-04-18T09:15:59Z</time></trkpt><trkpt lat="43.410900341799525" lon="10.94789675356917"><ele>419.0</ele><time>2026-04-18T09:16:00Z</time></trkpt><trkpt lat="43.41091022538376" lon="10.947724015619144"><ele>418.5</ele><time>2026-04-18T09:16:01Z</time></trkpt><trkpt lat="43.410933554334775" lon="10.9475416017337"><ele>418.0</ele><time>2026-04-18T09:16:02Z</time></trkpt><trkpt lat="43.41096689354866" lon="10.947355923537243"><ele>419.0</ele><time>2026-04-18T09:16:02.999Z</time></trkpt><trkpt lat="43.41100131403915" lon="10.947188950560854"><ele>420.0</ele><time>2026-04-18T09:16:03.999Z</time></trkpt><trkpt lat="43.411021350782455" lon="10.947018312575866"><ele>421.0</ele><time>2026-04-18T09:16:04.999Z</time></trkpt><trkpt lat="43.411035723452635" lon="10.946837673041557"><ele>422.0</ele><time>2026-04-18T09:16:05.999Z</time></trkpt><trkpt lat="43.41104469787159" lon="10.946679274781864"><ele>423.0</ele><time>2026-04-18T09:16:06.999Z</time></trkpt><trkpt lat="43.41105031727843" lon="10.946492781281218"><ele>424.0</ele><time>2026-04-18T09:16:07.999Z</time></trkpt><trkpt lat="43.41106373419543" lon="10.946327671820898"><ele>425.0</ele><time>2026-04-18T09:16:08.999Z</time></trkpt><trkpt lat="43.41105419973981" lon="10.94616790619599"><ele>426.0</ele><time>2026-04-18T09:16:09.999Z</time></trkpt><trkpt lat="43.411052337949094" lon="10.946018078481236"><ele>426.0</ele><time>2026-04-18T09:16:10.999Z</time></trkpt><trkpt lat="43.41104609293104" lon="10.945882413929866"><ele>426.0</ele><time>2026-04-18T09:16:11.999Z</time></trkpt><trkpt lat="43.41103671071649" lon="10.945749141241636"><ele>426.0</ele><time>2026-04-18T09:16:12.999Z</time></trkpt><trkpt lat="43.41102460692778" lon="10.945613249852295"><ele>426.0</ele><time>2026-04-18T09:16:13.999Z</time></trkpt><trkpt lat="43.41101606446503" lon="10.945482639248238"><ele>426.0</ele><time>2026-04-18T09:16:14.999Z</time></trkpt><trkpt lat="43.410998180486175" lon="10.945282363574655"><ele>426.0</ele><time>2026-04-18T09:16:15.999Z</time></trkpt><trkpt lat="43.41098699424376" lon="10.945135844106254"><ele>426.0</ele><time>2026-04-18T09:16:16.999Z</time></trkpt><trkpt lat="43.410972662984406" lon="10.944996943717685"><ele>426.0</ele><time>2026-04-18T09:16:17.999Z</time></trkpt><trkpt lat="43.41095580352628" lon="10.944862485669733"><ele>426.0</ele><time>2026-04-18T09:16:18.999Z</time></trkpt><trkpt lat="43.410943122918894" lon="10.944751913530038"><ele>426.0</ele><time>2026-04-18T09:16:19.999Z</time></trkpt><trkpt lat="43.41092568085946" lon="10.944626437829097"><ele>426.0</ele><time>2026-04-18T09:16:20.999Z</time></trkpt><trkpt lat="43.41091191335919" lon="10.944491925237257"><ele>426.0</ele><time>2026-04-18T09:16:21.999Z</time></trkpt><trkpt lat="43.41090897951115" lon="10.944362806613585"><ele>426.0</ele><time>2026-04-18T09:16:22.999Z</time></trkpt><trkpt lat="43.410907660899056" lon="10.944239001954166"><ele>426.0</ele><time>2026-04-18T09:16:23.999Z</time></trkpt><trkpt lat="43.41090448783293" lon="10.944112982087209"><ele>426.0</ele><time>2026-04-18T09:16:24.999Z</time></trkpt><trkpt lat="43.41089275818124" lon="10.943998650204497"><ele>425.5</ele><time>2026-04-18T09:16:25.999Z</time></trkpt><trkpt lat="43.41086810253784" lon="10.943902577983792"><ele>425.0</ele><time>2026-04-18T09:16:26.999Z</time></trkpt><trkpt lat="43.41085919268012" lon="10.943811997956725"><ele>424.5</ele><time>2026-04-18T09:16:27.999Z</time></trkpt><trkpt lat="43.41085078361583" lon="10.943725276991099"><ele>424.0</ele><time>2026-04-18T09:16:28.999Z</time></trkpt><trkpt lat="43.41084059795107" lon="10.943619643345547"><ele>423.5</ele><time>2026-04-18T09:16:29.999Z</time></trkpt><trkpt lat="43.410825611732996" lon="10.943464224081017"><ele>423.0</ele><time>2026-04-18T09:16:30.999Z</time></trkpt><trkpt lat="43.41081338689936" lon="10.943337442699073"><ele>423.0</ele><time>2026-04-18T09:16:31.999Z</time></trkpt><trkpt lat="43.41080050192663" lon="10.943206059003094"><ele>423.0</ele><time>2026-04-18T09:16:32.999Z</time></trkpt><trkpt lat="43.410787575170986" lon="10.943077178445302"><ele>423.0</ele><time>2026-04-18T09:16:33.999Z</time></trkpt><trkpt lat="43.41077124735986" lon="10.942928049801335"><ele>423.0</ele><time>2026-04-18T09:16:34.999Z</time></trkpt><trkpt lat="43.41075175774852" lon="10.94276218431048"><ele>423.0</ele><time>2026-04-18T09:16:35.999Z</time></trkpt><trkpt lat="43.41073879533596" lon="10.942624425575094"><ele>421.75</ele><time>2026-04-18T09:16:36.999Z</time></trkpt><trkpt lat="43.41070031781712" lon="10.942472051451478"><ele>420.5</ele><time>2026-04-18T09:16:37.999Z</time></trkpt><trkpt lat="43.41066417928331" lon="10.942312414591994"><ele>419.25</ele><time>2026-04-18T09:16:38.999Z</time></trkpt><trkpt lat="43.410628682498036" lon="10.942156169143068"><ele>418.0</ele><time>2026-04-18T09:16:39.999Z</time></trkpt><trkpt lat="43.41058891744661" lon="10.942005122574692"><ele>418.0</ele><time>2026-04-18T09:16:40.999Z</time></trkpt><trkpt lat="43.410541328193425" lon="10.941838316010063"><ele>418.0</ele><time>2026-04-18T09:16:41.999Z</time></trkpt><trkpt lat="43.41049530478898" lon="10.94168689946685"><ele>418.0</ele><time>2026-04-18T09:16:42.999Z</time></trkpt><trkpt lat="43.41044296526071" lon="10.941519842465727"><ele>418.0</ele><time>2026-04-18T09:16:43.999Z</time></trkpt><trkpt lat="43.4103848014262" lon="10.941383989908108"><ele>415.83333333333337</ele><time>2026-04-18T09:16:44.999Z</time></trkpt><trkpt lat="43.410355734438234" lon="10.941239860753768"><ele>413.6666666666667</ele><time>2026-04-18T09:16:45.999Z</time></trkpt><trkpt lat="43.410323922595516" lon="10.941108188861069"><ele>411.5</ele><time>2026-04-18T09:16:46.999Z</time></trkpt><trkpt lat="43.410298921401754" lon="10.940988136993"><ele>409.33333333333337</ele><time>2026-04-18T09:16:47.999Z</time></trkpt><trkpt lat="43.4102847207176" lon="10.940902007642386"><ele>407.1666666666667</ele><time>2026-04-18T09:16:48.999Z</time></trkpt><trkpt lat="43.4102691841562" lon="10.940807526217071"><ele>405.0</ele><time>2026-04-18T09:16:49.999Z</time></trkpt><trkpt lat="43.41033047997663" lon="10.940733931531637"><ele>404.6</ele><time>2026-04-18T09:16:50.999Z</time></trkpt><trkpt lat="43.41043001629125" lon="10.94069489155449"><ele>404.2</ele><time>2026-04-18T09:16:51.999Z</time></trkpt><trkpt lat="43.410518789077145" lon="10.940637347877198"><ele>403.79999999999995</ele><time>2026-04-18T09:16:52.999Z</time></trkpt><trkpt lat="43.41059716890719" lon="10.940619655574434"><ele>403.4</ele><time>2026-04-18T09:16:53.999Z</time></trkpt><trkpt lat="43.41068699726324" lon="10.940509438259097"><ele>403.0</ele><time>2026-04-18T09:16:55.999Z</time></trkpt><trkpt lat="43.410709693914164" lon="10.9403797107338"><ele>403.0</ele><time>2026-04-18T09:16:56.999Z</time></trkpt><trkpt lat="43.41069506105313" lon="10.940201274649766"><ele>403.0</ele><time>2026-04-18T09:16:57.999Z</time></trkpt><trkpt lat="43.41066767236701" lon="10.940044952456558"><ele>403.0</ele><time>2026-04-18T09:16:58.999Z</time></trkpt><trkpt lat="43.41065397484933" lon="10.93987573936795"><ele>403.0</ele><time>2026-04-18T09:16:59.999Z</time></trkpt><trkpt lat="43.41064233669538" lon="10.939696219961267"><ele>401.79999999999995</ele><time>2026-04-18T09:17:00.999Z</time></trkpt><trkpt lat="43.410634010620655" lon="10.939526630558394"><ele>400.6</ele><time>2026-04-18T09:17:01.999Z</time></trkpt><trkpt lat="43.41063188487291" lon="10.939372229729411"><ele>399.4</ele><time>2026-04-18T09:17:02.999Z</time></trkpt><trkpt lat="43.41064094775143" lon="10.93922456294083"><ele>398.20000000000005</ele><time>2026-04-18T09:17:03.999Z</time></trkpt><trkpt lat="43.410654977936865" lon="10.939085044039912"><ele>397.0</ele><time>2026-04-18T09:17:04.999Z</time></trkpt><trkpt lat="43.41065872471144" lon="10.938959070243282"><ele>395.75</ele><time>2026-04-18T09:17:05.999Z</time></trkpt><trkpt lat="43.41064806036324" lon="10.938819683962633"><ele>394.5</ele><time>2026-04-18T09:17:06.999Z</time></trkpt><trkpt lat="43.41060861918832" lon="10.938661025412706"><ele>393.25</ele><time>2026-04-18T09:17:07.999Z</time></trkpt><trkpt lat="43.41054904139261" lon="10.938497455865374"><ele>392.0</ele><time>2026-04-18T09:17:08.999Z</time></trkpt><trkpt lat="43.41050351878496" lon="10.938346727947085"><ele>391.0</ele><time>2026-04-18T09:17:09.999Z</time></trkpt><trkpt lat="43.41045519237141" lon="10.938223514737983"><ele>390.0</ele><time>2026-04-18T09:17:11Z</time></trkpt><trkpt lat="43.41037959502294" lon="10.938129259036224"><ele>389.0</ele><time>2026-04-18T09:17:12Z</time></trkpt><trkpt lat="43.41029151181268" lon="10.938085937456101"><ele>388.0</ele><time>2026-04-18T09:17:13Z</time></trkpt><trkpt lat="43.41020125517713" lon="10.938021710148913"><ele>387.0</ele><time>2026-04-18T09:17:14Z</time></trkpt><trkpt lat="43.41011382797165" lon="10.93798821473694"><ele>387.0</ele><time>2026-04-18T09:17:15Z</time></trkpt><trkpt lat="43.41003080815179" lon="10.937958129806258"><ele>387.0</ele><time>2026-04-18T09:17:16Z</time></trkpt><trkpt lat="43.40993702453648" lon="10.937927743792837"><ele>387.0</ele><time>2026-04-18T09:17:17Z</time></trkpt><trkpt lat="43.40987582489227" lon="10.937876876339965"><ele>387.0</ele><time>2026-04-18T09:17:18Z</time></trkpt><trkpt lat="43.4098298468021" lon="10.937815623563809"><ele>387.0</ele><time>2026-04-18T09:17:19Z</time></trkpt><trkpt lat="43.40980450619824" lon="10.937693211187634"><ele>387.0</ele><time>2026-04-18T09:17:20Z</time></trkpt><trkpt lat="43.40981454742896" lon="10.937536762983589"><ele>386.0</ele><time>2026-04-18T09:17:21Z</time></trkpt><trkpt lat="43.40981250401573" lon="10.937369202384833"><ele>385.0</ele><time>2026-04-18T09:17:22Z</time></trkpt><trkpt lat="43.40980614538023" lon="10.937193116257436"><ele>384.0</ele><time>2026-04-18T09:17:23Z</time></trkpt><trkpt lat="43.40980719018275" lon="10.93704230020429"><ele>383.0</ele><time>2026-04-18T09:17:24Z</time></trkpt><trkpt lat="43.409816239065485" lon="10.936894583416935"><ele>383.0</ele><time>2026-04-18T09:17:25Z</time></trkpt><trkpt lat="43.40983458018859" lon="10.936758174299964"><ele>383.0</ele><time>2026-04-18T09:17:26Z</time></trkpt><trkpt lat="43.40984528435337" lon="10.936635341667927"><ele>383.0</ele><time>2026-04-18T09:17:27Z</time></trkpt><trkpt lat="43.409838408086806" lon="10.93651246186458"><ele>383.0</ele><time>2026-04-18T09:17:28Z</time></trkpt><trkpt lat="43.40980429549116" lon="10.9364073702224"><ele>383.0</ele><time>2026-04-18T09:17:29Z</time></trkpt><trkpt lat="43.40973671949635" lon="10.936285926821018"><ele>381.0</ele><time>2026-04-18T09:17:30Z</time></trkpt><trkpt lat="43.40964718637527" lon="10.936175115518749"><ele>379.0</ele><time>2026-04-18T09:17:31Z</time></trkpt><trkpt lat="43.40953005244538" lon="10.936086165548913"><ele>377.0</ele><time>2026-04-18T09:17:32Z</time></trkpt><trkpt lat="43.40942361693067" lon="10.93599446912015"><ele>375.0</ele><time>2026-04-18T09:17:33Z</time></trkpt><trkpt lat="43.40933182820037" lon="10.935825691623634"><ele>374.75</ele><time>2026-04-18T09:17:34Z</time></trkpt><trkpt lat="43.409233408690234" lon="10.935727303305576"><ele>374.5</ele><time>2026-04-18T09:17:35Z</time></trkpt><trkpt lat="43.409124233103086" lon="10.93565158040047"><ele>374.25</ele><time>2026-04-18T09:17:36Z</time></trkpt><trkpt lat="43.409019773521926" lon="10.935543492081583"><ele>374.0</ele><time>2026-04-18T09:17:37Z</time></trkpt><trkpt lat="43.40893581368973" lon="10.935445524617158"><ele>374.0</ele><time>2026-04-18T09:17:38Z</time></trkpt><trkpt lat="43.40887819521724" lon="10.93533970535423"><ele>374.0</ele><time>2026-04-18T09:17:39Z</time></trkpt><trkpt lat="43.40881511522928" lon="10.935219888837125"><ele>374.0</ele><time>2026-04-18T09:17:40Z</time></trkpt><trkpt lat="43.40876347735921" lon="10.93509238517109"><ele>374.0</ele><time>2026-04-18T09:17:41Z</time></trkpt><trkpt lat="43.40870077864033" lon="10.934942308040862"><ele>374.0</ele><time>2026-04-18T09:17:42Z</time></trkpt><trkpt lat="43.40867237176719" lon="10.934726495608434"><ele>372.25</ele><time>2026-04-18T09:17:43Z</time></trkpt><trkpt lat="43.408659635956724" lon="10.934542302377823"><ele>370.5</ele><time>2026-04-18T09:17:44Z</time></trkpt><trkpt lat="43.408659416821926" lon="10.934391016768116"><ele>368.75</ele><time>2026-04-18T09:17:45Z</time></trkpt><trkpt lat="43.408624730241165" lon="10.934240074035145"><ele>367.0</ele><time>2026-04-18T09:17:46Z</time></trkpt><trkpt lat="43.40860699525776" lon="10.934080166602193"><ele>367.0</ele><time>2026-04-18T09:17:47Z</time></trkpt><trkpt lat="43.40858616102724" lon="10.93390783463951"><ele>367.0</ele><time>2026-04-18T09:17:48Z</time></trkpt><trkpt lat="43.408552297668194" lon="10.933723096583641"><ele>367.0</ele><time>2026-04-18T09:17:49Z</time></trkpt><trkpt lat="43.408527658106905" lon="10.933535190479384"><ele>367.0</ele><time>2026-04-18T09:17:50Z</time></trkpt><trkpt lat="43.40850304968659" lon="10.933341181242369"><ele>367.0</ele><time>2026-04-18T09:17:51Z</time></trkpt><trkpt lat="43.40847038188171" lon="10.933163383927944"><ele>367.0</ele><time>2026-04-18T09:17:52Z</time></trkpt><trkpt lat="43.40844250963128" lon="10.933002015973628"><ele>367.0</ele><time>2026-04-18T09:17:53Z</time></trkpt><trkpt lat="43.4083824504397" lon="10.932819802702717"><ele>367.0</ele><time>2026-04-18T09:17:54Z</time></trkpt><trkpt lat="43.40830070841946" lon="10.93266087947708"><ele>366.5</ele><time>2026-04-18T09:17:55Z</time></trkpt><trkpt lat="43.408261696419295" lon="10.932521016086373"><ele>366.0</ele><time>2026-04-18T09:17:56Z</time></trkpt><trkpt lat="43.40818964923151" lon="10.932333831095079"><ele>365.5</ele><time>2026-04-18T09:17:57Z</time></trkpt><trkpt lat="43.40812638891806" lon="10.932164710339253"><ele>365.0</ele><time>2026-04-18T09:17:58Z</time></trkpt><trkpt lat="43.408065372288966" lon="10.93200166498191"><ele>365.0</ele><time>2026-04-18T09:17:59Z</time></trkpt><trkpt lat="43.40799516248931" lon="10.931845541842558"><ele>365.0</ele><time>2026-04-18T09:18:00Z</time></trkpt><trkpt lat="43.40795486527648" lon="10.931679943188298"><ele>365.0</ele><time>2026-04-18T09:18:01Z</time></trkpt><trkpt lat="43.407903352123974" lon="10.931514481925085"><ele>365.0</ele><time>2026-04-18T09:18:02Z</time></trkpt><trkpt lat="43.407836660034036" lon="10.93141292272148"><ele>365.25</ele><time>2026-04-18T09:18:03Z</time></trkpt><trkpt lat="43.40775944817922" lon="10.931276145582641"><ele>365.5</ele><time>2026-04-18T09:18:04Z</time></trkpt><trkpt lat="43.407683197495835" lon="10.931130101972961"><ele>365.75</ele><time>2026-04-18T09:18:05Z</time></trkpt><trkpt lat="43.40761911103798" lon="10.930999079909677"><ele>366.0</ele><time>2026-04-18T09:18:06Z</time></trkpt><trkpt lat="43.407555651898114" lon="10.930863339483826"><ele>367.0</ele><time>2026-04-18T09:18:07Z</time></trkpt><trkpt lat="43.40748634393748" lon="10.930739484039938"><ele>368.0</ele><time>2026-04-18T09:18:08Z</time></trkpt><trkpt lat="43.40742084373818" lon="10.930621605708613"><ele>369.0</ele><time>2026-04-18T09:18:09Z</time></trkpt><trkpt lat="43.407370350969074" lon="10.930505490195255"><ele>370.0</ele><time>2026-04-18T09:18:10Z</time></trkpt><trkpt lat="43.40734527730484" lon="10.930374846593866"><ele>371.0</ele><time>2026-04-18T09:18:10.999Z</time></trkpt><trkpt lat="43.407367280512744" lon="10.930249195110969"><ele>371.0</ele><time>2026-04-18T09:18:11.999Z</time></trkpt><trkpt lat="43.40737831919758" lon="10.930029307472058"><ele>371.0</ele><time>2026-04-18T09:18:12.999Z</time></trkpt><trkpt lat="43.40737973304883" lon="10.929801709076603"><ele>371.0</ele><time>2026-04-18T09:18:13.999Z</time></trkpt><trkpt lat="43.407372744211486" lon="10.929622089501102"><ele>371.0</ele><time>2026-04-18T09:18:14.999Z</time></trkpt><trkpt lat="43.407380702715095" lon="10.929414575320186"><ele>371.0</ele><time>2026-04-18T09:18:15.999Z</time></trkpt><trkpt lat="43.407376359506046" lon="10.92926490988231"><ele>371.0</ele><time>2026-04-18T09:18:16.999Z</time></trkpt><trkpt lat="43.407372098143476" lon="10.929052448590442"><ele>371.0</ele><time>2026-04-18T09:18:17.999Z</time></trkpt><trkpt lat="43.40736314821842" lon="10.928875203741484"><ele>370.5</ele><time>2026-04-18T09:18:18.999Z</time></trkpt><trkpt lat="43.40734009345408" lon="10.928686721879863"><ele>370.0</ele><time>2026-04-18T09:18:19.999Z</time></trkpt><trkpt lat="43.40728726321913" lon="10.928506381358247"><ele>369.5</ele><time>2026-04-18T09:18:20.999Z</time></trkpt><trkpt lat="43.407212060573976" lon="10.928345122697209"><ele>369.0</ele><time>2026-04-18T09:18:21.999Z</time></trkpt><trkpt lat="43.40710286970154" lon="10.928222025857991"><ele>368.25</ele><time>2026-04-18T09:18:22.999Z</time></trkpt><trkpt lat="43.406977453379504" lon="10.928085168208314"><ele>367.5</ele><time>2026-04-18T09:18:23.999Z</time></trkpt><trkpt lat="43.406874318616616" lon="10.927965490242899"><ele>366.75</ele><time>2026-04-18T09:18:24.999Z</time></trkpt><trkpt lat="43.406791142610444" lon="10.92787071318867"><ele>366.0</ele><time>2026-04-18T09:18:25.999Z</time></trkpt><trkpt lat="43.406699941739454" lon="10.927760152053443"><ele>366.0</ele><time>2026-04-18T09:18:26.999Z</time></trkpt><trkpt lat="43.40663283202523" lon="10.927644478614894"><ele>366.0</ele><time>2026-04-18T09:18:27.999Z</time></trkpt><trkpt lat="43.40659833892085" lon="10.927476319410312"><ele>366.0</ele><time>2026-04-18T09:18:28.999Z</time></trkpt><trkpt lat="43.40654734030835" lon="10.927259038048039"><ele>366.0</ele><time>2026-04-18T09:18:29.999Z</time></trkpt><trkpt lat="43.4064961031499" lon="10.927057228225094"><ele>368.5</ele><time>2026-04-18T09:18:30.999Z</time></trkpt><trkpt lat="43.406429574950764" lon="10.926885498959626"><ele>371.0</ele><time>2026-04-18T09:18:31.999Z</time></trkpt><trkpt lat="43.406350871102354" lon="10.926726491994494"><ele>373.5</ele><time>2026-04-18T09:18:32.999Z</time></trkpt><trkpt lat="43.40625858412651" lon="10.926584702591512"><ele>376.0</ele><time>2026-04-18T09:18:33.999Z</time></trkpt><trkpt lat="43.40614880116944" lon="10.926461011638228"><ele>376.5</ele><time>2026-04-18T09:18:34.999Z</time></trkpt><trkpt lat="43.406038572792426" lon="10.926339704597796"><ele>377.0</ele><time>2026-04-18T09:18:35.999Z</time></trkpt><trkpt lat="43.40593965883614" lon="10.926213635209033"><ele>377.5</ele><time>2026-04-18T09:18:36.999Z</time></trkpt><trkpt lat="43.40584457745996" lon="10.926099416843703"><ele>378.0</ele><time>2026-04-18T09:18:37.999Z</time></trkpt><trkpt lat="43.405740882180275" lon="10.925958052342212"><ele>378.6666666666667</ele><time>2026-04-18T09:18:38.999Z</time></trkpt><trkpt lat="43.40563262714834" lon="10.92581327085515"><ele>379.33333333333337</ele><time>2026-04-18T09:18:39.999Z</time></trkpt><trkpt lat="43.405508633255124" lon="10.92565116772869"><ele>380.0</ele><time>2026-04-18T09:18:40.999Z</time></trkpt><trkpt lat="43.40539901338028" lon="10.925487578105793"><ele>378.33333333333337</ele><time>2026-04-18T09:18:41.999Z</time></trkpt><trkpt lat="43.40528644693614" lon="10.925330746812802"><ele>376.6666666666667</ele><time>2026-04-18T09:18:42.999Z</time></trkpt><trkpt lat="43.40515387534932" lon="10.925195045027461"><ele>375.0</ele><time>2026-04-18T09:18:43.999Z</time></trkpt><trkpt lat="43.40501303569527" lon="10.925071894369536"><ele>375.3333333333333</ele><time>2026-04-18T09:18:44.999Z</time></trkpt><trkpt lat="43.40487526256402" lon="10.924953636339945"><ele>375.66666666666663</ele><time>2026-04-18T09:18:45.999Z</time></trkpt><trkpt lat="43.404740907918814" lon="10.924832998052649"><ele>376.0</ele><time>2026-04-18T09:18:46.999Z</time></trkpt><trkpt lat="43.404605379373805" lon="10.924702195662588"><ele>376.0</ele><time>2026-04-18T09:18:47.999Z</time></trkpt><trkpt lat="43.40445708159989" lon="10.924566501610535"><ele>376.0</ele><time>2026-04-18T09:18:48.999Z</time></trkpt><trkpt lat="43.404322114044035" lon="10.924435164675076"><ele>376.0</ele><time>2026-04-18T09:18:49.999Z</time></trkpt><trkpt lat="43.40419955706609" lon="10.924303409043562"><ele>375.25</ele><time>2026-04-18T09:18:50.999Z</time></trkpt><trkpt lat="43.40408074785001" lon="10.924173062071075"><ele>374.5</ele><time>2026-04-18T09:18:51.999Z</time></trkpt><trkpt lat="43.403971720320385" lon="10.92404380015271"><ele>373.75</ele><time>2026-04-18T09:18:52.999Z</time></trkpt><trkpt lat="43.40386849717643" lon="10.923913241092745"><ele>373.0</ele><time>2026-04-18T09:18:53.999Z</time></trkpt><trkpt lat="43.40377892395555" lon="10.923786888416238"><ele>373.0</ele><time>2026-04-18T09:18:54.999Z</time></trkpt><trkpt lat="43.4036940048273" lon="10.923658116255421"><ele>373.0</ele><time>2026-04-18T09:18:55.999Z</time></trkpt><trkpt lat="43.40361825398851" lon="10.923517743255568"><ele>373.0</ele><time>2026-04-18T09:18:56.999Z</time></trkpt><trkpt lat="43.403557120201704" lon="10.923364843576367"><ele>373.0</ele><time>2026-04-18T09:18:57.999Z</time></trkpt><trkpt lat="43.40351492389909" lon="10.923192651605284"><ele>375.0</ele><time>2026-04-18T09:18:58.999Z</time></trkpt><trkpt lat="43.40348358815387" lon="10.923018699010692"><ele>377.0</ele><time>2026-04-18T09:18:59.999Z</time></trkpt><trkpt lat="43.40345056852761" lon="10.922865041156696"><ele>379.0</ele><time>2026-04-18T09:19:00.999Z</time></trkpt><trkpt lat="43.40340615707268" lon="10.922711574220324"><ele>381.0</ele><time>2026-04-18T09:19:01.999Z</time></trkpt><trkpt lat="43.40335944974923" lon="10.922565022543218"><ele>379.75</ele><time>2026-04-18T09:19:02.999Z</time></trkpt><trkpt lat="43.40331219560928" lon="10.92241082847477"><ele>378.5</ele><time>2026-04-18T09:19:03.999Z</time></trkpt><trkpt lat="43.40326368549052" lon="10.922253272296498"><ele>377.25</ele><time>2026-04-18T09:19:04.999Z</time></trkpt><trkpt lat="43.4032209443939" lon="10.922099384879816"><ele>376.0</ele><time>2026-04-18T09:19:05.999Z</time></trkpt><trkpt lat="43.40318729968234" lon="10.921942358031902"><ele>376.0</ele><time>2026-04-18T09:19:06.999Z</time></trkpt><trkpt lat="43.40315521104661" lon="10.921781000729553"><ele>376.0</ele><time>2026-04-18T09:19:07.999Z</time></trkpt><trkpt lat="43.40312065011858" lon="10.921626764795912"><ele>376.0</ele><time>2026-04-18T09:19:08.999Z</time></trkpt><trkpt lat="43.40308929490698" lon="10.921475742567896"><ele>376.0</ele><time>2026-04-18T09:19:09.999Z</time></trkpt><trkpt lat="43.40306675720994" lon="10.921327070664464"><ele>375.0</ele><time>2026-04-18T09:19:10.999Z</time></trkpt><trkpt lat="43.403066527493344" lon="10.921179838000658"><ele>374.0</ele><time>2026-04-18T09:19:11.999Z</time></trkpt><trkpt lat="43.403092013336675" lon="10.921025108753238"><ele>373.0</ele><time>2026-04-18T09:19:12.999Z</time></trkpt><trkpt lat="43.40313326952162" lon="10.920855677161779"><ele>372.0</ele><time>2026-04-18T09:19:13.999Z</time></trkpt><trkpt lat="43.40320622080646" lon="10.92071009582842"><ele>371.0</ele><time>2026-04-18T09:19:14.999Z</time></trkpt><trkpt lat="43.40327006477724" lon="10.920559970049961"><ele>370.0</ele><time>2026-04-18T09:19:15.999Z</time></trkpt><trkpt lat="43.40332744234647" lon="10.920416453016863"><ele>369.0</ele><time>2026-04-18T09:19:17Z</time></trkpt><trkpt lat="43.4033785057285" lon="10.920285375522457"><ele>368.0</ele><time>2026-04-18T09:19:18Z</time></trkpt><trkpt lat="43.40341663282966" lon="10.920142757505824"><ele>367.59999999999997</ele><time>2026-04-18T09:19:19Z</time></trkpt><trkpt lat="43.403462510650606" lon="10.920014817570584"><ele>367.2</ele><time>2026-04-18T09:19:20Z</time></trkpt><trkpt lat="43.403511065521144" lon="10.919889876214025"><ele>366.8</ele><time>2026-04-18T09:19:21Z</time></trkpt><trkpt lat="43.40355377152983" lon="10.919760384215891"><ele>366.4</ele><time>2026-04-18T09:19:22Z</time></trkpt><trkpt lat="43.40359598786008" lon="10.919625648564411"><ele>366.0</ele><time>2026-04-18T09:19:23Z</time></trkpt><trkpt lat="43.40363367399779" lon="10.919481902263072"><ele>366.0</ele><time>2026-04-18T09:19:24Z</time></trkpt><trkpt lat="43.403669872969445" lon="10.919329886155586"><ele>366.0</ele><time>2026-04-18T09:19:25Z</time></trkpt><trkpt lat="43.40370733407041" lon="10.919168080372156"><ele>366.0</ele><time>2026-04-18T09:19:26Z</time></trkpt><trkpt lat="43.40373791620369" lon="10.919019183847535"><ele>366.0</ele><time>2026-04-18T09:19:27Z</time></trkpt><trkpt lat="43.4037621737552" lon="10.918872881165798"><ele>365.20000000000005</ele><time>2026-04-18T09:19:28Z</time></trkpt><trkpt lat="43.40377533995892" lon="10.918729142732262"><ele>364.40000000000003</ele><time>2026-04-18T09:19:29Z</time></trkpt><trkpt lat="43.40377683635487" lon="10.918588480159551"><ele>363.6</ele><time>2026-04-18T09:19:30Z</time></trkpt><trkpt lat="43.4037640560982" lon="10.918448500684438"><ele>362.8</ele><time>2026-04-18T09:19:31Z</time></trkpt><trkpt lat="43.403741205533116" lon="10.918315360394363"><ele>362.0</ele><time>2026-04-18T09:19:32Z</time></trkpt><trkpt lat="43.4037028554854" lon="10.91818681684653"><ele>360.5</ele><time>2026-04-18T09:19:33Z</time></trkpt><trkpt lat="43.403655710790645" lon="10.918040507385188"><ele>359.0</ele><time>2026-04-18T09:19:34Z</time></trkpt><trkpt lat="43.403573647501254" lon="10.917893166138079"><ele>357.5</ele><time>2026-04-18T09:19:35Z</time></trkpt><trkpt lat="43.403489313352885" lon="10.9177789072991"><ele>356.0</ele><time>2026-04-18T09:19:36Z</time></trkpt><trkpt lat="43.40342988788362" lon="10.917619180775958"><ele>354.25</ele><time>2026-04-18T09:19:37Z</time></trkpt><trkpt lat="43.40338701373449" lon="10.91744910487482"><ele>352.5</ele><time>2026-04-18T09:19:38Z</time></trkpt><trkpt lat="43.403362796925315" lon="10.917276171047993"><ele>350.75</ele><time>2026-04-18T09:19:39Z</time></trkpt><trkpt lat="43.40333808487549" lon="10.917116540671792"><ele>349.0</ele><time>2026-04-18T09:19:40Z</time></trkpt><trkpt lat="43.40329591492028" lon="10.916971374223357"><ele>349.0</ele><time>2026-04-18T09:19:41Z</time></trkpt><trkpt lat="43.40325533904964" lon="10.916826548194026"><ele>349.0</ele><time>2026-04-18T09:19:42Z</time></trkpt><trkpt lat="43.40315980170092" lon="10.916698247990846"><ele>349.0</ele><time>2026-04-18T09:19:43Z</time></trkpt><trkpt lat="43.40306998733894" lon="10.916555216674356"><ele>349.0</ele><time>2026-04-18T09:19:44Z</time></trkpt><trkpt lat="43.402965116457175" lon="10.916428378331275"><ele>348.75</ele><time>2026-04-18T09:19:45Z</time></trkpt><trkpt lat="43.402853694756" lon="10.916325094028783"><ele>348.5</ele><time>2026-04-18T09:19:46Z</time></trkpt><trkpt lat="43.40274914308891" lon="10.916212344985569"><ele>348.25</ele><time>2026-04-18T09:19:47Z</time></trkpt><trkpt lat="43.40264075893648" lon="10.91609802473568"><ele>348.0</ele><time>2026-04-18T09:19:48Z</time></trkpt><trkpt lat="43.402529088894305" lon="10.915989869164473"><ele>346.0</ele><time>2026-04-18T09:19:49Z</time></trkpt><trkpt lat="43.40242215492736" lon="10.915893431320306"><ele>344.0</ele><time>2026-04-18T09:19:50Z</time></trkpt><trkpt lat="43.40233193344592" lon="10.915811773314827"><ele>342.0</ele><time>2026-04-18T09:19:51Z</time></trkpt><trkpt lat="43.40225771114325" lon="10.915743330340831"><ele>340.0</ele><time>2026-04-18T09:19:52Z</time></trkpt><trkpt lat="43.40221097845331" lon="10.915641592585745"><ele>338.0</ele><time>2026-04-18T09:19:54Z</time></trkpt><trkpt lat="43.40224705350345" lon="10.915494679008589"><ele>338.0</ele><time>2026-04-18T09:19:56Z</time></trkpt><trkpt lat="43.402334570322324" lon="10.915503400873495"><ele>338.0</ele><time>2026-04-18T09:19:57Z</time></trkpt><trkpt lat="43.402406659332904" lon="10.915426464910293"><ele>338.0</ele><time>2026-04-18T09:19:58Z</time></trkpt><trkpt lat="43.402521988243905" lon="10.915402052305005"><ele>338.0</ele><time>2026-04-18T09:19:59Z</time></trkpt><trkpt lat="43.402631444993716" lon="10.915338619251997"><ele>338.0</ele><time>2026-04-18T09:20:00Z</time></trkpt><trkpt lat="43.40270705407159" lon="10.915237922309018"><ele>338.0</ele><time>2026-04-18T09:20:01Z</time></trkpt><trkpt lat="43.40277696709385" lon="10.915097383901353"><ele>338.0</ele><time>2026-04-18T09:20:02Z</time></trkpt><trkpt lat="43.40282046044512" lon="10.914907059418926"><ele>338.0</ele><time>2026-04-18T09:20:03Z</time></trkpt><trkpt lat="43.40285865494871" lon="10.914699764803718"><ele>338.0</ele><time>2026-04-18T09:20:04Z</time></trkpt><trkpt lat="43.40289589825997" lon="10.91447696676429"><ele>334.6666666666667</ele><time>2026-04-18T09:20:05Z</time></trkpt><trkpt lat="43.40294370109233" lon="10.914249016999266"><ele>331.3333333333333</ele><time>2026-04-18T09:20:06Z</time></trkpt><trkpt lat="43.402982091380274" lon="10.914020374806507"><ele>328.0</ele><time>2026-04-18T09:20:07Z</time></trkpt><trkpt lat="43.40301031946335" lon="10.913796165973775"><ele>326.0</ele><time>2026-04-18T09:20:08Z</time></trkpt><trkpt lat="43.40301876131756" lon="10.913552333627315"><ele>324.0</ele><time>2026-04-18T09:20:09Z</time></trkpt><trkpt lat="43.40302325198125" lon="10.913290174785152"><ele>322.0</ele><time>2026-04-18T09:20:10Z</time></trkpt><trkpt lat="43.40301401240529" lon="10.913027912714151"><ele>322.3333333333333</ele><time>2026-04-18T09:20:11Z</time></trkpt><trkpt lat="43.40298304169178" lon="10.912751362698268"><ele>322.6666666666667</ele><time>2026-04-18T09:20:12Z</time></trkpt><trkpt lat="43.40294381159964" lon="10.912475125567543"><ele>323.0</ele><time>2026-04-18T09:20:13Z</time></trkpt><trkpt lat="43.40291435160699" lon="10.912181226090865"><ele>323.0</ele><time>2026-04-18T09:20:13.999Z</time></trkpt><trkpt lat="43.40288713752394" lon="10.91189109078779"><ele>323.0</ele><time>2026-04-18T09:20:14.999Z</time></trkpt><trkpt lat="43.40285566553633" lon="10.911620260994264"><ele>323.0</ele><time>2026-04-18T09:20:15.999Z</time></trkpt><trkpt lat="43.40282226450737" lon="10.91136185507233"><ele>325.0</ele><time>2026-04-18T09:20:16.999Z</time></trkpt><trkpt lat="43.40278982758042" lon="10.9111252695479"><ele>327.0</ele><time>2026-04-18T09:20:17.999Z</time></trkpt><trkpt lat="43.40276439038232" lon="10.910912159847681"><ele>329.0</ele><time>2026-04-18T09:20:18.999Z</time></trkpt><trkpt lat="43.402733634857704" lon="10.910701344529908"><ele>331.0</ele><time>2026-04-18T09:20:19.999Z</time></trkpt><trkpt lat="43.40266754499204" lon="10.910492657117482"><ele>333.0</ele><time>2026-04-18T09:20:20.999Z</time></trkpt><trkpt lat="43.402584587949" lon="10.910297168216076"><ele>335.0</ele><time>2026-04-18T09:20:21.999Z</time></trkpt><trkpt lat="43.40249632001461" lon="10.910105857330265"><ele>337.6666666666667</ele><time>2026-04-18T09:20:22.999Z</time></trkpt><trkpt lat="43.402422642020454" lon="10.909906155463927"><ele>340.3333333333333</ele><time>2026-04-18T09:20:23.999Z</time></trkpt><trkpt lat="43.40234573641624" lon="10.909696371254498"><ele>343.0</ele><time>2026-04-18T09:20:24.999Z</time></trkpt><trkpt lat="43.40226885014517" lon="10.909485303240691"><ele>343.0</ele><time>2026-04-18T09:20:25.999Z</time></trkpt><trkpt lat="43.402190857810595" lon="10.909282106400175"><ele>343.0</ele><time>2026-04-18T09:20:26.999Z</time></trkpt><trkpt lat="43.40211902061832" lon="10.909087258174807"><ele>343.0</ele><time>2026-04-18T09:20:27.999Z</time></trkpt><trkpt lat="43.40204560444651" lon="10.908897474061115"><ele>343.59999999999997</ele><time>2026-04-18T09:20:28.999Z</time></trkpt><trkpt lat="43.4019878597067" lon="10.908728994675528"><ele>344.2</ele><time>2026-04-18T09:20:29.999Z</time></trkpt><trkpt lat="43.40192740083628" lon="10.908600281139599"><ele>344.8</ele><time>2026-04-18T09:20:30.999Z</time></trkpt><trkpt lat="43.40185330702167" lon="10.908525652559312"><ele>345.4</ele><time>2026-04-18T09:20:31.999Z</time></trkpt><trkpt lat="43.40176526231966" lon="10.908475834218061"><ele>346.0</ele><time>2026-04-18T09:20:32.999Z</time></trkpt><trkpt lat="43.401654467259675" lon="10.90847519947238"><ele>346.0</ele><time>2026-04-18T09:20:33.999Z</time></trkpt><trkpt lat="43.40152757310923" lon="10.908493879699332"><ele>346.0</ele><time>2026-04-18T09:20:34.999Z</time></trkpt><trkpt lat="43.401387624937335" lon="10.908517746356853"><ele>346.0</ele><time>2026-04-18T09:20:35.999Z</time></trkpt><trkpt lat="43.40125915864367" lon="10.908533171407463"><ele>346.0</ele><time>2026-04-18T09:20:36.999Z</time></trkpt><trkpt lat="43.40113818411221" lon="10.908539510047872"><ele>346.0</ele><time>2026-04-18T09:20:37.999Z</time></trkpt><trkpt lat="43.40102060568081" lon="10.908546330109262"><ele>346.0</ele><time>2026-04-18T09:20:38.999Z</time></trkpt><trkpt lat="43.40089718645019" lon="10.908564374613459"><ele>346.0</ele><time>2026-04-18T09:20:39.999Z</time></trkpt><trkpt lat="43.400781929928904" lon="10.908581032851536"><ele>346.0</ele><time>2026-04-18T09:20:40.999Z</time></trkpt><trkpt lat="43.40067037755426" lon="10.908587229801094"><ele>346.0</ele><time>2026-04-18T09:20:41.999Z</time></trkpt><trkpt lat="43.40055307541414" lon="10.90859593075482"><ele>346.0</ele><time>2026-04-18T09:20:42.999Z</time></trkpt><trkpt lat="43.40045867137819" lon="10.908630797058953"><ele>346.0</ele><time>2026-04-18T09:20:43.999Z</time></trkpt><trkpt lat="43.40036510455694" lon="10.908619750061472"><ele>346.0</ele><time>2026-04-18T09:20:44.999Z</time></trkpt><trkpt lat="43.400265863421254" lon="10.90861569685057"><ele>346.0</ele><time>2026-04-18T09:20:45.999Z</time></trkpt><trkpt lat="43.40018820384988" lon="10.908541385566423"><ele>346.4</ele><time>2026-04-18T09:20:46.999Z</time></trkpt><trkpt lat="43.40014716498699" lon="10.908444017522356"><ele>346.8</ele><time>2026-04-18T09:20:47.999Z</time></trkpt><trkpt lat="43.40011428914666" lon="10.90830048583682"><ele>347.2</ele><time>2026-04-18T09:20:48.999Z</time></trkpt><trkpt lat="43.400073050848796" lon="10.90817008762733"><ele>347.59999999999997</ele><time>2026-04-18T09:20:49.999Z</time></trkpt><trkpt lat="43.400019792581624" lon="10.908057307330328"><ele>348.0</ele><time>2026-04-18T09:20:50.999Z</time></trkpt><trkpt lat="43.39998630995686" lon="10.907909363789798"><ele>348.75</ele><time>2026-04-18T09:20:51.999Z</time></trkpt><trkpt lat="43.399988340504336" lon="10.907734721537134"><ele>349.5</ele><time>2026-04-18T09:20:52.999Z</time></trkpt><trkpt lat="43.40002802379944" lon="10.9075381263223"><ele>350.25</ele><time>2026-04-18T09:20:53.999Z</time></trkpt><trkpt lat="43.40006377558646" lon="10.907356594977706"><ele>351.0</ele><time>2026-04-18T09:20:54.999Z</time></trkpt><trkpt lat="43.400099889077325" lon="10.907186890871992"><ele>349.6</ele><time>2026-04-18T09:20:55.999Z</time></trkpt><trkpt lat="43.40013895396235" lon="10.907037011261119"><ele>348.20000000000005</ele><time>2026-04-18T09:20:56.999Z</time></trkpt><trkpt lat="43.40017067529752" lon="10.906885635087464"><ele>346.79999999999995</ele><time>2026-04-18T09:20:57.999Z</time></trkpt><trkpt lat="43.40020862853603" lon="10.906756137519272"><ele>345.4</ele><time>2026-04-18T09:20:58.999Z</time></trkpt><trkpt lat="43.40024504956111" lon="10.906612150302943"><ele>344.0</ele><time>2026-04-18T09:20:59.999Z</time></trkpt><trkpt lat="43.4002750423962" lon="10.906472181101993"><ele>343.25</ele><time>2026-04-18T09:21:00.999Z</time></trkpt><trkpt lat="43.40028456741912" lon="10.90632433569578"><ele>342.5</ele><time>2026-04-18T09:21:01.999Z</time></trkpt><trkpt lat="43.40026909595207" lon="10.906163490402326"><ele>341.75</ele><time>2026-04-18T09:21:02.999Z</time></trkpt><trkpt lat="43.400227800383924" lon="10.906006648156529"><ele>341.0</ele><time>2026-04-18T09:21:03.999Z</time></trkpt><trkpt lat="43.40015722586269" lon="10.905825311016885"><ele>341.0</ele><time>2026-04-18T09:21:04.999Z</time></trkpt><trkpt lat="43.40008470362979" lon="10.90566029723932"><ele>341.0</ele><time>2026-04-18T09:21:05.999Z</time></trkpt><trkpt lat="43.40001469347895" lon="10.905511057144057"><ele>341.0</ele><time>2026-04-18T09:21:06.999Z</time></trkpt><trkpt lat="43.39995023618355" lon="10.905363351873286"><ele>341.0</ele><time>2026-04-18T09:21:07.999Z</time></trkpt><trkpt lat="43.399900265507384" lon="10.90523370866588"><ele>341.0</ele><time>2026-04-18T09:21:08.999Z</time></trkpt><trkpt lat="43.3998661484296" lon="10.905122416650316"><ele>341.0</ele><time>2026-04-18T09:21:09.999Z</time></trkpt><trkpt lat="43.39984019605205" lon="10.905025202701667"><ele>341.0</ele><time>2026-04-18T09:21:10.999Z</time></trkpt><trkpt lat="43.39978836434848" lon="10.904920926049492"><ele>341.0</ele><time>2026-04-18T09:21:12.999Z</time></trkpt><trkpt lat="43.39968561273156" lon="10.904938475611491"><ele>341.0</ele><time>2026-04-18T09:21:14.999Z</time></trkpt><trkpt lat="43.399636567415314" lon="10.90505624799396"><ele>341.0</ele><time>2026-04-18T09:21:15.999Z</time></trkpt><trkpt lat="43.39963183350219" lon="10.905195749861887"><ele>341.0</ele><time>2026-04-18T09:21:16.999Z</time></trkpt><trkpt lat="43.39965732777869" lon="10.90532312073019"><ele>341.0</ele><time>2026-04-18T09:21:17.999Z</time></trkpt><trkpt lat="43.39968933502481" lon="10.905415576828172"><ele>341.0</ele><time>2026-04-18T09:21:18.999Z</time></trkpt><trkpt lat="43.3997071408199" lon="10.90554553989666"><ele>341.0</ele><time>2026-04-18T09:21:20.999Z</time></trkpt><trkpt lat="43.39961907785367" lon="10.905600395898052"><ele>336.0</ele><time>2026-04-18T09:21:23Z</time></trkpt><trkpt lat="43.399540555271436" lon="10.905539481503542"><ele>331.0</ele><time>2026-04-18T09:21:24Z</time></trkpt><trkpt lat="43.39947542144961" lon="10.905440857170143"><ele>326.0</ele><time>2026-04-18T09:21:25Z</time></trkpt><trkpt lat="43.39942888804072" lon="10.905314254501608"><ele>321.0</ele><time>2026-04-18T09:21:26Z</time></trkpt><trkpt lat="43.39939412829496" lon="10.905187711305635"><ele>316.0</ele><time>2026-04-18T09:21:27Z</time></trkpt><trkpt lat="43.39935362998975" lon="10.905029931036374"><ele>316.0</ele><time>2026-04-18T09:21:28Z</time></trkpt><trkpt lat="43.39931267768658" lon="10.904899919184984"><ele>316.0</ele><time>2026-04-18T09:21:29Z</time></trkpt><trkpt lat="43.39927794431652" lon="10.904801222973362"><ele>316.0</ele><time>2026-04-18T09:21:30Z</time></trkpt><trkpt lat="43.39925796074802" lon="10.904699253035309"><ele>316.0</ele><time>2026-04-18T09:21:31Z</time></trkpt><trkpt lat="43.39927500963059" lon="10.904581007954453"><ele>316.0</ele><time>2026-04-18T09:21:32Z</time></trkpt><trkpt lat="43.39933595246186" lon="10.9044691649579"><ele>316.0</ele><time>2026-04-18T09:21:33Z</time></trkpt><trkpt lat="43.39942696205493" lon="10.904365481987526"><ele>316.0</ele><time>2026-04-18T09:21:34Z</time></trkpt><trkpt lat="43.39950321788378" lon="10.904256622965008"><ele>316.0</ele><time>2026-04-18T09:21:35Z</time></trkpt><trkpt lat="43.39954567737503" lon="10.90416930092217"><ele>316.0</ele><time>2026-04-18T09:21:36Z</time></trkpt><trkpt lat="43.39955877877192" lon="10.904061910895436"><ele>316.0</ele><time>2026-04-18T09:21:37Z</time></trkpt><trkpt lat="43.39951583423223" lon="10.903935282308149"><ele>316.0</ele><time>2026-04-18T09:21:39Z</time></trkpt><trkpt lat="43.399438776932726" lon="10.903930147714426"><ele>316.0</ele><time>2026-04-18T09:21:41Z</time></trkpt><trkpt lat="43.39937527203053" lon="10.903998771910853"><ele>316.0</ele><time>2026-04-18T09:21:43Z</time></trkpt><trkpt lat="43.399283796391494" lon="10.90410915051669"><ele>316.0</ele><time>2026-04-18T09:21:45Z</time></trkpt><trkpt lat="43.39921198519738" lon="10.904185892589535"><ele>316.0</ele><time>2026-04-18T09:21:46Z</time></trkpt><trkpt lat="43.39913223213328" lon="10.904277189910081"><ele>316.0</ele><time>2026-04-18T09:21:47Z</time></trkpt><trkpt lat="43.39905800272076" lon="10.904374261793826"><ele>316.0</ele><time>2026-04-18T09:21:48Z</time></trkpt><trkpt lat="43.398997091374916" lon="10.90449827943286"><ele>316.0</ele><time>2026-04-18T09:21:49Z</time></trkpt><trkpt lat="43.39894967328841" lon="10.904654992895502"><ele>316.0</ele><time>2026-04-18T09:21:50Z</time></trkpt><trkpt lat="43.39889439915141" lon="10.9048484416339"><ele>316.0</ele><time>2026-04-18T09:21:51Z</time></trkpt><trkpt lat="43.398832558553956" lon="10.905039816170468"><ele>316.0</ele><time>2026-04-18T09:21:52Z</time></trkpt><trkpt lat="43.398760557908275" lon="10.905191738106458"><ele>312.2</ele><time>2026-04-18T09:21:53Z</time></trkpt><trkpt lat="43.39869250186072" lon="10.905329007102447"><ele>308.40000000000003</ele><time>2026-04-18T09:21:54Z</time></trkpt><trkpt lat="43.3986329815914" lon="10.90546362846886"><ele>304.6</ele><time>2026-04-18T09:21:55Z</time></trkpt><trkpt lat="43.39858387452362" lon="10.90557931411779"><ele>300.8</ele><time>2026-04-18T09:21:56Z</time></trkpt><trkpt lat="43.39852848912664" lon="10.905665617281143"><ele>297.0</ele><time>2026-04-18T09:21:57Z</time></trkpt><trkpt lat="43.398452187148024" lon="10.90570241820045"><ele>297.0</ele><time>2026-04-18T09:21:58Z</time></trkpt><trkpt lat="43.39835842490457" lon="10.905670597046425"><ele>297.0</ele><time>2026-04-18T09:21:59Z</time></trkpt><trkpt lat="43.398288787869795" lon="10.90556040813112"><ele>297.0</ele><time>2026-04-18T09:22:00Z</time></trkpt><trkpt lat="43.39825971762962" lon="10.905394800180355"><ele>297.0</ele><time>2026-04-18T09:22:01Z</time></trkpt><trkpt lat="43.39821954137802" lon="10.905204662397066"><ele>296.4</ele><time>2026-04-18T09:22:02Z</time></trkpt><trkpt lat="43.3981879078238" lon="10.905019252669028"><ele>295.79999999999995</ele><time>2026-04-18T09:22:03Z</time></trkpt><trkpt lat="43.39817844848184" lon="10.904919104330311"><ele>295.2</ele><time>2026-04-18T09:22:04Z</time></trkpt><trkpt lat="43.39816634088995" lon="10.904776071010831"><ele>294.59999999999997</ele><time>2026-04-18T09:22:05Z</time></trkpt><trkpt lat="43.398202902211736" lon="10.904606661871469"><ele>294.0</ele><time>2026-04-18T09:22:06Z</time></trkpt><trkpt lat="43.39825772034175" lon="10.904447339933938"><ele>294.0</ele><time>2026-04-18T09:22:07Z</time></trkpt><trkpt lat="43.39829403079629" lon="10.904342628314653"><ele>294.0</ele><time>2026-04-18T09:22:08Z</time></trkpt><trkpt lat="43.39832975683692" lon="10.904223639761517"><ele>294.0</ele><time>2026-04-18T09:22:09Z</time></trkpt><trkpt lat="43.39828859083204" lon="10.904103944945783"><ele>294.0</ele><time>2026-04-18T09:22:11Z</time></trkpt><trkpt lat="43.39815466590202" lon="10.904068410637777"><ele>294.0</ele><time>2026-04-18T09:22:13Z</time></trkpt><trkpt lat="43.39803374084133" lon="10.904239910056729"><ele>289.75</ele><time>2026-04-18T09:22:14Z</time></trkpt><trkpt lat="43.397939799118376" lon="10.904365342901464"><ele>285.5</ele><time>2026-04-18T09:22:15Z</time></trkpt><trkpt lat="43.39786443694846" lon="10.904492313324715"><ele>281.25</ele><time>2026-04-18T09:22:16Z</time></trkpt><trkpt lat="43.39779576388832" lon="10.904660693003013"><ele>277.0</ele><time>2026-04-18T09:22:16.999Z</time></trkpt><trkpt lat="43.39773542722119" lon="10.904816202421102"><ele>277.0</ele><time>2026-04-18T09:22:17.999Z</time></trkpt><trkpt lat="43.397690555171465" lon="10.904980060261682"><ele>277.0</ele><time>2026-04-18T09:22:18.999Z</time></trkpt><trkpt lat="43.39763749657103" lon="10.905126924082015"><ele>277.0</ele><time>2026-04-18T09:22:19.999Z</time></trkpt><trkpt lat="43.397572139563174" lon="10.905264914215552"><ele>277.0</ele><time>2026-04-18T09:22:20.999Z</time></trkpt><trkpt lat="43.39751522780592" lon="10.905406705731282"><ele>277.16666666666663</ele><time>2026-04-18T09:22:21.999Z</time></trkpt><trkpt lat="43.397460345699734" lon="10.90553679677192"><ele>277.3333333333333</ele><time>2026-04-18T09:22:22.999Z</time></trkpt><trkpt lat="43.39741481017683" lon="10.905652880052969"><ele>277.5</ele><time>2026-04-18T09:22:23.999Z</time></trkpt><trkpt lat="43.397396854012335" lon="10.905773073487389"><ele>277.6666666666667</ele><time>2026-04-18T09:22:24.999Z</time></trkpt><trkpt lat="43.397378552857" lon="10.905862052813031"><ele>277.83333333333337</ele><time>2026-04-18T09:22:25.999Z</time></trkpt><trkpt lat="43.39731626958073" lon="10.90593147949099"><ele>278.0</ele><time>2026-04-18T09:22:27.999Z</time></trkpt><trkpt lat="43.39721268822061" lon="10.905800411447684"><ele>278.33333333333337</ele><time>2026-04-18T09:22:29.999Z</time></trkpt><trkpt lat="43.397186547173334" lon="10.905673598213426"><ele>278.6666666666667</ele><time>2026-04-18T09:22:30.999Z</time></trkpt><trkpt lat="43.39715052564496" lon="10.905542220650332"><ele>279.0</ele><time>2026-04-18T09:22:31.999Z</time></trkpt><trkpt lat="43.39709925781363" lon="10.905433753766825"><ele>279.3333333333333</ele><time>2026-04-18T09:22:32.999Z</time></trkpt><trkpt lat="43.39705993950688" lon="10.905332145081507"><ele>279.66666666666663</ele><time>2026-04-18T09:22:33.999Z</time></trkpt><trkpt lat="43.39703126848793" lon="10.905241993559121"><ele>280.0</ele><time>2026-04-18T09:22:34.999Z</time></trkpt><trkpt lat="43.39694436542918" lon="10.905177195167806"><ele>276.0</ele><time>2026-04-18T09:22:36.999Z</time></trkpt><trkpt lat="43.39681985074985" lon="10.905285277776146"><ele>272.0</ele><time>2026-04-18T09:22:38.999Z</time></trkpt><trkpt lat="43.39676091133845" lon="10.905448120605023"><ele>268.0</ele><time>2026-04-18T09:22:39.999Z</time></trkpt><trkpt lat="43.39671152879196" lon="10.90557395412381"><ele>264.0</ele><time>2026-04-18T09:22:40.999Z</time></trkpt><trkpt lat="43.39666723887385" lon="10.90566324271048"><ele>264.0</ele><time>2026-04-18T09:22:41.999Z</time></trkpt><trkpt lat="43.39658043265771" lon="10.905765198352375"><ele>264.0</ele><time>2026-04-18T09:22:42.999Z</time></trkpt><trkpt lat="43.39647550401745" lon="10.905733993908909"><ele>264.0</ele><time>2026-04-18T09:22:43.999Z</time></trkpt><trkpt lat="43.39638618340438" lon="10.905676063777804"><ele>264.0</ele><time>2026-04-18T09:22:44.999Z</time></trkpt><trkpt lat="43.396370498767446" lon="10.90552093760838"><ele>264.0</ele><time>2026-04-18T09:22:45.999Z</time></trkpt><trkpt lat="43.39639043612222" lon="10.90538045885681"><ele>264.0</ele><time>2026-04-18T09:22:46.999Z</time></trkpt><trkpt lat="43.39642386986423" lon="10.90524599398837"><ele>264.0</ele><time>2026-04-18T09:22:47.999Z</time></trkpt><trkpt lat="43.39642549051138" lon="10.905108291181978"><ele>264.0</ele><time>2026-04-18T09:22:48.999Z</time></trkpt><trkpt lat="43.3964867692986" lon="10.90501335068733"><ele>264.0</ele><time>2026-04-18T09:22:49.999Z</time></trkpt><trkpt lat="43.39654172930927" lon="10.904799500122385"><ele>264.2</ele><time>2026-04-18T09:22:50.999Z</time></trkpt><trkpt lat="43.396538424630315" lon="10.904626307391428"><ele>264.4</ele><time>2026-04-18T09:22:51.999Z</time></trkpt><trkpt lat="43.396516325738176" lon="10.904460609833057"><ele>264.6</ele><time>2026-04-18T09:22:52.999Z</time></trkpt><trkpt lat="43.396494900791964" lon="10.904343485059156"><ele>264.8</ele><time>2026-04-18T09:22:53.999Z</time></trkpt><trkpt lat="43.39644893462809" lon="10.904221063005588"><ele>265.0</ele><time>2026-04-18T09:22:54.999Z</time></trkpt><trkpt lat="43.39639638705639" lon="10.90405584103941"><ele>264.2</ele><time>2026-04-18T09:22:55.999Z</time></trkpt><trkpt lat="43.39635830348774" lon="10.903934693810369"><ele>263.4</ele><time>2026-04-18T09:22:56.999Z</time></trkpt><trkpt lat="43.39632683761118" lon="10.90378823741867"><ele>262.6</ele><time>2026-04-18T09:22:57.999Z</time></trkpt><trkpt lat="43.39631368474191" lon="10.903630542170584"><ele>261.8</ele><time>2026-04-18T09:22:58.999Z</time></trkpt><trkpt lat="43.39632084750686" lon="10.903466221522205"><ele>261.0</ele><time>2026-04-18T09:22:59.999Z</time></trkpt><trkpt lat="43.39634145534098" lon="10.903319273780305"><ele>258.40000000000003</ele><time>2026-04-18T09:23:00.999Z</time></trkpt><trkpt lat="43.39634251919527" lon="10.903148132543325"><ele>255.8</ele><time>2026-04-18T09:23:01.999Z</time></trkpt><trkpt lat="43.39636338733211" lon="10.90303461795856"><ele>253.20000000000002</ele><time>2026-04-18T09:23:02.999Z</time></trkpt><trkpt lat="43.39641499334313" lon="10.90291033408486"><ele>250.60000000000002</ele><time>2026-04-18T09:23:03.999Z</time></trkpt><trkpt lat="43.39650513600237" lon="10.902882841728834"><ele>248.0</ele><time>2026-04-18T09:23:04.999Z</time></trkpt><trkpt lat="43.39659301467887" lon="10.902800276926293"><ele>248.00000000000003</ele><time>2026-04-18T09:23:05.999Z</time></trkpt><trkpt lat="43.39665254819691" lon="10.902730765264645"><ele>248.0</ele><time>2026-04-18T09:23:06.999Z</time></trkpt><trkpt lat="43.396679438300936" lon="10.90264032772825"><ele>248.0</ele><time>2026-04-18T09:23:07.999Z</time></trkpt><trkpt lat="43.39665081065026" lon="10.902529175778486"><ele>248.0</ele><time>2026-04-18T09:23:08.999Z</time></trkpt><trkpt lat="43.39658527593637" lon="10.902446922592844"><ele>248.00000000000003</ele><time>2026-04-18T09:23:09.999Z</time></trkpt><trkpt lat="43.39649035297118" lon="10.902420938714677"><ele>248.0</ele><time>2026-04-18T09:23:10.999Z</time></trkpt><trkpt lat="43.39637162409895" lon="10.902444152242461"><ele>244.75</ele><time>2026-04-18T09:23:11.999Z</time></trkpt><trkpt lat="43.39625970954688" lon="10.902502513171532"><ele>241.5</ele><time>2026-04-18T09:23:12.999Z</time></trkpt><trkpt lat="43.39616502778341" lon="10.902587803066028"><ele>238.25</ele><time>2026-04-18T09:23:13.999Z</time></trkpt><trkpt lat="43.396087729275386" lon="10.9027039505895"><ele>235.0</ele><time>2026-04-18T09:23:14.999Z</time></trkpt><trkpt lat="43.396025021852765" lon="10.902827832746413"><ele>234.99999999999997</ele><time>2026-04-18T09:23:15.999Z</time></trkpt><trkpt lat="43.3959725690337" lon="10.902897302837363"><ele>235.0</ele><time>2026-04-18T09:23:16.999Z</time></trkpt><trkpt lat="43.39595377105005" lon="10.902997574168227"><ele>235.0</ele><time>2026-04-18T09:23:17.999Z</time></trkpt><trkpt lat="43.39587788729101" lon="10.903084303477526"><ele>235.0</ele><time>2026-04-18T09:23:18.999Z</time></trkpt><trkpt lat="43.39583036557123" lon="10.903181081158873"><ele>234.99999999999997</ele><time>2026-04-18T09:23:19.999Z</time></trkpt><trkpt lat="43.395806608386934" lon="10.903323703943766"><ele>235.0</ele><time>2026-04-18T09:23:20.999Z</time></trkpt><trkpt lat="43.3958113392556" lon="10.903450559215877"><ele>235.83333333333331</ele><time>2026-04-18T09:23:21.999Z</time></trkpt><trkpt lat="43.39581993244779" lon="10.903576706377622"><ele>236.66666666666666</ele><time>2026-04-18T09:23:22.999Z</time></trkpt><trkpt lat="43.395818765271024" lon="10.903683307391887"><ele>237.5</ele><time>2026-04-18T09:23:23.999Z</time></trkpt><trkpt lat="43.395812657381796" lon="10.90377479911074"><ele>238.33333333333331</ele><time>2026-04-18T09:23:24.999Z</time></trkpt><trkpt lat="43.395723168489866" lon="10.903874780594203"><ele>239.16666666666666</ele><time>2026-04-18T09:23:26.999Z</time></trkpt><trkpt lat="43.39564762146644" lon="10.903858366556008"><ele>240.0</ele><time>2026-04-18T09:23:27.999Z</time></trkpt><trkpt lat="43.39560019850486" lon="10.903795559448547"><ele>240.0</ele><time>2026-04-18T09:23:29Z</time></trkpt><trkpt lat="43.395576443642426" lon="10.90368296066093"><ele>240.0</ele><time>2026-04-18T09:23:30Z</time></trkpt><trkpt lat="43.3955572232255" lon="10.903507436681807"><ele>240.0</ele><time>2026-04-18T09:23:31Z</time></trkpt><trkpt lat="43.395542225640654" lon="10.90333762204932"><ele>240.0</ele><time>2026-04-18T09:23:32Z</time></trkpt><trkpt lat="43.39552948758572" lon="10.903148068874424"><ele>239.0</ele><time>2026-04-18T09:23:33Z</time></trkpt><trkpt lat="43.39551849538469" lon="10.902972378292876"><ele>238.0</ele><time>2026-04-18T09:23:34Z</time></trkpt><trkpt lat="43.39552271198208" lon="10.90283601157385"><ele>237.0</ele><time>2026-04-18T09:23:35Z</time></trkpt><trkpt lat="43.39552741693109" lon="10.902697795274271"><ele>236.0</ele><time>2026-04-18T09:23:36Z</time></trkpt><trkpt lat="43.395498984400376" lon="10.90259359035113"><ele>235.0</ele><time>2026-04-18T09:23:37Z</time></trkpt><trkpt lat="43.395437773073034" lon="10.902554979232162"><ele>234.4</ele><time>2026-04-18T09:23:38Z</time></trkpt><trkpt lat="43.39538295575996" lon="10.902508878466728"><ele>233.8</ele><time>2026-04-18T09:23:39Z</time></trkpt><trkpt lat="43.39527039423677" lon="10.902581280233075"><ele>233.2</ele><time>2026-04-18T09:23:40Z</time></trkpt><trkpt lat="43.39515081544697" lon="10.902572309629134"><ele>232.6</ele><time>2026-04-18T09:23:41Z</time></trkpt><trkpt lat="43.39503467604607" lon="10.902564394332485"><ele>232.0</ele><time>2026-04-18T09:23:42Z</time></trkpt><trkpt lat="43.39491911609965" lon="10.90254484333584"><ele>231.49999999999997</ele><time>2026-04-18T09:23:43Z</time></trkpt><trkpt lat="43.39485757188759" lon="10.90252351317091"><ele>231.0</ele><time>2026-04-18T09:23:44Z</time></trkpt><trkpt lat="43.39480386202351" lon="10.902473592225466"><ele>230.5</ele><time>2026-04-18T09:23:45Z</time></trkpt><trkpt lat="43.394801728883955" lon="10.902363329531855"><ele>230.0</ele><time>2026-04-18T09:23:46Z</time></trkpt><trkpt lat="43.3948382081714" lon="10.902248657505714"><ele>229.49999999999997</ele><time>2026-04-18T09:23:47Z</time></trkpt><trkpt lat="43.394917532865136" lon="10.90215409947328"><ele>229.0</ele><time>2026-04-18T09:23:48Z</time></trkpt><trkpt lat="43.39499338081445" lon="10.902020838614142"><ele>229.0</ele><time>2026-04-18T09:23:49Z</time></trkpt><trkpt lat="43.39507670174289" lon="10.901825147260363"><ele>229.0</ele><time>2026-04-18T09:23:50Z</time></trkpt><trkpt lat="43.395150122758345" lon="10.90163579501292"><ele>229.0</ele><time>2026-04-18T09:23:51Z</time></trkpt><trkpt lat="43.395209052582175" lon="10.901467538144892"><ele>229.25</ele><time>2026-04-18T09:23:52Z</time></trkpt><trkpt lat="43.395233822359806" lon="10.901306876209683"><ele>229.5</ele><time>2026-04-18T09:23:53Z</time></trkpt><trkpt lat="43.395247686960666" lon="10.901098469266742"><ele>229.75</ele><time>2026-04-18T09:23:54Z</time></trkpt><trkpt lat="43.39522267586468" lon="10.900909373979179"><ele>230.0</ele><time>2026-04-18T09:23:55Z</time></trkpt><trkpt lat="43.39520282268314" lon="10.90074611263189"><ele>231.75</ele><time>2026-04-18T09:23:56Z</time></trkpt><trkpt lat="43.39522470200548" lon="10.900583088743282"><ele>233.5</ele><time>2026-04-18T09:23:57Z</time></trkpt><trkpt lat="43.39526689169102" lon="10.900413184245146"><ele>235.25</ele><time>2026-04-18T09:23:58Z</time></trkpt><trkpt lat="43.39531670188176" lon="10.900228537139913"><ele>237.0</ele><time>2026-04-18T09:23:59Z</time></trkpt><trkpt lat="43.39533856675884" lon="10.900061520407435"><ele>239.5</ele><time>2026-04-18T09:24:00Z</time></trkpt><trkpt lat="43.39541885911012" lon="10.8999300383812"><ele>242.0</ele><time>2026-04-18T09:24:01Z</time></trkpt><trkpt lat="43.39545991572336" lon="10.899747698151746"><ele>244.5</ele><time>2026-04-18T09:24:02Z</time></trkpt><trkpt lat="43.39543976774606" lon="10.899525247761796"><ele>247.0</ele><time>2026-04-18T09:24:03Z</time></trkpt><trkpt lat="43.395480703349364" lon="10.899370980851238"><ele>245.5</ele><time>2026-04-18T09:24:04Z</time></trkpt><trkpt lat="43.39556904914248" lon="10.89926012998499"><ele>244.0</ele><time>2026-04-18T09:24:05Z</time></trkpt><trkpt lat="43.39565330755288" lon="10.899137624954676"><ele>242.5</ele><time>2026-04-18T09:24:06Z</time></trkpt><trkpt lat="43.39574846619538" lon="10.898980155315291"><ele>241.0</ele><time>2026-04-18T09:24:07Z</time></trkpt><trkpt lat="43.39584781357042" lon="10.89882493674304"><ele>241.0</ele><time>2026-04-18T09:24:08Z</time></trkpt><trkpt lat="43.395918817288816" lon="10.898724765871753"><ele>241.00000000000003</ele><time>2026-04-18T09:24:09Z</time></trkpt><trkpt lat="43.39598467798256" lon="10.89863744320944"><ele>241.00000000000003</ele><time>2026-04-18T09:24:10Z</time></trkpt><trkpt lat="43.396031752970835" lon="10.898520477978993"><ele>241.0</ele><time>2026-04-18T09:24:11Z</time></trkpt><trkpt lat="43.39606868025173" lon="10.898359948287553"><ele>241.0</ele><time>2026-04-18T09:24:12Z</time></trkpt><trkpt lat="43.39610377660174" lon="10.898268518567985"><ele>241.25</ele><time>2026-04-18T09:24:13Z</time></trkpt><trkpt lat="43.39612991992739" lon="10.898181237605279"><ele>241.5</ele><time>2026-04-18T09:24:14Z</time></trkpt><trkpt lat="43.396245314958115" lon="10.898043940374048"><ele>241.75</ele><time>2026-04-18T09:24:15Z</time></trkpt><trkpt lat="43.396362150308235" lon="10.897963151218146"><ele>242.0</ele><time>2026-04-18T09:24:16Z</time></trkpt><trkpt lat="43.396480223532265" lon="10.897883854657854"><ele>242.0</ele><time>2026-04-18T09:24:17Z</time></trkpt><trkpt lat="43.39659528552411" lon="10.897783083217078"><ele>242.0</ele><time>2026-04-18T09:24:18Z</time></trkpt><trkpt lat="43.39668170958159" lon="10.897696893114691"><ele>242.0</ele><time>2026-04-18T09:24:19Z</time></trkpt><trkpt lat="43.39675245089818" lon="10.897604688376372"><ele>242.0</ele><time>2026-04-18T09:24:19.999Z</time></trkpt><trkpt lat="43.396803933665694" lon="10.897487188917172"><ele>242.0</ele><time>2026-04-18T09:24:20.999Z</time></trkpt><trkpt lat="43.39683378052199" lon="10.897349866471899"><ele>245.5</ele><time>2026-04-18T09:24:21.999Z</time></trkpt><trkpt lat="43.39684478061741" lon="10.897154027579733"><ele>249.0</ele><time>2026-04-18T09:24:22.999Z</time></trkpt><trkpt lat="43.39687710988329" lon="10.896966424024823"><ele>252.5</ele><time>2026-04-18T09:24:23.999Z</time></trkpt><trkpt lat="43.39693887417939" lon="10.896827049603845"><ele>256.0</ele><time>2026-04-18T09:24:24.999Z</time></trkpt><trkpt lat="43.39699296072168" lon="10.896714092898259"><ele>255.5</ele><time>2026-04-18T09:24:25.999Z</time></trkpt><trkpt lat="43.39703937178484" lon="10.896555517674289"><ele>255.0</ele><time>2026-04-18T09:24:26.999Z</time></trkpt><trkpt lat="43.39706926081772" lon="10.89640191065418"><ele>254.5</ele><time>2026-04-18T09:24:27.999Z</time></trkpt><trkpt lat="43.397121332912626" lon="10.89622814211552"><ele>254.0</ele><time>2026-04-18T09:24:28.999Z</time></trkpt><trkpt lat="43.39719476683965" lon="10.896066491042587"><ele>254.0</ele><time>2026-04-18T09:24:29.999Z</time></trkpt><trkpt lat="43.3972546633275" lon="10.895922982317305"><ele>254.0</ele><time>2026-04-18T09:24:30.999Z</time></trkpt><trkpt lat="43.39728717044718" lon="10.89574564689636"><ele>254.0</ele><time>2026-04-18T09:24:31.999Z</time></trkpt><trkpt lat="43.397304849841206" lon="10.895541122315208"><ele>254.0</ele><time>2026-04-18T09:24:32.999Z</time></trkpt><trkpt lat="43.39733938751831" lon="10.895335507905465"><ele>255.75</ele><time>2026-04-18T09:24:33.999Z</time></trkpt><trkpt lat="43.397416444453874" lon="10.895157525827768"><ele>257.5</ele><time>2026-04-18T09:24:34.999Z</time></trkpt><trkpt lat="43.39751202111394" lon="10.895007591429891"><ele>259.25</ele><time>2026-04-18T09:24:35.999Z</time></trkpt><trkpt lat="43.39760035545571" lon="10.894889587989447"><ele>261.0</ele><time>2026-04-18T09:24:36.999Z</time></trkpt><trkpt lat="43.39770351840501" lon="10.894778383046518"><ele>260.25</ele><time>2026-04-18T09:24:37.999Z</time></trkpt><trkpt lat="43.39782132017904" lon="10.894685791693194"><ele>259.5</ele><time>2026-04-18T09:24:38.999Z</time></trkpt><trkpt lat="43.39794636680796" lon="10.894615972668337"><ele>258.75</ele><time>2026-04-18T09:24:39.999Z</time></trkpt><trkpt lat="43.39806346840319" lon="10.894522175268486"><ele>258.0</ele><time>2026-04-18T09:24:40.999Z</time></trkpt><trkpt lat="43.39817690722993" lon="10.894423665767146"><ele>258.0</ele><time>2026-04-18T09:24:41.999Z</time></trkpt><trkpt lat="43.39827453497691" lon="10.894287941885501"><ele>258.0</ele><time>2026-04-18T09:24:42.999Z</time></trkpt><trkpt lat="43.39834477800043" lon="10.89414670385213"><ele>258.0</ele><time>2026-04-18T09:24:43.999Z</time></trkpt><trkpt lat="43.3984303332206" lon="10.893945226134415"><ele>258.0</ele><time>2026-04-18T09:24:44.999Z</time></trkpt><trkpt lat="43.39851645101807" lon="10.893815595161525"><ele>262.0</ele><time>2026-04-18T09:24:45.999Z</time></trkpt><trkpt lat="43.3986144072946" lon="10.893717578731247"><ele>266.0</ele><time>2026-04-18T09:24:46.999Z</time></trkpt><trkpt lat="43.39870728936444" lon="10.89360436193369"><ele>270.0</ele><time>2026-04-18T09:24:47.999Z</time></trkpt><trkpt lat="43.3987905934545" lon="10.89352034678591"><ele>274.0</ele><time>2026-04-18T09:24:48.999Z</time></trkpt><trkpt lat="43.39888510684113" lon="10.89339672126143"><ele>275.5</ele><time>2026-04-18T09:24:49.999Z</time></trkpt><trkpt lat="43.39897459521141" lon="10.893311286183508"><ele>277.0</ele><time>2026-04-18T09:24:50.999Z</time></trkpt><trkpt lat="43.3990974830909" lon="10.893251465827271"><ele>278.5</ele><time>2026-04-18T09:24:51.999Z</time></trkpt><trkpt lat="43.399215024513076" lon="10.893225870486168"><ele>280.0</ele><time>2026-04-18T09:24:52.999Z</time></trkpt><trkpt lat="43.399330609085105" lon="10.89321799556312"><ele>280.0</ele><time>2026-04-18T09:24:53.999Z</time></trkpt><trkpt lat="43.39943194848797" lon="10.893221488634632"><ele>280.0</ele><time>2026-04-18T09:24:54.999Z</time></trkpt><trkpt lat="43.39951799845708" lon="10.893229083342801"><ele>280.0</ele><time>2026-04-18T09:24:55.999Z</time></trkpt><trkpt lat="43.39957945620315" lon="10.893180912302128"><ele>280.0</ele><time>2026-04-18T09:24:56.999Z</time></trkpt><trkpt lat="43.39962747819921" lon="10.893086424650075"><ele>280.0</ele><time>2026-04-18T09:24:57.999Z</time></trkpt><trkpt lat="43.399664238708155" lon="10.892964400582537"><ele>280.0</ele><time>2026-04-18T09:24:58.999Z</time></trkpt><trkpt lat="43.399685430498614" lon="10.892871802676892"><ele>280.0</ele><time>2026-04-18T09:24:59.999Z</time></trkpt><trkpt lat="43.399699097524994" lon="10.892780820636336"><ele>280.0</ele><time>2026-04-18T09:25:01.999Z</time></trkpt><trkpt lat="43.39964465436602" lon="10.892731948635397"><ele>280.0</ele><time>2026-04-18T09:25:03.999Z</time></trkpt><trkpt lat="43.399550850797056" lon="10.892815355271487"><ele>280.0</ele><time>2026-04-18T09:25:05.999Z</time></trkpt><trkpt lat="43.39949589229815" lon="10.892908806178664"><ele>280.0</ele><time>2026-04-18T09:25:06.999Z</time></trkpt><trkpt lat="43.39940686610807" lon="10.892982569727856"><ele>280.0</ele><time>2026-04-18T09:25:07.999Z</time></trkpt><trkpt lat="43.399289251454974" lon="10.892994449198325"><ele>280.0</ele><time>2026-04-18T09:25:08.999Z</time></trkpt><trkpt lat="43.39915923960942" lon="10.892980911834531"><ele>280.0</ele><time>2026-04-18T09:25:09.999Z</time></trkpt><trkpt lat="43.39901401183534" lon="10.892981111464044"><ele>280.0</ele><time>2026-04-18T09:25:10.999Z</time></trkpt><trkpt lat="43.398884735215006" lon="10.892991548440115"><ele>280.0</ele><time>2026-04-18T09:25:11.999Z</time></trkpt><trkpt lat="43.39873463143978" lon="10.893011510747401"><ele>283.5</ele><time>2026-04-18T09:25:12.999Z</time></trkpt><trkpt lat="43.39859245648127" lon="10.89304344415001"><ele>287.0</ele><time>2026-04-18T09:25:13.999Z</time></trkpt><trkpt lat="43.398455681110235" lon="10.89311413819342"><ele>290.5</ele><time>2026-04-18T09:25:14.999Z</time></trkpt><trkpt lat="43.39831565086814" lon="10.893187667752162"><ele>294.0</ele><time>2026-04-18T09:25:15.999Z</time></trkpt><trkpt lat="43.398180574114164" lon="10.893235486587251"><ele>294.0</ele><time>2026-04-18T09:25:16.999Z</time></trkpt><trkpt lat="43.398051319437386" lon="10.893279768722003"><ele>294.0</ele><time>2026-04-18T09:25:17.999Z</time></trkpt><trkpt lat="43.39792983509923" lon="10.893314545272325"><ele>294.0</ele><time>2026-04-18T09:25:18.999Z</time></trkpt><trkpt lat="43.39776624931971" lon="10.893310395618393"><ele>294.0</ele><time>2026-04-18T09:25:19.999Z</time></trkpt><trkpt lat="43.39761382108577" lon="10.893309658593513"><ele>296.25</ele><time>2026-04-18T09:25:20.999Z</time></trkpt><trkpt lat="43.39746916709158" lon="10.89329751980195"><ele>298.5</ele><time>2026-04-18T09:25:21.999Z</time></trkpt><trkpt lat="43.397319691607784" lon="10.893298261820398"><ele>300.75</ele><time>2026-04-18T09:25:22.999Z</time></trkpt><trkpt lat="43.39717573781586" lon="10.893300481969826"><ele>303.0</ele><time>2026-04-18T09:25:23.999Z</time></trkpt><trkpt lat="43.39703446921727" lon="10.89331813511063"><ele>301.0</ele><time>2026-04-18T09:25:24.999Z</time></trkpt><trkpt lat="43.396878519795294" lon="10.893368253106425"><ele>299.0</ele><time>2026-04-18T09:25:25.999Z</time></trkpt><trkpt lat="43.396731617709584" lon="10.893456552892033"><ele>297.0</ele><time>2026-04-18T09:25:26.999Z</time></trkpt><trkpt lat="43.396586132944" lon="10.89353953985642"><ele>297.0</ele><time>2026-04-18T09:25:27.999Z</time></trkpt><trkpt lat="43.396449637408104" lon="10.89362042225728"><ele>297.0</ele><time>2026-04-18T09:25:28.999Z</time></trkpt><trkpt lat="43.39631873130652" lon="10.893706082331835"><ele>297.0</ele><time>2026-04-18T09:25:29.999Z</time></trkpt><trkpt lat="43.39619577704116" lon="10.89378324006307"><ele>297.0</ele><time>2026-04-18T09:25:30.999Z</time></trkpt><trkpt lat="43.396064699323716" lon="10.893859817908838"><ele>300.5</ele><time>2026-04-18T09:25:31.999Z</time></trkpt><trkpt lat="43.39593613046657" lon="10.893940824580383"><ele>304.0</ele><time>2026-04-18T09:25:32.999Z</time></trkpt><trkpt lat="43.395803501065586" lon="10.894018138195502"><ele>307.5</ele><time>2026-04-18T09:25:33.999Z</time></trkpt><trkpt lat="43.395674044902876" lon="10.894103240747368"><ele>311.0</ele><time>2026-04-18T09:25:35Z</time></trkpt><trkpt lat="43.39554698465592" lon="10.894180237008303"><ele>312.25</ele><time>2026-04-18T09:25:36Z</time></trkpt><trkpt lat="43.395429021177286" lon="10.89426197573277"><ele>313.5</ele><time>2026-04-18T09:25:37Z</time></trkpt><trkpt lat="43.395305060463215" lon="10.894325831992791"><ele>314.75</ele><time>2026-04-18T09:25:38Z</time></trkpt><trkpt lat="43.39519200288" lon="10.894401937244421"><ele>316.0</ele><time>2026-04-18T09:25:39Z</time></trkpt><trkpt lat="43.39508369523869" lon="10.894504138491463"><ele>316.0</ele><time>2026-04-18T09:25:40Z</time></trkpt><trkpt lat="43.39496806826125" lon="10.894600083844898"><ele>316.0</ele><time>2026-04-18T09:25:41Z</time></trkpt><trkpt lat="43.394858292608696" lon="10.894710182034409"><ele>316.0</ele><time>2026-04-18T09:25:42Z</time></trkpt><trkpt lat="43.394745404154186" lon="10.894801936441144"><ele>316.0</ele><time>2026-04-18T09:25:43Z</time></trkpt><trkpt lat="43.39465444716427" lon="10.894933256036122"><ele>318.0</ele><time>2026-04-18T09:25:44Z</time></trkpt><trkpt lat="43.394548098044424" lon="10.895050712908906"><ele>320.0</ele><time>2026-04-18T09:25:45Z</time></trkpt><trkpt lat="43.39443963363525" lon="10.895162838041285"><ele>322.0</ele><time>2026-04-18T09:25:46Z</time></trkpt><trkpt lat="43.39432580951713" lon="10.895267886091972"><ele>324.0</ele><time>2026-04-18T09:25:47Z</time></trkpt><trkpt lat="43.39420670779587" lon="10.895366865690157"><ele>324.0</ele><time>2026-04-18T09:25:48Z</time></trkpt><trkpt lat="43.39408551445746" lon="10.895455030976688"><ele>324.0</ele><time>2026-04-18T09:25:49Z</time></trkpt><trkpt lat="43.39396425593302" lon="10.895539293387253"><ele>324.0</ele><time>2026-04-18T09:25:50Z</time></trkpt><trkpt lat="43.39384208177739" lon="10.895617923502616"><ele>324.0</ele><time>2026-04-18T09:25:51Z</time></trkpt><trkpt lat="43.393715954826014" lon="10.895687418083199"><ele>326.25</ele><time>2026-04-18T09:25:52Z</time></trkpt><trkpt lat="43.39358277006883" lon="10.895749285007778"><ele>328.5</ele><time>2026-04-18T09:25:53Z</time></trkpt><trkpt lat="43.393446523430725" lon="10.895799184784721"><ele>330.75</ele><time>2026-04-18T09:25:54Z</time></trkpt><trkpt lat="43.39330843630273" lon="10.895834740170839"><ele>333.0</ele><time>2026-04-18T09:25:55Z</time></trkpt><trkpt lat="43.39317000908381" lon="10.895861647254621"><ele>333.0</ele><time>2026-04-18T09:25:56Z</time></trkpt><trkpt lat="43.39303252373901" lon="10.89587693751229"><ele>333.0</ele><time>2026-04-18T09:25:57Z</time></trkpt><trkpt lat="43.392915204584945" lon="10.895877071012292"><ele>333.0</ele><time>2026-04-18T09:25:58Z</time></trkpt><trkpt lat="43.39280876427913" lon="10.89586872798202"><ele>333.0</ele><time>2026-04-18T09:25:59Z</time></trkpt><trkpt lat="43.392713847662634" lon="10.895859145774349"><ele>333.0</ele><time>2026-04-18T09:26:00Z</time></trkpt><trkpt lat="43.39263012552646" lon="10.895824766244822"><ele>333.0</ele><time>2026-04-18T09:26:01Z</time></trkpt><trkpt lat="43.392560918122236" lon="10.895781792390347"><ele>333.0</ele><time>2026-04-18T09:26:02Z</time></trkpt><trkpt lat="43.392504523977955" lon="10.895738923828363"><ele>333.0</ele><time>2026-04-18T09:26:09Z</time></trkpt><trkpt lat="43.39235196223368" lon="10.895875560144166"><ele>333.0</ele><time>2026-04-18T09:28:03Z</time></trkpt><trkpt lat="43.392316216023445" lon="10.896014170022982"><ele>331.6666666666667</ele><time>2026-04-18T09:28:04Z</time></trkpt><trkpt lat="43.392267452397164" lon="10.896186281403692"><ele>330.33333333333337</ele><time>2026-04-18T09:28:05Z</time></trkpt><trkpt lat="43.39219980498679" lon="10.896376459275041"><ele>329.0</ele><time>2026-04-18T09:28:06Z</time></trkpt><trkpt lat="43.39210139732467" lon="10.89660924875281"><ele>328.33333333333337</ele><time>2026-04-18T09:28:07Z</time></trkpt><trkpt lat="43.39198873549178" lon="10.896845240554173"><ele>327.6666666666667</ele><time>2026-04-18T09:28:08Z</time></trkpt><trkpt lat="43.39183290271417" lon="10.897086520924557"><ele>327.0</ele><time>2026-04-18T09:28:09Z</time></trkpt><trkpt lat="43.39166977468588" lon="10.897323508901144"><ele>327.0</ele><time>2026-04-18T09:28:10Z</time></trkpt><trkpt lat="43.391497048183886" lon="10.897565012840495"><ele>327.0</ele><time>2026-04-18T09:28:11Z</time></trkpt><trkpt lat="43.39131549634565" lon="10.897799976782899"><ele>329.0</ele><time>2026-04-18T09:28:12Z</time></trkpt><trkpt lat="43.391140020758314" lon="10.89802505161861"><ele>331.0</ele><time>2026-04-18T09:28:13Z</time></trkpt><trkpt lat="43.39097880206673" lon="10.89821865427983"><ele>331.0</ele><time>2026-04-18T09:28:14Z</time></trkpt><trkpt lat="43.390829522846396" lon="10.898387791104442"><ele>331.0</ele><time>2026-04-18T09:28:15Z</time></trkpt><trkpt lat="43.39069011538371" lon="10.898527538507347"><ele>331.0</ele><time>2026-04-18T09:28:16Z</time></trkpt><trkpt lat="43.3905645628955" lon="10.89865891177203"><ele>334.0</ele><time>2026-04-18T09:28:17Z</time></trkpt><trkpt lat="43.39044791381902" lon="10.89882462974552"><ele>337.0</ele><time>2026-04-18T09:28:18Z</time></trkpt><trkpt lat="43.390325386686854" lon="10.898998770133698"><ele>340.0</ele><time>2026-04-18T09:28:19Z</time></trkpt><trkpt lat="43.39019840603572" lon="10.899204595891279"><ele>339.66666666666663</ele><time>2026-04-18T09:28:20Z</time></trkpt><trkpt lat="43.390066081206015" lon="10.899422896663056"><ele>339.3333333333333</ele><time>2026-04-18T09:28:21Z</time></trkpt><trkpt lat="43.389934443029084" lon="10.899630959646018"><ele>339.0</ele><time>2026-04-18T09:28:22Z</time></trkpt><trkpt lat="43.389814589987964" lon="10.899808376908776"><ele>339.0</ele><time>2026-04-18T09:28:23Z</time></trkpt><trkpt lat="43.389691927854045" lon="10.89998243350669"><ele>339.0</ele><time>2026-04-18T09:28:24Z</time></trkpt><trkpt lat="43.389561919263436" lon="10.900163509327388"><ele>339.0</ele><time>2026-04-18T09:28:25Z</time></trkpt><trkpt lat="43.38942310154642" lon="10.900342670749007"><ele>340.0</ele><time>2026-04-18T09:28:26Z</time></trkpt><trkpt lat="43.38927604997039" lon="10.900547809076668"><ele>341.0</ele><time>2026-04-18T09:28:27Z</time></trkpt><trkpt lat="43.38912453141987" lon="10.900754418088352"><ele>342.0</ele><time>2026-04-18T09:28:28Z</time></trkpt><trkpt lat="43.388973589362145" lon="10.900960077613705"><ele>344.3333333333333</ele><time>2026-04-18T09:28:28.999Z</time></trkpt><trkpt lat="43.38882879104478" lon="10.901161668624237"><ele>346.66666666666663</ele><time>2026-04-18T09:28:29.999Z</time></trkpt><trkpt lat="43.38870532963798" lon="10.901333965927224"><ele>349.0</ele><time>2026-04-18T09:28:30.999Z</time></trkpt><trkpt lat="43.3885820233196" lon="10.901519617685494"><ele>349.0</ele><time>2026-04-18T09:28:31.999Z</time></trkpt><trkpt lat="43.38846251008809" lon="10.901702191909182"><ele>349.0</ele><time>2026-04-18T09:28:32.999Z</time></trkpt><trkpt lat="43.38834331205129" lon="10.901880361728086"><ele>349.0</ele><time>2026-04-18T09:28:33.999Z</time></trkpt><trkpt lat="43.38820422796699" lon="10.902051439593716"><ele>349.0</ele><time>2026-04-18T09:28:34.999Z</time></trkpt><trkpt lat="43.38805273250403" lon="10.90220588393366"><ele>349.0</ele><time>2026-04-18T09:28:35.999Z</time></trkpt><trkpt lat="43.38791004637532" lon="10.902354330145466"><ele>349.0</ele><time>2026-04-18T09:28:36.999Z</time></trkpt><trkpt lat="43.38777887010759" lon="10.902492997104117"><ele>351.3333333333333</ele><time>2026-04-18T09:28:37.999Z</time></trkpt><trkpt lat="43.38764979082706" lon="10.902623601034456"><ele>353.6666666666667</ele><time>2026-04-18T09:28:38.999Z</time></trkpt><trkpt lat="43.38752337800476" lon="10.902730285870922"><ele>356.0</ele><time>2026-04-18T09:28:39.999Z</time></trkpt><trkpt lat="43.387386798795426" lon="10.9028160600764"><ele>356.0</ele><time>2026-04-18T09:28:40.999Z</time></trkpt><trkpt lat="43.38725127493182" lon="10.902882841069172"><ele>356.0</ele><time>2026-04-18T09:28:41.999Z</time></trkpt><trkpt lat="43.38712345238383" lon="10.902933667685911"><ele>356.0</ele><time>2026-04-18T09:28:42.999Z</time></trkpt><trkpt lat="43.38699437216225" lon="10.902982778546324"><ele>356.0</ele><time>2026-04-18T09:28:43.999Z</time></trkpt><trkpt lat="43.386858142627695" lon="10.903014974642103"><ele>358.25</ele><time>2026-04-18T09:28:44.999Z</time></trkpt><trkpt lat="43.38672607190099" lon="10.903023930406775"><ele>360.5</ele><time>2026-04-18T09:28:45.999Z</time></trkpt><trkpt lat="43.38660586633748" lon="10.903031475691636"><ele>362.75</ele><time>2026-04-18T09:28:46.999Z</time></trkpt><trkpt lat="43.38650476114437" lon="10.903087523432294"><ele>365.0</ele><time>2026-04-18T09:28:47.999Z</time></trkpt><trkpt lat="43.38641798995585" lon="10.903187966628433"><ele>365.0</ele><time>2026-04-18T09:28:48.999Z</time></trkpt><trkpt lat="43.38636684496751" lon="10.903353773587805"><ele>365.0</ele><time>2026-04-18T09:28:49.999Z</time></trkpt><trkpt lat="43.38639558758782" lon="10.903571486866618"><ele>365.0</ele><time>2026-04-18T09:28:50.999Z</time></trkpt><trkpt lat="43.38641672707551" lon="10.903784717568708"><ele>365.0</ele><time>2026-04-18T09:28:51.999Z</time></trkpt><trkpt lat="43.38643640505134" lon="10.904031284609902"><ele>365.5</ele><time>2026-04-18T09:28:52.999Z</time></trkpt><trkpt lat="43.38644802017536" lon="10.904227463122748"><ele>366.0</ele><time>2026-04-18T09:28:53.999Z</time></trkpt><trkpt lat="43.38644448043545" lon="10.904417501934779"><ele>366.5</ele><time>2026-04-18T09:28:54.999Z</time></trkpt><trkpt lat="43.38641823554329" lon="10.904600330766483"><ele>367.0</ele><time>2026-04-18T09:28:55.999Z</time></trkpt><trkpt lat="43.38633051195961" lon="10.904731636345405"><ele>369.75</ele><time>2026-04-18T09:28:56.999Z</time></trkpt><trkpt lat="43.386225875253245" lon="10.90483902651515"><ele>372.5</ele><time>2026-04-18T09:28:57.999Z</time></trkpt><trkpt lat="43.38613424007859" lon="10.90495501757413"><ele>375.25</ele><time>2026-04-18T09:28:58.999Z</time></trkpt><trkpt lat="43.386077934740776" lon="10.905129825544481"><ele>378.0</ele><time>2026-04-18T09:28:59.999Z</time></trkpt><trkpt lat="43.38609491049428" lon="10.905336423124997"><ele>379.5</ele><time>2026-04-18T09:29:00.999Z</time></trkpt><trkpt lat="43.38612688031454" lon="10.905526702430329"><ele>381.0</ele><time>2026-04-18T09:29:01.999Z</time></trkpt><trkpt lat="43.38615074269093" lon="10.905713780692103"><ele>382.5</ele><time>2026-04-18T09:29:02.999Z</time></trkpt><trkpt lat="43.386166748028515" lon="10.905871118763248"><ele>384.0</ele><time>2026-04-18T09:29:03.999Z</time></trkpt><trkpt lat="43.386176223647034" lon="10.90601325867879"><ele>385.0</ele><time>2026-04-18T09:29:04.999Z</time></trkpt><trkpt lat="43.38617918417988" lon="10.906153920818197"><ele>386.0</ele><time>2026-04-18T09:29:05.999Z</time></trkpt><trkpt lat="43.38618449132737" lon="10.90629232834084"><ele>387.0</ele><time>2026-04-18T09:29:06.999Z</time></trkpt><trkpt lat="43.38616492423699" lon="10.906406472123985"><ele>388.0</ele><time>2026-04-18T09:29:07.999Z</time></trkpt><trkpt lat="43.386122960796975" lon="10.906497873849757"><ele>389.0</ele><time>2026-04-18T09:29:08.999Z</time></trkpt><trkpt lat="43.386051797963205" lon="10.906552795288288"><ele>390.0</ele><time>2026-04-18T09:29:09.999Z</time></trkpt><trkpt lat="43.38595614428056" lon="10.90659726363862"><ele>390.0</ele><time>2026-04-18T09:29:10.999Z</time></trkpt><trkpt lat="43.385840949813" lon="10.906606286085156"><ele>390.0</ele><time>2026-04-18T09:29:11.999Z</time></trkpt><trkpt lat="43.385716753573604" lon="10.90656130590658"><ele>390.0</ele><time>2026-04-18T09:29:12.999Z</time></trkpt><trkpt lat="43.38561173149084" lon="10.906479593942345"><ele>390.0</ele><time>2026-04-18T09:29:13.999Z</time></trkpt><trkpt lat="43.385531573571285" lon="10.906351413798618"><ele>392.33333333333337</ele><time>2026-04-18T09:29:14.999Z</time></trkpt><trkpt lat="43.38545503533422" lon="10.906160211485666"><ele>394.6666666666667</ele><time>2026-04-18T09:29:15.999Z</time></trkpt><trkpt lat="43.38536675685738" lon="10.905984604222123"><ele>397.0</ele><time>2026-04-18T09:29:16.999Z</time></trkpt><trkpt lat="43.38525789986964" lon="10.905845409966764"><ele>397.0</ele><time>2026-04-18T09:29:17.999Z</time></trkpt><trkpt lat="43.38511283666043" lon="10.905722680489593"><ele>397.0</ele><time>2026-04-18T09:29:18.999Z</time></trkpt><trkpt lat="43.38494995685636" lon="10.90561064589889"><ele>397.0</ele><time>2026-04-18T09:29:19.999Z</time></trkpt><trkpt lat="43.384821594907834" lon="10.905499823807318"><ele>397.0</ele><time>2026-04-18T09:29:20.999Z</time></trkpt><trkpt lat="43.3847183201041" lon="10.905352108722521"><ele>397.0</ele><time>2026-04-18T09:29:21.999Z</time></trkpt><trkpt lat="43.38465032180882" lon="10.90519534794252"><ele>397.0</ele><time>2026-04-18T09:29:22.999Z</time></trkpt><trkpt lat="43.38458002904523" lon="10.905063858962283"><ele>397.0</ele><time>2026-04-18T09:29:23.999Z</time></trkpt><trkpt lat="43.3845071753981" lon="10.904947520331614"><ele>398.25</ele><time>2026-04-18T09:29:24.999Z</time></trkpt><trkpt lat="43.38439388758782" lon="10.9048812248066"><ele>399.5</ele><time>2026-04-18T09:29:25.999Z</time></trkpt><trkpt lat="43.38426455996036" lon="10.904874170362438"><ele>400.75</ele><time>2026-04-18T09:29:26.999Z</time></trkpt><trkpt lat="43.384125384143175" lon="10.904923989910356"><ele>402.0</ele><time>2026-04-18T09:29:27.999Z</time></trkpt><trkpt lat="43.38400079816813" lon="10.905023154711223"><ele>405.0</ele><time>2026-04-18T09:29:28.999Z</time></trkpt><trkpt lat="43.38387004673577" lon="10.905128260824295"><ele>408.0</ele><time>2026-04-18T09:29:29.999Z</time></trkpt><trkpt lat="43.38373523951674" lon="10.905242468209442"><ele>411.0</ele><time>2026-04-18T09:29:30.999Z</time></trkpt><trkpt lat="43.38360690160668" lon="10.905332220564146"><ele>413.75</ele><time>2026-04-18T09:29:31.999Z</time></trkpt><trkpt lat="43.38347536435071" lon="10.905398616237854"><ele>416.5</ele><time>2026-04-18T09:29:32.999Z</time></trkpt><trkpt lat="43.383334394504246" lon="10.905459190508791"><ele>419.25</ele><time>2026-04-18T09:29:33.999Z</time></trkpt><trkpt lat="43.38319721669014" lon="10.905504793916897"><ele>422.0</ele><time>2026-04-18T09:29:34.999Z</time></trkpt><trkpt lat="43.38307136991596" lon="10.905562137485715"><ele>421.5</ele><time>2026-04-18T09:29:35.999Z</time></trkpt><trkpt lat="43.38293468797465" lon="10.905612598257356"><ele>421.0</ele><time>2026-04-18T09:29:36.999Z</time></trkpt><trkpt lat="43.38279197136687" lon="10.905649677490382"><ele>420.5</ele><time>2026-04-18T09:29:37.999Z</time></trkpt><trkpt lat="43.38266097706642" lon="10.905682384007456"><ele>420.0</ele><time>2026-04-18T09:29:38.999Z</time></trkpt><trkpt lat="43.382516051313765" lon="10.905689232633755"><ele>420.0</ele><time>2026-04-18T09:29:39.999Z</time></trkpt><trkpt lat="43.382379074179916" lon="10.905774397314453"><ele>420.0</ele><time>2026-04-18T09:29:40.999Z</time></trkpt><trkpt lat="43.382267401828045" lon="10.905888036790932"><ele>420.0</ele><time>2026-04-18T09:29:41.999Z</time></trkpt><trkpt lat="43.38217832041765" lon="10.90598994041441"><ele>420.0</ele><time>2026-04-18T09:29:42.999Z</time></trkpt><trkpt lat="43.382105399716224" lon="10.906131486747439"><ele>419.0</ele><time>2026-04-18T09:29:43.999Z</time></trkpt><trkpt lat="43.382081273708295" lon="10.906326047682652"><ele>418.0</ele><time>2026-04-18T09:29:44.999Z</time></trkpt><trkpt lat="43.38208123275019" lon="10.90652101384633"><ele>417.0</ele><time>2026-04-18T09:29:45.999Z</time></trkpt><trkpt lat="43.382068583101095" lon="10.906730068765926"><ele>416.0</ele><time>2026-04-18T09:29:47Z</time></trkpt><trkpt lat="43.38204463586305" lon="10.906931494159105"><ele>416.0</ele><time>2026-04-18T09:29:48Z</time></trkpt><trkpt lat="43.38200308038122" lon="10.907124563585839"><ele>416.0</ele><time>2026-04-18T09:29:49Z</time></trkpt><trkpt lat="43.38193915294238" lon="10.907309945291367"><ele>416.0</ele><time>2026-04-18T09:29:50Z</time></trkpt><trkpt lat="43.38186070980587" lon="10.90747770385691"><ele>416.0</ele><time>2026-04-18T09:29:51Z</time></trkpt><trkpt lat="43.38178222397434" lon="10.907624232245464"><ele>414.25</ele><time>2026-04-18T09:29:52Z</time></trkpt><trkpt lat="43.38169122622123" lon="10.907762290444907"><ele>412.5</ele><time>2026-04-18T09:29:53Z</time></trkpt><trkpt lat="43.38157182823999" lon="10.907880917900663"><ele>410.75</ele><time>2026-04-18T09:29:54Z</time></trkpt><trkpt lat="43.38145075186566" lon="10.907989567347414"><ele>409.0</ele><time>2026-04-18T09:29:55Z</time></trkpt><trkpt lat="43.381325883615204" lon="10.908016084887644"><ele>409.0</ele><time>2026-04-18T09:29:56Z</time></trkpt><trkpt lat="43.38121357094885" lon="10.908083543921245"><ele>409.0</ele><time>2026-04-18T09:29:57Z</time></trkpt><trkpt lat="43.38109451985297" lon="10.908138075864743"><ele>409.0</ele><time>2026-04-18T09:29:58Z</time></trkpt><trkpt lat="43.38099624270431" lon="10.908272549255067"><ele>409.0</ele><time>2026-04-18T09:29:59Z</time></trkpt><trkpt lat="43.380923686674336" lon="10.908397469848794"><ele>409.0</ele><time>2026-04-18T09:30:00Z</time></trkpt><trkpt lat="43.3808774152112" lon="10.908606687978208"><ele>409.0</ele><time>2026-04-18T09:30:01Z</time></trkpt><trkpt lat="43.380871462196886" lon="10.908785724001289"><ele>409.0</ele><time>2026-04-18T09:30:02Z</time></trkpt><trkpt lat="43.380864649196724" lon="10.908952618571849"><ele>409.0</ele><time>2026-04-18T09:30:03Z</time></trkpt><trkpt lat="43.3808381768945" lon="10.909134811274097"><ele>407.25</ele><time>2026-04-18T09:30:04Z</time></trkpt><trkpt lat="43.38075710693611" lon="10.909261095515832"><ele>405.5</ele><time>2026-04-18T09:30:05Z</time></trkpt><trkpt lat="43.38069784185449" lon="10.909397301146582"><ele>403.75</ele><time>2026-04-18T09:30:06Z</time></trkpt><trkpt lat="43.380648775764946" lon="10.9095178267098"><ele>402.0</ele><time>2026-04-18T09:30:07Z</time></trkpt><trkpt lat="43.380628048152765" lon="10.909669191566739"><ele>402.0</ele><time>2026-04-18T09:30:08Z</time></trkpt><trkpt lat="43.38065022010249" lon="10.909811810525794"><ele>402.0</ele><time>2026-04-18T09:30:09Z</time></trkpt><trkpt lat="43.380710211119975" lon="10.909921829239076"><ele>402.0</ele><time>2026-04-18T09:30:10Z</time></trkpt><trkpt lat="43.38075269417861" lon="10.910002979710075"><ele>402.0</ele><time>2026-04-18T09:30:11Z</time></trkpt><trkpt lat="43.38078600441546" lon="10.910101085231306"><ele>402.0</ele><time>2026-04-18T09:30:12Z</time></trkpt><trkpt lat="43.38074348991087" lon="10.910211261605623"><ele>402.0</ele><time>2026-04-18T09:30:13Z</time></trkpt><trkpt lat="43.380665566376926" lon="10.910260330415454"><ele>399.5</ele><time>2026-04-18T09:30:14Z</time></trkpt><trkpt lat="43.380583054022075" lon="10.91028625132853"><ele>397.0</ele><time>2026-04-18T09:30:15Z</time></trkpt><trkpt lat="43.3804995919658" lon="10.91028175138526"><ele>394.5</ele><time>2026-04-18T09:30:16Z</time></trkpt><trkpt lat="43.380411246138465" lon="10.910251970558269"><ele>392.0</ele><time>2026-04-18T09:30:17Z</time></trkpt><trkpt lat="43.38037305121052" lon="10.910127941972501"><ele>389.5</ele><time>2026-04-18T09:30:18Z</time></trkpt><trkpt lat="43.380351198787835" lon="10.910022911151492"><ele>387.0</ele><time>2026-04-18T09:30:19Z</time></trkpt><trkpt lat="43.38029422386227" lon="10.909969504990222"><ele>385.8</ele><time>2026-04-18T09:30:20Z</time></trkpt><trkpt lat="43.380219885196624" lon="10.909998448333823"><ele>384.6</ele><time>2026-04-18T09:30:21Z</time></trkpt><trkpt lat="43.38015904473968" lon="10.910087885082737"><ele>383.40000000000003</ele><time>2026-04-18T09:30:22Z</time></trkpt><trkpt lat="43.38015800521606" lon="10.910241728881243"><ele>382.20000000000005</ele><time>2026-04-18T09:30:23Z</time></trkpt><trkpt lat="43.38015998489099" lon="10.910372438289032"><ele>381.0</ele><time>2026-04-18T09:30:24Z</time></trkpt><trkpt lat="43.38016179032908" lon="10.910491643596608"><ele>380.0</ele><time>2026-04-18T09:30:25Z</time></trkpt><trkpt lat="43.38017641230583" lon="10.910606513810931"><ele>379.0</ele><time>2026-04-18T09:30:26Z</time></trkpt><trkpt lat="43.38011548139099" lon="10.910695697581723"><ele>378.0</ele><time>2026-04-18T09:30:27Z</time></trkpt><trkpt lat="43.38001808148204" lon="10.910726787775355"><ele>377.0</ele><time>2026-04-18T09:30:28Z</time></trkpt><trkpt lat="43.379907572879084" lon="10.91072000776431"><ele>376.0</ele><time>2026-04-18T09:30:29Z</time></trkpt><trkpt lat="43.379820048868275" lon="10.910658852878228"><ele>376.0</ele><time>2026-04-18T09:30:30Z</time></trkpt><trkpt lat="43.37976093505366" lon="10.910544674359652"><ele>376.0</ele><time>2026-04-18T09:30:31Z</time></trkpt><trkpt lat="43.37973060912911" lon="10.91041365076995"><ele>376.0</ele><time>2026-04-18T09:30:32Z</time></trkpt><trkpt lat="43.37974464487101" lon="10.910277267444155"><ele>376.0</ele><time>2026-04-18T09:30:33Z</time></trkpt><trkpt lat="43.37974851290026" lon="10.910152732471651"><ele>376.0</ele><time>2026-04-18T09:30:34Z</time></trkpt><trkpt lat="43.379704855708496" lon="10.910057254007844"><ele>373.0</ele><time>2026-04-18T09:30:35Z</time></trkpt><trkpt lat="43.37962759082224" lon="10.909996850428117"><ele>370.0</ele><time>2026-04-18T09:30:36Z</time></trkpt><trkpt lat="43.379512608507135" lon="10.910007202767288"><ele>367.0</ele><time>2026-04-18T09:30:37Z</time></trkpt><trkpt lat="43.37942001393233" lon="10.910059835288038"><ele>364.0</ele><time>2026-04-18T09:30:38Z</time></trkpt><trkpt lat="43.3793283087037" lon="10.910166721408142"><ele>361.0</ele><time>2026-04-18T09:30:39Z</time></trkpt><trkpt lat="43.3792554357508" lon="10.91026084620476"><ele>361.0</ele><time>2026-04-18T09:30:39.999Z</time></trkpt><trkpt lat="43.379224393191656" lon="10.910442288014705"><ele>361.0</ele><time>2026-04-18T09:30:40.999Z</time></trkpt><trkpt lat="43.37922128688435" lon="10.910628103749552"><ele>361.0</ele><time>2026-04-18T09:30:41.999Z</time></trkpt><trkpt lat="43.37923030926281" lon="10.910783582811954"><ele>361.0</ele><time>2026-04-18T09:30:42.999Z</time></trkpt><trkpt lat="43.379269279113245" lon="10.910960439576426"><ele>360.0</ele><time>2026-04-18T09:30:43.999Z</time></trkpt><trkpt lat="43.37931862893405" lon="10.911100539438353"><ele>359.0</ele><time>2026-04-18T09:30:44.999Z</time></trkpt><trkpt lat="43.379360127372856" lon="10.911221488041651"><ele>358.0</ele><time>2026-04-18T09:30:45.999Z</time></trkpt><trkpt lat="43.37939470192645" lon="10.91133038712489"><ele>357.0</ele><time>2026-04-18T09:30:46.999Z</time></trkpt><trkpt lat="43.3794220794058" lon="10.911456291669195"><ele>356.0</ele><time>2026-04-18T09:30:47.999Z</time></trkpt><trkpt lat="43.37941762034282" lon="10.911570009085303"><ele>356.0</ele><time>2026-04-18T09:30:48.999Z</time></trkpt><trkpt lat="43.379367900854454" lon="10.911710617616604"><ele>356.0</ele><time>2026-04-18T09:30:49.999Z</time></trkpt><trkpt lat="43.37928640771028" lon="10.911809897874123"><ele>356.0</ele><time>2026-04-18T09:30:50.999Z</time></trkpt><trkpt lat="43.37913371798057" lon="10.911847287165418"><ele>356.0</ele><time>2026-04-18T09:30:51.999Z</time></trkpt><trkpt lat="43.37897514762354" lon="10.911890393317206"><ele>352.5</ele><time>2026-04-18T09:30:52.999Z</time></trkpt><trkpt lat="43.37884014621734" lon="10.911927549270596"><ele>349.0</ele><time>2026-04-18T09:30:53.999Z</time></trkpt><trkpt lat="43.37871266679019" lon="10.911956234831358"><ele>345.5</ele><time>2026-04-18T09:30:54.999Z</time></trkpt><trkpt lat="43.37859742908222" lon="10.912014945830201"><ele>342.0</ele><time>2026-04-18T09:30:55.999Z</time></trkpt><trkpt lat="43.37848686957162" lon="10.912127761151796"><ele>342.0</ele><time>2026-04-18T09:30:56.999Z</time></trkpt><trkpt lat="43.37838319411895" lon="10.912240060944569"><ele>342.0</ele><time>2026-04-18T09:30:57.999Z</time></trkpt><trkpt lat="43.37829907485914" lon="10.912308925932061"><ele>342.0</ele><time>2026-04-18T09:30:58.999Z</time></trkpt><trkpt lat="43.37823510387524" lon="10.912385550039435"><ele>342.0</ele><time>2026-04-18T09:30:59.999Z</time></trkpt><trkpt lat="43.37814302329869" lon="10.912499604820228"><ele>342.0</ele><time>2026-04-18T09:31:00.999Z</time></trkpt><trkpt lat="43.37805712733948" lon="10.912611535392433"><ele>338.75</ele><time>2026-04-18T09:31:01.999Z</time></trkpt><trkpt lat="43.37797316079129" lon="10.912664464534057"><ele>335.5</ele><time>2026-04-18T09:31:02.999Z</time></trkpt><trkpt lat="43.37787714150678" lon="10.912748330759"><ele>332.25</ele><time>2026-04-18T09:31:03.999Z</time></trkpt><trkpt lat="43.377717493557384" lon="10.912834963367983"><ele>329.0</ele><time>2026-04-18T09:31:04.999Z</time></trkpt><trkpt lat="43.37754409843411" lon="10.912861216589596"><ele>329.0</ele><time>2026-04-18T09:31:05.999Z</time></trkpt><trkpt lat="43.37737523664067" lon="10.912858063168905"><ele>329.0</ele><time>2026-04-18T09:31:06.999Z</time></trkpt><trkpt lat="43.37721833436922" lon="10.912836432223001"><ele>329.0</ele><time>2026-04-18T09:31:07.999Z</time></trkpt><trkpt lat="43.37707324478654" lon="10.91275510118167"><ele>329.0</ele><time>2026-04-18T09:31:08.999Z</time></trkpt><trkpt lat="43.376951999047186" lon="10.912632864469318"><ele>329.0</ele><time>2026-04-18T09:31:09.999Z</time></trkpt><trkpt lat="43.376850522290496" lon="10.912513936865327"><ele>329.0</ele><time>2026-04-18T09:31:10.999Z</time></trkpt><trkpt lat="43.37674525512645" lon="10.912418320389405"><ele>329.0</ele><time>2026-04-18T09:31:11.999Z</time></trkpt><trkpt lat="43.37663568538992" lon="10.9123290807954"><ele>329.75</ele><time>2026-04-18T09:31:12.999Z</time></trkpt><trkpt lat="43.376501271780754" lon="10.912269202656946"><ele>330.5</ele><time>2026-04-18T09:31:13.999Z</time></trkpt><trkpt lat="43.376367211164" lon="10.912189725202389"><ele>331.25</ele><time>2026-04-18T09:31:14.999Z</time></trkpt><trkpt lat="43.376236540576876" lon="10.912092085722596"><ele>332.0</ele><time>2026-04-18T09:31:15.999Z</time></trkpt><trkpt lat="43.37611258486107" lon="10.91197178258141"><ele>333.33333333333337</ele><time>2026-04-18T09:31:16.999Z</time></trkpt><trkpt lat="43.37597944209879" lon="10.91185972401885"><ele>334.6666666666667</ele><time>2026-04-18T09:31:17.999Z</time></trkpt><trkpt lat="43.375864063965224" lon="10.911719327943633"><ele>336.0</ele><time>2026-04-18T09:31:18.999Z</time></trkpt><trkpt lat="43.37575355617335" lon="10.911571900046665"><ele>334.75</ele><time>2026-04-18T09:31:19.999Z</time></trkpt><trkpt lat="43.375652527137674" lon="10.911427466099578"><ele>333.5</ele><time>2026-04-18T09:31:20.999Z</time></trkpt><trkpt lat="43.37555444797297" lon="10.91127933786387"><ele>332.25</ele><time>2026-04-18T09:31:21.999Z</time></trkpt><trkpt lat="43.37546105060191" lon="10.911139290852212"><ele>331.0</ele><time>2026-04-18T09:31:22.999Z</time></trkpt><trkpt lat="43.375358926222574" lon="10.910996232399617"><ele>327.5</ele><time>2026-04-18T09:31:23.999Z</time></trkpt><trkpt lat="43.37523493453213" lon="10.910896927303268"><ele>324.0</ele><time>2026-04-18T09:31:24.999Z</time></trkpt><trkpt lat="43.37512764811582" lon="10.910797402077359"><ele>320.5</ele><time>2026-04-18T09:31:25.999Z</time></trkpt><trkpt lat="43.3750282610795" lon="10.910643951900557"><ele>317.0</ele><time>2026-04-18T09:31:26.999Z</time></trkpt><trkpt lat="43.374945587590425" lon="10.910481390596043"><ele>317.0</ele><time>2026-04-18T09:31:27.999Z</time></trkpt><trkpt lat="43.3748754859258" lon="10.910283890799052"><ele>317.0</ele><time>2026-04-18T09:31:28.999Z</time></trkpt><trkpt lat="43.374806766264776" lon="10.910088910954135"><ele>317.0</ele><time>2026-04-18T09:31:29.999Z</time></trkpt><trkpt lat="43.374734021042094" lon="10.909906334633984"><ele>313.0</ele><time>2026-04-18T09:31:30.999Z</time></trkpt><trkpt lat="43.374661461519494" lon="10.909748004917432"><ele>309.0</ele><time>2026-04-18T09:31:31.999Z</time></trkpt><trkpt lat="43.37456631648353" lon="10.909588533886096"><ele>305.0</ele><time>2026-04-18T09:31:32.999Z</time></trkpt><trkpt lat="43.374459078605284" lon="10.909435401150557"><ele>301.0</ele><time>2026-04-18T09:31:33.999Z</time></trkpt><trkpt lat="43.37434256832744" lon="10.909291190811784"><ele>301.66666666666663</ele><time>2026-04-18T09:31:34.999Z</time></trkpt><trkpt lat="43.37422504711721" lon="10.909155818864464"><ele>302.3333333333333</ele><time>2026-04-18T09:31:35.999Z</time></trkpt><trkpt lat="43.37410543918301" lon="10.90900769053825"><ele>303.0</ele><time>2026-04-18T09:31:36.999Z</time></trkpt><trkpt lat="43.37398486385425" lon="10.908864570007506"><ele>303.0</ele><time>2026-04-18T09:31:37.999Z</time></trkpt><trkpt lat="43.37387218728382" lon="10.908707603627555"><ele>303.0</ele><time>2026-04-18T09:31:38.999Z</time></trkpt><trkpt lat="43.3737394694788" lon="10.908583508573436"><ele>303.0</ele><time>2026-04-18T09:31:39.999Z</time></trkpt><trkpt lat="43.37359177629025" lon="10.908507587009327"><ele>303.3333333333333</ele><time>2026-04-18T09:31:40.999Z</time></trkpt><trkpt lat="43.37344138090368" lon="10.908417321074586"><ele>303.66666666666663</ele><time>2026-04-18T09:31:41.999Z</time></trkpt><trkpt lat="43.37329661715039" lon="10.90832773267611"><ele>304.0</ele><time>2026-04-18T09:31:42.999Z</time></trkpt><trkpt lat="43.37315797789885" lon="10.908233013365129"><ele>304.0</ele><time>2026-04-18T09:31:43.999Z</time></trkpt><trkpt lat="43.373022033362965" lon="10.908141891035593"><ele>304.0</ele><time>2026-04-18T09:31:44.999Z</time></trkpt><trkpt lat="43.372884560760106" lon="10.90805035584459"><ele>304.0</ele><time>2026-04-18T09:31:45.999Z</time></trkpt><trkpt lat="43.37274575941924" lon="10.90796855152588"><ele>304.0</ele><time>2026-04-18T09:31:46.999Z</time></trkpt><trkpt lat="43.37262190824377" lon="10.907899147886535"><ele>304.0</ele><time>2026-04-18T09:31:47.999Z</time></trkpt><trkpt lat="43.37249253756281" lon="10.907829118829177"><ele>304.0</ele><time>2026-04-18T09:31:48.999Z</time></trkpt><trkpt lat="43.37235466476926" lon="10.907764398078298"><ele>304.0</ele><time>2026-04-18T09:31:49.999Z</time></trkpt><trkpt lat="43.37221842562144" lon="10.907699202943858"><ele>304.0</ele><time>2026-04-18T09:31:50.999Z</time></trkpt><trkpt lat="43.37207810517494" lon="10.907634986894983"><ele>304.0</ele><time>2026-04-18T09:31:51.999Z</time></trkpt><trkpt lat="43.371943829739884" lon="10.90756877382258"><ele>304.0</ele><time>2026-04-18T09:31:53Z</time></trkpt><trkpt lat="43.37181442717221" lon="10.907502120775009"><ele>304.0</ele><time>2026-04-18T09:31:54Z</time></trkpt><trkpt lat="43.371685452868604" lon="10.90744029758532"><ele>303.75</ele><time>2026-04-18T09:31:55Z</time></trkpt><trkpt lat="43.37155750100543" lon="10.907382516798734"><ele>303.5</ele><time>2026-04-18T09:31:56Z</time></trkpt><trkpt lat="43.37144181732509" lon="10.907324995240769"><ele>303.25</ele><time>2026-04-18T09:31:57Z</time></trkpt><trkpt lat="43.37133810912935" lon="10.907280585353062"><ele>303.0</ele><time>2026-04-18T09:31:58Z</time></trkpt><trkpt lat="43.371242852690635" lon="10.907236326569251"><ele>303.0</ele><time>2026-04-18T09:31:59Z</time></trkpt><trkpt lat="43.371156484306695" lon="10.907202541304871"><ele>303.0</ele><time>2026-04-18T09:32:00Z</time></trkpt><trkpt lat="43.37107298910109" lon="10.907160663681951"><ele>303.0</ele><time>2026-04-18T09:32:01Z</time></trkpt><trkpt lat="43.370988425259775" lon="10.907122101505747"><ele>303.0</ele><time>2026-04-18T09:32:02Z</time></trkpt><trkpt lat="43.37089481961109" lon="10.907089688619346"><ele>303.0</ele><time>2026-04-18T09:32:03Z</time></trkpt><trkpt lat="43.37081636137942" lon="10.907029908694042"><ele>303.0</ele><time>2026-04-18T09:32:04Z</time></trkpt><trkpt lat="43.37070737881814" lon="10.907084849835279"><ele>303.0</ele><time>2026-04-18T09:32:05Z</time></trkpt><trkpt lat="43.37061482055235" lon="10.907117403494135"><ele>303.0</ele><time>2026-04-18T09:32:06Z</time></trkpt><trkpt lat="43.370512132318204" lon="10.907147623335957"><ele>303.0</ele><time>2026-04-18T09:32:07Z</time></trkpt><trkpt lat="43.37040552452751" lon="10.90716711529453"><ele>303.0</ele><time>2026-04-18T09:32:08Z</time></trkpt><trkpt lat="43.3702916120803" lon="10.907170586862327"><ele>302.0</ele><time>2026-04-18T09:32:09Z</time></trkpt><trkpt lat="43.370184425048" lon="10.907171215291614"><ele>301.0</ele><time>2026-04-18T09:32:10Z</time></trkpt><trkpt lat="43.37007778197554" lon="10.907184481678128"><ele>300.0</ele><time>2026-04-18T09:32:11Z</time></trkpt><trkpt lat="43.36997502258384" lon="10.907206764630404"><ele>299.0</ele><time>2026-04-18T09:32:12Z</time></trkpt><trkpt lat="43.36987280140323" lon="10.907251624605285"><ele>298.0</ele><time>2026-04-18T09:32:13Z</time></trkpt><trkpt lat="43.36977385105324" lon="10.907303684488001"><ele>298.4</ele><time>2026-04-18T09:32:14Z</time></trkpt><trkpt lat="43.3696665689726" lon="10.907353603988351"><ele>298.8</ele><time>2026-04-18T09:32:15Z</time></trkpt><trkpt lat="43.369560042456094" lon="10.907386597902104"><ele>299.2</ele><time>2026-04-18T09:32:16Z</time></trkpt><trkpt lat="43.36946699071577" lon="10.907405502470798"><ele>299.6</ele><time>2026-04-18T09:32:17Z</time></trkpt><trkpt lat="43.369368321447276" lon="10.9074332460653"><ele>300.0</ele><time>2026-04-18T09:32:18Z</time></trkpt><trkpt lat="43.369272311560906" lon="10.907496484817816"><ele>300.0</ele><time>2026-04-18T09:32:19Z</time></trkpt><trkpt lat="43.369165771132316" lon="10.907538834840244"><ele>300.0</ele><time>2026-04-18T09:32:20Z</time></trkpt><trkpt lat="43.36906785999422" lon="10.907563728231597"><ele>300.0</ele><time>2026-04-18T09:32:21Z</time></trkpt><trkpt lat="43.3689693538199" lon="10.90758419503939"><ele>300.0</ele><time>2026-04-18T09:32:22Z</time></trkpt><trkpt lat="43.36886944076781" lon="10.907561432696559"><ele>300.0</ele><time>2026-04-18T09:32:23Z</time></trkpt><trkpt lat="43.368776618002364" lon="10.907519174397496"><ele>297.6</ele><time>2026-04-18T09:32:24Z</time></trkpt><trkpt lat="43.36869266593237" lon="10.907469398705935"><ele>295.2</ele><time>2026-04-18T09:32:25Z</time></trkpt><trkpt lat="43.36861634440336" lon="10.907434784232521"><ele>292.8</ele><time>2026-04-18T09:32:26Z</time></trkpt><trkpt lat="43.368538090301236" lon="10.907384705777632"><ele>290.4</ele><time>2026-04-18T09:32:27Z</time></trkpt><trkpt lat="43.36845665322504" lon="10.907317988807234"><ele>288.0</ele><time>2026-04-18T09:32:28Z</time></trkpt><trkpt lat="43.36836493371606" lon="10.907249881263288"><ele>288.0</ele><time>2026-04-18T09:32:29Z</time></trkpt><trkpt lat="43.36827240320544" lon="10.90716052555314"><ele>288.0</ele><time>2026-04-18T09:32:30Z</time></trkpt><trkpt lat="43.368157441159596" lon="10.907140301034469"><ele>288.0</ele><time>2026-04-18T09:32:31Z</time></trkpt><trkpt lat="43.36802805843371" lon="10.907094406577235"><ele>288.0</ele><time>2026-04-18T09:32:32Z</time></trkpt><trkpt lat="43.367908374710645" lon="10.907068031012166"><ele>285.6</ele><time>2026-04-18T09:32:33Z</time></trkpt><trkpt lat="43.367792453802956" lon="10.90707608259262"><ele>283.20000000000005</ele><time>2026-04-18T09:32:34Z</time></trkpt><trkpt lat="43.36767686738116" lon="10.907069847958661"><ele>280.8</ele><time>2026-04-18T09:32:35Z</time></trkpt><trkpt lat="43.3675791464672" lon="10.907057212160531"><ele>278.40000000000003</ele><time>2026-04-18T09:32:36Z</time></trkpt><trkpt lat="43.36746880735627" lon="10.907030115804035"><ele>276.0</ele><time>2026-04-18T09:32:37Z</time></trkpt><trkpt lat="43.36737114617058" lon="10.906979130999513"><ele>276.0</ele><time>2026-04-18T09:32:38Z</time></trkpt><trkpt lat="43.36726579490122" lon="10.906910132175467"><ele>276.0</ele><time>2026-04-18T09:32:39Z</time></trkpt><trkpt lat="43.367152065691705" lon="10.906828842804872"><ele>276.0</ele><time>2026-04-18T09:32:40Z</time></trkpt><trkpt lat="43.36704172543213" lon="10.906746198195329"><ele>276.0</ele><time>2026-04-18T09:32:41Z</time></trkpt><trkpt lat="43.36692197161671" lon="10.90666098057104"><ele>276.0</ele><time>2026-04-18T09:32:42Z</time></trkpt><trkpt lat="43.366803034618606" lon="10.90656295285423"><ele>276.0</ele><time>2026-04-18T09:32:43Z</time></trkpt><trkpt lat="43.366692756930476" lon="10.90646206115556"><ele>276.0</ele><time>2026-04-18T09:32:43.999Z</time></trkpt><trkpt lat="43.366577268032835" lon="10.906342280034881"><ele>276.0</ele><time>2026-04-18T09:32:44.999Z</time></trkpt><trkpt lat="43.366467643481684" lon="10.906231178315469"><ele>276.25</ele><time>2026-04-18T09:32:45.999Z</time></trkpt><trkpt lat="43.366357407558226" lon="10.906117098322065"><ele>276.5</ele><time>2026-04-18T09:32:46.999Z</time></trkpt><trkpt lat="43.36625672625194" lon="10.906012532598504"><ele>276.75</ele><time>2026-04-18T09:32:47.999Z</time></trkpt><trkpt lat="43.36616812779505" lon="10.905922274684063"><ele>277.0</ele><time>2026-04-18T09:32:48.999Z</time></trkpt><trkpt lat="43.36607752605958" lon="10.905840192867608"><ele>277.0</ele><time>2026-04-18T09:32:49.999Z</time></trkpt><trkpt lat="43.36598337609758" lon="10.905781608041975"><ele>277.0</ele><time>2026-04-18T09:32:50.999Z</time></trkpt><trkpt lat="43.36587406882096" lon="10.90575226871404"><ele>277.0</ele><time>2026-04-18T09:32:51.999Z</time></trkpt><trkpt lat="43.36574929343364" lon="10.905745243216407"><ele>277.0</ele><time>2026-04-18T09:32:52.999Z</time></trkpt><trkpt lat="43.36561748127208" lon="10.905749768175811"><ele>276.75</ele><time>2026-04-18T09:32:53.999Z</time></trkpt><trkpt lat="43.36547896793256" lon="10.905753974953045"><ele>276.5</ele><time>2026-04-18T09:32:54.999Z</time></trkpt><trkpt lat="43.365351748375836" lon="10.905767564969452"><ele>276.25</ele><time>2026-04-18T09:32:55.999Z</time></trkpt><trkpt lat="43.365227906007306" lon="10.905777523522568"><ele>276.0</ele><time>2026-04-18T09:32:56.999Z</time></trkpt><trkpt lat="43.365111079010234" lon="10.905769777265341"><ele>276.0</ele><time>2026-04-18T09:32:57.999Z</time></trkpt><trkpt lat="43.36499446968392" lon="10.905752478010442"><ele>276.0</ele><time>2026-04-18T09:32:58.999Z</time></trkpt><trkpt lat="43.36487730573201" lon="10.905702952333403"><ele>276.0</ele><time>2026-04-18T09:32:59.999Z</time></trkpt><trkpt lat="43.36476675827186" lon="10.905632372779415"><ele>276.0</ele><time>2026-04-18T09:33:00.999Z</time></trkpt><trkpt lat="43.36464286023509" lon="10.905565794887965"><ele>278.25</ele><time>2026-04-18T09:33:01.999Z</time></trkpt><trkpt lat="43.36452348699598" lon="10.905495202142486"><ele>280.5</ele><time>2026-04-18T09:33:02.999Z</time></trkpt><trkpt lat="43.36440920236181" lon="10.905418796334363"><ele>282.75</ele><time>2026-04-18T09:33:03.999Z</time></trkpt><trkpt lat="43.364291053527424" lon="10.905344570560498"><ele>285.0</ele><time>2026-04-18T09:33:04.999Z</time></trkpt><trkpt lat="43.36417183488193" lon="10.905272796383448"><ele>285.0</ele><time>2026-04-18T09:33:05.999Z</time></trkpt><trkpt lat="43.36405785470569" lon="10.905201887682095"><ele>285.0</ele><time>2026-04-18T09:33:06.999Z</time></trkpt><trkpt lat="43.363947145831105" lon="10.905129844868735"><ele>285.0</ele><time>2026-04-18T09:33:07.999Z</time></trkpt><trkpt lat="43.36384197330062" lon="10.90506153645815"><ele>285.0</ele><time>2026-04-18T09:33:08.999Z</time></trkpt><trkpt lat="43.363734321267366" lon="10.904990288416538"><ele>285.6</ele><time>2026-04-18T09:33:09.999Z</time></trkpt><trkpt lat="43.363642126654796" lon="10.90492371129059"><ele>286.2</ele><time>2026-04-18T09:33:10.999Z</time></trkpt><trkpt lat="43.363543903852154" lon="10.904852162970704"><ele>286.8</ele><time>2026-04-18T09:33:11.999Z</time></trkpt><trkpt lat="43.363448871477715" lon="10.904779472585886"><ele>287.4</ele><time>2026-04-18T09:33:12.999Z</time></trkpt><trkpt lat="43.36334300700475" lon="10.904713377663704"><ele>288.0</ele><time>2026-04-18T09:33:13.999Z</time></trkpt><trkpt lat="43.363234046931254" lon="10.904659239439365"><ele>288.0</ele><time>2026-04-18T09:33:14.999Z</time></trkpt><trkpt lat="43.36312036998254" lon="10.90462221360274"><ele>288.0</ele><time>2026-04-18T09:33:15.999Z</time></trkpt><trkpt lat="43.362996939515405" lon="10.904605066103603"><ele>288.0</ele><time>2026-04-18T09:33:16.999Z</time></trkpt><trkpt lat="43.36287155200915" lon="10.904573575818597"><ele>288.0</ele><time>2026-04-18T09:33:17.999Z</time></trkpt><trkpt lat="43.36274174433879" lon="10.904525892258643"><ele>288.0</ele><time>2026-04-18T09:33:18.999Z</time></trkpt><trkpt lat="43.36261599439274" lon="10.904489766117706"><ele>288.0</ele><time>2026-04-18T09:33:19.999Z</time></trkpt><trkpt lat="43.36248676520588" lon="10.904466984135844"><ele>288.0</ele><time>2026-04-18T09:33:20.999Z</time></trkpt><trkpt lat="43.362358999841" lon="10.904444010345522"><ele>288.0</ele><time>2026-04-18T09:33:21.999Z</time></trkpt><trkpt lat="43.362234582237356" lon="10.904433677239581"><ele>286.25</ele><time>2026-04-18T09:33:22.999Z</time></trkpt><trkpt lat="43.362119810474184" lon="10.904423539131809"><ele>284.5</ele><time>2026-04-18T09:33:23.999Z</time></trkpt><trkpt lat="43.36199548869402" lon="10.904392772420582"><ele>282.75</ele><time>2026-04-18T09:33:24.999Z</time></trkpt><trkpt lat="43.36186657707038" lon="10.904348986341072"><ele>281.0</ele><time>2026-04-18T09:33:25.999Z</time></trkpt><trkpt lat="43.36172572938089" lon="10.904287519849488"><ele>280.75</ele><time>2026-04-18T09:33:26.999Z</time></trkpt><trkpt lat="43.36160065383059" lon="10.904236784637298"><ele>280.5</ele><time>2026-04-18T09:33:27.999Z</time></trkpt><trkpt lat="43.36147325469714" lon="10.904187254689468"><ele>280.25</ele><time>2026-04-18T09:33:28.999Z</time></trkpt><trkpt lat="43.36133370524584" lon="10.904130578158558"><ele>280.0</ele><time>2026-04-18T09:33:29.999Z</time></trkpt><trkpt lat="43.36119955642573" lon="10.904083675896231"><ele>280.0</ele><time>2026-04-18T09:33:30.999Z</time></trkpt><trkpt lat="43.36107427568047" lon="10.904034524942455"><ele>280.0</ele><time>2026-04-18T09:33:31.999Z</time></trkpt><trkpt lat="43.360954567025495" lon="10.903989608788923"><ele>280.0</ele><time>2026-04-18T09:33:32.999Z</time></trkpt><trkpt lat="43.36082476731527" lon="10.903952734933071"><ele>280.0</ele><time>2026-04-18T09:33:33.999Z</time></trkpt><trkpt lat="43.36070899398161" lon="10.903917077393793"><ele>280.0</ele><time>2026-04-18T09:33:34.999Z</time></trkpt><trkpt lat="43.36058621980947" lon="10.90389116002047"><ele>280.0</ele><time>2026-04-18T09:33:35.999Z</time></trkpt><trkpt lat="43.36046523947606" lon="10.903886817278597"><ele>280.0</ele><time>2026-04-18T09:33:36.999Z</time></trkpt><trkpt lat="43.360346183752874" lon="10.903892884224007"><ele>280.0</ele><time>2026-04-18T09:33:37.999Z</time></trkpt><trkpt lat="43.36022231298091" lon="10.90393149708035"><ele>279.25</ele><time>2026-04-18T09:33:38.999Z</time></trkpt><trkpt lat="43.3600912570776" lon="10.904007098317342"><ele>278.5</ele><time>2026-04-18T09:33:39.999Z</time></trkpt><trkpt lat="43.35995593044293" lon="10.904079293759471"><ele>277.75</ele><time>2026-04-18T09:33:40.999Z</time></trkpt><trkpt lat="43.35981805695181" lon="10.904153339170824"><ele>277.0</ele><time>2026-04-18T09:33:41.999Z</time></trkpt><trkpt lat="43.35968531369947" lon="10.904226835663076"><ele>276.25</ele><time>2026-04-18T09:33:42.999Z</time></trkpt><trkpt lat="43.35954637621538" lon="10.90428627974843"><ele>275.5</ele><time>2026-04-18T09:33:43.999Z</time></trkpt><trkpt lat="43.35941357601076" lon="10.904347712855357"><ele>274.75</ele><time>2026-04-18T09:33:44.999Z</time></trkpt><trkpt lat="43.359303517579775" lon="10.904421555100644"><ele>274.0</ele><time>2026-04-18T09:33:45.999Z</time></trkpt><trkpt lat="43.359197303809836" lon="10.90451856952089"><ele>274.0</ele><time>2026-04-18T09:33:46.999Z</time></trkpt><trkpt lat="43.35908811844789" lon="10.904641047167374"><ele>274.0</ele><time>2026-04-18T09:33:47.999Z</time></trkpt><trkpt lat="43.35898165384199" lon="10.904751860228963"><ele>274.0</ele><time>2026-04-18T09:33:48.999Z</time></trkpt><trkpt lat="43.35886935836707" lon="10.904842336626384"><ele>274.0</ele><time>2026-04-18T09:33:49.999Z</time></trkpt><trkpt lat="43.35875733487527" lon="10.904883661881449"><ele>274.0</ele><time>2026-04-18T09:33:50.999Z</time></trkpt><trkpt lat="43.35862533440445" lon="10.90490427496022"><ele>274.0</ele><time>2026-04-18T09:33:51.999Z</time></trkpt><trkpt lat="43.358486534021075" lon="10.904908082685376"><ele>274.0</ele><time>2026-04-18T09:33:52.999Z</time></trkpt><trkpt lat="43.35834914895243" lon="10.904892152225818"><ele>274.0</ele><time>2026-04-18T09:33:53.999Z</time></trkpt><trkpt lat="43.35821563588119" lon="10.904826593808611"><ele>274.0</ele><time>2026-04-18T09:33:54.999Z</time></trkpt><trkpt lat="43.35808996149272" lon="10.904739990018966"><ele>274.0</ele><time>2026-04-18T09:33:55.999Z</time></trkpt><trkpt lat="43.357962669205016" lon="10.904645632134416"><ele>274.0</ele><time>2026-04-18T09:33:56.999Z</time></trkpt><trkpt lat="43.35784586984999" lon="10.904542900780188"><ele>274.0</ele><time>2026-04-18T09:33:57.999Z</time></trkpt><trkpt lat="43.35773896583457" lon="10.904449779831804"><ele>274.0</ele><time>2026-04-18T09:33:59Z</time></trkpt><trkpt lat="43.357625082111944" lon="10.90436038110568"><ele>274.0</ele><time>2026-04-18T09:34:00Z</time></trkpt><trkpt lat="43.35750893723837" lon="10.904310406663356"><ele>274.0</ele><time>2026-04-18T09:34:01Z</time></trkpt><trkpt lat="43.35739089168717" lon="10.904290721757985"><ele>274.0</ele><time>2026-04-18T09:34:02Z</time></trkpt><trkpt lat="43.35726330045253" lon="10.904293098492149"><ele>272.75</ele><time>2026-04-18T09:34:03Z</time></trkpt><trkpt lat="43.3571360927531" lon="10.904305188169602"><ele>271.5</ele><time>2026-04-18T09:34:04Z</time></trkpt><trkpt lat="43.35699522401297" lon="10.904312581808103"><ele>270.25</ele><time>2026-04-18T09:34:05Z</time></trkpt><trkpt lat="43.356854183624186" lon="10.904321725109675"><ele>269.0</ele><time>2026-04-18T09:34:06Z</time></trkpt><trkpt lat="43.35670331225065" lon="10.904330030269712"><ele>269.0</ele><time>2026-04-18T09:34:07Z</time></trkpt><trkpt lat="43.356555535206546" lon="10.904346633458319"><ele>269.0</ele><time>2026-04-18T09:34:08Z</time></trkpt><trkpt lat="43.35640759236865" lon="10.9043549507253"><ele>269.0</ele><time>2026-04-18T09:34:09Z</time></trkpt><trkpt lat="43.35626844005094" lon="10.904354402879878"><ele>269.0</ele><time>2026-04-18T09:34:10Z</time></trkpt><trkpt lat="43.35613169801335" lon="10.904326287131143"><ele>269.5</ele><time>2026-04-18T09:34:11Z</time></trkpt><trkpt lat="43.35599247330131" lon="10.90428180119135"><ele>270.0</ele><time>2026-04-18T09:34:12Z</time></trkpt><trkpt lat="43.355851581813866" lon="10.904236141268445"><ele>270.5</ele><time>2026-04-18T09:34:13Z</time></trkpt><trkpt lat="43.35571404558992" lon="10.904185275103147"><ele>271.0</ele><time>2026-04-18T09:34:14Z</time></trkpt><trkpt lat="43.355566596360646" lon="10.904130416391506"><ele>273.0</ele><time>2026-04-18T09:34:15Z</time></trkpt><trkpt lat="43.35542592487404" lon="10.904063677487645"><ele>275.0</ele><time>2026-04-18T09:34:16Z</time></trkpt><trkpt lat="43.35529327051582" lon="10.903986549697056"><ele>277.0</ele><time>2026-04-18T09:34:17Z</time></trkpt><trkpt lat="43.35516348912153" lon="10.903900506259697"><ele>279.0</ele><time>2026-04-18T09:34:18Z</time></trkpt><trkpt lat="43.35503991992568" lon="10.903795672718365"><ele>279.0</ele><time>2026-04-18T09:34:19Z</time></trkpt><trkpt lat="43.354935370273374" lon="10.903666413777387"><ele>279.0</ele><time>2026-04-18T09:34:20Z</time></trkpt><trkpt lat="43.35482294757903" lon="10.903529313367454"><ele>279.0</ele><time>2026-04-18T09:34:21Z</time></trkpt><trkpt lat="43.35470447693708" lon="10.903388875873704"><ele>279.0</ele><time>2026-04-18T09:34:22Z</time></trkpt><trkpt lat="43.35457973073227" lon="10.903257445328972"><ele>280.0</ele><time>2026-04-18T09:34:23Z</time></trkpt><trkpt lat="43.35445089330764" lon="10.903126840978404"><ele>281.0</ele><time>2026-04-18T09:34:24Z</time></trkpt><trkpt lat="43.35434079561257" lon="10.902992237357761"><ele>282.0</ele><time>2026-04-18T09:34:25Z</time></trkpt><trkpt lat="43.354229510825434" lon="10.902865467697714"><ele>282.0</ele><time>2026-04-18T09:34:26Z</time></trkpt><trkpt lat="43.35412528775177" lon="10.902742481087481"><ele>282.0</ele><time>2026-04-18T09:34:27Z</time></trkpt><trkpt lat="43.35402392032711" lon="10.902634825423592"><ele>282.0</ele><time>2026-04-18T09:34:28Z</time></trkpt><trkpt lat="43.353921388019764" lon="10.902537579029556"><ele>282.0</ele><time>2026-04-18T09:34:29Z</time></trkpt><trkpt lat="43.35382016993626" lon="10.90246491500472"><ele>280.0</ele><time>2026-04-18T09:34:30Z</time></trkpt><trkpt lat="43.3537223493515" lon="10.902427113256993"><ele>278.0</ele><time>2026-04-18T09:34:31Z</time></trkpt><trkpt lat="43.35362039407401" lon="10.902429677889383"><ele>276.0</ele><time>2026-04-18T09:34:32Z</time></trkpt><trkpt lat="43.35350949593122" lon="10.902435642680551"><ele>274.0</ele><time>2026-04-18T09:34:33Z</time></trkpt><trkpt lat="43.353404919357814" lon="10.902454942902152"><ele>272.0</ele><time>2026-04-18T09:34:34Z</time></trkpt><trkpt lat="43.35330555437919" lon="10.902478286414132"><ele>272.0</ele><time>2026-04-18T09:34:35Z</time></trkpt><trkpt lat="43.35321458095959" lon="10.902509669557563"><ele>272.0</ele><time>2026-04-18T09:34:36Z</time></trkpt><trkpt lat="43.353158703813804" lon="10.902552261307246"><ele>272.0</ele><time>2026-04-18T09:34:37Z</time></trkpt><trkpt lat="43.353073327266856" lon="10.902580735049602"><ele>272.0</ele><time>2026-04-18T09:34:38Z</time></trkpt><trkpt lat="43.353016586302054" lon="10.902634730592958"><ele>272.0</ele><time>2026-04-18T09:34:39Z</time></trkpt><trkpt lat="43.35292644311301" lon="10.902685671748161"><ele>272.0</ele><time>2026-04-18T09:34:41Z</time></trkpt><trkpt lat="43.35283712814666" lon="10.902548447125287"><ele>268.0</ele><time>2026-04-18T09:34:43Z</time></trkpt><trkpt lat="43.352826151859595" lon="10.902426509839987"><ele>264.0</ele><time>2026-04-18T09:34:44Z</time></trkpt><trkpt lat="43.352843514114525" lon="10.90226064809889"><ele>260.0</ele><time>2026-04-18T09:34:45Z</time></trkpt><trkpt lat="43.35287429824752" lon="10.902071876633315"><ele>256.0</ele><time>2026-04-18T09:34:46Z</time></trkpt><trkpt lat="43.35291074300519" lon="10.901865943573014"><ele>254.5</ele><time>2026-04-18T09:34:47Z</time></trkpt><trkpt lat="43.35294003697973" lon="10.90168216924651"><ele>253.0</ele><time>2026-04-18T09:34:48Z</time></trkpt><trkpt lat="43.35296549351281" lon="10.90148534601773"><ele>251.5</ele><time>2026-04-18T09:34:49Z</time></trkpt><trkpt lat="43.3529911525435" lon="10.901275300298026"><ele>250.0</ele><time>2026-04-18T09:34:50Z</time></trkpt><trkpt lat="43.353011865045445" lon="10.901089380759316"><ele>250.0</ele><time>2026-04-18T09:34:51Z</time></trkpt><trkpt lat="43.35303036670328" lon="10.900900172973637"><ele>250.0</ele><time>2026-04-18T09:34:51.999Z</time></trkpt><trkpt lat="43.353050233376045" lon="10.900727861893541"><ele>250.0</ele><time>2026-04-18T09:34:52.999Z</time></trkpt><trkpt lat="43.35306687400288" lon="10.900558495461564"><ele>250.0</ele><time>2026-04-18T09:34:53.999Z</time></trkpt><trkpt lat="43.35308179441359" lon="10.900384673517134"><ele>250.0</ele><time>2026-04-18T09:34:54.999Z</time></trkpt><trkpt lat="43.353104454591445" lon="10.90021508634411"><ele>250.0</ele><time>2026-04-18T09:34:55.999Z</time></trkpt><trkpt lat="43.353130426855245" lon="10.900046152777708"><ele>250.0</ele><time>2026-04-18T09:34:56.999Z</time></trkpt><trkpt lat="43.35316431154043" lon="10.899881947772478"><ele>250.0</ele><time>2026-04-18T09:34:57.999Z</time></trkpt><trkpt lat="43.35320683062343" lon="10.899712246844816"><ele>248.5</ele><time>2026-04-18T09:34:58.999Z</time></trkpt><trkpt lat="43.35324581975268" lon="10.899535448670196"><ele>247.0</ele><time>2026-04-18T09:34:59.999Z</time></trkpt><trkpt lat="43.35328707066673" lon="10.899358842045288"><ele>245.5</ele><time>2026-04-18T09:35:00.999Z</time></trkpt><trkpt lat="43.353336096861696" lon="10.899185596510822"><ele>244.0</ele><time>2026-04-18T09:35:01.999Z</time></trkpt><trkpt lat="43.3533825153307" lon="10.899019148335293"><ele>242.25</ele><time>2026-04-18T09:35:02.999Z</time></trkpt><trkpt lat="43.353428280957836" lon="10.898854834136424"><ele>240.5</ele><time>2026-04-18T09:35:03.999Z</time></trkpt><trkpt lat="43.35346093943339" lon="10.898690779329998"><ele>238.75</ele><time>2026-04-18T09:35:04.999Z</time></trkpt><trkpt lat="43.35348017724202" lon="10.898511335753204"><ele>237.0</ele><time>2026-04-18T09:35:05.999Z</time></trkpt><trkpt lat="43.353479541290106" lon="10.89831357863314"><ele>235.33333333333331</ele><time>2026-04-18T09:35:06.999Z</time></trkpt><trkpt lat="43.35346366000205" lon="10.898130390571477"><ele>233.66666666666666</ele><time>2026-04-18T09:35:07.999Z</time></trkpt><trkpt lat="43.35341097501176" lon="10.897936460257682"><ele>232.0</ele><time>2026-04-18T09:35:08.999Z</time></trkpt><trkpt lat="43.35332502907784" lon="10.897742449313611"><ele>230.66666666666666</ele><time>2026-04-18T09:35:09.999Z</time></trkpt><trkpt lat="43.353223372626296" lon="10.8975239514566"><ele>229.33333333333331</ele><time>2026-04-18T09:35:10.999Z</time></trkpt><trkpt lat="43.35312896069076" lon="10.897291722120023"><ele>228.0</ele><time>2026-04-18T09:35:11.999Z</time></trkpt><trkpt lat="43.35305490830988" lon="10.897087019622344"><ele>226.33333333333331</ele><time>2026-04-18T09:35:12.999Z</time></trkpt><trkpt lat="43.352982319425124" lon="10.896883951609684"><ele>224.66666666666666</ele><time>2026-04-18T09:35:13.999Z</time></trkpt><trkpt lat="43.3529138110636" lon="10.896698468167887"><ele>223.0</ele><time>2026-04-18T09:35:14.999Z</time></trkpt><trkpt lat="43.35283780765992" lon="10.896515515996272"><ele>223.0</ele><time>2026-04-18T09:35:15.999Z</time></trkpt><trkpt lat="43.3527519797923" lon="10.896329904454051"><ele>223.0</ele><time>2026-04-18T09:35:16.999Z</time></trkpt><trkpt lat="43.35265275400849" lon="10.896141754206177"><ele>223.0</ele><time>2026-04-18T09:35:17.999Z</time></trkpt><trkpt lat="43.35254196061645" lon="10.895948111241363"><ele>224.0</ele><time>2026-04-18T09:35:18.999Z</time></trkpt><trkpt lat="43.3524358048452" lon="10.895747519924878"><ele>225.0</ele><time>2026-04-18T09:35:19.999Z</time></trkpt><trkpt lat="43.352330968553986" lon="10.895546960543046"><ele>226.0</ele><time>2026-04-18T09:35:20.999Z</time></trkpt><trkpt lat="43.35223183216532" lon="10.895357682911277"><ele>224.66666666666666</ele><time>2026-04-18T09:35:21.999Z</time></trkpt><trkpt lat="43.35213554226899" lon="10.895174254384985"><ele>223.33333333333331</ele><time>2026-04-18T09:35:22.999Z</time></trkpt><trkpt lat="43.35203258382333" lon="10.894995649653705"><ele>222.0</ele><time>2026-04-18T09:35:23.999Z</time></trkpt><trkpt lat="43.35191743121437" lon="10.894843045081036"><ele>222.0</ele><time>2026-04-18T09:35:24.999Z</time></trkpt><trkpt lat="43.351778608665036" lon="10.894702108996835"><ele>222.0</ele><time>2026-04-18T09:35:25.999Z</time></trkpt><trkpt lat="43.35162529701534" lon="10.894575278526373"><ele>222.0</ele><time>2026-04-18T09:35:26.999Z</time></trkpt><trkpt lat="43.3514835443947" lon="10.89447213259922"><ele>222.0</ele><time>2026-04-18T09:35:27.999Z</time></trkpt><trkpt lat="43.35136014595986" lon="10.894353527522147"><ele>222.0</ele><time>2026-04-18T09:35:28.999Z</time></trkpt><trkpt lat="43.35123352991862" lon="10.894273271340264"><ele>222.0</ele><time>2026-04-18T09:35:29.999Z</time></trkpt><trkpt lat="43.35110514284418" lon="10.894240371024303"><ele>222.0</ele><time>2026-04-18T09:35:30.999Z</time></trkpt><trkpt lat="43.35098980963195" lon="10.894183433126175"><ele>222.5</ele><time>2026-04-18T09:35:31.999Z</time></trkpt><trkpt lat="43.35085986923133" lon="10.894168658625022"><ele>223.0</ele><time>2026-04-18T09:35:32.999Z</time></trkpt><trkpt lat="43.350732637789214" lon="10.894143719381361"><ele>223.5</ele><time>2026-04-18T09:35:33.999Z</time></trkpt><trkpt lat="43.35061344144389" lon="10.894140182376473"><ele>224.0</ele><time>2026-04-18T09:35:34.999Z</time></trkpt><trkpt lat="43.35049677447878" lon="10.89415779751702"><ele>224.0</ele><time>2026-04-18T09:35:35.999Z</time></trkpt><trkpt lat="43.35038299975831" lon="10.894214405939643"><ele>224.0</ele><time>2026-04-18T09:35:36.999Z</time></trkpt><trkpt lat="43.350264894573264" lon="10.8943082827372"><ele>224.0</ele><time>2026-04-18T09:35:37.999Z</time></trkpt><trkpt lat="43.350145583222144" lon="10.894433655081608"><ele>224.0</ele><time>2026-04-18T09:35:38.999Z</time></trkpt><trkpt lat="43.35002992929649" lon="10.894598187466743"><ele>223.75</ele><time>2026-04-18T09:35:39.999Z</time></trkpt><trkpt lat="43.349921844686364" lon="10.894722666208292"><ele>223.5</ele><time>2026-04-18T09:35:40.999Z</time></trkpt><trkpt lat="43.34984455922255" lon="10.894867624967103"><ele>223.25</ele><time>2026-04-18T09:35:41.999Z</time></trkpt><trkpt lat="43.3497367060421" lon="10.894945190743767"><ele>223.0</ele><time>2026-04-18T09:35:42.999Z</time></trkpt><trkpt lat="43.34962573280145" lon="10.895025805985282"><ele>223.0</ele><time>2026-04-18T09:35:43.999Z</time></trkpt><trkpt lat="43.349483699520384" lon="10.895045706682499"><ele>223.0</ele><time>2026-04-18T09:35:44.999Z</time></trkpt><trkpt lat="43.34932010458639" lon="10.895018333517912"><ele>223.0</ele><time>2026-04-18T09:35:45.999Z</time></trkpt><trkpt lat="43.34916825788483" lon="10.89499866376896"><ele>223.0</ele><time>2026-04-18T09:35:46.999Z</time></trkpt><trkpt lat="43.34902486571557" lon="10.895002138055206"><ele>223.0</ele><time>2026-04-18T09:35:47.999Z</time></trkpt><trkpt lat="43.34885446616022" lon="10.895009947709237"><ele>223.0</ele><time>2026-04-18T09:35:48.999Z</time></trkpt><trkpt lat="43.348692929715895" lon="10.89503152294875"><ele>223.0</ele><time>2026-04-18T09:35:49.999Z</time></trkpt><trkpt lat="43.34854671154869" lon="10.89507044906123"><ele>223.0</ele><time>2026-04-18T09:35:50.999Z</time></trkpt><trkpt lat="43.34840785734041" lon="10.895130537133843"><ele>223.0</ele><time>2026-04-18T09:35:51.999Z</time></trkpt><trkpt lat="43.34826851929535" lon="10.895157340687343"><ele>223.0</ele><time>2026-04-18T09:35:52.999Z</time></trkpt><trkpt lat="43.34812169686715" lon="10.895210863130934"><ele>220.0</ele><time>2026-04-18T09:35:53.999Z</time></trkpt><trkpt lat="43.347954033353915" lon="10.895197276928437"><ele>217.0</ele><time>2026-04-18T09:35:54.999Z</time></trkpt><trkpt lat="43.34777173095282" lon="10.895136199278028"><ele>214.0</ele><time>2026-04-18T09:35:55.999Z</time></trkpt><trkpt lat="43.347580206194294" lon="10.895059873217908"><ele>214.0</ele><time>2026-04-18T09:35:56.999Z</time></trkpt><trkpt lat="43.347391255721135" lon="10.894972676458568"><ele>214.0</ele><time>2026-04-18T09:35:57.999Z</time></trkpt><trkpt lat="43.34721199422664" lon="10.89489166104326"><ele>214.0</ele><time>2026-04-18T09:35:58.999Z</time></trkpt><trkpt lat="43.347050436694985" lon="10.894819589938912"><ele>214.0</ele><time>2026-04-18T09:35:59.999Z</time></trkpt><trkpt lat="43.346905617647245" lon="10.894756210275593"><ele>214.0</ele><time>2026-04-18T09:36:00.999Z</time></trkpt><trkpt lat="43.34677711007822" lon="10.894699438501044"><ele>214.0</ele><time>2026-04-18T09:36:01.999Z</time></trkpt><trkpt lat="43.34666415935943" lon="10.894647865912818"><ele>214.0</ele><time>2026-04-18T09:36:02.999Z</time></trkpt><trkpt lat="43.34657167045482" lon="10.894612291498001"><ele>214.0</ele><time>2026-04-18T09:36:03.999Z</time></trkpt><trkpt lat="43.34648773287776" lon="10.894566777999778"><ele>213.99999999999997</ele><time>2026-04-18T09:36:05Z</time></trkpt><trkpt lat="43.34644781599514" lon="10.894432661178824"><ele>213.99999999999997</ele><time>2026-04-18T09:36:06Z</time></trkpt><trkpt lat="43.346391880856906" lon="10.89433735010662"><ele>214.0</ele><time>2026-04-18T09:36:07Z</time></trkpt><trkpt lat="43.3463426573313" lon="10.894243146705255"><ele>214.0</ele><time>2026-04-18T09:36:08Z</time></trkpt><trkpt lat="43.34629941351727" lon="10.894144953632729"><ele>217.6</ele><time>2026-04-18T09:36:09Z</time></trkpt><trkpt lat="43.34625922427552" lon="10.894052150456115"><ele>221.2</ele><time>2026-04-18T09:36:10Z</time></trkpt><trkpt lat="43.34622493784924" lon="10.893972977650755"><ele>224.79999999999998</ele><time>2026-04-18T09:36:11Z</time></trkpt><trkpt lat="43.34618119180792" lon="10.893871959339776"><ele>228.39999999999998</ele><time>2026-04-18T09:36:12Z</time></trkpt><trkpt lat="43.346115715858225" lon="10.893731364239896"><ele>232.0</ele><time>2026-04-18T09:36:13Z</time></trkpt><trkpt lat="43.3460372977983" lon="10.89356846152161"><ele>230.33333333333331</ele><time>2026-04-18T09:36:14Z</time></trkpt><trkpt lat="43.3459393329914" lon="10.89337596029201"><ele>228.66666666666669</ele><time>2026-04-18T09:36:15Z</time></trkpt><trkpt lat="43.345829548748796" lon="10.89320406325014"><ele>227.0</ele><time>2026-04-18T09:36:16Z</time></trkpt><trkpt lat="43.345740503180316" lon="10.89302792528181"><ele>227.0</ele><time>2026-04-18T09:36:17Z</time></trkpt><trkpt lat="43.34566682241163" lon="10.89283522104162"><ele>227.0</ele><time>2026-04-18T09:36:18Z</time></trkpt><trkpt lat="43.34557466302837" lon="10.892656079292607"><ele>227.0</ele><time>2026-04-18T09:36:19Z</time></trkpt><trkpt lat="43.34549977879002" lon="10.892474533507674"><ele>229.0</ele><time>2026-04-18T09:36:20Z</time></trkpt><trkpt lat="43.34543538897416" lon="10.892299919800063"><ele>231.0</ele><time>2026-04-18T09:36:21Z</time></trkpt><trkpt lat="43.34536969874787" lon="10.89212916571917"><ele>233.0</ele><time>2026-04-18T09:36:22Z</time></trkpt><trkpt lat="43.345290800710295" lon="10.89196459946504"><ele>235.0</ele><time>2026-04-18T09:36:23Z</time></trkpt><trkpt lat="43.34521092251996" lon="10.891794060824232"><ele>232.5</ele><time>2026-04-18T09:36:24Z</time></trkpt><trkpt lat="43.34510943370649" lon="10.891680250113147"><ele>230.0</ele><time>2026-04-18T09:36:25Z</time></trkpt><trkpt lat="43.345020070012424" lon="10.89155360878478"><ele>227.5</ele><time>2026-04-18T09:36:26Z</time></trkpt><trkpt lat="43.34493510279674" lon="10.89143748603107"><ele>225.0</ele><time>2026-04-18T09:36:27Z</time></trkpt><trkpt lat="43.344862648119445" lon="10.891335786491831"><ele>225.0</ele><time>2026-04-18T09:36:28Z</time></trkpt><trkpt lat="43.34479759350822" lon="10.891245688575697"><ele>225.0</ele><time>2026-04-18T09:36:29Z</time></trkpt><trkpt lat="43.3447658680515" lon="10.891161623806129"><ele>225.0</ele><time>2026-04-18T09:36:30Z</time></trkpt><trkpt lat="43.34473278145253" lon="10.890987772600678"><ele>225.0</ele><time>2026-04-18T09:36:32Z</time></trkpt><trkpt lat="43.34477957595033" lon="10.890898255727906"><ele>225.0</ele><time>2026-04-18T09:36:33Z</time></trkpt><trkpt lat="43.344877626318926" lon="10.890885712820184"><ele>223.2</ele><time>2026-04-18T09:36:34Z</time></trkpt><trkpt lat="43.344942932870914" lon="10.890876212404528"><ele>221.4</ele><time>2026-04-18T09:36:35Z</time></trkpt><trkpt lat="43.34502791244929" lon="10.890836516898046"><ele>219.60000000000002</ele><time>2026-04-18T09:36:36Z</time></trkpt><trkpt lat="43.34511541064878" lon="10.89078281476203"><ele>217.8</ele><time>2026-04-18T09:36:37Z</time></trkpt><trkpt lat="43.34520751845345" lon="10.890690288401"><ele>216.0</ele><time>2026-04-18T09:36:38Z</time></trkpt><trkpt lat="43.34527138312703" lon="10.89055552790725"><ele>216.0</ele><time>2026-04-18T09:36:39Z</time></trkpt><trkpt lat="43.34531158029485" lon="10.89040713730628"><ele>216.0</ele><time>2026-04-18T09:36:40Z</time></trkpt><trkpt lat="43.34532537226286" lon="10.890232112462273"><ele>216.0</ele><time>2026-04-18T09:36:41Z</time></trkpt><trkpt lat="43.34533115117295" lon="10.890018400477963"><ele>216.0</ele><time>2026-04-18T09:36:42Z</time></trkpt><trkpt lat="43.34532363975364" lon="10.88978283409586"><ele>214.75</ele><time>2026-04-18T09:36:43Z</time></trkpt><trkpt lat="43.34531767581711" lon="10.889556993976376"><ele>213.5</ele><time>2026-04-18T09:36:44Z</time></trkpt><trkpt lat="43.34531540602681" lon="10.88936541535724"><ele>212.25</ele><time>2026-04-18T09:36:45Z</time></trkpt><trkpt lat="43.34532002384875" lon="10.889190741628072"><ele>211.0</ele><time>2026-04-18T09:36:46Z</time></trkpt><trkpt lat="43.345335463904505" lon="10.889014281624195"><ele>209.5</ele><time>2026-04-18T09:36:47Z</time></trkpt><trkpt lat="43.34537584000256" lon="10.888860788709232"><ele>208.0</ele><time>2026-04-18T09:36:48Z</time></trkpt><trkpt lat="43.34543133319496" lon="10.888726741338026"><ele>206.5</ele><time>2026-04-18T09:36:49Z</time></trkpt><trkpt lat="43.3455096113577" lon="10.888577530903476"><ele>205.0</ele><time>2026-04-18T09:36:50Z</time></trkpt><trkpt lat="43.34558556817249" lon="10.888433305931168"><ele>205.25</ele><time>2026-04-18T09:36:51Z</time></trkpt><trkpt lat="43.345640834139544" lon="10.88828420794719"><ele>205.5</ele><time>2026-04-18T09:36:52Z</time></trkpt><trkpt lat="43.34568721566761" lon="10.8880969407514"><ele>205.75</ele><time>2026-04-18T09:36:53Z</time></trkpt><trkpt lat="43.345716546304246" lon="10.887928140812487"><ele>206.0</ele><time>2026-04-18T09:36:54Z</time></trkpt><trkpt lat="43.34572574456816" lon="10.887764817747136"><ele>206.66666666666669</ele><time>2026-04-18T09:36:55Z</time></trkpt><trkpt lat="43.345725698558404" lon="10.88757451966747"><ele>207.33333333333331</ele><time>2026-04-18T09:36:56Z</time></trkpt><trkpt lat="43.34571500299892" lon="10.887350865158513"><ele>208.0</ele><time>2026-04-18T09:36:57Z</time></trkpt><trkpt lat="43.345706048412076" lon="10.887110295135507"><ele>208.0</ele><time>2026-04-18T09:36:58Z</time></trkpt><trkpt lat="43.34571277323841" lon="10.886856639155639"><ele>208.0</ele><time>2026-04-18T09:36:59Z</time></trkpt><trkpt lat="43.34572490920505" lon="10.886576192167784"><ele>208.0</ele><time>2026-04-18T09:37:00Z</time></trkpt><trkpt lat="43.34574754157447" lon="10.886326583390886"><ele>208.66666666666666</ele><time>2026-04-18T09:37:01Z</time></trkpt><trkpt lat="43.34575505699488" lon="10.886085465240694"><ele>209.33333333333331</ele><time>2026-04-18T09:37:02Z</time></trkpt><trkpt lat="43.34575279857775" lon="10.88585486472817"><ele>210.0</ele><time>2026-04-18T09:37:03Z</time></trkpt><trkpt lat="43.34572039299675" lon="10.885631856104068"><ele>210.75</ele><time>2026-04-18T09:37:04Z</time></trkpt><trkpt lat="43.345670187750564" lon="10.885427615601708"><ele>211.5</ele><time>2026-04-18T09:37:05Z</time></trkpt><trkpt lat="43.34564546383787" lon="10.885243686141928"><ele>212.25</ele><time>2026-04-18T09:37:05.999Z</time></trkpt><trkpt lat="43.34563977604457" lon="10.885065107857415"><ele>213.0</ele><time>2026-04-18T09:37:06.999Z</time></trkpt><trkpt lat="43.34565619672869" lon="10.88487725462238"><ele>214.0</ele><time>2026-04-18T09:37:07.999Z</time></trkpt><trkpt lat="43.345693060799036" lon="10.884701046300782"><ele>215.0</ele><time>2026-04-18T09:37:08.999Z</time></trkpt><trkpt lat="43.34575204269575" lon="10.88454093817447"><ele>216.0</ele><time>2026-04-18T09:37:09.999Z</time></trkpt><trkpt lat="43.345824141800314" lon="10.884401207914092"><ele>217.0</ele><time>2026-04-18T09:37:10.999Z</time></trkpt><trkpt lat="43.3458838491662" lon="10.884300865606086"><ele>217.83333333333331</ele><time>2026-04-18T09:37:11.999Z</time></trkpt><trkpt lat="43.34591042324408" lon="10.88419965557611"><ele>218.66666666666666</ele><time>2026-04-18T09:37:12.999Z</time></trkpt><trkpt lat="43.345905303764795" lon="10.884112985280048"><ele>219.5</ele><time>2026-04-18T09:37:13.999Z</time></trkpt><trkpt lat="43.345873333716675" lon="10.883995033924814"><ele>220.33333333333331</ele><time>2026-04-18T09:37:14.999Z</time></trkpt><trkpt lat="43.345862177377704" lon="10.883861887568571"><ele>221.16666666666666</ele><time>2026-04-18T09:37:15.999Z</time></trkpt><trkpt lat="43.345822447407" lon="10.883740452375957"><ele>222.0</ele><time>2026-04-18T09:37:16.999Z</time></trkpt><trkpt lat="43.34579912693196" lon="10.88358492185105"><ele>224.0</ele><time>2026-04-18T09:37:17.999Z</time></trkpt><trkpt lat="43.34576402492787" lon="10.883414118328547"><ele>226.0</ele><time>2026-04-18T09:37:18.999Z</time></trkpt><trkpt lat="43.34572772335299" lon="10.883259742207446"><ele>228.0</ele><time>2026-04-18T09:37:19.999Z</time></trkpt><trkpt lat="43.34574830237945" lon="10.88310755434588"><ele>230.0</ele><time>2026-04-18T09:37:20.999Z</time></trkpt><trkpt lat="43.34579527766838" lon="10.882960065025"><ele>230.0</ele><time>2026-04-18T09:37:21.999Z</time></trkpt><trkpt lat="43.34585554700328" lon="10.882794673585366"><ele>230.0</ele><time>2026-04-18T09:37:22.999Z</time></trkpt><trkpt lat="43.34592278547909" lon="10.882642394284742"><ele>230.0</ele><time>2026-04-18T09:37:23.999Z</time></trkpt><trkpt lat="43.346004073200305" lon="10.88253551565392"><ele>230.0</ele><time>2026-04-18T09:37:24.999Z</time></trkpt><trkpt lat="43.34605280633858" lon="10.882426331388544"><ele>231.6</ele><time>2026-04-18T09:37:25.999Z</time></trkpt><trkpt lat="43.34607893352715" lon="10.88231891685106"><ele>233.2</ele><time>2026-04-18T09:37:26.999Z</time></trkpt><trkpt lat="43.346074753705466" lon="10.882185193913578"><ele>234.8</ele><time>2026-04-18T09:37:27.999Z</time></trkpt><trkpt lat="43.34607868608597" lon="10.882036890772563"><ele>236.4</ele><time>2026-04-18T09:37:28.999Z</time></trkpt><trkpt lat="43.34608679574518" lon="10.881879852935135"><ele>238.0</ele><time>2026-04-18T09:37:29.999Z</time></trkpt><trkpt lat="43.34610009078896" lon="10.881706319034903"><ele>239.5</ele><time>2026-04-18T09:37:30.999Z</time></trkpt><trkpt lat="43.34611925110126" lon="10.8815440856894"><ele>241.0</ele><time>2026-04-18T09:37:31.999Z</time></trkpt><trkpt lat="43.34607373738909" lon="10.881385693400867"><ele>242.5</ele><time>2026-04-18T09:37:32.999Z</time></trkpt><trkpt lat="43.34604953358647" lon="10.881242801199477"><ele>244.0</ele><time>2026-04-18T09:37:33.999Z</time></trkpt><trkpt lat="43.34601247259068" lon="10.881053133843773"><ele>244.66666666666666</ele><time>2026-04-18T09:37:34.999Z</time></trkpt><trkpt lat="43.346005897723664" lon="10.880919263576356"><ele>245.33333333333331</ele><time>2026-04-18T09:37:35.999Z</time></trkpt><trkpt lat="43.3460316215176" lon="10.880768235896344"><ele>246.0</ele><time>2026-04-18T09:37:36.999Z</time></trkpt><trkpt lat="43.34603800227432" lon="10.88066408182827"><ele>246.66666666666669</ele><time>2026-04-18T09:37:37.999Z</time></trkpt><trkpt lat="43.346025925450995" lon="10.880559189590892"><ele>247.33333333333334</ele><time>2026-04-18T09:37:38.999Z</time></trkpt><trkpt lat="43.345972394124324" lon="10.880502209987123"><ele>248.0</ele><time>2026-04-18T09:37:39.999Z</time></trkpt><trkpt lat="43.345903944730445" lon="10.88050072939736"><ele>248.0</ele><time>2026-04-18T09:37:40.999Z</time></trkpt><trkpt lat="43.34580981005948" lon="10.88049383323407"><ele>248.0</ele><time>2026-04-18T09:37:41.999Z</time></trkpt><trkpt lat="43.345704398883264" lon="10.880434637660773"><ele>248.0</ele><time>2026-04-18T09:37:42.999Z</time></trkpt><trkpt lat="43.34559825711552" lon="10.880330037748784"><ele>248.0</ele><time>2026-04-18T09:37:43.999Z</time></trkpt><trkpt lat="43.345487350999534" lon="10.880197773360138"><ele>249.66666666666669</ele><time>2026-04-18T09:37:44.999Z</time></trkpt><trkpt lat="43.345352135230705" lon="10.880086673671721"><ele>251.33333333333331</ele><time>2026-04-18T09:37:45.999Z</time></trkpt><trkpt lat="43.34520962564517" lon="10.879990173459753"><ele>253.0</ele><time>2026-04-18T09:37:46.999Z</time></trkpt><trkpt lat="43.345068971892545" lon="10.8799022679203"><ele>253.0</ele><time>2026-04-18T09:37:47.999Z</time></trkpt><trkpt lat="43.34496727509154" lon="10.879791987386902"><ele>253.0</ele><time>2026-04-18T09:37:48.999Z</time></trkpt><trkpt lat="43.34485011818518" lon="10.879703393936603"><ele>253.0</ele><time>2026-04-18T09:37:49.999Z</time></trkpt><trkpt lat="43.3447558814281" lon="10.879607087151303"><ele>253.0</ele><time>2026-04-18T09:37:50.999Z</time></trkpt><trkpt lat="43.34465840720957" lon="10.879545832988908"><ele>253.75</ele><time>2026-04-18T09:37:51.999Z</time></trkpt><trkpt lat="43.344570084890165" lon="10.879418259804831"><ele>254.5</ele><time>2026-04-18T09:37:52.999Z</time></trkpt><trkpt lat="43.344484306243714" lon="10.879283004395406"><ele>255.25</ele><time>2026-04-18T09:37:53.999Z</time></trkpt><trkpt lat="43.34441776664101" lon="10.879146212537943"><ele>256.0</ele><time>2026-04-18T09:37:54.999Z</time></trkpt><trkpt lat="43.34436062470839" lon="10.87904606721957"><ele>256.0</ele><time>2026-04-18T09:37:55.999Z</time></trkpt><trkpt lat="43.34428275437492" lon="10.87901853993434"><ele>256.0</ele><time>2026-04-18T09:37:56.999Z</time></trkpt><trkpt lat="43.34415106612648" lon="10.878949674710116"><ele>256.0</ele><time>2026-04-18T09:37:57.999Z</time></trkpt><trkpt lat="43.344010416017916" lon="10.878886772952438"><ele>256.0</ele><time>2026-04-18T09:37:58.999Z</time></trkpt><trkpt lat="43.343848659591586" lon="10.878811050549269"><ele>259.66666666666663</ele><time>2026-04-18T09:37:59.999Z</time></trkpt><trkpt lat="43.34366194762187" lon="10.878735486727633"><ele>263.3333333333333</ele><time>2026-04-18T09:38:00.999Z</time></trkpt><trkpt lat="43.34349648824856" lon="10.878628577774707"><ele>267.0</ele><time>2026-04-18T09:38:01.999Z</time></trkpt><trkpt lat="43.343356041333294" lon="10.878554185116133"><ele>267.0</ele><time>2026-04-18T09:38:02.999Z</time></trkpt><trkpt lat="43.34323798107366" lon="10.87847530129466"><ele>267.0</ele><time>2026-04-18T09:38:03.999Z</time></trkpt><trkpt lat="43.34309644195494" lon="10.878357657561322"><ele>267.0</ele><time>2026-04-18T09:38:04.999Z</time></trkpt><trkpt lat="43.342943212226984" lon="10.878237598432595"><ele>266.0</ele><time>2026-04-18T09:38:05.999Z</time></trkpt><trkpt lat="43.34279654350298" lon="10.878140617991491"><ele>265.0</ele><time>2026-04-18T09:38:06.999Z</time></trkpt><trkpt lat="43.342651775746155" lon="10.878088565060107"><ele>264.0</ele><time>2026-04-18T09:38:07.999Z</time></trkpt><trkpt lat="43.34253381035645" lon="10.878011391595658"><ele>263.0</ele><time>2026-04-18T09:38:08.999Z</time></trkpt><trkpt lat="43.342425716097885" lon="10.877977811132334"><ele>263.0</ele><time>2026-04-18T09:38:09.999Z</time></trkpt><trkpt lat="43.34232686650906" lon="10.877950541078855"><ele>263.0</ele><time>2026-04-18T09:38:11Z</time></trkpt><trkpt lat="43.342257522335494" lon="10.87791780350558"><ele>263.0</ele><time>2026-04-18T09:38:12Z</time></trkpt><trkpt lat="43.34219619435964" lon="10.877864061713733"><ele>263.0</ele><time>2026-04-18T09:38:14Z</time></trkpt><trkpt lat="43.34210698529219" lon="10.877881568710768"><ele>263.0</ele><time>2026-04-18T09:38:20Z</time></trkpt><trkpt lat="43.34201754359609" lon="10.877816811171854"><ele>263.0</ele><time>2026-04-18T09:38:22Z</time></trkpt><trkpt lat="43.34194059659291" lon="10.877737623242357"><ele>261.6</ele><time>2026-04-18T09:38:24Z</time></trkpt><trkpt lat="43.34189390736645" lon="10.877671064230045"><ele>260.20000000000005</ele><time>2026-04-18T09:38:26Z</time></trkpt><trkpt lat="43.341848961019224" lon="10.877603250549997"><ele>258.8</ele><time>2026-04-18T09:38:27Z</time></trkpt><trkpt lat="43.341773336283474" lon="10.877472670913761"><ele>257.40000000000003</ele><time>2026-04-18T09:38:29Z</time></trkpt><trkpt lat="43.34170085238226" lon="10.87733111549762"><ele>256.0</ele><time>2026-04-18T09:38:31Z</time></trkpt><trkpt lat="43.34164459792043" lon="10.877172104727247"><ele>255.99999999999997</ele><time>2026-04-18T09:38:33Z</time></trkpt><trkpt lat="43.341622078642516" lon="10.87703662740344"><ele>256.0</ele><time>2026-04-18T09:38:35Z</time></trkpt><trkpt lat="43.34159620910075" lon="10.876953893215484"><ele>256.0</ele><time>2026-04-18T09:38:37Z</time></trkpt><trkpt lat="43.34155919652018" lon="10.87685923411993"><ele>256.0</ele><time>2026-04-18T09:38:40Z</time></trkpt><trkpt lat="43.3415158406787" lon="10.876790884804384"><ele>255.99999999999997</ele><time>2026-04-18T09:38:44Z</time></trkpt><trkpt lat="43.34145671972773" lon="10.87669657145308"><ele>256.0</ele><time>2026-04-18T09:38:47Z</time></trkpt><trkpt lat="43.34152784181215" lon="10.87673199733048"><ele>256.0</ele><time>2026-04-18T09:39:13.999Z</time></trkpt><trkpt lat="43.34158169631195" lon="10.876858783714356"><ele>256.0</ele><time>2026-04-18T09:39:14.999Z</time></trkpt><trkpt lat="43.34162659018154" lon="10.876993604781266"><ele>256.0</ele><time>2026-04-18T09:39:15.999Z</time></trkpt><trkpt lat="43.341670020317416" lon="10.877132712030187"><ele>256.0</ele><time>2026-04-18T09:39:16.999Z</time></trkpt><trkpt lat="43.34171022451405" lon="10.877280237444335"><ele>256.0</ele><time>2026-04-18T09:39:17.999Z</time></trkpt><trkpt lat="43.34177834852257" lon="10.87742767184706"><ele>256.0</ele><time>2026-04-18T09:39:18.999Z</time></trkpt><trkpt lat="43.34184790521928" lon="10.877559221538702"><ele>256.0</ele><time>2026-04-18T09:39:19.999Z</time></trkpt><trkpt lat="43.34190580828156" lon="10.877678433158495"><ele>256.0</ele><time>2026-04-18T09:39:20.999Z</time></trkpt><trkpt lat="43.34197259622053" lon="10.877767785692372"><ele>256.0</ele><time>2026-04-18T09:39:21.999Z</time></trkpt><trkpt lat="43.34203863982938" lon="10.877834788977598"><ele>256.0</ele><time>2026-04-18T09:39:22.999Z</time></trkpt><trkpt lat="43.342126925978626" lon="10.877882272853766"><ele>256.0</ele><time>2026-04-18T09:39:24.999Z</time></trkpt><trkpt lat="43.342003409414296" lon="10.877748554895247"><ele>256.0</ele><time>2026-04-18T09:40:19Z</time></trkpt><trkpt lat="43.34194072455654" lon="10.87766603248862"><ele>256.0</ele><time>2026-04-18T09:40:20Z</time></trkpt><trkpt lat="43.34188844964493" lon="10.87758133284722"><ele>256.0</ele><time>2026-04-18T09:40:21Z</time></trkpt><trkpt lat="43.34184170574852" lon="10.877505977255977"><ele>256.0</ele><time>2026-04-18T09:40:22Z</time></trkpt><trkpt lat="43.34177662684368" lon="10.877360390418817"><ele>256.0</ele><time>2026-04-18T09:40:24Z</time></trkpt><trkpt lat="43.34170611610843" lon="10.877216330267986"><ele>256.0</ele><time>2026-04-18T09:40:26Z</time></trkpt><trkpt lat="43.34167649373884" lon="10.877118720483706"><ele>256.0</ele><time>2026-04-18T09:40:27Z</time></trkpt><trkpt lat="43.34162935829462" lon="10.877023370166183"><ele>256.0</ele><time>2026-04-18T09:40:28Z</time></trkpt><trkpt lat="43.341593085766526" lon="10.876917763312743"><ele>256.0</ele><time>2026-04-18T09:40:29Z</time></trkpt><trkpt lat="43.341560406377376" lon="10.87681769689106"><ele>257.8</ele><time>2026-04-18T09:40:30Z</time></trkpt><trkpt lat="43.341504275664704" lon="10.87671718789956"><ele>259.6</ele><time>2026-04-18T09:40:31Z</time></trkpt><trkpt lat="43.34145071866897" lon="10.876602500471401"><ele>261.4</ele><time>2026-04-18T09:40:32Z</time></trkpt><trkpt lat="43.3414147260776" lon="10.876480186149921"><ele>263.2</ele><time>2026-04-18T09:40:33Z</time></trkpt><trkpt lat="43.34138945937305" lon="10.876334754204422"><ele>265.0</ele><time>2026-04-18T09:40:34Z</time></trkpt><trkpt lat="43.34137858105452" lon="10.8762478424141"><ele>262.6</ele><time>2026-04-18T09:40:35Z</time></trkpt><trkpt lat="43.3413340827456" lon="10.876106414147431"><ele>260.2</ele><time>2026-04-18T09:40:37Z</time></trkpt><trkpt lat="43.34128693396525" lon="10.876007570617633"><ele>257.8</ele><time>2026-04-18T09:40:38Z</time></trkpt><trkpt lat="43.3412048640925" lon="10.875925738516793"><ele>255.4</ele><time>2026-04-18T09:40:39Z</time></trkpt><trkpt lat="43.3411158257733" lon="10.875865873820556"><ele>253.0</ele><time>2026-04-18T09:40:40Z</time></trkpt><trkpt lat="43.34101362764276" lon="10.87583200052366"><ele>253.0</ele><time>2026-04-18T09:40:41Z</time></trkpt><trkpt lat="43.34092193179372" lon="10.875805666546214"><ele>253.0</ele><time>2026-04-18T09:40:42Z</time></trkpt><trkpt lat="43.34081128993708" lon="10.875780330046124"><ele>253.0</ele><time>2026-04-18T09:40:43Z</time></trkpt><trkpt lat="43.34071168895895" lon="10.875761850885135"><ele>253.0</ele><time>2026-04-18T09:40:44Z</time></trkpt><trkpt lat="43.34061608305445" lon="10.875726361891665"><ele>253.0</ele><time>2026-04-18T09:40:45Z</time></trkpt><trkpt lat="43.3405333638866" lon="10.875665087703704"><ele>251.4</ele><time>2026-04-18T09:40:46Z</time></trkpt><trkpt lat="43.34044047999616" lon="10.875632489186557"><ele>249.8</ele><time>2026-04-18T09:40:47Z</time></trkpt><trkpt lat="43.34035387625976" lon="10.875645626588591"><ele>248.2</ele><time>2026-04-18T09:40:48Z</time></trkpt><trkpt lat="43.34027435911125" lon="10.875688749107166"><ele>246.6</ele><time>2026-04-18T09:40:49Z</time></trkpt><trkpt lat="43.340146879440496" lon="10.875769941939833"><ele>245.0</ele><time>2026-04-18T09:40:50Z</time></trkpt><trkpt lat="43.34006617987725" lon="10.87575838195026"><ele>245.0</ele><time>2026-04-18T09:40:51Z</time></trkpt><trkpt lat="43.339979788240356" lon="10.875708818334619"><ele>245.0</ele><time>2026-04-18T09:40:52Z</time></trkpt><trkpt lat="43.33994059249328" lon="10.87563108122553"><ele>245.0</ele><time>2026-04-18T09:40:54Z</time></trkpt><trkpt lat="43.34004615004068" lon="10.875508934832684"><ele>245.0</ele><time>2026-04-18T09:41:08Z</time></trkpt><trkpt lat="43.34011228017446" lon="10.875434154915158"><ele>245.0</ele><time>2026-04-18T09:41:09Z</time></trkpt><trkpt lat="43.34017957356148" lon="10.875364225213117"><ele>245.0</ele><time>2026-04-18T09:41:10Z</time></trkpt><trkpt lat="43.340243428854734" lon="10.875313075749693"><ele>245.0</ele><time>2026-04-18T09:41:10.999Z</time></trkpt><trkpt lat="43.34028031304589" lon="10.875234801976704"><ele>245.0</ele><time>2026-04-18T09:41:11.999Z</time></trkpt><trkpt lat="43.34029312184654" lon="10.87508854483337"><ele>245.0</ele><time>2026-04-18T09:41:13.999Z</time></trkpt><trkpt lat="43.340337933413906" lon="10.87491383053502"><ele>245.0</ele><time>2026-04-18T09:41:15.999Z</time></trkpt><trkpt lat="43.340367886914215" lon="10.874812014392024"><ele>243.6</ele><time>2026-04-18T09:41:16.999Z</time></trkpt><trkpt lat="43.340372895733495" lon="10.874652728458429"><ele>242.2</ele><time>2026-04-18T09:41:17.999Z</time></trkpt><trkpt lat="43.34037264072079" lon="10.874503865743684"><ele>240.8</ele><time>2026-04-18T09:41:18.999Z</time></trkpt><trkpt lat="43.340359447444264" lon="10.874383757595515"><ele>239.4</ele><time>2026-04-18T09:41:19.999Z</time></trkpt><trkpt lat="43.34034176645831" lon="10.874277958844548"><ele>238.0</ele><time>2026-04-18T09:41:20.999Z</time></trkpt><trkpt lat="43.34032078013894" lon="10.874139548729444"><ele>236.99999999999997</ele><time>2026-04-18T09:41:21.999Z</time></trkpt><trkpt lat="43.34028362442637" lon="10.874026399369841"><ele>236.0</ele><time>2026-04-18T09:41:22.999Z</time></trkpt><trkpt lat="43.34023797843325" lon="10.873914857223552"><ele>235.0</ele><time>2026-04-18T09:41:23.999Z</time></trkpt><trkpt lat="43.34020645047782" lon="10.873805746882594"><ele>234.0</ele><time>2026-04-18T09:41:24.999Z</time></trkpt><trkpt lat="43.34021108309197" lon="10.873700916314474"><ele>232.99999999999997</ele><time>2026-04-18T09:41:25.999Z</time></trkpt><trkpt lat="43.34019136266671" lon="10.873577901023983"><ele>232.0</ele><time>2026-04-18T09:41:26.999Z</time></trkpt><trkpt lat="43.340135119605094" lon="10.873459609591178"><ele>233.0</ele><time>2026-04-18T09:41:27.999Z</time></trkpt><trkpt lat="43.34008806226412" lon="10.873373622248558"><ele>234.0</ele><time>2026-04-18T09:41:28.999Z</time></trkpt><trkpt lat="43.340025840659834" lon="10.873239990942228"><ele>235.0</ele><time>2026-04-18T09:41:29.999Z</time></trkpt><trkpt lat="43.33996976377098" lon="10.873126569411182"><ele>236.0</ele><time>2026-04-18T09:41:30.999Z</time></trkpt><trkpt lat="43.339905726779875" lon="10.873036257360503"><ele>237.0</ele><time>2026-04-18T09:41:31.999Z</time></trkpt><trkpt lat="43.33984118261236" lon="10.872949063210521"><ele>237.0</ele><time>2026-04-18T09:41:32.999Z</time></trkpt><trkpt lat="43.339815983306615" lon="10.872854716380173"><ele>237.0</ele><time>2026-04-18T09:41:33.999Z</time></trkpt><trkpt lat="43.33981888175501" lon="10.87276526068587"><ele>237.0</ele><time>2026-04-18T09:41:34.999Z</time></trkpt><trkpt lat="43.33983647859097" lon="10.872632508833389"><ele>237.0</ele><time>2026-04-18T09:41:36.999Z</time></trkpt><trkpt lat="43.33989008378132" lon="10.872518515485337"><ele>237.0</ele><time>2026-04-18T09:41:38.999Z</time></trkpt><trkpt lat="43.33990346609879" lon="10.872423359082028"><ele>237.0</ele><time>2026-04-18T09:41:39.999Z</time></trkpt><trkpt lat="43.33991196933255" lon="10.872324633628113"><ele>237.8</ele><time>2026-04-18T09:41:40.999Z</time></trkpt><trkpt lat="43.33992433531902" lon="10.872175876318392"><ele>238.6</ele><time>2026-04-18T09:41:42.999Z</time></trkpt><trkpt lat="43.339881519847054" lon="10.87207927824853"><ele>239.40000000000003</ele><time>2026-04-18T09:41:44.999Z</time></trkpt><trkpt lat="43.33986523514359" lon="10.87193790965284"><ele>240.20000000000002</ele><time>2026-04-18T09:41:46.999Z</time></trkpt><trkpt lat="43.33986293303225" lon="10.871846080777647"><ele>241.0</ele><time>2026-04-18T09:41:49.999Z</time></trkpt><trkpt lat="43.33980195902061" lon="10.871743311387876"><ele>241.4</ele><time>2026-04-18T09:42:03.999Z</time></trkpt><trkpt lat="43.33976329966644" lon="10.871580703204698"><ele>241.8</ele><time>2026-04-18T09:42:05.999Z</time></trkpt><trkpt lat="43.33975808286671" lon="10.871485619867514"><ele>242.20000000000002</ele><time>2026-04-18T09:42:06.999Z</time></trkpt><trkpt lat="43.33976002998559" lon="10.871393961410392"><ele>242.60000000000002</ele><time>2026-04-18T09:42:07.999Z</time></trkpt><trkpt lat="43.339756774207416" lon="10.871184154890887"><ele>243.0</ele><time>2026-04-18T09:42:09.999Z</time></trkpt><trkpt lat="43.33974679779356" lon="10.87107905499506"><ele>243.0</ele><time>2026-04-18T09:42:10.999Z</time></trkpt><trkpt lat="43.33971953366648" lon="10.870979246135358"><ele>243.0</ele><time>2026-04-18T09:42:11.999Z</time></trkpt><trkpt lat="43.33967955684243" lon="10.870896977123087"><ele>243.0</ele><time>2026-04-18T09:42:12.999Z</time></trkpt><trkpt lat="43.33963261588731" lon="10.870831387373133"><ele>243.0</ele><time>2026-04-18T09:42:14.999Z</time></trkpt><trkpt lat="43.339591227278675" lon="10.870751623468603"><ele>243.0</ele><time>2026-04-18T09:42:24Z</time></trkpt><trkpt lat="43.33954006975577" lon="10.870688113734955"><ele>243.0</ele><time>2026-04-18T09:42:27Z</time></trkpt><trkpt lat="43.339485795139645" lon="10.870605730350196"><ele>243.0</ele><time>2026-04-18T09:42:29Z</time></trkpt><trkpt lat="43.339425230371845" lon="10.870432193057797"><ele>238.2</ele><time>2026-04-18T09:42:31Z</time></trkpt><trkpt lat="43.33939374127351" lon="10.870248092077379"><ele>233.4</ele><time>2026-04-18T09:42:33Z</time></trkpt><trkpt lat="43.339381576348096" lon="10.870136102519592"><ele>228.59999999999997</ele><time>2026-04-18T09:42:34Z</time></trkpt><trkpt lat="43.33937016204883" lon="10.87003248224756"><ele>223.79999999999998</ele><time>2026-04-18T09:42:35Z</time></trkpt><trkpt lat="43.339295483931636" lon="10.869875605281367"><ele>219.0</ele><time>2026-04-18T09:42:37Z</time></trkpt><trkpt lat="43.339239538620085" lon="10.869798397220055"><ele>219.0</ele><time>2026-04-18T09:42:38Z</time></trkpt><trkpt lat="43.339190869902836" lon="10.869720877593924"><ele>219.0</ele><time>2026-04-18T09:42:39Z</time></trkpt><trkpt lat="43.33915607260272" lon="10.869645107512952"><ele>219.0</ele><time>2026-04-18T09:42:40Z</time></trkpt><trkpt lat="43.33914138331785" lon="10.869510705245705"><ele>219.0</ele><time>2026-04-18T09:42:42Z</time></trkpt><trkpt lat="43.339143058043376" lon="10.8694127221702"><ele>219.0</ele><time>2026-04-18T09:42:43Z</time></trkpt><trkpt lat="43.33916066362565" lon="10.869320563812224"><ele>219.0</ele><time>2026-04-18T09:42:44Z</time></trkpt><trkpt lat="43.33919728456508" lon="10.869172583166092"><ele>219.16666666666666</ele><time>2026-04-18T09:42:46Z</time></trkpt><trkpt lat="43.33920971834082" lon="10.869071255852747"><ele>219.33333333333331</ele><time>2026-04-18T09:42:47Z</time></trkpt><trkpt lat="43.339222198607615" lon="10.868962177350294"><ele>219.5</ele><time>2026-04-18T09:42:49Z</time></trkpt><trkpt lat="43.33922374703038" lon="10.868872928721869"><ele>219.66666666666666</ele><time>2026-04-18T09:42:53Z</time></trkpt><trkpt lat="43.339227520194584" lon="10.86875981850845"><ele>219.83333333333331</ele><time>2026-04-18T09:42:55Z</time></trkpt><trkpt lat="43.33921655038629" lon="10.86863403731832"><ele>220.0</ele><time>2026-04-18T09:42:57Z</time></trkpt><trkpt lat="43.33921653240299" lon="10.868546105164556"><ele>218.8</ele><time>2026-04-18T09:42:59Z</time></trkpt><trkpt lat="43.33922298819394" lon="10.868382663942159"><ele>217.6</ele><time>2026-04-18T09:43:01Z</time></trkpt><trkpt lat="43.339225238548565" lon="10.868272735357642"><ele>216.39999999999998</ele><time>2026-04-18T09:43:03Z</time></trkpt><trkpt lat="43.339234355766806" lon="10.868141113946791"><ele>215.2</ele><time>2026-04-18T09:43:05Z</time></trkpt><trkpt lat="43.33922933581199" lon="10.867992574604912"><ele>214.0</ele><time>2026-04-18T09:43:07Z</time></trkpt><trkpt lat="43.33923789587155" lon="10.867838648957283"><ele>214.0</ele><time>2026-04-18T09:43:09Z</time></trkpt><trkpt lat="43.33922881509699" lon="10.867697860695973"><ele>213.99999999999997</ele><time>2026-04-18T09:43:11Z</time></trkpt><trkpt lat="43.339228753431975" lon="10.867537843571183"><ele>213.99999999999997</ele><time>2026-04-18T09:43:13Z</time></trkpt><trkpt lat="43.33917893952999" lon="10.867403449179397"><ele>214.0</ele><time>2026-04-18T09:43:15Z</time></trkpt><trkpt lat="43.339148975534734" lon="10.867315580729445"><ele>214.0</ele><time>2026-04-18T09:43:15.999Z</time></trkpt><trkpt lat="43.33909614491811" lon="10.86725012116148"><ele>213.66666666666666</ele><time>2026-04-18T09:43:18.999Z</time></trkpt><trkpt lat="43.33902101772796" lon="10.867249727535784"><ele>213.33333333333331</ele><time>2026-04-18T09:43:21.999Z</time></trkpt><trkpt lat="43.338927301697424" lon="10.867220992910532"><ele>213.0</ele><time>2026-04-18T09:43:24.999Z</time></trkpt><trkpt lat="43.33886021189478" lon="10.867216702407895"><ele>212.66666666666669</ele><time>2026-04-18T09:43:26.999Z</time></trkpt><trkpt lat="43.33876102200441" lon="10.867184591211103"><ele>212.33333333333334</ele><time>2026-04-18T09:43:28.999Z</time></trkpt><trkpt lat="43.33868315617012" lon="10.867130804697284"><ele>212.0</ele><time>2026-04-18T09:43:30.999Z</time></trkpt><trkpt lat="43.338597787832434" lon="10.867087783004292"><ele>210.2</ele><time>2026-04-18T09:43:32.999Z</time></trkpt><trkpt lat="43.338465270544155" lon="10.867096570361692"><ele>208.39999999999998</ele><time>2026-04-18T09:43:34.999Z</time></trkpt><trkpt lat="43.338380828605395" lon="10.867011521767834"><ele>206.60000000000002</ele><time>2026-04-18T09:43:36.999Z</time></trkpt><trkpt lat="43.33831945141729" lon="10.866965165052807"><ele>204.8</ele><time>2026-04-18T09:43:39.999Z</time></trkpt><trkpt lat="43.3382981266338" lon="10.866795277822305"><ele>203.0</ele><time>2026-04-18T09:43:41.999Z</time></trkpt><trkpt lat="43.33832570558299" lon="10.866684717927486"><ele>203.0</ele><time>2026-04-18T09:43:42.999Z</time></trkpt><trkpt lat="43.338306047338534" lon="10.86653161307338"><ele>203.0</ele><time>2026-04-18T09:43:44.999Z</time></trkpt><trkpt lat="43.33828277986986" lon="10.866450530592315"><ele>203.0</ele><time>2026-04-18T09:43:45.999Z</time></trkpt><trkpt lat="43.33824185481934" lon="10.866368717171135"><ele>203.0</ele><time>2026-04-18T09:43:46.999Z</time></trkpt><trkpt lat="43.338155795979475" lon="10.86624891201852"><ele>203.0</ele><time>2026-04-18T09:43:48.999Z</time></trkpt><trkpt lat="43.33809582391864" lon="10.86615821219361"><ele>201.0</ele><time>2026-04-18T09:43:49.999Z</time></trkpt><trkpt lat="43.33802638297286" lon="10.866048040196498"><ele>199.0</ele><time>2026-04-18T09:43:51.999Z</time></trkpt><trkpt lat="43.33793810978411" lon="10.866026130930841"><ele>197.0</ele><time>2026-04-18T09:43:52.999Z</time></trkpt><trkpt lat="43.337860665097715" lon="10.865953985218235"><ele>195.0</ele><time>2026-04-18T09:43:53.999Z</time></trkpt><trkpt lat="43.33778357396668" lon="10.865888755383246"><ele>193.0</ele><time>2026-04-18T09:43:54.999Z</time></trkpt><trkpt lat="43.337704734015006" lon="10.865850877420945"><ele>192.99999999999997</ele><time>2026-04-18T09:43:55.999Z</time></trkpt><trkpt lat="43.33765161074603" lon="10.865802240947408"><ele>193.0</ele><time>2026-04-18T09:43:56.999Z</time></trkpt><trkpt lat="43.337612934646245" lon="10.865725573632421"><ele>193.0</ele><time>2026-04-18T09:43:57.999Z</time></trkpt><trkpt lat="43.33761480854273" lon="10.86563321010967"><ele>193.0</ele><time>2026-04-18T09:43:58.999Z</time></trkpt><trkpt lat="43.33768858334335" lon="10.86548583305114"><ele>192.99999999999997</ele><time>2026-04-18T09:44:00.999Z</time></trkpt><trkpt lat="43.33775553369107" lon="10.865454089042208"><ele>193.0</ele><time>2026-04-18T09:44:01.999Z</time></trkpt><trkpt lat="43.33783368557506" lon="10.865376713236497"><ele>192.99999999999997</ele><time>2026-04-18T09:44:03.999Z</time></trkpt><trkpt lat="43.33787940459793" lon="10.86530841672088"><ele>193.0</ele><time>2026-04-18T09:44:04.999Z</time></trkpt><trkpt lat="43.337872882049375" lon="10.865165477780014"><ele>193.0</ele><time>2026-04-18T09:44:07.999Z</time></trkpt><trkpt lat="43.33787278146967" lon="10.865074146022346"><ele>193.0</ele><time>2026-04-18T09:44:40Z</time></trkpt><trkpt lat="43.337913979360295" lon="10.86497694564662"><ele>192.99999999999997</ele><time>2026-04-18T09:44:43Z</time></trkpt><trkpt lat="43.33797574744006" lon="10.864889254987988"><ele>193.0</ele><time>2026-04-18T09:45:15.999Z</time></trkpt><trkpt lat="43.3380406057536" lon="10.864844002089896"><ele>191.8</ele><time>2026-04-18T09:45:17.999Z</time></trkpt><trkpt lat="43.33804665300109" lon="10.864744170829944"><ele>190.60000000000002</ele><time>2026-04-18T09:45:51.999Z</time></trkpt><trkpt lat="43.33799320859511" lon="10.864655369777873"><ele>189.39999999999998</ele><time>2026-04-18T09:47:50.999Z</time></trkpt><trkpt lat="43.33793762337549" lon="10.864559927804816"><ele>188.2</ele><time>2026-04-18T09:47:53.999Z</time></trkpt><trkpt lat="43.33789958477555" lon="10.864437814465193"><ele>187.0</ele><time>2026-04-18T09:47:55.999Z</time></trkpt><trkpt lat="43.33783055003275" lon="10.864298221637645"><ele>186.16666666666669</ele><time>2026-04-18T09:47:57.999Z</time></trkpt><trkpt lat="43.33778859256505" lon="10.864208461749275"><ele>185.33333333333334</ele><time>2026-04-18T09:47:58.999Z</time></trkpt><trkpt lat="43.33777450909722" lon="10.86410598221221"><ele>184.5</ele><time>2026-04-18T09:47:59.999Z</time></trkpt><trkpt lat="43.33776674361472" lon="10.864000595509715"><ele>183.66666666666666</ele><time>2026-04-18T09:48:00.999Z</time></trkpt><trkpt lat="43.33777490800133" lon="10.86387137396062"><ele>182.83333333333331</ele><time>2026-04-18T09:48:01.999Z</time></trkpt><trkpt lat="43.33779086364902" lon="10.863756766126755"><ele>182.0</ele><time>2026-04-18T09:48:02.999Z</time></trkpt><trkpt lat="43.33779665867876" lon="10.863647875878744"><ele>182.0</ele><time>2026-04-18T09:48:03.999Z</time></trkpt><trkpt lat="43.33778422253235" lon="10.863542999615861"><ele>182.0</ele><time>2026-04-18T09:48:04.999Z</time></trkpt><trkpt lat="43.337742698908315" lon="10.863471778232126"><ele>182.0</ele><time>2026-04-18T09:48:05.999Z</time></trkpt><trkpt lat="43.337677095609784" lon="10.863343754901058"><ele>182.0</ele><time>2026-04-18T09:48:07.999Z</time></trkpt><trkpt lat="43.33767156436282" lon="10.86324244852168"><ele>182.0</ele><time>2026-04-18T09:48:08.999Z</time></trkpt><trkpt lat="43.33767934983712" lon="10.863149221880521"><ele>182.0</ele><time>2026-04-18T09:48:09.999Z</time></trkpt><trkpt lat="43.337635367521685" lon="10.863021897067737"><ele>181.83333333333331</ele><time>2026-04-18T09:48:11.999Z</time></trkpt><trkpt lat="43.337580028389425" lon="10.86292438961887"><ele>181.66666666666666</ele><time>2026-04-18T09:48:15.999Z</time></trkpt><trkpt lat="43.337528381486855" lon="10.862842118203204"><ele>181.5</ele><time>2026-04-18T09:48:17.999Z</time></trkpt><trkpt lat="43.33749004750627" lon="10.862711189008905"><ele>181.33333333333334</ele><time>2026-04-18T09:48:19.999Z</time></trkpt><trkpt lat="43.33745094064323" lon="10.862640703468283"><ele>181.16666666666669</ele><time>2026-04-18T09:48:21.999Z</time></trkpt><trkpt lat="43.337414290275525" lon="10.862526167956759"><ele>181.0</ele><time>2026-04-18T09:48:24.999Z</time></trkpt><trkpt lat="43.33740228468812" lon="10.86242563291934"><ele>180.4</ele><time>2026-04-18T09:48:26.999Z</time></trkpt><trkpt lat="43.33738514345939" lon="10.862341719606158"><ele>179.8</ele><time>2026-04-18T09:48:28.999Z</time></trkpt><trkpt lat="43.33733418406399" lon="10.862205809310767"><ele>179.20000000000002</ele><time>2026-04-18T09:48:30.999Z</time></trkpt><trkpt lat="43.337288731214144" lon="10.862058465969913"><ele>178.60000000000002</ele><time>2026-04-18T09:48:32.999Z</time></trkpt><trkpt lat="43.3372892419986" lon="10.86194245609417"><ele>178.0</ele><time>2026-04-18T09:48:34.999Z</time></trkpt><trkpt lat="43.337246564427524" lon="10.86180975041981"><ele>173.83333333333334</ele><time>2026-04-18T09:48:36.999Z</time></trkpt><trkpt lat="43.33721840212391" lon="10.861703104483391"><ele>169.66666666666669</ele><time>2026-04-18T09:48:39Z</time></trkpt><trkpt lat="43.33718985202057" lon="10.861624042900047"><ele>165.5</ele><time>2026-04-18T09:48:41Z</time></trkpt><trkpt lat="43.33718566150543" lon="10.861491889048859"><ele>161.33333333333334</ele><time>2026-04-18T09:48:43Z</time></trkpt><trkpt lat="43.33716445050979" lon="10.861361104668097"><ele>157.16666666666666</ele><time>2026-04-18T09:48:45Z</time></trkpt><trkpt lat="43.33713073551026" lon="10.861241456830612"><ele>153.0</ele><time>2026-04-18T09:48:47Z</time></trkpt><trkpt lat="43.33709470746687" lon="10.861140463664363"><ele>153.0</ele><time>2026-04-18T09:48:49Z</time></trkpt><trkpt lat="43.33708743269704" lon="10.861026598789094"><ele>153.0</ele><time>2026-04-18T09:48:51Z</time></trkpt><trkpt lat="43.337122466943896" lon="10.860954268820944"><ele>153.0</ele><time>2026-04-18T09:48:54Z</time></trkpt><trkpt lat="43.33713752815175" lon="10.86085851351903"><ele>153.0</ele><time>2026-04-18T09:48:57Z</time></trkpt><trkpt lat="43.33712400302097" lon="10.860749066334122"><ele>153.0</ele><time>2026-04-18T09:48:59Z</time></trkpt><trkpt lat="43.33716113109048" lon="10.860666501690082"><ele>153.0</ele><time>2026-04-18T09:49:01Z</time></trkpt><trkpt lat="43.33712047762716" lon="10.8601870566738"><ele>151.66666666666666</ele><time>2026-04-18T09:49:02Z</time></trkpt><trkpt lat="43.337127729435196" lon="10.860060959183164"><ele>150.33333333333334</ele><time>2026-04-18T09:49:04Z</time></trkpt><trkpt lat="43.337163018957355" lon="10.859980058972386"><ele>149.0</ele><time>2026-04-18T09:49:06Z</time></trkpt><trkpt lat="43.337143009740046" lon="10.859876696812188"><ele>147.66666666666669</ele><time>2026-04-18T09:49:07Z</time></trkpt><trkpt lat="43.33708578291762" lon="10.859793534444066"><ele>146.33333333333334</ele><time>2026-04-18T09:49:10Z</time></trkpt><trkpt lat="43.33707121497886" lon="10.859659846777408"><ele>145.0</ele><time>2026-04-18T09:49:11Z</time></trkpt><trkpt lat="43.33708538606699" lon="10.859488327679376"><ele>145.0</ele><time>2026-04-18T09:49:13Z</time></trkpt><trkpt lat="43.337069049785775" lon="10.859360652635155"><ele>145.0</ele><time>2026-04-18T09:49:14Z</time></trkpt><trkpt lat="43.33704680493391" lon="10.859246167791644"><ele>145.0</ele><time>2026-04-18T09:49:16Z</time></trkpt><trkpt lat="43.33703966267915" lon="10.859154479029936"><ele>145.0</ele><time>2026-04-18T09:49:18Z</time></trkpt><trkpt lat="43.33706662866789" lon="10.859250942083243"><ele>145.0</ele><time>2026-04-18T09:50:23.999Z</time></trkpt><trkpt lat="43.33710677136852" lon="10.859367248994015"><ele>145.0</ele><time>2026-04-18T09:50:25.999Z</time></trkpt><trkpt lat="43.33711171451188" lon="10.859518380487456"><ele>145.0</ele><time>2026-04-18T09:50:27.999Z</time></trkpt><trkpt lat="43.337102138945404" lon="10.859703678732314"><ele>145.0</ele><time>2026-04-18T09:50:29.999Z</time></trkpt><trkpt lat="43.33713582095828" lon="10.859778962916636"><ele>145.0</ele><time>2026-04-18T09:50:31.999Z</time></trkpt><trkpt lat="43.3371772482788" lon="10.85986828738658"><ele>145.0</ele><time>2026-04-18T09:50:33.999Z</time></trkpt><trkpt lat="43.33713884437297" lon="10.859962779194667"><ele>145.0</ele><time>2026-04-18T09:50:36.999Z</time></trkpt><trkpt lat="43.337142059451786" lon="10.86007948503867"><ele>145.0</ele><time>2026-04-18T09:50:40.999Z</time></trkpt><trkpt lat="43.337170957815054" lon="10.860163693055016"><ele>146.0</ele><time>2026-04-18T09:50:42.999Z</time></trkpt><trkpt lat="43.337132400844645" lon="10.860266563889294"><ele>147.0</ele><time>2026-04-18T09:50:45Z</time></trkpt><trkpt lat="43.33714585812097" lon="10.860367046895682"><ele>148.0</ele><time>2026-04-18T09:50:47Z</time></trkpt><trkpt lat="43.33713831845356" lon="10.86048430392797"><ele>149.0</ele><time>2026-04-18T09:50:50Z</time></trkpt><trkpt lat="43.33713094556139" lon="10.86058540589919"><ele>150.0</ele><time>2026-04-18T09:50:52Z</time></trkpt><trkpt lat="43.33715316965384" lon="10.860704931962301"><ele>151.0</ele><time>2026-04-18T09:50:54Z</time></trkpt><trkpt lat="43.33717082216165" lon="10.860828928759082"><ele>151.4</ele><time>2026-04-18T09:50:56Z</time></trkpt><trkpt lat="43.33715586927828" lon="10.860950012725196"><ele>151.8</ele><time>2026-04-18T09:50:58Z</time></trkpt><trkpt lat="43.3371897473619" lon="10.86105928303024"><ele>152.20000000000002</ele><time>2026-04-18T09:51:00Z</time></trkpt><trkpt lat="43.337209586411674" lon="10.861188763468165"><ele>152.6</ele><time>2026-04-18T09:51:03Z</time></trkpt><trkpt lat="43.337238498239266" lon="10.861334621860422"><ele>153.0</ele><time>2026-04-18T09:51:06Z</time></trkpt><trkpt lat="43.33725973054593" lon="10.861454911876297"><ele>157.16666666666666</ele><time>2026-04-18T09:51:07Z</time></trkpt><trkpt lat="43.33726666640111" lon="10.861545471100994"><ele>161.33333333333334</ele><time>2026-04-18T09:51:08Z</time></trkpt><trkpt lat="43.337271583151306" lon="10.861634879211618"><ele>165.5</ele><time>2026-04-18T09:51:09Z</time></trkpt><trkpt lat="43.3372772149633" lon="10.861733442074748"><ele>169.66666666666669</ele><time>2026-04-18T09:51:11Z</time></trkpt><trkpt lat="43.33730380978756" lon="10.861843363485526"><ele>173.83333333333334</ele><time>2026-04-18T09:51:13Z</time></trkpt><trkpt lat="43.33734491022553" lon="10.861968048475784"><ele>178.0</ele><time>2026-04-18T09:51:16Z</time></trkpt><trkpt lat="43.337352974789646" lon="10.86206046501363"><ele>178.0</ele><time>2026-04-18T09:51:20Z</time></trkpt><trkpt lat="43.33737116331741" lon="10.862155367952441"><ele>178.0</ele><time>2026-04-18T09:51:25Z</time></trkpt><trkpt lat="43.337404593077586" lon="10.862271194713152"><ele>178.0</ele><time>2026-04-18T09:51:34Z</time></trkpt><trkpt lat="43.33747261067788" lon="10.86221550704029"><ele>178.0</ele><time>2026-04-18T09:51:38Z</time></trkpt><trkpt lat="43.337480664245206" lon="10.862089266243904"><ele>178.0</ele><time>2026-04-18T09:51:40.999Z</time></trkpt><trkpt lat="43.33748270081993" lon="10.861993806556153"><ele>178.0</ele><time>2026-04-18T09:51:42.999Z</time></trkpt><trkpt lat="43.33747599198471" lon="10.861905239438933"><ele>177.99999999999997</ele><time>2026-04-18T09:51:44.999Z</time></trkpt><trkpt lat="43.33747591874131" lon="10.861808286769678"><ele>178.0</ele><time>2026-04-18T09:51:50.999Z</time></trkpt><trkpt lat="43.3374423453761" lon="10.861709215201282"><ele>178.0</ele><time>2026-04-18T09:51:54.999Z</time></trkpt><trkpt lat="43.337467358130844" lon="10.861623717588957"><ele>178.0</ele><time>2026-04-18T09:51:57.999Z</time></trkpt><trkpt lat="43.33755683754835" lon="10.861655027577669"><ele>178.0</ele><time>2026-04-18T09:52:01.999Z</time></trkpt><trkpt lat="43.3376084868544" lon="10.861709769849378"><ele>177.99999999999997</ele><time>2026-04-18T09:52:05.999Z</time></trkpt><trkpt lat="43.33764717815382" lon="10.861792582546354"><ele>178.0</ele><time>2026-04-18T09:52:08.999Z</time></trkpt><trkpt lat="43.33769952160476" lon="10.861866854549255"><ele>178.0</ele><time>2026-04-18T09:52:10.999Z</time></trkpt><trkpt lat="43.337738680153734" lon="10.861949171178665"><ele>178.0</ele><time>2026-04-18T09:52:11.999Z</time></trkpt><trkpt lat="43.33778618685389" lon="10.862055914994611"><ele>178.0</ele><time>2026-04-18T09:52:15.999Z</time></trkpt><trkpt lat="43.337824248024624" lon="10.862126270740356"><ele>178.0</ele><time>2026-04-18T09:52:16.999Z</time></trkpt><trkpt lat="43.33786626339655" lon="10.86223431289389"><ele>178.0</ele><time>2026-04-18T09:52:20.999Z</time></trkpt><trkpt lat="43.33789557441605" lon="10.862377250556813"><ele>178.0</ele><time>2026-04-18T09:52:23.999Z</time></trkpt><trkpt lat="43.33793636559934" lon="10.86246103324317"><ele>177.99999999999997</ele><time>2026-04-18T09:52:25.999Z</time></trkpt><trkpt lat="43.3379840365393" lon="10.862518539113658"><ele>178.0</ele><time>2026-04-18T09:52:29.999Z</time></trkpt><trkpt lat="43.33800802233404" lon="10.86259915803189"><ele>178.0</ele><time>2026-04-18T09:52:34.999Z</time></trkpt><trkpt lat="43.338063341016536" lon="10.862653635417391"><ele>178.0</ele><time>2026-04-18T09:53:23Z</time></trkpt><trkpt lat="43.33806749538878" lon="10.862747778633034"><ele>178.0</ele><time>2026-04-18T09:53:51.999Z</time></trkpt><trkpt lat="43.33811152056029" lon="10.86284332075715"><ele>177.99999999999997</ele><time>2026-04-18T09:54:04.999Z</time></trkpt><trkpt lat="43.338161399562" lon="10.862911335578795"><ele>178.0</ele><time>2026-04-18T09:54:12.999Z</time></trkpt><trkpt lat="43.3381945454891" lon="10.862991662084307"><ele>183.16666666666669</ele><time>2026-04-18T09:54:20.999Z</time></trkpt><trkpt lat="43.33822168287997" lon="10.863090380420099"><ele>188.33333333333334</ele><time>2026-04-18T09:54:30.999Z</time></trkpt><trkpt lat="43.338220877525565" lon="10.863189151820047"><ele>193.5</ele><time>2026-04-18T09:54:33.999Z</time></trkpt><trkpt lat="43.33827220281022" lon="10.863315948345832"><ele>198.66666666666669</ele><time>2026-04-18T09:54:38.999Z</time></trkpt><trkpt lat="43.33828438689762" lon="10.86344423465845"><ele>203.83333333333334</ele><time>2026-04-18T09:54:40.999Z</time></trkpt><trkpt lat="43.33831990421526" lon="10.863548814787277"><ele>209.0</ele><time>2026-04-18T09:54:44.999Z</time></trkpt><trkpt lat="43.33837395972199" lon="10.863630495126278"><ele>209.00000000000003</ele><time>2026-04-18T09:54:50.999Z</time></trkpt><trkpt lat="43.33846413765444" lon="10.863678701917996"><ele>209.0</ele><time>2026-04-18T09:54:58Z</time></trkpt><trkpt lat="43.338538945717396" lon="10.863707761055462"><ele>209.0</ele><time>2026-04-18T09:55:01Z</time></trkpt><trkpt lat="43.33860769284324" lon="10.863697840463516"><ele>209.0</ele><time>2026-04-18T09:55:04Z</time></trkpt><trkpt lat="43.338635727201705" lon="10.863614583706378"><ele>209.00000000000003</ele><time>2026-04-18T09:55:08Z</time></trkpt><trkpt lat="43.3386779994332" lon="10.863517363725917"><ele>209.0</ele><time>2026-04-18T09:57:55Z</time></trkpt><trkpt lat="43.338694649141026" lon="10.863413338291785"><ele>209.79999999999998</ele><time>2026-04-18T09:57:57Z</time></trkpt><trkpt lat="43.33873590983258" lon="10.863300297218675"><ele>210.6</ele><time>2026-04-18T09:58:00Z</time></trkpt><trkpt lat="43.33871677005914" lon="10.863168591658942"><ele>211.4</ele><time>2026-04-18T09:58:02Z</time></trkpt><trkpt lat="43.33870934973697" lon="10.863032085894513"><ele>212.2</ele><time>2026-04-18T09:58:05Z</time></trkpt><trkpt lat="43.338730213576824" lon="10.862888863638572"><ele>213.0</ele><time>2026-04-18T09:58:06.999Z</time></trkpt><trkpt lat="43.338775556191784" lon="10.862786810831034"><ele>213.0</ele><time>2026-04-18T09:58:08.999Z</time></trkpt><trkpt lat="43.3388305859358" lon="10.862688418246352"><ele>213.0</ele><time>2026-04-18T09:58:10.999Z</time></trkpt><trkpt lat="43.338862927491775" lon="10.862568273303502"><ele>213.0</ele><time>2026-04-18T09:58:13.999Z</time></trkpt><trkpt lat="43.338911057901704" lon="10.862369235797532"><ele>213.0</ele><time>2026-04-18T09:58:17.999Z</time></trkpt><trkpt lat="43.33897344987012" lon="10.862274274750792"><ele>213.0</ele><time>2026-04-18T09:58:20.999Z</time></trkpt><trkpt lat="43.33899696976675" lon="10.862188922798703"><ele>217.8</ele><time>2026-04-18T09:58:22.999Z</time></trkpt><trkpt lat="43.33899864957449" lon="10.862100707081652"><ele>222.60000000000002</ele><time>2026-04-18T09:58:27.999Z</time></trkpt><trkpt lat="43.33900157202519" lon="10.862012384178461"><ele>227.39999999999998</ele><time>2026-04-18T09:58:42.999Z</time></trkpt><trkpt lat="43.339047244104904" lon="10.861829704286123"><ele>232.2</ele><time>2026-04-18T09:59:13Z</time></trkpt><trkpt lat="43.339099318312456" lon="10.86174482538303"><ele>237.0</ele><time>2026-04-18T09:59:15Z</time></trkpt><trkpt lat="43.3390657405061" lon="10.861598902699606"><ele>237.0</ele><time>2026-04-18T09:59:18Z</time></trkpt><trkpt lat="43.33901350625355" lon="10.861506501693137"><ele>237.0</ele><time>2026-04-18T09:59:20Z</time></trkpt><trkpt lat="43.338962256240016" lon="10.861348133652697"><ele>237.0</ele><time>2026-04-18T09:59:22Z</time></trkpt><trkpt lat="43.33893977011396" lon="10.861227487061745"><ele>237.0</ele><time>2026-04-18T09:59:24Z</time></trkpt><trkpt lat="43.338893796864696" lon="10.861103370898187"><ele>237.0</ele><time>2026-04-18T09:59:25Z</time></trkpt><trkpt lat="43.33883956198777" lon="10.860917342242969"><ele>233.16666666666666</ele><time>2026-04-18T09:59:27Z</time></trkpt><trkpt lat="43.3388086831234" lon="10.860826120125692"><ele>229.33333333333331</ele><time>2026-04-18T09:59:28Z</time></trkpt><trkpt lat="43.33879151247576" lon="10.860723655038882"><ele>225.5</ele><time>2026-04-18T09:59:29Z</time></trkpt><trkpt lat="43.33879323713652" lon="10.860611323685845"><ele>221.66666666666666</ele><time>2026-04-18T09:59:30Z</time></trkpt><trkpt lat="43.33880268740219" lon="10.860501685367959"><ele>217.83333333333331</ele><time>2026-04-18T09:59:31Z</time></trkpt><trkpt lat="43.33881459484169" lon="10.860344922858015"><ele>214.0</ele><time>2026-04-18T09:59:33Z</time></trkpt><trkpt lat="43.33884259787963" lon="10.860221988928402"><ele>214.0</ele><time>2026-04-18T09:59:35Z</time></trkpt><trkpt lat="43.338846041104766" lon="10.860070390177048"><ele>213.99999999999997</ele><time>2026-04-18T09:59:37Z</time></trkpt><trkpt lat="43.3388411247779" lon="10.859917715455241"><ele>213.99999999999997</ele><time>2026-04-18T09:59:39Z</time></trkpt><trkpt lat="43.338828095656524" lon="10.85980649419776"><ele>214.0</ele><time>2026-04-18T09:59:40Z</time></trkpt><trkpt lat="43.33882582102631" lon="10.859630359140008"><ele>214.0</ele><time>2026-04-18T09:59:42Z</time></trkpt><trkpt lat="43.338829941721784" lon="10.859541530335958"><ele>213.99999999999997</ele><time>2026-04-18T09:59:43Z</time></trkpt><trkpt lat="43.3388287806101" lon="10.859422635582167"><ele>214.0</ele><time>2026-04-18T09:59:45Z</time></trkpt><trkpt lat="43.33887093144229" lon="10.859306860108052"><ele>214.0</ele><time>2026-04-18T09:59:46Z</time></trkpt><trkpt lat="43.33889148235187" lon="10.859204275312337"><ele>214.0</ele><time>2026-04-18T09:59:47Z</time></trkpt><trkpt lat="43.33892558282613" lon="10.85906868493148"><ele>213.99999999999997</ele><time>2026-04-18T09:59:49Z</time></trkpt><trkpt lat="43.33893622759119" lon="10.858979481879615"><ele>214.0</ele><time>2026-04-18T09:59:50Z</time></trkpt><trkpt lat="43.33891553399746" lon="10.858863697438808"><ele>214.66666666666666</ele><time>2026-04-18T09:59:52Z</time></trkpt><trkpt lat="43.33891528691162" lon="10.858774969722765"><ele>215.33333333333331</ele><time>2026-04-18T09:59:54Z</time></trkpt><trkpt lat="43.33891786501975" lon="10.858637979545625"><ele>216.0</ele><time>2026-04-18T09:59:56Z</time></trkpt><trkpt lat="43.33893526441193" lon="10.858528232086226"><ele>216.66666666666669</ele><time>2026-04-18T09:59:58Z</time></trkpt><trkpt lat="43.338944545704464" lon="10.858441060742932"><ele>217.33333333333334</ele><time>2026-04-18T10:00:00Z</time></trkpt><trkpt lat="43.33894295449521" lon="10.85832134681363"><ele>218.0</ele><time>2026-04-18T10:00:02Z</time></trkpt><trkpt lat="43.33893689849859" lon="10.858178899705186"><ele>216.2</ele><time>2026-04-18T10:00:05Z</time></trkpt><trkpt lat="43.33896726802009" lon="10.858048428989333"><ele>214.4</ele><time>2026-04-18T10:00:07Z</time></trkpt><trkpt lat="43.33901827113132" lon="10.857946582683343"><ele>212.6</ele><time>2026-04-18T10:00:09Z</time></trkpt><trkpt lat="43.339075822073106" lon="10.85781336397445"><ele>210.79999999999998</ele><time>2026-04-18T10:00:10.999Z</time></trkpt><trkpt lat="43.33912545006922" lon="10.857737684892443"><ele>209.0</ele><time>2026-04-18T10:00:12.999Z</time></trkpt><trkpt lat="43.33916433514625" lon="10.85761402169224"><ele>207.50000000000003</ele><time>2026-04-18T10:00:14.999Z</time></trkpt><trkpt lat="43.33918087792737" lon="10.857490383000503"><ele>206.0</ele><time>2026-04-18T10:00:16.999Z</time></trkpt><trkpt lat="43.339147507292715" lon="10.85739598729312"><ele>204.5</ele><time>2026-04-18T10:00:25.999Z</time></trkpt><trkpt lat="43.3391395176408" lon="10.857303313216752"><ele>203.0</ele><time>2026-04-18T10:00:27.999Z</time></trkpt><trkpt lat="43.33917358359373" lon="10.857201505566513"><ele>201.50000000000003</ele><time>2026-04-18T10:00:29.999Z</time></trkpt><trkpt lat="43.33922810868016" lon="10.857116771221605"><ele>200.0</ele><time>2026-04-18T10:00:31.999Z</time></trkpt><trkpt lat="43.33925602618019" lon="10.857038618594997"><ele>200.0</ele><time>2026-04-18T10:00:33.999Z</time></trkpt><trkpt lat="43.33927967525853" lon="10.85688190930225"><ele>200.0</ele><time>2026-04-18T10:00:36.999Z</time></trkpt><trkpt lat="43.339302296291585" lon="10.856762493263725"><ele>200.0</ele><time>2026-04-18T10:00:38.999Z</time></trkpt><trkpt lat="43.339307043208294" lon="10.856648364441863"><ele>200.0</ele><time>2026-04-18T10:00:40.999Z</time></trkpt><trkpt lat="43.33932551977607" lon="10.856551911114016"><ele>200.0</ele><time>2026-04-18T10:00:42.999Z</time></trkpt><trkpt lat="43.33932227043152" lon="10.856405620632735"><ele>197.50000000000003</ele><time>2026-04-18T10:00:44.999Z</time></trkpt><trkpt lat="43.339268260880054" lon="10.856283583981508"><ele>195.0</ele><time>2026-04-18T10:00:46.999Z</time></trkpt><trkpt lat="43.33921666345367" lon="10.856226929617517"><ele>192.5</ele><time>2026-04-18T10:00:48.999Z</time></trkpt><trkpt lat="43.33918972140037" lon="10.85613216198673"><ele>190.0</ele><time>2026-04-18T10:01:23Z</time></trkpt><trkpt lat="43.339124976366236" lon="10.856101220385948"><ele>187.5</ele><time>2026-04-18T10:01:25Z</time></trkpt><trkpt lat="43.33906084323191" lon="10.856098405179194"><ele>185.0</ele><time>2026-04-18T10:01:28Z</time></trkpt><trkpt lat="43.33895049990782" lon="10.856091920786174"><ele>185.0</ele><time>2026-04-18T10:01:38Z</time></trkpt><trkpt lat="43.338967826506725" lon="10.856000291295821"><ele>185.0</ele><time>2026-04-18T10:01:41Z</time></trkpt><trkpt lat="43.339011284189176" lon="10.855910476273367"><ele>185.0</ele><time>2026-04-18T10:01:43Z</time></trkpt><trkpt lat="43.33907008706939" lon="10.855812526813322"><ele>185.0</ele><time>2026-04-18T10:01:45Z</time></trkpt><trkpt lat="43.33910529605811" lon="10.855712757508698"><ele>185.0</ele><time>2026-04-18T10:01:47Z</time></trkpt><trkpt lat="43.33916456950507" lon="10.855625163901069"><ele>185.0</ele><time>2026-04-18T10:01:49Z</time></trkpt><trkpt lat="43.33921211129531" lon="10.855552125148362"><ele>182.16666666666666</ele><time>2026-04-18T10:01:51Z</time></trkpt><trkpt lat="43.339244015615954" lon="10.85546158300454"><ele>179.33333333333331</ele><time>2026-04-18T10:01:53Z</time></trkpt><trkpt lat="43.33923622631117" lon="10.855359583270774"><ele>176.5</ele><time>2026-04-18T10:01:55Z</time></trkpt><trkpt lat="43.339234527376426" lon="10.855241919893393"><ele>173.66666666666666</ele><time>2026-04-18T10:01:58Z</time></trkpt><trkpt lat="43.33922233569591" lon="10.855079730587992"><ele>170.83333333333334</ele><time>2026-04-18T10:02:08Z</time></trkpt><trkpt lat="43.33915738308293" lon="10.855002917942079"><ele>168.0</ele><time>2026-04-18T10:02:10Z</time></trkpt><trkpt lat="43.33905576702371" lon="10.855030456499287"><ele>168.0</ele><time>2026-04-18T10:02:12Z</time></trkpt><trkpt lat="43.33898912518539" lon="10.855100629322923"><ele>168.0</ele><time>2026-04-18T10:02:14Z</time></trkpt><trkpt lat="43.33893883807084" lon="10.855165263327748"><ele>168.0</ele><time>2026-04-18T10:02:16Z</time></trkpt><trkpt lat="43.33885066942613" lon="10.855183410528616"><ele>168.0</ele><time>2026-04-18T10:02:18Z</time></trkpt><trkpt lat="43.338769546057904" lon="10.855155773157543"><ele>168.0</ele><time>2026-04-18T10:02:20Z</time></trkpt><trkpt lat="43.33868093468037" lon="10.855077448778518"><ele>168.0</ele><time>2026-04-18T10:02:22Z</time></trkpt><trkpt lat="43.33869979875637" lon="10.854967216751874"><ele>163.66666666666666</ele><time>2026-04-18T10:02:23.999Z</time></trkpt><trkpt lat="43.33872706414572" lon="10.854852348104966"><ele>159.33333333333334</ele><time>2026-04-18T10:02:25.999Z</time></trkpt><trkpt lat="43.33877216744013" lon="10.854724017753139"><ele>155.0</ele><time>2026-04-18T10:02:28.999Z</time></trkpt><trkpt lat="43.33880573589738" lon="10.854629775650121"><ele>150.66666666666669</ele><time>2026-04-18T10:02:31.999Z</time></trkpt><trkpt lat="43.338806424657996" lon="10.854509970220617"><ele>146.33333333333334</ele><time>2026-04-18T10:02:33.999Z</time></trkpt><trkpt lat="43.338821047085624" lon="10.8543923830974"><ele>142.0</ele><time>2026-04-18T10:02:35.999Z</time></trkpt><trkpt lat="43.33880451720026" lon="10.854272946364185"><ele>140.0</ele><time>2026-04-18T10:02:37.999Z</time></trkpt><trkpt lat="43.33878645415525" lon="10.854186083056499"><ele>138.0</ele><time>2026-04-18T10:03:23Z</time></trkpt><trkpt lat="43.338713155406474" lon="10.854126802267992"><ele>136.0</ele><time>2026-04-18T10:03:27Z</time></trkpt><trkpt lat="43.33864717542392" lon="10.854120842306564"><ele>134.0</ele><time>2026-04-18T10:03:30Z</time></trkpt><trkpt lat="43.33857636060345" lon="10.854074279680557"><ele>132.0</ele><time>2026-04-18T10:03:33Z</time></trkpt><trkpt lat="43.33856494172258" lon="10.853978275303252"><ele>130.0</ele><time>2026-04-18T10:04:03Z</time></trkpt><trkpt lat="43.338538714151376" lon="10.853888834467112"><ele>128.0</ele><time>2026-04-18T10:04:08Z</time></trkpt><trkpt lat="43.338533123876786" lon="10.853798556345378"><ele>127.99999999999999</ele><time>2026-04-18T10:04:11Z</time></trkpt><trkpt lat="43.338519973320466" lon="10.853712782196514"><ele>128.0</ele><time>2026-04-18T10:04:13Z</time></trkpt><trkpt lat="43.338461922656336" lon="10.853658592769543"><ele>128.0</ele><time>2026-04-18T10:04:15Z</time></trkpt><trkpt lat="43.33838262197839" lon="10.853633672873057"><ele>128.0</ele><time>2026-04-18T10:04:17Z</time></trkpt><trkpt lat="43.33831004551241" lon="10.853705133347152"><ele>127.99999999999999</ele><time>2026-04-18T10:04:20Z</time></trkpt><trkpt lat="43.338229006228765" lon="10.8537225601308"><ele>128.0</ele><time>2026-04-18T10:04:22Z</time></trkpt><trkpt lat="43.33816353382571" lon="10.853682429504861"><ele>128.0</ele><time>2026-04-18T10:04:25Z</time></trkpt><trkpt lat="43.33812080308351" lon="10.853608957308984"><ele>128.0</ele><time>2026-04-18T10:04:28Z</time></trkpt><trkpt lat="43.338086117105966" lon="10.853372624931456"><ele>128.0</ele><time>2026-04-18T10:04:46.999Z</time></trkpt><trkpt lat="43.338117836172685" lon="10.853193655981407"><ele>128.0</ele><time>2026-04-18T10:04:48.999Z</time></trkpt><trkpt lat="43.33813228143232" lon="10.853106869795267"><ele>128.0</ele><time>2026-04-18T10:04:49.999Z</time></trkpt><trkpt lat="43.33816070099256" lon="10.852929152609846"><ele>126.33333333333333</ele><time>2026-04-18T10:04:51.999Z</time></trkpt><trkpt lat="43.338189805435604" lon="10.852820622978221"><ele>124.66666666666666</ele><time>2026-04-18T10:04:52.999Z</time></trkpt><trkpt lat="43.338214544331464" lon="10.85272592362003"><ele>123.0</ele><time>2026-04-18T10:04:53.999Z</time></trkpt><trkpt lat="43.33825091943187" lon="10.852611484863235"><ele>121.33333333333334</ele><time>2026-04-18T10:04:54.999Z</time></trkpt><trkpt lat="43.338294579409336" lon="10.852523123270517"><ele>119.66666666666667</ele><time>2026-04-18T10:04:55.999Z</time></trkpt><trkpt lat="43.33833557178811" lon="10.852423632570838"><ele>118.0</ele><time>2026-04-18T10:04:56.999Z</time></trkpt><trkpt lat="43.33837037560358" lon="10.85233178962551"><ele>116.00000000000001</ele><time>2026-04-18T10:04:57.999Z</time></trkpt><trkpt lat="43.338389763987145" lon="10.852225206826699"><ele>114.0</ele><time>2026-04-18T10:04:58.999Z</time></trkpt><trkpt lat="43.338475964017725" lon="10.85209868931017"><ele>112.0</ele><time>2026-04-18T10:05:00.999Z</time></trkpt><trkpt lat="43.338541944340854" lon="10.852081213105965"><ele>110.0</ele><time>2026-04-18T10:05:01.999Z</time></trkpt><trkpt lat="43.33860802658845" lon="10.852032663219294"><ele>108.00000000000001</ele><time>2026-04-18T10:05:02.999Z</time></trkpt><trkpt lat="43.33866960311316" lon="10.851977068645946"><ele>106.0</ele><time>2026-04-18T10:05:03.999Z</time></trkpt><trkpt lat="43.33874298705093" lon="10.851927382019925"><ele>106.00000000000001</ele><time>2026-04-18T10:05:04.999Z</time></trkpt><trkpt lat="43.33880513661963" lon="10.851876045112435"><ele>106.0</ele><time>2026-04-18T10:05:05.999Z</time></trkpt><trkpt lat="43.33886497437199" lon="10.851813251559657"><ele>106.0</ele><time>2026-04-18T10:05:06.999Z</time></trkpt><trkpt lat="43.338934124919476" lon="10.85176474230424"><ele>106.0</ele><time>2026-04-18T10:05:07.999Z</time></trkpt><trkpt lat="43.33903588890336" lon="10.851772009702993"><ele>106.00000000000001</ele><time>2026-04-18T10:05:09.999Z</time></trkpt><trkpt lat="43.33914984832181" lon="10.851757398453094"><ele>106.0</ele><time>2026-04-18T10:05:11.999Z</time></trkpt><trkpt lat="43.33924416948436" lon="10.851704349177094"><ele>103.8</ele><time>2026-04-18T10:05:13.999Z</time></trkpt><trkpt lat="43.3391631025452" lon="10.851552478375854"><ele>101.6</ele><time>2026-04-18T10:05:15.999Z</time></trkpt><trkpt lat="43.33908173271438" lon="10.851479699944845"><ele>99.4</ele><time>2026-04-18T10:05:16.999Z</time></trkpt><trkpt lat="43.33902262167892" lon="10.851423106984324"><ele>97.2</ele><time>2026-04-18T10:05:17.999Z</time></trkpt><trkpt lat="43.33893845596539" lon="10.851419047244207"><ele>95.0</ele><time>2026-04-18T10:05:18.999Z</time></trkpt><trkpt lat="43.338863713854344" lon="10.851433322844823"><ele>95.0</ele><time>2026-04-18T10:05:19.999Z</time></trkpt><trkpt lat="43.338783451952025" lon="10.851436578870501"><ele>95.0</ele><time>2026-04-18T10:05:20.999Z</time></trkpt><trkpt lat="43.33870363708759" lon="10.851415084100994"><ele>95.0</ele><time>2026-04-18T10:05:21.999Z</time></trkpt><trkpt lat="43.33860530624177" lon="10.851397612730269"><ele>95.0</ele><time>2026-04-18T10:05:22.999Z</time></trkpt><trkpt lat="43.33852065197726" lon="10.851388034879653"><ele>95.0</ele><time>2026-04-18T10:05:23.999Z</time></trkpt><trkpt lat="43.338437700355556" lon="10.851376438385113"><ele>95.0</ele><time>2026-04-18T10:05:24.999Z</time></trkpt><trkpt lat="43.33835389856619" lon="10.851340787057572"><ele>95.0</ele><time>2026-04-18T10:05:25.999Z</time></trkpt><trkpt lat="43.338265548312556" lon="10.85129441776233"><ele>95.0</ele><time>2026-04-18T10:05:27Z</time></trkpt><trkpt lat="43.338193445339826" lon="10.851253879410006"><ele>95.0</ele><time>2026-04-18T10:05:28Z</time></trkpt><trkpt lat="43.338100368211144" lon="10.851214282204387"><ele>95.0</ele><time>2026-04-18T10:05:29Z</time></trkpt><trkpt lat="43.338016554539614" lon="10.85118943310289"><ele>95.0</ele><time>2026-04-18T10:05:30Z</time></trkpt><trkpt lat="43.33792756512487" lon="10.851169279872531"><ele>95.0</ele><time>2026-04-18T10:05:31Z</time></trkpt><trkpt lat="43.33782009138868" lon="10.851164145600297"><ele>94.16666666666667</ele><time>2026-04-18T10:05:32Z</time></trkpt><trkpt lat="43.337719171098776" lon="10.851151983271361"><ele>93.33333333333334</ele><time>2026-04-18T10:05:33Z</time></trkpt><trkpt lat="43.337634718150845" lon="10.85113942780154"><ele>92.5</ele><time>2026-04-18T10:05:34Z</time></trkpt><trkpt lat="43.33755988956031" lon="10.851123443133819"><ele>91.66666666666667</ele><time>2026-04-18T10:05:35Z</time></trkpt><trkpt lat="43.337482181103894" lon="10.851092847607239"><ele>90.83333333333333</ele><time>2026-04-18T10:05:36Z</time></trkpt><trkpt lat="43.337415573025666" lon="10.851020713288328"><ele>90.0</ele><time>2026-04-18T10:05:38Z</time></trkpt><trkpt lat="43.337474670735425" lon="10.850844031734901"><ele>88.5</ele><time>2026-04-18T10:05:41Z</time></trkpt><trkpt lat="43.337541588998036" lon="10.850728648034375"><ele>87.0</ele><time>2026-04-18T10:05:42Z</time></trkpt><trkpt lat="43.337606880411464" lon="10.85059172934736"><ele>85.5</ele><time>2026-04-18T10:05:43Z</time></trkpt><trkpt lat="43.337676069558746" lon="10.850428894151944"><ele>84.0</ele><time>2026-04-18T10:05:44Z</time></trkpt><trkpt lat="43.337753321851764" lon="10.850246314440845"><ele>83.66666666666667</ele><time>2026-04-18T10:05:45Z</time></trkpt><trkpt lat="43.33783926922755" lon="10.850041283872638"><ele>83.33333333333334</ele><time>2026-04-18T10:05:46Z</time></trkpt><trkpt lat="43.3379352942649" lon="10.849840582884061"><ele>83.0</ele><time>2026-04-18T10:05:47Z</time></trkpt><trkpt lat="43.33803002748407" lon="10.849622582515517"><ele>83.33333333333334</ele><time>2026-04-18T10:05:48Z</time></trkpt><trkpt lat="43.338123153507894" lon="10.849400427959429"><ele>83.66666666666667</ele><time>2026-04-18T10:05:49Z</time></trkpt><trkpt lat="43.33820171362402" lon="10.849199935007524"><ele>84.0</ele><time>2026-04-18T10:05:50Z</time></trkpt><trkpt lat="43.33827438169786" lon="10.849028070874427"><ele>84.25</ele><time>2026-04-18T10:05:51Z</time></trkpt><trkpt lat="43.33834419648005" lon="10.848856970380838"><ele>84.5</ele><time>2026-04-18T10:05:52Z</time></trkpt><trkpt lat="43.3384157461395" lon="10.848683081751709"><ele>84.75</ele><time>2026-04-18T10:05:53Z</time></trkpt><trkpt lat="43.3384920994022" lon="10.848500490287817"><ele>85.0</ele><time>2026-04-18T10:05:54Z</time></trkpt><trkpt lat="43.33857070178774" lon="10.848320652945961"><ele>84.33333333333333</ele><time>2026-04-18T10:05:55Z</time></trkpt><trkpt lat="43.338649632075054" lon="10.848134319147368"><ele>83.66666666666667</ele><time>2026-04-18T10:05:56Z</time></trkpt><trkpt lat="43.33872345402059" lon="10.847949763349307"><ele>83.0</ele><time>2026-04-18T10:05:57Z</time></trkpt><trkpt lat="43.338799027320086" lon="10.847768089487952"><ele>83.0</ele><time>2026-04-18T10:05:58Z</time></trkpt><trkpt lat="43.33887410416891" lon="10.847593751720124"><ele>83.0</ele><time>2026-04-18T10:05:59Z</time></trkpt><trkpt lat="43.33894930870863" lon="10.847418359289744"><ele>83.0</ele><time>2026-04-18T10:06:00Z</time></trkpt><trkpt lat="43.33902642640617" lon="10.847253781343616"><ele>83.0</ele><time>2026-04-18T10:06:01Z</time></trkpt><trkpt lat="43.339109990867556" lon="10.847097284652119"><ele>83.5</ele><time>2026-04-18T10:06:02Z</time></trkpt><trkpt lat="43.339198753908704" lon="10.846944197984227"><ele>84.0</ele><time>2026-04-18T10:06:03Z</time></trkpt><trkpt lat="43.339295912755404" lon="10.846797854230994"><ele>84.5</ele><time>2026-04-18T10:06:04Z</time></trkpt><trkpt lat="43.33938612679473" lon="10.846635012018035"><ele>85.0</ele><time>2026-04-18T10:06:05Z</time></trkpt><trkpt lat="43.3394781924317" lon="10.846460251867068"><ele>85.0</ele><time>2026-04-18T10:06:06Z</time></trkpt><trkpt lat="43.33958068033375" lon="10.846301999626737"><ele>85.0</ele><time>2026-04-18T10:06:07Z</time></trkpt><trkpt lat="43.339682185916324" lon="10.846143731084403"><ele>85.0</ele><time>2026-04-18T10:06:08Z</time></trkpt><trkpt lat="43.3397700467961" lon="10.845997352749743"><ele>85.0</ele><time>2026-04-18T10:06:09Z</time></trkpt><trkpt lat="43.33985159096762" lon="10.84586104197624"><ele>85.25</ele><time>2026-04-18T10:06:10Z</time></trkpt><trkpt lat="43.339937006748194" lon="10.845731578104639"><ele>85.5</ele><time>2026-04-18T10:06:11Z</time></trkpt><trkpt lat="43.34002735522887" lon="10.845599703484286"><ele>85.75</ele><time>2026-04-18T10:06:12Z</time></trkpt><trkpt lat="43.34013524809295" lon="10.845481858649922"><ele>86.0</ele><time>2026-04-18T10:06:13Z</time></trkpt><trkpt lat="43.34025961098777" lon="10.84537801689015"><ele>86.0</ele><time>2026-04-18T10:06:14Z</time></trkpt><trkpt lat="43.34038607084359" lon="10.845284791741946"><ele>86.0</ele><time>2026-04-18T10:06:15Z</time></trkpt><trkpt lat="43.34051104892748" lon="10.845195601270627"><ele>86.0</ele><time>2026-04-18T10:06:16Z</time></trkpt><trkpt lat="43.34063035057787" lon="10.84510801271472"><ele>86.0</ele><time>2026-04-18T10:06:17Z</time></trkpt><trkpt lat="43.34074873619103" lon="10.845014895659032"><ele>85.5</ele><time>2026-04-18T10:06:18Z</time></trkpt><trkpt lat="43.34086636159941" lon="10.844926962725275"><ele>85.0</ele><time>2026-04-18T10:06:19Z</time></trkpt><trkpt lat="43.340983524248784" lon="10.844837817380922"><ele>84.5</ele><time>2026-04-18T10:06:20Z</time></trkpt><trkpt lat="43.34109412449239" lon="10.844748167700978"><ele>84.0</ele><time>2026-04-18T10:06:21Z</time></trkpt><trkpt lat="43.34121001782331" lon="10.844667772101086"><ele>84.0</ele><time>2026-04-18T10:06:22Z</time></trkpt><trkpt lat="43.3413237694302" lon="10.844582558892238"><ele>84.0</ele><time>2026-04-18T10:06:23Z</time></trkpt><trkpt lat="43.34144447972204" lon="10.844488769600574"><ele>84.0</ele><time>2026-04-18T10:06:24Z</time></trkpt><trkpt lat="43.341565932634346" lon="10.844392200220291"><ele>84.0</ele><time>2026-04-18T10:06:25Z</time></trkpt><trkpt lat="43.34168871439626" lon="10.844300645781745"><ele>83.5</ele><time>2026-04-18T10:06:26Z</time></trkpt><trkpt lat="43.34180872000192" lon="10.844213758436785"><ele>83.0</ele><time>2026-04-18T10:06:27Z</time></trkpt><trkpt lat="43.34192791920893" lon="10.844122465717547"><ele>82.5</ele><time>2026-04-18T10:06:28Z</time></trkpt><trkpt lat="43.342045888941904" lon="10.844029360383866"><ele>82.0</ele><time>2026-04-18T10:06:29Z</time></trkpt><trkpt lat="43.342167403929" lon="10.843922691304076"><ele>83.33333333333333</ele><time>2026-04-18T10:06:30Z</time></trkpt><trkpt lat="43.34229136368811" lon="10.843825657293522"><ele>84.66666666666667</ele><time>2026-04-18T10:06:31Z</time></trkpt><trkpt lat="43.34240656168818" lon="10.843692321061832"><ele>86.0</ele><time>2026-04-18T10:06:32Z</time></trkpt><trkpt lat="43.34251138303179" lon="10.843524855327365"><ele>85.0</ele><time>2026-04-18T10:06:33Z</time></trkpt><trkpt lat="43.34260869081829" lon="10.843323254501197"><ele>84.0</ele><time>2026-04-18T10:06:34Z</time></trkpt><trkpt lat="43.342711957286" lon="10.843118714182365"><ele>83.0</ele><time>2026-04-18T10:06:35Z</time></trkpt><trkpt lat="43.34281799047624" lon="10.84290037973626"><ele>83.0</ele><time>2026-04-18T10:06:36Z</time></trkpt><trkpt lat="43.34291845460096" lon="10.84268537831787"><ele>83.0</ele><time>2026-04-18T10:06:37Z</time></trkpt><trkpt lat="43.34301810882431" lon="10.842478810203398"><ele>83.0</ele><time>2026-04-18T10:06:38Z</time></trkpt><trkpt lat="43.34312074973123" lon="10.842275983841807"><ele>82.66666666666667</ele><time>2026-04-18T10:06:39Z</time></trkpt><trkpt lat="43.34321345674233" lon="10.842082261200112"><ele>82.33333333333333</ele><time>2026-04-18T10:06:40Z</time></trkpt><trkpt lat="43.34330011532531" lon="10.841898975927895"><ele>82.0</ele><time>2026-04-18T10:06:41Z</time></trkpt><trkpt lat="43.343386704178876" lon="10.84171446323013"><ele>82.0</ele><time>2026-04-18T10:06:42Z</time></trkpt><trkpt lat="43.343479473717494" lon="10.841525453960362"><ele>82.0</ele><time>2026-04-18T10:06:43Z</time></trkpt><trkpt lat="43.343565021399534" lon="10.841336204439521"><ele>82.0</ele><time>2026-04-18T10:06:44Z</time></trkpt><trkpt lat="43.34364668106407" lon="10.84117107026259"><ele>82.0</ele><time>2026-04-18T10:06:45Z</time></trkpt><trkpt lat="43.34373487880721" lon="10.840995773263927"><ele>82.0</ele><time>2026-04-18T10:06:45.999Z</time></trkpt><trkpt lat="43.34382285022245" lon="10.840805694864814"><ele>82.0</ele><time>2026-04-18T10:06:46.999Z</time></trkpt><trkpt lat="43.34391319536302" lon="10.840620863049061"><ele>81.75</ele><time>2026-04-18T10:06:47.999Z</time></trkpt><trkpt lat="43.34399511707327" lon="10.840455769896638"><ele>81.5</ele><time>2026-04-18T10:06:48.999Z</time></trkpt><trkpt lat="43.344078543083405" lon="10.84029480369484"><ele>81.25</ele><time>2026-04-18T10:06:49.999Z</time></trkpt><trkpt lat="43.34416021847798" lon="10.84013057393206"><ele>81.0</ele><time>2026-04-18T10:06:50.999Z</time></trkpt><trkpt lat="43.34423698549953" lon="10.839967169674209"><ele>81.0</ele><time>2026-04-18T10:06:51.999Z</time></trkpt><trkpt lat="43.34431584892338" lon="10.839805504033174"><ele>81.0</ele><time>2026-04-18T10:06:52.999Z</time></trkpt><trkpt lat="43.34439545634344" lon="10.839638105808028"><ele>81.0</ele><time>2026-04-18T10:06:53.999Z</time></trkpt><trkpt lat="43.344476350779956" lon="10.839478834608439"><ele>81.0</ele><time>2026-04-18T10:06:54.999Z</time></trkpt><trkpt lat="43.344557899005984" lon="10.83934101948368"><ele>81.5</ele><time>2026-04-18T10:06:55.999Z</time></trkpt><trkpt lat="43.34465278764592" lon="10.839215359982257"><ele>82.0</ele><time>2026-04-18T10:06:56.999Z</time></trkpt><trkpt lat="43.34476824582258" lon="10.839105915874557"><ele>82.5</ele><time>2026-04-18T10:06:57.999Z</time></trkpt><trkpt lat="43.344901528963675" lon="10.839020870218341"><ele>83.0</ele><time>2026-04-18T10:06:58.999Z</time></trkpt><trkpt lat="43.34504755005028" lon="10.838952790126797"><ele>83.0</ele><time>2026-04-18T10:06:59.999Z</time></trkpt><trkpt lat="43.34518180063651" lon="10.838872077344828"><ele>83.0</ele><time>2026-04-18T10:07:00.999Z</time></trkpt><trkpt lat="43.34530578873345" lon="10.83877246297573"><ele>83.0</ele><time>2026-04-18T10:07:01.999Z</time></trkpt><trkpt lat="43.34542494871815" lon="10.83866373748739"><ele>83.0</ele><time>2026-04-18T10:07:02.999Z</time></trkpt><trkpt lat="43.34553709199029" lon="10.838545234562385"><ele>82.5</ele><time>2026-04-18T10:07:03.999Z</time></trkpt><trkpt lat="43.34564727449773" lon="10.83842698277253"><ele>82.0</ele><time>2026-04-18T10:07:04.999Z</time></trkpt><trkpt lat="43.34575866688049" lon="10.838308002236014"><ele>81.5</ele><time>2026-04-18T10:07:05.999Z</time></trkpt><trkpt lat="43.34586676871584" lon="10.838189325561329"><ele>81.0</ele><time>2026-04-18T10:07:06.999Z</time></trkpt><trkpt lat="43.345961519201275" lon="10.838070992666967"><ele>81.0</ele><time>2026-04-18T10:07:07.999Z</time></trkpt><trkpt lat="43.34603732989658" lon="10.837941398433557"><ele>81.0</ele><time>2026-04-18T10:07:08.999Z</time></trkpt><trkpt lat="43.346100889994894" lon="10.837805699262937"><ele>81.0</ele><time>2026-04-18T10:07:09.999Z</time></trkpt><trkpt lat="43.34615147284887" lon="10.837676546585165"><ele>81.0</ele><time>2026-04-18T10:07:10.999Z</time></trkpt><trkpt lat="43.34618552916601" lon="10.837559338366624"><ele>81.0</ele><time>2026-04-18T10:07:11.999Z</time></trkpt><trkpt lat="43.34621356039032" lon="10.83745495345286"><ele>80.33333333333333</ele><time>2026-04-18T10:07:12.999Z</time></trkpt><trkpt lat="43.346257112085006" lon="10.837318947717876"><ele>79.66666666666667</ele><time>2026-04-18T10:07:14.999Z</time></trkpt><trkpt lat="43.34629477285372" lon="10.837246024745838"><ele>79.0</ele><time>2026-04-18T10:07:16.999Z</time></trkpt><trkpt lat="43.34633371507345" lon="10.837174218587313"><ele>78.33333333333334</ele><time>2026-04-18T10:07:19.999Z</time></trkpt><trkpt lat="43.346408715743685" lon="10.837105263662345"><ele>77.66666666666667</ele><time>2026-04-18T10:07:21.999Z</time></trkpt><trkpt lat="43.34639810877901" lon="10.836987066586243"><ele>77.0</ele><time>2026-04-18T10:07:23.999Z</time></trkpt><trkpt lat="43.34643587519827" lon="10.836896277461769"><ele>78.66666666666667</ele><time>2026-04-18T10:07:25.999Z</time></trkpt><trkpt lat="43.34646237359606" lon="10.836812538697075"><ele>80.33333333333334</ele><time>2026-04-18T10:07:27.999Z</time></trkpt><trkpt lat="43.346487105290315" lon="10.836709976365526"><ele>82.0</ele><time>2026-04-18T10:07:30.999Z</time></trkpt><trkpt lat="43.34652147787312" lon="10.836605063873812"><ele>83.66666666666667</ele><time>2026-04-18T10:07:53Z</time></trkpt><trkpt lat="43.34655016243206" lon="10.83650160828544"><ele>85.33333333333333</ele><time>2026-04-18T10:07:54Z</time></trkpt><trkpt lat="43.346587052808935" lon="10.836373046871227"><ele>87.0</ele><time>2026-04-18T10:07:55Z</time></trkpt><trkpt lat="43.34664551209524" lon="10.836244492971911"><ele>87.0</ele><time>2026-04-18T10:07:56Z</time></trkpt><trkpt lat="43.34672007936109" lon="10.836110374992648"><ele>87.0</ele><time>2026-04-18T10:07:57Z</time></trkpt><trkpt lat="43.346787329675195" lon="10.835976168349799"><ele>87.0</ele><time>2026-04-18T10:07:58Z</time></trkpt><trkpt lat="43.34683733914288" lon="10.835852175028931"><ele>87.0</ele><time>2026-04-18T10:07:59Z</time></trkpt><trkpt lat="43.34686393457734" lon="10.835706744002723"><ele>85.75</ele><time>2026-04-18T10:08:00Z</time></trkpt><trkpt lat="43.346875896766626" lon="10.835492994942204"><ele>84.5</ele><time>2026-04-18T10:08:01Z</time></trkpt><trkpt lat="43.34690645673621" lon="10.835313801075696"><ele>83.25</ele><time>2026-04-18T10:08:02Z</time></trkpt><trkpt lat="43.346955566326585" lon="10.835132446074931"><ele>82.0</ele><time>2026-04-18T10:08:03Z</time></trkpt><trkpt lat="43.34702056379685" lon="10.834931483893081"><ele>80.5</ele><time>2026-04-18T10:08:04Z</time></trkpt><trkpt lat="43.347065684718515" lon="10.83472915434298"><ele>79.0</ele><time>2026-04-18T10:08:05Z</time></trkpt><trkpt lat="43.34710706665276" lon="10.834556654120906"><ele>77.5</ele><time>2026-04-18T10:08:06Z</time></trkpt><trkpt lat="43.34715229742202" lon="10.834385403815721"><ele>76.0</ele><time>2026-04-18T10:08:07Z</time></trkpt><trkpt lat="43.34719693621832" lon="10.83422725582702"><ele>77.33333333333333</ele><time>2026-04-18T10:08:08Z</time></trkpt><trkpt lat="43.34723696362343" lon="10.834081533410597"><ele>78.66666666666666</ele><time>2026-04-18T10:08:09Z</time></trkpt><trkpt lat="43.34726286343693" lon="10.833962053625918"><ele>80.0</ele><time>2026-04-18T10:08:10Z</time></trkpt><trkpt lat="43.34730260974594" lon="10.833876727091468"><ele>81.33333333333333</ele><time>2026-04-18T10:08:11Z</time></trkpt><trkpt lat="43.34736069626734" lon="10.833789123564621"><ele>82.66666666666667</ele><time>2026-04-18T10:08:12Z</time></trkpt><trkpt lat="43.34743727563804" lon="10.833743173152826"><ele>84.0</ele><time>2026-04-18T10:08:13Z</time></trkpt><trkpt lat="43.347555442469265" lon="10.833773919439428"><ele>84.0</ele><time>2026-04-18T10:08:14Z</time></trkpt><trkpt lat="43.34762200951398" lon="10.833701315935917"><ele>84.0</ele><time>2026-04-18T10:08:15Z</time></trkpt><trkpt lat="43.34765784649649" lon="10.833595799577173"><ele>84.0</ele><time>2026-04-18T10:08:16Z</time></trkpt><trkpt lat="43.34767603883205" lon="10.833491961885827"><ele>84.0</ele><time>2026-04-18T10:08:17Z</time></trkpt><trkpt lat="43.347673100268366" lon="10.833336361708248"><ele>84.0</ele><time>2026-04-18T10:08:18Z</time></trkpt><trkpt lat="43.34769400978281" lon="10.833159498027884"><ele>83.0</ele><time>2026-04-18T10:08:19Z</time></trkpt><trkpt lat="43.347718696101765" lon="10.832970851079528"><ele>82.0</ele><time>2026-04-18T10:08:20Z</time></trkpt><trkpt lat="43.34775211789048" lon="10.83278987576073"><ele>81.0</ele><time>2026-04-18T10:08:21Z</time></trkpt><trkpt lat="43.3477861123652" lon="10.832582798422527"><ele>80.0</ele><time>2026-04-18T10:08:22Z</time></trkpt><trkpt lat="43.34783481282708" lon="10.832421768886359"><ele>80.0</ele><time>2026-04-18T10:08:23Z</time></trkpt><trkpt lat="43.34785464478559" lon="10.832265789506378"><ele>80.0</ele><time>2026-04-18T10:08:24Z</time></trkpt><trkpt lat="43.34789451126148" lon="10.83214599288326"><ele>80.0</ele><time>2026-04-18T10:08:25Z</time></trkpt><trkpt lat="43.347953946686225" lon="10.832023005630946"><ele>80.0</ele><time>2026-04-18T10:08:26Z</time></trkpt><trkpt lat="43.34804282037297" lon="10.831906036263588"><ele>80.0</ele><time>2026-04-18T10:08:27Z</time></trkpt><trkpt lat="43.348141876697426" lon="10.83174900168852"><ele>84.0</ele><time>2026-04-18T10:08:28Z</time></trkpt><trkpt lat="43.34824993378351" lon="10.831582063677304"><ele>88.0</ele><time>2026-04-18T10:08:29Z</time></trkpt><trkpt lat="43.34835422762402" lon="10.831414287815074"><ele>92.0</ele><time>2026-04-18T10:08:30Z</time></trkpt><trkpt lat="43.348468728325955" lon="10.831259272866653"><ele>92.0</ele><time>2026-04-18T10:08:31Z</time></trkpt><trkpt lat="43.3485692107832" lon="10.831105024997091"><ele>92.0</ele><time>2026-04-18T10:08:32Z</time></trkpt><trkpt lat="43.348667890637216" lon="10.830968367342244"><ele>92.0</ele><time>2026-04-18T10:08:33Z</time></trkpt><trkpt lat="43.348754227635325" lon="10.830833565522964"><ele>92.0</ele><time>2026-04-18T10:08:34Z</time></trkpt><trkpt lat="43.348839242734186" lon="10.830708394135616"><ele>95.25</ele><time>2026-04-18T10:08:35Z</time></trkpt><trkpt lat="43.348924014028896" lon="10.830573379275805"><ele>98.5</ele><time>2026-04-18T10:08:36Z</time></trkpt><trkpt lat="43.349014021462736" lon="10.830437611558203"><ele>101.75</ele><time>2026-04-18T10:08:37Z</time></trkpt><trkpt lat="43.34910702570983" lon="10.830288824980672"><ele>105.0</ele><time>2026-04-18T10:08:38Z</time></trkpt><trkpt lat="43.34919092793031" lon="10.830150733898591"><ele>103.25</ele><time>2026-04-18T10:08:39Z</time></trkpt><trkpt lat="43.3492686919271" lon="10.830014847222495"><ele>101.5</ele><time>2026-04-18T10:08:40Z</time></trkpt><trkpt lat="43.349347336895754" lon="10.829947259608641"><ele>99.75</ele><time>2026-04-18T10:08:41Z</time></trkpt><trkpt lat="43.34946333855097" lon="10.829899874007566"><ele>98.0</ele><time>2026-04-18T10:08:42Z</time></trkpt><trkpt lat="43.349571911076154" lon="10.829838648260216"><ele>98.0</ele><time>2026-04-18T10:08:43Z</time></trkpt><trkpt lat="43.349671410913615" lon="10.829777833111557"><ele>98.0</ele><time>2026-04-18T10:08:44Z</time></trkpt><trkpt lat="43.34978246395736" lon="10.829719998166583"><ele>98.0</ele><time>2026-04-18T10:08:45Z</time></trkpt><trkpt lat="43.34989326453783" lon="10.82967259852802"><ele>98.0</ele><time>2026-04-18T10:08:46Z</time></trkpt><trkpt lat="43.350003303690464" lon="10.82964756096402"><ele>101.2</ele><time>2026-04-18T10:08:47Z</time></trkpt><trkpt lat="43.350113373354276" lon="10.829638547263457"><ele>104.4</ele><time>2026-04-18T10:08:48Z</time></trkpt><trkpt lat="43.3502221948976" lon="10.829636411578841"><ele>107.60000000000001</ele><time>2026-04-18T10:08:49Z</time></trkpt><trkpt lat="43.35033458221168" lon="10.82963423653884"><ele>110.80000000000001</ele><time>2026-04-18T10:08:50Z</time></trkpt><trkpt lat="43.350430126300346" lon="10.82963238746572"><ele>114.0</ele><time>2026-04-18T10:08:51Z</time></trkpt><trkpt lat="43.35054017212877" lon="10.829632906895153"><ele>119.0</ele><time>2026-04-18T10:08:52Z</time></trkpt><trkpt lat="43.35064999272069" lon="10.829634389467591"><ele>124.0</ele><time>2026-04-18T10:08:53Z</time></trkpt><trkpt lat="43.350770085243326" lon="10.829639704219142"><ele>129.0</ele><time>2026-04-18T10:08:54Z</time></trkpt><trkpt lat="43.35088679377745" lon="10.829603182649908"><ele>134.0</ele><time>2026-04-18T10:08:55Z</time></trkpt><trkpt lat="43.35101073995706" lon="10.829603698386848"><ele>134.0</ele><time>2026-04-18T10:08:56Z</time></trkpt><trkpt lat="43.35112899639412" lon="10.829589735141791"><ele>134.0</ele><time>2026-04-18T10:08:57Z</time></trkpt><trkpt lat="43.3512229639285" lon="10.829541929466105"><ele>134.0</ele><time>2026-04-18T10:08:58Z</time></trkpt><trkpt lat="43.351314044135904" lon="10.829476337050385"><ele>134.0</ele><time>2026-04-18T10:08:59Z</time></trkpt><trkpt lat="43.35140986797076" lon="10.829396895667733"><ele>134.0</ele><time>2026-04-18T10:09:00Z</time></trkpt><trkpt lat="43.35151936452575" lon="10.829313374790638"><ele>134.75</ele><time>2026-04-18T10:09:01Z</time></trkpt><trkpt lat="43.351642537167585" lon="10.829213884373598"><ele>135.5</ele><time>2026-04-18T10:09:02Z</time></trkpt><trkpt lat="43.351743861523076" lon="10.829104914635005"><ele>136.25</ele><time>2026-04-18T10:09:03Z</time></trkpt><trkpt lat="43.35181821564878" lon="10.828979468296087"><ele>137.0</ele><time>2026-04-18T10:09:04Z</time></trkpt><trkpt lat="43.35186101757532" lon="10.828869891699263"><ele>137.0</ele><time>2026-04-18T10:09:04.999Z</time></trkpt><trkpt lat="43.351882755762034" lon="10.828765757650709"><ele>137.0</ele><time>2026-04-18T10:09:05.999Z</time></trkpt><trkpt lat="43.351889687076884" lon="10.828620477092276"><ele>137.0</ele><time>2026-04-18T10:09:06.999Z</time></trkpt><trkpt lat="43.35189665176374" lon="10.828473758928556"><ele>137.0</ele><time>2026-04-18T10:09:07.999Z</time></trkpt><trkpt lat="43.351886810588724" lon="10.828320227769721"><ele>137.0</ele><time>2026-04-18T10:09:08.999Z</time></trkpt><trkpt lat="43.35186339323442" lon="10.828193127659844"><ele>137.2</ele><time>2026-04-18T10:09:09.999Z</time></trkpt><trkpt lat="43.351819147746546" lon="10.828047945311615"><ele>137.39999999999998</ele><time>2026-04-18T10:09:10.999Z</time></trkpt><trkpt lat="43.35179226920952" lon="10.827917686184339"><ele>137.60000000000002</ele><time>2026-04-18T10:09:11.999Z</time></trkpt><trkpt lat="43.35178802346251" lon="10.82778395535008"><ele>137.8</ele><time>2026-04-18T10:09:12.999Z</time></trkpt><trkpt lat="43.35182210385774" lon="10.827705992803867"><ele>138.0</ele><time>2026-04-18T10:09:13.999Z</time></trkpt><trkpt lat="43.351895501073685" lon="10.827625950832516"><ele>138.0</ele><time>2026-04-18T10:09:14.999Z</time></trkpt><trkpt lat="43.352001280679175" lon="10.827533792711154"><ele>138.0</ele><time>2026-04-18T10:09:15.999Z</time></trkpt><trkpt lat="43.3521139577912" lon="10.827439216073953"><ele>138.0</ele><time>2026-04-18T10:09:16.999Z</time></trkpt><trkpt lat="43.352236456925105" lon="10.827328928392015"><ele>138.0</ele><time>2026-04-18T10:09:17.999Z</time></trkpt><trkpt lat="43.35235682914141" lon="10.82721457475091"><ele>139.75</ele><time>2026-04-18T10:09:18.999Z</time></trkpt><trkpt lat="43.3524736077878" lon="10.827101228248184"><ele>141.5</ele><time>2026-04-18T10:09:19.999Z</time></trkpt><trkpt lat="43.35258892141389" lon="10.827009350827808"><ele>143.25</ele><time>2026-04-18T10:09:20.999Z</time></trkpt><trkpt lat="43.35266490410667" lon="10.826881006840797"><ele>145.0</ele><time>2026-04-18T10:09:21.999Z</time></trkpt><trkpt lat="43.35274710750983" lon="10.826768417578993"><ele>145.0</ele><time>2026-04-18T10:09:22.999Z</time></trkpt><trkpt lat="43.352804104716746" lon="10.826666238313944"><ele>145.0</ele><time>2026-04-18T10:09:23.999Z</time></trkpt><trkpt lat="43.352853089913566" lon="10.826553784756172"><ele>145.0</ele><time>2026-04-18T10:09:24.999Z</time></trkpt><trkpt lat="43.352917051211755" lon="10.826482023765857"><ele>145.0</ele><time>2026-04-18T10:09:25.999Z</time></trkpt><trkpt lat="43.35300855324377" lon="10.826437180927277"><ele>145.0</ele><time>2026-04-18T10:09:26.999Z</time></trkpt><trkpt lat="43.35308941024753" lon="10.826426907121009"><ele>144.8</ele><time>2026-04-18T10:09:27.999Z</time></trkpt><trkpt lat="43.353154430880124" lon="10.826420599013154"><ele>144.6</ele><time>2026-04-18T10:09:28.999Z</time></trkpt><trkpt lat="43.35325813887477" lon="10.826270634988097"><ele>144.4</ele><time>2026-04-18T10:09:30.999Z</time></trkpt><trkpt lat="43.35330436828459" lon="10.826181840986807"><ele>144.2</ele><time>2026-04-18T10:09:31.999Z</time></trkpt><trkpt lat="43.353322082535584" lon="10.826028245954332"><ele>144.0</ele><time>2026-04-18T10:09:32.999Z</time></trkpt><trkpt lat="43.35333522539869" lon="10.825902742398982"><ele>144.0</ele><time>2026-04-18T10:09:33.999Z</time></trkpt><trkpt lat="43.35331997557794" lon="10.825762878073235"><ele>144.0</ele><time>2026-04-18T10:09:34.999Z</time></trkpt><trkpt lat="43.353310754812775" lon="10.825622550598304"><ele>144.0</ele><time>2026-04-18T10:09:35.999Z</time></trkpt><trkpt lat="43.35330642162921" lon="10.825477198758081"><ele>144.0</ele><time>2026-04-18T10:09:36.999Z</time></trkpt><trkpt lat="43.353302925007746" lon="10.825321655477916"><ele>144.0</ele><time>2026-04-18T10:09:38Z</time></trkpt><trkpt lat="43.35331836280092" lon="10.825200983962542"><ele>143.16666666666666</ele><time>2026-04-18T10:09:39Z</time></trkpt><trkpt lat="43.353319375106594" lon="10.825070674797491"><ele>142.33333333333334</ele><time>2026-04-18T10:09:40Z</time></trkpt><trkpt lat="43.35331301543946" lon="10.824941689081239"><ele>141.5</ele><time>2026-04-18T10:09:41Z</time></trkpt><trkpt lat="43.35330915439597" lon="10.824844111654318"><ele>140.66666666666669</ele><time>2026-04-18T10:09:42Z</time></trkpt><trkpt lat="43.35332814470396" lon="10.824756738015923"><ele>139.83333333333334</ele><time>2026-04-18T10:09:43Z</time></trkpt><trkpt lat="43.353326932739336" lon="10.82463535993492"><ele>139.0</ele><time>2026-04-18T10:09:44Z</time></trkpt><trkpt lat="43.353326279349524" lon="10.824541154835469"><ele>139.0</ele><time>2026-04-18T10:09:45Z</time></trkpt><trkpt lat="43.353329507070235" lon="10.824444614748586"><ele>139.0</ele><time>2026-04-18T10:09:46Z</time></trkpt><trkpt lat="43.35334278333718" lon="10.824332006498985"><ele>139.0</ele><time>2026-04-18T10:09:47Z</time></trkpt><trkpt lat="43.353342188529474" lon="10.824244592558138"><ele>139.0</ele><time>2026-04-18T10:09:48Z</time></trkpt><trkpt lat="43.35334014965992" lon="10.824144875393321"><ele>139.0</ele><time>2026-04-18T10:09:49Z</time></trkpt><trkpt lat="43.35334301885246" lon="10.824046065575539"><ele>139.0</ele><time>2026-04-18T10:09:50Z</time></trkpt><trkpt lat="43.35332093324338" lon="10.82391061964126"><ele>138.4</ele><time>2026-04-18T10:09:52Z</time></trkpt><trkpt lat="43.35323025049126" lon="10.823781536729124"><ele>137.8</ele><time>2026-04-18T10:09:54Z</time></trkpt><trkpt lat="43.35317629119759" lon="10.823659734295338"><ele>137.2</ele><time>2026-04-18T10:09:56Z</time></trkpt><trkpt lat="43.35317534646442" lon="10.823568417415116"><ele>136.6</ele><time>2026-04-18T10:09:57Z</time></trkpt><trkpt lat="43.35317180465784" lon="10.823456084308958"><ele>136.0</ele><time>2026-04-18T10:09:58Z</time></trkpt><trkpt lat="43.35316248438978" lon="10.823334924438422"><ele>135.25</ele><time>2026-04-18T10:09:59Z</time></trkpt><trkpt lat="43.353151795251186" lon="10.823186849093629"><ele>134.5</ele><time>2026-04-18T10:10:00Z</time></trkpt><trkpt lat="43.35315423227996" lon="10.82300558724556"><ele>133.75</ele><time>2026-04-18T10:10:01Z</time></trkpt><trkpt lat="43.35318406270467" lon="10.822804159511692"><ele>133.0</ele><time>2026-04-18T10:10:02Z</time></trkpt><trkpt lat="43.35324085365593" lon="10.822585216100693"><ele>132.33333333333334</ele><time>2026-04-18T10:10:03Z</time></trkpt><trkpt lat="43.353320138272956" lon="10.822356587005382"><ele>131.66666666666666</ele><time>2026-04-18T10:10:04Z</time></trkpt><trkpt lat="43.353413273604424" lon="10.822151066123329"><ele>131.0</ele><time>2026-04-18T10:10:05Z</time></trkpt><trkpt lat="43.3534972054946" lon="10.821912714097657"><ele>130.33333333333331</ele><time>2026-04-18T10:10:06Z</time></trkpt><trkpt lat="43.35356948186381" lon="10.821682876294933"><ele>129.66666666666666</ele><time>2026-04-18T10:10:07Z</time></trkpt><trkpt lat="43.353612306931105" lon="10.821467483110924"><ele>129.0</ele><time>2026-04-18T10:10:08Z</time></trkpt><trkpt lat="43.35362568836687" lon="10.82123522463395"><ele>129.0</ele><time>2026-04-18T10:10:09Z</time></trkpt><trkpt lat="43.35360584056157" lon="10.820997542830732"><ele>129.0</ele><time>2026-04-18T10:10:10Z</time></trkpt><trkpt lat="43.35354783272026" lon="10.820737537470308"><ele>129.0</ele><time>2026-04-18T10:10:11Z</time></trkpt><trkpt lat="43.353503902217255" lon="10.820481492045637"><ele>128.66666666666666</ele><time>2026-04-18T10:10:12Z</time></trkpt><trkpt lat="43.35346168816544" lon="10.820240776593058"><ele>128.33333333333331</ele><time>2026-04-18T10:10:13Z</time></trkpt><trkpt lat="43.353423761209" lon="10.82001690105979"><ele>128.0</ele><time>2026-04-18T10:10:14Z</time></trkpt><trkpt lat="43.35340744707482" lon="10.819803075848997"><ele>128.33333333333331</ele><time>2026-04-18T10:10:15Z</time></trkpt><trkpt lat="43.35341077482223" lon="10.819590307509076"><ele>128.66666666666666</ele><time>2026-04-18T10:10:16Z</time></trkpt><trkpt lat="43.35344072460029" lon="10.81937020261781"><ele>129.0</ele><time>2026-04-18T10:10:17Z</time></trkpt><trkpt lat="43.35349257357311" lon="10.819141201519333"><ele>129.0</ele><time>2026-04-18T10:10:18Z</time></trkpt><trkpt lat="43.353566859804985" lon="10.818915267916049"><ele>129.0</ele><time>2026-04-18T10:10:19Z</time></trkpt><trkpt lat="43.353647820548346" lon="10.818697670025681"><ele>129.0</ele><time>2026-04-18T10:10:20Z</time></trkpt><trkpt lat="43.35371883527884" lon="10.818496938071618"><ele>128.0</ele><time>2026-04-18T10:10:21Z</time></trkpt><trkpt lat="43.353796094972004" lon="10.818318126527519"><ele>127.0</ele><time>2026-04-18T10:10:22Z</time></trkpt><trkpt lat="43.353894006360626" lon="10.818161125435699"><ele>126.0</ele><time>2026-04-18T10:10:23Z</time></trkpt><trkpt lat="43.35402559284144" lon="10.818044630608677"><ele>125.75</ele><time>2026-04-18T10:10:24Z</time></trkpt><trkpt lat="43.35417571584279" lon="10.81801542361587"><ele>125.5</ele><time>2026-04-18T10:10:25Z</time></trkpt><trkpt lat="43.35430393600551" lon="10.817948610127328"><ele>125.25</ele><time>2026-04-18T10:10:26Z</time></trkpt><trkpt lat="43.354439218248345" lon="10.817888061714692"><ele>125.0</ele><time>2026-04-18T10:10:27Z</time></trkpt><trkpt lat="43.35457231660352" lon="10.817800848908087"><ele>125.0</ele><time>2026-04-18T10:10:28Z</time></trkpt><trkpt lat="43.354692071654256" lon="10.817690363385235"><ele>125.0</ele><time>2026-04-18T10:10:29Z</time></trkpt><trkpt lat="43.35480487027661" lon="10.817545570715176"><ele>125.0</ele><time>2026-04-18T10:10:30Z</time></trkpt><trkpt lat="43.35490393702551" lon="10.817374936527989"><ele>124.33333333333333</ele><time>2026-04-18T10:10:31Z</time></trkpt><trkpt lat="43.354988754958754" lon="10.817175300689376"><ele>123.66666666666666</ele><time>2026-04-18T10:10:32Z</time></trkpt><trkpt lat="43.35504916248642" lon="10.816954945514631"><ele>123.0</ele><time>2026-04-18T10:10:33Z</time></trkpt><trkpt lat="43.3551075266694" lon="10.81673025255267"><ele>124.33333333333334</ele><time>2026-04-18T10:10:34Z</time></trkpt><trkpt lat="43.35516645262727" lon="10.81651797077797"><ele>125.66666666666667</ele><time>2026-04-18T10:10:35Z</time></trkpt><trkpt lat="43.35521878853092" lon="10.816312493497408"><ele>127.0</ele><time>2026-04-18T10:10:36Z</time></trkpt><trkpt lat="43.35526888035884" lon="10.816107472182866"><ele>128.33333333333334</ele><time>2026-04-18T10:10:37Z</time></trkpt><trkpt lat="43.355317984550744" lon="10.815910168951916"><ele>129.66666666666666</ele><time>2026-04-18T10:10:38Z</time></trkpt><trkpt lat="43.35537113965634" lon="10.815715054311745"><ele>131.0</ele><time>2026-04-18T10:10:39Z</time></trkpt><trkpt lat="43.35542297822919" lon="10.815517989860098"><ele>131.0</ele><time>2026-04-18T10:10:40Z</time></trkpt><trkpt lat="43.35547046092435" lon="10.815329924286251"><ele>131.0</ele><time>2026-04-18T10:10:41Z</time></trkpt><trkpt lat="43.35551213650453" lon="10.815153043493734"><ele>131.0</ele><time>2026-04-18T10:10:42Z</time></trkpt><trkpt lat="43.35555254166189" lon="10.814981710385291"><ele>131.0</ele><time>2026-04-18T10:10:43Z</time></trkpt><trkpt lat="43.35558860292894" lon="10.814841433294939"><ele>128.0</ele><time>2026-04-18T10:10:44Z</time></trkpt><trkpt lat="43.35562420904946" lon="10.814703024882338"><ele>125.0</ele><time>2026-04-18T10:10:45Z</time></trkpt><trkpt lat="43.35567315827365" lon="10.814561916730067"><ele>122.0</ele><time>2026-04-18T10:10:46Z</time></trkpt><trkpt lat="43.35575434155712" lon="10.814439104805208"><ele>119.0</ele><time>2026-04-18T10:10:47Z</time></trkpt><trkpt lat="43.35587452651846" lon="10.81438105934671"><ele>119.75</ele><time>2026-04-18T10:10:48Z</time></trkpt><trkpt lat="43.35600752811083" lon="10.814307384071423"><ele>120.5</ele><time>2026-04-18T10:10:49Z</time></trkpt><trkpt lat="43.35614429437645" lon="10.814236823952385"><ele>121.25</ele><time>2026-04-18T10:10:50Z</time></trkpt><trkpt lat="43.3562668821748" lon="10.8141472241199"><ele>122.0</ele><time>2026-04-18T10:10:51Z</time></trkpt><trkpt lat="43.35638739386768" lon="10.814080558192273"><ele>119.25</ele><time>2026-04-18T10:10:52Z</time></trkpt><trkpt lat="43.35650370827569" lon="10.813990913575712"><ele>116.5</ele><time>2026-04-18T10:10:53Z</time></trkpt><trkpt lat="43.35661776994464" lon="10.813882713203638"><ele>113.75</ele><time>2026-04-18T10:10:54Z</time></trkpt><trkpt lat="43.356727189809995" lon="10.813744856866512"><ele>111.0</ele><time>2026-04-18T10:10:55Z</time></trkpt><trkpt lat="43.356814139963305" lon="10.813601790404933"><ele>111.5</ele><time>2026-04-18T10:10:56Z</time></trkpt><trkpt lat="43.35689806065406" lon="10.813456639554747"><ele>112.0</ele><time>2026-04-18T10:10:57Z</time></trkpt><trkpt lat="43.35699180950728" lon="10.813312488858712"><ele>112.5</ele><time>2026-04-18T10:10:58Z</time></trkpt><trkpt lat="43.357082928005376" lon="10.813197585956017"><ele>113.0</ele><time>2026-04-18T10:10:59Z</time></trkpt><trkpt lat="43.35716642580746" lon="10.813073431875887"><ele>112.0</ele><time>2026-04-18T10:11:00Z</time></trkpt><trkpt lat="43.35724544682592" lon="10.812953195681947"><ele>111.00000000000001</ele><time>2026-04-18T10:11:01Z</time></trkpt><trkpt lat="43.35732204901278" lon="10.812839416744778"><ele>110.00000000000001</ele><time>2026-04-18T10:11:02Z</time></trkpt><trkpt lat="43.35739924699684" lon="10.812731973583098"><ele>109.0</ele><time>2026-04-18T10:11:03Z</time></trkpt><trkpt lat="43.357486503317695" lon="10.812647309373977"><ele>108.0</ele><time>2026-04-18T10:11:04Z</time></trkpt><trkpt lat="43.35759254919703" lon="10.81262509591985"><ele>108.0</ele><time>2026-04-18T10:11:05Z</time></trkpt><trkpt lat="43.35769707825784" lon="10.812640620380877"><ele>108.0</ele><time>2026-04-18T10:11:06Z</time></trkpt><trkpt lat="43.357812837298994" lon="10.812646898961212"><ele>108.0</ele><time>2026-04-18T10:11:07Z</time></trkpt><trkpt lat="43.35793664181333" lon="10.812658321244509"><ele>108.0</ele><time>2026-04-18T10:11:08Z</time></trkpt><trkpt lat="43.35805962229115" lon="10.81266966752853"><ele>105.0</ele><time>2026-04-18T10:11:08.999Z</time></trkpt><trkpt lat="43.358159257126225" lon="10.812715219712294"><ele>102.00000000000001</ele><time>2026-04-18T10:11:09.999Z</time></trkpt><trkpt lat="43.3582412393609" lon="10.812794488633255"><ele>99.0</ele><time>2026-04-18T10:11:10.999Z</time></trkpt><trkpt lat="43.358282129920966" lon="10.81289904870114"><ele>96.0</ele><time>2026-04-18T10:11:11.999Z</time></trkpt><trkpt lat="43.35827664344113" lon="10.8130080820112"><ele>93.0</ele><time>2026-04-18T10:11:12.999Z</time></trkpt><trkpt lat="43.35825448023229" lon="10.813131017370292"><ele>93.0</ele><time>2026-04-18T10:11:13.999Z</time></trkpt><trkpt lat="43.35817143591441" lon="10.813257096444318"><ele>93.0</ele><time>2026-04-18T10:11:14.999Z</time></trkpt><trkpt lat="43.358076159155935" lon="10.81339405275192"><ele>93.0</ele><time>2026-04-18T10:11:15.999Z</time></trkpt><trkpt lat="43.357977696833" lon="10.813546308510167"><ele>93.0</ele><time>2026-04-18T10:11:16.999Z</time></trkpt><trkpt lat="43.35788029716741" lon="10.813695467165008"><ele>93.25</ele><time>2026-04-18T10:11:17.999Z</time></trkpt><trkpt lat="43.357781294369985" lon="10.813840750626932"><ele>93.5</ele><time>2026-04-18T10:11:18.999Z</time></trkpt><trkpt lat="43.35768767644085" lon="10.813981499784507"><ele>93.75</ele><time>2026-04-18T10:11:19.999Z</time></trkpt><trkpt lat="43.35759983337471" lon="10.814112468007435"><ele>94.0</ele><time>2026-04-18T10:11:20.999Z</time></trkpt><trkpt lat="43.35751834159271" lon="10.81423300438728"><ele>92.6</ele><time>2026-04-18T10:11:21.999Z</time></trkpt><trkpt lat="43.35744307205727" lon="10.814348773016842"><ele>91.2</ele><time>2026-04-18T10:11:22.999Z</time></trkpt><trkpt lat="43.357390940595096" lon="10.814457641733885"><ele>89.8</ele><time>2026-04-18T10:11:23.999Z</time></trkpt><trkpt lat="43.35735667237727" lon="10.814584391041038"><ele>88.39999999999999</ele><time>2026-04-18T10:11:24.999Z</time></trkpt><trkpt lat="43.35742172777933" lon="10.814701377148642"><ele>87.0</ele><time>2026-04-18T10:11:25.999Z</time></trkpt><trkpt lat="43.357496456841986" lon="10.814741787941944"><ele>87.0</ele><time>2026-04-18T10:11:26.999Z</time></trkpt><trkpt lat="43.35759227704826" lon="10.814707789348963"><ele>87.0</ele><time>2026-04-18T10:11:27.999Z</time></trkpt><trkpt lat="43.35771298020735" lon="10.814657306295796"><ele>87.0</ele><time>2026-04-18T10:11:28.999Z</time></trkpt><trkpt lat="43.35784404489505" lon="10.814600135599477"><ele>87.0</ele><time>2026-04-18T10:11:29.999Z</time></trkpt><trkpt lat="43.35797582927196" lon="10.814550180898662"><ele>85.25</ele><time>2026-04-18T10:11:30.999Z</time></trkpt><trkpt lat="43.3580985473223" lon="10.814502517832915"><ele>83.5</ele><time>2026-04-18T10:11:31.999Z</time></trkpt><trkpt lat="43.35822238105774" lon="10.814455595613804"><ele>81.75</ele><time>2026-04-18T10:11:32.999Z</time></trkpt><trkpt lat="43.358345739743555" lon="10.814407460921036"><ele>80.0</ele><time>2026-04-18T10:11:33.999Z</time></trkpt><trkpt lat="43.35847321174501" lon="10.814348406767376"><ele>79.0</ele><time>2026-04-18T10:11:34.999Z</time></trkpt><trkpt lat="43.358601125306144" lon="10.814292042913966"><ele>78.0</ele><time>2026-04-18T10:11:35.999Z</time></trkpt><trkpt lat="43.35872707175655" lon="10.814242989977918"><ele>77.0</ele><time>2026-04-18T10:11:36.999Z</time></trkpt><trkpt lat="43.358844744766564" lon="10.814177083666022"><ele>76.0</ele><time>2026-04-18T10:11:37.999Z</time></trkpt><trkpt lat="43.358936832255274" lon="10.814078723144"><ele>76.0</ele><time>2026-04-18T10:11:38.999Z</time></trkpt><trkpt lat="43.35901008575219" lon="10.813971999446926"><ele>76.0</ele><time>2026-04-18T10:11:39.999Z</time></trkpt><trkpt lat="43.359081897632315" lon="10.813873300357221"><ele>76.0</ele><time>2026-04-18T10:11:40.999Z</time></trkpt><trkpt lat="43.359153713837166" lon="10.813785206832254"><ele>76.0</ele><time>2026-04-18T10:11:41.999Z</time></trkpt><trkpt lat="43.35920677289934" lon="10.813712805684169"><ele>76.0</ele><time>2026-04-18T10:11:42.999Z</time></trkpt><trkpt lat="43.35926161224252" lon="10.813647124603229"><ele>76.0</ele><time>2026-04-18T10:11:44Z</time></trkpt><trkpt lat="43.359336520588556" lon="10.813548497755402"><ele>76.0</ele><time>2026-04-18T10:11:46Z</time></trkpt><trkpt lat="43.35938295233921" lon="10.813465852795112"><ele>76.0</ele><time>2026-04-18T10:11:48Z</time></trkpt><trkpt lat="43.35946659071066" lon="10.813362416854414"><ele>76.0</ele><time>2026-04-18T10:11:50Z</time></trkpt><trkpt lat="43.35951376565746" lon="10.81328917547918"><ele>76.0</ele><time>2026-04-18T10:11:51Z</time></trkpt><trkpt lat="43.35959792107225" lon="10.813184663501653"><ele>75.71428571428571</ele><time>2026-04-18T10:11:53Z</time></trkpt><trkpt lat="43.35964989498079" lon="10.813101055653945"><ele>75.42857142857143</ele><time>2026-04-18T10:11:54Z</time></trkpt><trkpt lat="43.35970362152422" lon="10.813015367980164"><ele>75.14285714285714</ele><time>2026-04-18T10:11:55Z</time></trkpt><trkpt lat="43.35976007946101" lon="10.812953293497714"><ele>74.85714285714286</ele><time>2026-04-18T10:11:56Z</time></trkpt><trkpt lat="43.35980992625685" lon="10.812885335169538"><ele>74.57142857142857</ele><time>2026-04-18T10:11:57Z</time></trkpt><trkpt lat="43.359851541513294" lon="10.812816990921638"><ele>74.28571428571429</ele><time>2026-04-18T10:11:58Z</time></trkpt><trkpt lat="43.35989598533193" lon="10.812744805335354"><ele>74.0</ele><time>2026-04-18T10:11:59Z</time></trkpt><trkpt lat="43.35995263241701" lon="10.812659262152508"><ele>73.66666666666667</ele><time>2026-04-18T10:12:00Z</time></trkpt><trkpt lat="43.36001379447247" lon="10.812594859966541"><ele>73.33333333333334</ele><time>2026-04-18T10:12:01Z</time></trkpt><trkpt lat="43.36007380438132" lon="10.812555089722672"><ele>73.0</ele><time>2026-04-18T10:12:02Z</time></trkpt><trkpt lat="43.36014704355547" lon="10.81247668973269"><ele>72.66666666666667</ele><time>2026-04-18T10:12:04Z</time></trkpt><trkpt lat="43.36019448188753" lon="10.812392571254362"><ele>72.33333333333333</ele><time>2026-04-18T10:12:06Z</time></trkpt><trkpt lat="43.36025288635547" lon="10.812338675330556"><ele>72.0</ele><time>2026-04-18T10:12:08Z</time></trkpt><trkpt lat="43.36032617895235" lon="10.812314139607828"><ele>72.0</ele><time>2026-04-18T10:12:11Z</time></trkpt><trkpt lat="43.360413856397365" lon="10.812247616716885"><ele>72.0</ele><time>2026-04-18T10:12:14Z</time></trkpt><trkpt lat="43.36051447242702" lon="10.812285955108187"><ele>72.0</ele><time>2026-04-18T10:12:16Z</time></trkpt><trkpt lat="43.360632233417874" lon="10.812330081111286"><ele>72.0</ele><time>2026-04-18T10:12:18Z</time></trkpt><trkpt lat="43.360724839177564" lon="10.81235874442832"><ele>72.0</ele><time>2026-04-18T10:12:19Z</time></trkpt><trkpt lat="43.3608203795803" lon="10.812374095909822"><ele>73.0</ele><time>2026-04-18T10:12:20Z</time></trkpt><trkpt lat="43.360912342381916" lon="10.812375632542446"><ele>73.0</ele><time>2026-04-18T10:12:21Z</time></trkpt><trkpt lat="43.3609983935667" lon="10.812363389799351"><ele>73.0</ele><time>2026-04-18T10:12:22Z</time></trkpt><trkpt lat="43.36107332988693" lon="10.81232359597289"><ele>73.0</ele><time>2026-04-18T10:12:23Z</time></trkpt><trkpt lat="43.36113061314259" lon="10.812272829828794"><ele>73.0</ele><time>2026-04-18T10:12:24Z</time></trkpt><trkpt lat="43.361220025898724" lon="10.812240880604225"><ele>73.0</ele><time>2026-04-18T10:12:26Z</time></trkpt></trkseg></trk></gpx>